<?xml version="1.0" encoding="UTF-8" standalone="no" ?>
<gpx xmlns="http://www.topografix.com/GPX/1/1" xmlns:xsi="http://www.w3.org/2001/XMLSchema-instance" xsi:schemaLocation="http://www.topografix.com/GPX/1/1 http://www.topografix.com/GPX/1/1/gpx.xsd" version="1.1" creator="VisuGPX - https://www.visugpx.com">
  <metadata>
    <name>Pic du Loup et Grand colon</name>
  </metadata>
  <trk>
    <name><![CDATA[Pic du Loup et Grand colon_1]]></name>
    <trkseg>
      <trkpt lat="45.18693" lon="5.89971">
        <ele>1134</ele>
        <time>2022-01-22T07:37:31Z</time>
      </trkpt>
      <trkpt lat="45.18693" lon="5.89973">
        <ele>1134</ele>
        <time>2022-01-22T07:37:32Z</time>
      </trkpt>
      <trkpt lat="45.18693" lon="5.89976">
        <ele>1135</ele>
        <time>2022-01-22T07:37:34Z</time>
      </trkpt>
      <trkpt lat="45.18694" lon="5.89979">
        <ele>1136</ele>
        <time>2022-01-22T07:37:36Z</time>
      </trkpt>
      <trkpt lat="45.18694" lon="5.89982">
        <ele>1136</ele>
        <time>2022-01-22T07:37:38Z</time>
      </trkpt>
      <trkpt lat="45.18694" lon="5.89985">
        <ele>1136</ele>
        <time>2022-01-22T07:37:40Z</time>
      </trkpt>
      <trkpt lat="45.18694" lon="5.89988">
        <ele>1136</ele>
        <time>2022-01-22T07:37:42Z</time>
      </trkpt>
      <trkpt lat="45.18694" lon="5.89992">
        <ele>1136</ele>
        <time>2022-01-22T07:37:44Z</time>
      </trkpt>
      <trkpt lat="45.18695" lon="5.89995">
        <ele>1136</ele>
        <time>2022-01-22T07:37:46Z</time>
      </trkpt>
      <trkpt lat="45.18694" lon="5.89998">
        <ele>1136</ele>
        <time>2022-01-22T07:37:48Z</time>
      </trkpt>
      <trkpt lat="45.18694" lon="5.90002">
        <ele>1137</ele>
        <time>2022-01-22T07:37:51Z</time>
      </trkpt>
      <trkpt lat="45.18694" lon="5.90007">
        <ele>1137</ele>
        <time>2022-01-22T07:37:54Z</time>
      </trkpt>
      <trkpt lat="45.18694" lon="5.90011">
        <ele>1137</ele>
        <time>2022-01-22T07:37:57Z</time>
      </trkpt>
      <trkpt lat="45.18694" lon="5.90014">
        <ele>1137</ele>
        <time>2022-01-22T07:37:59Z</time>
      </trkpt>
      <trkpt lat="45.18692" lon="5.90019">
        <ele>1138</ele>
        <time>2022-01-22T07:38:02Z</time>
      </trkpt>
      <trkpt lat="45.18691" lon="5.90023">
        <ele>1138</ele>
        <time>2022-01-22T07:38:04Z</time>
      </trkpt>
      <trkpt lat="45.1869" lon="5.90025">
        <ele>1138</ele>
        <time>2022-01-22T07:38:06Z</time>
      </trkpt>
      <trkpt lat="45.1869" lon="5.90029">
        <ele>1139</ele>
        <time>2022-01-22T07:38:08Z</time>
      </trkpt>
      <trkpt lat="45.18689" lon="5.90032">
        <ele>1139</ele>
        <time>2022-01-22T07:38:10Z</time>
      </trkpt>
      <trkpt lat="45.18689" lon="5.90035">
        <ele>1139</ele>
        <time>2022-01-22T07:38:12Z</time>
      </trkpt>
      <trkpt lat="45.18689" lon="5.90038">
        <ele>1139</ele>
        <time>2022-01-22T07:38:14Z</time>
      </trkpt>
      <trkpt lat="45.18689" lon="5.90042">
        <ele>1140</ele>
        <time>2022-01-22T07:38:16Z</time>
      </trkpt>
      <trkpt lat="45.18689" lon="5.90045">
        <ele>1140</ele>
        <time>2022-01-22T07:38:18Z</time>
      </trkpt>
      <trkpt lat="45.18688" lon="5.90049">
        <ele>1141</ele>
        <time>2022-01-22T07:38:20Z</time>
      </trkpt>
      <trkpt lat="45.18688" lon="5.90052">
        <ele>1141</ele>
        <time>2022-01-22T07:38:22Z</time>
      </trkpt>
      <trkpt lat="45.18687" lon="5.90055">
        <ele>1141</ele>
        <time>2022-01-22T07:38:24Z</time>
      </trkpt>
      <trkpt lat="45.18686" lon="5.90059">
        <ele>1141</ele>
        <time>2022-01-22T07:38:26Z</time>
      </trkpt>
      <trkpt lat="45.18685" lon="5.90063">
        <ele>1141</ele>
        <time>2022-01-22T07:38:28Z</time>
      </trkpt>
      <trkpt lat="45.18677" lon="5.90072">
        <ele>1142</ele>
        <time>2022-01-22T07:38:35Z</time>
      </trkpt>
      <trkpt lat="45.18669" lon="5.90078">
        <ele>1144</ele>
        <time>2022-01-22T07:38:42Z</time>
      </trkpt>
      <trkpt lat="45.18666" lon="5.90079">
        <ele>1144</ele>
        <time>2022-01-22T07:38:44Z</time>
      </trkpt>
      <trkpt lat="45.18663" lon="5.9008">
        <ele>1144</ele>
        <time>2022-01-22T07:38:46Z</time>
      </trkpt>
      <trkpt lat="45.18661" lon="5.90081">
        <ele>1144</ele>
        <time>2022-01-22T07:38:48Z</time>
      </trkpt>
      <trkpt lat="45.18659" lon="5.90083">
        <ele>1144</ele>
        <time>2022-01-22T07:38:50Z</time>
      </trkpt>
      <trkpt lat="45.18657" lon="5.90084">
        <ele>1144</ele>
        <time>2022-01-22T07:38:52Z</time>
      </trkpt>
      <trkpt lat="45.18655" lon="5.90087">
        <ele>1145</ele>
        <time>2022-01-22T07:38:55Z</time>
      </trkpt>
      <trkpt lat="45.18653" lon="5.90089">
        <ele>1145</ele>
        <time>2022-01-22T07:38:57Z</time>
      </trkpt>
      <trkpt lat="45.18651" lon="5.90091">
        <ele>1146</ele>
        <time>2022-01-22T07:38:59Z</time>
      </trkpt>
      <trkpt lat="45.1865" lon="5.90093">
        <ele>1146</ele>
        <time>2022-01-22T07:39:01Z</time>
      </trkpt>
      <trkpt lat="45.18649" lon="5.90096">
        <ele>1146</ele>
        <time>2022-01-22T07:39:03Z</time>
      </trkpt>
      <trkpt lat="45.18647" lon="5.90098">
        <ele>1147</ele>
        <time>2022-01-22T07:39:05Z</time>
      </trkpt>
      <trkpt lat="45.18645" lon="5.90102">
        <ele>1147</ele>
        <time>2022-01-22T07:39:08Z</time>
      </trkpt>
      <trkpt lat="45.18644" lon="5.90104">
        <ele>1147</ele>
        <time>2022-01-22T07:39:10Z</time>
      </trkpt>
      <trkpt lat="45.18642" lon="5.90106">
        <ele>1147</ele>
        <time>2022-01-22T07:39:12Z</time>
      </trkpt>
      <trkpt lat="45.18642" lon="5.90109">
        <ele>1148</ele>
        <time>2022-01-22T07:39:14Z</time>
      </trkpt>
      <trkpt lat="45.18641" lon="5.90112">
        <ele>1148</ele>
        <time>2022-01-22T07:39:16Z</time>
      </trkpt>
      <trkpt lat="45.18639" lon="5.90115">
        <ele>1148</ele>
        <time>2022-01-22T07:39:18Z</time>
      </trkpt>
      <trkpt lat="45.18638" lon="5.90119">
        <ele>1149</ele>
        <time>2022-01-22T07:39:20Z</time>
      </trkpt>
      <trkpt lat="45.18638" lon="5.90122">
        <ele>1149</ele>
        <time>2022-01-22T07:39:22Z</time>
      </trkpt>
      <trkpt lat="45.18638" lon="5.90126">
        <ele>1149</ele>
        <time>2022-01-22T07:39:24Z</time>
      </trkpt>
      <trkpt lat="45.18638" lon="5.90129">
        <ele>1150</ele>
        <time>2022-01-22T07:39:26Z</time>
      </trkpt>
      <trkpt lat="45.18637" lon="5.90133">
        <ele>1150</ele>
        <time>2022-01-22T07:39:28Z</time>
      </trkpt>
      <trkpt lat="45.18636" lon="5.90136">
        <ele>1150</ele>
        <time>2022-01-22T07:39:30Z</time>
      </trkpt>
      <trkpt lat="45.18636" lon="5.9014">
        <ele>1151</ele>
        <time>2022-01-22T07:39:32Z</time>
      </trkpt>
      <trkpt lat="45.18636" lon="5.90143">
        <ele>1151</ele>
        <time>2022-01-22T07:39:34Z</time>
      </trkpt>
      <trkpt lat="45.18636" lon="5.90147">
        <ele>1151</ele>
        <time>2022-01-22T07:39:36Z</time>
      </trkpt>
      <trkpt lat="45.18636" lon="5.9015">
        <ele>1151</ele>
        <time>2022-01-22T07:39:38Z</time>
      </trkpt>
      <trkpt lat="45.18636" lon="5.90153">
        <ele>1151</ele>
        <time>2022-01-22T07:39:40Z</time>
      </trkpt>
      <trkpt lat="45.18636" lon="5.90156">
        <ele>1152</ele>
        <time>2022-01-22T07:39:42Z</time>
      </trkpt>
      <trkpt lat="45.18636" lon="5.90159">
        <ele>1152</ele>
        <time>2022-01-22T07:39:44Z</time>
      </trkpt>
      <trkpt lat="45.18637" lon="5.90163">
        <ele>1152</ele>
        <time>2022-01-22T07:39:46Z</time>
      </trkpt>
      <trkpt lat="45.18637" lon="5.90166">
        <ele>1152</ele>
        <time>2022-01-22T07:39:48Z</time>
      </trkpt>
      <trkpt lat="45.18637" lon="5.9017">
        <ele>1152</ele>
        <time>2022-01-22T07:39:50Z</time>
      </trkpt>
      <trkpt lat="45.18638" lon="5.90173">
        <ele>1153</ele>
        <time>2022-01-22T07:39:52Z</time>
      </trkpt>
      <trkpt lat="45.18638" lon="5.90177">
        <ele>1153</ele>
        <time>2022-01-22T07:39:54Z</time>
      </trkpt>
      <trkpt lat="45.18639" lon="5.9018">
        <ele>1153</ele>
        <time>2022-01-22T07:39:56Z</time>
      </trkpt>
      <trkpt lat="45.1864" lon="5.90184">
        <ele>1153</ele>
        <time>2022-01-22T07:39:58Z</time>
      </trkpt>
      <trkpt lat="45.18641" lon="5.90188">
        <ele>1154</ele>
        <time>2022-01-22T07:40:00Z</time>
      </trkpt>
      <trkpt lat="45.18642" lon="5.9019">
        <ele>1154</ele>
        <time>2022-01-22T07:40:02Z</time>
      </trkpt>
      <trkpt lat="45.18643" lon="5.90194">
        <ele>1154</ele>
        <time>2022-01-22T07:40:04Z</time>
      </trkpt>
      <trkpt lat="45.18644" lon="5.90197">
        <ele>1154</ele>
        <time>2022-01-22T07:40:06Z</time>
      </trkpt>
      <trkpt lat="45.18645" lon="5.902">
        <ele>1154</ele>
        <time>2022-01-22T07:40:08Z</time>
      </trkpt>
      <trkpt lat="45.18646" lon="5.90203">
        <ele>1155</ele>
        <time>2022-01-22T07:40:10Z</time>
      </trkpt>
      <trkpt lat="45.18646" lon="5.90206">
        <ele>1155</ele>
        <time>2022-01-22T07:40:12Z</time>
      </trkpt>
      <trkpt lat="45.18647" lon="5.9021">
        <ele>1155</ele>
        <time>2022-01-22T07:40:14Z</time>
      </trkpt>
      <trkpt lat="45.18647" lon="5.90213">
        <ele>1156</ele>
        <time>2022-01-22T07:40:16Z</time>
      </trkpt>
      <trkpt lat="45.18648" lon="5.90216">
        <ele>1157</ele>
        <time>2022-01-22T07:40:18Z</time>
      </trkpt>
      <trkpt lat="45.18648" lon="5.90219">
        <ele>1157</ele>
        <time>2022-01-22T07:40:20Z</time>
      </trkpt>
      <trkpt lat="45.18649" lon="5.90223">
        <ele>1157</ele>
        <time>2022-01-22T07:40:22Z</time>
      </trkpt>
      <trkpt lat="45.18649" lon="5.90226">
        <ele>1157</ele>
        <time>2022-01-22T07:40:24Z</time>
      </trkpt>
      <trkpt lat="45.1865" lon="5.90229">
        <ele>1157</ele>
        <time>2022-01-22T07:40:26Z</time>
      </trkpt>
      <trkpt lat="45.18651" lon="5.90232">
        <ele>1157</ele>
        <time>2022-01-22T07:40:28Z</time>
      </trkpt>
      <trkpt lat="45.18652" lon="5.90235">
        <ele>1157</ele>
        <time>2022-01-22T07:40:30Z</time>
      </trkpt>
      <trkpt lat="45.18652" lon="5.90239">
        <ele>1158</ele>
        <time>2022-01-22T07:40:32Z</time>
      </trkpt>
      <trkpt lat="45.18653" lon="5.90242">
        <ele>1158</ele>
        <time>2022-01-22T07:40:34Z</time>
      </trkpt>
      <trkpt lat="45.18653" lon="5.90245">
        <ele>1159</ele>
        <time>2022-01-22T07:40:36Z</time>
      </trkpt>
      <trkpt lat="45.18654" lon="5.90248">
        <ele>1159</ele>
        <time>2022-01-22T07:40:38Z</time>
      </trkpt>
      <trkpt lat="45.18654" lon="5.90251">
        <ele>1160</ele>
        <time>2022-01-22T07:40:40Z</time>
      </trkpt>
      <trkpt lat="45.18655" lon="5.90255">
        <ele>1160</ele>
        <time>2022-01-22T07:40:42Z</time>
      </trkpt>
      <trkpt lat="45.18655" lon="5.90257">
        <ele>1160</ele>
        <time>2022-01-22T07:40:44Z</time>
      </trkpt>
      <trkpt lat="45.18656" lon="5.9026">
        <ele>1161</ele>
        <time>2022-01-22T07:40:46Z</time>
      </trkpt>
      <trkpt lat="45.18656" lon="5.90263">
        <ele>1161</ele>
        <time>2022-01-22T07:40:48Z</time>
      </trkpt>
      <trkpt lat="45.18658" lon="5.90266">
        <ele>1162</ele>
        <time>2022-01-22T07:40:50Z</time>
      </trkpt>
      <trkpt lat="45.18659" lon="5.90269">
        <ele>1162</ele>
        <time>2022-01-22T07:40:52Z</time>
      </trkpt>
      <trkpt lat="45.1866" lon="5.90272">
        <ele>1162</ele>
        <time>2022-01-22T07:40:54Z</time>
      </trkpt>
      <trkpt lat="45.18662" lon="5.90275">
        <ele>1162</ele>
        <time>2022-01-22T07:40:56Z</time>
      </trkpt>
      <trkpt lat="45.18663" lon="5.90278">
        <ele>1163</ele>
        <time>2022-01-22T07:40:58Z</time>
      </trkpt>
      <trkpt lat="45.18664" lon="5.9028">
        <ele>1164</ele>
        <time>2022-01-22T07:41:00Z</time>
      </trkpt>
      <trkpt lat="45.18665" lon="5.90283">
        <ele>1164</ele>
        <time>2022-01-22T07:41:02Z</time>
      </trkpt>
      <trkpt lat="45.18666" lon="5.90285">
        <ele>1164</ele>
        <time>2022-01-22T07:41:04Z</time>
      </trkpt>
      <trkpt lat="45.18667" lon="5.90288">
        <ele>1165</ele>
        <time>2022-01-22T07:41:06Z</time>
      </trkpt>
      <trkpt lat="45.18668" lon="5.9029">
        <ele>1165</ele>
        <time>2022-01-22T07:41:08Z</time>
      </trkpt>
      <trkpt lat="45.18669" lon="5.90293">
        <ele>1165</ele>
        <time>2022-01-22T07:41:10Z</time>
      </trkpt>
      <trkpt lat="45.18671" lon="5.90296">
        <ele>1166</ele>
        <time>2022-01-22T07:41:13Z</time>
      </trkpt>
      <trkpt lat="45.18672" lon="5.90298">
        <ele>1167</ele>
        <time>2022-01-22T07:41:15Z</time>
      </trkpt>
      <trkpt lat="45.18673" lon="5.903">
        <ele>1167</ele>
        <time>2022-01-22T07:41:17Z</time>
      </trkpt>
      <trkpt lat="45.18675" lon="5.90303">
        <ele>1167</ele>
        <time>2022-01-22T07:41:19Z</time>
      </trkpt>
      <trkpt lat="45.18676" lon="5.90305">
        <ele>1167</ele>
        <time>2022-01-22T07:41:21Z</time>
      </trkpt>
      <trkpt lat="45.18678" lon="5.90308">
        <ele>1167</ele>
        <time>2022-01-22T07:41:24Z</time>
      </trkpt>
      <trkpt lat="45.18679" lon="5.90311">
        <ele>1168</ele>
        <time>2022-01-22T07:41:26Z</time>
      </trkpt>
      <trkpt lat="45.18681" lon="5.90313">
        <ele>1168</ele>
        <time>2022-01-22T07:41:28Z</time>
      </trkpt>
      <trkpt lat="45.18682" lon="5.90315">
        <ele>1168</ele>
        <time>2022-01-22T07:41:30Z</time>
      </trkpt>
      <trkpt lat="45.18683" lon="5.90318">
        <ele>1169</ele>
        <time>2022-01-22T07:41:32Z</time>
      </trkpt>
      <trkpt lat="45.18685" lon="5.9032">
        <ele>1169</ele>
        <time>2022-01-22T07:41:34Z</time>
      </trkpt>
      <trkpt lat="45.18686" lon="5.90323">
        <ele>1170</ele>
        <time>2022-01-22T07:41:36Z</time>
      </trkpt>
      <trkpt lat="45.18688" lon="5.90325">
        <ele>1170</ele>
        <time>2022-01-22T07:41:38Z</time>
      </trkpt>
      <trkpt lat="45.18689" lon="5.90327">
        <ele>1170</ele>
        <time>2022-01-22T07:41:40Z</time>
      </trkpt>
      <trkpt lat="45.1869" lon="5.90329">
        <ele>1171</ele>
        <time>2022-01-22T07:41:42Z</time>
      </trkpt>
      <trkpt lat="45.18692" lon="5.90332">
        <ele>1172</ele>
        <time>2022-01-22T07:41:44Z</time>
      </trkpt>
      <trkpt lat="45.18693" lon="5.90334">
        <ele>1173</ele>
        <time>2022-01-22T07:41:46Z</time>
      </trkpt>
      <trkpt lat="45.18694" lon="5.90337">
        <ele>1173</ele>
        <time>2022-01-22T07:41:48Z</time>
      </trkpt>
      <trkpt lat="45.18695" lon="5.9034">
        <ele>1174</ele>
        <time>2022-01-22T07:41:50Z</time>
      </trkpt>
      <trkpt lat="45.18696" lon="5.90342">
        <ele>1175</ele>
        <time>2022-01-22T07:41:52Z</time>
      </trkpt>
      <trkpt lat="45.18697" lon="5.90345">
        <ele>1175</ele>
        <time>2022-01-22T07:41:54Z</time>
      </trkpt>
      <trkpt lat="45.18697" lon="5.90348">
        <ele>1176</ele>
        <time>2022-01-22T07:41:56Z</time>
      </trkpt>
      <trkpt lat="45.18697" lon="5.90352">
        <ele>1176</ele>
        <time>2022-01-22T07:41:58Z</time>
      </trkpt>
      <trkpt lat="45.18696" lon="5.90354">
        <ele>1176</ele>
        <time>2022-01-22T07:42:00Z</time>
      </trkpt>
      <trkpt lat="45.18695" lon="5.90357">
        <ele>1176</ele>
        <time>2022-01-22T07:42:02Z</time>
      </trkpt>
      <trkpt lat="45.18694" lon="5.9036">
        <ele>1176</ele>
        <time>2022-01-22T07:42:04Z</time>
      </trkpt>
      <trkpt lat="45.18693" lon="5.90362">
        <ele>1177</ele>
        <time>2022-01-22T07:42:06Z</time>
      </trkpt>
      <trkpt lat="45.18692" lon="5.90365">
        <ele>1178</ele>
        <time>2022-01-22T07:42:08Z</time>
      </trkpt>
      <trkpt lat="45.1869" lon="5.90367">
        <ele>1178</ele>
        <time>2022-01-22T07:42:10Z</time>
      </trkpt>
      <trkpt lat="45.18689" lon="5.90369">
        <ele>1179</ele>
        <time>2022-01-22T07:42:12Z</time>
      </trkpt>
      <trkpt lat="45.18687" lon="5.90371">
        <ele>1179</ele>
        <time>2022-01-22T07:42:14Z</time>
      </trkpt>
      <trkpt lat="45.18684" lon="5.90372">
        <ele>1179</ele>
        <time>2022-01-22T07:42:16Z</time>
      </trkpt>
      <trkpt lat="45.18683" lon="5.90374">
        <ele>1179</ele>
        <time>2022-01-22T07:42:18Z</time>
      </trkpt>
      <trkpt lat="45.1868" lon="5.90374">
        <ele>1180</ele>
        <time>2022-01-22T07:42:20Z</time>
      </trkpt>
      <trkpt lat="45.18678" lon="5.90376">
        <ele>1180</ele>
        <time>2022-01-22T07:42:22Z</time>
      </trkpt>
      <trkpt lat="45.18676" lon="5.90377">
        <ele>1181</ele>
        <time>2022-01-22T07:42:24Z</time>
      </trkpt>
      <trkpt lat="45.18673" lon="5.90378">
        <ele>1181</ele>
        <time>2022-01-22T07:42:26Z</time>
      </trkpt>
      <trkpt lat="45.18671" lon="5.9038">
        <ele>1182</ele>
        <time>2022-01-22T07:42:28Z</time>
      </trkpt>
      <trkpt lat="45.18669" lon="5.90381">
        <ele>1182</ele>
        <time>2022-01-22T07:42:30Z</time>
      </trkpt>
      <trkpt lat="45.18667" lon="5.90383">
        <ele>1182</ele>
        <time>2022-01-22T07:42:32Z</time>
      </trkpt>
      <trkpt lat="45.18666" lon="5.90385">
        <ele>1182</ele>
        <time>2022-01-22T07:42:35Z</time>
      </trkpt>
      <trkpt lat="45.18664" lon="5.90388">
        <ele>1183</ele>
        <time>2022-01-22T07:42:37Z</time>
      </trkpt>
      <trkpt lat="45.18664" lon="5.9039">
        <ele>1184</ele>
        <time>2022-01-22T07:42:39Z</time>
      </trkpt>
      <trkpt lat="45.18663" lon="5.90394">
        <ele>1184</ele>
        <time>2022-01-22T07:42:41Z</time>
      </trkpt>
      <trkpt lat="45.18662" lon="5.90397">
        <ele>1184</ele>
        <time>2022-01-22T07:42:43Z</time>
      </trkpt>
      <trkpt lat="45.18661" lon="5.90399">
        <ele>1185</ele>
        <time>2022-01-22T07:42:45Z</time>
      </trkpt>
      <trkpt lat="45.18661" lon="5.90403">
        <ele>1186</ele>
        <time>2022-01-22T07:42:47Z</time>
      </trkpt>
      <trkpt lat="45.1866" lon="5.90405">
        <ele>1186</ele>
        <time>2022-01-22T07:42:49Z</time>
      </trkpt>
      <trkpt lat="45.1866" lon="5.90409">
        <ele>1186</ele>
        <time>2022-01-22T07:42:51Z</time>
      </trkpt>
      <trkpt lat="45.18659" lon="5.90412">
        <ele>1186</ele>
        <time>2022-01-22T07:42:53Z</time>
      </trkpt>
      <trkpt lat="45.18659" lon="5.90415">
        <ele>1187</ele>
        <time>2022-01-22T07:42:56Z</time>
      </trkpt>
      <trkpt lat="45.18658" lon="5.90418">
        <ele>1188</ele>
        <time>2022-01-22T07:42:58Z</time>
      </trkpt>
      <trkpt lat="45.18657" lon="5.90421">
        <ele>1188</ele>
        <time>2022-01-22T07:43:00Z</time>
      </trkpt>
      <trkpt lat="45.18655" lon="5.90424">
        <ele>1188</ele>
        <time>2022-01-22T07:43:02Z</time>
      </trkpt>
      <trkpt lat="45.18654" lon="5.90427">
        <ele>1188</ele>
        <time>2022-01-22T07:43:04Z</time>
      </trkpt>
      <trkpt lat="45.18652" lon="5.90429">
        <ele>1188</ele>
        <time>2022-01-22T07:43:06Z</time>
      </trkpt>
      <trkpt lat="45.1865" lon="5.90431">
        <ele>1188</ele>
        <time>2022-01-22T07:43:08Z</time>
      </trkpt>
      <trkpt lat="45.18648" lon="5.90433">
        <ele>1189</ele>
        <time>2022-01-22T07:43:10Z</time>
      </trkpt>
      <trkpt lat="45.18646" lon="5.90435">
        <ele>1189</ele>
        <time>2022-01-22T07:43:12Z</time>
      </trkpt>
      <trkpt lat="45.18644" lon="5.90436">
        <ele>1190</ele>
        <time>2022-01-22T07:43:14Z</time>
      </trkpt>
      <trkpt lat="45.18642" lon="5.90438">
        <ele>1190</ele>
        <time>2022-01-22T07:43:16Z</time>
      </trkpt>
      <trkpt lat="45.1864" lon="5.90439">
        <ele>1190</ele>
        <time>2022-01-22T07:43:18Z</time>
      </trkpt>
      <trkpt lat="45.18638" lon="5.9044">
        <ele>1190</ele>
        <time>2022-01-22T07:43:20Z</time>
      </trkpt>
      <trkpt lat="45.18636" lon="5.90442">
        <ele>1190</ele>
        <time>2022-01-22T07:43:22Z</time>
      </trkpt>
      <trkpt lat="45.18634" lon="5.90443">
        <ele>1191</ele>
        <time>2022-01-22T07:43:24Z</time>
      </trkpt>
      <trkpt lat="45.18631" lon="5.90444">
        <ele>1192</ele>
        <time>2022-01-22T07:43:26Z</time>
      </trkpt>
      <trkpt lat="45.18629" lon="5.90445">
        <ele>1192</ele>
        <time>2022-01-22T07:43:28Z</time>
      </trkpt>
      <trkpt lat="45.18627" lon="5.90445">
        <ele>1192</ele>
        <time>2022-01-22T07:43:30Z</time>
      </trkpt>
      <trkpt lat="45.18624" lon="5.90447">
        <ele>1193</ele>
        <time>2022-01-22T07:43:35Z</time>
      </trkpt>
      <trkpt lat="45.18622" lon="5.90448">
        <ele>1194</ele>
        <time>2022-01-22T07:43:37Z</time>
      </trkpt>
      <trkpt lat="45.1862" lon="5.90449">
        <ele>1194</ele>
        <time>2022-01-22T07:43:39Z</time>
      </trkpt>
      <trkpt lat="45.18618" lon="5.9045">
        <ele>1194</ele>
        <time>2022-01-22T07:43:41Z</time>
      </trkpt>
      <trkpt lat="45.18615" lon="5.90451">
        <ele>1195</ele>
        <time>2022-01-22T07:43:43Z</time>
      </trkpt>
      <trkpt lat="45.18613" lon="5.90451">
        <ele>1195</ele>
        <time>2022-01-22T07:43:45Z</time>
      </trkpt>
      <trkpt lat="45.18611" lon="5.90453">
        <ele>1195</ele>
        <time>2022-01-22T07:43:47Z</time>
      </trkpt>
      <trkpt lat="45.18609" lon="5.90454">
        <ele>1196</ele>
        <time>2022-01-22T07:43:49Z</time>
      </trkpt>
      <trkpt lat="45.18607" lon="5.90456">
        <ele>1196</ele>
        <time>2022-01-22T07:43:51Z</time>
      </trkpt>
      <trkpt lat="45.18605" lon="5.90458">
        <ele>1197</ele>
        <time>2022-01-22T07:43:53Z</time>
      </trkpt>
      <trkpt lat="45.18603" lon="5.9046">
        <ele>1197</ele>
        <time>2022-01-22T07:43:55Z</time>
      </trkpt>
      <trkpt lat="45.18602" lon="5.90463">
        <ele>1198</ele>
        <time>2022-01-22T07:43:57Z</time>
      </trkpt>
      <trkpt lat="45.18601" lon="5.90466">
        <ele>1198</ele>
        <time>2022-01-22T07:43:59Z</time>
      </trkpt>
      <trkpt lat="45.186" lon="5.90469">
        <ele>1198</ele>
        <time>2022-01-22T07:44:01Z</time>
      </trkpt>
      <trkpt lat="45.186" lon="5.90473">
        <ele>1198</ele>
        <time>2022-01-22T07:44:03Z</time>
      </trkpt>
      <trkpt lat="45.18599" lon="5.90476">
        <ele>1199</ele>
        <time>2022-01-22T07:44:05Z</time>
      </trkpt>
      <trkpt lat="45.18599" lon="5.90479">
        <ele>1199</ele>
        <time>2022-01-22T07:44:07Z</time>
      </trkpt>
      <trkpt lat="45.18599" lon="5.90482">
        <ele>1199</ele>
        <time>2022-01-22T07:44:09Z</time>
      </trkpt>
      <trkpt lat="45.18598" lon="5.90486">
        <ele>1199</ele>
        <time>2022-01-22T07:44:11Z</time>
      </trkpt>
      <trkpt lat="45.18598" lon="5.90489">
        <ele>1199</ele>
        <time>2022-01-22T07:44:13Z</time>
      </trkpt>
      <trkpt lat="45.18598" lon="5.90492">
        <ele>1200</ele>
        <time>2022-01-22T07:44:15Z</time>
      </trkpt>
      <trkpt lat="45.18597" lon="5.90496">
        <ele>1200</ele>
        <time>2022-01-22T07:44:17Z</time>
      </trkpt>
      <trkpt lat="45.18597" lon="5.90498">
        <ele>1200</ele>
        <time>2022-01-22T07:44:19Z</time>
      </trkpt>
      <trkpt lat="45.18596" lon="5.90502">
        <ele>1201</ele>
        <time>2022-01-22T07:44:21Z</time>
      </trkpt>
      <trkpt lat="45.18596" lon="5.90505">
        <ele>1201</ele>
        <time>2022-01-22T07:44:23Z</time>
      </trkpt>
      <trkpt lat="45.18595" lon="5.90508">
        <ele>1201</ele>
        <time>2022-01-22T07:44:25Z</time>
      </trkpt>
      <trkpt lat="45.18594" lon="5.9051">
        <ele>1202</ele>
        <time>2022-01-22T07:44:27Z</time>
      </trkpt>
      <trkpt lat="45.18592" lon="5.90514">
        <ele>1202</ele>
        <time>2022-01-22T07:44:30Z</time>
      </trkpt>
      <trkpt lat="45.18592" lon="5.90517">
        <ele>1203</ele>
        <time>2022-01-22T07:44:32Z</time>
      </trkpt>
      <trkpt lat="45.18591" lon="5.9052">
        <ele>1203</ele>
        <time>2022-01-22T07:44:34Z</time>
      </trkpt>
      <trkpt lat="45.18589" lon="5.90522">
        <ele>1203</ele>
        <time>2022-01-22T07:44:36Z</time>
      </trkpt>
      <trkpt lat="45.18588" lon="5.90524">
        <ele>1203</ele>
        <time>2022-01-22T07:44:38Z</time>
      </trkpt>
      <trkpt lat="45.18587" lon="5.90527">
        <ele>1203</ele>
        <time>2022-01-22T07:44:40Z</time>
      </trkpt>
      <trkpt lat="45.18586" lon="5.9053">
        <ele>1203</ele>
        <time>2022-01-22T07:44:42Z</time>
      </trkpt>
      <trkpt lat="45.18584" lon="5.90533">
        <ele>1204</ele>
        <time>2022-01-22T07:44:44Z</time>
      </trkpt>
      <trkpt lat="45.18583" lon="5.90535">
        <ele>1205</ele>
        <time>2022-01-22T07:44:46Z</time>
      </trkpt>
      <trkpt lat="45.18582" lon="5.90538">
        <ele>1205</ele>
        <time>2022-01-22T07:44:48Z</time>
      </trkpt>
      <trkpt lat="45.1858" lon="5.9054">
        <ele>1205</ele>
        <time>2022-01-22T07:44:50Z</time>
      </trkpt>
      <trkpt lat="45.18578" lon="5.90543">
        <ele>1205</ele>
        <time>2022-01-22T07:44:52Z</time>
      </trkpt>
      <trkpt lat="45.18576" lon="5.90545">
        <ele>1206</ele>
        <time>2022-01-22T07:44:55Z</time>
      </trkpt>
      <trkpt lat="45.18574" lon="5.90546">
        <ele>1206</ele>
        <time>2022-01-22T07:44:57Z</time>
      </trkpt>
      <trkpt lat="45.18573" lon="5.90547">
        <ele>1207</ele>
        <time>2022-01-22T07:44:59Z</time>
      </trkpt>
      <trkpt lat="45.1857" lon="5.90548">
        <ele>1208</ele>
        <time>2022-01-22T07:45:01Z</time>
      </trkpt>
      <trkpt lat="45.18568" lon="5.90549">
        <ele>1208</ele>
        <time>2022-01-22T07:45:03Z</time>
      </trkpt>
      <trkpt lat="45.18566" lon="5.90551">
        <ele>1209</ele>
        <time>2022-01-22T07:45:05Z</time>
      </trkpt>
      <trkpt lat="45.18564" lon="5.90552">
        <ele>1209</ele>
        <time>2022-01-22T07:45:08Z</time>
      </trkpt>
      <trkpt lat="45.18564" lon="5.90555">
        <ele>1209</ele>
        <time>2022-01-22T07:45:10Z</time>
      </trkpt>
      <trkpt lat="45.18563" lon="5.90557">
        <ele>1209</ele>
        <time>2022-01-22T07:45:12Z</time>
      </trkpt>
      <trkpt lat="45.18561" lon="5.90559">
        <ele>1210</ele>
        <time>2022-01-22T07:45:15Z</time>
      </trkpt>
      <trkpt lat="45.18556" lon="5.90564">
        <ele>1211</ele>
        <time>2022-01-22T07:45:22Z</time>
      </trkpt>
      <trkpt lat="45.18553" lon="5.90569">
        <ele>1212</ele>
        <time>2022-01-22T07:45:26Z</time>
      </trkpt>
      <trkpt lat="45.18551" lon="5.90571">
        <ele>1212</ele>
        <time>2022-01-22T07:45:29Z</time>
      </trkpt>
      <trkpt lat="45.1855" lon="5.90574">
        <ele>1214</ele>
        <time>2022-01-22T07:45:33Z</time>
      </trkpt>
      <trkpt lat="45.18548" lon="5.90576">
        <ele>1214</ele>
        <time>2022-01-22T07:45:36Z</time>
      </trkpt>
      <trkpt lat="45.18547" lon="5.90579">
        <ele>1214</ele>
        <time>2022-01-22T07:45:39Z</time>
      </trkpt>
      <trkpt lat="45.18542" lon="5.90583">
        <ele>1216</ele>
        <time>2022-01-22T07:45:46Z</time>
      </trkpt>
      <trkpt lat="45.1854" lon="5.90585">
        <ele>1216</ele>
        <time>2022-01-22T07:45:48Z</time>
      </trkpt>
      <trkpt lat="45.18536" lon="5.90588">
        <ele>1217</ele>
        <time>2022-01-22T07:45:53Z</time>
      </trkpt>
      <trkpt lat="45.18533" lon="5.90589">
        <ele>1218</ele>
        <time>2022-01-22T07:45:55Z</time>
      </trkpt>
      <trkpt lat="45.18525" lon="5.90594">
        <ele>1219</ele>
        <time>2022-01-22T07:46:06Z</time>
      </trkpt>
      <trkpt lat="45.18522" lon="5.90596">
        <ele>1221</ele>
        <time>2022-01-22T07:46:10Z</time>
      </trkpt>
      <trkpt lat="45.18519" lon="5.90597">
        <ele>1221</ele>
        <time>2022-01-22T07:46:15Z</time>
      </trkpt>
      <trkpt lat="45.18515" lon="5.90597">
        <ele>1222</ele>
        <time>2022-01-22T07:46:19Z</time>
      </trkpt>
      <trkpt lat="45.18513" lon="5.906">
        <ele>1223</ele>
        <time>2022-01-22T07:46:23Z</time>
      </trkpt>
      <trkpt lat="45.18512" lon="5.90603">
        <ele>1223</ele>
        <time>2022-01-22T07:46:28Z</time>
      </trkpt>
      <trkpt lat="45.1851" lon="5.90603">
        <ele>1224</ele>
        <time>2022-01-22T07:46:34Z</time>
      </trkpt>
      <trkpt lat="45.18508" lon="5.90603">
        <ele>1225</ele>
        <time>2022-01-22T07:46:36Z</time>
      </trkpt>
      <trkpt lat="45.18505" lon="5.90603">
        <ele>1227</ele>
        <time>2022-01-22T07:46:40Z</time>
      </trkpt>
      <trkpt lat="45.18503" lon="5.90605">
        <ele>1227</ele>
        <time>2022-01-22T07:46:43Z</time>
      </trkpt>
      <trkpt lat="45.18502" lon="5.90607">
        <ele>1227</ele>
        <time>2022-01-22T07:46:46Z</time>
      </trkpt>
      <trkpt lat="45.18501" lon="5.9061">
        <ele>1228</ele>
        <time>2022-01-22T07:46:49Z</time>
      </trkpt>
      <trkpt lat="45.18499" lon="5.90612">
        <ele>1228</ele>
        <time>2022-01-22T07:46:51Z</time>
      </trkpt>
      <trkpt lat="45.18496" lon="5.90613">
        <ele>1229</ele>
        <time>2022-01-22T07:46:54Z</time>
      </trkpt>
      <trkpt lat="45.18494" lon="5.90614">
        <ele>1229</ele>
        <time>2022-01-22T07:46:56Z</time>
      </trkpt>
      <trkpt lat="45.18492" lon="5.90615">
        <ele>1230</ele>
        <time>2022-01-22T07:46:58Z</time>
      </trkpt>
      <trkpt lat="45.1849" lon="5.90616">
        <ele>1230</ele>
        <time>2022-01-22T07:47:01Z</time>
      </trkpt>
      <trkpt lat="45.18488" lon="5.90618">
        <ele>1231</ele>
        <time>2022-01-22T07:47:05Z</time>
      </trkpt>
      <trkpt lat="45.18486" lon="5.9062">
        <ele>1233</ele>
        <time>2022-01-22T07:47:09Z</time>
      </trkpt>
      <trkpt lat="45.18484" lon="5.90622">
        <ele>1233</ele>
        <time>2022-01-22T07:47:11Z</time>
      </trkpt>
      <trkpt lat="45.18483" lon="5.90624">
        <ele>1234</ele>
        <time>2022-01-22T07:47:14Z</time>
      </trkpt>
      <trkpt lat="45.1848" lon="5.90625">
        <ele>1234</ele>
        <time>2022-01-22T07:47:17Z</time>
      </trkpt>
      <trkpt lat="45.18478" lon="5.90626">
        <ele>1234</ele>
        <time>2022-01-22T07:47:19Z</time>
      </trkpt>
      <trkpt lat="45.18476" lon="5.90627">
        <ele>1234</ele>
        <time>2022-01-22T07:47:21Z</time>
      </trkpt>
      <trkpt lat="45.18474" lon="5.90627">
        <ele>1235</ele>
        <time>2022-01-22T07:47:23Z</time>
      </trkpt>
      <trkpt lat="45.18472" lon="5.90629">
        <ele>1236</ele>
        <time>2022-01-22T07:47:29Z</time>
      </trkpt>
      <trkpt lat="45.1847" lon="5.9063">
        <ele>1236</ele>
        <time>2022-01-22T07:47:31Z</time>
      </trkpt>
      <trkpt lat="45.18467" lon="5.90631">
        <ele>1236</ele>
        <time>2022-01-22T07:47:33Z</time>
      </trkpt>
      <trkpt lat="45.18465" lon="5.90632">
        <ele>1236</ele>
        <time>2022-01-22T07:47:35Z</time>
      </trkpt>
      <trkpt lat="45.18463" lon="5.90634">
        <ele>1237</ele>
        <time>2022-01-22T07:47:37Z</time>
      </trkpt>
      <trkpt lat="45.18461" lon="5.90635">
        <ele>1237</ele>
        <time>2022-01-22T07:47:38Z</time>
      </trkpt>
      <trkpt lat="45.18459" lon="5.90637">
        <ele>1237</ele>
        <time>2022-01-22T07:47:40Z</time>
      </trkpt>
      <trkpt lat="45.18458" lon="5.9064">
        <ele>1237</ele>
        <time>2022-01-22T07:47:42Z</time>
      </trkpt>
      <trkpt lat="45.18455" lon="5.90642">
        <ele>1237</ele>
        <time>2022-01-22T07:47:44Z</time>
      </trkpt>
      <trkpt lat="45.18453" lon="5.90644">
        <ele>1238</ele>
        <time>2022-01-22T07:47:46Z</time>
      </trkpt>
      <trkpt lat="45.18452" lon="5.90647">
        <ele>1238</ele>
        <time>2022-01-22T07:47:48Z</time>
      </trkpt>
      <trkpt lat="45.1845" lon="5.90649">
        <ele>1238</ele>
        <time>2022-01-22T07:47:50Z</time>
      </trkpt>
      <trkpt lat="45.1845" lon="5.90652">
        <ele>1239</ele>
        <time>2022-01-22T07:47:52Z</time>
      </trkpt>
      <trkpt lat="45.18448" lon="5.90655">
        <ele>1239</ele>
        <time>2022-01-22T07:47:54Z</time>
      </trkpt>
      <trkpt lat="45.18447" lon="5.90658">
        <ele>1239</ele>
        <time>2022-01-22T07:47:56Z</time>
      </trkpt>
      <trkpt lat="45.18446" lon="5.90662">
        <ele>1240</ele>
        <time>2022-01-22T07:47:58Z</time>
      </trkpt>
      <trkpt lat="45.18445" lon="5.90665">
        <ele>1240</ele>
        <time>2022-01-22T07:48:00Z</time>
      </trkpt>
      <trkpt lat="45.18444" lon="5.90669">
        <ele>1240</ele>
        <time>2022-01-22T07:48:02Z</time>
      </trkpt>
      <trkpt lat="45.18443" lon="5.90672">
        <ele>1240</ele>
        <time>2022-01-22T07:48:04Z</time>
      </trkpt>
      <trkpt lat="45.18442" lon="5.90675">
        <ele>1240</ele>
        <time>2022-01-22T07:48:06Z</time>
      </trkpt>
      <trkpt lat="45.18442" lon="5.90678">
        <ele>1241</ele>
        <time>2022-01-22T07:48:08Z</time>
      </trkpt>
      <trkpt lat="45.1844" lon="5.9068">
        <ele>1242</ele>
        <time>2022-01-22T07:48:10Z</time>
      </trkpt>
      <trkpt lat="45.18439" lon="5.90683">
        <ele>1242</ele>
        <time>2022-01-22T07:48:12Z</time>
      </trkpt>
      <trkpt lat="45.18437" lon="5.90685">
        <ele>1243</ele>
        <time>2022-01-22T07:48:14Z</time>
      </trkpt>
      <trkpt lat="45.18436" lon="5.90688">
        <ele>1243</ele>
        <time>2022-01-22T07:48:16Z</time>
      </trkpt>
      <trkpt lat="45.18435" lon="5.9069">
        <ele>1243</ele>
        <time>2022-01-22T07:48:18Z</time>
      </trkpt>
      <trkpt lat="45.18434" lon="5.90693">
        <ele>1243</ele>
        <time>2022-01-22T07:48:20Z</time>
      </trkpt>
      <trkpt lat="45.18433" lon="5.90695">
        <ele>1244</ele>
        <time>2022-01-22T07:48:22Z</time>
      </trkpt>
      <trkpt lat="45.18432" lon="5.90697">
        <ele>1244</ele>
        <time>2022-01-22T07:48:24Z</time>
      </trkpt>
      <trkpt lat="45.1843" lon="5.907">
        <ele>1244</ele>
        <time>2022-01-22T07:48:26Z</time>
      </trkpt>
      <trkpt lat="45.18429" lon="5.90704">
        <ele>1245</ele>
        <time>2022-01-22T07:48:29Z</time>
      </trkpt>
      <trkpt lat="45.18429" lon="5.90706">
        <ele>1245</ele>
        <time>2022-01-22T07:48:31Z</time>
      </trkpt>
      <trkpt lat="45.18428" lon="5.90709">
        <ele>1245</ele>
        <time>2022-01-22T07:48:33Z</time>
      </trkpt>
      <trkpt lat="45.18428" lon="5.90712">
        <ele>1245</ele>
        <time>2022-01-22T07:48:35Z</time>
      </trkpt>
      <trkpt lat="45.18429" lon="5.90715">
        <ele>1246</ele>
        <time>2022-01-22T07:48:37Z</time>
      </trkpt>
      <trkpt lat="45.18429" lon="5.90718">
        <ele>1246</ele>
        <time>2022-01-22T07:48:39Z</time>
      </trkpt>
      <trkpt lat="45.18429" lon="5.90721">
        <ele>1247</ele>
        <time>2022-01-22T07:48:42Z</time>
      </trkpt>
      <trkpt lat="45.1843" lon="5.90725">
        <ele>1248</ele>
        <time>2022-01-22T07:48:46Z</time>
      </trkpt>
      <trkpt lat="45.18432" lon="5.90727">
        <ele>1249</ele>
        <time>2022-01-22T07:48:48Z</time>
      </trkpt>
      <trkpt lat="45.18434" lon="5.9073">
        <ele>1249</ele>
        <time>2022-01-22T07:48:51Z</time>
      </trkpt>
      <trkpt lat="45.18435" lon="5.90733">
        <ele>1250</ele>
        <time>2022-01-22T07:48:54Z</time>
      </trkpt>
      <trkpt lat="45.18437" lon="5.90735">
        <ele>1250</ele>
        <time>2022-01-22T07:48:56Z</time>
      </trkpt>
      <trkpt lat="45.18439" lon="5.90736">
        <ele>1250</ele>
        <time>2022-01-22T07:48:58Z</time>
      </trkpt>
      <trkpt lat="45.18441" lon="5.90739">
        <ele>1250</ele>
        <time>2022-01-22T07:49:00Z</time>
      </trkpt>
      <trkpt lat="45.18442" lon="5.9074">
        <ele>1251</ele>
        <time>2022-01-22T07:49:02Z</time>
      </trkpt>
      <trkpt lat="45.18444" lon="5.90742">
        <ele>1251</ele>
        <time>2022-01-22T07:49:04Z</time>
      </trkpt>
      <trkpt lat="45.18445" lon="5.90744">
        <ele>1251</ele>
        <time>2022-01-22T07:49:06Z</time>
      </trkpt>
      <trkpt lat="45.18446" lon="5.90746">
        <ele>1252</ele>
        <time>2022-01-22T07:49:08Z</time>
      </trkpt>
      <trkpt lat="45.18448" lon="5.90748">
        <ele>1252</ele>
        <time>2022-01-22T07:49:10Z</time>
      </trkpt>
      <trkpt lat="45.18449" lon="5.9075">
        <ele>1252</ele>
        <time>2022-01-22T07:49:12Z</time>
      </trkpt>
      <trkpt lat="45.1845" lon="5.90752">
        <ele>1252</ele>
        <time>2022-01-22T07:49:14Z</time>
      </trkpt>
      <trkpt lat="45.18452" lon="5.90755">
        <ele>1254</ele>
        <time>2022-01-22T07:49:17Z</time>
      </trkpt>
      <trkpt lat="45.18453" lon="5.90757">
        <ele>1254</ele>
        <time>2022-01-22T07:49:19Z</time>
      </trkpt>
      <trkpt lat="45.18455" lon="5.90759">
        <ele>1254</ele>
        <time>2022-01-22T07:49:21Z</time>
      </trkpt>
      <trkpt lat="45.18456" lon="5.90761">
        <ele>1255</ele>
        <time>2022-01-22T07:49:23Z</time>
      </trkpt>
      <trkpt lat="45.18458" lon="5.90762">
        <ele>1255</ele>
        <time>2022-01-22T07:49:25Z</time>
      </trkpt>
      <trkpt lat="45.18459" lon="5.90764">
        <ele>1256</ele>
        <time>2022-01-22T07:49:27Z</time>
      </trkpt>
      <trkpt lat="45.18461" lon="5.90767">
        <ele>1257</ele>
        <time>2022-01-22T07:49:30Z</time>
      </trkpt>
      <trkpt lat="45.18462" lon="5.9077">
        <ele>1257</ele>
        <time>2022-01-22T07:49:34Z</time>
      </trkpt>
      <trkpt lat="45.18464" lon="5.90773">
        <ele>1259</ele>
        <time>2022-01-22T07:49:39Z</time>
      </trkpt>
      <trkpt lat="45.18466" lon="5.90774">
        <ele>1259</ele>
        <time>2022-01-22T07:49:42Z</time>
      </trkpt>
      <trkpt lat="45.18468" lon="5.90777">
        <ele>1261</ele>
        <time>2022-01-22T07:49:44Z</time>
      </trkpt>
      <trkpt lat="45.1847" lon="5.90778">
        <ele>1261</ele>
        <time>2022-01-22T07:49:46Z</time>
      </trkpt>
      <trkpt lat="45.18472" lon="5.9078">
        <ele>1262</ele>
        <time>2022-01-22T07:49:48Z</time>
      </trkpt>
      <trkpt lat="45.18474" lon="5.90782">
        <ele>1262</ele>
        <time>2022-01-22T07:49:50Z</time>
      </trkpt>
      <trkpt lat="45.18477" lon="5.90784">
        <ele>1263</ele>
        <time>2022-01-22T07:49:52Z</time>
      </trkpt>
      <trkpt lat="45.18479" lon="5.90786">
        <ele>1263</ele>
        <time>2022-01-22T07:49:54Z</time>
      </trkpt>
      <trkpt lat="45.18482" lon="5.90788">
        <ele>1264</ele>
        <time>2022-01-22T07:49:56Z</time>
      </trkpt>
      <trkpt lat="45.18484" lon="5.9079">
        <ele>1264</ele>
        <time>2022-01-22T07:49:59Z</time>
      </trkpt>
      <trkpt lat="45.18485" lon="5.90792">
        <ele>1265</ele>
        <time>2022-01-22T07:50:01Z</time>
      </trkpt>
      <trkpt lat="45.18487" lon="5.90794">
        <ele>1265</ele>
        <time>2022-01-22T07:50:03Z</time>
      </trkpt>
      <trkpt lat="45.18489" lon="5.90796">
        <ele>1266</ele>
        <time>2022-01-22T07:50:08Z</time>
      </trkpt>
      <trkpt lat="45.18491" lon="5.90798">
        <ele>1266</ele>
        <time>2022-01-22T07:50:10Z</time>
      </trkpt>
      <trkpt lat="45.18492" lon="5.908">
        <ele>1266</ele>
        <time>2022-01-22T07:50:12Z</time>
      </trkpt>
      <trkpt lat="45.18493" lon="5.90802">
        <ele>1267</ele>
        <time>2022-01-22T07:50:14Z</time>
      </trkpt>
      <trkpt lat="45.18495" lon="5.90804">
        <ele>1268</ele>
        <time>2022-01-22T07:50:16Z</time>
      </trkpt>
      <trkpt lat="45.18498" lon="5.90806">
        <ele>1268</ele>
        <time>2022-01-22T07:50:19Z</time>
      </trkpt>
      <trkpt lat="45.18499" lon="5.90808">
        <ele>1268</ele>
        <time>2022-01-22T07:50:21Z</time>
      </trkpt>
      <trkpt lat="45.18501" lon="5.90809">
        <ele>1268</ele>
        <time>2022-01-22T07:50:23Z</time>
      </trkpt>
      <trkpt lat="45.18503" lon="5.90811">
        <ele>1269</ele>
        <time>2022-01-22T07:50:25Z</time>
      </trkpt>
      <trkpt lat="45.18505" lon="5.90812">
        <ele>1270</ele>
        <time>2022-01-22T07:50:27Z</time>
      </trkpt>
      <trkpt lat="45.18506" lon="5.90813">
        <ele>1270</ele>
        <time>2022-01-22T07:50:29Z</time>
      </trkpt>
      <trkpt lat="45.18509" lon="5.90815">
        <ele>1270</ele>
        <time>2022-01-22T07:50:32Z</time>
      </trkpt>
      <trkpt lat="45.1851" lon="5.90817">
        <ele>1270</ele>
        <time>2022-01-22T07:50:34Z</time>
      </trkpt>
      <trkpt lat="45.18512" lon="5.90818">
        <ele>1271</ele>
        <time>2022-01-22T07:50:37Z</time>
      </trkpt>
      <trkpt lat="45.18515" lon="5.90819">
        <ele>1272</ele>
        <time>2022-01-22T07:50:40Z</time>
      </trkpt>
      <trkpt lat="45.18516" lon="5.90821">
        <ele>1272</ele>
        <time>2022-01-22T07:50:43Z</time>
      </trkpt>
      <trkpt lat="45.18518" lon="5.90823">
        <ele>1273</ele>
        <time>2022-01-22T07:50:45Z</time>
      </trkpt>
      <trkpt lat="45.18519" lon="5.90825">
        <ele>1273</ele>
        <time>2022-01-22T07:50:48Z</time>
      </trkpt>
      <trkpt lat="45.18521" lon="5.90828">
        <ele>1273</ele>
        <time>2022-01-22T07:50:51Z</time>
      </trkpt>
      <trkpt lat="45.18522" lon="5.9083">
        <ele>1273</ele>
        <time>2022-01-22T07:50:53Z</time>
      </trkpt>
      <trkpt lat="45.18523" lon="5.90833">
        <ele>1274</ele>
        <time>2022-01-22T07:50:56Z</time>
      </trkpt>
      <trkpt lat="45.18525" lon="5.90836">
        <ele>1275</ele>
        <time>2022-01-22T07:50:59Z</time>
      </trkpt>
      <trkpt lat="45.18526" lon="5.90838">
        <ele>1276</ele>
        <time>2022-01-22T07:51:02Z</time>
      </trkpt>
      <trkpt lat="45.18529" lon="5.90841">
        <ele>1277</ele>
        <time>2022-01-22T07:51:05Z</time>
      </trkpt>
      <trkpt lat="45.1853" lon="5.90843">
        <ele>1277</ele>
        <time>2022-01-22T07:51:07Z</time>
      </trkpt>
      <trkpt lat="45.18531" lon="5.90845">
        <ele>1278</ele>
        <time>2022-01-22T07:51:09Z</time>
      </trkpt>
      <trkpt lat="45.18534" lon="5.90847">
        <ele>1278</ele>
        <time>2022-01-22T07:51:12Z</time>
      </trkpt>
      <trkpt lat="45.18535" lon="5.90849">
        <ele>1278</ele>
        <time>2022-01-22T07:51:14Z</time>
      </trkpt>
      <trkpt lat="45.18537" lon="5.90851">
        <ele>1278</ele>
        <time>2022-01-22T07:51:16Z</time>
      </trkpt>
      <trkpt lat="45.18538" lon="5.90853">
        <ele>1279</ele>
        <time>2022-01-22T07:51:19Z</time>
      </trkpt>
      <trkpt lat="45.1854" lon="5.90855">
        <ele>1279</ele>
        <time>2022-01-22T07:51:22Z</time>
      </trkpt>
      <trkpt lat="45.18542" lon="5.90857">
        <ele>1280</ele>
        <time>2022-01-22T07:51:24Z</time>
      </trkpt>
      <trkpt lat="45.18543" lon="5.90859">
        <ele>1280</ele>
        <time>2022-01-22T07:51:26Z</time>
      </trkpt>
      <trkpt lat="45.18544" lon="5.90861">
        <ele>1280</ele>
        <time>2022-01-22T07:51:28Z</time>
      </trkpt>
      <trkpt lat="45.18546" lon="5.90862">
        <ele>1281</ele>
        <time>2022-01-22T07:51:30Z</time>
      </trkpt>
      <trkpt lat="45.18548" lon="5.90864">
        <ele>1282</ele>
        <time>2022-01-22T07:51:33Z</time>
      </trkpt>
      <trkpt lat="45.18551" lon="5.90866">
        <ele>1282</ele>
        <time>2022-01-22T07:51:38Z</time>
      </trkpt>
      <trkpt lat="45.18552" lon="5.90868">
        <ele>1283</ele>
        <time>2022-01-22T07:51:40Z</time>
      </trkpt>
      <trkpt lat="45.18554" lon="5.90871">
        <ele>1283</ele>
        <time>2022-01-22T07:51:43Z</time>
      </trkpt>
      <trkpt lat="45.18556" lon="5.90873">
        <ele>1284</ele>
        <time>2022-01-22T07:51:48Z</time>
      </trkpt>
      <trkpt lat="45.18557" lon="5.90874">
        <ele>1285</ele>
        <time>2022-01-22T07:51:50Z</time>
      </trkpt>
      <trkpt lat="45.18559" lon="5.90876">
        <ele>1285</ele>
        <time>2022-01-22T07:51:52Z</time>
      </trkpt>
      <trkpt lat="45.1856" lon="5.90878">
        <ele>1286</ele>
        <time>2022-01-22T07:51:54Z</time>
      </trkpt>
      <trkpt lat="45.18562" lon="5.90882">
        <ele>1287</ele>
        <time>2022-01-22T07:51:58Z</time>
      </trkpt>
      <trkpt lat="45.18564" lon="5.90884">
        <ele>1287</ele>
        <time>2022-01-22T07:52:02Z</time>
      </trkpt>
      <trkpt lat="45.18565" lon="5.90887">
        <ele>1287</ele>
        <time>2022-01-22T07:52:04Z</time>
      </trkpt>
      <trkpt lat="45.18567" lon="5.90888">
        <ele>1288</ele>
        <time>2022-01-22T07:52:06Z</time>
      </trkpt>
      <trkpt lat="45.18569" lon="5.9089">
        <ele>1288</ele>
        <time>2022-01-22T07:52:08Z</time>
      </trkpt>
      <trkpt lat="45.18571" lon="5.90891">
        <ele>1289</ele>
        <time>2022-01-22T07:52:10Z</time>
      </trkpt>
      <trkpt lat="45.18572" lon="5.90893">
        <ele>1289</ele>
        <time>2022-01-22T07:52:12Z</time>
      </trkpt>
      <trkpt lat="45.18573" lon="5.90895">
        <ele>1289</ele>
        <time>2022-01-22T07:52:15Z</time>
      </trkpt>
      <trkpt lat="45.18575" lon="5.90898">
        <ele>1290</ele>
        <time>2022-01-22T07:52:18Z</time>
      </trkpt>
      <trkpt lat="45.18576" lon="5.90901">
        <ele>1290</ele>
        <time>2022-01-22T07:52:21Z</time>
      </trkpt>
      <trkpt lat="45.18578" lon="5.90902">
        <ele>1291</ele>
        <time>2022-01-22T07:52:24Z</time>
      </trkpt>
      <trkpt lat="45.1858" lon="5.90904">
        <ele>1291</ele>
        <time>2022-01-22T07:52:26Z</time>
      </trkpt>
      <trkpt lat="45.18581" lon="5.90906">
        <ele>1291</ele>
        <time>2022-01-22T07:52:28Z</time>
      </trkpt>
      <trkpt lat="45.18583" lon="5.90908">
        <ele>1293</ele>
        <time>2022-01-22T07:52:31Z</time>
      </trkpt>
      <trkpt lat="45.18585" lon="5.90911">
        <ele>1293</ele>
        <time>2022-01-22T07:52:34Z</time>
      </trkpt>
      <trkpt lat="45.18587" lon="5.90913">
        <ele>1293</ele>
        <time>2022-01-22T07:52:37Z</time>
      </trkpt>
      <trkpt lat="45.1859" lon="5.90919">
        <ele>1294</ele>
        <time>2022-01-22T07:52:42Z</time>
      </trkpt>
      <trkpt lat="45.18592" lon="5.90921">
        <ele>1294</ele>
        <time>2022-01-22T07:52:44Z</time>
      </trkpt>
      <trkpt lat="45.18593" lon="5.90923">
        <ele>1295</ele>
        <time>2022-01-22T07:52:46Z</time>
      </trkpt>
      <trkpt lat="45.18594" lon="5.90925">
        <ele>1296</ele>
        <time>2022-01-22T07:52:48Z</time>
      </trkpt>
      <trkpt lat="45.18596" lon="5.90927">
        <ele>1296</ele>
        <time>2022-01-22T07:52:50Z</time>
      </trkpt>
      <trkpt lat="45.18597" lon="5.9093">
        <ele>1296</ele>
        <time>2022-01-22T07:52:52Z</time>
      </trkpt>
      <trkpt lat="45.18598" lon="5.90932">
        <ele>1297</ele>
        <time>2022-01-22T07:52:55Z</time>
      </trkpt>
      <trkpt lat="45.18601" lon="5.90936">
        <ele>1298</ele>
        <time>2022-01-22T07:53:00Z</time>
      </trkpt>
      <trkpt lat="45.18602" lon="5.90937">
        <ele>1298</ele>
        <time>2022-01-22T07:53:03Z</time>
      </trkpt>
      <trkpt lat="45.18605" lon="5.90941">
        <ele>1299</ele>
        <time>2022-01-22T07:53:07Z</time>
      </trkpt>
      <trkpt lat="45.18606" lon="5.90943">
        <ele>1299</ele>
        <time>2022-01-22T07:53:09Z</time>
      </trkpt>
      <trkpt lat="45.18608" lon="5.90945">
        <ele>1300</ele>
        <time>2022-01-22T07:53:12Z</time>
      </trkpt>
      <trkpt lat="45.18611" lon="5.90946">
        <ele>1300</ele>
        <time>2022-01-22T07:53:20Z</time>
      </trkpt>
      <trkpt lat="45.18612" lon="5.90949">
        <ele>1300</ele>
        <time>2022-01-22T07:53:23Z</time>
      </trkpt>
      <trkpt lat="45.18614" lon="5.90952">
        <ele>1301</ele>
        <time>2022-01-22T07:53:26Z</time>
      </trkpt>
      <trkpt lat="45.18616" lon="5.90957">
        <ele>1302</ele>
        <time>2022-01-22T07:53:30Z</time>
      </trkpt>
      <trkpt lat="45.18618" lon="5.9096">
        <ele>1303</ele>
        <time>2022-01-22T07:53:36Z</time>
      </trkpt>
      <trkpt lat="45.1862" lon="5.90963">
        <ele>1304</ele>
        <time>2022-01-22T07:53:39Z</time>
      </trkpt>
      <trkpt lat="45.18621" lon="5.90965">
        <ele>1304</ele>
        <time>2022-01-22T07:53:41Z</time>
      </trkpt>
      <trkpt lat="45.18623" lon="5.90969">
        <ele>1305</ele>
        <time>2022-01-22T07:53:45Z</time>
      </trkpt>
      <trkpt lat="45.18624" lon="5.90971">
        <ele>1306</ele>
        <time>2022-01-22T07:53:47Z</time>
      </trkpt>
      <trkpt lat="45.18626" lon="5.90972">
        <ele>1306</ele>
        <time>2022-01-22T07:53:49Z</time>
      </trkpt>
      <trkpt lat="45.18628" lon="5.90974">
        <ele>1307</ele>
        <time>2022-01-22T07:53:51Z</time>
      </trkpt>
      <trkpt lat="45.18629" lon="5.90976">
        <ele>1308</ele>
        <time>2022-01-22T07:53:54Z</time>
      </trkpt>
      <trkpt lat="45.1863" lon="5.90979">
        <ele>1308</ele>
        <time>2022-01-22T07:53:57Z</time>
      </trkpt>
      <trkpt lat="45.18631" lon="5.90982">
        <ele>1309</ele>
        <time>2022-01-22T07:54:00Z</time>
      </trkpt>
      <trkpt lat="45.18634" lon="5.90987">
        <ele>1310</ele>
        <time>2022-01-22T07:54:04Z</time>
      </trkpt>
      <trkpt lat="45.18636" lon="5.90989">
        <ele>1310</ele>
        <time>2022-01-22T07:54:06Z</time>
      </trkpt>
      <trkpt lat="45.18637" lon="5.90992">
        <ele>1311</ele>
        <time>2022-01-22T07:54:09Z</time>
      </trkpt>
      <trkpt lat="45.18638" lon="5.90994">
        <ele>1311</ele>
        <time>2022-01-22T07:54:12Z</time>
      </trkpt>
      <trkpt lat="45.1864" lon="5.90997">
        <ele>1312</ele>
        <time>2022-01-22T07:54:15Z</time>
      </trkpt>
      <trkpt lat="45.18642" lon="5.91">
        <ele>1313</ele>
        <time>2022-01-22T07:54:18Z</time>
      </trkpt>
      <trkpt lat="45.18643" lon="5.91001">
        <ele>1313</ele>
        <time>2022-01-22T07:54:21Z</time>
      </trkpt>
      <trkpt lat="45.18645" lon="5.91005">
        <ele>1313</ele>
        <time>2022-01-22T07:54:24Z</time>
      </trkpt>
      <trkpt lat="45.18646" lon="5.91007">
        <ele>1314</ele>
        <time>2022-01-22T07:54:26Z</time>
      </trkpt>
      <trkpt lat="45.18647" lon="5.91009">
        <ele>1314</ele>
        <time>2022-01-22T07:54:28Z</time>
      </trkpt>
      <trkpt lat="45.18649" lon="5.91011">
        <ele>1315</ele>
        <time>2022-01-22T07:54:30Z</time>
      </trkpt>
      <trkpt lat="45.1865" lon="5.91012">
        <ele>1315</ele>
        <time>2022-01-22T07:54:32Z</time>
      </trkpt>
      <trkpt lat="45.18652" lon="5.91015">
        <ele>1315</ele>
        <time>2022-01-22T07:54:34Z</time>
      </trkpt>
      <trkpt lat="45.18654" lon="5.91017">
        <ele>1316</ele>
        <time>2022-01-22T07:54:36Z</time>
      </trkpt>
      <trkpt lat="45.18656" lon="5.9102">
        <ele>1316</ele>
        <time>2022-01-22T07:54:40Z</time>
      </trkpt>
      <trkpt lat="45.18657" lon="5.91023">
        <ele>1316</ele>
        <time>2022-01-22T07:54:43Z</time>
      </trkpt>
      <trkpt lat="45.18658" lon="5.91026">
        <ele>1317</ele>
        <time>2022-01-22T07:54:46Z</time>
      </trkpt>
      <trkpt lat="45.18659" lon="5.91028">
        <ele>1318</ele>
        <time>2022-01-22T07:54:48Z</time>
      </trkpt>
      <trkpt lat="45.18662" lon="5.91033">
        <ele>1320</ele>
        <time>2022-01-22T07:54:53Z</time>
      </trkpt>
      <trkpt lat="45.18664" lon="5.9104">
        <ele>1321</ele>
        <time>2022-01-22T07:55:00Z</time>
      </trkpt>
      <trkpt lat="45.18665" lon="5.91042">
        <ele>1322</ele>
        <time>2022-01-22T07:55:03Z</time>
      </trkpt>
      <trkpt lat="45.18666" lon="5.91045">
        <ele>1323</ele>
        <time>2022-01-22T07:55:06Z</time>
      </trkpt>
      <trkpt lat="45.18667" lon="5.91047">
        <ele>1323</ele>
        <time>2022-01-22T07:55:08Z</time>
      </trkpt>
      <trkpt lat="45.1867" lon="5.91052">
        <ele>1324</ele>
        <time>2022-01-22T07:55:12Z</time>
      </trkpt>
      <trkpt lat="45.18672" lon="5.91056">
        <ele>1324</ele>
        <time>2022-01-22T07:55:16Z</time>
      </trkpt>
      <trkpt lat="45.18673" lon="5.91059">
        <ele>1325</ele>
        <time>2022-01-22T07:55:19Z</time>
      </trkpt>
      <trkpt lat="45.18675" lon="5.91062">
        <ele>1325</ele>
        <time>2022-01-22T07:55:22Z</time>
      </trkpt>
      <trkpt lat="45.18677" lon="5.91065">
        <ele>1326</ele>
        <time>2022-01-22T07:55:25Z</time>
      </trkpt>
      <trkpt lat="45.18678" lon="5.91066">
        <ele>1326</ele>
        <time>2022-01-22T07:55:27Z</time>
      </trkpt>
      <trkpt lat="45.1868" lon="5.91069">
        <ele>1327</ele>
        <time>2022-01-22T07:55:30Z</time>
      </trkpt>
      <trkpt lat="45.18682" lon="5.9107">
        <ele>1327</ele>
        <time>2022-01-22T07:55:32Z</time>
      </trkpt>
      <trkpt lat="45.18683" lon="5.91072">
        <ele>1328</ele>
        <time>2022-01-22T07:55:34Z</time>
      </trkpt>
      <trkpt lat="45.18685" lon="5.91074">
        <ele>1328</ele>
        <time>2022-01-22T07:55:36Z</time>
      </trkpt>
      <trkpt lat="45.18686" lon="5.91076">
        <ele>1329</ele>
        <time>2022-01-22T07:55:38Z</time>
      </trkpt>
      <trkpt lat="45.18688" lon="5.91078">
        <ele>1330</ele>
        <time>2022-01-22T07:55:40Z</time>
      </trkpt>
      <trkpt lat="45.1869" lon="5.9108">
        <ele>1330</ele>
        <time>2022-01-22T07:55:43Z</time>
      </trkpt>
      <trkpt lat="45.18693" lon="5.91084">
        <ele>1331</ele>
        <time>2022-01-22T07:55:49Z</time>
      </trkpt>
      <trkpt lat="45.18695" lon="5.91086">
        <ele>1332</ele>
        <time>2022-01-22T07:55:53Z</time>
      </trkpt>
      <trkpt lat="45.18697" lon="5.91089">
        <ele>1332</ele>
        <time>2022-01-22T07:55:56Z</time>
      </trkpt>
      <trkpt lat="45.18698" lon="5.9109">
        <ele>1333</ele>
        <time>2022-01-22T07:55:58Z</time>
      </trkpt>
      <trkpt lat="45.187" lon="5.91093">
        <ele>1333</ele>
        <time>2022-01-22T07:56:01Z</time>
      </trkpt>
      <trkpt lat="45.18702" lon="5.91095">
        <ele>1334</ele>
        <time>2022-01-22T07:56:04Z</time>
      </trkpt>
      <trkpt lat="45.18704" lon="5.91097">
        <ele>1334</ele>
        <time>2022-01-22T07:56:07Z</time>
      </trkpt>
      <trkpt lat="45.18706" lon="5.91098">
        <ele>1335</ele>
        <time>2022-01-22T07:56:09Z</time>
      </trkpt>
      <trkpt lat="45.18708" lon="5.91099">
        <ele>1335</ele>
        <time>2022-01-22T07:56:11Z</time>
      </trkpt>
      <trkpt lat="45.18709" lon="5.911">
        <ele>1336</ele>
        <time>2022-01-22T07:56:13Z</time>
      </trkpt>
      <trkpt lat="45.18711" lon="5.91101">
        <ele>1336</ele>
        <time>2022-01-22T07:56:15Z</time>
      </trkpt>
      <trkpt lat="45.18713" lon="5.91102">
        <ele>1337</ele>
        <time>2022-01-22T07:56:17Z</time>
      </trkpt>
      <trkpt lat="45.18715" lon="5.91104">
        <ele>1337</ele>
        <time>2022-01-22T07:56:20Z</time>
      </trkpt>
      <trkpt lat="45.18717" lon="5.91106">
        <ele>1338</ele>
        <time>2022-01-22T07:56:23Z</time>
      </trkpt>
      <trkpt lat="45.18719" lon="5.91107">
        <ele>1338</ele>
        <time>2022-01-22T07:56:25Z</time>
      </trkpt>
      <trkpt lat="45.18721" lon="5.91108">
        <ele>1339</ele>
        <time>2022-01-22T07:56:27Z</time>
      </trkpt>
      <trkpt lat="45.18723" lon="5.91109">
        <ele>1339</ele>
        <time>2022-01-22T07:56:30Z</time>
      </trkpt>
      <trkpt lat="45.18726" lon="5.9111">
        <ele>1340</ele>
        <time>2022-01-22T07:56:33Z</time>
      </trkpt>
      <trkpt lat="45.18728" lon="5.91111">
        <ele>1341</ele>
        <time>2022-01-22T07:56:36Z</time>
      </trkpt>
      <trkpt lat="45.1873" lon="5.91111">
        <ele>1341</ele>
        <time>2022-01-22T07:56:40Z</time>
      </trkpt>
      <trkpt lat="45.18732" lon="5.91112">
        <ele>1341</ele>
        <time>2022-01-22T07:56:45Z</time>
      </trkpt>
      <trkpt lat="45.18734" lon="5.91113">
        <ele>1342</ele>
        <time>2022-01-22T07:56:47Z</time>
      </trkpt>
      <trkpt lat="45.18736" lon="5.91114">
        <ele>1342</ele>
        <time>2022-01-22T07:56:51Z</time>
      </trkpt>
      <trkpt lat="45.18739" lon="5.91114">
        <ele>1343</ele>
        <time>2022-01-22T07:56:54Z</time>
      </trkpt>
      <trkpt lat="45.18742" lon="5.91114">
        <ele>1343</ele>
        <time>2022-01-22T07:56:56Z</time>
      </trkpt>
      <trkpt lat="45.18744" lon="5.91114">
        <ele>1344</ele>
        <time>2022-01-22T07:56:58Z</time>
      </trkpt>
      <trkpt lat="45.18746" lon="5.91114">
        <ele>1344</ele>
        <time>2022-01-22T07:57:01Z</time>
      </trkpt>
      <trkpt lat="45.18748" lon="5.91113">
        <ele>1345</ele>
        <time>2022-01-22T07:57:04Z</time>
      </trkpt>
      <trkpt lat="45.1875" lon="5.91114">
        <ele>1346</ele>
        <time>2022-01-22T07:57:08Z</time>
      </trkpt>
      <trkpt lat="45.18752" lon="5.91114">
        <ele>1347</ele>
        <time>2022-01-22T07:57:10Z</time>
      </trkpt>
      <trkpt lat="45.18755" lon="5.91115">
        <ele>1348</ele>
        <time>2022-01-22T07:57:13Z</time>
      </trkpt>
      <trkpt lat="45.18757" lon="5.91115">
        <ele>1349</ele>
        <time>2022-01-22T07:57:15Z</time>
      </trkpt>
      <trkpt lat="45.18759" lon="5.91115">
        <ele>1349</ele>
        <time>2022-01-22T07:57:17Z</time>
      </trkpt>
      <trkpt lat="45.18761" lon="5.91115">
        <ele>1349</ele>
        <time>2022-01-22T07:57:20Z</time>
      </trkpt>
      <trkpt lat="45.18764" lon="5.91114">
        <ele>1349</ele>
        <time>2022-01-22T07:57:23Z</time>
      </trkpt>
      <trkpt lat="45.18766" lon="5.91114">
        <ele>1349</ele>
        <time>2022-01-22T07:57:25Z</time>
      </trkpt>
      <trkpt lat="45.18768" lon="5.91114">
        <ele>1349</ele>
        <time>2022-01-22T07:57:27Z</time>
      </trkpt>
      <trkpt lat="45.1877" lon="5.91114">
        <ele>1349</ele>
        <time>2022-01-22T07:57:29Z</time>
      </trkpt>
      <trkpt lat="45.18772" lon="5.91115">
        <ele>1350</ele>
        <time>2022-01-22T07:57:31Z</time>
      </trkpt>
      <trkpt lat="45.18773" lon="5.91117">
        <ele>1351</ele>
        <time>2022-01-22T07:57:34Z</time>
      </trkpt>
      <trkpt lat="45.18774" lon="5.91119">
        <ele>1352</ele>
        <time>2022-01-22T07:57:37Z</time>
      </trkpt>
      <trkpt lat="45.18776" lon="5.91121">
        <ele>1352</ele>
        <time>2022-01-22T07:57:40Z</time>
      </trkpt>
      <trkpt lat="45.18778" lon="5.91122">
        <ele>1353</ele>
        <time>2022-01-22T07:57:42Z</time>
      </trkpt>
      <trkpt lat="45.1878" lon="5.91123">
        <ele>1353</ele>
        <time>2022-01-22T07:57:44Z</time>
      </trkpt>
      <trkpt lat="45.18782" lon="5.91125">
        <ele>1354</ele>
        <time>2022-01-22T07:57:47Z</time>
      </trkpt>
      <trkpt lat="45.18784" lon="5.91126">
        <ele>1355</ele>
        <time>2022-01-22T07:57:49Z</time>
      </trkpt>
      <trkpt lat="45.18785" lon="5.91128">
        <ele>1355</ele>
        <time>2022-01-22T07:57:51Z</time>
      </trkpt>
      <trkpt lat="45.18787" lon="5.91131">
        <ele>1356</ele>
        <time>2022-01-22T07:57:54Z</time>
      </trkpt>
      <trkpt lat="45.18789" lon="5.91132">
        <ele>1356</ele>
        <time>2022-01-22T07:57:56Z</time>
      </trkpt>
      <trkpt lat="45.18791" lon="5.91135">
        <ele>1357</ele>
        <time>2022-01-22T07:57:59Z</time>
      </trkpt>
      <trkpt lat="45.18792" lon="5.91138">
        <ele>1357</ele>
        <time>2022-01-22T07:58:02Z</time>
      </trkpt>
      <trkpt lat="45.18792" lon="5.91141">
        <ele>1358</ele>
        <time>2022-01-22T07:58:05Z</time>
      </trkpt>
      <trkpt lat="45.18792" lon="5.91145">
        <ele>1358</ele>
        <time>2022-01-22T07:58:08Z</time>
      </trkpt>
      <trkpt lat="45.18793" lon="5.91148">
        <ele>1358</ele>
        <time>2022-01-22T07:58:11Z</time>
      </trkpt>
      <trkpt lat="45.18794" lon="5.91152">
        <ele>1358</ele>
        <time>2022-01-22T07:58:14Z</time>
      </trkpt>
      <trkpt lat="45.18794" lon="5.91155">
        <ele>1359</ele>
        <time>2022-01-22T07:58:17Z</time>
      </trkpt>
      <trkpt lat="45.18793" lon="5.91158">
        <ele>1360</ele>
        <time>2022-01-22T07:58:20Z</time>
      </trkpt>
      <trkpt lat="45.18792" lon="5.9116">
        <ele>1360</ele>
        <time>2022-01-22T07:58:23Z</time>
      </trkpt>
      <trkpt lat="45.1879" lon="5.91164">
        <ele>1362</ele>
        <time>2022-01-22T07:58:27Z</time>
      </trkpt>
      <trkpt lat="45.18786" lon="5.9117">
        <ele>1363</ele>
        <time>2022-01-22T07:58:34Z</time>
      </trkpt>
      <trkpt lat="45.18776" lon="5.91172">
        <ele>1364</ele>
        <time>2022-01-22T07:58:44Z</time>
      </trkpt>
      <trkpt lat="45.18774" lon="5.91173">
        <ele>1365</ele>
        <time>2022-01-22T07:58:47Z</time>
      </trkpt>
      <trkpt lat="45.18772" lon="5.91177">
        <ele>1366</ele>
        <time>2022-01-22T07:58:52Z</time>
      </trkpt>
      <trkpt lat="45.18771" lon="5.9118">
        <ele>1366</ele>
        <time>2022-01-22T07:58:55Z</time>
      </trkpt>
      <trkpt lat="45.18769" lon="5.91182">
        <ele>1366</ele>
        <time>2022-01-22T07:58:57Z</time>
      </trkpt>
      <trkpt lat="45.18762" lon="5.9119">
        <ele>1368</ele>
        <time>2022-01-22T07:59:09Z</time>
      </trkpt>
      <trkpt lat="45.18756" lon="5.91198">
        <ele>1371</ele>
        <time>2022-01-22T07:59:21Z</time>
      </trkpt>
      <trkpt lat="45.1875" lon="5.91206">
        <ele>1372</ele>
        <time>2022-01-22T07:59:30Z</time>
      </trkpt>
      <trkpt lat="45.18748" lon="5.9121">
        <ele>1373</ele>
        <time>2022-01-22T07:59:33Z</time>
      </trkpt>
      <trkpt lat="45.18742" lon="5.91221">
        <ele>1375</ele>
        <time>2022-01-22T07:59:44Z</time>
      </trkpt>
      <trkpt lat="45.18741" lon="5.91223">
        <ele>1376</ele>
        <time>2022-01-22T07:59:47Z</time>
      </trkpt>
      <trkpt lat="45.18734" lon="5.91232">
        <ele>1376</ele>
        <time>2022-01-22T07:59:55Z</time>
      </trkpt>
      <trkpt lat="45.18732" lon="5.91234">
        <ele>1376</ele>
        <time>2022-01-22T07:59:57Z</time>
      </trkpt>
      <trkpt lat="45.18729" lon="5.91237">
        <ele>1376</ele>
        <time>2022-01-22T08:00:00Z</time>
      </trkpt>
      <trkpt lat="45.18728" lon="5.91239">
        <ele>1376</ele>
        <time>2022-01-22T08:00:03Z</time>
      </trkpt>
      <trkpt lat="45.18725" lon="5.91243">
        <ele>1376</ele>
        <time>2022-01-22T08:00:06Z</time>
      </trkpt>
      <trkpt lat="45.18721" lon="5.91248">
        <ele>1377</ele>
        <time>2022-01-22T08:00:10Z</time>
      </trkpt>
      <trkpt lat="45.1872" lon="5.91251">
        <ele>1377</ele>
        <time>2022-01-22T08:00:14Z</time>
      </trkpt>
      <trkpt lat="45.18718" lon="5.91253">
        <ele>1377</ele>
        <time>2022-01-22T08:00:16Z</time>
      </trkpt>
      <trkpt lat="45.18716" lon="5.91256">
        <ele>1378</ele>
        <time>2022-01-22T08:00:18Z</time>
      </trkpt>
      <trkpt lat="45.18714" lon="5.91259">
        <ele>1378</ele>
        <time>2022-01-22T08:00:20Z</time>
      </trkpt>
      <trkpt lat="45.18712" lon="5.91261">
        <ele>1378</ele>
        <time>2022-01-22T08:00:22Z</time>
      </trkpt>
      <trkpt lat="45.1871" lon="5.91263">
        <ele>1377</ele>
        <time>2022-01-22T08:00:24Z</time>
      </trkpt>
      <trkpt lat="45.18709" lon="5.91267">
        <ele>1378</ele>
        <time>2022-01-22T08:00:26Z</time>
      </trkpt>
      <trkpt lat="45.18707" lon="5.91269">
        <ele>1378</ele>
        <time>2022-01-22T08:00:28Z</time>
      </trkpt>
      <trkpt lat="45.18706" lon="5.91272">
        <ele>1378</ele>
        <time>2022-01-22T08:00:30Z</time>
      </trkpt>
      <trkpt lat="45.18704" lon="5.91274">
        <ele>1378</ele>
        <time>2022-01-22T08:00:32Z</time>
      </trkpt>
      <trkpt lat="45.18703" lon="5.91277">
        <ele>1378</ele>
        <time>2022-01-22T08:00:34Z</time>
      </trkpt>
      <trkpt lat="45.18701" lon="5.9128">
        <ele>1378</ele>
        <time>2022-01-22T08:00:36Z</time>
      </trkpt>
      <trkpt lat="45.187" lon="5.91284">
        <ele>1378</ele>
        <time>2022-01-22T08:00:41Z</time>
      </trkpt>
      <trkpt lat="45.18698" lon="5.91286">
        <ele>1378</ele>
        <time>2022-01-22T08:00:43Z</time>
      </trkpt>
      <trkpt lat="45.18696" lon="5.9129">
        <ele>1379</ele>
        <time>2022-01-22T08:00:46Z</time>
      </trkpt>
      <trkpt lat="45.18695" lon="5.91292">
        <ele>1379</ele>
        <time>2022-01-22T08:00:48Z</time>
      </trkpt>
      <trkpt lat="45.18693" lon="5.91295">
        <ele>1379</ele>
        <time>2022-01-22T08:00:51Z</time>
      </trkpt>
      <trkpt lat="45.18691" lon="5.91297">
        <ele>1380</ele>
        <time>2022-01-22T08:00:53Z</time>
      </trkpt>
      <trkpt lat="45.18688" lon="5.91299">
        <ele>1380</ele>
        <time>2022-01-22T08:00:55Z</time>
      </trkpt>
      <trkpt lat="45.18686" lon="5.913">
        <ele>1380</ele>
        <time>2022-01-22T08:00:57Z</time>
      </trkpt>
      <trkpt lat="45.18684" lon="5.91302">
        <ele>1380</ele>
        <time>2022-01-22T08:00:59Z</time>
      </trkpt>
      <trkpt lat="45.18681" lon="5.91303">
        <ele>1380</ele>
        <time>2022-01-22T08:01:02Z</time>
      </trkpt>
      <trkpt lat="45.18679" lon="5.91303">
        <ele>1380</ele>
        <time>2022-01-22T08:01:04Z</time>
      </trkpt>
      <trkpt lat="45.18677" lon="5.91303">
        <ele>1381</ele>
        <time>2022-01-22T08:01:06Z</time>
      </trkpt>
      <trkpt lat="45.18675" lon="5.91303">
        <ele>1382</ele>
        <time>2022-01-22T08:01:09Z</time>
      </trkpt>
      <trkpt lat="45.18673" lon="5.91305">
        <ele>1382</ele>
        <time>2022-01-22T08:01:12Z</time>
      </trkpt>
      <trkpt lat="45.18671" lon="5.91305">
        <ele>1383</ele>
        <time>2022-01-22T08:01:55Z</time>
      </trkpt>
      <trkpt lat="45.18669" lon="5.91304">
        <ele>1384</ele>
        <time>2022-01-22T08:01:57Z</time>
      </trkpt>
      <trkpt lat="45.18667" lon="5.91304">
        <ele>1384</ele>
        <time>2022-01-22T08:01:59Z</time>
      </trkpt>
      <trkpt lat="45.18665" lon="5.91305">
        <ele>1384</ele>
        <time>2022-01-22T08:02:01Z</time>
      </trkpt>
      <trkpt lat="45.18663" lon="5.91304">
        <ele>1384</ele>
        <time>2022-01-22T08:02:03Z</time>
      </trkpt>
      <trkpt lat="45.1866" lon="5.91303">
        <ele>1384</ele>
        <time>2022-01-22T08:02:06Z</time>
      </trkpt>
      <trkpt lat="45.18658" lon="5.91302">
        <ele>1385</ele>
        <time>2022-01-22T08:02:08Z</time>
      </trkpt>
      <trkpt lat="45.18652" lon="5.91301">
        <ele>1387</ele>
        <time>2022-01-22T08:02:15Z</time>
      </trkpt>
      <trkpt lat="45.1865" lon="5.91302">
        <ele>1388</ele>
        <time>2022-01-22T08:02:18Z</time>
      </trkpt>
      <trkpt lat="45.18648" lon="5.91303">
        <ele>1388</ele>
        <time>2022-01-22T08:02:20Z</time>
      </trkpt>
      <trkpt lat="45.18646" lon="5.91304">
        <ele>1388</ele>
        <time>2022-01-22T08:02:23Z</time>
      </trkpt>
      <trkpt lat="45.18643" lon="5.91304">
        <ele>1388</ele>
        <time>2022-01-22T08:02:26Z</time>
      </trkpt>
      <trkpt lat="45.18641" lon="5.91303">
        <ele>1390</ele>
        <time>2022-01-22T08:02:29Z</time>
      </trkpt>
      <trkpt lat="45.18638" lon="5.91303">
        <ele>1390</ele>
        <time>2022-01-22T08:02:34Z</time>
      </trkpt>
      <trkpt lat="45.18636" lon="5.91304">
        <ele>1391</ele>
        <time>2022-01-22T08:02:38Z</time>
      </trkpt>
      <trkpt lat="45.18634" lon="5.91305">
        <ele>1391</ele>
        <time>2022-01-22T08:02:40Z</time>
      </trkpt>
      <trkpt lat="45.18632" lon="5.91305">
        <ele>1391</ele>
        <time>2022-01-22T08:02:42Z</time>
      </trkpt>
      <trkpt lat="45.1863" lon="5.91306">
        <ele>1391</ele>
        <time>2022-01-22T08:02:44Z</time>
      </trkpt>
      <trkpt lat="45.18627" lon="5.91306">
        <ele>1392</ele>
        <time>2022-01-22T08:02:46Z</time>
      </trkpt>
      <trkpt lat="45.18623" lon="5.91306">
        <ele>1392</ele>
        <time>2022-01-22T08:02:50Z</time>
      </trkpt>
      <trkpt lat="45.18621" lon="5.91305">
        <ele>1393</ele>
        <time>2022-01-22T08:02:55Z</time>
      </trkpt>
      <trkpt lat="45.18619" lon="5.91304">
        <ele>1393</ele>
        <time>2022-01-22T08:02:57Z</time>
      </trkpt>
      <trkpt lat="45.18616" lon="5.91304">
        <ele>1393</ele>
        <time>2022-01-22T08:02:59Z</time>
      </trkpt>
      <trkpt lat="45.18613" lon="5.91304">
        <ele>1393</ele>
        <time>2022-01-22T08:03:01Z</time>
      </trkpt>
      <trkpt lat="45.18611" lon="5.91303">
        <ele>1393</ele>
        <time>2022-01-22T08:03:03Z</time>
      </trkpt>
      <trkpt lat="45.18609" lon="5.91304">
        <ele>1393</ele>
        <time>2022-01-22T08:03:05Z</time>
      </trkpt>
      <trkpt lat="45.18607" lon="5.91306">
        <ele>1393</ele>
        <time>2022-01-22T08:03:07Z</time>
      </trkpt>
      <trkpt lat="45.18605" lon="5.91306">
        <ele>1394</ele>
        <time>2022-01-22T08:03:10Z</time>
      </trkpt>
      <trkpt lat="45.18603" lon="5.91306">
        <ele>1394</ele>
        <time>2022-01-22T08:03:12Z</time>
      </trkpt>
      <trkpt lat="45.186" lon="5.91307">
        <ele>1394</ele>
        <time>2022-01-22T08:03:14Z</time>
      </trkpt>
      <trkpt lat="45.18598" lon="5.91308">
        <ele>1394</ele>
        <time>2022-01-22T08:03:16Z</time>
      </trkpt>
      <trkpt lat="45.18595" lon="5.91309">
        <ele>1394</ele>
        <time>2022-01-22T08:03:18Z</time>
      </trkpt>
      <trkpt lat="45.18593" lon="5.9131">
        <ele>1394</ele>
        <time>2022-01-22T08:03:20Z</time>
      </trkpt>
      <trkpt lat="45.18592" lon="5.91312">
        <ele>1395</ele>
        <time>2022-01-22T08:03:23Z</time>
      </trkpt>
      <trkpt lat="45.1859" lon="5.91313">
        <ele>1395</ele>
        <time>2022-01-22T08:03:26Z</time>
      </trkpt>
      <trkpt lat="45.18588" lon="5.91314">
        <ele>1396</ele>
        <time>2022-01-22T08:03:28Z</time>
      </trkpt>
      <trkpt lat="45.18587" lon="5.91316">
        <ele>1396</ele>
        <time>2022-01-22T08:03:30Z</time>
      </trkpt>
      <trkpt lat="45.18585" lon="5.91319">
        <ele>1396</ele>
        <time>2022-01-22T08:03:33Z</time>
      </trkpt>
      <trkpt lat="45.18583" lon="5.9132">
        <ele>1397</ele>
        <time>2022-01-22T08:03:35Z</time>
      </trkpt>
      <trkpt lat="45.18581" lon="5.91321">
        <ele>1398</ele>
        <time>2022-01-22T08:03:40Z</time>
      </trkpt>
      <trkpt lat="45.18579" lon="5.91324">
        <ele>1398</ele>
        <time>2022-01-22T08:03:43Z</time>
      </trkpt>
      <trkpt lat="45.18578" lon="5.91326">
        <ele>1399</ele>
        <time>2022-01-22T08:03:45Z</time>
      </trkpt>
      <trkpt lat="45.18577" lon="5.91328">
        <ele>1399</ele>
        <time>2022-01-22T08:03:47Z</time>
      </trkpt>
      <trkpt lat="45.18575" lon="5.9133">
        <ele>1400</ele>
        <time>2022-01-22T08:03:49Z</time>
      </trkpt>
      <trkpt lat="45.18573" lon="5.91333">
        <ele>1400</ele>
        <time>2022-01-22T08:03:52Z</time>
      </trkpt>
      <trkpt lat="45.18571" lon="5.91335">
        <ele>1400</ele>
        <time>2022-01-22T08:03:54Z</time>
      </trkpt>
      <trkpt lat="45.18569" lon="5.91337">
        <ele>1400</ele>
        <time>2022-01-22T08:03:56Z</time>
      </trkpt>
      <trkpt lat="45.18567" lon="5.91339">
        <ele>1401</ele>
        <time>2022-01-22T08:03:59Z</time>
      </trkpt>
      <trkpt lat="45.18566" lon="5.91341">
        <ele>1402</ele>
        <time>2022-01-22T08:04:01Z</time>
      </trkpt>
      <trkpt lat="45.18565" lon="5.91344">
        <ele>1402</ele>
        <time>2022-01-22T08:04:03Z</time>
      </trkpt>
      <trkpt lat="45.18563" lon="5.91345">
        <ele>1402</ele>
        <time>2022-01-22T08:04:05Z</time>
      </trkpt>
      <trkpt lat="45.1856" lon="5.91346">
        <ele>1403</ele>
        <time>2022-01-22T08:04:07Z</time>
      </trkpt>
      <trkpt lat="45.18558" lon="5.91347">
        <ele>1404</ele>
        <time>2022-01-22T08:04:10Z</time>
      </trkpt>
      <trkpt lat="45.18557" lon="5.91349">
        <ele>1405</ele>
        <time>2022-01-22T08:04:13Z</time>
      </trkpt>
      <trkpt lat="45.18554" lon="5.9135">
        <ele>1405</ele>
        <time>2022-01-22T08:04:16Z</time>
      </trkpt>
      <trkpt lat="45.18552" lon="5.91351">
        <ele>1406</ele>
        <time>2022-01-22T08:04:18Z</time>
      </trkpt>
      <trkpt lat="45.1855" lon="5.91354">
        <ele>1406</ele>
        <time>2022-01-22T08:04:21Z</time>
      </trkpt>
      <trkpt lat="45.18548" lon="5.91356">
        <ele>1407</ele>
        <time>2022-01-22T08:04:24Z</time>
      </trkpt>
      <trkpt lat="45.18547" lon="5.91358">
        <ele>1407</ele>
        <time>2022-01-22T08:04:26Z</time>
      </trkpt>
      <trkpt lat="45.18545" lon="5.91358">
        <ele>1408</ele>
        <time>2022-01-22T08:04:28Z</time>
      </trkpt>
      <trkpt lat="45.18543" lon="5.91359">
        <ele>1408</ele>
        <time>2022-01-22T08:04:31Z</time>
      </trkpt>
      <trkpt lat="45.18541" lon="5.9136">
        <ele>1409</ele>
        <time>2022-01-22T08:04:34Z</time>
      </trkpt>
      <trkpt lat="45.18539" lon="5.91362">
        <ele>1410</ele>
        <time>2022-01-22T08:04:37Z</time>
      </trkpt>
      <trkpt lat="45.18537" lon="5.91363">
        <ele>1410</ele>
        <time>2022-01-22T08:04:39Z</time>
      </trkpt>
      <trkpt lat="45.18535" lon="5.91363">
        <ele>1411</ele>
        <time>2022-01-22T08:04:43Z</time>
      </trkpt>
      <trkpt lat="45.18533" lon="5.91364">
        <ele>1411</ele>
        <time>2022-01-22T08:04:45Z</time>
      </trkpt>
      <trkpt lat="45.18531" lon="5.91366">
        <ele>1412</ele>
        <time>2022-01-22T08:04:48Z</time>
      </trkpt>
      <trkpt lat="45.18529" lon="5.91368">
        <ele>1412</ele>
        <time>2022-01-22T08:04:51Z</time>
      </trkpt>
      <trkpt lat="45.18527" lon="5.9137">
        <ele>1413</ele>
        <time>2022-01-22T08:04:54Z</time>
      </trkpt>
      <trkpt lat="45.18526" lon="5.91372">
        <ele>1414</ele>
        <time>2022-01-22T08:04:57Z</time>
      </trkpt>
      <trkpt lat="45.18525" lon="5.91374">
        <ele>1415</ele>
        <time>2022-01-22T08:04:59Z</time>
      </trkpt>
      <trkpt lat="45.18523" lon="5.91376">
        <ele>1415</ele>
        <time>2022-01-22T08:05:01Z</time>
      </trkpt>
      <trkpt lat="45.18521" lon="5.91376">
        <ele>1416</ele>
        <time>2022-01-22T08:05:04Z</time>
      </trkpt>
      <trkpt lat="45.18519" lon="5.91379">
        <ele>1415</ele>
        <time>2022-01-22T08:05:07Z</time>
      </trkpt>
      <trkpt lat="45.18517" lon="5.9138">
        <ele>1415</ele>
        <time>2022-01-22T08:05:09Z</time>
      </trkpt>
      <trkpt lat="45.18515" lon="5.91383">
        <ele>1418</ele>
        <time>2022-01-22T08:05:14Z</time>
      </trkpt>
      <trkpt lat="45.18513" lon="5.91384">
        <ele>1419</ele>
        <time>2022-01-22T08:05:17Z</time>
      </trkpt>
      <trkpt lat="45.18511" lon="5.91384">
        <ele>1419</ele>
        <time>2022-01-22T08:05:20Z</time>
      </trkpt>
      <trkpt lat="45.18508" lon="5.91385">
        <ele>1420</ele>
        <time>2022-01-22T08:05:27Z</time>
      </trkpt>
      <trkpt lat="45.18506" lon="5.91386">
        <ele>1421</ele>
        <time>2022-01-22T08:05:30Z</time>
      </trkpt>
      <trkpt lat="45.18504" lon="5.91387">
        <ele>1421</ele>
        <time>2022-01-22T08:05:33Z</time>
      </trkpt>
      <trkpt lat="45.18502" lon="5.91387">
        <ele>1421</ele>
        <time>2022-01-22T08:05:35Z</time>
      </trkpt>
      <trkpt lat="45.185" lon="5.91387">
        <ele>1422</ele>
        <time>2022-01-22T08:05:37Z</time>
      </trkpt>
      <trkpt lat="45.18498" lon="5.91387">
        <ele>1423</ele>
        <time>2022-01-22T08:05:39Z</time>
      </trkpt>
      <trkpt lat="45.18496" lon="5.91387">
        <ele>1423</ele>
        <time>2022-01-22T08:05:41Z</time>
      </trkpt>
      <trkpt lat="45.18493" lon="5.91386">
        <ele>1423</ele>
        <time>2022-01-22T08:05:43Z</time>
      </trkpt>
      <trkpt lat="45.18491" lon="5.91386">
        <ele>1424</ele>
        <time>2022-01-22T08:05:46Z</time>
      </trkpt>
      <trkpt lat="45.18489" lon="5.91384">
        <ele>1424</ele>
        <time>2022-01-22T08:05:49Z</time>
      </trkpt>
      <trkpt lat="45.18487" lon="5.91382">
        <ele>1425</ele>
        <time>2022-01-22T08:05:53Z</time>
      </trkpt>
      <trkpt lat="45.18485" lon="5.9138">
        <ele>1426</ele>
        <time>2022-01-22T08:05:56Z</time>
      </trkpt>
      <trkpt lat="45.18483" lon="5.91378">
        <ele>1426</ele>
        <time>2022-01-22T08:05:59Z</time>
      </trkpt>
      <trkpt lat="45.1848" lon="5.91378">
        <ele>1426</ele>
        <time>2022-01-22T08:06:01Z</time>
      </trkpt>
      <trkpt lat="45.18478" lon="5.91378">
        <ele>1427</ele>
        <time>2022-01-22T08:06:03Z</time>
      </trkpt>
      <trkpt lat="45.18476" lon="5.91378">
        <ele>1427</ele>
        <time>2022-01-22T08:06:05Z</time>
      </trkpt>
      <trkpt lat="45.18474" lon="5.91377">
        <ele>1428</ele>
        <time>2022-01-22T08:06:08Z</time>
      </trkpt>
      <trkpt lat="45.18472" lon="5.91377">
        <ele>1428</ele>
        <time>2022-01-22T08:06:10Z</time>
      </trkpt>
      <trkpt lat="45.18469" lon="5.91377">
        <ele>1428</ele>
        <time>2022-01-22T08:06:12Z</time>
      </trkpt>
      <trkpt lat="45.18467" lon="5.91376">
        <ele>1428</ele>
        <time>2022-01-22T08:06:14Z</time>
      </trkpt>
      <trkpt lat="45.18465" lon="5.91375">
        <ele>1428</ele>
        <time>2022-01-22T08:06:16Z</time>
      </trkpt>
      <trkpt lat="45.18463" lon="5.91375">
        <ele>1429</ele>
        <time>2022-01-22T08:06:19Z</time>
      </trkpt>
      <trkpt lat="45.18461" lon="5.91374">
        <ele>1429</ele>
        <time>2022-01-22T08:06:24Z</time>
      </trkpt>
      <trkpt lat="45.18459" lon="5.91375">
        <ele>1430</ele>
        <time>2022-01-22T08:06:26Z</time>
      </trkpt>
      <trkpt lat="45.18457" lon="5.91375">
        <ele>1430</ele>
        <time>2022-01-22T08:06:28Z</time>
      </trkpt>
      <trkpt lat="45.18454" lon="5.91375">
        <ele>1431</ele>
        <time>2022-01-22T08:06:30Z</time>
      </trkpt>
      <trkpt lat="45.18452" lon="5.91375">
        <ele>1431</ele>
        <time>2022-01-22T08:06:32Z</time>
      </trkpt>
      <trkpt lat="45.1845" lon="5.91375">
        <ele>1432</ele>
        <time>2022-01-22T08:06:35Z</time>
      </trkpt>
      <trkpt lat="45.18448" lon="5.91375">
        <ele>1432</ele>
        <time>2022-01-22T08:06:37Z</time>
      </trkpt>
      <trkpt lat="45.18445" lon="5.91375">
        <ele>1433</ele>
        <time>2022-01-22T08:06:40Z</time>
      </trkpt>
      <trkpt lat="45.18443" lon="5.91376">
        <ele>1433</ele>
        <time>2022-01-22T08:06:43Z</time>
      </trkpt>
      <trkpt lat="45.1844" lon="5.91376">
        <ele>1433</ele>
        <time>2022-01-22T08:06:45Z</time>
      </trkpt>
      <trkpt lat="45.18438" lon="5.91377">
        <ele>1434</ele>
        <time>2022-01-22T08:06:47Z</time>
      </trkpt>
      <trkpt lat="45.18436" lon="5.91377">
        <ele>1434</ele>
        <time>2022-01-22T08:06:50Z</time>
      </trkpt>
      <trkpt lat="45.18433" lon="5.91377">
        <ele>1436</ele>
        <time>2022-01-22T08:06:53Z</time>
      </trkpt>
      <trkpt lat="45.1843" lon="5.91377">
        <ele>1436</ele>
        <time>2022-01-22T08:06:57Z</time>
      </trkpt>
      <trkpt lat="45.18428" lon="5.91376">
        <ele>1436</ele>
        <time>2022-01-22T08:06:59Z</time>
      </trkpt>
      <trkpt lat="45.18426" lon="5.91376">
        <ele>1438</ele>
        <time>2022-01-22T08:07:02Z</time>
      </trkpt>
      <trkpt lat="45.18424" lon="5.91376">
        <ele>1438</ele>
        <time>2022-01-22T08:07:07Z</time>
      </trkpt>
      <trkpt lat="45.18422" lon="5.91378">
        <ele>1439</ele>
        <time>2022-01-22T08:07:10Z</time>
      </trkpt>
      <trkpt lat="45.1842" lon="5.91379">
        <ele>1440</ele>
        <time>2022-01-22T08:07:12Z</time>
      </trkpt>
      <trkpt lat="45.18417" lon="5.9138">
        <ele>1440</ele>
        <time>2022-01-22T08:07:14Z</time>
      </trkpt>
      <trkpt lat="45.18415" lon="5.9138">
        <ele>1441</ele>
        <time>2022-01-22T08:07:16Z</time>
      </trkpt>
      <trkpt lat="45.18413" lon="5.9138">
        <ele>1441</ele>
        <time>2022-01-22T08:07:18Z</time>
      </trkpt>
      <trkpt lat="45.18411" lon="5.91379">
        <ele>1442</ele>
        <time>2022-01-22T08:07:21Z</time>
      </trkpt>
      <trkpt lat="45.18409" lon="5.9138">
        <ele>1442</ele>
        <time>2022-01-22T08:07:23Z</time>
      </trkpt>
      <trkpt lat="45.18406" lon="5.9138">
        <ele>1443</ele>
        <time>2022-01-22T08:07:27Z</time>
      </trkpt>
      <trkpt lat="45.18403" lon="5.9138">
        <ele>1443</ele>
        <time>2022-01-22T08:07:30Z</time>
      </trkpt>
      <trkpt lat="45.18401" lon="5.91381">
        <ele>1443</ele>
        <time>2022-01-22T08:07:34Z</time>
      </trkpt>
      <trkpt lat="45.18399" lon="5.91382">
        <ele>1444</ele>
        <time>2022-01-22T08:07:36Z</time>
      </trkpt>
      <trkpt lat="45.18397" lon="5.91382">
        <ele>1445</ele>
        <time>2022-01-22T08:07:38Z</time>
      </trkpt>
      <trkpt lat="45.18395" lon="5.91382">
        <ele>1446</ele>
        <time>2022-01-22T08:07:41Z</time>
      </trkpt>
      <trkpt lat="45.18393" lon="5.91383">
        <ele>1446</ele>
        <time>2022-01-22T08:07:44Z</time>
      </trkpt>
      <trkpt lat="45.1839" lon="5.91385">
        <ele>1446</ele>
        <time>2022-01-22T08:07:47Z</time>
      </trkpt>
      <trkpt lat="45.18389" lon="5.91385">
        <ele>1447</ele>
        <time>2022-01-22T08:07:50Z</time>
      </trkpt>
      <trkpt lat="45.18387" lon="5.91387">
        <ele>1448</ele>
        <time>2022-01-22T08:07:52Z</time>
      </trkpt>
      <trkpt lat="45.18385" lon="5.91387">
        <ele>1448</ele>
        <time>2022-01-22T08:07:54Z</time>
      </trkpt>
      <trkpt lat="45.18382" lon="5.91388">
        <ele>1449</ele>
        <time>2022-01-22T08:07:57Z</time>
      </trkpt>
      <trkpt lat="45.1838" lon="5.91389">
        <ele>1449</ele>
        <time>2022-01-22T08:07:59Z</time>
      </trkpt>
      <trkpt lat="45.18378" lon="5.91389">
        <ele>1451</ele>
        <time>2022-01-22T08:08:04Z</time>
      </trkpt>
      <trkpt lat="45.18376" lon="5.91389">
        <ele>1451</ele>
        <time>2022-01-22T08:08:09Z</time>
      </trkpt>
      <trkpt lat="45.18374" lon="5.9139">
        <ele>1452</ele>
        <time>2022-01-22T08:08:12Z</time>
      </trkpt>
      <trkpt lat="45.18372" lon="5.91391">
        <ele>1452</ele>
        <time>2022-01-22T08:08:14Z</time>
      </trkpt>
      <trkpt lat="45.1837" lon="5.91391">
        <ele>1453</ele>
        <time>2022-01-22T08:08:16Z</time>
      </trkpt>
      <trkpt lat="45.18368" lon="5.91392">
        <ele>1453</ele>
        <time>2022-01-22T08:08:18Z</time>
      </trkpt>
      <trkpt lat="45.18366" lon="5.91393">
        <ele>1454</ele>
        <time>2022-01-22T08:08:20Z</time>
      </trkpt>
      <trkpt lat="45.18364" lon="5.91394">
        <ele>1454</ele>
        <time>2022-01-22T08:08:23Z</time>
      </trkpt>
      <trkpt lat="45.18361" lon="5.91395">
        <ele>1454</ele>
        <time>2022-01-22T08:08:26Z</time>
      </trkpt>
      <trkpt lat="45.18359" lon="5.91396">
        <ele>1455</ele>
        <time>2022-01-22T08:08:28Z</time>
      </trkpt>
      <trkpt lat="45.18357" lon="5.91398">
        <ele>1456</ele>
        <time>2022-01-22T08:08:30Z</time>
      </trkpt>
      <trkpt lat="45.18356" lon="5.91399">
        <ele>1456</ele>
        <time>2022-01-22T08:08:33Z</time>
      </trkpt>
      <trkpt lat="45.18354" lon="5.91399">
        <ele>1456</ele>
        <time>2022-01-22T08:08:36Z</time>
      </trkpt>
      <trkpt lat="45.18352" lon="5.914">
        <ele>1458</ele>
        <time>2022-01-22T08:08:40Z</time>
      </trkpt>
      <trkpt lat="45.1835" lon="5.914">
        <ele>1457</ele>
        <time>2022-01-22T08:08:43Z</time>
      </trkpt>
      <trkpt lat="45.18348" lon="5.91402">
        <ele>1457</ele>
        <time>2022-01-22T08:08:46Z</time>
      </trkpt>
      <trkpt lat="45.18345" lon="5.91403">
        <ele>1458</ele>
        <time>2022-01-22T08:08:49Z</time>
      </trkpt>
      <trkpt lat="45.18343" lon="5.91404">
        <ele>1459</ele>
        <time>2022-01-22T08:08:52Z</time>
      </trkpt>
      <trkpt lat="45.18341" lon="5.91405">
        <ele>1460</ele>
        <time>2022-01-22T08:08:55Z</time>
      </trkpt>
      <trkpt lat="45.18339" lon="5.91406">
        <ele>1461</ele>
        <time>2022-01-22T08:08:57Z</time>
      </trkpt>
      <trkpt lat="45.18337" lon="5.91407">
        <ele>1461</ele>
        <time>2022-01-22T08:08:59Z</time>
      </trkpt>
      <trkpt lat="45.18334" lon="5.91408">
        <ele>1461</ele>
        <time>2022-01-22T08:09:01Z</time>
      </trkpt>
      <trkpt lat="45.18332" lon="5.9141">
        <ele>1461</ele>
        <time>2022-01-22T08:09:04Z</time>
      </trkpt>
      <trkpt lat="45.1833" lon="5.91411">
        <ele>1461</ele>
        <time>2022-01-22T08:09:07Z</time>
      </trkpt>
      <trkpt lat="45.18328" lon="5.91412">
        <ele>1462</ele>
        <time>2022-01-22T08:09:11Z</time>
      </trkpt>
      <trkpt lat="45.18326" lon="5.91413">
        <ele>1463</ele>
        <time>2022-01-22T08:09:13Z</time>
      </trkpt>
      <trkpt lat="45.18324" lon="5.91413">
        <ele>1463</ele>
        <time>2022-01-22T08:09:15Z</time>
      </trkpt>
      <trkpt lat="45.18322" lon="5.91411">
        <ele>1463</ele>
        <time>2022-01-22T08:09:18Z</time>
      </trkpt>
      <trkpt lat="45.18319" lon="5.91412">
        <ele>1465</ele>
        <time>2022-01-22T08:09:21Z</time>
      </trkpt>
      <trkpt lat="45.18317" lon="5.91413">
        <ele>1466</ele>
        <time>2022-01-22T08:09:26Z</time>
      </trkpt>
      <trkpt lat="45.18315" lon="5.91414">
        <ele>1466</ele>
        <time>2022-01-22T08:09:28Z</time>
      </trkpt>
      <trkpt lat="45.18313" lon="5.91415">
        <ele>1467</ele>
        <time>2022-01-22T08:09:31Z</time>
      </trkpt>
      <trkpt lat="45.18311" lon="5.91416">
        <ele>1467</ele>
        <time>2022-01-22T08:09:33Z</time>
      </trkpt>
      <trkpt lat="45.18309" lon="5.91416">
        <ele>1467</ele>
        <time>2022-01-22T08:09:35Z</time>
      </trkpt>
      <trkpt lat="45.18307" lon="5.91417">
        <ele>1468</ele>
        <time>2022-01-22T08:09:37Z</time>
      </trkpt>
      <trkpt lat="45.18305" lon="5.91417">
        <ele>1468</ele>
        <time>2022-01-22T08:09:40Z</time>
      </trkpt>
      <trkpt lat="45.18302" lon="5.91417">
        <ele>1469</ele>
        <time>2022-01-22T08:09:43Z</time>
      </trkpt>
      <trkpt lat="45.18301" lon="5.91417">
        <ele>1470</ele>
        <time>2022-01-22T08:09:46Z</time>
      </trkpt>
      <trkpt lat="45.18298" lon="5.91418">
        <ele>1470</ele>
        <time>2022-01-22T08:09:49Z</time>
      </trkpt>
      <trkpt lat="45.18296" lon="5.91418">
        <ele>1471</ele>
        <time>2022-01-22T08:09:51Z</time>
      </trkpt>
      <trkpt lat="45.18294" lon="5.91419">
        <ele>1471</ele>
        <time>2022-01-22T08:09:53Z</time>
      </trkpt>
      <trkpt lat="45.18292" lon="5.91419">
        <ele>1470</ele>
        <time>2022-01-22T08:09:55Z</time>
      </trkpt>
      <trkpt lat="45.18289" lon="5.91419">
        <ele>1471</ele>
        <time>2022-01-22T08:09:58Z</time>
      </trkpt>
      <trkpt lat="45.18287" lon="5.91419">
        <ele>1472</ele>
        <time>2022-01-22T08:10:00Z</time>
      </trkpt>
      <trkpt lat="45.18285" lon="5.91419">
        <ele>1472</ele>
        <time>2022-01-22T08:10:03Z</time>
      </trkpt>
      <trkpt lat="45.18282" lon="5.9142">
        <ele>1472</ele>
        <time>2022-01-22T08:10:06Z</time>
      </trkpt>
      <trkpt lat="45.1828" lon="5.91419">
        <ele>1472</ele>
        <time>2022-01-22T08:10:08Z</time>
      </trkpt>
      <trkpt lat="45.18278" lon="5.9142">
        <ele>1472</ele>
        <time>2022-01-22T08:10:10Z</time>
      </trkpt>
      <trkpt lat="45.18275" lon="5.9142">
        <ele>1473</ele>
        <time>2022-01-22T08:10:12Z</time>
      </trkpt>
      <trkpt lat="45.18273" lon="5.9142">
        <ele>1474</ele>
        <time>2022-01-22T08:10:15Z</time>
      </trkpt>
      <trkpt lat="45.18271" lon="5.91421">
        <ele>1474</ele>
        <time>2022-01-22T08:10:18Z</time>
      </trkpt>
      <trkpt lat="45.18268" lon="5.91422">
        <ele>1474</ele>
        <time>2022-01-22T08:10:22Z</time>
      </trkpt>
      <trkpt lat="45.18266" lon="5.91423">
        <ele>1475</ele>
        <time>2022-01-22T08:10:25Z</time>
      </trkpt>
      <trkpt lat="45.18263" lon="5.91424">
        <ele>1476</ele>
        <time>2022-01-22T08:10:31Z</time>
      </trkpt>
      <trkpt lat="45.18261" lon="5.91424">
        <ele>1477</ele>
        <time>2022-01-22T08:10:33Z</time>
      </trkpt>
      <trkpt lat="45.18258" lon="5.91424">
        <ele>1477</ele>
        <time>2022-01-22T08:10:36Z</time>
      </trkpt>
      <trkpt lat="45.18256" lon="5.91425">
        <ele>1477</ele>
        <time>2022-01-22T08:10:39Z</time>
      </trkpt>
      <trkpt lat="45.18253" lon="5.91426">
        <ele>1478</ele>
        <time>2022-01-22T08:10:42Z</time>
      </trkpt>
      <trkpt lat="45.18251" lon="5.91427">
        <ele>1479</ele>
        <time>2022-01-22T08:10:44Z</time>
      </trkpt>
      <trkpt lat="45.18249" lon="5.91428">
        <ele>1480</ele>
        <time>2022-01-22T08:10:46Z</time>
      </trkpt>
      <trkpt lat="45.18247" lon="5.91428">
        <ele>1480</ele>
        <time>2022-01-22T08:10:49Z</time>
      </trkpt>
      <trkpt lat="45.18245" lon="5.91429">
        <ele>1480</ele>
        <time>2022-01-22T08:10:51Z</time>
      </trkpt>
      <trkpt lat="45.18243" lon="5.9143">
        <ele>1480</ele>
        <time>2022-01-22T08:10:53Z</time>
      </trkpt>
      <trkpt lat="45.18241" lon="5.9143">
        <ele>1481</ele>
        <time>2022-01-22T08:10:55Z</time>
      </trkpt>
      <trkpt lat="45.18239" lon="5.9143">
        <ele>1482</ele>
        <time>2022-01-22T08:10:57Z</time>
      </trkpt>
      <trkpt lat="45.18236" lon="5.9143">
        <ele>1483</ele>
        <time>2022-01-22T08:11:00Z</time>
      </trkpt>
      <trkpt lat="45.18234" lon="5.91431">
        <ele>1483</ele>
        <time>2022-01-22T08:11:02Z</time>
      </trkpt>
      <trkpt lat="45.18232" lon="5.91431">
        <ele>1483</ele>
        <time>2022-01-22T08:11:06Z</time>
      </trkpt>
      <trkpt lat="45.1823" lon="5.91433">
        <ele>1483</ele>
        <time>2022-01-22T08:11:08Z</time>
      </trkpt>
      <trkpt lat="45.18229" lon="5.91435">
        <ele>1484</ele>
        <time>2022-01-22T08:11:10Z</time>
      </trkpt>
      <trkpt lat="45.18226" lon="5.91436">
        <ele>1484</ele>
        <time>2022-01-22T08:11:13Z</time>
      </trkpt>
      <trkpt lat="45.18224" lon="5.91438">
        <ele>1485</ele>
        <time>2022-01-22T08:11:16Z</time>
      </trkpt>
      <trkpt lat="45.18222" lon="5.91437">
        <ele>1486</ele>
        <time>2022-01-22T08:11:18Z</time>
      </trkpt>
      <trkpt lat="45.1822" lon="5.91437">
        <ele>1486</ele>
        <time>2022-01-22T08:11:20Z</time>
      </trkpt>
      <trkpt lat="45.18218" lon="5.91438">
        <ele>1487</ele>
        <time>2022-01-22T08:11:22Z</time>
      </trkpt>
      <trkpt lat="45.18216" lon="5.9144">
        <ele>1487</ele>
        <time>2022-01-22T08:11:25Z</time>
      </trkpt>
      <trkpt lat="45.18214" lon="5.91441">
        <ele>1487</ele>
        <time>2022-01-22T08:11:28Z</time>
      </trkpt>
      <trkpt lat="45.18212" lon="5.91442">
        <ele>1488</ele>
        <time>2022-01-22T08:11:31Z</time>
      </trkpt>
      <trkpt lat="45.18209" lon="5.91443">
        <ele>1488</ele>
        <time>2022-01-22T08:11:34Z</time>
      </trkpt>
      <trkpt lat="45.18207" lon="5.91444">
        <ele>1490</ele>
        <time>2022-01-22T08:11:37Z</time>
      </trkpt>
      <trkpt lat="45.18205" lon="5.91445">
        <ele>1490</ele>
        <time>2022-01-22T08:11:41Z</time>
      </trkpt>
      <trkpt lat="45.18202" lon="5.91447">
        <ele>1490</ele>
        <time>2022-01-22T08:11:44Z</time>
      </trkpt>
      <trkpt lat="45.182" lon="5.91448">
        <ele>1491</ele>
        <time>2022-01-22T08:11:47Z</time>
      </trkpt>
      <trkpt lat="45.18198" lon="5.91449">
        <ele>1492</ele>
        <time>2022-01-22T08:11:50Z</time>
      </trkpt>
      <trkpt lat="45.18197" lon="5.91451">
        <ele>1493</ele>
        <time>2022-01-22T08:11:53Z</time>
      </trkpt>
      <trkpt lat="45.18194" lon="5.91452">
        <ele>1493</ele>
        <time>2022-01-22T08:11:56Z</time>
      </trkpt>
      <trkpt lat="45.18192" lon="5.91454">
        <ele>1494</ele>
        <time>2022-01-22T08:11:59Z</time>
      </trkpt>
      <trkpt lat="45.1819" lon="5.91455">
        <ele>1495</ele>
        <time>2022-01-22T08:12:02Z</time>
      </trkpt>
      <trkpt lat="45.18188" lon="5.91456">
        <ele>1495</ele>
        <time>2022-01-22T08:12:05Z</time>
      </trkpt>
      <trkpt lat="45.18186" lon="5.91457">
        <ele>1496</ele>
        <time>2022-01-22T08:12:07Z</time>
      </trkpt>
      <trkpt lat="45.18184" lon="5.91458">
        <ele>1496</ele>
        <time>2022-01-22T08:12:09Z</time>
      </trkpt>
      <trkpt lat="45.18182" lon="5.91458">
        <ele>1496</ele>
        <time>2022-01-22T08:12:11Z</time>
      </trkpt>
      <trkpt lat="45.1818" lon="5.91459">
        <ele>1496</ele>
        <time>2022-01-22T08:12:13Z</time>
      </trkpt>
      <trkpt lat="45.18177" lon="5.9146">
        <ele>1496</ele>
        <time>2022-01-22T08:12:16Z</time>
      </trkpt>
      <trkpt lat="45.18175" lon="5.91461">
        <ele>1497</ele>
        <time>2022-01-22T08:12:18Z</time>
      </trkpt>
      <trkpt lat="45.18173" lon="5.91462">
        <ele>1497</ele>
        <time>2022-01-22T08:12:20Z</time>
      </trkpt>
      <trkpt lat="45.18171" lon="5.91462">
        <ele>1497</ele>
        <time>2022-01-22T08:12:23Z</time>
      </trkpt>
      <trkpt lat="45.18169" lon="5.91462">
        <ele>1497</ele>
        <time>2022-01-22T08:12:25Z</time>
      </trkpt>
      <trkpt lat="45.18167" lon="5.91462">
        <ele>1498</ele>
        <time>2022-01-22T08:12:28Z</time>
      </trkpt>
      <trkpt lat="45.18164" lon="5.91463">
        <ele>1498</ele>
        <time>2022-01-22T08:12:31Z</time>
      </trkpt>
      <trkpt lat="45.18161" lon="5.91464">
        <ele>1498</ele>
        <time>2022-01-22T08:12:34Z</time>
      </trkpt>
      <trkpt lat="45.18159" lon="5.91465">
        <ele>1499</ele>
        <time>2022-01-22T08:12:36Z</time>
      </trkpt>
      <trkpt lat="45.18156" lon="5.91465">
        <ele>1499</ele>
        <time>2022-01-22T08:12:39Z</time>
      </trkpt>
      <trkpt lat="45.18154" lon="5.91465">
        <ele>1500</ele>
        <time>2022-01-22T08:12:42Z</time>
      </trkpt>
      <trkpt lat="45.18152" lon="5.91466">
        <ele>1501</ele>
        <time>2022-01-22T08:12:45Z</time>
      </trkpt>
      <trkpt lat="45.1815" lon="5.91468">
        <ele>1502</ele>
        <time>2022-01-22T08:12:48Z</time>
      </trkpt>
      <trkpt lat="45.18148" lon="5.91468">
        <ele>1502</ele>
        <time>2022-01-22T08:12:51Z</time>
      </trkpt>
      <trkpt lat="45.18145" lon="5.91469">
        <ele>1503</ele>
        <time>2022-01-22T08:12:54Z</time>
      </trkpt>
      <trkpt lat="45.18143" lon="5.91469">
        <ele>1504</ele>
        <time>2022-01-22T08:12:57Z</time>
      </trkpt>
      <trkpt lat="45.18141" lon="5.9147">
        <ele>1505</ele>
        <time>2022-01-22T08:13:00Z</time>
      </trkpt>
      <trkpt lat="45.18139" lon="5.91471">
        <ele>1505</ele>
        <time>2022-01-22T08:13:06Z</time>
      </trkpt>
      <trkpt lat="45.18137" lon="5.91472">
        <ele>1505</ele>
        <time>2022-01-22T08:13:08Z</time>
      </trkpt>
      <trkpt lat="45.18135" lon="5.91473">
        <ele>1506</ele>
        <time>2022-01-22T08:13:10Z</time>
      </trkpt>
      <trkpt lat="45.18134" lon="5.91475">
        <ele>1506</ele>
        <time>2022-01-22T08:13:12Z</time>
      </trkpt>
      <trkpt lat="45.18131" lon="5.91475">
        <ele>1506</ele>
        <time>2022-01-22T08:13:14Z</time>
      </trkpt>
      <trkpt lat="45.18129" lon="5.91476">
        <ele>1507</ele>
        <time>2022-01-22T08:13:16Z</time>
      </trkpt>
      <trkpt lat="45.18127" lon="5.91478">
        <ele>1507</ele>
        <time>2022-01-22T08:13:19Z</time>
      </trkpt>
      <trkpt lat="45.18126" lon="5.91481">
        <ele>1507</ele>
        <time>2022-01-22T08:13:22Z</time>
      </trkpt>
      <trkpt lat="45.18124" lon="5.91484">
        <ele>1507</ele>
        <time>2022-01-22T08:13:24Z</time>
      </trkpt>
      <trkpt lat="45.18123" lon="5.91487">
        <ele>1508</ele>
        <time>2022-01-22T08:13:27Z</time>
      </trkpt>
      <trkpt lat="45.18123" lon="5.9149">
        <ele>1508</ele>
        <time>2022-01-22T08:13:29Z</time>
      </trkpt>
      <trkpt lat="45.18123" lon="5.91493">
        <ele>1510</ele>
        <time>2022-01-22T08:13:32Z</time>
      </trkpt>
      <trkpt lat="45.18123" lon="5.91496">
        <ele>1510</ele>
        <time>2022-01-22T08:13:34Z</time>
      </trkpt>
      <trkpt lat="45.18123" lon="5.91499">
        <ele>1510</ele>
        <time>2022-01-22T08:13:36Z</time>
      </trkpt>
      <trkpt lat="45.18124" lon="5.91502">
        <ele>1510</ele>
        <time>2022-01-22T08:13:38Z</time>
      </trkpt>
      <trkpt lat="45.18124" lon="5.91505">
        <ele>1510</ele>
        <time>2022-01-22T08:13:40Z</time>
      </trkpt>
      <trkpt lat="45.18125" lon="5.91509">
        <ele>1510</ele>
        <time>2022-01-22T08:13:42Z</time>
      </trkpt>
      <trkpt lat="45.18126" lon="5.91512">
        <ele>1510</ele>
        <time>2022-01-22T08:13:44Z</time>
      </trkpt>
      <trkpt lat="45.18127" lon="5.91515">
        <ele>1510</ele>
        <time>2022-01-22T08:13:46Z</time>
      </trkpt>
      <trkpt lat="45.18128" lon="5.91518">
        <ele>1509</ele>
        <time>2022-01-22T08:13:48Z</time>
      </trkpt>
      <trkpt lat="45.18128" lon="5.9152">
        <ele>1509</ele>
        <time>2022-01-22T08:13:50Z</time>
      </trkpt>
      <trkpt lat="45.18129" lon="5.91523">
        <ele>1509</ele>
        <time>2022-01-22T08:13:52Z</time>
      </trkpt>
      <trkpt lat="45.1813" lon="5.91527">
        <ele>1510</ele>
        <time>2022-01-22T08:13:55Z</time>
      </trkpt>
      <trkpt lat="45.1813" lon="5.91529">
        <ele>1510</ele>
        <time>2022-01-22T08:13:57Z</time>
      </trkpt>
      <trkpt lat="45.1813" lon="5.91532">
        <ele>1510</ele>
        <time>2022-01-22T08:13:59Z</time>
      </trkpt>
      <trkpt lat="45.1813" lon="5.91535">
        <ele>1510</ele>
        <time>2022-01-22T08:14:01Z</time>
      </trkpt>
      <trkpt lat="45.1813" lon="5.91538">
        <ele>1510</ele>
        <time>2022-01-22T08:14:03Z</time>
      </trkpt>
      <trkpt lat="45.18129" lon="5.91541">
        <ele>1510</ele>
        <time>2022-01-22T08:14:05Z</time>
      </trkpt>
      <trkpt lat="45.18129" lon="5.91543">
        <ele>1511</ele>
        <time>2022-01-22T08:14:07Z</time>
      </trkpt>
      <trkpt lat="45.18129" lon="5.91546">
        <ele>1511</ele>
        <time>2022-01-22T08:14:09Z</time>
      </trkpt>
      <trkpt lat="45.18129" lon="5.91549">
        <ele>1511</ele>
        <time>2022-01-22T08:14:11Z</time>
      </trkpt>
      <trkpt lat="45.18128" lon="5.91551">
        <ele>1511</ele>
        <time>2022-01-22T08:14:13Z</time>
      </trkpt>
      <trkpt lat="45.18127" lon="5.91553">
        <ele>1512</ele>
        <time>2022-01-22T08:14:15Z</time>
      </trkpt>
      <trkpt lat="45.18126" lon="5.91556">
        <ele>1512</ele>
        <time>2022-01-22T08:14:17Z</time>
      </trkpt>
      <trkpt lat="45.18124" lon="5.91558">
        <ele>1512</ele>
        <time>2022-01-22T08:14:19Z</time>
      </trkpt>
      <trkpt lat="45.18123" lon="5.91561">
        <ele>1512</ele>
        <time>2022-01-22T08:14:21Z</time>
      </trkpt>
      <trkpt lat="45.18121" lon="5.91563">
        <ele>1513</ele>
        <time>2022-01-22T08:14:23Z</time>
      </trkpt>
      <trkpt lat="45.18119" lon="5.91565">
        <ele>1514</ele>
        <time>2022-01-22T08:14:25Z</time>
      </trkpt>
      <trkpt lat="45.18117" lon="5.91566">
        <ele>1514</ele>
        <time>2022-01-22T08:14:27Z</time>
      </trkpt>
      <trkpt lat="45.18116" lon="5.91567">
        <ele>1514</ele>
        <time>2022-01-22T08:14:28Z</time>
      </trkpt>
      <trkpt lat="45.18114" lon="5.91569">
        <ele>1515</ele>
        <time>2022-01-22T08:14:30Z</time>
      </trkpt>
      <trkpt lat="45.18111" lon="5.9157">
        <ele>1515</ele>
        <time>2022-01-22T08:14:33Z</time>
      </trkpt>
      <trkpt lat="45.18109" lon="5.91571">
        <ele>1515</ele>
        <time>2022-01-22T08:14:35Z</time>
      </trkpt>
      <trkpt lat="45.18107" lon="5.91572">
        <ele>1515</ele>
        <time>2022-01-22T08:14:37Z</time>
      </trkpt>
      <trkpt lat="45.18105" lon="5.91572">
        <ele>1515</ele>
        <time>2022-01-22T08:14:39Z</time>
      </trkpt>
      <trkpt lat="45.18102" lon="5.91573">
        <ele>1516</ele>
        <time>2022-01-22T08:14:42Z</time>
      </trkpt>
      <trkpt lat="45.181" lon="5.91574">
        <ele>1516</ele>
        <time>2022-01-22T08:14:44Z</time>
      </trkpt>
      <trkpt lat="45.18098" lon="5.91576">
        <ele>1516</ele>
        <time>2022-01-22T08:14:46Z</time>
      </trkpt>
      <trkpt lat="45.18096" lon="5.91576">
        <ele>1516</ele>
        <time>2022-01-22T08:14:48Z</time>
      </trkpt>
      <trkpt lat="45.18094" lon="5.91577">
        <ele>1517</ele>
        <time>2022-01-22T08:14:51Z</time>
      </trkpt>
      <trkpt lat="45.18092" lon="5.91578">
        <ele>1517</ele>
        <time>2022-01-22T08:14:54Z</time>
      </trkpt>
      <trkpt lat="45.18089" lon="5.91578">
        <ele>1517</ele>
        <time>2022-01-22T08:14:57Z</time>
      </trkpt>
      <trkpt lat="45.18087" lon="5.91578">
        <ele>1518</ele>
        <time>2022-01-22T08:15:00Z</time>
      </trkpt>
      <trkpt lat="45.18085" lon="5.91579">
        <ele>1518</ele>
        <time>2022-01-22T08:15:02Z</time>
      </trkpt>
      <trkpt lat="45.18082" lon="5.91579">
        <ele>1518</ele>
        <time>2022-01-22T08:15:04Z</time>
      </trkpt>
      <trkpt lat="45.18079" lon="5.9158">
        <ele>1519</ele>
        <time>2022-01-22T08:15:07Z</time>
      </trkpt>
      <trkpt lat="45.18077" lon="5.91581">
        <ele>1519</ele>
        <time>2022-01-22T08:15:09Z</time>
      </trkpt>
      <trkpt lat="45.18075" lon="5.91582">
        <ele>1518</ele>
        <time>2022-01-22T08:15:11Z</time>
      </trkpt>
      <trkpt lat="45.18072" lon="5.91582">
        <ele>1518</ele>
        <time>2022-01-22T08:15:13Z</time>
      </trkpt>
      <trkpt lat="45.1807" lon="5.91583">
        <ele>1518</ele>
        <time>2022-01-22T08:15:15Z</time>
      </trkpt>
      <trkpt lat="45.18067" lon="5.91584">
        <ele>1518</ele>
        <time>2022-01-22T08:15:17Z</time>
      </trkpt>
      <trkpt lat="45.18065" lon="5.91584">
        <ele>1518</ele>
        <time>2022-01-22T08:15:19Z</time>
      </trkpt>
      <trkpt lat="45.18063" lon="5.91585">
        <ele>1518</ele>
        <time>2022-01-22T08:15:22Z</time>
      </trkpt>
      <trkpt lat="45.18061" lon="5.91585">
        <ele>1518</ele>
        <time>2022-01-22T08:15:24Z</time>
      </trkpt>
      <trkpt lat="45.18059" lon="5.91586">
        <ele>1518</ele>
        <time>2022-01-22T08:15:26Z</time>
      </trkpt>
      <trkpt lat="45.18057" lon="5.91586">
        <ele>1519</ele>
        <time>2022-01-22T08:15:29Z</time>
      </trkpt>
      <trkpt lat="45.18054" lon="5.91586">
        <ele>1519</ele>
        <time>2022-01-22T08:15:31Z</time>
      </trkpt>
      <trkpt lat="45.18052" lon="5.91586">
        <ele>1519</ele>
        <time>2022-01-22T08:15:33Z</time>
      </trkpt>
      <trkpt lat="45.18049" lon="5.91586">
        <ele>1519</ele>
        <time>2022-01-22T08:15:35Z</time>
      </trkpt>
      <trkpt lat="45.18047" lon="5.91586">
        <ele>1520</ele>
        <time>2022-01-22T08:15:37Z</time>
      </trkpt>
      <trkpt lat="45.18045" lon="5.91586">
        <ele>1520</ele>
        <time>2022-01-22T08:15:40Z</time>
      </trkpt>
      <trkpt lat="45.18042" lon="5.91587">
        <ele>1520</ele>
        <time>2022-01-22T08:15:43Z</time>
      </trkpt>
      <trkpt lat="45.1804" lon="5.91587">
        <ele>1520</ele>
        <time>2022-01-22T08:15:45Z</time>
      </trkpt>
      <trkpt lat="45.18038" lon="5.91588">
        <ele>1520</ele>
        <time>2022-01-22T08:15:47Z</time>
      </trkpt>
      <trkpt lat="45.18036" lon="5.91588">
        <ele>1520</ele>
        <time>2022-01-22T08:15:49Z</time>
      </trkpt>
      <trkpt lat="45.18034" lon="5.91588">
        <ele>1520</ele>
        <time>2022-01-22T08:15:51Z</time>
      </trkpt>
      <trkpt lat="45.18032" lon="5.91588">
        <ele>1520</ele>
        <time>2022-01-22T08:15:53Z</time>
      </trkpt>
      <trkpt lat="45.18029" lon="5.91588">
        <ele>1520</ele>
        <time>2022-01-22T08:15:55Z</time>
      </trkpt>
      <trkpt lat="45.18027" lon="5.91587">
        <ele>1520</ele>
        <time>2022-01-22T08:15:58Z</time>
      </trkpt>
      <trkpt lat="45.18025" lon="5.91587">
        <ele>1520</ele>
        <time>2022-01-22T08:16:00Z</time>
      </trkpt>
      <trkpt lat="45.18022" lon="5.91588">
        <ele>1520</ele>
        <time>2022-01-22T08:16:02Z</time>
      </trkpt>
      <trkpt lat="45.1802" lon="5.91588">
        <ele>1521</ele>
        <time>2022-01-22T08:16:04Z</time>
      </trkpt>
      <trkpt lat="45.18017" lon="5.91588">
        <ele>1521</ele>
        <time>2022-01-22T08:16:07Z</time>
      </trkpt>
      <trkpt lat="45.18015" lon="5.91588">
        <ele>1521</ele>
        <time>2022-01-22T08:16:09Z</time>
      </trkpt>
      <trkpt lat="45.18013" lon="5.91587">
        <ele>1521</ele>
        <time>2022-01-22T08:16:11Z</time>
      </trkpt>
      <trkpt lat="45.1801" lon="5.91587">
        <ele>1521</ele>
        <time>2022-01-22T08:16:13Z</time>
      </trkpt>
      <trkpt lat="45.18008" lon="5.91586">
        <ele>1521</ele>
        <time>2022-01-22T08:16:15Z</time>
      </trkpt>
      <trkpt lat="45.18006" lon="5.91586">
        <ele>1523</ele>
        <time>2022-01-22T08:16:17Z</time>
      </trkpt>
      <trkpt lat="45.18004" lon="5.91586">
        <ele>1524</ele>
        <time>2022-01-22T08:16:19Z</time>
      </trkpt>
      <trkpt lat="45.18002" lon="5.91586">
        <ele>1524</ele>
        <time>2022-01-22T08:16:21Z</time>
      </trkpt>
      <trkpt lat="45.18" lon="5.91586">
        <ele>1524</ele>
        <time>2022-01-22T08:16:24Z</time>
      </trkpt>
      <trkpt lat="45.17998" lon="5.91586">
        <ele>1524</ele>
        <time>2022-01-22T08:16:26Z</time>
      </trkpt>
      <trkpt lat="45.17995" lon="5.91588">
        <ele>1524</ele>
        <time>2022-01-22T08:16:29Z</time>
      </trkpt>
      <trkpt lat="45.17994" lon="5.91588">
        <ele>1525</ele>
        <time>2022-01-22T08:16:31Z</time>
      </trkpt>
      <trkpt lat="45.17991" lon="5.91588">
        <ele>1525</ele>
        <time>2022-01-22T08:16:34Z</time>
      </trkpt>
      <trkpt lat="45.17989" lon="5.91588">
        <ele>1526</ele>
        <time>2022-01-22T08:16:37Z</time>
      </trkpt>
      <trkpt lat="45.17987" lon="5.91589">
        <ele>1527</ele>
        <time>2022-01-22T08:16:39Z</time>
      </trkpt>
      <trkpt lat="45.17984" lon="5.91589">
        <ele>1528</ele>
        <time>2022-01-22T08:16:42Z</time>
      </trkpt>
      <trkpt lat="45.17982" lon="5.91589">
        <ele>1529</ele>
        <time>2022-01-22T08:16:45Z</time>
      </trkpt>
      <trkpt lat="45.17979" lon="5.91589">
        <ele>1529</ele>
        <time>2022-01-22T08:16:48Z</time>
      </trkpt>
      <trkpt lat="45.17977" lon="5.91589">
        <ele>1528</ele>
        <time>2022-01-22T08:16:50Z</time>
      </trkpt>
      <trkpt lat="45.17974" lon="5.9159">
        <ele>1529</ele>
        <time>2022-01-22T08:16:53Z</time>
      </trkpt>
      <trkpt lat="45.17972" lon="5.9159">
        <ele>1530</ele>
        <time>2022-01-22T08:16:56Z</time>
      </trkpt>
      <trkpt lat="45.1797" lon="5.91591">
        <ele>1531</ele>
        <time>2022-01-22T08:16:59Z</time>
      </trkpt>
      <trkpt lat="45.17967" lon="5.91591">
        <ele>1531</ele>
        <time>2022-01-22T08:17:02Z</time>
      </trkpt>
      <trkpt lat="45.17965" lon="5.91591">
        <ele>1532</ele>
        <time>2022-01-22T08:17:05Z</time>
      </trkpt>
      <trkpt lat="45.17963" lon="5.91591">
        <ele>1532</ele>
        <time>2022-01-22T08:17:08Z</time>
      </trkpt>
      <trkpt lat="45.17961" lon="5.91592">
        <ele>1533</ele>
        <time>2022-01-22T08:17:11Z</time>
      </trkpt>
      <trkpt lat="45.17959" lon="5.91593">
        <ele>1534</ele>
        <time>2022-01-22T08:17:14Z</time>
      </trkpt>
      <trkpt lat="45.17956" lon="5.91593">
        <ele>1534</ele>
        <time>2022-01-22T08:17:17Z</time>
      </trkpt>
      <trkpt lat="45.17954" lon="5.91593">
        <ele>1534</ele>
        <time>2022-01-22T08:17:20Z</time>
      </trkpt>
      <trkpt lat="45.17952" lon="5.91593">
        <ele>1534</ele>
        <time>2022-01-22T08:17:22Z</time>
      </trkpt>
      <trkpt lat="45.1795" lon="5.91594">
        <ele>1535</ele>
        <time>2022-01-22T08:17:24Z</time>
      </trkpt>
      <trkpt lat="45.17948" lon="5.91594">
        <ele>1535</ele>
        <time>2022-01-22T08:17:27Z</time>
      </trkpt>
      <trkpt lat="45.17946" lon="5.91596">
        <ele>1536</ele>
        <time>2022-01-22T08:17:30Z</time>
      </trkpt>
      <trkpt lat="45.17944" lon="5.91598">
        <ele>1537</ele>
        <time>2022-01-22T08:17:33Z</time>
      </trkpt>
      <trkpt lat="45.17942" lon="5.91599">
        <ele>1537</ele>
        <time>2022-01-22T08:17:35Z</time>
      </trkpt>
      <trkpt lat="45.1794" lon="5.91599">
        <ele>1537</ele>
        <time>2022-01-22T08:17:37Z</time>
      </trkpt>
      <trkpt lat="45.17937" lon="5.91599">
        <ele>1538</ele>
        <time>2022-01-22T08:17:40Z</time>
      </trkpt>
      <trkpt lat="45.17935" lon="5.916">
        <ele>1539</ele>
        <time>2022-01-22T08:17:43Z</time>
      </trkpt>
      <trkpt lat="45.17933" lon="5.91601">
        <ele>1539</ele>
        <time>2022-01-22T08:17:46Z</time>
      </trkpt>
      <trkpt lat="45.1793" lon="5.91601">
        <ele>1539</ele>
        <time>2022-01-22T08:17:49Z</time>
      </trkpt>
      <trkpt lat="45.17928" lon="5.916">
        <ele>1541</ele>
        <time>2022-01-22T08:17:53Z</time>
      </trkpt>
      <trkpt lat="45.17927" lon="5.916">
        <ele>1541</ele>
        <time>2022-01-22T08:17:58Z</time>
      </trkpt>
      <trkpt lat="45.17925" lon="5.91602">
        <ele>1540</ele>
        <time>2022-01-22T08:18:44Z</time>
      </trkpt>
      <trkpt lat="45.17922" lon="5.91603">
        <ele>1541</ele>
        <time>2022-01-22T08:18:48Z</time>
      </trkpt>
      <trkpt lat="45.1792" lon="5.91603">
        <ele>1541</ele>
        <time>2022-01-22T08:18:51Z</time>
      </trkpt>
      <trkpt lat="45.17918" lon="5.91603">
        <ele>1542</ele>
        <time>2022-01-22T08:18:54Z</time>
      </trkpt>
      <trkpt lat="45.17915" lon="5.91603">
        <ele>1543</ele>
        <time>2022-01-22T08:18:57Z</time>
      </trkpt>
      <trkpt lat="45.17913" lon="5.91603">
        <ele>1543</ele>
        <time>2022-01-22T08:18:59Z</time>
      </trkpt>
      <trkpt lat="45.17911" lon="5.91603">
        <ele>1543</ele>
        <time>2022-01-22T08:19:01Z</time>
      </trkpt>
      <trkpt lat="45.17909" lon="5.91603">
        <ele>1543</ele>
        <time>2022-01-22T08:19:03Z</time>
      </trkpt>
      <trkpt lat="45.17907" lon="5.91604">
        <ele>1544</ele>
        <time>2022-01-22T08:19:06Z</time>
      </trkpt>
      <trkpt lat="45.17904" lon="5.91605">
        <ele>1546</ele>
        <time>2022-01-22T08:19:11Z</time>
      </trkpt>
      <trkpt lat="45.17902" lon="5.91606">
        <ele>1546</ele>
        <time>2022-01-22T08:19:13Z</time>
      </trkpt>
      <trkpt lat="45.179" lon="5.91607">
        <ele>1547</ele>
        <time>2022-01-22T08:19:15Z</time>
      </trkpt>
      <trkpt lat="45.17899" lon="5.91609">
        <ele>1547</ele>
        <time>2022-01-22T08:19:17Z</time>
      </trkpt>
      <trkpt lat="45.17897" lon="5.9161">
        <ele>1547</ele>
        <time>2022-01-22T08:19:19Z</time>
      </trkpt>
      <trkpt lat="45.17895" lon="5.91611">
        <ele>1548</ele>
        <time>2022-01-22T08:19:24Z</time>
      </trkpt>
      <trkpt lat="45.17893" lon="5.91612">
        <ele>1549</ele>
        <time>2022-01-22T08:19:26Z</time>
      </trkpt>
      <trkpt lat="45.17891" lon="5.91613">
        <ele>1549</ele>
        <time>2022-01-22T08:19:28Z</time>
      </trkpt>
      <trkpt lat="45.17889" lon="5.91614">
        <ele>1550</ele>
        <time>2022-01-22T08:19:31Z</time>
      </trkpt>
      <trkpt lat="45.17887" lon="5.91615">
        <ele>1550</ele>
        <time>2022-01-22T08:19:34Z</time>
      </trkpt>
      <trkpt lat="45.17884" lon="5.91616">
        <ele>1551</ele>
        <time>2022-01-22T08:19:37Z</time>
      </trkpt>
      <trkpt lat="45.17882" lon="5.91617">
        <ele>1552</ele>
        <time>2022-01-22T08:19:40Z</time>
      </trkpt>
      <trkpt lat="45.17879" lon="5.91618">
        <ele>1552</ele>
        <time>2022-01-22T08:19:43Z</time>
      </trkpt>
      <trkpt lat="45.17877" lon="5.9162">
        <ele>1552</ele>
        <time>2022-01-22T08:19:45Z</time>
      </trkpt>
      <trkpt lat="45.17876" lon="5.91621">
        <ele>1552</ele>
        <time>2022-01-22T08:19:47Z</time>
      </trkpt>
      <trkpt lat="45.17874" lon="5.91622">
        <ele>1552</ele>
        <time>2022-01-22T08:19:50Z</time>
      </trkpt>
      <trkpt lat="45.17872" lon="5.91624">
        <ele>1553</ele>
        <time>2022-01-22T08:19:53Z</time>
      </trkpt>
      <trkpt lat="45.1787" lon="5.91627">
        <ele>1554</ele>
        <time>2022-01-22T08:19:56Z</time>
      </trkpt>
      <trkpt lat="45.17868" lon="5.91629">
        <ele>1554</ele>
        <time>2022-01-22T08:19:59Z</time>
      </trkpt>
      <trkpt lat="45.17866" lon="5.9163">
        <ele>1555</ele>
        <time>2022-01-22T08:20:01Z</time>
      </trkpt>
      <trkpt lat="45.17865" lon="5.91631">
        <ele>1555</ele>
        <time>2022-01-22T08:20:03Z</time>
      </trkpt>
      <trkpt lat="45.17863" lon="5.91633">
        <ele>1556</ele>
        <time>2022-01-22T08:20:06Z</time>
      </trkpt>
      <trkpt lat="45.17861" lon="5.91635">
        <ele>1556</ele>
        <time>2022-01-22T08:20:08Z</time>
      </trkpt>
      <trkpt lat="45.1786" lon="5.91636">
        <ele>1556</ele>
        <time>2022-01-22T08:20:10Z</time>
      </trkpt>
      <trkpt lat="45.17858" lon="5.91638">
        <ele>1556</ele>
        <time>2022-01-22T08:20:13Z</time>
      </trkpt>
      <trkpt lat="45.17856" lon="5.9164">
        <ele>1557</ele>
        <time>2022-01-22T08:20:18Z</time>
      </trkpt>
      <trkpt lat="45.17854" lon="5.91642">
        <ele>1558</ele>
        <time>2022-01-22T08:20:21Z</time>
      </trkpt>
      <trkpt lat="45.17852" lon="5.91643">
        <ele>1558</ele>
        <time>2022-01-22T08:20:24Z</time>
      </trkpt>
      <trkpt lat="45.1785" lon="5.91645">
        <ele>1560</ele>
        <time>2022-01-22T08:20:27Z</time>
      </trkpt>
      <trkpt lat="45.17848" lon="5.91646">
        <ele>1560</ele>
        <time>2022-01-22T08:20:30Z</time>
      </trkpt>
      <trkpt lat="45.17847" lon="5.91648">
        <ele>1560</ele>
        <time>2022-01-22T08:20:32Z</time>
      </trkpt>
      <trkpt lat="45.17845" lon="5.91649">
        <ele>1561</ele>
        <time>2022-01-22T08:20:35Z</time>
      </trkpt>
      <trkpt lat="45.17843" lon="5.9165">
        <ele>1561</ele>
        <time>2022-01-22T08:20:38Z</time>
      </trkpt>
      <trkpt lat="45.1784" lon="5.91651">
        <ele>1563</ele>
        <time>2022-01-22T08:20:41Z</time>
      </trkpt>
      <trkpt lat="45.17838" lon="5.91652">
        <ele>1563</ele>
        <time>2022-01-22T08:20:44Z</time>
      </trkpt>
      <trkpt lat="45.17835" lon="5.91653">
        <ele>1563</ele>
        <time>2022-01-22T08:20:47Z</time>
      </trkpt>
      <trkpt lat="45.17833" lon="5.91654">
        <ele>1564</ele>
        <time>2022-01-22T08:20:50Z</time>
      </trkpt>
      <trkpt lat="45.17831" lon="5.91656">
        <ele>1564</ele>
        <time>2022-01-22T08:20:53Z</time>
      </trkpt>
      <trkpt lat="45.17829" lon="5.91657">
        <ele>1564</ele>
        <time>2022-01-22T08:20:56Z</time>
      </trkpt>
      <trkpt lat="45.17827" lon="5.91658">
        <ele>1564</ele>
        <time>2022-01-22T08:20:58Z</time>
      </trkpt>
      <trkpt lat="45.17825" lon="5.91659">
        <ele>1565</ele>
        <time>2022-01-22T08:21:01Z</time>
      </trkpt>
      <trkpt lat="45.17823" lon="5.9166">
        <ele>1565</ele>
        <time>2022-01-22T08:21:03Z</time>
      </trkpt>
      <trkpt lat="45.17821" lon="5.9166">
        <ele>1566</ele>
        <time>2022-01-22T08:21:06Z</time>
      </trkpt>
      <trkpt lat="45.17819" lon="5.91661">
        <ele>1567</ele>
        <time>2022-01-22T08:21:09Z</time>
      </trkpt>
      <trkpt lat="45.17818" lon="5.91663">
        <ele>1567</ele>
        <time>2022-01-22T08:21:12Z</time>
      </trkpt>
      <trkpt lat="45.17815" lon="5.91663">
        <ele>1568</ele>
        <time>2022-01-22T08:21:17Z</time>
      </trkpt>
      <trkpt lat="45.17813" lon="5.91664">
        <ele>1568</ele>
        <time>2022-01-22T08:21:19Z</time>
      </trkpt>
      <trkpt lat="45.17811" lon="5.91665">
        <ele>1568</ele>
        <time>2022-01-22T08:21:21Z</time>
      </trkpt>
      <trkpt lat="45.17809" lon="5.91666">
        <ele>1569</ele>
        <time>2022-01-22T08:21:23Z</time>
      </trkpt>
      <trkpt lat="45.17807" lon="5.91667">
        <ele>1569</ele>
        <time>2022-01-22T08:21:26Z</time>
      </trkpt>
      <trkpt lat="45.17805" lon="5.91668">
        <ele>1571</ele>
        <time>2022-01-22T08:21:31Z</time>
      </trkpt>
      <trkpt lat="45.17803" lon="5.9167">
        <ele>1571</ele>
        <time>2022-01-22T08:21:34Z</time>
      </trkpt>
      <trkpt lat="45.17805" lon="5.91672">
        <ele>1572</ele>
        <time>2022-01-22T08:21:38Z</time>
      </trkpt>
      <trkpt lat="45.17807" lon="5.91674">
        <ele>1573</ele>
        <time>2022-01-22T08:21:41Z</time>
      </trkpt>
      <trkpt lat="45.17808" lon="5.91676">
        <ele>1574</ele>
        <time>2022-01-22T08:21:45Z</time>
      </trkpt>
      <trkpt lat="45.1781" lon="5.91677">
        <ele>1575</ele>
        <time>2022-01-22T08:21:49Z</time>
      </trkpt>
      <trkpt lat="45.17813" lon="5.91678">
        <ele>1575</ele>
        <time>2022-01-22T08:21:52Z</time>
      </trkpt>
      <trkpt lat="45.17814" lon="5.9168">
        <ele>1576</ele>
        <time>2022-01-22T08:21:55Z</time>
      </trkpt>
      <trkpt lat="45.17816" lon="5.91681">
        <ele>1577</ele>
        <time>2022-01-22T08:21:58Z</time>
      </trkpt>
      <trkpt lat="45.17819" lon="5.91682">
        <ele>1577</ele>
        <time>2022-01-22T08:22:01Z</time>
      </trkpt>
      <trkpt lat="45.1782" lon="5.91683">
        <ele>1578</ele>
        <time>2022-01-22T08:22:03Z</time>
      </trkpt>
      <trkpt lat="45.17822" lon="5.91684">
        <ele>1578</ele>
        <time>2022-01-22T08:22:09Z</time>
      </trkpt>
      <trkpt lat="45.17824" lon="5.91685">
        <ele>1578</ele>
        <time>2022-01-22T08:22:12Z</time>
      </trkpt>
      <trkpt lat="45.17826" lon="5.91685">
        <ele>1579</ele>
        <time>2022-01-22T08:22:15Z</time>
      </trkpt>
      <trkpt lat="45.17828" lon="5.91686">
        <ele>1579</ele>
        <time>2022-01-22T08:22:17Z</time>
      </trkpt>
      <trkpt lat="45.17831" lon="5.91687">
        <ele>1579</ele>
        <time>2022-01-22T08:22:20Z</time>
      </trkpt>
      <trkpt lat="45.17833" lon="5.91687">
        <ele>1579</ele>
        <time>2022-01-22T08:22:23Z</time>
      </trkpt>
      <trkpt lat="45.17835" lon="5.91688">
        <ele>1579</ele>
        <time>2022-01-22T08:22:26Z</time>
      </trkpt>
      <trkpt lat="45.17836" lon="5.91688">
        <ele>1579</ele>
        <time>2022-01-22T08:22:29Z</time>
      </trkpt>
      <trkpt lat="45.17839" lon="5.91688">
        <ele>1579</ele>
        <time>2022-01-22T08:22:32Z</time>
      </trkpt>
      <trkpt lat="45.17841" lon="5.91689">
        <ele>1579</ele>
        <time>2022-01-22T08:22:34Z</time>
      </trkpt>
      <trkpt lat="45.17842" lon="5.91691">
        <ele>1579</ele>
        <time>2022-01-22T08:22:37Z</time>
      </trkpt>
      <trkpt lat="45.17841" lon="5.91693">
        <ele>1581</ele>
        <time>2022-01-22T08:22:42Z</time>
      </trkpt>
      <trkpt lat="45.17842" lon="5.91696">
        <ele>1583</ele>
        <time>2022-01-22T08:22:55Z</time>
      </trkpt>
      <trkpt lat="45.17845" lon="5.91698">
        <ele>1583</ele>
        <time>2022-01-22T08:22:58Z</time>
      </trkpt>
      <trkpt lat="45.17846" lon="5.917">
        <ele>1583</ele>
        <time>2022-01-22T08:23:01Z</time>
      </trkpt>
      <trkpt lat="45.17845" lon="5.91703">
        <ele>1585</ele>
        <time>2022-01-22T08:23:06Z</time>
      </trkpt>
      <trkpt lat="45.17843" lon="5.91703">
        <ele>1585</ele>
        <time>2022-01-22T08:23:11Z</time>
      </trkpt>
      <trkpt lat="45.17842" lon="5.91705">
        <ele>1586</ele>
        <time>2022-01-22T08:23:15Z</time>
      </trkpt>
      <trkpt lat="45.1784" lon="5.91705">
        <ele>1587</ele>
        <time>2022-01-22T08:23:18Z</time>
      </trkpt>
      <trkpt lat="45.17838" lon="5.91706">
        <ele>1587</ele>
        <time>2022-01-22T08:23:21Z</time>
      </trkpt>
      <trkpt lat="45.17835" lon="5.91707">
        <ele>1587</ele>
        <time>2022-01-22T08:23:24Z</time>
      </trkpt>
      <trkpt lat="45.17833" lon="5.91707">
        <ele>1587</ele>
        <time>2022-01-22T08:23:26Z</time>
      </trkpt>
      <trkpt lat="45.1783" lon="5.91708">
        <ele>1588</ele>
        <time>2022-01-22T08:23:28Z</time>
      </trkpt>
      <trkpt lat="45.17828" lon="5.91709">
        <ele>1589</ele>
        <time>2022-01-22T08:23:31Z</time>
      </trkpt>
      <trkpt lat="45.17826" lon="5.91709">
        <ele>1589</ele>
        <time>2022-01-22T08:23:34Z</time>
      </trkpt>
      <trkpt lat="45.17824" lon="5.9171">
        <ele>1590</ele>
        <time>2022-01-22T08:23:36Z</time>
      </trkpt>
      <trkpt lat="45.17821" lon="5.91711">
        <ele>1590</ele>
        <time>2022-01-22T08:23:39Z</time>
      </trkpt>
      <trkpt lat="45.17819" lon="5.91711">
        <ele>1590</ele>
        <time>2022-01-22T08:23:41Z</time>
      </trkpt>
      <trkpt lat="45.17817" lon="5.91711">
        <ele>1590</ele>
        <time>2022-01-22T08:23:44Z</time>
      </trkpt>
      <trkpt lat="45.17815" lon="5.91712">
        <ele>1590</ele>
        <time>2022-01-22T08:23:47Z</time>
      </trkpt>
      <trkpt lat="45.17813" lon="5.91713">
        <ele>1591</ele>
        <time>2022-01-22T08:23:50Z</time>
      </trkpt>
      <trkpt lat="45.17811" lon="5.91714">
        <ele>1593</ele>
        <time>2022-01-22T08:23:53Z</time>
      </trkpt>
      <trkpt lat="45.1781" lon="5.91715">
        <ele>1593</ele>
        <time>2022-01-22T08:24:06Z</time>
      </trkpt>
      <trkpt lat="45.17808" lon="5.91715">
        <ele>1593</ele>
        <time>2022-01-22T08:24:09Z</time>
      </trkpt>
      <trkpt lat="45.17806" lon="5.91717">
        <ele>1592</ele>
        <time>2022-01-22T08:24:12Z</time>
      </trkpt>
      <trkpt lat="45.17805" lon="5.91719">
        <ele>1594</ele>
        <time>2022-01-22T08:24:30Z</time>
      </trkpt>
      <trkpt lat="45.17803" lon="5.91721">
        <ele>1595</ele>
        <time>2022-01-22T08:24:33Z</time>
      </trkpt>
      <trkpt lat="45.17801" lon="5.91722">
        <ele>1595</ele>
        <time>2022-01-22T08:24:37Z</time>
      </trkpt>
      <trkpt lat="45.17799" lon="5.91723">
        <ele>1595</ele>
        <time>2022-01-22T08:24:39Z</time>
      </trkpt>
      <trkpt lat="45.17797" lon="5.91724">
        <ele>1596</ele>
        <time>2022-01-22T08:24:42Z</time>
      </trkpt>
      <trkpt lat="45.17795" lon="5.91725">
        <ele>1596</ele>
        <time>2022-01-22T08:24:45Z</time>
      </trkpt>
      <trkpt lat="45.17793" lon="5.91725">
        <ele>1597</ele>
        <time>2022-01-22T08:24:48Z</time>
      </trkpt>
      <trkpt lat="45.17791" lon="5.91727">
        <ele>1598</ele>
        <time>2022-01-22T08:24:52Z</time>
      </trkpt>
      <trkpt lat="45.17789" lon="5.91727">
        <ele>1598</ele>
        <time>2022-01-22T08:24:54Z</time>
      </trkpt>
      <trkpt lat="45.17787" lon="5.91727">
        <ele>1598</ele>
        <time>2022-01-22T08:24:56Z</time>
      </trkpt>
      <trkpt lat="45.17785" lon="5.91728">
        <ele>1598</ele>
        <time>2022-01-22T08:24:59Z</time>
      </trkpt>
      <trkpt lat="45.17783" lon="5.9173">
        <ele>1598</ele>
        <time>2022-01-22T08:25:02Z</time>
      </trkpt>
      <trkpt lat="45.17781" lon="5.91732">
        <ele>1599</ele>
        <time>2022-01-22T08:25:05Z</time>
      </trkpt>
      <trkpt lat="45.17779" lon="5.91733">
        <ele>1599</ele>
        <time>2022-01-22T08:25:09Z</time>
      </trkpt>
      <trkpt lat="45.17777" lon="5.91734">
        <ele>1600</ele>
        <time>2022-01-22T08:25:12Z</time>
      </trkpt>
      <trkpt lat="45.17775" lon="5.91735">
        <ele>1602</ele>
        <time>2022-01-22T08:25:16Z</time>
      </trkpt>
      <trkpt lat="45.17773" lon="5.91738">
        <ele>1603</ele>
        <time>2022-01-22T08:25:19Z</time>
      </trkpt>
      <trkpt lat="45.17771" lon="5.91738">
        <ele>1603</ele>
        <time>2022-01-22T08:25:21Z</time>
      </trkpt>
      <trkpt lat="45.17769" lon="5.91739">
        <ele>1603</ele>
        <time>2022-01-22T08:25:24Z</time>
      </trkpt>
      <trkpt lat="45.17766" lon="5.91739">
        <ele>1605</ele>
        <time>2022-01-22T08:25:37Z</time>
      </trkpt>
      <trkpt lat="45.17765" lon="5.9174">
        <ele>1605</ele>
        <time>2022-01-22T08:25:44Z</time>
      </trkpt>
      <trkpt lat="45.17762" lon="5.91742">
        <ele>1605</ele>
        <time>2022-01-22T08:25:47Z</time>
      </trkpt>
      <trkpt lat="45.1776" lon="5.91743">
        <ele>1605</ele>
        <time>2022-01-22T08:25:50Z</time>
      </trkpt>
      <trkpt lat="45.17758" lon="5.91744">
        <ele>1606</ele>
        <time>2022-01-22T08:25:52Z</time>
      </trkpt>
      <trkpt lat="45.17756" lon="5.91745">
        <ele>1606</ele>
        <time>2022-01-22T08:25:54Z</time>
      </trkpt>
      <trkpt lat="45.17755" lon="5.91745">
        <ele>1607</ele>
        <time>2022-01-22T08:25:56Z</time>
      </trkpt>
      <trkpt lat="45.17753" lon="5.91744">
        <ele>1607</ele>
        <time>2022-01-22T08:25:58Z</time>
      </trkpt>
      <trkpt lat="45.1775" lon="5.91744">
        <ele>1608</ele>
        <time>2022-01-22T08:26:01Z</time>
      </trkpt>
      <trkpt lat="45.17749" lon="5.91745">
        <ele>1608</ele>
        <time>2022-01-22T08:26:05Z</time>
      </trkpt>
      <trkpt lat="45.1775" lon="5.91747">
        <ele>1609</ele>
        <time>2022-01-22T08:26:12Z</time>
      </trkpt>
      <trkpt lat="45.17752" lon="5.91748">
        <ele>1609</ele>
        <time>2022-01-22T08:26:16Z</time>
      </trkpt>
      <trkpt lat="45.17754" lon="5.91749">
        <ele>1610</ele>
        <time>2022-01-22T08:26:20Z</time>
      </trkpt>
      <trkpt lat="45.17756" lon="5.91751">
        <ele>1611</ele>
        <time>2022-01-22T08:26:24Z</time>
      </trkpt>
      <trkpt lat="45.17758" lon="5.91752">
        <ele>1612</ele>
        <time>2022-01-22T08:26:28Z</time>
      </trkpt>
      <trkpt lat="45.1776" lon="5.91752">
        <ele>1612</ele>
        <time>2022-01-22T08:26:31Z</time>
      </trkpt>
      <trkpt lat="45.17762" lon="5.91753">
        <ele>1613</ele>
        <time>2022-01-22T08:26:34Z</time>
      </trkpt>
      <trkpt lat="45.17764" lon="5.91755">
        <ele>1613</ele>
        <time>2022-01-22T08:26:37Z</time>
      </trkpt>
      <trkpt lat="45.17767" lon="5.91756">
        <ele>1614</ele>
        <time>2022-01-22T08:26:40Z</time>
      </trkpt>
      <trkpt lat="45.17768" lon="5.91758">
        <ele>1614</ele>
        <time>2022-01-22T08:26:42Z</time>
      </trkpt>
      <trkpt lat="45.1777" lon="5.9176">
        <ele>1616</ele>
        <time>2022-01-22T08:26:45Z</time>
      </trkpt>
      <trkpt lat="45.17772" lon="5.91761">
        <ele>1616</ele>
        <time>2022-01-22T08:26:49Z</time>
      </trkpt>
      <trkpt lat="45.17774" lon="5.91762">
        <ele>1616</ele>
        <time>2022-01-22T08:26:54Z</time>
      </trkpt>
      <trkpt lat="45.17776" lon="5.91762">
        <ele>1616</ele>
        <time>2022-01-22T08:26:56Z</time>
      </trkpt>
      <trkpt lat="45.17778" lon="5.91763">
        <ele>1617</ele>
        <time>2022-01-22T08:26:58Z</time>
      </trkpt>
      <trkpt lat="45.1778" lon="5.91764">
        <ele>1617</ele>
        <time>2022-01-22T08:27:00Z</time>
      </trkpt>
      <trkpt lat="45.17782" lon="5.91765">
        <ele>1617</ele>
        <time>2022-01-22T08:27:02Z</time>
      </trkpt>
      <trkpt lat="45.17783" lon="5.91766">
        <ele>1618</ele>
        <time>2022-01-22T08:27:04Z</time>
      </trkpt>
      <trkpt lat="45.17786" lon="5.91768">
        <ele>1618</ele>
        <time>2022-01-22T08:27:07Z</time>
      </trkpt>
      <trkpt lat="45.17788" lon="5.91769">
        <ele>1619</ele>
        <time>2022-01-22T08:27:11Z</time>
      </trkpt>
      <trkpt lat="45.1779" lon="5.91771">
        <ele>1620</ele>
        <time>2022-01-22T08:27:14Z</time>
      </trkpt>
      <trkpt lat="45.17792" lon="5.91772">
        <ele>1620</ele>
        <time>2022-01-22T08:27:16Z</time>
      </trkpt>
      <trkpt lat="45.17793" lon="5.91775">
        <ele>1621</ele>
        <time>2022-01-22T08:27:19Z</time>
      </trkpt>
      <trkpt lat="45.17794" lon="5.91777">
        <ele>1621</ele>
        <time>2022-01-22T08:27:21Z</time>
      </trkpt>
      <trkpt lat="45.17796" lon="5.91778">
        <ele>1621</ele>
        <time>2022-01-22T08:27:23Z</time>
      </trkpt>
      <trkpt lat="45.17799" lon="5.91779">
        <ele>1622</ele>
        <time>2022-01-22T08:27:26Z</time>
      </trkpt>
      <trkpt lat="45.17801" lon="5.9178">
        <ele>1622</ele>
        <time>2022-01-22T08:27:28Z</time>
      </trkpt>
      <trkpt lat="45.17803" lon="5.91782">
        <ele>1622</ele>
        <time>2022-01-22T08:27:31Z</time>
      </trkpt>
      <trkpt lat="45.17805" lon="5.91784">
        <ele>1622</ele>
        <time>2022-01-22T08:27:34Z</time>
      </trkpt>
      <trkpt lat="45.17808" lon="5.91786">
        <ele>1624</ele>
        <time>2022-01-22T08:27:37Z</time>
      </trkpt>
      <trkpt lat="45.1781" lon="5.91788">
        <ele>1624</ele>
        <time>2022-01-22T08:27:40Z</time>
      </trkpt>
      <trkpt lat="45.17811" lon="5.9179">
        <ele>1625</ele>
        <time>2022-01-22T08:27:42Z</time>
      </trkpt>
      <trkpt lat="45.17811" lon="5.91793">
        <ele>1626</ele>
        <time>2022-01-22T08:27:44Z</time>
      </trkpt>
      <trkpt lat="45.17809" lon="5.91795">
        <ele>1626</ele>
        <time>2022-01-22T08:27:47Z</time>
      </trkpt>
      <trkpt lat="45.17806" lon="5.91795">
        <ele>1627</ele>
        <time>2022-01-22T08:27:50Z</time>
      </trkpt>
      <trkpt lat="45.17804" lon="5.91795">
        <ele>1627</ele>
        <time>2022-01-22T08:27:52Z</time>
      </trkpt>
      <trkpt lat="45.17802" lon="5.91796">
        <ele>1627</ele>
        <time>2022-01-22T08:27:55Z</time>
      </trkpt>
      <trkpt lat="45.178" lon="5.91796">
        <ele>1628</ele>
        <time>2022-01-22T08:27:58Z</time>
      </trkpt>
      <trkpt lat="45.17798" lon="5.91797">
        <ele>1628</ele>
        <time>2022-01-22T08:28:02Z</time>
      </trkpt>
      <trkpt lat="45.17795" lon="5.91798">
        <ele>1629</ele>
        <time>2022-01-22T08:28:06Z</time>
      </trkpt>
      <trkpt lat="45.17794" lon="5.91799">
        <ele>1629</ele>
        <time>2022-01-22T08:28:08Z</time>
      </trkpt>
      <trkpt lat="45.17791" lon="5.91798">
        <ele>1630</ele>
        <time>2022-01-22T08:28:11Z</time>
      </trkpt>
      <trkpt lat="45.17789" lon="5.91797">
        <ele>1630</ele>
        <time>2022-01-22T08:28:14Z</time>
      </trkpt>
      <trkpt lat="45.17787" lon="5.91797">
        <ele>1631</ele>
        <time>2022-01-22T08:28:17Z</time>
      </trkpt>
      <trkpt lat="45.17785" lon="5.91797">
        <ele>1632</ele>
        <time>2022-01-22T08:28:23Z</time>
      </trkpt>
      <trkpt lat="45.17783" lon="5.91798">
        <ele>1632</ele>
        <time>2022-01-22T08:28:25Z</time>
      </trkpt>
      <trkpt lat="45.1778" lon="5.91799">
        <ele>1632</ele>
        <time>2022-01-22T08:28:27Z</time>
      </trkpt>
      <trkpt lat="45.17778" lon="5.91799">
        <ele>1632</ele>
        <time>2022-01-22T08:28:30Z</time>
      </trkpt>
      <trkpt lat="45.17776" lon="5.91799">
        <ele>1633</ele>
        <time>2022-01-22T08:28:33Z</time>
      </trkpt>
      <trkpt lat="45.17773" lon="5.91799">
        <ele>1634</ele>
        <time>2022-01-22T08:28:36Z</time>
      </trkpt>
      <trkpt lat="45.17771" lon="5.91799">
        <ele>1634</ele>
        <time>2022-01-22T08:28:39Z</time>
      </trkpt>
      <trkpt lat="45.17769" lon="5.918">
        <ele>1635</ele>
        <time>2022-01-22T08:28:42Z</time>
      </trkpt>
      <trkpt lat="45.17771" lon="5.91801">
        <ele>1636</ele>
        <time>2022-01-22T08:29:00Z</time>
      </trkpt>
      <trkpt lat="45.17773" lon="5.91802">
        <ele>1637</ele>
        <time>2022-01-22T08:29:12Z</time>
      </trkpt>
      <trkpt lat="45.17775" lon="5.91803">
        <ele>1637</ele>
        <time>2022-01-22T08:29:27Z</time>
      </trkpt>
      <trkpt lat="45.17776" lon="5.91805">
        <ele>1637</ele>
        <time>2022-01-22T08:29:34Z</time>
      </trkpt>
      <trkpt lat="45.17778" lon="5.91807">
        <ele>1638</ele>
        <time>2022-01-22T08:29:41Z</time>
      </trkpt>
      <trkpt lat="45.1778" lon="5.9181">
        <ele>1639</ele>
        <time>2022-01-22T08:29:44Z</time>
      </trkpt>
      <trkpt lat="45.17782" lon="5.91812">
        <ele>1639</ele>
        <time>2022-01-22T08:29:47Z</time>
      </trkpt>
      <trkpt lat="45.17784" lon="5.91813">
        <ele>1639</ele>
        <time>2022-01-22T08:29:52Z</time>
      </trkpt>
      <trkpt lat="45.17785" lon="5.91815">
        <ele>1640</ele>
        <time>2022-01-22T08:29:54Z</time>
      </trkpt>
      <trkpt lat="45.17787" lon="5.91818">
        <ele>1640</ele>
        <time>2022-01-22T08:29:57Z</time>
      </trkpt>
      <trkpt lat="45.17788" lon="5.9182">
        <ele>1641</ele>
        <time>2022-01-22T08:30:00Z</time>
      </trkpt>
      <trkpt lat="45.1779" lon="5.91822">
        <ele>1641</ele>
        <time>2022-01-22T08:30:03Z</time>
      </trkpt>
      <trkpt lat="45.17792" lon="5.91824">
        <ele>1641</ele>
        <time>2022-01-22T08:30:05Z</time>
      </trkpt>
      <trkpt lat="45.17792" lon="5.91827">
        <ele>1641</ele>
        <time>2022-01-22T08:30:08Z</time>
      </trkpt>
      <trkpt lat="45.17791" lon="5.91829">
        <ele>1642</ele>
        <time>2022-01-22T08:30:11Z</time>
      </trkpt>
      <trkpt lat="45.17789" lon="5.91829">
        <ele>1643</ele>
        <time>2022-01-22T08:30:15Z</time>
      </trkpt>
      <trkpt lat="45.17787" lon="5.91828">
        <ele>1644</ele>
        <time>2022-01-22T08:30:18Z</time>
      </trkpt>
      <trkpt lat="45.17785" lon="5.91827">
        <ele>1645</ele>
        <time>2022-01-22T08:30:21Z</time>
      </trkpt>
      <trkpt lat="45.17783" lon="5.91826">
        <ele>1645</ele>
        <time>2022-01-22T08:30:23Z</time>
      </trkpt>
      <trkpt lat="45.17781" lon="5.91826">
        <ele>1645</ele>
        <time>2022-01-22T08:30:25Z</time>
      </trkpt>
      <trkpt lat="45.17778" lon="5.91825">
        <ele>1645</ele>
        <time>2022-01-22T08:30:28Z</time>
      </trkpt>
      <trkpt lat="45.17776" lon="5.91825">
        <ele>1646</ele>
        <time>2022-01-22T08:30:31Z</time>
      </trkpt>
      <trkpt lat="45.17774" lon="5.91826">
        <ele>1646</ele>
        <time>2022-01-22T08:30:34Z</time>
      </trkpt>
      <trkpt lat="45.17771" lon="5.91827">
        <ele>1646</ele>
        <time>2022-01-22T08:30:37Z</time>
      </trkpt>
      <trkpt lat="45.1777" lon="5.91827">
        <ele>1647</ele>
        <time>2022-01-22T08:30:39Z</time>
      </trkpt>
      <trkpt lat="45.17767" lon="5.91828">
        <ele>1646</ele>
        <time>2022-01-22T08:30:42Z</time>
      </trkpt>
      <trkpt lat="45.17764" lon="5.91829">
        <ele>1646</ele>
        <time>2022-01-22T08:30:45Z</time>
      </trkpt>
      <trkpt lat="45.17762" lon="5.91829">
        <ele>1647</ele>
        <time>2022-01-22T08:30:49Z</time>
      </trkpt>
      <trkpt lat="45.1776" lon="5.91829">
        <ele>1647</ele>
        <time>2022-01-22T08:30:51Z</time>
      </trkpt>
      <trkpt lat="45.17758" lon="5.91829">
        <ele>1648</ele>
        <time>2022-01-22T08:30:53Z</time>
      </trkpt>
      <trkpt lat="45.17757" lon="5.91829">
        <ele>1649</ele>
        <time>2022-01-22T08:30:55Z</time>
      </trkpt>
      <trkpt lat="45.17755" lon="5.9183">
        <ele>1649</ele>
        <time>2022-01-22T08:30:57Z</time>
      </trkpt>
      <trkpt lat="45.17755" lon="5.91832">
        <ele>1650</ele>
        <time>2022-01-22T08:31:03Z</time>
      </trkpt>
      <trkpt lat="45.17756" lon="5.91833">
        <ele>1650</ele>
        <time>2022-01-22T08:31:05Z</time>
      </trkpt>
      <trkpt lat="45.17758" lon="5.91834">
        <ele>1650</ele>
        <time>2022-01-22T08:31:07Z</time>
      </trkpt>
      <trkpt lat="45.1776" lon="5.91836">
        <ele>1652</ele>
        <time>2022-01-22T08:31:10Z</time>
      </trkpt>
      <trkpt lat="45.17762" lon="5.91837">
        <ele>1652</ele>
        <time>2022-01-22T08:31:13Z</time>
      </trkpt>
      <trkpt lat="45.17764" lon="5.91838">
        <ele>1653</ele>
        <time>2022-01-22T08:31:15Z</time>
      </trkpt>
      <trkpt lat="45.17766" lon="5.91838">
        <ele>1653</ele>
        <time>2022-01-22T08:31:21Z</time>
      </trkpt>
      <trkpt lat="45.17768" lon="5.91841">
        <ele>1653</ele>
        <time>2022-01-22T08:31:24Z</time>
      </trkpt>
      <trkpt lat="45.17769" lon="5.91843">
        <ele>1653</ele>
        <time>2022-01-22T08:31:26Z</time>
      </trkpt>
      <trkpt lat="45.17771" lon="5.91845">
        <ele>1653</ele>
        <time>2022-01-22T08:31:28Z</time>
      </trkpt>
      <trkpt lat="45.17771" lon="5.91849">
        <ele>1653</ele>
        <time>2022-01-22T08:31:31Z</time>
      </trkpt>
      <trkpt lat="45.1777" lon="5.91852">
        <ele>1654</ele>
        <time>2022-01-22T08:31:34Z</time>
      </trkpt>
      <trkpt lat="45.1777" lon="5.91855">
        <ele>1656</ele>
        <time>2022-01-22T08:31:39Z</time>
      </trkpt>
      <trkpt lat="45.17769" lon="5.91858">
        <ele>1657</ele>
        <time>2022-01-22T08:31:42Z</time>
      </trkpt>
      <trkpt lat="45.17767" lon="5.91861">
        <ele>1657</ele>
        <time>2022-01-22T08:31:45Z</time>
      </trkpt>
      <trkpt lat="45.17765" lon="5.91862">
        <ele>1657</ele>
        <time>2022-01-22T08:31:48Z</time>
      </trkpt>
      <trkpt lat="45.17763" lon="5.91863">
        <ele>1658</ele>
        <time>2022-01-22T08:31:51Z</time>
      </trkpt>
      <trkpt lat="45.17761" lon="5.91864">
        <ele>1658</ele>
        <time>2022-01-22T08:31:54Z</time>
      </trkpt>
      <trkpt lat="45.17759" lon="5.91865">
        <ele>1659</ele>
        <time>2022-01-22T08:31:56Z</time>
      </trkpt>
      <trkpt lat="45.17757" lon="5.91864">
        <ele>1660</ele>
        <time>2022-01-22T08:31:59Z</time>
      </trkpt>
      <trkpt lat="45.17755" lon="5.91863">
        <ele>1660</ele>
        <time>2022-01-22T08:32:02Z</time>
      </trkpt>
      <trkpt lat="45.17753" lon="5.91862">
        <ele>1660</ele>
        <time>2022-01-22T08:32:05Z</time>
      </trkpt>
      <trkpt lat="45.17751" lon="5.91862">
        <ele>1661</ele>
        <time>2022-01-22T08:32:08Z</time>
      </trkpt>
      <trkpt lat="45.17748" lon="5.91863">
        <ele>1662</ele>
        <time>2022-01-22T08:32:11Z</time>
      </trkpt>
      <trkpt lat="45.17746" lon="5.91865">
        <ele>1662</ele>
        <time>2022-01-22T08:32:14Z</time>
      </trkpt>
      <trkpt lat="45.17745" lon="5.91868">
        <ele>1662</ele>
        <time>2022-01-22T08:32:17Z</time>
      </trkpt>
      <trkpt lat="45.17744" lon="5.91871">
        <ele>1663</ele>
        <time>2022-01-22T08:32:20Z</time>
      </trkpt>
      <trkpt lat="45.17745" lon="5.91875">
        <ele>1665</ele>
        <time>2022-01-22T08:32:23Z</time>
      </trkpt>
      <trkpt lat="45.17745" lon="5.91878">
        <ele>1665</ele>
        <time>2022-01-22T08:32:25Z</time>
      </trkpt>
      <trkpt lat="45.17743" lon="5.9188">
        <ele>1666</ele>
        <time>2022-01-22T08:32:28Z</time>
      </trkpt>
      <trkpt lat="45.17741" lon="5.9188">
        <ele>1665</ele>
        <time>2022-01-22T08:32:30Z</time>
      </trkpt>
      <trkpt lat="45.1774" lon="5.91881">
        <ele>1666</ele>
        <time>2022-01-22T08:32:32Z</time>
      </trkpt>
      <trkpt lat="45.17737" lon="5.91881">
        <ele>1668</ele>
        <time>2022-01-22T08:32:35Z</time>
      </trkpt>
      <trkpt lat="45.17736" lon="5.91883">
        <ele>1668</ele>
        <time>2022-01-22T08:32:38Z</time>
      </trkpt>
      <trkpt lat="45.17734" lon="5.91886">
        <ele>1668</ele>
        <time>2022-01-22T08:32:41Z</time>
      </trkpt>
      <trkpt lat="45.17733" lon="5.91889">
        <ele>1669</ele>
        <time>2022-01-22T08:32:43Z</time>
      </trkpt>
      <trkpt lat="45.17732" lon="5.91891">
        <ele>1670</ele>
        <time>2022-01-22T08:32:45Z</time>
      </trkpt>
      <trkpt lat="45.17729" lon="5.91891">
        <ele>1670</ele>
        <time>2022-01-22T08:32:48Z</time>
      </trkpt>
      <trkpt lat="45.17727" lon="5.91893">
        <ele>1671</ele>
        <time>2022-01-22T08:32:51Z</time>
      </trkpt>
      <trkpt lat="45.17725" lon="5.91895">
        <ele>1672</ele>
        <time>2022-01-22T08:32:54Z</time>
      </trkpt>
      <trkpt lat="45.17725" lon="5.91898">
        <ele>1672</ele>
        <time>2022-01-22T08:32:57Z</time>
      </trkpt>
      <trkpt lat="45.17724" lon="5.919">
        <ele>1673</ele>
        <time>2022-01-22T08:33:00Z</time>
      </trkpt>
      <trkpt lat="45.17722" lon="5.91902">
        <ele>1673</ele>
        <time>2022-01-22T08:33:03Z</time>
      </trkpt>
      <trkpt lat="45.1772" lon="5.91904">
        <ele>1674</ele>
        <time>2022-01-22T08:33:06Z</time>
      </trkpt>
      <trkpt lat="45.17718" lon="5.91906">
        <ele>1675</ele>
        <time>2022-01-22T08:33:09Z</time>
      </trkpt>
      <trkpt lat="45.17717" lon="5.91909">
        <ele>1676</ele>
        <time>2022-01-22T08:33:12Z</time>
      </trkpt>
      <trkpt lat="45.17717" lon="5.91912">
        <ele>1676</ele>
        <time>2022-01-22T08:33:15Z</time>
      </trkpt>
      <trkpt lat="45.17717" lon="5.91916">
        <ele>1677</ele>
        <time>2022-01-22T08:33:18Z</time>
      </trkpt>
      <trkpt lat="45.17715" lon="5.91917">
        <ele>1679</ele>
        <time>2022-01-22T08:33:21Z</time>
      </trkpt>
      <trkpt lat="45.17712" lon="5.91916">
        <ele>1679</ele>
        <time>2022-01-22T08:33:24Z</time>
      </trkpt>
      <trkpt lat="45.17711" lon="5.91919">
        <ele>1680</ele>
        <time>2022-01-22T08:33:31Z</time>
      </trkpt>
      <trkpt lat="45.17711" lon="5.91923">
        <ele>1681</ele>
        <time>2022-01-22T08:33:34Z</time>
      </trkpt>
      <trkpt lat="45.1771" lon="5.91926">
        <ele>1680</ele>
        <time>2022-01-22T08:33:37Z</time>
      </trkpt>
      <trkpt lat="45.1771" lon="5.91929">
        <ele>1681</ele>
        <time>2022-01-22T08:33:40Z</time>
      </trkpt>
      <trkpt lat="45.17709" lon="5.91932">
        <ele>1681</ele>
        <time>2022-01-22T08:33:43Z</time>
      </trkpt>
      <trkpt lat="45.17708" lon="5.91935">
        <ele>1683</ele>
        <time>2022-01-22T08:33:45Z</time>
      </trkpt>
      <trkpt lat="45.17708" lon="5.91939">
        <ele>1682</ele>
        <time>2022-01-22T08:33:48Z</time>
      </trkpt>
      <trkpt lat="45.17707" lon="5.91942">
        <ele>1682</ele>
        <time>2022-01-22T08:33:51Z</time>
      </trkpt>
      <trkpt lat="45.17707" lon="5.91945">
        <ele>1682</ele>
        <time>2022-01-22T08:33:53Z</time>
      </trkpt>
      <trkpt lat="45.17707" lon="5.91948">
        <ele>1683</ele>
        <time>2022-01-22T08:33:56Z</time>
      </trkpt>
      <trkpt lat="45.17706" lon="5.91952">
        <ele>1683</ele>
        <time>2022-01-22T08:33:59Z</time>
      </trkpt>
      <trkpt lat="45.17706" lon="5.91954">
        <ele>1683</ele>
        <time>2022-01-22T08:34:01Z</time>
      </trkpt>
      <trkpt lat="45.17706" lon="5.91957">
        <ele>1683</ele>
        <time>2022-01-22T08:34:03Z</time>
      </trkpt>
      <trkpt lat="45.17705" lon="5.91961">
        <ele>1684</ele>
        <time>2022-01-22T08:34:06Z</time>
      </trkpt>
      <trkpt lat="45.17705" lon="5.91964">
        <ele>1685</ele>
        <time>2022-01-22T08:34:08Z</time>
      </trkpt>
      <trkpt lat="45.17705" lon="5.91967">
        <ele>1685</ele>
        <time>2022-01-22T08:34:10Z</time>
      </trkpt>
      <trkpt lat="45.17704" lon="5.91969">
        <ele>1685</ele>
        <time>2022-01-22T08:34:12Z</time>
      </trkpt>
      <trkpt lat="45.17703" lon="5.91972">
        <ele>1685</ele>
        <time>2022-01-22T08:34:14Z</time>
      </trkpt>
      <trkpt lat="45.17702" lon="5.91974">
        <ele>1685</ele>
        <time>2022-01-22T08:34:16Z</time>
      </trkpt>
      <trkpt lat="45.17701" lon="5.91977">
        <ele>1685</ele>
        <time>2022-01-22T08:34:19Z</time>
      </trkpt>
      <trkpt lat="45.177" lon="5.9198">
        <ele>1685</ele>
        <time>2022-01-22T08:34:22Z</time>
      </trkpt>
      <trkpt lat="45.17698" lon="5.91981">
        <ele>1685</ele>
        <time>2022-01-22T08:34:24Z</time>
      </trkpt>
      <trkpt lat="45.17696" lon="5.91982">
        <ele>1685</ele>
        <time>2022-01-22T08:34:26Z</time>
      </trkpt>
      <trkpt lat="45.17694" lon="5.91984">
        <ele>1685</ele>
        <time>2022-01-22T08:34:28Z</time>
      </trkpt>
      <trkpt lat="45.17692" lon="5.91985">
        <ele>1686</ele>
        <time>2022-01-22T08:34:31Z</time>
      </trkpt>
      <trkpt lat="45.1769" lon="5.91987">
        <ele>1686</ele>
        <time>2022-01-22T08:34:33Z</time>
      </trkpt>
      <trkpt lat="45.17687" lon="5.91988">
        <ele>1686</ele>
        <time>2022-01-22T08:34:35Z</time>
      </trkpt>
      <trkpt lat="45.17685" lon="5.9199">
        <ele>1686</ele>
        <time>2022-01-22T08:34:37Z</time>
      </trkpt>
      <trkpt lat="45.17683" lon="5.91991">
        <ele>1686</ele>
        <time>2022-01-22T08:34:39Z</time>
      </trkpt>
      <trkpt lat="45.17681" lon="5.91994">
        <ele>1686</ele>
        <time>2022-01-22T08:34:41Z</time>
      </trkpt>
      <trkpt lat="45.1768" lon="5.91996">
        <ele>1687</ele>
        <time>2022-01-22T08:34:43Z</time>
      </trkpt>
      <trkpt lat="45.17678" lon="5.91999">
        <ele>1687</ele>
        <time>2022-01-22T08:34:45Z</time>
      </trkpt>
      <trkpt lat="45.17677" lon="5.92001">
        <ele>1687</ele>
        <time>2022-01-22T08:34:47Z</time>
      </trkpt>
      <trkpt lat="45.17676" lon="5.92004">
        <ele>1687</ele>
        <time>2022-01-22T08:34:49Z</time>
      </trkpt>
      <trkpt lat="45.17674" lon="5.92006">
        <ele>1687</ele>
        <time>2022-01-22T08:34:51Z</time>
      </trkpt>
      <trkpt lat="45.17673" lon="5.92008">
        <ele>1687</ele>
        <time>2022-01-22T08:34:53Z</time>
      </trkpt>
      <trkpt lat="45.17673" lon="5.92011">
        <ele>1689</ele>
        <time>2022-01-22T08:34:56Z</time>
      </trkpt>
      <trkpt lat="45.17673" lon="5.92015">
        <ele>1689</ele>
        <time>2022-01-22T08:34:59Z</time>
      </trkpt>
      <trkpt lat="45.17672" lon="5.92018">
        <ele>1689</ele>
        <time>2022-01-22T08:35:01Z</time>
      </trkpt>
      <trkpt lat="45.17671" lon="5.9202">
        <ele>1689</ele>
        <time>2022-01-22T08:35:03Z</time>
      </trkpt>
      <trkpt lat="45.17669" lon="5.92023">
        <ele>1690</ele>
        <time>2022-01-22T08:35:06Z</time>
      </trkpt>
      <trkpt lat="45.17669" lon="5.92025">
        <ele>1690</ele>
        <time>2022-01-22T08:35:09Z</time>
      </trkpt>
      <trkpt lat="45.17668" lon="5.92029">
        <ele>1690</ele>
        <time>2022-01-22T08:35:12Z</time>
      </trkpt>
      <trkpt lat="45.17668" lon="5.92032">
        <ele>1690</ele>
        <time>2022-01-22T08:35:14Z</time>
      </trkpt>
      <trkpt lat="45.17668" lon="5.92036">
        <ele>1690</ele>
        <time>2022-01-22T08:35:16Z</time>
      </trkpt>
      <trkpt lat="45.17669" lon="5.92039">
        <ele>1689</ele>
        <time>2022-01-22T08:35:18Z</time>
      </trkpt>
      <trkpt lat="45.17669" lon="5.92042">
        <ele>1689</ele>
        <time>2022-01-22T08:35:20Z</time>
      </trkpt>
      <trkpt lat="45.17669" lon="5.92045">
        <ele>1689</ele>
        <time>2022-01-22T08:35:22Z</time>
      </trkpt>
      <trkpt lat="45.17668" lon="5.92048">
        <ele>1689</ele>
        <time>2022-01-22T08:35:24Z</time>
      </trkpt>
      <trkpt lat="45.17668" lon="5.92051">
        <ele>1690</ele>
        <time>2022-01-22T08:35:26Z</time>
      </trkpt>
      <trkpt lat="45.17667" lon="5.92054">
        <ele>1690</ele>
        <time>2022-01-22T08:35:28Z</time>
      </trkpt>
      <trkpt lat="45.17666" lon="5.92057">
        <ele>1690</ele>
        <time>2022-01-22T08:35:30Z</time>
      </trkpt>
      <trkpt lat="45.17665" lon="5.92059">
        <ele>1691</ele>
        <time>2022-01-22T08:35:32Z</time>
      </trkpt>
      <trkpt lat="45.17663" lon="5.92062">
        <ele>1691</ele>
        <time>2022-01-22T08:35:34Z</time>
      </trkpt>
      <trkpt lat="45.17661" lon="5.92062">
        <ele>1691</ele>
        <time>2022-01-22T08:35:36Z</time>
      </trkpt>
      <trkpt lat="45.17659" lon="5.92064">
        <ele>1691</ele>
        <time>2022-01-22T08:35:39Z</time>
      </trkpt>
      <trkpt lat="45.17657" lon="5.92065">
        <ele>1691</ele>
        <time>2022-01-22T08:35:42Z</time>
      </trkpt>
      <trkpt lat="45.17655" lon="5.92066">
        <ele>1691</ele>
        <time>2022-01-22T08:35:44Z</time>
      </trkpt>
      <trkpt lat="45.17653" lon="5.92067">
        <ele>1691</ele>
        <time>2022-01-22T08:35:46Z</time>
      </trkpt>
      <trkpt lat="45.1765" lon="5.92068">
        <ele>1692</ele>
        <time>2022-01-22T08:35:48Z</time>
      </trkpt>
      <trkpt lat="45.17648" lon="5.92068">
        <ele>1692</ele>
        <time>2022-01-22T08:35:50Z</time>
      </trkpt>
      <trkpt lat="45.17646" lon="5.92069">
        <ele>1692</ele>
        <time>2022-01-22T08:35:52Z</time>
      </trkpt>
      <trkpt lat="45.17644" lon="5.9207">
        <ele>1692</ele>
        <time>2022-01-22T08:35:54Z</time>
      </trkpt>
      <trkpt lat="45.17642" lon="5.92071">
        <ele>1692</ele>
        <time>2022-01-22T08:35:56Z</time>
      </trkpt>
      <trkpt lat="45.1764" lon="5.92071">
        <ele>1692</ele>
        <time>2022-01-22T08:35:58Z</time>
      </trkpt>
      <trkpt lat="45.17637" lon="5.92072">
        <ele>1692</ele>
        <time>2022-01-22T08:36:00Z</time>
      </trkpt>
      <trkpt lat="45.17635" lon="5.92073">
        <ele>1692</ele>
        <time>2022-01-22T08:36:03Z</time>
      </trkpt>
      <trkpt lat="45.17633" lon="5.92076">
        <ele>1692</ele>
        <time>2022-01-22T08:36:06Z</time>
      </trkpt>
      <trkpt lat="45.17631" lon="5.92077">
        <ele>1692</ele>
        <time>2022-01-22T08:36:08Z</time>
      </trkpt>
      <trkpt lat="45.17629" lon="5.92078">
        <ele>1693</ele>
        <time>2022-01-22T08:36:11Z</time>
      </trkpt>
      <trkpt lat="45.17627" lon="5.9208">
        <ele>1693</ele>
        <time>2022-01-22T08:36:13Z</time>
      </trkpt>
      <trkpt lat="45.17625" lon="5.92081">
        <ele>1693</ele>
        <time>2022-01-22T08:36:15Z</time>
      </trkpt>
      <trkpt lat="45.17624" lon="5.92084">
        <ele>1693</ele>
        <time>2022-01-22T08:36:17Z</time>
      </trkpt>
      <trkpt lat="45.17623" lon="5.92087">
        <ele>1693</ele>
        <time>2022-01-22T08:36:20Z</time>
      </trkpt>
      <trkpt lat="45.17621" lon="5.92089">
        <ele>1693</ele>
        <time>2022-01-22T08:36:22Z</time>
      </trkpt>
      <trkpt lat="45.1762" lon="5.92091">
        <ele>1693</ele>
        <time>2022-01-22T08:36:24Z</time>
      </trkpt>
      <trkpt lat="45.17619" lon="5.92094">
        <ele>1693</ele>
        <time>2022-01-22T08:36:27Z</time>
      </trkpt>
      <trkpt lat="45.17618" lon="5.92097">
        <ele>1693</ele>
        <time>2022-01-22T08:36:29Z</time>
      </trkpt>
      <trkpt lat="45.17616" lon="5.921">
        <ele>1694</ele>
        <time>2022-01-22T08:36:31Z</time>
      </trkpt>
      <trkpt lat="45.17615" lon="5.92102">
        <ele>1694</ele>
        <time>2022-01-22T08:36:33Z</time>
      </trkpt>
      <trkpt lat="45.17614" lon="5.92106">
        <ele>1694</ele>
        <time>2022-01-22T08:36:36Z</time>
      </trkpt>
      <trkpt lat="45.17614" lon="5.92109">
        <ele>1695</ele>
        <time>2022-01-22T08:36:38Z</time>
      </trkpt>
      <trkpt lat="45.17612" lon="5.92112">
        <ele>1695</ele>
        <time>2022-01-22T08:36:41Z</time>
      </trkpt>
      <trkpt lat="45.17611" lon="5.92115">
        <ele>1695</ele>
        <time>2022-01-22T08:36:43Z</time>
      </trkpt>
      <trkpt lat="45.1761" lon="5.92118">
        <ele>1695</ele>
        <time>2022-01-22T08:36:45Z</time>
      </trkpt>
      <trkpt lat="45.17609" lon="5.92122">
        <ele>1695</ele>
        <time>2022-01-22T08:36:48Z</time>
      </trkpt>
      <trkpt lat="45.17608" lon="5.92124">
        <ele>1695</ele>
        <time>2022-01-22T08:36:50Z</time>
      </trkpt>
      <trkpt lat="45.17607" lon="5.92126">
        <ele>1695</ele>
        <time>2022-01-22T08:36:52Z</time>
      </trkpt>
      <trkpt lat="45.17606" lon="5.92128">
        <ele>1695</ele>
        <time>2022-01-22T08:36:54Z</time>
      </trkpt>
      <trkpt lat="45.17603" lon="5.9213">
        <ele>1694</ele>
        <time>2022-01-22T08:36:56Z</time>
      </trkpt>
      <trkpt lat="45.17602" lon="5.92133">
        <ele>1694</ele>
        <time>2022-01-22T08:36:59Z</time>
      </trkpt>
      <trkpt lat="45.176" lon="5.92136">
        <ele>1694</ele>
        <time>2022-01-22T08:37:02Z</time>
      </trkpt>
      <trkpt lat="45.17599" lon="5.92138">
        <ele>1694</ele>
        <time>2022-01-22T08:37:04Z</time>
      </trkpt>
      <trkpt lat="45.17598" lon="5.9214">
        <ele>1694</ele>
        <time>2022-01-22T08:37:06Z</time>
      </trkpt>
      <trkpt lat="45.17596" lon="5.92143">
        <ele>1695</ele>
        <time>2022-01-22T08:37:09Z</time>
      </trkpt>
      <trkpt lat="45.17594" lon="5.92146">
        <ele>1695</ele>
        <time>2022-01-22T08:37:12Z</time>
      </trkpt>
      <trkpt lat="45.17592" lon="5.92148">
        <ele>1695</ele>
        <time>2022-01-22T08:37:14Z</time>
      </trkpt>
      <trkpt lat="45.17591" lon="5.92151">
        <ele>1695</ele>
        <time>2022-01-22T08:37:17Z</time>
      </trkpt>
      <trkpt lat="45.17589" lon="5.92154">
        <ele>1695</ele>
        <time>2022-01-22T08:37:20Z</time>
      </trkpt>
      <trkpt lat="45.17588" lon="5.92156">
        <ele>1695</ele>
        <time>2022-01-22T08:37:24Z</time>
      </trkpt>
      <trkpt lat="45.17586" lon="5.92158">
        <ele>1695</ele>
        <time>2022-01-22T08:37:28Z</time>
      </trkpt>
      <trkpt lat="45.17586" lon="5.92161">
        <ele>1694</ele>
        <time>2022-01-22T08:37:34Z</time>
      </trkpt>
      <trkpt lat="45.17584" lon="5.92161">
        <ele>1694</ele>
        <time>2022-01-22T08:37:37Z</time>
      </trkpt>
      <trkpt lat="45.17583" lon="5.92163">
        <ele>1694</ele>
        <time>2022-01-22T08:37:41Z</time>
      </trkpt>
      <trkpt lat="45.17581" lon="5.92166">
        <ele>1695</ele>
        <time>2022-01-22T08:37:44Z</time>
      </trkpt>
      <trkpt lat="45.17579" lon="5.92168">
        <ele>1695</ele>
        <time>2022-01-22T08:37:47Z</time>
      </trkpt>
      <trkpt lat="45.17577" lon="5.92169">
        <ele>1695</ele>
        <time>2022-01-22T08:37:49Z</time>
      </trkpt>
      <trkpt lat="45.17576" lon="5.92171">
        <ele>1695</ele>
        <time>2022-01-22T08:37:51Z</time>
      </trkpt>
      <trkpt lat="45.17574" lon="5.92174">
        <ele>1695</ele>
        <time>2022-01-22T08:37:54Z</time>
      </trkpt>
      <trkpt lat="45.17573" lon="5.92177">
        <ele>1695</ele>
        <time>2022-01-22T08:37:56Z</time>
      </trkpt>
      <trkpt lat="45.17572" lon="5.92179">
        <ele>1695</ele>
        <time>2022-01-22T08:37:58Z</time>
      </trkpt>
      <trkpt lat="45.17571" lon="5.92182">
        <ele>1696</ele>
        <time>2022-01-22T08:38:01Z</time>
      </trkpt>
      <trkpt lat="45.17569" lon="5.92185">
        <ele>1696</ele>
        <time>2022-01-22T08:38:03Z</time>
      </trkpt>
      <trkpt lat="45.17568" lon="5.92188">
        <ele>1696</ele>
        <time>2022-01-22T08:38:06Z</time>
      </trkpt>
      <trkpt lat="45.17567" lon="5.92191">
        <ele>1697</ele>
        <time>2022-01-22T08:38:09Z</time>
      </trkpt>
      <trkpt lat="45.17565" lon="5.92194">
        <ele>1697</ele>
        <time>2022-01-22T08:38:11Z</time>
      </trkpt>
      <trkpt lat="45.17563" lon="5.92197">
        <ele>1697</ele>
        <time>2022-01-22T08:38:14Z</time>
      </trkpt>
      <trkpt lat="45.17561" lon="5.922">
        <ele>1698</ele>
        <time>2022-01-22T08:38:17Z</time>
      </trkpt>
      <trkpt lat="45.17559" lon="5.92202">
        <ele>1698</ele>
        <time>2022-01-22T08:38:19Z</time>
      </trkpt>
      <trkpt lat="45.17558" lon="5.92204">
        <ele>1699</ele>
        <time>2022-01-22T08:38:21Z</time>
      </trkpt>
      <trkpt lat="45.17556" lon="5.92206">
        <ele>1699</ele>
        <time>2022-01-22T08:38:23Z</time>
      </trkpt>
      <trkpt lat="45.17555" lon="5.92209">
        <ele>1699</ele>
        <time>2022-01-22T08:38:27Z</time>
      </trkpt>
      <trkpt lat="45.17553" lon="5.92211">
        <ele>1699</ele>
        <time>2022-01-22T08:38:29Z</time>
      </trkpt>
      <trkpt lat="45.17552" lon="5.92213">
        <ele>1699</ele>
        <time>2022-01-22T08:38:31Z</time>
      </trkpt>
      <trkpt lat="45.17551" lon="5.92216">
        <ele>1699</ele>
        <time>2022-01-22T08:38:33Z</time>
      </trkpt>
      <trkpt lat="45.1755" lon="5.92218">
        <ele>1699</ele>
        <time>2022-01-22T08:38:35Z</time>
      </trkpt>
      <trkpt lat="45.17548" lon="5.92221">
        <ele>1699</ele>
        <time>2022-01-22T08:38:37Z</time>
      </trkpt>
      <trkpt lat="45.17547" lon="5.92224">
        <ele>1699</ele>
        <time>2022-01-22T08:38:39Z</time>
      </trkpt>
      <trkpt lat="45.17546" lon="5.92227">
        <ele>1699</ele>
        <time>2022-01-22T08:38:41Z</time>
      </trkpt>
      <trkpt lat="45.17545" lon="5.92229">
        <ele>1699</ele>
        <time>2022-01-22T08:38:43Z</time>
      </trkpt>
      <trkpt lat="45.17544" lon="5.92232">
        <ele>1699</ele>
        <time>2022-01-22T08:38:45Z</time>
      </trkpt>
      <trkpt lat="45.17543" lon="5.92234">
        <ele>1699</ele>
        <time>2022-01-22T08:38:47Z</time>
      </trkpt>
      <trkpt lat="45.17542" lon="5.92237">
        <ele>1699</ele>
        <time>2022-01-22T08:38:49Z</time>
      </trkpt>
      <trkpt lat="45.17541" lon="5.9224">
        <ele>1699</ele>
        <time>2022-01-22T08:38:51Z</time>
      </trkpt>
      <trkpt lat="45.1754" lon="5.92242">
        <ele>1699</ele>
        <time>2022-01-22T08:38:53Z</time>
      </trkpt>
      <trkpt lat="45.17539" lon="5.92245">
        <ele>1699</ele>
        <time>2022-01-22T08:38:55Z</time>
      </trkpt>
      <trkpt lat="45.17538" lon="5.92249">
        <ele>1700</ele>
        <time>2022-01-22T08:38:58Z</time>
      </trkpt>
      <trkpt lat="45.17537" lon="5.92252">
        <ele>1700</ele>
        <time>2022-01-22T08:39:00Z</time>
      </trkpt>
      <trkpt lat="45.17536" lon="5.92254">
        <ele>1700</ele>
        <time>2022-01-22T08:39:02Z</time>
      </trkpt>
      <trkpt lat="45.17535" lon="5.92257">
        <ele>1700</ele>
        <time>2022-01-22T08:39:04Z</time>
      </trkpt>
      <trkpt lat="45.17534" lon="5.9226">
        <ele>1700</ele>
        <time>2022-01-22T08:39:06Z</time>
      </trkpt>
      <trkpt lat="45.17533" lon="5.92262">
        <ele>1700</ele>
        <time>2022-01-22T08:39:08Z</time>
      </trkpt>
      <trkpt lat="45.17533" lon="5.92265">
        <ele>1700</ele>
        <time>2022-01-22T08:39:10Z</time>
      </trkpt>
      <trkpt lat="45.17532" lon="5.92268">
        <ele>1701</ele>
        <time>2022-01-22T08:39:12Z</time>
      </trkpt>
      <trkpt lat="45.17531" lon="5.9227">
        <ele>1701</ele>
        <time>2022-01-22T08:39:14Z</time>
      </trkpt>
      <trkpt lat="45.1753" lon="5.92273">
        <ele>1701</ele>
        <time>2022-01-22T08:39:16Z</time>
      </trkpt>
      <trkpt lat="45.1753" lon="5.92276">
        <ele>1701</ele>
        <time>2022-01-22T08:39:18Z</time>
      </trkpt>
      <trkpt lat="45.17528" lon="5.92278">
        <ele>1701</ele>
        <time>2022-01-22T08:39:20Z</time>
      </trkpt>
      <trkpt lat="45.17527" lon="5.92281">
        <ele>1701</ele>
        <time>2022-01-22T08:39:23Z</time>
      </trkpt>
      <trkpt lat="45.17526" lon="5.92284">
        <ele>1701</ele>
        <time>2022-01-22T08:39:26Z</time>
      </trkpt>
      <trkpt lat="45.17525" lon="5.92288">
        <ele>1701</ele>
        <time>2022-01-22T08:39:29Z</time>
      </trkpt>
      <trkpt lat="45.17524" lon="5.92291">
        <ele>1701</ele>
        <time>2022-01-22T08:39:31Z</time>
      </trkpt>
      <trkpt lat="45.17524" lon="5.92294">
        <ele>1701</ele>
        <time>2022-01-22T08:39:33Z</time>
      </trkpt>
      <trkpt lat="45.17523" lon="5.92296">
        <ele>1701</ele>
        <time>2022-01-22T08:39:35Z</time>
      </trkpt>
      <trkpt lat="45.17522" lon="5.92299">
        <ele>1701</ele>
        <time>2022-01-22T08:39:37Z</time>
      </trkpt>
      <trkpt lat="45.17521" lon="5.92301">
        <ele>1701</ele>
        <time>2022-01-22T08:39:39Z</time>
      </trkpt>
      <trkpt lat="45.17521" lon="5.92305">
        <ele>1701</ele>
        <time>2022-01-22T08:39:42Z</time>
      </trkpt>
      <trkpt lat="45.17522" lon="5.92308">
        <ele>1701</ele>
        <time>2022-01-22T08:39:44Z</time>
      </trkpt>
      <trkpt lat="45.17523" lon="5.92311">
        <ele>1701</ele>
        <time>2022-01-22T08:39:46Z</time>
      </trkpt>
      <trkpt lat="45.17524" lon="5.92314">
        <ele>1701</ele>
        <time>2022-01-22T08:39:48Z</time>
      </trkpt>
      <trkpt lat="45.17525" lon="5.92317">
        <ele>1701</ele>
        <time>2022-01-22T08:39:50Z</time>
      </trkpt>
      <trkpt lat="45.17527" lon="5.92319">
        <ele>1701</ele>
        <time>2022-01-22T08:39:52Z</time>
      </trkpt>
      <trkpt lat="45.17528" lon="5.92322">
        <ele>1701</ele>
        <time>2022-01-22T08:39:54Z</time>
      </trkpt>
      <trkpt lat="45.1753" lon="5.92324">
        <ele>1701</ele>
        <time>2022-01-22T08:39:56Z</time>
      </trkpt>
      <trkpt lat="45.17532" lon="5.92326">
        <ele>1701</ele>
        <time>2022-01-22T08:39:58Z</time>
      </trkpt>
      <trkpt lat="45.17533" lon="5.92328">
        <ele>1701</ele>
        <time>2022-01-22T08:40:00Z</time>
      </trkpt>
      <trkpt lat="45.17535" lon="5.9233">
        <ele>1701</ele>
        <time>2022-01-22T08:40:02Z</time>
      </trkpt>
      <trkpt lat="45.17537" lon="5.92333">
        <ele>1702</ele>
        <time>2022-01-22T08:40:04Z</time>
      </trkpt>
      <trkpt lat="45.17538" lon="5.92336">
        <ele>1702</ele>
        <time>2022-01-22T08:40:06Z</time>
      </trkpt>
      <trkpt lat="45.17539" lon="5.92339">
        <ele>1702</ele>
        <time>2022-01-22T08:40:08Z</time>
      </trkpt>
      <trkpt lat="45.1754" lon="5.92341">
        <ele>1702</ele>
        <time>2022-01-22T08:40:10Z</time>
      </trkpt>
      <trkpt lat="45.17541" lon="5.92345">
        <ele>1702</ele>
        <time>2022-01-22T08:40:12Z</time>
      </trkpt>
      <trkpt lat="45.17542" lon="5.92348">
        <ele>1702</ele>
        <time>2022-01-22T08:40:14Z</time>
      </trkpt>
      <trkpt lat="45.17543" lon="5.92352">
        <ele>1702</ele>
        <time>2022-01-22T08:40:16Z</time>
      </trkpt>
      <trkpt lat="45.17544" lon="5.92354">
        <ele>1702</ele>
        <time>2022-01-22T08:40:18Z</time>
      </trkpt>
      <trkpt lat="45.17544" lon="5.92357">
        <ele>1702</ele>
        <time>2022-01-22T08:40:20Z</time>
      </trkpt>
      <trkpt lat="45.17544" lon="5.92361">
        <ele>1702</ele>
        <time>2022-01-22T08:40:22Z</time>
      </trkpt>
      <trkpt lat="45.17544" lon="5.92364">
        <ele>1702</ele>
        <time>2022-01-22T08:40:24Z</time>
      </trkpt>
      <trkpt lat="45.17542" lon="5.92366">
        <ele>1701</ele>
        <time>2022-01-22T08:40:26Z</time>
      </trkpt>
      <trkpt lat="45.17541" lon="5.92369">
        <ele>1701</ele>
        <time>2022-01-22T08:40:28Z</time>
      </trkpt>
      <trkpt lat="45.17539" lon="5.92371">
        <ele>1701</ele>
        <time>2022-01-22T08:40:30Z</time>
      </trkpt>
      <trkpt lat="45.17537" lon="5.92372">
        <ele>1701</ele>
        <time>2022-01-22T08:40:32Z</time>
      </trkpt>
      <trkpt lat="45.17535" lon="5.92373">
        <ele>1701</ele>
        <time>2022-01-22T08:40:34Z</time>
      </trkpt>
      <trkpt lat="45.17532" lon="5.92375">
        <ele>1702</ele>
        <time>2022-01-22T08:40:36Z</time>
      </trkpt>
      <trkpt lat="45.1753" lon="5.92376">
        <ele>1702</ele>
        <time>2022-01-22T08:40:38Z</time>
      </trkpt>
      <trkpt lat="45.17528" lon="5.92377">
        <ele>1702</ele>
        <time>2022-01-22T08:40:40Z</time>
      </trkpt>
      <trkpt lat="45.17526" lon="5.92378">
        <ele>1702</ele>
        <time>2022-01-22T08:40:42Z</time>
      </trkpt>
      <trkpt lat="45.17524" lon="5.92378">
        <ele>1702</ele>
        <time>2022-01-22T08:40:44Z</time>
      </trkpt>
      <trkpt lat="45.17522" lon="5.92379">
        <ele>1702</ele>
        <time>2022-01-22T08:40:46Z</time>
      </trkpt>
      <trkpt lat="45.17519" lon="5.9238">
        <ele>1703</ele>
        <time>2022-01-22T08:40:48Z</time>
      </trkpt>
      <trkpt lat="45.17517" lon="5.92381">
        <ele>1703</ele>
        <time>2022-01-22T08:40:50Z</time>
      </trkpt>
      <trkpt lat="45.17515" lon="5.92382">
        <ele>1703</ele>
        <time>2022-01-22T08:40:52Z</time>
      </trkpt>
      <trkpt lat="45.17513" lon="5.92383">
        <ele>1703</ele>
        <time>2022-01-22T08:40:54Z</time>
      </trkpt>
      <trkpt lat="45.17511" lon="5.92385">
        <ele>1703</ele>
        <time>2022-01-22T08:40:56Z</time>
      </trkpt>
      <trkpt lat="45.17509" lon="5.92386">
        <ele>1703</ele>
        <time>2022-01-22T08:40:58Z</time>
      </trkpt>
      <trkpt lat="45.17507" lon="5.92387">
        <ele>1704</ele>
        <time>2022-01-22T08:41:01Z</time>
      </trkpt>
      <trkpt lat="45.17505" lon="5.92389">
        <ele>1704</ele>
        <time>2022-01-22T08:41:04Z</time>
      </trkpt>
      <trkpt lat="45.17503" lon="5.9239">
        <ele>1704</ele>
        <time>2022-01-22T08:41:06Z</time>
      </trkpt>
      <trkpt lat="45.17502" lon="5.92391">
        <ele>1704</ele>
        <time>2022-01-22T08:41:08Z</time>
      </trkpt>
      <trkpt lat="45.17499" lon="5.92392">
        <ele>1704</ele>
        <time>2022-01-22T08:41:10Z</time>
      </trkpt>
      <trkpt lat="45.17497" lon="5.92393">
        <ele>1705</ele>
        <time>2022-01-22T08:41:12Z</time>
      </trkpt>
      <trkpt lat="45.17496" lon="5.92394">
        <ele>1705</ele>
        <time>2022-01-22T08:41:14Z</time>
      </trkpt>
      <trkpt lat="45.17494" lon="5.92396">
        <ele>1705</ele>
        <time>2022-01-22T08:41:16Z</time>
      </trkpt>
      <trkpt lat="45.17492" lon="5.92397">
        <ele>1705</ele>
        <time>2022-01-22T08:41:18Z</time>
      </trkpt>
      <trkpt lat="45.1749" lon="5.92398">
        <ele>1705</ele>
        <time>2022-01-22T08:41:20Z</time>
      </trkpt>
      <trkpt lat="45.17489" lon="5.92401">
        <ele>1706</ele>
        <time>2022-01-22T08:41:22Z</time>
      </trkpt>
      <trkpt lat="45.17489" lon="5.92403">
        <ele>1706</ele>
        <time>2022-01-22T08:41:24Z</time>
      </trkpt>
      <trkpt lat="45.17488" lon="5.92406">
        <ele>1706</ele>
        <time>2022-01-22T08:41:26Z</time>
      </trkpt>
      <trkpt lat="45.17487" lon="5.92409">
        <ele>1707</ele>
        <time>2022-01-22T08:41:28Z</time>
      </trkpt>
      <trkpt lat="45.17485" lon="5.92411">
        <ele>1707</ele>
        <time>2022-01-22T08:41:30Z</time>
      </trkpt>
      <trkpt lat="45.17484" lon="5.92413">
        <ele>1707</ele>
        <time>2022-01-22T08:41:32Z</time>
      </trkpt>
      <trkpt lat="45.17482" lon="5.92415">
        <ele>1707</ele>
        <time>2022-01-22T08:41:34Z</time>
      </trkpt>
      <trkpt lat="45.17481" lon="5.92417">
        <ele>1707</ele>
        <time>2022-01-22T08:41:36Z</time>
      </trkpt>
      <trkpt lat="45.1748" lon="5.92419">
        <ele>1708</ele>
        <time>2022-01-22T08:41:38Z</time>
      </trkpt>
      <trkpt lat="45.17478" lon="5.92422">
        <ele>1708</ele>
        <time>2022-01-22T08:41:41Z</time>
      </trkpt>
      <trkpt lat="45.17477" lon="5.92425">
        <ele>1709</ele>
        <time>2022-01-22T08:41:44Z</time>
      </trkpt>
      <trkpt lat="45.17476" lon="5.92428">
        <ele>1709</ele>
        <time>2022-01-22T08:41:46Z</time>
      </trkpt>
      <trkpt lat="45.17475" lon="5.9243">
        <ele>1710</ele>
        <time>2022-01-22T08:41:48Z</time>
      </trkpt>
      <trkpt lat="45.17473" lon="5.92432">
        <ele>1710</ele>
        <time>2022-01-22T08:41:50Z</time>
      </trkpt>
      <trkpt lat="45.17472" lon="5.92435">
        <ele>1711</ele>
        <time>2022-01-22T08:41:53Z</time>
      </trkpt>
      <trkpt lat="45.1747" lon="5.92437">
        <ele>1711</ele>
        <time>2022-01-22T08:41:55Z</time>
      </trkpt>
      <trkpt lat="45.17469" lon="5.92438">
        <ele>1711</ele>
        <time>2022-01-22T08:41:57Z</time>
      </trkpt>
      <trkpt lat="45.17466" lon="5.92439">
        <ele>1712</ele>
        <time>2022-01-22T08:42:00Z</time>
      </trkpt>
      <trkpt lat="45.17464" lon="5.92438">
        <ele>1713</ele>
        <time>2022-01-22T08:42:03Z</time>
      </trkpt>
      <trkpt lat="45.17462" lon="5.92438">
        <ele>1714</ele>
        <time>2022-01-22T08:42:05Z</time>
      </trkpt>
      <trkpt lat="45.17459" lon="5.92439">
        <ele>1714</ele>
        <time>2022-01-22T08:42:07Z</time>
      </trkpt>
      <trkpt lat="45.17457" lon="5.92441">
        <ele>1714</ele>
        <time>2022-01-22T08:42:09Z</time>
      </trkpt>
      <trkpt lat="45.17454" lon="5.92441">
        <ele>1714</ele>
        <time>2022-01-22T08:42:11Z</time>
      </trkpt>
      <trkpt lat="45.17451" lon="5.92441">
        <ele>1714</ele>
        <time>2022-01-22T08:42:13Z</time>
      </trkpt>
      <trkpt lat="45.17449" lon="5.9244">
        <ele>1714</ele>
        <time>2022-01-22T08:42:16Z</time>
      </trkpt>
      <trkpt lat="45.17447" lon="5.9244">
        <ele>1714</ele>
        <time>2022-01-22T08:42:19Z</time>
      </trkpt>
      <trkpt lat="45.17445" lon="5.92441">
        <ele>1715</ele>
        <time>2022-01-22T08:42:22Z</time>
      </trkpt>
      <trkpt lat="45.17443" lon="5.92442">
        <ele>1715</ele>
        <time>2022-01-22T08:42:24Z</time>
      </trkpt>
      <trkpt lat="45.17441" lon="5.92443">
        <ele>1715</ele>
        <time>2022-01-22T08:42:26Z</time>
      </trkpt>
      <trkpt lat="45.17438" lon="5.92442">
        <ele>1715</ele>
        <time>2022-01-22T08:42:29Z</time>
      </trkpt>
      <trkpt lat="45.17437" lon="5.92441">
        <ele>1715</ele>
        <time>2022-01-22T08:42:31Z</time>
      </trkpt>
      <trkpt lat="45.17435" lon="5.9244">
        <ele>1715</ele>
        <time>2022-01-22T08:42:33Z</time>
      </trkpt>
      <trkpt lat="45.17433" lon="5.92439">
        <ele>1716</ele>
        <time>2022-01-22T08:42:35Z</time>
      </trkpt>
      <trkpt lat="45.17431" lon="5.92438">
        <ele>1716</ele>
        <time>2022-01-22T08:42:37Z</time>
      </trkpt>
      <trkpt lat="45.17429" lon="5.92437">
        <ele>1717</ele>
        <time>2022-01-22T08:42:40Z</time>
      </trkpt>
      <trkpt lat="45.17427" lon="5.92438">
        <ele>1717</ele>
        <time>2022-01-22T08:42:43Z</time>
      </trkpt>
      <trkpt lat="45.17425" lon="5.9244">
        <ele>1718</ele>
        <time>2022-01-22T08:42:45Z</time>
      </trkpt>
      <trkpt lat="45.17423" lon="5.92442">
        <ele>1718</ele>
        <time>2022-01-22T08:42:47Z</time>
      </trkpt>
      <trkpt lat="45.17422" lon="5.92444">
        <ele>1718</ele>
        <time>2022-01-22T08:42:50Z</time>
      </trkpt>
      <trkpt lat="45.1742" lon="5.92447">
        <ele>1718</ele>
        <time>2022-01-22T08:42:53Z</time>
      </trkpt>
      <trkpt lat="45.17419" lon="5.92451">
        <ele>1718</ele>
        <time>2022-01-22T08:42:56Z</time>
      </trkpt>
      <trkpt lat="45.17419" lon="5.92455">
        <ele>1718</ele>
        <time>2022-01-22T08:42:59Z</time>
      </trkpt>
      <trkpt lat="45.17419" lon="5.92458">
        <ele>1718</ele>
        <time>2022-01-22T08:43:02Z</time>
      </trkpt>
      <trkpt lat="45.17418" lon="5.92462">
        <ele>1718</ele>
        <time>2022-01-22T08:43:05Z</time>
      </trkpt>
      <trkpt lat="45.17418" lon="5.92465">
        <ele>1719</ele>
        <time>2022-01-22T08:43:08Z</time>
      </trkpt>
      <trkpt lat="45.17418" lon="5.92468">
        <ele>1720</ele>
        <time>2022-01-22T08:43:11Z</time>
      </trkpt>
      <trkpt lat="45.17418" lon="5.92471">
        <ele>1721</ele>
        <time>2022-01-22T08:43:14Z</time>
      </trkpt>
      <trkpt lat="45.17417" lon="5.92474">
        <ele>1722</ele>
        <time>2022-01-22T08:43:17Z</time>
      </trkpt>
      <trkpt lat="45.17417" lon="5.92477">
        <ele>1722</ele>
        <time>2022-01-22T08:43:20Z</time>
      </trkpt>
      <trkpt lat="45.17416" lon="5.9248">
        <ele>1722</ele>
        <time>2022-01-22T08:43:22Z</time>
      </trkpt>
      <trkpt lat="45.17416" lon="5.92482">
        <ele>1722</ele>
        <time>2022-01-22T08:43:24Z</time>
      </trkpt>
      <trkpt lat="45.17413" lon="5.92485">
        <ele>1723</ele>
        <time>2022-01-22T08:43:27Z</time>
      </trkpt>
      <trkpt lat="45.17411" lon="5.92486">
        <ele>1723</ele>
        <time>2022-01-22T08:43:30Z</time>
      </trkpt>
      <trkpt lat="45.17409" lon="5.92486">
        <ele>1723</ele>
        <time>2022-01-22T08:43:32Z</time>
      </trkpt>
      <trkpt lat="45.17407" lon="5.92486">
        <ele>1723</ele>
        <time>2022-01-22T08:43:34Z</time>
      </trkpt>
      <trkpt lat="45.17404" lon="5.92486">
        <ele>1723</ele>
        <time>2022-01-22T08:43:37Z</time>
      </trkpt>
      <trkpt lat="45.17402" lon="5.92488">
        <ele>1723</ele>
        <time>2022-01-22T08:43:40Z</time>
      </trkpt>
      <trkpt lat="45.174" lon="5.92489">
        <ele>1724</ele>
        <time>2022-01-22T08:43:42Z</time>
      </trkpt>
      <trkpt lat="45.17398" lon="5.92491">
        <ele>1725</ele>
        <time>2022-01-22T08:43:44Z</time>
      </trkpt>
      <trkpt lat="45.17396" lon="5.92494">
        <ele>1725</ele>
        <time>2022-01-22T08:43:47Z</time>
      </trkpt>
      <trkpt lat="45.17394" lon="5.92495">
        <ele>1726</ele>
        <time>2022-01-22T08:43:50Z</time>
      </trkpt>
      <trkpt lat="45.17392" lon="5.92498">
        <ele>1727</ele>
        <time>2022-01-22T08:43:53Z</time>
      </trkpt>
      <trkpt lat="45.17391" lon="5.925">
        <ele>1728</ele>
        <time>2022-01-22T08:43:56Z</time>
      </trkpt>
      <trkpt lat="45.17391" lon="5.92503">
        <ele>1728</ele>
        <time>2022-01-22T08:43:59Z</time>
      </trkpt>
      <trkpt lat="45.1739" lon="5.92507">
        <ele>1729</ele>
        <time>2022-01-22T08:44:02Z</time>
      </trkpt>
      <trkpt lat="45.17389" lon="5.9251">
        <ele>1730</ele>
        <time>2022-01-22T08:44:05Z</time>
      </trkpt>
      <trkpt lat="45.17387" lon="5.92512">
        <ele>1730</ele>
        <time>2022-01-22T08:44:08Z</time>
      </trkpt>
      <trkpt lat="45.17385" lon="5.92515">
        <ele>1731</ele>
        <time>2022-01-22T08:44:14Z</time>
      </trkpt>
      <trkpt lat="45.17383" lon="5.92517">
        <ele>1732</ele>
        <time>2022-01-22T08:44:17Z</time>
      </trkpt>
      <trkpt lat="45.17382" lon="5.92518">
        <ele>1732</ele>
        <time>2022-01-22T08:44:19Z</time>
      </trkpt>
      <trkpt lat="45.1738" lon="5.9252">
        <ele>1732</ele>
        <time>2022-01-22T08:44:21Z</time>
      </trkpt>
      <trkpt lat="45.17378" lon="5.92521">
        <ele>1733</ele>
        <time>2022-01-22T08:44:24Z</time>
      </trkpt>
      <trkpt lat="45.17376" lon="5.92523">
        <ele>1734</ele>
        <time>2022-01-22T08:44:27Z</time>
      </trkpt>
      <trkpt lat="45.17373" lon="5.92524">
        <ele>1735</ele>
        <time>2022-01-22T08:44:30Z</time>
      </trkpt>
      <trkpt lat="45.17372" lon="5.92527">
        <ele>1735</ele>
        <time>2022-01-22T08:44:35Z</time>
      </trkpt>
      <trkpt lat="45.17371" lon="5.92529">
        <ele>1735</ele>
        <time>2022-01-22T08:44:37Z</time>
      </trkpt>
      <trkpt lat="45.1737" lon="5.92532">
        <ele>1736</ele>
        <time>2022-01-22T08:44:39Z</time>
      </trkpt>
      <trkpt lat="45.17368" lon="5.92534">
        <ele>1736</ele>
        <time>2022-01-22T08:44:42Z</time>
      </trkpt>
      <trkpt lat="45.17365" lon="5.92536">
        <ele>1736</ele>
        <time>2022-01-22T08:44:45Z</time>
      </trkpt>
      <trkpt lat="45.17363" lon="5.92538">
        <ele>1736</ele>
        <time>2022-01-22T08:44:48Z</time>
      </trkpt>
      <trkpt lat="45.17361" lon="5.9254">
        <ele>1737</ele>
        <time>2022-01-22T08:44:51Z</time>
      </trkpt>
      <trkpt lat="45.1736" lon="5.92544">
        <ele>1737</ele>
        <time>2022-01-22T08:44:54Z</time>
      </trkpt>
      <trkpt lat="45.17359" lon="5.92546">
        <ele>1738</ele>
        <time>2022-01-22T08:44:56Z</time>
      </trkpt>
      <trkpt lat="45.17357" lon="5.92549">
        <ele>1738</ele>
        <time>2022-01-22T08:44:58Z</time>
      </trkpt>
      <trkpt lat="45.17356" lon="5.92552">
        <ele>1738</ele>
        <time>2022-01-22T08:45:00Z</time>
      </trkpt>
      <trkpt lat="45.17355" lon="5.92554">
        <ele>1738</ele>
        <time>2022-01-22T08:45:02Z</time>
      </trkpt>
      <trkpt lat="45.17353" lon="5.92557">
        <ele>1739</ele>
        <time>2022-01-22T08:45:05Z</time>
      </trkpt>
      <trkpt lat="45.17352" lon="5.9256">
        <ele>1740</ele>
        <time>2022-01-22T08:45:07Z</time>
      </trkpt>
      <trkpt lat="45.17351" lon="5.92562">
        <ele>1740</ele>
        <time>2022-01-22T08:45:09Z</time>
      </trkpt>
      <trkpt lat="45.17349" lon="5.92565">
        <ele>1742</ele>
        <time>2022-01-22T08:45:12Z</time>
      </trkpt>
      <trkpt lat="45.17347" lon="5.92566">
        <ele>1741</ele>
        <time>2022-01-22T08:45:14Z</time>
      </trkpt>
      <trkpt lat="45.17346" lon="5.92568">
        <ele>1741</ele>
        <time>2022-01-22T08:45:16Z</time>
      </trkpt>
      <trkpt lat="45.17345" lon="5.9257">
        <ele>1742</ele>
        <time>2022-01-22T08:45:19Z</time>
      </trkpt>
      <trkpt lat="45.17343" lon="5.92572">
        <ele>1742</ele>
        <time>2022-01-22T08:45:22Z</time>
      </trkpt>
      <trkpt lat="45.17342" lon="5.92574">
        <ele>1743</ele>
        <time>2022-01-22T08:45:25Z</time>
      </trkpt>
      <trkpt lat="45.1734" lon="5.92576">
        <ele>1743</ele>
        <time>2022-01-22T08:45:28Z</time>
      </trkpt>
      <trkpt lat="45.17339" lon="5.92578">
        <ele>1744</ele>
        <time>2022-01-22T08:45:31Z</time>
      </trkpt>
      <trkpt lat="45.17339" lon="5.92581">
        <ele>1745</ele>
        <time>2022-01-22T08:45:34Z</time>
      </trkpt>
      <trkpt lat="45.17338" lon="5.92584">
        <ele>1746</ele>
        <time>2022-01-22T08:45:36Z</time>
      </trkpt>
      <trkpt lat="45.17338" lon="5.92588">
        <ele>1746</ele>
        <time>2022-01-22T08:45:39Z</time>
      </trkpt>
      <trkpt lat="45.17338" lon="5.92592">
        <ele>1746</ele>
        <time>2022-01-22T08:45:42Z</time>
      </trkpt>
      <trkpt lat="45.17338" lon="5.92596">
        <ele>1747</ele>
        <time>2022-01-22T08:45:45Z</time>
      </trkpt>
      <trkpt lat="45.17338" lon="5.92599">
        <ele>1748</ele>
        <time>2022-01-22T08:45:48Z</time>
      </trkpt>
      <trkpt lat="45.17338" lon="5.92603">
        <ele>1748</ele>
        <time>2022-01-22T08:45:51Z</time>
      </trkpt>
      <trkpt lat="45.17338" lon="5.92606">
        <ele>1749</ele>
        <time>2022-01-22T08:45:54Z</time>
      </trkpt>
      <trkpt lat="45.17339" lon="5.92608">
        <ele>1750</ele>
        <time>2022-01-22T08:45:57Z</time>
      </trkpt>
      <trkpt lat="45.17342" lon="5.92609">
        <ele>1750</ele>
        <time>2022-01-22T08:46:00Z</time>
      </trkpt>
      <trkpt lat="45.17343" lon="5.92611">
        <ele>1750</ele>
        <time>2022-01-22T08:46:03Z</time>
      </trkpt>
      <trkpt lat="45.17344" lon="5.92614">
        <ele>1751</ele>
        <time>2022-01-22T08:46:06Z</time>
      </trkpt>
      <trkpt lat="45.17344" lon="5.92618">
        <ele>1752</ele>
        <time>2022-01-22T08:46:09Z</time>
      </trkpt>
      <trkpt lat="45.17343" lon="5.9262">
        <ele>1752</ele>
        <time>2022-01-22T08:46:12Z</time>
      </trkpt>
      <trkpt lat="45.17342" lon="5.92623">
        <ele>1752</ele>
        <time>2022-01-22T08:46:15Z</time>
      </trkpt>
      <trkpt lat="45.17341" lon="5.92625">
        <ele>1754</ele>
        <time>2022-01-22T08:46:18Z</time>
      </trkpt>
      <trkpt lat="45.1734" lon="5.92627">
        <ele>1754</ele>
        <time>2022-01-22T08:46:21Z</time>
      </trkpt>
      <trkpt lat="45.17338" lon="5.9263">
        <ele>1755</ele>
        <time>2022-01-22T08:46:24Z</time>
      </trkpt>
      <trkpt lat="45.17337" lon="5.92632">
        <ele>1756</ele>
        <time>2022-01-22T08:46:27Z</time>
      </trkpt>
      <trkpt lat="45.17336" lon="5.92635">
        <ele>1757</ele>
        <time>2022-01-22T08:46:30Z</time>
      </trkpt>
      <trkpt lat="45.17334" lon="5.92637">
        <ele>1757</ele>
        <time>2022-01-22T08:46:33Z</time>
      </trkpt>
      <trkpt lat="45.17333" lon="5.92639">
        <ele>1758</ele>
        <time>2022-01-22T08:46:36Z</time>
      </trkpt>
      <trkpt lat="45.17332" lon="5.92641">
        <ele>1758</ele>
        <time>2022-01-22T08:46:39Z</time>
      </trkpt>
      <trkpt lat="45.1733" lon="5.92644">
        <ele>1760</ele>
        <time>2022-01-22T08:46:43Z</time>
      </trkpt>
      <trkpt lat="45.17328" lon="5.92646">
        <ele>1761</ele>
        <time>2022-01-22T08:46:46Z</time>
      </trkpt>
      <trkpt lat="45.17326" lon="5.92648">
        <ele>1761</ele>
        <time>2022-01-22T08:46:49Z</time>
      </trkpt>
      <trkpt lat="45.17325" lon="5.9265">
        <ele>1761</ele>
        <time>2022-01-22T08:46:52Z</time>
      </trkpt>
      <trkpt lat="45.17323" lon="5.92652">
        <ele>1762</ele>
        <time>2022-01-22T08:46:55Z</time>
      </trkpt>
      <trkpt lat="45.17322" lon="5.92654">
        <ele>1762</ele>
        <time>2022-01-22T08:46:58Z</time>
      </trkpt>
      <trkpt lat="45.1732" lon="5.92656">
        <ele>1763</ele>
        <time>2022-01-22T08:47:02Z</time>
      </trkpt>
      <trkpt lat="45.17319" lon="5.92657">
        <ele>1764</ele>
        <time>2022-01-22T08:47:05Z</time>
      </trkpt>
      <trkpt lat="45.17317" lon="5.9266">
        <ele>1764</ele>
        <time>2022-01-22T08:47:09Z</time>
      </trkpt>
      <trkpt lat="45.17316" lon="5.92661">
        <ele>1765</ele>
        <time>2022-01-22T08:47:12Z</time>
      </trkpt>
      <trkpt lat="45.17314" lon="5.92663">
        <ele>1766</ele>
        <time>2022-01-22T08:47:16Z</time>
      </trkpt>
      <trkpt lat="45.17313" lon="5.92666">
        <ele>1767</ele>
        <time>2022-01-22T08:47:20Z</time>
      </trkpt>
      <trkpt lat="45.17312" lon="5.92668">
        <ele>1768</ele>
        <time>2022-01-22T08:47:24Z</time>
      </trkpt>
      <trkpt lat="45.1731" lon="5.9267">
        <ele>1768</ele>
        <time>2022-01-22T08:47:27Z</time>
      </trkpt>
      <trkpt lat="45.17309" lon="5.92672">
        <ele>1768</ele>
        <time>2022-01-22T08:47:31Z</time>
      </trkpt>
      <trkpt lat="45.17311" lon="5.92672">
        <ele>1769</ele>
        <time>2022-01-22T08:47:48Z</time>
      </trkpt>
      <trkpt lat="45.17313" lon="5.92672">
        <ele>1770</ele>
        <time>2022-01-22T08:47:51Z</time>
      </trkpt>
      <trkpt lat="45.17316" lon="5.92672">
        <ele>1770</ele>
        <time>2022-01-22T08:47:54Z</time>
      </trkpt>
      <trkpt lat="45.17318" lon="5.92673">
        <ele>1771</ele>
        <time>2022-01-22T08:47:57Z</time>
      </trkpt>
      <trkpt lat="45.1732" lon="5.92674">
        <ele>1772</ele>
        <time>2022-01-22T08:48:00Z</time>
      </trkpt>
      <trkpt lat="45.17322" lon="5.92675">
        <ele>1773</ele>
        <time>2022-01-22T08:48:03Z</time>
      </trkpt>
      <trkpt lat="45.17324" lon="5.92676">
        <ele>1773</ele>
        <time>2022-01-22T08:48:06Z</time>
      </trkpt>
      <trkpt lat="45.17326" lon="5.92677">
        <ele>1774</ele>
        <time>2022-01-22T08:48:09Z</time>
      </trkpt>
      <trkpt lat="45.17324" lon="5.92679">
        <ele>1775</ele>
        <time>2022-01-22T08:48:14Z</time>
      </trkpt>
      <trkpt lat="45.17322" lon="5.92681">
        <ele>1776</ele>
        <time>2022-01-22T08:48:17Z</time>
      </trkpt>
      <trkpt lat="45.1732" lon="5.92684">
        <ele>1776</ele>
        <time>2022-01-22T08:48:20Z</time>
      </trkpt>
      <trkpt lat="45.17318" lon="5.92686">
        <ele>1776</ele>
        <time>2022-01-22T08:48:23Z</time>
      </trkpt>
      <trkpt lat="45.17317" lon="5.92688">
        <ele>1776</ele>
        <time>2022-01-22T08:48:26Z</time>
      </trkpt>
      <trkpt lat="45.17315" lon="5.92689">
        <ele>1777</ele>
        <time>2022-01-22T08:48:30Z</time>
      </trkpt>
      <trkpt lat="45.17312" lon="5.92691">
        <ele>1777</ele>
        <time>2022-01-22T08:48:33Z</time>
      </trkpt>
      <trkpt lat="45.17311" lon="5.92692">
        <ele>1778</ele>
        <time>2022-01-22T08:48:36Z</time>
      </trkpt>
      <trkpt lat="45.17309" lon="5.92694">
        <ele>1779</ele>
        <time>2022-01-22T08:48:44Z</time>
      </trkpt>
      <trkpt lat="45.17308" lon="5.92696">
        <ele>1781</ele>
        <time>2022-01-22T08:48:47Z</time>
      </trkpt>
      <trkpt lat="45.1731" lon="5.92697">
        <ele>1781</ele>
        <time>2022-01-22T08:48:57Z</time>
      </trkpt>
      <trkpt lat="45.17313" lon="5.92697">
        <ele>1781</ele>
        <time>2022-01-22T08:49:00Z</time>
      </trkpt>
      <trkpt lat="45.17315" lon="5.92698">
        <ele>1782</ele>
        <time>2022-01-22T08:49:03Z</time>
      </trkpt>
      <trkpt lat="45.17317" lon="5.92698">
        <ele>1783</ele>
        <time>2022-01-22T08:49:06Z</time>
      </trkpt>
      <trkpt lat="45.1732" lon="5.92698">
        <ele>1784</ele>
        <time>2022-01-22T08:49:09Z</time>
      </trkpt>
      <trkpt lat="45.17322" lon="5.92697">
        <ele>1784</ele>
        <time>2022-01-22T08:49:11Z</time>
      </trkpt>
      <trkpt lat="45.17324" lon="5.92697">
        <ele>1785</ele>
        <time>2022-01-22T08:49:14Z</time>
      </trkpt>
      <trkpt lat="45.17326" lon="5.92697">
        <ele>1786</ele>
        <time>2022-01-22T08:49:18Z</time>
      </trkpt>
      <trkpt lat="45.17328" lon="5.92699">
        <ele>1787</ele>
        <time>2022-01-22T08:49:21Z</time>
      </trkpt>
      <trkpt lat="45.17328" lon="5.92702">
        <ele>1787</ele>
        <time>2022-01-22T08:49:23Z</time>
      </trkpt>
      <trkpt lat="45.17328" lon="5.92705">
        <ele>1787</ele>
        <time>2022-01-22T08:49:26Z</time>
      </trkpt>
      <trkpt lat="45.17327" lon="5.92709">
        <ele>1787</ele>
        <time>2022-01-22T08:49:29Z</time>
      </trkpt>
      <trkpt lat="45.17325" lon="5.92711">
        <ele>1787</ele>
        <time>2022-01-22T08:49:32Z</time>
      </trkpt>
      <trkpt lat="45.17323" lon="5.92713">
        <ele>1788</ele>
        <time>2022-01-22T08:49:35Z</time>
      </trkpt>
      <trkpt lat="45.17322" lon="5.92714">
        <ele>1788</ele>
        <time>2022-01-22T08:49:38Z</time>
      </trkpt>
      <trkpt lat="45.1732" lon="5.92717">
        <ele>1788</ele>
        <time>2022-01-22T08:49:41Z</time>
      </trkpt>
      <trkpt lat="45.17319" lon="5.9272">
        <ele>1788</ele>
        <time>2022-01-22T08:49:44Z</time>
      </trkpt>
      <trkpt lat="45.17318" lon="5.92723">
        <ele>1789</ele>
        <time>2022-01-22T08:49:47Z</time>
      </trkpt>
      <trkpt lat="45.17317" lon="5.92726">
        <ele>1790</ele>
        <time>2022-01-22T08:49:49Z</time>
      </trkpt>
      <trkpt lat="45.17317" lon="5.92729">
        <ele>1791</ele>
        <time>2022-01-22T08:49:52Z</time>
      </trkpt>
      <trkpt lat="45.17317" lon="5.92733">
        <ele>1791</ele>
        <time>2022-01-22T08:49:55Z</time>
      </trkpt>
      <trkpt lat="45.17317" lon="5.92736">
        <ele>1792</ele>
        <time>2022-01-22T08:49:57Z</time>
      </trkpt>
      <trkpt lat="45.17317" lon="5.9274">
        <ele>1792</ele>
        <time>2022-01-22T08:50:00Z</time>
      </trkpt>
      <trkpt lat="45.17318" lon="5.92743">
        <ele>1793</ele>
        <time>2022-01-22T08:50:03Z</time>
      </trkpt>
      <trkpt lat="45.17317" lon="5.92747">
        <ele>1793</ele>
        <time>2022-01-22T08:50:06Z</time>
      </trkpt>
      <trkpt lat="45.17317" lon="5.9275">
        <ele>1794</ele>
        <time>2022-01-22T08:50:09Z</time>
      </trkpt>
      <trkpt lat="45.17316" lon="5.92754">
        <ele>1794</ele>
        <time>2022-01-22T08:50:12Z</time>
      </trkpt>
      <trkpt lat="45.17314" lon="5.92756">
        <ele>1795</ele>
        <time>2022-01-22T08:50:15Z</time>
      </trkpt>
      <trkpt lat="45.17313" lon="5.92759">
        <ele>1796</ele>
        <time>2022-01-22T08:50:18Z</time>
      </trkpt>
      <trkpt lat="45.17313" lon="5.92762">
        <ele>1797</ele>
        <time>2022-01-22T08:50:21Z</time>
      </trkpt>
      <trkpt lat="45.17313" lon="5.92765">
        <ele>1797</ele>
        <time>2022-01-22T08:50:24Z</time>
      </trkpt>
      <trkpt lat="45.17313" lon="5.92768">
        <ele>1797</ele>
        <time>2022-01-22T08:50:27Z</time>
      </trkpt>
      <trkpt lat="45.17312" lon="5.92772">
        <ele>1797</ele>
        <time>2022-01-22T08:50:30Z</time>
      </trkpt>
      <trkpt lat="45.17312" lon="5.92775">
        <ele>1797</ele>
        <time>2022-01-22T08:50:33Z</time>
      </trkpt>
      <trkpt lat="45.17311" lon="5.92778">
        <ele>1798</ele>
        <time>2022-01-22T08:50:36Z</time>
      </trkpt>
      <trkpt lat="45.1731" lon="5.92781">
        <ele>1798</ele>
        <time>2022-01-22T08:50:39Z</time>
      </trkpt>
      <trkpt lat="45.17309" lon="5.92784">
        <ele>1799</ele>
        <time>2022-01-22T08:50:42Z</time>
      </trkpt>
      <trkpt lat="45.17309" lon="5.92787">
        <ele>1799</ele>
        <time>2022-01-22T08:50:45Z</time>
      </trkpt>
      <trkpt lat="45.17309" lon="5.92791">
        <ele>1800</ele>
        <time>2022-01-22T08:50:48Z</time>
      </trkpt>
      <trkpt lat="45.17309" lon="5.92795">
        <ele>1800</ele>
        <time>2022-01-22T08:50:51Z</time>
      </trkpt>
      <trkpt lat="45.17309" lon="5.92798">
        <ele>1800</ele>
        <time>2022-01-22T08:50:54Z</time>
      </trkpt>
      <trkpt lat="45.1731" lon="5.92801">
        <ele>1801</ele>
        <time>2022-01-22T08:50:57Z</time>
      </trkpt>
      <trkpt lat="45.17311" lon="5.92805">
        <ele>1801</ele>
        <time>2022-01-22T08:51:00Z</time>
      </trkpt>
      <trkpt lat="45.17312" lon="5.92808">
        <ele>1802</ele>
        <time>2022-01-22T08:51:03Z</time>
      </trkpt>
      <trkpt lat="45.17313" lon="5.92811">
        <ele>1802</ele>
        <time>2022-01-22T08:51:06Z</time>
      </trkpt>
      <trkpt lat="45.17314" lon="5.92814">
        <ele>1803</ele>
        <time>2022-01-22T08:51:09Z</time>
      </trkpt>
      <trkpt lat="45.17316" lon="5.92816">
        <ele>1804</ele>
        <time>2022-01-22T08:51:13Z</time>
      </trkpt>
      <trkpt lat="45.17318" lon="5.92817">
        <ele>1804</ele>
        <time>2022-01-22T08:51:16Z</time>
      </trkpt>
      <trkpt lat="45.1732" lon="5.92818">
        <ele>1804</ele>
        <time>2022-01-22T08:51:19Z</time>
      </trkpt>
      <trkpt lat="45.17322" lon="5.92818">
        <ele>1804</ele>
        <time>2022-01-22T08:51:21Z</time>
      </trkpt>
      <trkpt lat="45.17324" lon="5.9282">
        <ele>1804</ele>
        <time>2022-01-22T08:51:24Z</time>
      </trkpt>
      <trkpt lat="45.17326" lon="5.92822">
        <ele>1804</ele>
        <time>2022-01-22T08:51:27Z</time>
      </trkpt>
      <trkpt lat="45.17328" lon="5.92823">
        <ele>1805</ele>
        <time>2022-01-22T08:51:29Z</time>
      </trkpt>
      <trkpt lat="45.1733" lon="5.92826">
        <ele>1805</ele>
        <time>2022-01-22T08:51:32Z</time>
      </trkpt>
      <trkpt lat="45.17332" lon="5.92828">
        <ele>1805</ele>
        <time>2022-01-22T08:51:35Z</time>
      </trkpt>
      <trkpt lat="45.17333" lon="5.9283">
        <ele>1805</ele>
        <time>2022-01-22T08:51:38Z</time>
      </trkpt>
      <trkpt lat="45.17335" lon="5.92833">
        <ele>1807</ele>
        <time>2022-01-22T08:51:41Z</time>
      </trkpt>
      <trkpt lat="45.17336" lon="5.92835">
        <ele>1808</ele>
        <time>2022-01-22T08:51:45Z</time>
      </trkpt>
      <trkpt lat="45.17338" lon="5.92837">
        <ele>1808</ele>
        <time>2022-01-22T08:51:47Z</time>
      </trkpt>
      <trkpt lat="45.17339" lon="5.92839">
        <ele>1808</ele>
        <time>2022-01-22T08:51:50Z</time>
      </trkpt>
      <trkpt lat="45.17341" lon="5.92842">
        <ele>1809</ele>
        <time>2022-01-22T08:51:53Z</time>
      </trkpt>
      <trkpt lat="45.17344" lon="5.92843">
        <ele>1810</ele>
        <time>2022-01-22T08:51:56Z</time>
      </trkpt>
      <trkpt lat="45.17345" lon="5.92844">
        <ele>1810</ele>
        <time>2022-01-22T08:51:58Z</time>
      </trkpt>
      <trkpt lat="45.17347" lon="5.92846">
        <ele>1810</ele>
        <time>2022-01-22T08:52:00Z</time>
      </trkpt>
      <trkpt lat="45.17349" lon="5.92847">
        <ele>1810</ele>
        <time>2022-01-22T08:52:02Z</time>
      </trkpt>
      <trkpt lat="45.17351" lon="5.92848">
        <ele>1811</ele>
        <time>2022-01-22T08:52:04Z</time>
      </trkpt>
      <trkpt lat="45.17353" lon="5.92849">
        <ele>1811</ele>
        <time>2022-01-22T08:52:06Z</time>
      </trkpt>
      <trkpt lat="45.17355" lon="5.9285">
        <ele>1811</ele>
        <time>2022-01-22T08:52:08Z</time>
      </trkpt>
      <trkpt lat="45.17357" lon="5.92851">
        <ele>1811</ele>
        <time>2022-01-22T08:52:10Z</time>
      </trkpt>
      <trkpt lat="45.17359" lon="5.92852">
        <ele>1811</ele>
        <time>2022-01-22T08:52:13Z</time>
      </trkpt>
      <trkpt lat="45.17361" lon="5.92853">
        <ele>1811</ele>
        <time>2022-01-22T08:52:16Z</time>
      </trkpt>
      <trkpt lat="45.17363" lon="5.92855">
        <ele>1812</ele>
        <time>2022-01-22T08:52:19Z</time>
      </trkpt>
      <trkpt lat="45.17365" lon="5.92855">
        <ele>1813</ele>
        <time>2022-01-22T08:52:22Z</time>
      </trkpt>
      <trkpt lat="45.17367" lon="5.92858">
        <ele>1814</ele>
        <time>2022-01-22T08:52:25Z</time>
      </trkpt>
      <trkpt lat="45.17367" lon="5.92861">
        <ele>1814</ele>
        <time>2022-01-22T08:52:28Z</time>
      </trkpt>
      <trkpt lat="45.17368" lon="5.92864">
        <ele>1815</ele>
        <time>2022-01-22T08:52:32Z</time>
      </trkpt>
      <trkpt lat="45.17369" lon="5.92866">
        <ele>1816</ele>
        <time>2022-01-22T08:52:36Z</time>
      </trkpt>
      <trkpt lat="45.1737" lon="5.92868">
        <ele>1816</ele>
        <time>2022-01-22T08:52:38Z</time>
      </trkpt>
      <trkpt lat="45.17371" lon="5.9287">
        <ele>1816</ele>
        <time>2022-01-22T08:52:40Z</time>
      </trkpt>
      <trkpt lat="45.17372" lon="5.92873">
        <ele>1817</ele>
        <time>2022-01-22T08:52:43Z</time>
      </trkpt>
      <trkpt lat="45.17373" lon="5.92876">
        <ele>1818</ele>
        <time>2022-01-22T08:52:46Z</time>
      </trkpt>
      <trkpt lat="45.17374" lon="5.92879">
        <ele>1819</ele>
        <time>2022-01-22T08:52:49Z</time>
      </trkpt>
      <trkpt lat="45.17374" lon="5.92882">
        <ele>1820</ele>
        <time>2022-01-22T08:52:54Z</time>
      </trkpt>
      <trkpt lat="45.17375" lon="5.92885">
        <ele>1820</ele>
        <time>2022-01-22T08:52:57Z</time>
      </trkpt>
      <trkpt lat="45.17376" lon="5.92888">
        <ele>1821</ele>
        <time>2022-01-22T08:53:00Z</time>
      </trkpt>
      <trkpt lat="45.17377" lon="5.9289">
        <ele>1821</ele>
        <time>2022-01-22T08:53:03Z</time>
      </trkpt>
      <trkpt lat="45.17378" lon="5.92893">
        <ele>1822</ele>
        <time>2022-01-22T08:53:06Z</time>
      </trkpt>
      <trkpt lat="45.17379" lon="5.92895">
        <ele>1822</ele>
        <time>2022-01-22T08:53:09Z</time>
      </trkpt>
      <trkpt lat="45.1738" lon="5.92897">
        <ele>1822</ele>
        <time>2022-01-22T08:53:12Z</time>
      </trkpt>
      <trkpt lat="45.17382" lon="5.929">
        <ele>1824</ele>
        <time>2022-01-22T08:53:15Z</time>
      </trkpt>
      <trkpt lat="45.17383" lon="5.92903">
        <ele>1825</ele>
        <time>2022-01-22T08:53:18Z</time>
      </trkpt>
      <trkpt lat="45.17383" lon="5.92906">
        <ele>1825</ele>
        <time>2022-01-22T08:53:21Z</time>
      </trkpt>
      <trkpt lat="45.17384" lon="5.92909">
        <ele>1826</ele>
        <time>2022-01-22T08:53:24Z</time>
      </trkpt>
      <trkpt lat="45.17385" lon="5.92911">
        <ele>1826</ele>
        <time>2022-01-22T08:53:27Z</time>
      </trkpt>
      <trkpt lat="45.17385" lon="5.92915">
        <ele>1827</ele>
        <time>2022-01-22T08:53:31Z</time>
      </trkpt>
      <trkpt lat="45.17387" lon="5.92917">
        <ele>1828</ele>
        <time>2022-01-22T08:53:35Z</time>
      </trkpt>
      <trkpt lat="45.17387" lon="5.9292">
        <ele>1828</ele>
        <time>2022-01-22T08:53:39Z</time>
      </trkpt>
      <trkpt lat="45.17388" lon="5.92923">
        <ele>1829</ele>
        <time>2022-01-22T08:53:42Z</time>
      </trkpt>
      <trkpt lat="45.17389" lon="5.92926">
        <ele>1830</ele>
        <time>2022-01-22T08:53:45Z</time>
      </trkpt>
      <trkpt lat="45.1739" lon="5.92929">
        <ele>1831</ele>
        <time>2022-01-22T08:53:48Z</time>
      </trkpt>
      <trkpt lat="45.17391" lon="5.92931">
        <ele>1831</ele>
        <time>2022-01-22T08:53:51Z</time>
      </trkpt>
      <trkpt lat="45.17392" lon="5.92933">
        <ele>1831</ele>
        <time>2022-01-22T08:53:54Z</time>
      </trkpt>
      <trkpt lat="45.17393" lon="5.92936">
        <ele>1832</ele>
        <time>2022-01-22T08:53:57Z</time>
      </trkpt>
      <trkpt lat="45.17393" lon="5.92939">
        <ele>1832</ele>
        <time>2022-01-22T08:54:00Z</time>
      </trkpt>
      <trkpt lat="45.17394" lon="5.92941">
        <ele>1832</ele>
        <time>2022-01-22T08:54:03Z</time>
      </trkpt>
      <trkpt lat="45.17395" lon="5.92943">
        <ele>1832</ele>
        <time>2022-01-22T08:54:06Z</time>
      </trkpt>
      <trkpt lat="45.17396" lon="5.92946">
        <ele>1833</ele>
        <time>2022-01-22T08:54:10Z</time>
      </trkpt>
      <trkpt lat="45.17397" lon="5.92948">
        <ele>1834</ele>
        <time>2022-01-22T08:54:14Z</time>
      </trkpt>
      <trkpt lat="45.17399" lon="5.92951">
        <ele>1835</ele>
        <time>2022-01-22T08:54:17Z</time>
      </trkpt>
      <trkpt lat="45.174" lon="5.92953">
        <ele>1836</ele>
        <time>2022-01-22T08:54:20Z</time>
      </trkpt>
      <trkpt lat="45.17401" lon="5.92956">
        <ele>1837</ele>
        <time>2022-01-22T08:54:24Z</time>
      </trkpt>
      <trkpt lat="45.17401" lon="5.92959">
        <ele>1837</ele>
        <time>2022-01-22T08:54:27Z</time>
      </trkpt>
      <trkpt lat="45.17402" lon="5.92961">
        <ele>1838</ele>
        <time>2022-01-22T08:54:30Z</time>
      </trkpt>
      <trkpt lat="45.17403" lon="5.92964">
        <ele>1839</ele>
        <time>2022-01-22T08:54:33Z</time>
      </trkpt>
      <trkpt lat="45.17402" lon="5.92967">
        <ele>1839</ele>
        <time>2022-01-22T08:54:37Z</time>
      </trkpt>
      <trkpt lat="45.17401" lon="5.9297">
        <ele>1840</ele>
        <time>2022-01-22T08:54:40Z</time>
      </trkpt>
      <trkpt lat="45.174" lon="5.92972">
        <ele>1841</ele>
        <time>2022-01-22T08:54:44Z</time>
      </trkpt>
      <trkpt lat="45.17402" lon="5.92974">
        <ele>1841</ele>
        <time>2022-01-22T08:54:48Z</time>
      </trkpt>
      <trkpt lat="45.17404" lon="5.92976">
        <ele>1841</ele>
        <time>2022-01-22T08:54:51Z</time>
      </trkpt>
      <trkpt lat="45.17405" lon="5.92977">
        <ele>1842</ele>
        <time>2022-01-22T08:54:54Z</time>
      </trkpt>
      <trkpt lat="45.17407" lon="5.92978">
        <ele>1843</ele>
        <time>2022-01-22T08:54:57Z</time>
      </trkpt>
      <trkpt lat="45.17409" lon="5.92978">
        <ele>1844</ele>
        <time>2022-01-22T08:55:03Z</time>
      </trkpt>
      <trkpt lat="45.17411" lon="5.92978">
        <ele>1845</ele>
        <time>2022-01-22T08:55:06Z</time>
      </trkpt>
      <trkpt lat="45.17413" lon="5.92979">
        <ele>1846</ele>
        <time>2022-01-22T08:55:09Z</time>
      </trkpt>
      <trkpt lat="45.17415" lon="5.92982">
        <ele>1847</ele>
        <time>2022-01-22T08:55:13Z</time>
      </trkpt>
      <trkpt lat="45.17416" lon="5.92984">
        <ele>1847</ele>
        <time>2022-01-22T08:55:16Z</time>
      </trkpt>
      <trkpt lat="45.17417" lon="5.92987">
        <ele>1847</ele>
        <time>2022-01-22T08:55:19Z</time>
      </trkpt>
      <trkpt lat="45.17417" lon="5.92991">
        <ele>1849</ele>
        <time>2022-01-22T08:55:23Z</time>
      </trkpt>
      <trkpt lat="45.17417" lon="5.92994">
        <ele>1850</ele>
        <time>2022-01-22T08:55:26Z</time>
      </trkpt>
      <trkpt lat="45.17418" lon="5.92997">
        <ele>1850</ele>
        <time>2022-01-22T08:55:29Z</time>
      </trkpt>
      <trkpt lat="45.17418" lon="5.92999">
        <ele>1852</ele>
        <time>2022-01-22T08:55:32Z</time>
      </trkpt>
      <trkpt lat="45.1742" lon="5.93001">
        <ele>1852</ele>
        <time>2022-01-22T08:55:35Z</time>
      </trkpt>
      <trkpt lat="45.1742" lon="5.93004">
        <ele>1852</ele>
        <time>2022-01-22T08:55:37Z</time>
      </trkpt>
      <trkpt lat="45.1742" lon="5.93007">
        <ele>1853</ele>
        <time>2022-01-22T08:55:40Z</time>
      </trkpt>
      <trkpt lat="45.17421" lon="5.93011">
        <ele>1853</ele>
        <time>2022-01-22T08:55:43Z</time>
      </trkpt>
      <trkpt lat="45.17422" lon="5.93014">
        <ele>1853</ele>
        <time>2022-01-22T08:55:46Z</time>
      </trkpt>
      <trkpt lat="45.17422" lon="5.93016">
        <ele>1853</ele>
        <time>2022-01-22T08:55:48Z</time>
      </trkpt>
      <trkpt lat="45.17423" lon="5.93019">
        <ele>1854</ele>
        <time>2022-01-22T08:55:51Z</time>
      </trkpt>
      <trkpt lat="45.17423" lon="5.93024">
        <ele>1855</ele>
        <time>2022-01-22T08:55:54Z</time>
      </trkpt>
      <trkpt lat="45.17424" lon="5.93027">
        <ele>1855</ele>
        <time>2022-01-22T08:55:56Z</time>
      </trkpt>
      <trkpt lat="45.17424" lon="5.9303">
        <ele>1855</ele>
        <time>2022-01-22T08:55:59Z</time>
      </trkpt>
      <trkpt lat="45.17425" lon="5.93033">
        <ele>1856</ele>
        <time>2022-01-22T08:56:03Z</time>
      </trkpt>
      <trkpt lat="45.17426" lon="5.93036">
        <ele>1856</ele>
        <time>2022-01-22T08:56:06Z</time>
      </trkpt>
      <trkpt lat="45.17427" lon="5.93039">
        <ele>1856</ele>
        <time>2022-01-22T08:56:08Z</time>
      </trkpt>
      <trkpt lat="45.17428" lon="5.93043">
        <ele>1856</ele>
        <time>2022-01-22T08:56:11Z</time>
      </trkpt>
      <trkpt lat="45.17428" lon="5.93046">
        <ele>1857</ele>
        <time>2022-01-22T08:56:14Z</time>
      </trkpt>
      <trkpt lat="45.17428" lon="5.93049">
        <ele>1857</ele>
        <time>2022-01-22T08:56:17Z</time>
      </trkpt>
      <trkpt lat="45.17428" lon="5.93053">
        <ele>1858</ele>
        <time>2022-01-22T08:56:20Z</time>
      </trkpt>
      <trkpt lat="45.17427" lon="5.93056">
        <ele>1858</ele>
        <time>2022-01-22T08:56:23Z</time>
      </trkpt>
      <trkpt lat="45.17427" lon="5.93059">
        <ele>1859</ele>
        <time>2022-01-22T08:56:25Z</time>
      </trkpt>
      <trkpt lat="45.17427" lon="5.93062">
        <ele>1859</ele>
        <time>2022-01-22T08:56:27Z</time>
      </trkpt>
      <trkpt lat="45.17427" lon="5.93065">
        <ele>1859</ele>
        <time>2022-01-22T08:56:30Z</time>
      </trkpt>
      <trkpt lat="45.17428" lon="5.93067">
        <ele>1860</ele>
        <time>2022-01-22T08:56:33Z</time>
      </trkpt>
      <trkpt lat="45.17427" lon="5.9307">
        <ele>1861</ele>
        <time>2022-01-22T08:56:39Z</time>
      </trkpt>
      <trkpt lat="45.17427" lon="5.93073">
        <ele>1861</ele>
        <time>2022-01-22T08:56:42Z</time>
      </trkpt>
      <trkpt lat="45.17426" lon="5.93076">
        <ele>1861</ele>
        <time>2022-01-22T08:56:45Z</time>
      </trkpt>
      <trkpt lat="45.17426" lon="5.93078">
        <ele>1861</ele>
        <time>2022-01-22T08:56:48Z</time>
      </trkpt>
      <trkpt lat="45.17426" lon="5.93081">
        <ele>1861</ele>
        <time>2022-01-22T08:56:52Z</time>
      </trkpt>
      <trkpt lat="45.17426" lon="5.93084">
        <ele>1863</ele>
        <time>2022-01-22T08:56:56Z</time>
      </trkpt>
      <trkpt lat="45.17425" lon="5.93087">
        <ele>1863</ele>
        <time>2022-01-22T08:57:00Z</time>
      </trkpt>
      <trkpt lat="45.17426" lon="5.9309">
        <ele>1863</ele>
        <time>2022-01-22T08:57:03Z</time>
      </trkpt>
      <trkpt lat="45.17427" lon="5.93092">
        <ele>1864</ele>
        <time>2022-01-22T08:57:07Z</time>
      </trkpt>
      <trkpt lat="45.17429" lon="5.93093">
        <ele>1864</ele>
        <time>2022-01-22T08:57:11Z</time>
      </trkpt>
      <trkpt lat="45.1743" lon="5.93093">
        <ele>1866</ele>
        <time>2022-01-22T08:57:19Z</time>
      </trkpt>
      <trkpt lat="45.17429" lon="5.93095">
        <ele>1867</ele>
        <time>2022-01-22T08:57:36Z</time>
      </trkpt>
      <trkpt lat="45.17427" lon="5.93096">
        <ele>1868</ele>
        <time>2022-01-22T08:57:41Z</time>
      </trkpt>
      <trkpt lat="45.17427" lon="5.931">
        <ele>1869</ele>
        <time>2022-01-22T08:57:52Z</time>
      </trkpt>
      <trkpt lat="45.17427" lon="5.93102">
        <ele>1869</ele>
        <time>2022-01-22T08:57:54Z</time>
      </trkpt>
      <trkpt lat="45.17426" lon="5.93105">
        <ele>1870</ele>
        <time>2022-01-22T08:57:56Z</time>
      </trkpt>
      <trkpt lat="45.17423" lon="5.93107">
        <ele>1871</ele>
        <time>2022-01-22T08:57:59Z</time>
      </trkpt>
      <trkpt lat="45.17422" lon="5.93109">
        <ele>1871</ele>
        <time>2022-01-22T08:58:04Z</time>
      </trkpt>
      <trkpt lat="45.17422" lon="5.93112">
        <ele>1872</ele>
        <time>2022-01-22T08:58:07Z</time>
      </trkpt>
      <trkpt lat="45.17423" lon="5.93114">
        <ele>1872</ele>
        <time>2022-01-22T08:58:10Z</time>
      </trkpt>
      <trkpt lat="45.17424" lon="5.93117">
        <ele>1873</ele>
        <time>2022-01-22T08:58:14Z</time>
      </trkpt>
      <trkpt lat="45.17425" lon="5.93119">
        <ele>1873</ele>
        <time>2022-01-22T08:58:17Z</time>
      </trkpt>
      <trkpt lat="45.17424" lon="5.93123">
        <ele>1873</ele>
        <time>2022-01-22T08:58:20Z</time>
      </trkpt>
      <trkpt lat="45.17423" lon="5.93126">
        <ele>1873</ele>
        <time>2022-01-22T08:58:23Z</time>
      </trkpt>
      <trkpt lat="45.17423" lon="5.93129">
        <ele>1874</ele>
        <time>2022-01-22T08:58:26Z</time>
      </trkpt>
      <trkpt lat="45.17422" lon="5.93132">
        <ele>1875</ele>
        <time>2022-01-22T08:58:29Z</time>
      </trkpt>
      <trkpt lat="45.17421" lon="5.93135">
        <ele>1876</ele>
        <time>2022-01-22T08:58:32Z</time>
      </trkpt>
      <trkpt lat="45.17421" lon="5.93138">
        <ele>1876</ele>
        <time>2022-01-22T08:58:35Z</time>
      </trkpt>
      <trkpt lat="45.17421" lon="5.9314">
        <ele>1877</ele>
        <time>2022-01-22T08:58:41Z</time>
      </trkpt>
      <trkpt lat="45.17419" lon="5.93143">
        <ele>1878</ele>
        <time>2022-01-22T08:58:54Z</time>
      </trkpt>
      <trkpt lat="45.17419" lon="5.93146">
        <ele>1879</ele>
        <time>2022-01-22T08:58:59Z</time>
      </trkpt>
      <trkpt lat="45.17419" lon="5.93149">
        <ele>1880</ele>
        <time>2022-01-22T08:59:03Z</time>
      </trkpt>
      <trkpt lat="45.17419" lon="5.93152">
        <ele>1881</ele>
        <time>2022-01-22T08:59:06Z</time>
      </trkpt>
      <trkpt lat="45.17417" lon="5.93154">
        <ele>1882</ele>
        <time>2022-01-22T08:59:09Z</time>
      </trkpt>
      <trkpt lat="45.17417" lon="5.93157">
        <ele>1883</ele>
        <time>2022-01-22T08:59:13Z</time>
      </trkpt>
      <trkpt lat="45.17416" lon="5.93159">
        <ele>1883</ele>
        <time>2022-01-22T08:59:16Z</time>
      </trkpt>
      <trkpt lat="45.17416" lon="5.93162">
        <ele>1884</ele>
        <time>2022-01-22T08:59:19Z</time>
      </trkpt>
      <trkpt lat="45.17415" lon="5.93165">
        <ele>1885</ele>
        <time>2022-01-22T08:59:22Z</time>
      </trkpt>
      <trkpt lat="45.17414" lon="5.93167">
        <ele>1885</ele>
        <time>2022-01-22T08:59:25Z</time>
      </trkpt>
      <trkpt lat="45.17412" lon="5.93168">
        <ele>1886</ele>
        <time>2022-01-22T08:59:28Z</time>
      </trkpt>
      <trkpt lat="45.17409" lon="5.93168">
        <ele>1886</ele>
        <time>2022-01-22T08:59:31Z</time>
      </trkpt>
      <trkpt lat="45.17407" lon="5.93169">
        <ele>1886</ele>
        <time>2022-01-22T08:59:34Z</time>
      </trkpt>
      <trkpt lat="45.17405" lon="5.93168">
        <ele>1887</ele>
        <time>2022-01-22T08:59:37Z</time>
      </trkpt>
      <trkpt lat="45.17403" lon="5.93166">
        <ele>1888</ele>
        <time>2022-01-22T08:59:40Z</time>
      </trkpt>
      <trkpt lat="45.17403" lon="5.93163">
        <ele>1889</ele>
        <time>2022-01-22T08:59:43Z</time>
      </trkpt>
      <trkpt lat="45.17402" lon="5.9316">
        <ele>1890</ele>
        <time>2022-01-22T08:59:47Z</time>
      </trkpt>
      <trkpt lat="45.17401" lon="5.93163">
        <ele>1890</ele>
        <time>2022-01-22T09:00:02Z</time>
      </trkpt>
      <trkpt lat="45.17401" lon="5.93166">
        <ele>1890</ele>
        <time>2022-01-22T09:00:05Z</time>
      </trkpt>
      <trkpt lat="45.17401" lon="5.9317">
        <ele>1890</ele>
        <time>2022-01-22T09:00:08Z</time>
      </trkpt>
      <trkpt lat="45.17402" lon="5.93173">
        <ele>1891</ele>
        <time>2022-01-22T09:00:11Z</time>
      </trkpt>
      <trkpt lat="45.17403" lon="5.93177">
        <ele>1891</ele>
        <time>2022-01-22T09:00:14Z</time>
      </trkpt>
      <trkpt lat="45.17403" lon="5.93181">
        <ele>1892</ele>
        <time>2022-01-22T09:00:17Z</time>
      </trkpt>
      <trkpt lat="45.17404" lon="5.93185">
        <ele>1892</ele>
        <time>2022-01-22T09:00:20Z</time>
      </trkpt>
      <trkpt lat="45.17404" lon="5.93188">
        <ele>1892</ele>
        <time>2022-01-22T09:00:22Z</time>
      </trkpt>
      <trkpt lat="45.17405" lon="5.93191">
        <ele>1893</ele>
        <time>2022-01-22T09:00:24Z</time>
      </trkpt>
      <trkpt lat="45.17405" lon="5.93194">
        <ele>1893</ele>
        <time>2022-01-22T09:00:26Z</time>
      </trkpt>
      <trkpt lat="45.17405" lon="5.93197">
        <ele>1893</ele>
        <time>2022-01-22T09:00:28Z</time>
      </trkpt>
      <trkpt lat="45.17405" lon="5.932">
        <ele>1893</ele>
        <time>2022-01-22T09:00:30Z</time>
      </trkpt>
      <trkpt lat="45.17405" lon="5.93202">
        <ele>1893</ele>
        <time>2022-01-22T09:00:32Z</time>
      </trkpt>
      <trkpt lat="45.17406" lon="5.93205">
        <ele>1893</ele>
        <time>2022-01-22T09:00:34Z</time>
      </trkpt>
      <trkpt lat="45.17406" lon="5.93208">
        <ele>1893</ele>
        <time>2022-01-22T09:00:36Z</time>
      </trkpt>
      <trkpt lat="45.17406" lon="5.9321">
        <ele>1893</ele>
        <time>2022-01-22T09:00:38Z</time>
      </trkpt>
      <trkpt lat="45.17407" lon="5.93213">
        <ele>1893</ele>
        <time>2022-01-22T09:00:40Z</time>
      </trkpt>
      <trkpt lat="45.17407" lon="5.93216">
        <ele>1893</ele>
        <time>2022-01-22T09:00:42Z</time>
      </trkpt>
      <trkpt lat="45.17408" lon="5.93219">
        <ele>1893</ele>
        <time>2022-01-22T09:00:44Z</time>
      </trkpt>
      <trkpt lat="45.17409" lon="5.93222">
        <ele>1893</ele>
        <time>2022-01-22T09:00:46Z</time>
      </trkpt>
      <trkpt lat="45.17409" lon="5.93225">
        <ele>1893</ele>
        <time>2022-01-22T09:00:49Z</time>
      </trkpt>
      <trkpt lat="45.1741" lon="5.93228">
        <ele>1894</ele>
        <time>2022-01-22T09:00:52Z</time>
      </trkpt>
      <trkpt lat="45.1741" lon="5.93231">
        <ele>1893</ele>
        <time>2022-01-22T09:00:54Z</time>
      </trkpt>
      <trkpt lat="45.1741" lon="5.93234">
        <ele>1894</ele>
        <time>2022-01-22T09:00:57Z</time>
      </trkpt>
      <trkpt lat="45.1741" lon="5.93236">
        <ele>1895</ele>
        <time>2022-01-22T09:01:00Z</time>
      </trkpt>
      <trkpt lat="45.17411" lon="5.93239">
        <ele>1895</ele>
        <time>2022-01-22T09:01:03Z</time>
      </trkpt>
      <trkpt lat="45.17411" lon="5.93242">
        <ele>1895</ele>
        <time>2022-01-22T09:01:06Z</time>
      </trkpt>
      <trkpt lat="45.1741" lon="5.93245">
        <ele>1896</ele>
        <time>2022-01-22T09:01:09Z</time>
      </trkpt>
      <trkpt lat="45.17409" lon="5.93248">
        <ele>1897</ele>
        <time>2022-01-22T09:01:12Z</time>
      </trkpt>
      <trkpt lat="45.17409" lon="5.9325">
        <ele>1898</ele>
        <time>2022-01-22T09:01:15Z</time>
      </trkpt>
      <trkpt lat="45.17407" lon="5.93253">
        <ele>1898</ele>
        <time>2022-01-22T09:01:18Z</time>
      </trkpt>
      <trkpt lat="45.17408" lon="5.93256">
        <ele>1898</ele>
        <time>2022-01-22T09:01:21Z</time>
      </trkpt>
      <trkpt lat="45.17409" lon="5.93259">
        <ele>1899</ele>
        <time>2022-01-22T09:01:24Z</time>
      </trkpt>
      <trkpt lat="45.1741" lon="5.93262">
        <ele>1900</ele>
        <time>2022-01-22T09:01:28Z</time>
      </trkpt>
      <trkpt lat="45.1741" lon="5.93265">
        <ele>1901</ele>
        <time>2022-01-22T09:01:31Z</time>
      </trkpt>
      <trkpt lat="45.1741" lon="5.93268">
        <ele>1902</ele>
        <time>2022-01-22T09:01:34Z</time>
      </trkpt>
      <trkpt lat="45.17409" lon="5.93271">
        <ele>1902</ele>
        <time>2022-01-22T09:01:37Z</time>
      </trkpt>
      <trkpt lat="45.17408" lon="5.93274">
        <ele>1904</ele>
        <time>2022-01-22T09:01:40Z</time>
      </trkpt>
      <trkpt lat="45.17407" lon="5.93277">
        <ele>1904</ele>
        <time>2022-01-22T09:01:43Z</time>
      </trkpt>
      <trkpt lat="45.17407" lon="5.9328">
        <ele>1904</ele>
        <time>2022-01-22T09:01:46Z</time>
      </trkpt>
      <trkpt lat="45.17408" lon="5.93282">
        <ele>1905</ele>
        <time>2022-01-22T09:01:49Z</time>
      </trkpt>
      <trkpt lat="45.1741" lon="5.93284">
        <ele>1905</ele>
        <time>2022-01-22T09:01:52Z</time>
      </trkpt>
      <trkpt lat="45.17412" lon="5.93285">
        <ele>1906</ele>
        <time>2022-01-22T09:01:55Z</time>
      </trkpt>
      <trkpt lat="45.17413" lon="5.93287">
        <ele>1907</ele>
        <time>2022-01-22T09:01:58Z</time>
      </trkpt>
      <trkpt lat="45.17414" lon="5.9329">
        <ele>1908</ele>
        <time>2022-01-22T09:02:01Z</time>
      </trkpt>
      <trkpt lat="45.17414" lon="5.93294">
        <ele>1908</ele>
        <time>2022-01-22T09:02:04Z</time>
      </trkpt>
      <trkpt lat="45.17414" lon="5.93297">
        <ele>1908</ele>
        <time>2022-01-22T09:02:07Z</time>
      </trkpt>
      <trkpt lat="45.17414" lon="5.933">
        <ele>1908</ele>
        <time>2022-01-22T09:02:10Z</time>
      </trkpt>
      <trkpt lat="45.17414" lon="5.93303">
        <ele>1909</ele>
        <time>2022-01-22T09:02:14Z</time>
      </trkpt>
      <trkpt lat="45.17415" lon="5.93306">
        <ele>1910</ele>
        <time>2022-01-22T09:02:17Z</time>
      </trkpt>
      <trkpt lat="45.17415" lon="5.9331">
        <ele>1911</ele>
        <time>2022-01-22T09:02:20Z</time>
      </trkpt>
      <trkpt lat="45.17416" lon="5.93313">
        <ele>1912</ele>
        <time>2022-01-22T09:02:23Z</time>
      </trkpt>
      <trkpt lat="45.17416" lon="5.93316">
        <ele>1913</ele>
        <time>2022-01-22T09:02:26Z</time>
      </trkpt>
      <trkpt lat="45.17417" lon="5.9332">
        <ele>1913</ele>
        <time>2022-01-22T09:02:29Z</time>
      </trkpt>
      <trkpt lat="45.17417" lon="5.93323">
        <ele>1913</ele>
        <time>2022-01-22T09:02:32Z</time>
      </trkpt>
      <trkpt lat="45.17417" lon="5.93327">
        <ele>1913</ele>
        <time>2022-01-22T09:02:35Z</time>
      </trkpt>
      <trkpt lat="45.17417" lon="5.9333">
        <ele>1913</ele>
        <time>2022-01-22T09:02:38Z</time>
      </trkpt>
      <trkpt lat="45.17417" lon="5.93333">
        <ele>1914</ele>
        <time>2022-01-22T09:02:41Z</time>
      </trkpt>
      <trkpt lat="45.17416" lon="5.93336">
        <ele>1915</ele>
        <time>2022-01-22T09:02:44Z</time>
      </trkpt>
      <trkpt lat="45.17415" lon="5.93339">
        <ele>1916</ele>
        <time>2022-01-22T09:02:47Z</time>
      </trkpt>
      <trkpt lat="45.17414" lon="5.93341">
        <ele>1916</ele>
        <time>2022-01-22T09:02:50Z</time>
      </trkpt>
      <trkpt lat="45.17413" lon="5.93345">
        <ele>1917</ele>
        <time>2022-01-22T09:02:53Z</time>
      </trkpt>
      <trkpt lat="45.17413" lon="5.93348">
        <ele>1917</ele>
        <time>2022-01-22T09:02:55Z</time>
      </trkpt>
      <trkpt lat="45.17412" lon="5.93351">
        <ele>1917</ele>
        <time>2022-01-22T09:02:57Z</time>
      </trkpt>
      <trkpt lat="45.17412" lon="5.93353">
        <ele>1918</ele>
        <time>2022-01-22T09:02:59Z</time>
      </trkpt>
      <trkpt lat="45.17412" lon="5.93356">
        <ele>1918</ele>
        <time>2022-01-22T09:03:01Z</time>
      </trkpt>
      <trkpt lat="45.17411" lon="5.93359">
        <ele>1918</ele>
        <time>2022-01-22T09:03:03Z</time>
      </trkpt>
      <trkpt lat="45.17411" lon="5.93362">
        <ele>1918</ele>
        <time>2022-01-22T09:03:05Z</time>
      </trkpt>
      <trkpt lat="45.17411" lon="5.93364">
        <ele>1918</ele>
        <time>2022-01-22T09:03:07Z</time>
      </trkpt>
      <trkpt lat="45.1741" lon="5.93367">
        <ele>1918</ele>
        <time>2022-01-22T09:03:09Z</time>
      </trkpt>
      <trkpt lat="45.1741" lon="5.9337">
        <ele>1918</ele>
        <time>2022-01-22T09:03:11Z</time>
      </trkpt>
      <trkpt lat="45.17409" lon="5.93374">
        <ele>1919</ele>
        <time>2022-01-22T09:03:14Z</time>
      </trkpt>
      <trkpt lat="45.17409" lon="5.93377">
        <ele>1919</ele>
        <time>2022-01-22T09:03:17Z</time>
      </trkpt>
      <trkpt lat="45.17409" lon="5.9338">
        <ele>1919</ele>
        <time>2022-01-22T09:03:19Z</time>
      </trkpt>
      <trkpt lat="45.17409" lon="5.93383">
        <ele>1919</ele>
        <time>2022-01-22T09:03:21Z</time>
      </trkpt>
      <trkpt lat="45.17409" lon="5.93387">
        <ele>1919</ele>
        <time>2022-01-22T09:03:24Z</time>
      </trkpt>
      <trkpt lat="45.17409" lon="5.9339">
        <ele>1920</ele>
        <time>2022-01-22T09:03:27Z</time>
      </trkpt>
      <trkpt lat="45.17409" lon="5.93394">
        <ele>1920</ele>
        <time>2022-01-22T09:03:30Z</time>
      </trkpt>
      <trkpt lat="45.17409" lon="5.93397">
        <ele>1920</ele>
        <time>2022-01-22T09:03:33Z</time>
      </trkpt>
      <trkpt lat="45.17409" lon="5.934">
        <ele>1921</ele>
        <time>2022-01-22T09:03:35Z</time>
      </trkpt>
      <trkpt lat="45.17408" lon="5.93403">
        <ele>1921</ele>
        <time>2022-01-22T09:03:37Z</time>
      </trkpt>
      <trkpt lat="45.17407" lon="5.93406">
        <ele>1920</ele>
        <time>2022-01-22T09:03:39Z</time>
      </trkpt>
      <trkpt lat="45.17406" lon="5.93408">
        <ele>1920</ele>
        <time>2022-01-22T09:03:42Z</time>
      </trkpt>
      <trkpt lat="45.17405" lon="5.93411">
        <ele>1921</ele>
        <time>2022-01-22T09:03:45Z</time>
      </trkpt>
      <trkpt lat="45.17403" lon="5.93415">
        <ele>1922</ele>
        <time>2022-01-22T09:03:48Z</time>
      </trkpt>
      <trkpt lat="45.17403" lon="5.93418">
        <ele>1922</ele>
        <time>2022-01-22T09:03:50Z</time>
      </trkpt>
      <trkpt lat="45.17402" lon="5.9342">
        <ele>1922</ele>
        <time>2022-01-22T09:03:52Z</time>
      </trkpt>
      <trkpt lat="45.17401" lon="5.93422">
        <ele>1922</ele>
        <time>2022-01-22T09:03:54Z</time>
      </trkpt>
      <trkpt lat="45.174" lon="5.93425">
        <ele>1923</ele>
        <time>2022-01-22T09:03:56Z</time>
      </trkpt>
      <trkpt lat="45.17399" lon="5.93428">
        <ele>1923</ele>
        <time>2022-01-22T09:03:58Z</time>
      </trkpt>
      <trkpt lat="45.17398" lon="5.9343">
        <ele>1923</ele>
        <time>2022-01-22T09:04:00Z</time>
      </trkpt>
      <trkpt lat="45.17396" lon="5.93432">
        <ele>1923</ele>
        <time>2022-01-22T09:04:02Z</time>
      </trkpt>
      <trkpt lat="45.17395" lon="5.93435">
        <ele>1923</ele>
        <time>2022-01-22T09:04:04Z</time>
      </trkpt>
      <trkpt lat="45.17394" lon="5.93437">
        <ele>1923</ele>
        <time>2022-01-22T09:04:06Z</time>
      </trkpt>
      <trkpt lat="45.17393" lon="5.9344">
        <ele>1923</ele>
        <time>2022-01-22T09:04:08Z</time>
      </trkpt>
      <trkpt lat="45.17393" lon="5.93443">
        <ele>1923</ele>
        <time>2022-01-22T09:04:10Z</time>
      </trkpt>
      <trkpt lat="45.17392" lon="5.93445">
        <ele>1923</ele>
        <time>2022-01-22T09:04:12Z</time>
      </trkpt>
      <trkpt lat="45.17391" lon="5.93448">
        <ele>1923</ele>
        <time>2022-01-22T09:04:14Z</time>
      </trkpt>
      <trkpt lat="45.1739" lon="5.9345">
        <ele>1923</ele>
        <time>2022-01-22T09:04:16Z</time>
      </trkpt>
      <trkpt lat="45.17389" lon="5.93453">
        <ele>1924</ele>
        <time>2022-01-22T09:04:18Z</time>
      </trkpt>
      <trkpt lat="45.17387" lon="5.93455">
        <ele>1924</ele>
        <time>2022-01-22T09:04:21Z</time>
      </trkpt>
      <trkpt lat="45.17386" lon="5.93457">
        <ele>1925</ele>
        <time>2022-01-22T09:04:24Z</time>
      </trkpt>
      <trkpt lat="45.17385" lon="5.93459">
        <ele>1926</ele>
        <time>2022-01-22T09:04:27Z</time>
      </trkpt>
      <trkpt lat="45.17384" lon="5.93462">
        <ele>1927</ele>
        <time>2022-01-22T09:04:30Z</time>
      </trkpt>
      <trkpt lat="45.17384" lon="5.93466">
        <ele>1927</ele>
        <time>2022-01-22T09:04:33Z</time>
      </trkpt>
      <trkpt lat="45.17384" lon="5.93469">
        <ele>1927</ele>
        <time>2022-01-22T09:04:36Z</time>
      </trkpt>
      <trkpt lat="45.17384" lon="5.93473">
        <ele>1928</ele>
        <time>2022-01-22T09:04:39Z</time>
      </trkpt>
      <trkpt lat="45.17384" lon="5.93476">
        <ele>1928</ele>
        <time>2022-01-22T09:04:41Z</time>
      </trkpt>
      <trkpt lat="45.17384" lon="5.93479">
        <ele>1928</ele>
        <time>2022-01-22T09:04:44Z</time>
      </trkpt>
      <trkpt lat="45.17384" lon="5.93482">
        <ele>1928</ele>
        <time>2022-01-22T09:04:46Z</time>
      </trkpt>
      <trkpt lat="45.17384" lon="5.93486">
        <ele>1928</ele>
        <time>2022-01-22T09:04:49Z</time>
      </trkpt>
      <trkpt lat="45.17384" lon="5.93489">
        <ele>1929</ele>
        <time>2022-01-22T09:04:52Z</time>
      </trkpt>
      <trkpt lat="45.17383" lon="5.93492">
        <ele>1929</ele>
        <time>2022-01-22T09:04:55Z</time>
      </trkpt>
      <trkpt lat="45.17383" lon="5.93496">
        <ele>1929</ele>
        <time>2022-01-22T09:04:58Z</time>
      </trkpt>
      <trkpt lat="45.17383" lon="5.93499">
        <ele>1930</ele>
        <time>2022-01-22T09:05:00Z</time>
      </trkpt>
      <trkpt lat="45.17383" lon="5.93501">
        <ele>1930</ele>
        <time>2022-01-22T09:05:02Z</time>
      </trkpt>
      <trkpt lat="45.17383" lon="5.93504">
        <ele>1930</ele>
        <time>2022-01-22T09:05:04Z</time>
      </trkpt>
      <trkpt lat="45.17383" lon="5.93507">
        <ele>1930</ele>
        <time>2022-01-22T09:05:06Z</time>
      </trkpt>
      <trkpt lat="45.17383" lon="5.9351">
        <ele>1930</ele>
        <time>2022-01-22T09:05:08Z</time>
      </trkpt>
      <trkpt lat="45.17383" lon="5.93513">
        <ele>1930</ele>
        <time>2022-01-22T09:05:10Z</time>
      </trkpt>
      <trkpt lat="45.17383" lon="5.93516">
        <ele>1930</ele>
        <time>2022-01-22T09:05:13Z</time>
      </trkpt>
      <trkpt lat="45.17383" lon="5.93519">
        <ele>1930</ele>
        <time>2022-01-22T09:05:15Z</time>
      </trkpt>
      <trkpt lat="45.17383" lon="5.93522">
        <ele>1931</ele>
        <time>2022-01-22T09:05:17Z</time>
      </trkpt>
      <trkpt lat="45.17383" lon="5.93525">
        <ele>1931</ele>
        <time>2022-01-22T09:05:20Z</time>
      </trkpt>
      <trkpt lat="45.17384" lon="5.93528">
        <ele>1932</ele>
        <time>2022-01-22T09:05:23Z</time>
      </trkpt>
      <trkpt lat="45.17384" lon="5.93531">
        <ele>1932</ele>
        <time>2022-01-22T09:05:26Z</time>
      </trkpt>
      <trkpt lat="45.17385" lon="5.93534">
        <ele>1932</ele>
        <time>2022-01-22T09:05:29Z</time>
      </trkpt>
      <trkpt lat="45.17385" lon="5.93537">
        <ele>1932</ele>
        <time>2022-01-22T09:05:32Z</time>
      </trkpt>
      <trkpt lat="45.17386" lon="5.9354">
        <ele>1933</ele>
        <time>2022-01-22T09:05:35Z</time>
      </trkpt>
      <trkpt lat="45.17386" lon="5.93543">
        <ele>1934</ele>
        <time>2022-01-22T09:05:38Z</time>
      </trkpt>
      <trkpt lat="45.17386" lon="5.93546">
        <ele>1934</ele>
        <time>2022-01-22T09:05:41Z</time>
      </trkpt>
      <trkpt lat="45.17386" lon="5.93549">
        <ele>1935</ele>
        <time>2022-01-22T09:05:45Z</time>
      </trkpt>
      <trkpt lat="45.17386" lon="5.93552">
        <ele>1936</ele>
        <time>2022-01-22T09:05:48Z</time>
      </trkpt>
      <trkpt lat="45.17385" lon="5.93555">
        <ele>1936</ele>
        <time>2022-01-22T09:05:51Z</time>
      </trkpt>
      <trkpt lat="45.17383" lon="5.93558">
        <ele>1936</ele>
        <time>2022-01-22T09:05:54Z</time>
      </trkpt>
      <trkpt lat="45.17381" lon="5.93561">
        <ele>1937</ele>
        <time>2022-01-22T09:05:57Z</time>
      </trkpt>
      <trkpt lat="45.1738" lon="5.93562">
        <ele>1937</ele>
        <time>2022-01-22T09:05:59Z</time>
      </trkpt>
      <trkpt lat="45.17378" lon="5.93563">
        <ele>1938</ele>
        <time>2022-01-22T09:06:02Z</time>
      </trkpt>
      <trkpt lat="45.17376" lon="5.93565">
        <ele>1939</ele>
        <time>2022-01-22T09:06:05Z</time>
      </trkpt>
      <trkpt lat="45.17374" lon="5.93566">
        <ele>1939</ele>
        <time>2022-01-22T09:06:07Z</time>
      </trkpt>
      <trkpt lat="45.17372" lon="5.93567">
        <ele>1940</ele>
        <time>2022-01-22T09:06:10Z</time>
      </trkpt>
      <trkpt lat="45.1737" lon="5.93568">
        <ele>1940</ele>
        <time>2022-01-22T09:06:12Z</time>
      </trkpt>
      <trkpt lat="45.17368" lon="5.93569">
        <ele>1940</ele>
        <time>2022-01-22T09:06:14Z</time>
      </trkpt>
      <trkpt lat="45.17365" lon="5.93569">
        <ele>1941</ele>
        <time>2022-01-22T09:06:17Z</time>
      </trkpt>
      <trkpt lat="45.17363" lon="5.93569">
        <ele>1941</ele>
        <time>2022-01-22T09:06:19Z</time>
      </trkpt>
      <trkpt lat="45.17361" lon="5.93568">
        <ele>1941</ele>
        <time>2022-01-22T09:06:22Z</time>
      </trkpt>
      <trkpt lat="45.17359" lon="5.93568">
        <ele>1941</ele>
        <time>2022-01-22T09:06:24Z</time>
      </trkpt>
      <trkpt lat="45.17356" lon="5.93567">
        <ele>1942</ele>
        <time>2022-01-22T09:06:27Z</time>
      </trkpt>
      <trkpt lat="45.17354" lon="5.93567">
        <ele>1942</ele>
        <time>2022-01-22T09:06:30Z</time>
      </trkpt>
      <trkpt lat="45.17352" lon="5.93567">
        <ele>1942</ele>
        <time>2022-01-22T09:06:33Z</time>
      </trkpt>
      <trkpt lat="45.1735" lon="5.93565">
        <ele>1942</ele>
        <time>2022-01-22T09:06:35Z</time>
      </trkpt>
      <trkpt lat="45.17349" lon="5.93564">
        <ele>1943</ele>
        <time>2022-01-22T09:06:37Z</time>
      </trkpt>
      <trkpt lat="45.17347" lon="5.93561">
        <ele>1943</ele>
        <time>2022-01-22T09:06:40Z</time>
      </trkpt>
      <trkpt lat="45.17346" lon="5.93559">
        <ele>1944</ele>
        <time>2022-01-22T09:06:42Z</time>
      </trkpt>
      <trkpt lat="45.17345" lon="5.93556">
        <ele>1944</ele>
        <time>2022-01-22T09:06:45Z</time>
      </trkpt>
      <trkpt lat="45.17344" lon="5.93553">
        <ele>1944</ele>
        <time>2022-01-22T09:06:48Z</time>
      </trkpt>
      <trkpt lat="45.17343" lon="5.9355">
        <ele>1944</ele>
        <time>2022-01-22T09:06:51Z</time>
      </trkpt>
      <trkpt lat="45.17341" lon="5.93548">
        <ele>1944</ele>
        <time>2022-01-22T09:06:54Z</time>
      </trkpt>
      <trkpt lat="45.17339" lon="5.93546">
        <ele>1946</ele>
        <time>2022-01-22T09:06:57Z</time>
      </trkpt>
      <trkpt lat="45.17338" lon="5.93545">
        <ele>1947</ele>
        <time>2022-01-22T09:07:00Z</time>
      </trkpt>
      <trkpt lat="45.17336" lon="5.93544">
        <ele>1947</ele>
        <time>2022-01-22T09:07:03Z</time>
      </trkpt>
      <trkpt lat="45.17334" lon="5.93543">
        <ele>1947</ele>
        <time>2022-01-22T09:07:05Z</time>
      </trkpt>
      <trkpt lat="45.17332" lon="5.93541">
        <ele>1948</ele>
        <time>2022-01-22T09:07:08Z</time>
      </trkpt>
      <trkpt lat="45.1733" lon="5.93539">
        <ele>1949</ele>
        <time>2022-01-22T09:07:11Z</time>
      </trkpt>
      <trkpt lat="45.17329" lon="5.93538">
        <ele>1949</ele>
        <time>2022-01-22T09:07:14Z</time>
      </trkpt>
      <trkpt lat="45.17327" lon="5.93536">
        <ele>1951</ele>
        <time>2022-01-22T09:07:18Z</time>
      </trkpt>
      <trkpt lat="45.17325" lon="5.93534">
        <ele>1951</ele>
        <time>2022-01-22T09:07:22Z</time>
      </trkpt>
      <trkpt lat="45.17323" lon="5.93533">
        <ele>1951</ele>
        <time>2022-01-22T09:07:25Z</time>
      </trkpt>
      <trkpt lat="45.1732" lon="5.93532">
        <ele>1953</ele>
        <time>2022-01-22T09:07:30Z</time>
      </trkpt>
      <trkpt lat="45.17319" lon="5.93531">
        <ele>1953</ele>
        <time>2022-01-22T09:07:33Z</time>
      </trkpt>
      <trkpt lat="45.17317" lon="5.93529">
        <ele>1954</ele>
        <time>2022-01-22T09:07:37Z</time>
      </trkpt>
      <trkpt lat="45.17315" lon="5.93528">
        <ele>1955</ele>
        <time>2022-01-22T09:07:40Z</time>
      </trkpt>
      <trkpt lat="45.17313" lon="5.93527">
        <ele>1955</ele>
        <time>2022-01-22T09:07:44Z</time>
      </trkpt>
      <trkpt lat="45.17313" lon="5.9353">
        <ele>1956</ele>
        <time>2022-01-22T09:07:48Z</time>
      </trkpt>
      <trkpt lat="45.17313" lon="5.93533">
        <ele>1956</ele>
        <time>2022-01-22T09:07:51Z</time>
      </trkpt>
      <trkpt lat="45.17314" lon="5.93536">
        <ele>1956</ele>
        <time>2022-01-22T09:07:54Z</time>
      </trkpt>
      <trkpt lat="45.17314" lon="5.93539">
        <ele>1957</ele>
        <time>2022-01-22T09:07:57Z</time>
      </trkpt>
      <trkpt lat="45.17312" lon="5.93541">
        <ele>1958</ele>
        <time>2022-01-22T09:08:00Z</time>
      </trkpt>
      <trkpt lat="45.1731" lon="5.9354">
        <ele>1959</ele>
        <time>2022-01-22T09:08:03Z</time>
      </trkpt>
      <trkpt lat="45.17308" lon="5.9354">
        <ele>1959</ele>
        <time>2022-01-22T09:08:06Z</time>
      </trkpt>
      <trkpt lat="45.17306" lon="5.93539">
        <ele>1959</ele>
        <time>2022-01-22T09:08:09Z</time>
      </trkpt>
      <trkpt lat="45.17303" lon="5.93539">
        <ele>1961</ele>
        <time>2022-01-22T09:08:12Z</time>
      </trkpt>
      <trkpt lat="45.17301" lon="5.93538">
        <ele>1961</ele>
        <time>2022-01-22T09:08:15Z</time>
      </trkpt>
      <trkpt lat="45.17299" lon="5.93538">
        <ele>1961</ele>
        <time>2022-01-22T09:08:18Z</time>
      </trkpt>
      <trkpt lat="45.17297" lon="5.93537">
        <ele>1962</ele>
        <time>2022-01-22T09:08:21Z</time>
      </trkpt>
      <trkpt lat="45.17296" lon="5.93538">
        <ele>1963</ele>
        <time>2022-01-22T09:08:58Z</time>
      </trkpt>
      <trkpt lat="45.17293" lon="5.93538">
        <ele>1963</ele>
        <time>2022-01-22T09:09:01Z</time>
      </trkpt>
      <trkpt lat="45.17291" lon="5.93538">
        <ele>1964</ele>
        <time>2022-01-22T09:09:04Z</time>
      </trkpt>
      <trkpt lat="45.17288" lon="5.93538">
        <ele>1964</ele>
        <time>2022-01-22T09:09:07Z</time>
      </trkpt>
      <trkpt lat="45.17286" lon="5.93538">
        <ele>1966</ele>
        <time>2022-01-22T09:09:10Z</time>
      </trkpt>
      <trkpt lat="45.17284" lon="5.9354">
        <ele>1966</ele>
        <time>2022-01-22T09:09:13Z</time>
      </trkpt>
      <trkpt lat="45.17283" lon="5.93543">
        <ele>1966</ele>
        <time>2022-01-22T09:09:16Z</time>
      </trkpt>
      <trkpt lat="45.17283" lon="5.93546">
        <ele>1967</ele>
        <time>2022-01-22T09:09:19Z</time>
      </trkpt>
      <trkpt lat="45.17283" lon="5.93549">
        <ele>1968</ele>
        <time>2022-01-22T09:09:22Z</time>
      </trkpt>
      <trkpt lat="45.17284" lon="5.93552">
        <ele>1969</ele>
        <time>2022-01-22T09:09:26Z</time>
      </trkpt>
      <trkpt lat="45.17284" lon="5.93555">
        <ele>1969</ele>
        <time>2022-01-22T09:09:29Z</time>
      </trkpt>
      <trkpt lat="45.17285" lon="5.93558">
        <ele>1970</ele>
        <time>2022-01-22T09:09:32Z</time>
      </trkpt>
      <trkpt lat="45.17286" lon="5.9356">
        <ele>1969</ele>
        <time>2022-01-22T09:09:35Z</time>
      </trkpt>
      <trkpt lat="45.17288" lon="5.93563">
        <ele>1971</ele>
        <time>2022-01-22T09:09:38Z</time>
      </trkpt>
      <trkpt lat="45.17289" lon="5.93565">
        <ele>1970</ele>
        <time>2022-01-22T09:09:40Z</time>
      </trkpt>
      <trkpt lat="45.1729" lon="5.93568">
        <ele>1972</ele>
        <time>2022-01-22T09:09:42Z</time>
      </trkpt>
      <trkpt lat="45.17291" lon="5.93571">
        <ele>1973</ele>
        <time>2022-01-22T09:09:45Z</time>
      </trkpt>
      <trkpt lat="45.17291" lon="5.93574">
        <ele>1972</ele>
        <time>2022-01-22T09:09:47Z</time>
      </trkpt>
      <trkpt lat="45.17291" lon="5.93577">
        <ele>1972</ele>
        <time>2022-01-22T09:09:50Z</time>
      </trkpt>
      <trkpt lat="45.1729" lon="5.9358">
        <ele>1972</ele>
        <time>2022-01-22T09:09:53Z</time>
      </trkpt>
      <trkpt lat="45.17289" lon="5.93583">
        <ele>1973</ele>
        <time>2022-01-22T09:09:56Z</time>
      </trkpt>
      <trkpt lat="45.17288" lon="5.93585">
        <ele>1975</ele>
        <time>2022-01-22T09:09:59Z</time>
      </trkpt>
      <trkpt lat="45.17287" lon="5.93587">
        <ele>1977</ele>
        <time>2022-01-22T09:10:02Z</time>
      </trkpt>
      <trkpt lat="45.17288" lon="5.9359">
        <ele>1976</ele>
        <time>2022-01-22T09:10:06Z</time>
      </trkpt>
      <trkpt lat="45.17288" lon="5.93593">
        <ele>1977</ele>
        <time>2022-01-22T09:10:09Z</time>
      </trkpt>
      <trkpt lat="45.17286" lon="5.93594">
        <ele>1977</ele>
        <time>2022-01-22T09:10:12Z</time>
      </trkpt>
      <trkpt lat="45.17283" lon="5.93595">
        <ele>1978</ele>
        <time>2022-01-22T09:10:15Z</time>
      </trkpt>
      <trkpt lat="45.17281" lon="5.93596">
        <ele>1979</ele>
        <time>2022-01-22T09:10:18Z</time>
      </trkpt>
      <trkpt lat="45.17279" lon="5.93596">
        <ele>1979</ele>
        <time>2022-01-22T09:10:21Z</time>
      </trkpt>
      <trkpt lat="45.17277" lon="5.93597">
        <ele>1980</ele>
        <time>2022-01-22T09:10:24Z</time>
      </trkpt>
      <trkpt lat="45.17276" lon="5.936">
        <ele>1981</ele>
        <time>2022-01-22T09:10:28Z</time>
      </trkpt>
      <trkpt lat="45.17276" lon="5.93602">
        <ele>1981</ele>
        <time>2022-01-22T09:10:31Z</time>
      </trkpt>
      <trkpt lat="45.17277" lon="5.93606">
        <ele>1982</ele>
        <time>2022-01-22T09:10:34Z</time>
      </trkpt>
      <trkpt lat="45.17277" lon="5.93608">
        <ele>1982</ele>
        <time>2022-01-22T09:10:37Z</time>
      </trkpt>
      <trkpt lat="45.17278" lon="5.93612">
        <ele>1983</ele>
        <time>2022-01-22T09:10:40Z</time>
      </trkpt>
      <trkpt lat="45.17279" lon="5.93616">
        <ele>1984</ele>
        <time>2022-01-22T09:10:43Z</time>
      </trkpt>
      <trkpt lat="45.17279" lon="5.93618">
        <ele>1984</ele>
        <time>2022-01-22T09:10:45Z</time>
      </trkpt>
      <trkpt lat="45.1728" lon="5.93621">
        <ele>1984</ele>
        <time>2022-01-22T09:10:47Z</time>
      </trkpt>
      <trkpt lat="45.1728" lon="5.93624">
        <ele>1984</ele>
        <time>2022-01-22T09:10:49Z</time>
      </trkpt>
      <trkpt lat="45.17279" lon="5.93626">
        <ele>1984</ele>
        <time>2022-01-22T09:10:51Z</time>
      </trkpt>
      <trkpt lat="45.17277" lon="5.93628">
        <ele>1984</ele>
        <time>2022-01-22T09:10:53Z</time>
      </trkpt>
      <trkpt lat="45.17275" lon="5.93631">
        <ele>1985</ele>
        <time>2022-01-22T09:10:56Z</time>
      </trkpt>
      <trkpt lat="45.17273" lon="5.93633">
        <ele>1985</ele>
        <time>2022-01-22T09:10:58Z</time>
      </trkpt>
      <trkpt lat="45.17271" lon="5.93634">
        <ele>1985</ele>
        <time>2022-01-22T09:11:00Z</time>
      </trkpt>
      <trkpt lat="45.17269" lon="5.93634">
        <ele>1985</ele>
        <time>2022-01-22T09:11:02Z</time>
      </trkpt>
      <trkpt lat="45.17267" lon="5.93635">
        <ele>1985</ele>
        <time>2022-01-22T09:11:04Z</time>
      </trkpt>
      <trkpt lat="45.17265" lon="5.93635">
        <ele>1984</ele>
        <time>2022-01-22T09:11:06Z</time>
      </trkpt>
      <trkpt lat="45.17262" lon="5.93635">
        <ele>1984</ele>
        <time>2022-01-22T09:11:08Z</time>
      </trkpt>
      <trkpt lat="45.1726" lon="5.93635">
        <ele>1984</ele>
        <time>2022-01-22T09:11:10Z</time>
      </trkpt>
      <trkpt lat="45.17258" lon="5.93635">
        <ele>1984</ele>
        <time>2022-01-22T09:11:12Z</time>
      </trkpt>
      <trkpt lat="45.17256" lon="5.93635">
        <ele>1984</ele>
        <time>2022-01-22T09:11:14Z</time>
      </trkpt>
      <trkpt lat="45.17254" lon="5.93635">
        <ele>1985</ele>
        <time>2022-01-22T09:11:17Z</time>
      </trkpt>
      <trkpt lat="45.17251" lon="5.93635">
        <ele>1985</ele>
        <time>2022-01-22T09:11:21Z</time>
      </trkpt>
      <trkpt lat="45.17249" lon="5.93634">
        <ele>1985</ele>
        <time>2022-01-22T09:11:23Z</time>
      </trkpt>
      <trkpt lat="45.17247" lon="5.93634">
        <ele>1985</ele>
        <time>2022-01-22T09:11:25Z</time>
      </trkpt>
      <trkpt lat="45.17245" lon="5.93635">
        <ele>1985</ele>
        <time>2022-01-22T09:11:27Z</time>
      </trkpt>
      <trkpt lat="45.17243" lon="5.93635">
        <ele>1985</ele>
        <time>2022-01-22T09:11:29Z</time>
      </trkpt>
      <trkpt lat="45.17241" lon="5.93635">
        <ele>1986</ele>
        <time>2022-01-22T09:11:31Z</time>
      </trkpt>
      <trkpt lat="45.17239" lon="5.93636">
        <ele>1986</ele>
        <time>2022-01-22T09:11:33Z</time>
      </trkpt>
      <trkpt lat="45.17237" lon="5.93637">
        <ele>1985</ele>
        <time>2022-01-22T09:11:36Z</time>
      </trkpt>
      <trkpt lat="45.17235" lon="5.93637">
        <ele>1985</ele>
        <time>2022-01-22T09:11:38Z</time>
      </trkpt>
      <trkpt lat="45.17233" lon="5.93638">
        <ele>1986</ele>
        <time>2022-01-22T09:11:40Z</time>
      </trkpt>
      <trkpt lat="45.17231" lon="5.93639">
        <ele>1985</ele>
        <time>2022-01-22T09:11:42Z</time>
      </trkpt>
      <trkpt lat="45.17228" lon="5.9364">
        <ele>1986</ele>
        <time>2022-01-22T09:11:45Z</time>
      </trkpt>
      <trkpt lat="45.17226" lon="5.93641">
        <ele>1986</ele>
        <time>2022-01-22T09:11:48Z</time>
      </trkpt>
      <trkpt lat="45.17223" lon="5.93643">
        <ele>1986</ele>
        <time>2022-01-22T09:11:51Z</time>
      </trkpt>
      <trkpt lat="45.17221" lon="5.93644">
        <ele>1986</ele>
        <time>2022-01-22T09:11:53Z</time>
      </trkpt>
      <trkpt lat="45.1722" lon="5.93644">
        <ele>1987</ele>
        <time>2022-01-22T09:11:55Z</time>
      </trkpt>
      <trkpt lat="45.17218" lon="5.93645">
        <ele>1987</ele>
        <time>2022-01-22T09:11:57Z</time>
      </trkpt>
      <trkpt lat="45.17216" lon="5.93646">
        <ele>1987</ele>
        <time>2022-01-22T09:11:59Z</time>
      </trkpt>
      <trkpt lat="45.17214" lon="5.93647">
        <ele>1987</ele>
        <time>2022-01-22T09:12:01Z</time>
      </trkpt>
      <trkpt lat="45.17212" lon="5.93647">
        <ele>1987</ele>
        <time>2022-01-22T09:12:03Z</time>
      </trkpt>
      <trkpt lat="45.17211" lon="5.93648">
        <ele>1987</ele>
        <time>2022-01-22T09:12:05Z</time>
      </trkpt>
      <trkpt lat="45.17209" lon="5.93649">
        <ele>1987</ele>
        <time>2022-01-22T09:12:07Z</time>
      </trkpt>
      <trkpt lat="45.17207" lon="5.93649">
        <ele>1988</ele>
        <time>2022-01-22T09:12:09Z</time>
      </trkpt>
      <trkpt lat="45.17205" lon="5.93649">
        <ele>1988</ele>
        <time>2022-01-22T09:12:11Z</time>
      </trkpt>
      <trkpt lat="45.17203" lon="5.9365">
        <ele>1989</ele>
        <time>2022-01-22T09:12:13Z</time>
      </trkpt>
      <trkpt lat="45.17201" lon="5.9365">
        <ele>1989</ele>
        <time>2022-01-22T09:12:15Z</time>
      </trkpt>
      <trkpt lat="45.17199" lon="5.9365">
        <ele>1989</ele>
        <time>2022-01-22T09:12:17Z</time>
      </trkpt>
      <trkpt lat="45.17197" lon="5.9365">
        <ele>1989</ele>
        <time>2022-01-22T09:12:19Z</time>
      </trkpt>
      <trkpt lat="45.17195" lon="5.93651">
        <ele>1990</ele>
        <time>2022-01-22T09:12:21Z</time>
      </trkpt>
      <trkpt lat="45.17193" lon="5.93652">
        <ele>1991</ele>
        <time>2022-01-22T09:12:24Z</time>
      </trkpt>
      <trkpt lat="45.17191" lon="5.93652">
        <ele>1991</ele>
        <time>2022-01-22T09:12:26Z</time>
      </trkpt>
      <trkpt lat="45.17188" lon="5.93653">
        <ele>1993</ele>
        <time>2022-01-22T09:12:29Z</time>
      </trkpt>
      <trkpt lat="45.17186" lon="5.93654">
        <ele>1993</ele>
        <time>2022-01-22T09:12:32Z</time>
      </trkpt>
      <trkpt lat="45.17184" lon="5.93654">
        <ele>1992</ele>
        <time>2022-01-22T09:12:35Z</time>
      </trkpt>
      <trkpt lat="45.17181" lon="5.93654">
        <ele>1992</ele>
        <time>2022-01-22T09:12:38Z</time>
      </trkpt>
      <trkpt lat="45.17179" lon="5.93654">
        <ele>1992</ele>
        <time>2022-01-22T09:12:41Z</time>
      </trkpt>
      <trkpt lat="45.17177" lon="5.93654">
        <ele>1993</ele>
        <time>2022-01-22T09:12:43Z</time>
      </trkpt>
      <trkpt lat="45.17174" lon="5.93653">
        <ele>1993</ele>
        <time>2022-01-22T09:12:50Z</time>
      </trkpt>
      <trkpt lat="45.17172" lon="5.93652">
        <ele>1993</ele>
        <time>2022-01-22T09:12:52Z</time>
      </trkpt>
      <trkpt lat="45.1717" lon="5.93651">
        <ele>1993</ele>
        <time>2022-01-22T09:12:54Z</time>
      </trkpt>
      <trkpt lat="45.17168" lon="5.93649">
        <ele>1993</ele>
        <time>2022-01-22T09:12:56Z</time>
      </trkpt>
      <trkpt lat="45.17166" lon="5.93648">
        <ele>1993</ele>
        <time>2022-01-22T09:12:58Z</time>
      </trkpt>
      <trkpt lat="45.17165" lon="5.93646">
        <ele>1993</ele>
        <time>2022-01-22T09:13:00Z</time>
      </trkpt>
      <trkpt lat="45.17163" lon="5.93645">
        <ele>1993</ele>
        <time>2022-01-22T09:13:02Z</time>
      </trkpt>
      <trkpt lat="45.17161" lon="5.93644">
        <ele>1993</ele>
        <time>2022-01-22T09:13:05Z</time>
      </trkpt>
      <trkpt lat="45.17159" lon="5.93642">
        <ele>1994</ele>
        <time>2022-01-22T09:13:08Z</time>
      </trkpt>
      <trkpt lat="45.17158" lon="5.93639">
        <ele>1995</ele>
        <time>2022-01-22T09:13:11Z</time>
      </trkpt>
      <trkpt lat="45.17157" lon="5.93636">
        <ele>1996</ele>
        <time>2022-01-22T09:13:16Z</time>
      </trkpt>
      <trkpt lat="45.17156" lon="5.93633">
        <ele>1996</ele>
        <time>2022-01-22T09:13:18Z</time>
      </trkpt>
      <trkpt lat="45.17155" lon="5.93631">
        <ele>1996</ele>
        <time>2022-01-22T09:13:20Z</time>
      </trkpt>
      <trkpt lat="45.17154" lon="5.93628">
        <ele>1996</ele>
        <time>2022-01-22T09:13:23Z</time>
      </trkpt>
      <trkpt lat="45.17153" lon="5.93626">
        <ele>1996</ele>
        <time>2022-01-22T09:13:25Z</time>
      </trkpt>
      <trkpt lat="45.17151" lon="5.93623">
        <ele>1996</ele>
        <time>2022-01-22T09:13:27Z</time>
      </trkpt>
      <trkpt lat="45.1715" lon="5.93621">
        <ele>1995</ele>
        <time>2022-01-22T09:13:29Z</time>
      </trkpt>
      <trkpt lat="45.17147" lon="5.93621">
        <ele>1995</ele>
        <time>2022-01-22T09:13:32Z</time>
      </trkpt>
      <trkpt lat="45.17145" lon="5.9362">
        <ele>1996</ele>
        <time>2022-01-22T09:13:34Z</time>
      </trkpt>
      <trkpt lat="45.17142" lon="5.93619">
        <ele>1995</ele>
        <time>2022-01-22T09:13:36Z</time>
      </trkpt>
      <trkpt lat="45.1714" lon="5.93618">
        <ele>1995</ele>
        <time>2022-01-22T09:13:38Z</time>
      </trkpt>
      <trkpt lat="45.17138" lon="5.93616">
        <ele>1994</ele>
        <time>2022-01-22T09:13:40Z</time>
      </trkpt>
      <trkpt lat="45.17136" lon="5.93615">
        <ele>1994</ele>
        <time>2022-01-22T09:13:42Z</time>
      </trkpt>
      <trkpt lat="45.17134" lon="5.93613">
        <ele>1994</ele>
        <time>2022-01-22T09:13:44Z</time>
      </trkpt>
      <trkpt lat="45.17131" lon="5.93613">
        <ele>1994</ele>
        <time>2022-01-22T09:13:47Z</time>
      </trkpt>
      <trkpt lat="45.17129" lon="5.93612">
        <ele>1994</ele>
        <time>2022-01-22T09:13:49Z</time>
      </trkpt>
      <trkpt lat="45.17128" lon="5.93611">
        <ele>1994</ele>
        <time>2022-01-22T09:13:51Z</time>
      </trkpt>
      <trkpt lat="45.17126" lon="5.93613">
        <ele>1994</ele>
        <time>2022-01-22T09:14:35Z</time>
      </trkpt>
      <trkpt lat="45.17123" lon="5.93614">
        <ele>1994</ele>
        <time>2022-01-22T09:14:37Z</time>
      </trkpt>
      <trkpt lat="45.17121" lon="5.93615">
        <ele>1994</ele>
        <time>2022-01-22T09:14:39Z</time>
      </trkpt>
      <trkpt lat="45.17119" lon="5.93616">
        <ele>1993</ele>
        <time>2022-01-22T09:14:41Z</time>
      </trkpt>
      <trkpt lat="45.17116" lon="5.93616">
        <ele>1993</ele>
        <time>2022-01-22T09:14:43Z</time>
      </trkpt>
      <trkpt lat="45.17114" lon="5.93617">
        <ele>1992</ele>
        <time>2022-01-22T09:14:45Z</time>
      </trkpt>
      <trkpt lat="45.17114" lon="5.9362">
        <ele>1989</ele>
        <time>2022-01-22T09:14:51Z</time>
      </trkpt>
      <trkpt lat="45.17116" lon="5.93623">
        <ele>1989</ele>
        <time>2022-01-22T09:14:53Z</time>
      </trkpt>
      <trkpt lat="45.17117" lon="5.93625">
        <ele>1989</ele>
        <time>2022-01-22T09:14:55Z</time>
      </trkpt>
      <trkpt lat="45.17117" lon="5.93628">
        <ele>1989</ele>
        <time>2022-01-22T09:14:57Z</time>
      </trkpt>
      <trkpt lat="45.17118" lon="5.93631">
        <ele>1989</ele>
        <time>2022-01-22T09:14:59Z</time>
      </trkpt>
      <trkpt lat="45.17118" lon="5.93633">
        <ele>1989</ele>
        <time>2022-01-22T09:15:03Z</time>
      </trkpt>
      <trkpt lat="45.17117" lon="5.93631">
        <ele>1992</ele>
        <time>2022-01-22T09:15:15Z</time>
      </trkpt>
      <trkpt lat="45.17118" lon="5.93628">
        <ele>1990</ele>
        <time>2022-01-22T09:15:19Z</time>
      </trkpt>
      <trkpt lat="45.17119" lon="5.93627">
        <ele>1990</ele>
        <time>2022-01-22T09:15:21Z</time>
      </trkpt>
      <trkpt lat="45.1712" lon="5.9363">
        <ele>1991</ele>
        <time>2022-01-22T09:15:48Z</time>
      </trkpt>
      <trkpt lat="45.17121" lon="5.93627">
        <ele>1991</ele>
        <time>2022-01-22T09:16:42Z</time>
      </trkpt>
      <trkpt lat="45.17121" lon="5.9363">
        <ele>1990</ele>
        <time>2022-01-22T09:17:03Z</time>
      </trkpt>
      <trkpt lat="45.17119" lon="5.93629">
        <ele>1991</ele>
        <time>2022-01-22T09:17:23Z</time>
      </trkpt>
      <trkpt lat="45.17119" lon="5.93632">
        <ele>1989</ele>
        <time>2022-01-22T09:19:47Z</time>
      </trkpt>
      <trkpt lat="45.17121" lon="5.93633">
        <ele>1990</ele>
        <time>2022-01-22T09:19:55Z</time>
      </trkpt>
      <trkpt lat="45.1712" lon="5.93631">
        <ele>1990</ele>
        <time>2022-01-22T09:20:15Z</time>
      </trkpt>
      <trkpt lat="45.17119" lon="5.93629">
        <ele>1990</ele>
        <time>2022-01-22T09:20:45Z</time>
      </trkpt>
      <trkpt lat="45.17119" lon="5.93625">
        <ele>1990</ele>
        <time>2022-01-22T09:21:12Z</time>
      </trkpt>
      <trkpt lat="45.17117" lon="5.93626">
        <ele>1989</ele>
        <time>2022-01-22T09:22:06Z</time>
      </trkpt>
      <trkpt lat="45.17115" lon="5.93626">
        <ele>1989</ele>
        <time>2022-01-22T09:22:14Z</time>
      </trkpt>
      <trkpt lat="45.17117" lon="5.93627">
        <ele>1991</ele>
        <time>2022-01-22T09:22:24Z</time>
      </trkpt>
      <trkpt lat="45.1712" lon="5.93626">
        <ele>1990</ele>
        <time>2022-01-22T09:22:26Z</time>
      </trkpt>
      <trkpt lat="45.17119" lon="5.93629">
        <ele>1988</ele>
        <time>2022-01-22T09:23:16Z</time>
      </trkpt>
      <trkpt lat="45.17121" lon="5.93627">
        <ele>1988</ele>
        <time>2022-01-22T09:23:42Z</time>
      </trkpt>
      <trkpt lat="45.17118" lon="5.93626">
        <ele>1989</ele>
        <time>2022-01-22T09:23:54Z</time>
      </trkpt>
      <trkpt lat="45.17116" lon="5.93627">
        <ele>1989</ele>
        <time>2022-01-22T09:23:56Z</time>
      </trkpt>
      <trkpt lat="45.17115" lon="5.9363">
        <ele>1988</ele>
        <time>2022-01-22T09:23:59Z</time>
      </trkpt>
      <trkpt lat="45.17115" lon="5.93633">
        <ele>1988</ele>
        <time>2022-01-22T09:24:02Z</time>
      </trkpt>
      <trkpt lat="45.17115" lon="5.93636">
        <ele>1989</ele>
        <time>2022-01-22T09:24:05Z</time>
      </trkpt>
      <trkpt lat="45.17114" lon="5.93639">
        <ele>1989</ele>
        <time>2022-01-22T09:24:08Z</time>
      </trkpt>
      <trkpt lat="45.17114" lon="5.93642">
        <ele>1990</ele>
        <time>2022-01-22T09:24:10Z</time>
      </trkpt>
      <trkpt lat="45.17114" lon="5.93645">
        <ele>1990</ele>
        <time>2022-01-22T09:24:12Z</time>
      </trkpt>
      <trkpt lat="45.17114" lon="5.93649">
        <ele>1991</ele>
        <time>2022-01-22T09:24:15Z</time>
      </trkpt>
      <trkpt lat="45.17113" lon="5.93652">
        <ele>1991</ele>
        <time>2022-01-22T09:24:18Z</time>
      </trkpt>
      <trkpt lat="45.17112" lon="5.93656">
        <ele>1991</ele>
        <time>2022-01-22T09:24:21Z</time>
      </trkpt>
      <trkpt lat="45.17111" lon="5.93659">
        <ele>1991</ele>
        <time>2022-01-22T09:24:24Z</time>
      </trkpt>
      <trkpt lat="45.17109" lon="5.93661">
        <ele>1991</ele>
        <time>2022-01-22T09:24:27Z</time>
      </trkpt>
      <trkpt lat="45.17109" lon="5.93665">
        <ele>1992</ele>
        <time>2022-01-22T09:24:30Z</time>
      </trkpt>
      <trkpt lat="45.17108" lon="5.93668">
        <ele>1992</ele>
        <time>2022-01-22T09:24:33Z</time>
      </trkpt>
      <trkpt lat="45.17107" lon="5.93671">
        <ele>1991</ele>
        <time>2022-01-22T09:24:35Z</time>
      </trkpt>
      <trkpt lat="45.17105" lon="5.93674">
        <ele>1991</ele>
        <time>2022-01-22T09:24:37Z</time>
      </trkpt>
      <trkpt lat="45.17104" lon="5.93677">
        <ele>1990</ele>
        <time>2022-01-22T09:24:39Z</time>
      </trkpt>
      <trkpt lat="45.17103" lon="5.93679">
        <ele>1990</ele>
        <time>2022-01-22T09:24:41Z</time>
      </trkpt>
      <trkpt lat="45.17101" lon="5.93682">
        <ele>1990</ele>
        <time>2022-01-22T09:24:43Z</time>
      </trkpt>
      <trkpt lat="45.17099" lon="5.93684">
        <ele>1990</ele>
        <time>2022-01-22T09:24:45Z</time>
      </trkpt>
      <trkpt lat="45.17098" lon="5.93685">
        <ele>1990</ele>
        <time>2022-01-22T09:24:47Z</time>
      </trkpt>
      <trkpt lat="45.17096" lon="5.93687">
        <ele>1990</ele>
        <time>2022-01-22T09:24:49Z</time>
      </trkpt>
      <trkpt lat="45.17094" lon="5.93688">
        <ele>1990</ele>
        <time>2022-01-22T09:24:51Z</time>
      </trkpt>
      <trkpt lat="45.17092" lon="5.9369">
        <ele>1990</ele>
        <time>2022-01-22T09:24:53Z</time>
      </trkpt>
      <trkpt lat="45.1709" lon="5.93691">
        <ele>1990</ele>
        <time>2022-01-22T09:24:55Z</time>
      </trkpt>
      <trkpt lat="45.17089" lon="5.93693">
        <ele>1990</ele>
        <time>2022-01-22T09:24:57Z</time>
      </trkpt>
      <trkpt lat="45.17087" lon="5.93694">
        <ele>1990</ele>
        <time>2022-01-22T09:24:59Z</time>
      </trkpt>
      <trkpt lat="45.17086" lon="5.93696">
        <ele>1990</ele>
        <time>2022-01-22T09:25:01Z</time>
      </trkpt>
      <trkpt lat="45.17084" lon="5.93698">
        <ele>1990</ele>
        <time>2022-01-22T09:25:03Z</time>
      </trkpt>
      <trkpt lat="45.17082" lon="5.937">
        <ele>1990</ele>
        <time>2022-01-22T09:25:06Z</time>
      </trkpt>
      <trkpt lat="45.1708" lon="5.93702">
        <ele>1990</ele>
        <time>2022-01-22T09:25:09Z</time>
      </trkpt>
      <trkpt lat="45.17079" lon="5.93704">
        <ele>1990</ele>
        <time>2022-01-22T09:25:11Z</time>
      </trkpt>
      <trkpt lat="45.17077" lon="5.93705">
        <ele>1989</ele>
        <time>2022-01-22T09:25:13Z</time>
      </trkpt>
      <trkpt lat="45.17076" lon="5.93708">
        <ele>1989</ele>
        <time>2022-01-22T09:25:15Z</time>
      </trkpt>
      <trkpt lat="45.17074" lon="5.93709">
        <ele>1989</ele>
        <time>2022-01-22T09:25:16Z</time>
      </trkpt>
      <trkpt lat="45.17072" lon="5.93711">
        <ele>1989</ele>
        <time>2022-01-22T09:25:18Z</time>
      </trkpt>
      <trkpt lat="45.1707" lon="5.93713">
        <ele>1989</ele>
        <time>2022-01-22T09:25:20Z</time>
      </trkpt>
      <trkpt lat="45.17068" lon="5.93714">
        <ele>1989</ele>
        <time>2022-01-22T09:25:22Z</time>
      </trkpt>
      <trkpt lat="45.17066" lon="5.93715">
        <ele>1989</ele>
        <time>2022-01-22T09:25:24Z</time>
      </trkpt>
      <trkpt lat="45.17065" lon="5.93717">
        <ele>1989</ele>
        <time>2022-01-22T09:25:26Z</time>
      </trkpt>
      <trkpt lat="45.17063" lon="5.93718">
        <ele>1988</ele>
        <time>2022-01-22T09:25:28Z</time>
      </trkpt>
      <trkpt lat="45.17061" lon="5.9372">
        <ele>1989</ele>
        <time>2022-01-22T09:25:31Z</time>
      </trkpt>
      <trkpt lat="45.17059" lon="5.93722">
        <ele>1989</ele>
        <time>2022-01-22T09:25:33Z</time>
      </trkpt>
      <trkpt lat="45.17057" lon="5.93722">
        <ele>1989</ele>
        <time>2022-01-22T09:25:35Z</time>
      </trkpt>
      <trkpt lat="45.17055" lon="5.93722">
        <ele>1989</ele>
        <time>2022-01-22T09:25:37Z</time>
      </trkpt>
      <trkpt lat="45.17047" lon="5.93715">
        <ele>1990</ele>
        <time>2022-01-22T09:25:44Z</time>
      </trkpt>
      <trkpt lat="45.1704" lon="5.93725">
        <ele>1992</ele>
        <time>2022-01-22T09:25:54Z</time>
      </trkpt>
      <trkpt lat="45.17035" lon="5.93727">
        <ele>1994</ele>
        <time>2022-01-22T09:26:01Z</time>
      </trkpt>
      <trkpt lat="45.17034" lon="5.9373">
        <ele>1996</ele>
        <time>2022-01-22T09:26:07Z</time>
      </trkpt>
      <trkpt lat="45.17032" lon="5.9373">
        <ele>1996</ele>
        <time>2022-01-22T09:26:10Z</time>
      </trkpt>
      <trkpt lat="45.1703" lon="5.93731">
        <ele>1997</ele>
        <time>2022-01-22T09:26:13Z</time>
      </trkpt>
      <trkpt lat="45.17028" lon="5.93732">
        <ele>1998</ele>
        <time>2022-01-22T09:26:15Z</time>
      </trkpt>
      <trkpt lat="45.17027" lon="5.93732">
        <ele>1998</ele>
        <time>2022-01-22T09:26:17Z</time>
      </trkpt>
      <trkpt lat="45.17024" lon="5.93732">
        <ele>1998</ele>
        <time>2022-01-22T09:26:19Z</time>
      </trkpt>
      <trkpt lat="45.17022" lon="5.93733">
        <ele>1999</ele>
        <time>2022-01-22T09:26:22Z</time>
      </trkpt>
      <trkpt lat="45.1702" lon="5.93734">
        <ele>1999</ele>
        <time>2022-01-22T09:26:25Z</time>
      </trkpt>
      <trkpt lat="45.17017" lon="5.93735">
        <ele>2000</ele>
        <time>2022-01-22T09:26:28Z</time>
      </trkpt>
      <trkpt lat="45.17014" lon="5.93735">
        <ele>2001</ele>
        <time>2022-01-22T09:26:31Z</time>
      </trkpt>
      <trkpt lat="45.17013" lon="5.93736">
        <ele>2001</ele>
        <time>2022-01-22T09:26:33Z</time>
      </trkpt>
      <trkpt lat="45.17011" lon="5.93736">
        <ele>2001</ele>
        <time>2022-01-22T09:26:35Z</time>
      </trkpt>
      <trkpt lat="45.17008" lon="5.93737">
        <ele>2001</ele>
        <time>2022-01-22T09:26:38Z</time>
      </trkpt>
      <trkpt lat="45.17006" lon="5.93738">
        <ele>2001</ele>
        <time>2022-01-22T09:26:40Z</time>
      </trkpt>
      <trkpt lat="45.17004" lon="5.93738">
        <ele>2001</ele>
        <time>2022-01-22T09:26:42Z</time>
      </trkpt>
      <trkpt lat="45.17003" lon="5.93739">
        <ele>2002</ele>
        <time>2022-01-22T09:26:44Z</time>
      </trkpt>
      <trkpt lat="45.17001" lon="5.9374">
        <ele>2002</ele>
        <time>2022-01-22T09:26:46Z</time>
      </trkpt>
      <trkpt lat="45.16998" lon="5.93741">
        <ele>2002</ele>
        <time>2022-01-22T09:26:49Z</time>
      </trkpt>
      <trkpt lat="45.16996" lon="5.93742">
        <ele>2002</ele>
        <time>2022-01-22T09:26:52Z</time>
      </trkpt>
      <trkpt lat="45.16994" lon="5.93743">
        <ele>2003</ele>
        <time>2022-01-22T09:26:54Z</time>
      </trkpt>
      <trkpt lat="45.16992" lon="5.93745">
        <ele>2004</ele>
        <time>2022-01-22T09:26:57Z</time>
      </trkpt>
      <trkpt lat="45.1699" lon="5.93746">
        <ele>2004</ele>
        <time>2022-01-22T09:27:00Z</time>
      </trkpt>
      <trkpt lat="45.16987" lon="5.93748">
        <ele>2005</ele>
        <time>2022-01-22T09:27:03Z</time>
      </trkpt>
      <trkpt lat="45.16985" lon="5.93749">
        <ele>2005</ele>
        <time>2022-01-22T09:27:06Z</time>
      </trkpt>
      <trkpt lat="45.16983" lon="5.9375">
        <ele>2005</ele>
        <time>2022-01-22T09:27:08Z</time>
      </trkpt>
      <trkpt lat="45.16981" lon="5.93752">
        <ele>2007</ele>
        <time>2022-01-22T09:27:11Z</time>
      </trkpt>
      <trkpt lat="45.16979" lon="5.93753">
        <ele>2007</ele>
        <time>2022-01-22T09:27:14Z</time>
      </trkpt>
      <trkpt lat="45.16976" lon="5.93755">
        <ele>2008</ele>
        <time>2022-01-22T09:27:17Z</time>
      </trkpt>
      <trkpt lat="45.16975" lon="5.93757">
        <ele>2009</ele>
        <time>2022-01-22T09:27:19Z</time>
      </trkpt>
      <trkpt lat="45.16973" lon="5.93758">
        <ele>2010</ele>
        <time>2022-01-22T09:27:21Z</time>
      </trkpt>
      <trkpt lat="45.16972" lon="5.9376">
        <ele>2009</ele>
        <time>2022-01-22T09:27:23Z</time>
      </trkpt>
      <trkpt lat="45.1697" lon="5.93761">
        <ele>2010</ele>
        <time>2022-01-22T09:27:25Z</time>
      </trkpt>
      <trkpt lat="45.16967" lon="5.93763">
        <ele>2010</ele>
        <time>2022-01-22T09:27:28Z</time>
      </trkpt>
      <trkpt lat="45.16965" lon="5.93765">
        <ele>2010</ele>
        <time>2022-01-22T09:27:31Z</time>
      </trkpt>
      <trkpt lat="45.16963" lon="5.93767">
        <ele>2010</ele>
        <time>2022-01-22T09:27:34Z</time>
      </trkpt>
      <trkpt lat="45.16961" lon="5.93769">
        <ele>2011</ele>
        <time>2022-01-22T09:27:37Z</time>
      </trkpt>
      <trkpt lat="45.16959" lon="5.9377">
        <ele>2011</ele>
        <time>2022-01-22T09:27:40Z</time>
      </trkpt>
      <trkpt lat="45.16957" lon="5.93772">
        <ele>2012</ele>
        <time>2022-01-22T09:27:43Z</time>
      </trkpt>
      <trkpt lat="45.16955" lon="5.93773">
        <ele>2012</ele>
        <time>2022-01-22T09:27:46Z</time>
      </trkpt>
      <trkpt lat="45.16953" lon="5.93774">
        <ele>2012</ele>
        <time>2022-01-22T09:27:49Z</time>
      </trkpt>
      <trkpt lat="45.16951" lon="5.93776">
        <ele>2012</ele>
        <time>2022-01-22T09:27:52Z</time>
      </trkpt>
      <trkpt lat="45.1695" lon="5.93778">
        <ele>2013</ele>
        <time>2022-01-22T09:27:55Z</time>
      </trkpt>
      <trkpt lat="45.16948" lon="5.93779">
        <ele>2013</ele>
        <time>2022-01-22T09:27:57Z</time>
      </trkpt>
      <trkpt lat="45.16946" lon="5.93782">
        <ele>2013</ele>
        <time>2022-01-22T09:28:00Z</time>
      </trkpt>
      <trkpt lat="45.16944" lon="5.93784">
        <ele>2014</ele>
        <time>2022-01-22T09:28:03Z</time>
      </trkpt>
      <trkpt lat="45.16943" lon="5.93786">
        <ele>2014</ele>
        <time>2022-01-22T09:28:05Z</time>
      </trkpt>
      <trkpt lat="45.16941" lon="5.93788">
        <ele>2014</ele>
        <time>2022-01-22T09:28:08Z</time>
      </trkpt>
      <trkpt lat="45.16939" lon="5.93789">
        <ele>2014</ele>
        <time>2022-01-22T09:28:10Z</time>
      </trkpt>
      <trkpt lat="45.16937" lon="5.93791">
        <ele>2014</ele>
        <time>2022-01-22T09:28:13Z</time>
      </trkpt>
      <trkpt lat="45.16935" lon="5.93793">
        <ele>2015</ele>
        <time>2022-01-22T09:28:16Z</time>
      </trkpt>
      <trkpt lat="45.16933" lon="5.93795">
        <ele>2015</ele>
        <time>2022-01-22T09:28:19Z</time>
      </trkpt>
      <trkpt lat="45.16931" lon="5.93797">
        <ele>2015</ele>
        <time>2022-01-22T09:28:22Z</time>
      </trkpt>
      <trkpt lat="45.16929" lon="5.938">
        <ele>2015</ele>
        <time>2022-01-22T09:28:25Z</time>
      </trkpt>
      <trkpt lat="45.16927" lon="5.93802">
        <ele>2017</ele>
        <time>2022-01-22T09:28:28Z</time>
      </trkpt>
      <trkpt lat="45.16925" lon="5.93803">
        <ele>2017</ele>
        <time>2022-01-22T09:28:30Z</time>
      </trkpt>
      <trkpt lat="45.16924" lon="5.93805">
        <ele>2018</ele>
        <time>2022-01-22T09:28:32Z</time>
      </trkpt>
      <trkpt lat="45.16922" lon="5.93808">
        <ele>2017</ele>
        <time>2022-01-22T09:28:35Z</time>
      </trkpt>
      <trkpt lat="45.1692" lon="5.93809">
        <ele>2017</ele>
        <time>2022-01-22T09:28:37Z</time>
      </trkpt>
      <trkpt lat="45.16919" lon="5.93811">
        <ele>2018</ele>
        <time>2022-01-22T09:28:39Z</time>
      </trkpt>
      <trkpt lat="45.16918" lon="5.93815">
        <ele>2018</ele>
        <time>2022-01-22T09:28:42Z</time>
      </trkpt>
      <trkpt lat="45.16916" lon="5.93817">
        <ele>2018</ele>
        <time>2022-01-22T09:28:45Z</time>
      </trkpt>
      <trkpt lat="45.16914" lon="5.93821">
        <ele>2018</ele>
        <time>2022-01-22T09:28:48Z</time>
      </trkpt>
      <trkpt lat="45.16913" lon="5.93823">
        <ele>2018</ele>
        <time>2022-01-22T09:28:50Z</time>
      </trkpt>
      <trkpt lat="45.16912" lon="5.93825">
        <ele>2018</ele>
        <time>2022-01-22T09:28:52Z</time>
      </trkpt>
      <trkpt lat="45.16911" lon="5.93827">
        <ele>2019</ele>
        <time>2022-01-22T09:28:54Z</time>
      </trkpt>
      <trkpt lat="45.1691" lon="5.9383">
        <ele>2019</ele>
        <time>2022-01-22T09:28:56Z</time>
      </trkpt>
      <trkpt lat="45.16908" lon="5.93833">
        <ele>2019</ele>
        <time>2022-01-22T09:28:59Z</time>
      </trkpt>
      <trkpt lat="45.16906" lon="5.93836">
        <ele>2020</ele>
        <time>2022-01-22T09:29:02Z</time>
      </trkpt>
      <trkpt lat="45.16904" lon="5.93839">
        <ele>2021</ele>
        <time>2022-01-22T09:29:05Z</time>
      </trkpt>
      <trkpt lat="45.16903" lon="5.93842">
        <ele>2020</ele>
        <time>2022-01-22T09:29:08Z</time>
      </trkpt>
      <trkpt lat="45.16902" lon="5.93844">
        <ele>2021</ele>
        <time>2022-01-22T09:29:10Z</time>
      </trkpt>
      <trkpt lat="45.169" lon="5.93846">
        <ele>2022</ele>
        <time>2022-01-22T09:29:12Z</time>
      </trkpt>
      <trkpt lat="45.16899" lon="5.93848">
        <ele>2022</ele>
        <time>2022-01-22T09:29:15Z</time>
      </trkpt>
      <trkpt lat="45.16897" lon="5.93851">
        <ele>2023</ele>
        <time>2022-01-22T09:29:18Z</time>
      </trkpt>
      <trkpt lat="45.16895" lon="5.93853">
        <ele>2023</ele>
        <time>2022-01-22T09:29:21Z</time>
      </trkpt>
      <trkpt lat="45.16893" lon="5.93855">
        <ele>2024</ele>
        <time>2022-01-22T09:29:24Z</time>
      </trkpt>
      <trkpt lat="45.16891" lon="5.93857">
        <ele>2024</ele>
        <time>2022-01-22T09:29:26Z</time>
      </trkpt>
      <trkpt lat="45.1689" lon="5.93859">
        <ele>2024</ele>
        <time>2022-01-22T09:29:28Z</time>
      </trkpt>
      <trkpt lat="45.16889" lon="5.93861">
        <ele>2024</ele>
        <time>2022-01-22T09:29:30Z</time>
      </trkpt>
      <trkpt lat="45.16887" lon="5.93863">
        <ele>2023</ele>
        <time>2022-01-22T09:29:32Z</time>
      </trkpt>
      <trkpt lat="45.16886" lon="5.93865">
        <ele>2025</ele>
        <time>2022-01-22T09:29:34Z</time>
      </trkpt>
      <trkpt lat="45.16884" lon="5.93867">
        <ele>2024</ele>
        <time>2022-01-22T09:29:36Z</time>
      </trkpt>
      <trkpt lat="45.16883" lon="5.93869">
        <ele>2024</ele>
        <time>2022-01-22T09:29:38Z</time>
      </trkpt>
      <trkpt lat="45.16882" lon="5.93871">
        <ele>2024</ele>
        <time>2022-01-22T09:29:40Z</time>
      </trkpt>
      <trkpt lat="45.1688" lon="5.93873">
        <ele>2024</ele>
        <time>2022-01-22T09:29:42Z</time>
      </trkpt>
      <trkpt lat="45.16879" lon="5.93875">
        <ele>2025</ele>
        <time>2022-01-22T09:29:45Z</time>
      </trkpt>
      <trkpt lat="45.16877" lon="5.93877">
        <ele>2025</ele>
        <time>2022-01-22T09:29:47Z</time>
      </trkpt>
      <trkpt lat="45.16876" lon="5.9388">
        <ele>2025</ele>
        <time>2022-01-22T09:29:49Z</time>
      </trkpt>
      <trkpt lat="45.16875" lon="5.93882">
        <ele>2025</ele>
        <time>2022-01-22T09:29:51Z</time>
      </trkpt>
      <trkpt lat="45.16873" lon="5.93884">
        <ele>2025</ele>
        <time>2022-01-22T09:29:53Z</time>
      </trkpt>
      <trkpt lat="45.16872" lon="5.93886">
        <ele>2026</ele>
        <time>2022-01-22T09:29:55Z</time>
      </trkpt>
      <trkpt lat="45.16871" lon="5.93888">
        <ele>2026</ele>
        <time>2022-01-22T09:29:57Z</time>
      </trkpt>
      <trkpt lat="45.16869" lon="5.9389">
        <ele>2026</ele>
        <time>2022-01-22T09:29:59Z</time>
      </trkpt>
      <trkpt lat="45.16868" lon="5.93891">
        <ele>2026</ele>
        <time>2022-01-22T09:30:01Z</time>
      </trkpt>
      <trkpt lat="45.16866" lon="5.93893">
        <ele>2027</ele>
        <time>2022-01-22T09:30:03Z</time>
      </trkpt>
      <trkpt lat="45.16865" lon="5.93895">
        <ele>2027</ele>
        <time>2022-01-22T09:30:05Z</time>
      </trkpt>
      <trkpt lat="45.16863" lon="5.93897">
        <ele>2027</ele>
        <time>2022-01-22T09:30:08Z</time>
      </trkpt>
      <trkpt lat="45.16861" lon="5.93899">
        <ele>2027</ele>
        <time>2022-01-22T09:30:11Z</time>
      </trkpt>
      <trkpt lat="45.16859" lon="5.939">
        <ele>2027</ele>
        <time>2022-01-22T09:30:13Z</time>
      </trkpt>
      <trkpt lat="45.16857" lon="5.93902">
        <ele>2028</ele>
        <time>2022-01-22T09:30:15Z</time>
      </trkpt>
      <trkpt lat="45.16855" lon="5.93903">
        <ele>2028</ele>
        <time>2022-01-22T09:30:17Z</time>
      </trkpt>
      <trkpt lat="45.16853" lon="5.93904">
        <ele>2028</ele>
        <time>2022-01-22T09:30:19Z</time>
      </trkpt>
      <trkpt lat="45.16851" lon="5.93905">
        <ele>2028</ele>
        <time>2022-01-22T09:30:21Z</time>
      </trkpt>
      <trkpt lat="45.1685" lon="5.93906">
        <ele>2029</ele>
        <time>2022-01-22T09:30:23Z</time>
      </trkpt>
      <trkpt lat="45.16847" lon="5.93907">
        <ele>2029</ele>
        <time>2022-01-22T09:30:25Z</time>
      </trkpt>
      <trkpt lat="45.16846" lon="5.93907">
        <ele>2029</ele>
        <time>2022-01-22T09:30:27Z</time>
      </trkpt>
      <trkpt lat="45.16844" lon="5.93908">
        <ele>2029</ele>
        <time>2022-01-22T09:30:29Z</time>
      </trkpt>
      <trkpt lat="45.16841" lon="5.93909">
        <ele>2030</ele>
        <time>2022-01-22T09:30:32Z</time>
      </trkpt>
      <trkpt lat="45.16839" lon="5.9391">
        <ele>2030</ele>
        <time>2022-01-22T09:30:34Z</time>
      </trkpt>
      <trkpt lat="45.16837" lon="5.93911">
        <ele>2030</ele>
        <time>2022-01-22T09:30:36Z</time>
      </trkpt>
      <trkpt lat="45.16835" lon="5.93911">
        <ele>2030</ele>
        <time>2022-01-22T09:30:38Z</time>
      </trkpt>
      <trkpt lat="45.16833" lon="5.93912">
        <ele>2030</ele>
        <time>2022-01-22T09:30:40Z</time>
      </trkpt>
      <trkpt lat="45.16831" lon="5.93912">
        <ele>2030</ele>
        <time>2022-01-22T09:30:42Z</time>
      </trkpt>
      <trkpt lat="45.16829" lon="5.93912">
        <ele>2031</ele>
        <time>2022-01-22T09:30:44Z</time>
      </trkpt>
      <trkpt lat="45.16827" lon="5.93912">
        <ele>2031</ele>
        <time>2022-01-22T09:30:46Z</time>
      </trkpt>
      <trkpt lat="45.16825" lon="5.93912">
        <ele>2031</ele>
        <time>2022-01-22T09:30:48Z</time>
      </trkpt>
      <trkpt lat="45.16823" lon="5.93911">
        <ele>2031</ele>
        <time>2022-01-22T09:30:50Z</time>
      </trkpt>
      <trkpt lat="45.16821" lon="5.93911">
        <ele>2032</ele>
        <time>2022-01-22T09:30:52Z</time>
      </trkpt>
      <trkpt lat="45.16819" lon="5.9391">
        <ele>2032</ele>
        <time>2022-01-22T09:30:54Z</time>
      </trkpt>
      <trkpt lat="45.16817" lon="5.93909">
        <ele>2032</ele>
        <time>2022-01-22T09:30:56Z</time>
      </trkpt>
      <trkpt lat="45.16815" lon="5.93908">
        <ele>2032</ele>
        <time>2022-01-22T09:30:59Z</time>
      </trkpt>
      <trkpt lat="45.16813" lon="5.93907">
        <ele>2032</ele>
        <time>2022-01-22T09:31:01Z</time>
      </trkpt>
      <trkpt lat="45.16811" lon="5.93906">
        <ele>2032</ele>
        <time>2022-01-22T09:31:03Z</time>
      </trkpt>
      <trkpt lat="45.16809" lon="5.93906">
        <ele>2032</ele>
        <time>2022-01-22T09:31:05Z</time>
      </trkpt>
      <trkpt lat="45.16807" lon="5.93905">
        <ele>2033</ele>
        <time>2022-01-22T09:31:07Z</time>
      </trkpt>
      <trkpt lat="45.16805" lon="5.93904">
        <ele>2033</ele>
        <time>2022-01-22T09:31:09Z</time>
      </trkpt>
      <trkpt lat="45.16803" lon="5.93902">
        <ele>2033</ele>
        <time>2022-01-22T09:31:12Z</time>
      </trkpt>
      <trkpt lat="45.168" lon="5.93901">
        <ele>2033</ele>
        <time>2022-01-22T09:31:15Z</time>
      </trkpt>
      <trkpt lat="45.16798" lon="5.939">
        <ele>2033</ele>
        <time>2022-01-22T09:31:17Z</time>
      </trkpt>
      <trkpt lat="45.16796" lon="5.93899">
        <ele>2034</ele>
        <time>2022-01-22T09:31:19Z</time>
      </trkpt>
      <trkpt lat="45.16795" lon="5.93897">
        <ele>2034</ele>
        <time>2022-01-22T09:31:21Z</time>
      </trkpt>
      <trkpt lat="45.16794" lon="5.93895">
        <ele>2036</ele>
        <time>2022-01-22T09:31:23Z</time>
      </trkpt>
      <trkpt lat="45.16792" lon="5.93893">
        <ele>2037</ele>
        <time>2022-01-22T09:31:26Z</time>
      </trkpt>
      <trkpt lat="45.1679" lon="5.93892">
        <ele>2037</ele>
        <time>2022-01-22T09:31:30Z</time>
      </trkpt>
      <trkpt lat="45.16788" lon="5.93894">
        <ele>2037</ele>
        <time>2022-01-22T09:31:34Z</time>
      </trkpt>
      <trkpt lat="45.16786" lon="5.93896">
        <ele>2037</ele>
        <time>2022-01-22T09:31:37Z</time>
      </trkpt>
      <trkpt lat="45.16785" lon="5.93899">
        <ele>2038</ele>
        <time>2022-01-22T09:31:40Z</time>
      </trkpt>
      <trkpt lat="45.16784" lon="5.93901">
        <ele>2039</ele>
        <time>2022-01-22T09:31:42Z</time>
      </trkpt>
      <trkpt lat="45.16782" lon="5.93902">
        <ele>2040</ele>
        <time>2022-01-22T09:31:45Z</time>
      </trkpt>
      <trkpt lat="45.1678" lon="5.93903">
        <ele>2042</ele>
        <time>2022-01-22T09:31:47Z</time>
      </trkpt>
      <trkpt lat="45.16777" lon="5.93904">
        <ele>2043</ele>
        <time>2022-01-22T09:31:50Z</time>
      </trkpt>
      <trkpt lat="45.16775" lon="5.93905">
        <ele>2044</ele>
        <time>2022-01-22T09:31:53Z</time>
      </trkpt>
      <trkpt lat="45.16773" lon="5.93907">
        <ele>2044</ele>
        <time>2022-01-22T09:31:56Z</time>
      </trkpt>
      <trkpt lat="45.16771" lon="5.93909">
        <ele>2045</ele>
        <time>2022-01-22T09:31:58Z</time>
      </trkpt>
      <trkpt lat="45.16769" lon="5.93911">
        <ele>2045</ele>
        <time>2022-01-22T09:32:01Z</time>
      </trkpt>
      <trkpt lat="45.16767" lon="5.93914">
        <ele>2046</ele>
        <time>2022-01-22T09:32:04Z</time>
      </trkpt>
      <trkpt lat="45.16766" lon="5.93916">
        <ele>2047</ele>
        <time>2022-01-22T09:32:07Z</time>
      </trkpt>
      <trkpt lat="45.16764" lon="5.9392">
        <ele>2048</ele>
        <time>2022-01-22T09:32:10Z</time>
      </trkpt>
      <trkpt lat="45.16762" lon="5.93923">
        <ele>2049</ele>
        <time>2022-01-22T09:32:13Z</time>
      </trkpt>
      <trkpt lat="45.16761" lon="5.93925">
        <ele>2049</ele>
        <time>2022-01-22T09:32:16Z</time>
      </trkpt>
      <trkpt lat="45.16759" lon="5.93928">
        <ele>2050</ele>
        <time>2022-01-22T09:32:19Z</time>
      </trkpt>
      <trkpt lat="45.16757" lon="5.9393">
        <ele>2050</ele>
        <time>2022-01-22T09:32:21Z</time>
      </trkpt>
      <trkpt lat="45.16756" lon="5.93932">
        <ele>2049</ele>
        <time>2022-01-22T09:32:23Z</time>
      </trkpt>
      <trkpt lat="45.16755" lon="5.93935">
        <ele>2049</ele>
        <time>2022-01-22T09:32:25Z</time>
      </trkpt>
      <trkpt lat="45.16754" lon="5.93938">
        <ele>2049</ele>
        <time>2022-01-22T09:32:27Z</time>
      </trkpt>
      <trkpt lat="45.16753" lon="5.93942">
        <ele>2049</ele>
        <time>2022-01-22T09:32:29Z</time>
      </trkpt>
      <trkpt lat="45.16752" lon="5.93946">
        <ele>2049</ele>
        <time>2022-01-22T09:32:31Z</time>
      </trkpt>
      <trkpt lat="45.16751" lon="5.9395">
        <ele>2049</ele>
        <time>2022-01-22T09:32:33Z</time>
      </trkpt>
      <trkpt lat="45.16751" lon="5.93953">
        <ele>2049</ele>
        <time>2022-01-22T09:32:35Z</time>
      </trkpt>
      <trkpt lat="45.16751" lon="5.93956">
        <ele>2049</ele>
        <time>2022-01-22T09:32:37Z</time>
      </trkpt>
      <trkpt lat="45.1675" lon="5.9396">
        <ele>2049</ele>
        <time>2022-01-22T09:32:39Z</time>
      </trkpt>
      <trkpt lat="45.1675" lon="5.93963">
        <ele>2048</ele>
        <time>2022-01-22T09:32:41Z</time>
      </trkpt>
      <trkpt lat="45.1675" lon="5.93967">
        <ele>2048</ele>
        <time>2022-01-22T09:32:43Z</time>
      </trkpt>
      <trkpt lat="45.16749" lon="5.9397">
        <ele>2048</ele>
        <time>2022-01-22T09:32:45Z</time>
      </trkpt>
      <trkpt lat="45.16749" lon="5.93973">
        <ele>2048</ele>
        <time>2022-01-22T09:32:47Z</time>
      </trkpt>
      <trkpt lat="45.16748" lon="5.93977">
        <ele>2049</ele>
        <time>2022-01-22T09:32:49Z</time>
      </trkpt>
      <trkpt lat="45.16748" lon="5.9398">
        <ele>2049</ele>
        <time>2022-01-22T09:32:51Z</time>
      </trkpt>
      <trkpt lat="45.16747" lon="5.93983">
        <ele>2049</ele>
        <time>2022-01-22T09:32:53Z</time>
      </trkpt>
      <trkpt lat="45.16746" lon="5.93987">
        <ele>2049</ele>
        <time>2022-01-22T09:32:55Z</time>
      </trkpt>
      <trkpt lat="45.16745" lon="5.9399">
        <ele>2049</ele>
        <time>2022-01-22T09:32:57Z</time>
      </trkpt>
      <trkpt lat="45.16744" lon="5.93993">
        <ele>2049</ele>
        <time>2022-01-22T09:32:59Z</time>
      </trkpt>
      <trkpt lat="45.16742" lon="5.93996">
        <ele>2049</ele>
        <time>2022-01-22T09:33:01Z</time>
      </trkpt>
      <trkpt lat="45.16741" lon="5.93999">
        <ele>2049</ele>
        <time>2022-01-22T09:33:03Z</time>
      </trkpt>
      <trkpt lat="45.1674" lon="5.94002">
        <ele>2049</ele>
        <time>2022-01-22T09:33:05Z</time>
      </trkpt>
      <trkpt lat="45.16739" lon="5.94005">
        <ele>2049</ele>
        <time>2022-01-22T09:33:07Z</time>
      </trkpt>
      <trkpt lat="45.16737" lon="5.94008">
        <ele>2049</ele>
        <time>2022-01-22T09:33:09Z</time>
      </trkpt>
      <trkpt lat="45.16735" lon="5.94011">
        <ele>2049</ele>
        <time>2022-01-22T09:33:11Z</time>
      </trkpt>
      <trkpt lat="45.16734" lon="5.94014">
        <ele>2049</ele>
        <time>2022-01-22T09:33:13Z</time>
      </trkpt>
      <trkpt lat="45.16733" lon="5.94017">
        <ele>2049</ele>
        <time>2022-01-22T09:33:15Z</time>
      </trkpt>
      <trkpt lat="45.16732" lon="5.9402">
        <ele>2049</ele>
        <time>2022-01-22T09:33:17Z</time>
      </trkpt>
      <trkpt lat="45.16731" lon="5.94022">
        <ele>2049</ele>
        <time>2022-01-22T09:33:19Z</time>
      </trkpt>
      <trkpt lat="45.16729" lon="5.94025">
        <ele>2049</ele>
        <time>2022-01-22T09:33:21Z</time>
      </trkpt>
      <trkpt lat="45.16728" lon="5.94027">
        <ele>2049</ele>
        <time>2022-01-22T09:33:23Z</time>
      </trkpt>
      <trkpt lat="45.16726" lon="5.94029">
        <ele>2051</ele>
        <time>2022-01-22T09:33:25Z</time>
      </trkpt>
      <trkpt lat="45.16724" lon="5.94032">
        <ele>2051</ele>
        <time>2022-01-22T09:33:28Z</time>
      </trkpt>
      <trkpt lat="45.16723" lon="5.94034">
        <ele>2051</ele>
        <time>2022-01-22T09:33:31Z</time>
      </trkpt>
      <trkpt lat="45.16722" lon="5.94037">
        <ele>2051</ele>
        <time>2022-01-22T09:33:34Z</time>
      </trkpt>
      <trkpt lat="45.16721" lon="5.94039">
        <ele>2052</ele>
        <time>2022-01-22T09:33:37Z</time>
      </trkpt>
      <trkpt lat="45.16719" lon="5.94042">
        <ele>2053</ele>
        <time>2022-01-22T09:33:40Z</time>
      </trkpt>
      <trkpt lat="45.16718" lon="5.94044">
        <ele>2053</ele>
        <time>2022-01-22T09:33:43Z</time>
      </trkpt>
      <trkpt lat="45.16717" lon="5.94047">
        <ele>2053</ele>
        <time>2022-01-22T09:33:46Z</time>
      </trkpt>
      <trkpt lat="45.16716" lon="5.94049">
        <ele>2054</ele>
        <time>2022-01-22T09:33:49Z</time>
      </trkpt>
      <trkpt lat="45.16714" lon="5.94052">
        <ele>2055</ele>
        <time>2022-01-22T09:33:52Z</time>
      </trkpt>
      <trkpt lat="45.16713" lon="5.94055">
        <ele>2055</ele>
        <time>2022-01-22T09:33:55Z</time>
      </trkpt>
      <trkpt lat="45.16713" lon="5.94057">
        <ele>2056</ele>
        <time>2022-01-22T09:33:58Z</time>
      </trkpt>
      <trkpt lat="45.16712" lon="5.9406">
        <ele>2057</ele>
        <time>2022-01-22T09:34:01Z</time>
      </trkpt>
      <trkpt lat="45.1671" lon="5.94062">
        <ele>2058</ele>
        <time>2022-01-22T09:34:04Z</time>
      </trkpt>
      <trkpt lat="45.16709" lon="5.94065">
        <ele>2059</ele>
        <time>2022-01-22T09:34:07Z</time>
      </trkpt>
      <trkpt lat="45.16707" lon="5.94068">
        <ele>2058</ele>
        <time>2022-01-22T09:34:10Z</time>
      </trkpt>
      <trkpt lat="45.16707" lon="5.9407">
        <ele>2059</ele>
        <time>2022-01-22T09:34:13Z</time>
      </trkpt>
      <trkpt lat="45.16705" lon="5.94073">
        <ele>2059</ele>
        <time>2022-01-22T09:34:16Z</time>
      </trkpt>
      <trkpt lat="45.16704" lon="5.94075">
        <ele>2059</ele>
        <time>2022-01-22T09:34:18Z</time>
      </trkpt>
      <trkpt lat="45.16703" lon="5.94079">
        <ele>2059</ele>
        <time>2022-01-22T09:34:21Z</time>
      </trkpt>
      <trkpt lat="45.16701" lon="5.94081">
        <ele>2059</ele>
        <time>2022-01-22T09:34:24Z</time>
      </trkpt>
      <trkpt lat="45.16699" lon="5.94083">
        <ele>2059</ele>
        <time>2022-01-22T09:34:26Z</time>
      </trkpt>
      <trkpt lat="45.16697" lon="5.94086">
        <ele>2060</ele>
        <time>2022-01-22T09:34:28Z</time>
      </trkpt>
      <trkpt lat="45.16696" lon="5.94087">
        <ele>2060</ele>
        <time>2022-01-22T09:34:30Z</time>
      </trkpt>
      <trkpt lat="45.16695" lon="5.94089">
        <ele>2060</ele>
        <time>2022-01-22T09:34:32Z</time>
      </trkpt>
      <trkpt lat="45.16694" lon="5.94092">
        <ele>2061</ele>
        <time>2022-01-22T09:34:34Z</time>
      </trkpt>
      <trkpt lat="45.16693" lon="5.94095">
        <ele>2061</ele>
        <time>2022-01-22T09:34:36Z</time>
      </trkpt>
      <trkpt lat="45.16692" lon="5.94097">
        <ele>2061</ele>
        <time>2022-01-22T09:34:38Z</time>
      </trkpt>
      <trkpt lat="45.1669" lon="5.94099">
        <ele>2061</ele>
        <time>2022-01-22T09:34:40Z</time>
      </trkpt>
      <trkpt lat="45.16689" lon="5.94101">
        <ele>2061</ele>
        <time>2022-01-22T09:34:42Z</time>
      </trkpt>
      <trkpt lat="45.16687" lon="5.94103">
        <ele>2061</ele>
        <time>2022-01-22T09:34:44Z</time>
      </trkpt>
      <trkpt lat="45.16685" lon="5.94105">
        <ele>2061</ele>
        <time>2022-01-22T09:34:46Z</time>
      </trkpt>
      <trkpt lat="45.16683" lon="5.94107">
        <ele>2061</ele>
        <time>2022-01-22T09:34:48Z</time>
      </trkpt>
      <trkpt lat="45.16682" lon="5.94109">
        <ele>2060</ele>
        <time>2022-01-22T09:34:50Z</time>
      </trkpt>
      <trkpt lat="45.1668" lon="5.94111">
        <ele>2060</ele>
        <time>2022-01-22T09:34:52Z</time>
      </trkpt>
      <trkpt lat="45.16678" lon="5.94113">
        <ele>2060</ele>
        <time>2022-01-22T09:34:54Z</time>
      </trkpt>
      <trkpt lat="45.16676" lon="5.94115">
        <ele>2060</ele>
        <time>2022-01-22T09:34:56Z</time>
      </trkpt>
      <trkpt lat="45.16674" lon="5.94116">
        <ele>2060</ele>
        <time>2022-01-22T09:34:58Z</time>
      </trkpt>
      <trkpt lat="45.16672" lon="5.94117">
        <ele>2060</ele>
        <time>2022-01-22T09:35:00Z</time>
      </trkpt>
      <trkpt lat="45.16671" lon="5.94118">
        <ele>2061</ele>
        <time>2022-01-22T09:35:02Z</time>
      </trkpt>
      <trkpt lat="45.16669" lon="5.9412">
        <ele>2061</ele>
        <time>2022-01-22T09:35:04Z</time>
      </trkpt>
      <trkpt lat="45.16667" lon="5.94121">
        <ele>2061</ele>
        <time>2022-01-22T09:35:06Z</time>
      </trkpt>
      <trkpt lat="45.16665" lon="5.94122">
        <ele>2061</ele>
        <time>2022-01-22T09:35:08Z</time>
      </trkpt>
      <trkpt lat="45.16664" lon="5.94124">
        <ele>2061</ele>
        <time>2022-01-22T09:35:10Z</time>
      </trkpt>
      <trkpt lat="45.16662" lon="5.94125">
        <ele>2061</ele>
        <time>2022-01-22T09:35:12Z</time>
      </trkpt>
      <trkpt lat="45.1666" lon="5.94126">
        <ele>2061</ele>
        <time>2022-01-22T09:35:14Z</time>
      </trkpt>
      <trkpt lat="45.16658" lon="5.94127">
        <ele>2061</ele>
        <time>2022-01-22T09:35:16Z</time>
      </trkpt>
      <trkpt lat="45.16657" lon="5.94129">
        <ele>2061</ele>
        <time>2022-01-22T09:35:18Z</time>
      </trkpt>
      <trkpt lat="45.16655" lon="5.9413">
        <ele>2061</ele>
        <time>2022-01-22T09:35:20Z</time>
      </trkpt>
      <trkpt lat="45.16653" lon="5.94131">
        <ele>2062</ele>
        <time>2022-01-22T09:35:22Z</time>
      </trkpt>
      <trkpt lat="45.16651" lon="5.94132">
        <ele>2062</ele>
        <time>2022-01-22T09:35:24Z</time>
      </trkpt>
      <trkpt lat="45.1665" lon="5.94133">
        <ele>2062</ele>
        <time>2022-01-22T09:35:26Z</time>
      </trkpt>
      <trkpt lat="45.16648" lon="5.94134">
        <ele>2062</ele>
        <time>2022-01-22T09:35:28Z</time>
      </trkpt>
      <trkpt lat="45.16646" lon="5.94135">
        <ele>2062</ele>
        <time>2022-01-22T09:35:30Z</time>
      </trkpt>
      <trkpt lat="45.16644" lon="5.94136">
        <ele>2063</ele>
        <time>2022-01-22T09:35:32Z</time>
      </trkpt>
      <trkpt lat="45.16642" lon="5.94137">
        <ele>2063</ele>
        <time>2022-01-22T09:35:35Z</time>
      </trkpt>
      <trkpt lat="45.16639" lon="5.94137">
        <ele>2064</ele>
        <time>2022-01-22T09:35:38Z</time>
      </trkpt>
      <trkpt lat="45.16637" lon="5.94138">
        <ele>2064</ele>
        <time>2022-01-22T09:35:40Z</time>
      </trkpt>
      <trkpt lat="45.16635" lon="5.94139">
        <ele>2064</ele>
        <time>2022-01-22T09:35:42Z</time>
      </trkpt>
      <trkpt lat="45.16633" lon="5.94139">
        <ele>2064</ele>
        <time>2022-01-22T09:35:44Z</time>
      </trkpt>
      <trkpt lat="45.16631" lon="5.94139">
        <ele>2065</ele>
        <time>2022-01-22T09:35:47Z</time>
      </trkpt>
      <trkpt lat="45.16628" lon="5.9414">
        <ele>2065</ele>
        <time>2022-01-22T09:35:50Z</time>
      </trkpt>
      <trkpt lat="45.16626" lon="5.9414">
        <ele>2066</ele>
        <time>2022-01-22T09:35:53Z</time>
      </trkpt>
      <trkpt lat="45.16624" lon="5.9414">
        <ele>2066</ele>
        <time>2022-01-22T09:35:55Z</time>
      </trkpt>
      <trkpt lat="45.16622" lon="5.9414">
        <ele>2067</ele>
        <time>2022-01-22T09:35:57Z</time>
      </trkpt>
      <trkpt lat="45.16619" lon="5.94141">
        <ele>2068</ele>
        <time>2022-01-22T09:36:00Z</time>
      </trkpt>
      <trkpt lat="45.16617" lon="5.94141">
        <ele>2068</ele>
        <time>2022-01-22T09:36:03Z</time>
      </trkpt>
      <trkpt lat="45.16614" lon="5.94141">
        <ele>2069</ele>
        <time>2022-01-22T09:36:06Z</time>
      </trkpt>
      <trkpt lat="45.16611" lon="5.94141">
        <ele>2070</ele>
        <time>2022-01-22T09:36:09Z</time>
      </trkpt>
      <trkpt lat="45.16608" lon="5.94141">
        <ele>2070</ele>
        <time>2022-01-22T09:36:12Z</time>
      </trkpt>
      <trkpt lat="45.16607" lon="5.94141">
        <ele>2070</ele>
        <time>2022-01-22T09:36:14Z</time>
      </trkpt>
      <trkpt lat="45.16605" lon="5.94141">
        <ele>2070</ele>
        <time>2022-01-22T09:36:16Z</time>
      </trkpt>
      <trkpt lat="45.16603" lon="5.94141">
        <ele>2071</ele>
        <time>2022-01-22T09:36:18Z</time>
      </trkpt>
      <trkpt lat="45.166" lon="5.94141">
        <ele>2072</ele>
        <time>2022-01-22T09:36:21Z</time>
      </trkpt>
      <trkpt lat="45.16597" lon="5.9414">
        <ele>2072</ele>
        <time>2022-01-22T09:36:24Z</time>
      </trkpt>
      <trkpt lat="45.16595" lon="5.9414">
        <ele>2072</ele>
        <time>2022-01-22T09:36:27Z</time>
      </trkpt>
      <trkpt lat="45.16593" lon="5.94141">
        <ele>2072</ele>
        <time>2022-01-22T09:36:29Z</time>
      </trkpt>
      <trkpt lat="45.16591" lon="5.94142">
        <ele>2072</ele>
        <time>2022-01-22T09:36:31Z</time>
      </trkpt>
      <trkpt lat="45.16589" lon="5.94144">
        <ele>2073</ele>
        <time>2022-01-22T09:36:34Z</time>
      </trkpt>
      <trkpt lat="45.16587" lon="5.94145">
        <ele>2073</ele>
        <time>2022-01-22T09:36:36Z</time>
      </trkpt>
      <trkpt lat="45.16585" lon="5.94146">
        <ele>2073</ele>
        <time>2022-01-22T09:36:39Z</time>
      </trkpt>
      <trkpt lat="45.16582" lon="5.94146">
        <ele>2074</ele>
        <time>2022-01-22T09:36:43Z</time>
      </trkpt>
      <trkpt lat="45.1658" lon="5.94147">
        <ele>2074</ele>
        <time>2022-01-22T09:36:46Z</time>
      </trkpt>
      <trkpt lat="45.16578" lon="5.94149">
        <ele>2075</ele>
        <time>2022-01-22T09:36:49Z</time>
      </trkpt>
      <trkpt lat="45.16576" lon="5.94151">
        <ele>2076</ele>
        <time>2022-01-22T09:36:52Z</time>
      </trkpt>
      <trkpt lat="45.16574" lon="5.94154">
        <ele>2076</ele>
        <time>2022-01-22T09:36:55Z</time>
      </trkpt>
      <trkpt lat="45.16573" lon="5.94157">
        <ele>2077</ele>
        <time>2022-01-22T09:36:58Z</time>
      </trkpt>
      <trkpt lat="45.16571" lon="5.9416">
        <ele>2078</ele>
        <time>2022-01-22T09:37:01Z</time>
      </trkpt>
      <trkpt lat="45.1657" lon="5.94163">
        <ele>2079</ele>
        <time>2022-01-22T09:37:04Z</time>
      </trkpt>
      <trkpt lat="45.16568" lon="5.94167">
        <ele>2079</ele>
        <time>2022-01-22T09:37:07Z</time>
      </trkpt>
      <trkpt lat="45.16567" lon="5.94169">
        <ele>2079</ele>
        <time>2022-01-22T09:37:09Z</time>
      </trkpt>
      <trkpt lat="45.16567" lon="5.94172">
        <ele>2080</ele>
        <time>2022-01-22T09:37:11Z</time>
      </trkpt>
      <trkpt lat="45.16566" lon="5.94175">
        <ele>2080</ele>
        <time>2022-01-22T09:37:13Z</time>
      </trkpt>
      <trkpt lat="45.16566" lon="5.94177">
        <ele>2080</ele>
        <time>2022-01-22T09:37:15Z</time>
      </trkpt>
      <trkpt lat="45.16565" lon="5.9418">
        <ele>2080</ele>
        <time>2022-01-22T09:37:17Z</time>
      </trkpt>
      <trkpt lat="45.16564" lon="5.94184">
        <ele>2080</ele>
        <time>2022-01-22T09:37:19Z</time>
      </trkpt>
      <trkpt lat="45.16562" lon="5.94187">
        <ele>2080</ele>
        <time>2022-01-22T09:37:21Z</time>
      </trkpt>
      <trkpt lat="45.16561" lon="5.9419">
        <ele>2080</ele>
        <time>2022-01-22T09:37:22Z</time>
      </trkpt>
      <trkpt lat="45.16559" lon="5.94193">
        <ele>2079</ele>
        <time>2022-01-22T09:37:24Z</time>
      </trkpt>
      <trkpt lat="45.16558" lon="5.94195">
        <ele>2078</ele>
        <time>2022-01-22T09:37:26Z</time>
      </trkpt>
      <trkpt lat="45.16557" lon="5.94198">
        <ele>2078</ele>
        <time>2022-01-22T09:37:28Z</time>
      </trkpt>
      <trkpt lat="45.16555" lon="5.94201">
        <ele>2079</ele>
        <time>2022-01-22T09:37:31Z</time>
      </trkpt>
      <trkpt lat="45.16553" lon="5.94204">
        <ele>2080</ele>
        <time>2022-01-22T09:37:34Z</time>
      </trkpt>
      <trkpt lat="45.16553" lon="5.94206">
        <ele>2080</ele>
        <time>2022-01-22T09:37:36Z</time>
      </trkpt>
      <trkpt lat="45.16551" lon="5.94209">
        <ele>2081</ele>
        <time>2022-01-22T09:37:38Z</time>
      </trkpt>
      <trkpt lat="45.1655" lon="5.9421">
        <ele>2081</ele>
        <time>2022-01-22T09:37:40Z</time>
      </trkpt>
      <trkpt lat="45.16549" lon="5.94212">
        <ele>2081</ele>
        <time>2022-01-22T09:37:42Z</time>
      </trkpt>
      <trkpt lat="45.16547" lon="5.94214">
        <ele>2081</ele>
        <time>2022-01-22T09:37:44Z</time>
      </trkpt>
      <trkpt lat="45.16546" lon="5.94216">
        <ele>2082</ele>
        <time>2022-01-22T09:37:46Z</time>
      </trkpt>
      <trkpt lat="45.16544" lon="5.94218">
        <ele>2082</ele>
        <time>2022-01-22T09:37:48Z</time>
      </trkpt>
      <trkpt lat="45.16543" lon="5.94221">
        <ele>2083</ele>
        <time>2022-01-22T09:37:51Z</time>
      </trkpt>
      <trkpt lat="45.16541" lon="5.94223">
        <ele>2084</ele>
        <time>2022-01-22T09:37:53Z</time>
      </trkpt>
      <trkpt lat="45.1654" lon="5.94225">
        <ele>2084</ele>
        <time>2022-01-22T09:37:55Z</time>
      </trkpt>
      <trkpt lat="45.16539" lon="5.94227">
        <ele>2084</ele>
        <time>2022-01-22T09:37:57Z</time>
      </trkpt>
      <trkpt lat="45.16538" lon="5.9423">
        <ele>2084</ele>
        <time>2022-01-22T09:37:59Z</time>
      </trkpt>
      <trkpt lat="45.16537" lon="5.94232">
        <ele>2084</ele>
        <time>2022-01-22T09:38:01Z</time>
      </trkpt>
      <trkpt lat="45.16536" lon="5.94234">
        <ele>2084</ele>
        <time>2022-01-22T09:38:03Z</time>
      </trkpt>
      <trkpt lat="45.16535" lon="5.94237">
        <ele>2086</ele>
        <time>2022-01-22T09:38:05Z</time>
      </trkpt>
      <trkpt lat="45.16534" lon="5.94239">
        <ele>2086</ele>
        <time>2022-01-22T09:38:07Z</time>
      </trkpt>
      <trkpt lat="45.16533" lon="5.94243">
        <ele>2086</ele>
        <time>2022-01-22T09:38:10Z</time>
      </trkpt>
      <trkpt lat="45.16532" lon="5.94245">
        <ele>2086</ele>
        <time>2022-01-22T09:38:16Z</time>
      </trkpt>
      <trkpt lat="45.16532" lon="5.94248">
        <ele>2087</ele>
        <time>2022-01-22T09:38:18Z</time>
      </trkpt>
      <trkpt lat="45.16531" lon="5.94251">
        <ele>2087</ele>
        <time>2022-01-22T09:38:19Z</time>
      </trkpt>
      <trkpt lat="45.16529" lon="5.94253">
        <ele>2086</ele>
        <time>2022-01-22T09:38:20Z</time>
      </trkpt>
      <trkpt lat="45.16527" lon="5.94255">
        <ele>2084</ele>
        <time>2022-01-22T09:38:22Z</time>
      </trkpt>
      <trkpt lat="45.16525" lon="5.94256">
        <ele>2084</ele>
        <time>2022-01-22T09:38:24Z</time>
      </trkpt>
      <trkpt lat="45.16523" lon="5.94257">
        <ele>2084</ele>
        <time>2022-01-22T09:38:26Z</time>
      </trkpt>
      <trkpt lat="45.16522" lon="5.94258">
        <ele>2084</ele>
        <time>2022-01-22T09:38:28Z</time>
      </trkpt>
      <trkpt lat="45.16519" lon="5.9426">
        <ele>2086</ele>
        <time>2022-01-22T09:38:31Z</time>
      </trkpt>
      <trkpt lat="45.16518" lon="5.94261">
        <ele>2086</ele>
        <time>2022-01-22T09:38:33Z</time>
      </trkpt>
      <trkpt lat="45.16516" lon="5.94263">
        <ele>2087</ele>
        <time>2022-01-22T09:38:35Z</time>
      </trkpt>
      <trkpt lat="45.16515" lon="5.94264">
        <ele>2087</ele>
        <time>2022-01-22T09:38:37Z</time>
      </trkpt>
      <trkpt lat="45.16513" lon="5.94267">
        <ele>2088</ele>
        <time>2022-01-22T09:38:40Z</time>
      </trkpt>
      <trkpt lat="45.16511" lon="5.9427">
        <ele>2089</ele>
        <time>2022-01-22T09:38:43Z</time>
      </trkpt>
      <trkpt lat="45.16509" lon="5.94271">
        <ele>2089</ele>
        <time>2022-01-22T09:38:45Z</time>
      </trkpt>
      <trkpt lat="45.16508" lon="5.94273">
        <ele>2089</ele>
        <time>2022-01-22T09:38:47Z</time>
      </trkpt>
      <trkpt lat="45.16506" lon="5.94275">
        <ele>2089</ele>
        <time>2022-01-22T09:38:50Z</time>
      </trkpt>
      <trkpt lat="45.16504" lon="5.94277">
        <ele>2089</ele>
        <time>2022-01-22T09:38:52Z</time>
      </trkpt>
      <trkpt lat="45.16503" lon="5.94279">
        <ele>2089</ele>
        <time>2022-01-22T09:38:54Z</time>
      </trkpt>
      <trkpt lat="45.16501" lon="5.94281">
        <ele>2090</ele>
        <time>2022-01-22T09:38:57Z</time>
      </trkpt>
      <trkpt lat="45.165" lon="5.94283">
        <ele>2091</ele>
        <time>2022-01-22T09:38:59Z</time>
      </trkpt>
      <trkpt lat="45.16499" lon="5.94285">
        <ele>2091</ele>
        <time>2022-01-22T09:39:01Z</time>
      </trkpt>
      <trkpt lat="45.16497" lon="5.94288">
        <ele>2091</ele>
        <time>2022-01-22T09:39:04Z</time>
      </trkpt>
      <trkpt lat="45.16496" lon="5.9429">
        <ele>2091</ele>
        <time>2022-01-22T09:39:06Z</time>
      </trkpt>
      <trkpt lat="45.16494" lon="5.94293">
        <ele>2092</ele>
        <time>2022-01-22T09:39:08Z</time>
      </trkpt>
      <trkpt lat="45.16493" lon="5.94295">
        <ele>2093</ele>
        <time>2022-01-22T09:39:10Z</time>
      </trkpt>
      <trkpt lat="45.16492" lon="5.94297">
        <ele>2093</ele>
        <time>2022-01-22T09:39:12Z</time>
      </trkpt>
      <trkpt lat="45.16491" lon="5.94299">
        <ele>2093</ele>
        <time>2022-01-22T09:39:14Z</time>
      </trkpt>
      <trkpt lat="45.16489" lon="5.94301">
        <ele>2093</ele>
        <time>2022-01-22T09:39:16Z</time>
      </trkpt>
      <trkpt lat="45.16488" lon="5.94305">
        <ele>2094</ele>
        <time>2022-01-22T09:39:19Z</time>
      </trkpt>
      <trkpt lat="45.16486" lon="5.94307">
        <ele>2094</ele>
        <time>2022-01-22T09:39:22Z</time>
      </trkpt>
      <trkpt lat="45.16485" lon="5.9431">
        <ele>2094</ele>
        <time>2022-01-22T09:39:25Z</time>
      </trkpt>
      <trkpt lat="45.16484" lon="5.94313">
        <ele>2094</ele>
        <time>2022-01-22T09:39:28Z</time>
      </trkpt>
      <trkpt lat="45.16482" lon="5.94317">
        <ele>2094</ele>
        <time>2022-01-22T09:39:31Z</time>
      </trkpt>
      <trkpt lat="45.16481" lon="5.94319">
        <ele>2094</ele>
        <time>2022-01-22T09:39:33Z</time>
      </trkpt>
      <trkpt lat="45.1648" lon="5.94321">
        <ele>2094</ele>
        <time>2022-01-22T09:39:35Z</time>
      </trkpt>
      <trkpt lat="45.1648" lon="5.94324">
        <ele>2095</ele>
        <time>2022-01-22T09:39:37Z</time>
      </trkpt>
      <trkpt lat="45.16478" lon="5.94327">
        <ele>2095</ele>
        <time>2022-01-22T09:39:40Z</time>
      </trkpt>
      <trkpt lat="45.16477" lon="5.94329">
        <ele>2095</ele>
        <time>2022-01-22T09:39:42Z</time>
      </trkpt>
      <trkpt lat="45.16476" lon="5.94331">
        <ele>2095</ele>
        <time>2022-01-22T09:39:44Z</time>
      </trkpt>
      <trkpt lat="45.16475" lon="5.94334">
        <ele>2096</ele>
        <time>2022-01-22T09:39:46Z</time>
      </trkpt>
      <trkpt lat="45.16473" lon="5.94336">
        <ele>2096</ele>
        <time>2022-01-22T09:39:48Z</time>
      </trkpt>
      <trkpt lat="45.16472" lon="5.94338">
        <ele>2096</ele>
        <time>2022-01-22T09:39:50Z</time>
      </trkpt>
      <trkpt lat="45.16471" lon="5.9434">
        <ele>2096</ele>
        <time>2022-01-22T09:39:52Z</time>
      </trkpt>
      <trkpt lat="45.16469" lon="5.94343">
        <ele>2097</ele>
        <time>2022-01-22T09:39:55Z</time>
      </trkpt>
      <trkpt lat="45.16468" lon="5.94345">
        <ele>2097</ele>
        <time>2022-01-22T09:39:57Z</time>
      </trkpt>
      <trkpt lat="45.16467" lon="5.94348">
        <ele>2098</ele>
        <time>2022-01-22T09:39:59Z</time>
      </trkpt>
      <trkpt lat="45.16465" lon="5.94351">
        <ele>2099</ele>
        <time>2022-01-22T09:40:02Z</time>
      </trkpt>
      <trkpt lat="45.16464" lon="5.94353">
        <ele>2099</ele>
        <time>2022-01-22T09:40:04Z</time>
      </trkpt>
      <trkpt lat="45.16463" lon="5.94356">
        <ele>2100</ele>
        <time>2022-01-22T09:40:07Z</time>
      </trkpt>
      <trkpt lat="45.16461" lon="5.94359">
        <ele>2101</ele>
        <time>2022-01-22T09:40:10Z</time>
      </trkpt>
      <trkpt lat="45.16461" lon="5.94363">
        <ele>2101</ele>
        <time>2022-01-22T09:40:13Z</time>
      </trkpt>
      <trkpt lat="45.1646" lon="5.94365">
        <ele>2102</ele>
        <time>2022-01-22T09:40:15Z</time>
      </trkpt>
      <trkpt lat="45.16458" lon="5.94368">
        <ele>2103</ele>
        <time>2022-01-22T09:40:18Z</time>
      </trkpt>
      <trkpt lat="45.16458" lon="5.9437">
        <ele>2104</ele>
        <time>2022-01-22T09:40:21Z</time>
      </trkpt>
      <trkpt lat="45.16459" lon="5.94373">
        <ele>2104</ele>
        <time>2022-01-22T09:40:23Z</time>
      </trkpt>
      <trkpt lat="45.16459" lon="5.94377">
        <ele>2105</ele>
        <time>2022-01-22T09:40:26Z</time>
      </trkpt>
      <trkpt lat="45.16459" lon="5.9438">
        <ele>2106</ele>
        <time>2022-01-22T09:40:29Z</time>
      </trkpt>
      <trkpt lat="45.16457" lon="5.94382">
        <ele>2106</ele>
        <time>2022-01-22T09:40:32Z</time>
      </trkpt>
      <trkpt lat="45.16454" lon="5.94384">
        <ele>2106</ele>
        <time>2022-01-22T09:40:35Z</time>
      </trkpt>
      <trkpt lat="45.16453" lon="5.94386">
        <ele>2108</ele>
        <time>2022-01-22T09:40:38Z</time>
      </trkpt>
      <trkpt lat="45.16453" lon="5.94389">
        <ele>2109</ele>
        <time>2022-01-22T09:40:41Z</time>
      </trkpt>
      <trkpt lat="45.16454" lon="5.94392">
        <ele>2109</ele>
        <time>2022-01-22T09:40:44Z</time>
      </trkpt>
      <trkpt lat="45.16454" lon="5.94395">
        <ele>2110</ele>
        <time>2022-01-22T09:40:47Z</time>
      </trkpt>
      <trkpt lat="45.16453" lon="5.94398">
        <ele>2111</ele>
        <time>2022-01-22T09:40:50Z</time>
      </trkpt>
      <trkpt lat="45.16451" lon="5.94399">
        <ele>2112</ele>
        <time>2022-01-22T09:40:53Z</time>
      </trkpt>
      <trkpt lat="45.16449" lon="5.94401">
        <ele>2113</ele>
        <time>2022-01-22T09:40:56Z</time>
      </trkpt>
      <trkpt lat="45.16448" lon="5.94405">
        <ele>2113</ele>
        <time>2022-01-22T09:41:00Z</time>
      </trkpt>
      <trkpt lat="45.16449" lon="5.94407">
        <ele>2115</ele>
        <time>2022-01-22T09:41:03Z</time>
      </trkpt>
      <trkpt lat="45.16448" lon="5.9441">
        <ele>2115</ele>
        <time>2022-01-22T09:41:06Z</time>
      </trkpt>
      <trkpt lat="45.16447" lon="5.94413">
        <ele>2116</ele>
        <time>2022-01-22T09:41:09Z</time>
      </trkpt>
      <trkpt lat="45.16445" lon="5.94414">
        <ele>2116</ele>
        <time>2022-01-22T09:41:11Z</time>
      </trkpt>
      <trkpt lat="45.16443" lon="5.94415">
        <ele>2117</ele>
        <time>2022-01-22T09:41:14Z</time>
      </trkpt>
      <trkpt lat="45.16442" lon="5.94419">
        <ele>2117</ele>
        <time>2022-01-22T09:41:18Z</time>
      </trkpt>
      <trkpt lat="45.16442" lon="5.94421">
        <ele>2118</ele>
        <time>2022-01-22T09:41:21Z</time>
      </trkpt>
      <trkpt lat="45.16441" lon="5.94424">
        <ele>2119</ele>
        <time>2022-01-22T09:41:24Z</time>
      </trkpt>
      <trkpt lat="45.1644" lon="5.94427">
        <ele>2120</ele>
        <time>2022-01-22T09:41:27Z</time>
      </trkpt>
      <trkpt lat="45.16438" lon="5.94428">
        <ele>2120</ele>
        <time>2022-01-22T09:41:30Z</time>
      </trkpt>
      <trkpt lat="45.16436" lon="5.94429">
        <ele>2122</ele>
        <time>2022-01-22T09:41:33Z</time>
      </trkpt>
      <trkpt lat="45.16434" lon="5.94427">
        <ele>2122</ele>
        <time>2022-01-22T09:41:36Z</time>
      </trkpt>
      <trkpt lat="45.16432" lon="5.94425">
        <ele>2123</ele>
        <time>2022-01-22T09:41:39Z</time>
      </trkpt>
      <trkpt lat="45.1643" lon="5.94423">
        <ele>2123</ele>
        <time>2022-01-22T09:41:42Z</time>
      </trkpt>
      <trkpt lat="45.16428" lon="5.9442">
        <ele>2124</ele>
        <time>2022-01-22T09:41:45Z</time>
      </trkpt>
      <trkpt lat="45.16426" lon="5.94417">
        <ele>2125</ele>
        <time>2022-01-22T09:41:48Z</time>
      </trkpt>
      <trkpt lat="45.16426" lon="5.94415">
        <ele>2125</ele>
        <time>2022-01-22T09:41:50Z</time>
      </trkpt>
      <trkpt lat="45.16424" lon="5.94412">
        <ele>2126</ele>
        <time>2022-01-22T09:41:53Z</time>
      </trkpt>
      <trkpt lat="45.16424" lon="5.94409">
        <ele>2127</ele>
        <time>2022-01-22T09:41:56Z</time>
      </trkpt>
      <trkpt lat="45.16423" lon="5.94406">
        <ele>2127</ele>
        <time>2022-01-22T09:41:59Z</time>
      </trkpt>
      <trkpt lat="45.16423" lon="5.94403">
        <ele>2128</ele>
        <time>2022-01-22T09:42:02Z</time>
      </trkpt>
      <trkpt lat="45.16422" lon="5.944">
        <ele>2129</ele>
        <time>2022-01-22T09:42:06Z</time>
      </trkpt>
      <trkpt lat="45.16421" lon="5.94397">
        <ele>2129</ele>
        <time>2022-01-22T09:42:09Z</time>
      </trkpt>
      <trkpt lat="45.1642" lon="5.94395">
        <ele>2129</ele>
        <time>2022-01-22T09:42:12Z</time>
      </trkpt>
      <trkpt lat="45.16418" lon="5.94395">
        <ele>2130</ele>
        <time>2022-01-22T09:42:15Z</time>
      </trkpt>
      <trkpt lat="45.16416" lon="5.94394">
        <ele>2131</ele>
        <time>2022-01-22T09:42:18Z</time>
      </trkpt>
      <trkpt lat="45.16414" lon="5.94395">
        <ele>2131</ele>
        <time>2022-01-22T09:42:22Z</time>
      </trkpt>
      <trkpt lat="45.16412" lon="5.94397">
        <ele>2132</ele>
        <time>2022-01-22T09:42:25Z</time>
      </trkpt>
      <trkpt lat="45.1641" lon="5.94396">
        <ele>2133</ele>
        <time>2022-01-22T09:42:28Z</time>
      </trkpt>
      <trkpt lat="45.16408" lon="5.94394">
        <ele>2134</ele>
        <time>2022-01-22T09:42:31Z</time>
      </trkpt>
      <trkpt lat="45.16406" lon="5.94393">
        <ele>2135</ele>
        <time>2022-01-22T09:42:34Z</time>
      </trkpt>
      <trkpt lat="45.16404" lon="5.94393">
        <ele>2136</ele>
        <time>2022-01-22T09:42:37Z</time>
      </trkpt>
      <trkpt lat="45.16402" lon="5.94391">
        <ele>2136</ele>
        <time>2022-01-22T09:42:40Z</time>
      </trkpt>
      <trkpt lat="45.164" lon="5.9439">
        <ele>2137</ele>
        <time>2022-01-22T09:42:44Z</time>
      </trkpt>
      <trkpt lat="45.16398" lon="5.94389">
        <ele>2137</ele>
        <time>2022-01-22T09:42:48Z</time>
      </trkpt>
      <trkpt lat="45.16396" lon="5.94391">
        <ele>2138</ele>
        <time>2022-01-22T09:42:53Z</time>
      </trkpt>
      <trkpt lat="45.16395" lon="5.94394">
        <ele>2139</ele>
        <time>2022-01-22T09:42:56Z</time>
      </trkpt>
      <trkpt lat="45.16394" lon="5.94397">
        <ele>2140</ele>
        <time>2022-01-22T09:42:59Z</time>
      </trkpt>
      <trkpt lat="45.16394" lon="5.944">
        <ele>2140</ele>
        <time>2022-01-22T09:43:02Z</time>
      </trkpt>
      <trkpt lat="45.16393" lon="5.94403">
        <ele>2141</ele>
        <time>2022-01-22T09:43:05Z</time>
      </trkpt>
      <trkpt lat="45.16393" lon="5.94406">
        <ele>2142</ele>
        <time>2022-01-22T09:43:08Z</time>
      </trkpt>
      <trkpt lat="45.16392" lon="5.94409">
        <ele>2143</ele>
        <time>2022-01-22T09:43:11Z</time>
      </trkpt>
      <trkpt lat="45.16392" lon="5.94412">
        <ele>2143</ele>
        <time>2022-01-22T09:43:14Z</time>
      </trkpt>
      <trkpt lat="45.16391" lon="5.94416">
        <ele>2143</ele>
        <time>2022-01-22T09:43:17Z</time>
      </trkpt>
      <trkpt lat="45.16392" lon="5.94419">
        <ele>2144</ele>
        <time>2022-01-22T09:43:20Z</time>
      </trkpt>
      <trkpt lat="45.16392" lon="5.94422">
        <ele>2145</ele>
        <time>2022-01-22T09:43:23Z</time>
      </trkpt>
      <trkpt lat="45.16391" lon="5.94425">
        <ele>2145</ele>
        <time>2022-01-22T09:43:26Z</time>
      </trkpt>
      <trkpt lat="45.16391" lon="5.94428">
        <ele>2146</ele>
        <time>2022-01-22T09:43:40Z</time>
      </trkpt>
      <trkpt lat="45.1639" lon="5.94431">
        <ele>2145</ele>
        <time>2022-01-22T09:43:42Z</time>
      </trkpt>
      <trkpt lat="45.1639" lon="5.94434">
        <ele>2146</ele>
        <time>2022-01-22T09:43:45Z</time>
      </trkpt>
      <trkpt lat="45.1639" lon="5.94436">
        <ele>2147</ele>
        <time>2022-01-22T09:43:47Z</time>
      </trkpt>
      <trkpt lat="45.1639" lon="5.9444">
        <ele>2147</ele>
        <time>2022-01-22T09:43:50Z</time>
      </trkpt>
      <trkpt lat="45.1639" lon="5.94442">
        <ele>2148</ele>
        <time>2022-01-22T09:43:53Z</time>
      </trkpt>
      <trkpt lat="45.16391" lon="5.94445">
        <ele>2148</ele>
        <time>2022-01-22T09:43:56Z</time>
      </trkpt>
      <trkpt lat="45.16391" lon="5.94448">
        <ele>2150</ele>
        <time>2022-01-22T09:43:59Z</time>
      </trkpt>
      <trkpt lat="45.16391" lon="5.94451">
        <ele>2150</ele>
        <time>2022-01-22T09:44:02Z</time>
      </trkpt>
      <trkpt lat="45.16391" lon="5.94454">
        <ele>2151</ele>
        <time>2022-01-22T09:44:05Z</time>
      </trkpt>
      <trkpt lat="45.16391" lon="5.94457">
        <ele>2152</ele>
        <time>2022-01-22T09:44:08Z</time>
      </trkpt>
      <trkpt lat="45.16391" lon="5.9446">
        <ele>2152</ele>
        <time>2022-01-22T09:44:11Z</time>
      </trkpt>
      <trkpt lat="45.1639" lon="5.94463">
        <ele>2153</ele>
        <time>2022-01-22T09:44:15Z</time>
      </trkpt>
      <trkpt lat="45.16389" lon="5.94466">
        <ele>2155</ele>
        <time>2022-01-22T09:44:18Z</time>
      </trkpt>
      <trkpt lat="45.16389" lon="5.94469">
        <ele>2155</ele>
        <time>2022-01-22T09:44:21Z</time>
      </trkpt>
      <trkpt lat="45.16389" lon="5.94472">
        <ele>2155</ele>
        <time>2022-01-22T09:44:24Z</time>
      </trkpt>
      <trkpt lat="45.16389" lon="5.94475">
        <ele>2156</ele>
        <time>2022-01-22T09:44:27Z</time>
      </trkpt>
      <trkpt lat="45.16388" lon="5.94478">
        <ele>2157</ele>
        <time>2022-01-22T09:44:30Z</time>
      </trkpt>
      <trkpt lat="45.16389" lon="5.9448">
        <ele>2157</ele>
        <time>2022-01-22T09:44:33Z</time>
      </trkpt>
      <trkpt lat="45.16388" lon="5.94483">
        <ele>2158</ele>
        <time>2022-01-22T09:44:36Z</time>
      </trkpt>
      <trkpt lat="45.16387" lon="5.94485">
        <ele>2158</ele>
        <time>2022-01-22T09:44:39Z</time>
      </trkpt>
      <trkpt lat="45.16386" lon="5.94487">
        <ele>2159</ele>
        <time>2022-01-22T09:44:42Z</time>
      </trkpt>
      <trkpt lat="45.16384" lon="5.9449">
        <ele>2160</ele>
        <time>2022-01-22T09:44:46Z</time>
      </trkpt>
      <trkpt lat="45.16384" lon="5.94493">
        <ele>2160</ele>
        <time>2022-01-22T09:44:49Z</time>
      </trkpt>
      <trkpt lat="45.16383" lon="5.94495">
        <ele>2161</ele>
        <time>2022-01-22T09:44:52Z</time>
      </trkpt>
      <trkpt lat="45.16384" lon="5.94498">
        <ele>2162</ele>
        <time>2022-01-22T09:44:55Z</time>
      </trkpt>
      <trkpt lat="45.16384" lon="5.94502">
        <ele>2162</ele>
        <time>2022-01-22T09:44:59Z</time>
      </trkpt>
      <trkpt lat="45.16384" lon="5.94504">
        <ele>2162</ele>
        <time>2022-01-22T09:45:01Z</time>
      </trkpt>
      <trkpt lat="45.16384" lon="5.94508">
        <ele>2162</ele>
        <time>2022-01-22T09:45:04Z</time>
      </trkpt>
      <trkpt lat="45.16384" lon="5.94511">
        <ele>2163</ele>
        <time>2022-01-22T09:45:07Z</time>
      </trkpt>
      <trkpt lat="45.16385" lon="5.94514">
        <ele>2165</ele>
        <time>2022-01-22T09:45:10Z</time>
      </trkpt>
      <trkpt lat="45.16385" lon="5.94517">
        <ele>2166</ele>
        <time>2022-01-22T09:45:13Z</time>
      </trkpt>
      <trkpt lat="45.16385" lon="5.94521">
        <ele>2166</ele>
        <time>2022-01-22T09:45:16Z</time>
      </trkpt>
      <trkpt lat="45.16386" lon="5.94523">
        <ele>2167</ele>
        <time>2022-01-22T09:45:19Z</time>
      </trkpt>
      <trkpt lat="45.16386" lon="5.94526">
        <ele>2168</ele>
        <time>2022-01-22T09:45:22Z</time>
      </trkpt>
      <trkpt lat="45.16386" lon="5.94529">
        <ele>2168</ele>
        <time>2022-01-22T09:45:25Z</time>
      </trkpt>
      <trkpt lat="45.16387" lon="5.94532">
        <ele>2169</ele>
        <time>2022-01-22T09:45:28Z</time>
      </trkpt>
      <trkpt lat="45.16387" lon="5.94535">
        <ele>2170</ele>
        <time>2022-01-22T09:45:31Z</time>
      </trkpt>
      <trkpt lat="45.16386" lon="5.94537">
        <ele>2171</ele>
        <time>2022-01-22T09:45:34Z</time>
      </trkpt>
      <trkpt lat="45.16384" lon="5.94538">
        <ele>2172</ele>
        <time>2022-01-22T09:45:36Z</time>
      </trkpt>
      <trkpt lat="45.16381" lon="5.94538">
        <ele>2172</ele>
        <time>2022-01-22T09:45:39Z</time>
      </trkpt>
      <trkpt lat="45.16379" lon="5.94538">
        <ele>2173</ele>
        <time>2022-01-22T09:45:42Z</time>
      </trkpt>
      <trkpt lat="45.16377" lon="5.94538">
        <ele>2174</ele>
        <time>2022-01-22T09:45:45Z</time>
      </trkpt>
      <trkpt lat="45.16375" lon="5.94538">
        <ele>2175</ele>
        <time>2022-01-22T09:45:47Z</time>
      </trkpt>
      <trkpt lat="45.16372" lon="5.94539">
        <ele>2174</ele>
        <time>2022-01-22T09:45:51Z</time>
      </trkpt>
      <trkpt lat="45.1637" lon="5.94539">
        <ele>2176</ele>
        <time>2022-01-22T09:45:54Z</time>
      </trkpt>
      <trkpt lat="45.16368" lon="5.94539">
        <ele>2176</ele>
        <time>2022-01-22T09:45:57Z</time>
      </trkpt>
      <trkpt lat="45.16366" lon="5.94539">
        <ele>2177</ele>
        <time>2022-01-22T09:46:00Z</time>
      </trkpt>
      <trkpt lat="45.16363" lon="5.94541">
        <ele>2177</ele>
        <time>2022-01-22T09:46:03Z</time>
      </trkpt>
      <trkpt lat="45.16361" lon="5.94542">
        <ele>2177</ele>
        <time>2022-01-22T09:46:06Z</time>
      </trkpt>
      <trkpt lat="45.16359" lon="5.94543">
        <ele>2179</ele>
        <time>2022-01-22T09:46:09Z</time>
      </trkpt>
      <trkpt lat="45.16357" lon="5.94543">
        <ele>2180</ele>
        <time>2022-01-22T09:46:12Z</time>
      </trkpt>
      <trkpt lat="45.16355" lon="5.94544">
        <ele>2182</ele>
        <time>2022-01-22T09:46:21Z</time>
      </trkpt>
      <trkpt lat="45.16355" lon="5.94547">
        <ele>2181</ele>
        <time>2022-01-22T09:46:33Z</time>
      </trkpt>
      <trkpt lat="45.16355" lon="5.94551">
        <ele>2179</ele>
        <time>2022-01-22T09:46:36Z</time>
      </trkpt>
      <trkpt lat="45.16356" lon="5.94555">
        <ele>2183</ele>
        <time>2022-01-22T09:46:39Z</time>
      </trkpt>
      <trkpt lat="45.16358" lon="5.94558">
        <ele>2183</ele>
        <time>2022-01-22T09:46:42Z</time>
      </trkpt>
      <trkpt lat="45.1636" lon="5.94561">
        <ele>2182</ele>
        <time>2022-01-22T09:46:45Z</time>
      </trkpt>
      <trkpt lat="45.16361" lon="5.94563">
        <ele>2184</ele>
        <time>2022-01-22T09:46:48Z</time>
      </trkpt>
      <trkpt lat="45.16362" lon="5.94566">
        <ele>2183</ele>
        <time>2022-01-22T09:46:50Z</time>
      </trkpt>
      <trkpt lat="45.16364" lon="5.94567">
        <ele>2184</ele>
        <time>2022-01-22T09:47:02Z</time>
      </trkpt>
      <trkpt lat="45.16365" lon="5.9457">
        <ele>2183</ele>
        <time>2022-01-22T09:47:05Z</time>
      </trkpt>
      <trkpt lat="45.16367" lon="5.94572">
        <ele>2183</ele>
        <time>2022-01-22T09:47:07Z</time>
      </trkpt>
      <trkpt lat="45.16368" lon="5.94575">
        <ele>2183</ele>
        <time>2022-01-22T09:47:10Z</time>
      </trkpt>
      <trkpt lat="45.1637" lon="5.94577">
        <ele>2183</ele>
        <time>2022-01-22T09:47:12Z</time>
      </trkpt>
      <trkpt lat="45.16371" lon="5.9458">
        <ele>2183</ele>
        <time>2022-01-22T09:47:14Z</time>
      </trkpt>
      <trkpt lat="45.16371" lon="5.94583">
        <ele>2183</ele>
        <time>2022-01-22T09:47:16Z</time>
      </trkpt>
      <trkpt lat="45.16372" lon="5.94587">
        <ele>2183</ele>
        <time>2022-01-22T09:47:19Z</time>
      </trkpt>
      <trkpt lat="45.16374" lon="5.94589">
        <ele>2184</ele>
        <time>2022-01-22T09:47:22Z</time>
      </trkpt>
      <trkpt lat="45.16375" lon="5.94592">
        <ele>2184</ele>
        <time>2022-01-22T09:47:24Z</time>
      </trkpt>
      <trkpt lat="45.16377" lon="5.94594">
        <ele>2184</ele>
        <time>2022-01-22T09:47:26Z</time>
      </trkpt>
      <trkpt lat="45.16379" lon="5.94596">
        <ele>2184</ele>
        <time>2022-01-22T09:47:28Z</time>
      </trkpt>
      <trkpt lat="45.16381" lon="5.94596">
        <ele>2184</ele>
        <time>2022-01-22T09:47:30Z</time>
      </trkpt>
      <trkpt lat="45.16382" lon="5.94596">
        <ele>2184</ele>
        <time>2022-01-22T09:47:32Z</time>
      </trkpt>
      <trkpt lat="45.16384" lon="5.94594">
        <ele>2184</ele>
        <time>2022-01-22T09:47:36Z</time>
      </trkpt>
      <trkpt lat="45.16386" lon="5.94592">
        <ele>2185</ele>
        <time>2022-01-22T09:47:39Z</time>
      </trkpt>
      <trkpt lat="45.16388" lon="5.9459">
        <ele>2185</ele>
        <time>2022-01-22T09:47:42Z</time>
      </trkpt>
      <trkpt lat="45.16389" lon="5.94588">
        <ele>2187</ele>
        <time>2022-01-22T09:47:45Z</time>
      </trkpt>
      <trkpt lat="45.16391" lon="5.94588">
        <ele>2187</ele>
        <time>2022-01-22T09:47:48Z</time>
      </trkpt>
      <trkpt lat="45.16394" lon="5.94587">
        <ele>2187</ele>
        <time>2022-01-22T09:47:51Z</time>
      </trkpt>
      <trkpt lat="45.16396" lon="5.94587">
        <ele>2187</ele>
        <time>2022-01-22T09:47:54Z</time>
      </trkpt>
      <trkpt lat="45.16398" lon="5.94587">
        <ele>2188</ele>
        <time>2022-01-22T09:47:57Z</time>
      </trkpt>
      <trkpt lat="45.16401" lon="5.94588">
        <ele>2188</ele>
        <time>2022-01-22T09:48:00Z</time>
      </trkpt>
      <trkpt lat="45.16402" lon="5.94589">
        <ele>2188</ele>
        <time>2022-01-22T09:48:02Z</time>
      </trkpt>
      <trkpt lat="45.16404" lon="5.9459">
        <ele>2188</ele>
        <time>2022-01-22T09:48:05Z</time>
      </trkpt>
      <trkpt lat="45.16406" lon="5.94592">
        <ele>2189</ele>
        <time>2022-01-22T09:48:08Z</time>
      </trkpt>
      <trkpt lat="45.16408" lon="5.94593">
        <ele>2190</ele>
        <time>2022-01-22T09:48:10Z</time>
      </trkpt>
      <trkpt lat="45.1641" lon="5.94595">
        <ele>2189</ele>
        <time>2022-01-22T09:48:13Z</time>
      </trkpt>
      <trkpt lat="45.16411" lon="5.94596">
        <ele>2190</ele>
        <time>2022-01-22T09:48:16Z</time>
      </trkpt>
      <trkpt lat="45.16413" lon="5.94597">
        <ele>2191</ele>
        <time>2022-01-22T09:48:19Z</time>
      </trkpt>
      <trkpt lat="45.16415" lon="5.94597">
        <ele>2192</ele>
        <time>2022-01-22T09:48:22Z</time>
      </trkpt>
      <trkpt lat="45.16417" lon="5.94598">
        <ele>2192</ele>
        <time>2022-01-22T09:48:24Z</time>
      </trkpt>
      <trkpt lat="45.16419" lon="5.94598">
        <ele>2192</ele>
        <time>2022-01-22T09:48:27Z</time>
      </trkpt>
      <trkpt lat="45.16421" lon="5.946">
        <ele>2192</ele>
        <time>2022-01-22T09:48:30Z</time>
      </trkpt>
      <trkpt lat="45.16423" lon="5.94602">
        <ele>2192</ele>
        <time>2022-01-22T09:48:33Z</time>
      </trkpt>
      <trkpt lat="45.16426" lon="5.94603">
        <ele>2192</ele>
        <time>2022-01-22T09:48:36Z</time>
      </trkpt>
      <trkpt lat="45.16428" lon="5.94604">
        <ele>2192</ele>
        <time>2022-01-22T09:48:39Z</time>
      </trkpt>
      <trkpt lat="45.1643" lon="5.94605">
        <ele>2193</ele>
        <time>2022-01-22T09:48:42Z</time>
      </trkpt>
      <trkpt lat="45.16432" lon="5.94605">
        <ele>2194</ele>
        <time>2022-01-22T09:48:45Z</time>
      </trkpt>
      <trkpt lat="45.16434" lon="5.94606">
        <ele>2195</ele>
        <time>2022-01-22T09:48:48Z</time>
      </trkpt>
      <trkpt lat="45.16436" lon="5.94607">
        <ele>2195</ele>
        <time>2022-01-22T09:48:51Z</time>
      </trkpt>
      <trkpt lat="45.16438" lon="5.94607">
        <ele>2196</ele>
        <time>2022-01-22T09:48:54Z</time>
      </trkpt>
      <trkpt lat="45.1644" lon="5.94608">
        <ele>2196</ele>
        <time>2022-01-22T09:48:57Z</time>
      </trkpt>
      <trkpt lat="45.16442" lon="5.9461">
        <ele>2197</ele>
        <time>2022-01-22T09:49:00Z</time>
      </trkpt>
      <trkpt lat="45.16444" lon="5.94612">
        <ele>2198</ele>
        <time>2022-01-22T09:49:03Z</time>
      </trkpt>
      <trkpt lat="45.16446" lon="5.94615">
        <ele>2197</ele>
        <time>2022-01-22T09:49:06Z</time>
      </trkpt>
      <trkpt lat="45.16447" lon="5.94617">
        <ele>2198</ele>
        <time>2022-01-22T09:49:09Z</time>
      </trkpt>
      <trkpt lat="45.16449" lon="5.94618">
        <ele>2198</ele>
        <time>2022-01-22T09:49:12Z</time>
      </trkpt>
      <trkpt lat="45.1645" lon="5.9462">
        <ele>2199</ele>
        <time>2022-01-22T09:49:14Z</time>
      </trkpt>
      <trkpt lat="45.1645" lon="5.94623">
        <ele>2199</ele>
        <time>2022-01-22T09:49:17Z</time>
      </trkpt>
      <trkpt lat="45.16452" lon="5.94625">
        <ele>2201</ele>
        <time>2022-01-22T09:49:20Z</time>
      </trkpt>
      <trkpt lat="45.16454" lon="5.94627">
        <ele>2201</ele>
        <time>2022-01-22T09:49:23Z</time>
      </trkpt>
      <trkpt lat="45.16455" lon="5.94629">
        <ele>2201</ele>
        <time>2022-01-22T09:49:26Z</time>
      </trkpt>
      <trkpt lat="45.16456" lon="5.9463">
        <ele>2202</ele>
        <time>2022-01-22T09:49:33Z</time>
      </trkpt>
      <trkpt lat="45.16458" lon="5.94632">
        <ele>2203</ele>
        <time>2022-01-22T09:49:42Z</time>
      </trkpt>
      <trkpt lat="45.1646" lon="5.94634">
        <ele>2204</ele>
        <time>2022-01-22T09:49:45Z</time>
      </trkpt>
      <trkpt lat="45.16462" lon="5.94636">
        <ele>2205</ele>
        <time>2022-01-22T09:50:00Z</time>
      </trkpt>
      <trkpt lat="45.16463" lon="5.94639">
        <ele>2205</ele>
        <time>2022-01-22T09:50:03Z</time>
      </trkpt>
      <trkpt lat="45.16465" lon="5.94642">
        <ele>2206</ele>
        <time>2022-01-22T09:50:06Z</time>
      </trkpt>
      <trkpt lat="45.16466" lon="5.94645">
        <ele>2206</ele>
        <time>2022-01-22T09:50:09Z</time>
      </trkpt>
      <trkpt lat="45.16468" lon="5.94647">
        <ele>2207</ele>
        <time>2022-01-22T09:50:11Z</time>
      </trkpt>
      <trkpt lat="45.16469" lon="5.94649">
        <ele>2207</ele>
        <time>2022-01-22T09:50:13Z</time>
      </trkpt>
      <trkpt lat="45.1647" lon="5.94652">
        <ele>2207</ele>
        <time>2022-01-22T09:50:16Z</time>
      </trkpt>
      <trkpt lat="45.16472" lon="5.94655">
        <ele>2208</ele>
        <time>2022-01-22T09:50:19Z</time>
      </trkpt>
      <trkpt lat="45.16473" lon="5.94656">
        <ele>2209</ele>
        <time>2022-01-22T09:50:59Z</time>
      </trkpt>
      <trkpt lat="45.16475" lon="5.94659">
        <ele>2210</ele>
        <time>2022-01-22T09:51:01Z</time>
      </trkpt>
      <trkpt lat="45.16476" lon="5.94661">
        <ele>2209</ele>
        <time>2022-01-22T09:51:03Z</time>
      </trkpt>
      <trkpt lat="45.16477" lon="5.94664">
        <ele>2210</ele>
        <time>2022-01-22T09:51:06Z</time>
      </trkpt>
      <trkpt lat="45.16479" lon="5.94667">
        <ele>2211</ele>
        <time>2022-01-22T09:51:09Z</time>
      </trkpt>
      <trkpt lat="45.16479" lon="5.9467">
        <ele>2211</ele>
        <time>2022-01-22T09:51:11Z</time>
      </trkpt>
      <trkpt lat="45.16481" lon="5.94672">
        <ele>2211</ele>
        <time>2022-01-22T09:51:13Z</time>
      </trkpt>
      <trkpt lat="45.16481" lon="5.94674">
        <ele>2212</ele>
        <time>2022-01-22T09:51:15Z</time>
      </trkpt>
      <trkpt lat="45.16483" lon="5.94677">
        <ele>2212</ele>
        <time>2022-01-22T09:51:17Z</time>
      </trkpt>
      <trkpt lat="45.16484" lon="5.94679">
        <ele>2212</ele>
        <time>2022-01-22T09:51:19Z</time>
      </trkpt>
      <trkpt lat="45.16485" lon="5.94682">
        <ele>2213</ele>
        <time>2022-01-22T09:51:21Z</time>
      </trkpt>
      <trkpt lat="45.16487" lon="5.94684">
        <ele>2214</ele>
        <time>2022-01-22T09:51:23Z</time>
      </trkpt>
      <trkpt lat="45.16488" lon="5.94686">
        <ele>2214</ele>
        <time>2022-01-22T09:51:25Z</time>
      </trkpt>
      <trkpt lat="45.16489" lon="5.94689">
        <ele>2215</ele>
        <time>2022-01-22T09:51:27Z</time>
      </trkpt>
      <trkpt lat="45.1649" lon="5.94691">
        <ele>2215</ele>
        <time>2022-01-22T09:51:29Z</time>
      </trkpt>
      <trkpt lat="45.16491" lon="5.94694">
        <ele>2215</ele>
        <time>2022-01-22T09:51:31Z</time>
      </trkpt>
      <trkpt lat="45.16493" lon="5.94698">
        <ele>2215</ele>
        <time>2022-01-22T09:51:34Z</time>
      </trkpt>
      <trkpt lat="45.16494" lon="5.947">
        <ele>2215</ele>
        <time>2022-01-22T09:51:36Z</time>
      </trkpt>
      <trkpt lat="45.16495" lon="5.94702">
        <ele>2215</ele>
        <time>2022-01-22T09:51:38Z</time>
      </trkpt>
      <trkpt lat="45.16496" lon="5.94704">
        <ele>2215</ele>
        <time>2022-01-22T09:51:40Z</time>
      </trkpt>
      <trkpt lat="45.16498" lon="5.94706">
        <ele>2215</ele>
        <time>2022-01-22T09:51:42Z</time>
      </trkpt>
      <trkpt lat="45.165" lon="5.9471">
        <ele>2215</ele>
        <time>2022-01-22T09:51:44Z</time>
      </trkpt>
      <trkpt lat="45.16501" lon="5.94713">
        <ele>2215</ele>
        <time>2022-01-22T09:51:45Z</time>
      </trkpt>
      <trkpt lat="45.16502" lon="5.94715">
        <ele>2214</ele>
        <time>2022-01-22T09:51:46Z</time>
      </trkpt>
      <trkpt lat="45.16504" lon="5.94719">
        <ele>2214</ele>
        <time>2022-01-22T09:51:48Z</time>
      </trkpt>
      <trkpt lat="45.16505" lon="5.94721">
        <ele>2213</ele>
        <time>2022-01-22T09:51:50Z</time>
      </trkpt>
      <trkpt lat="45.16506" lon="5.94724">
        <ele>2213</ele>
        <time>2022-01-22T09:51:52Z</time>
      </trkpt>
      <trkpt lat="45.16507" lon="5.94726">
        <ele>2213</ele>
        <time>2022-01-22T09:51:54Z</time>
      </trkpt>
      <trkpt lat="45.16509" lon="5.94729">
        <ele>2213</ele>
        <time>2022-01-22T09:51:56Z</time>
      </trkpt>
      <trkpt lat="45.16511" lon="5.94731">
        <ele>2213</ele>
        <time>2022-01-22T09:51:58Z</time>
      </trkpt>
      <trkpt lat="45.16513" lon="5.94733">
        <ele>2213</ele>
        <time>2022-01-22T09:52:00Z</time>
      </trkpt>
      <trkpt lat="45.16514" lon="5.94734">
        <ele>2214</ele>
        <time>2022-01-22T09:52:02Z</time>
      </trkpt>
      <trkpt lat="45.16516" lon="5.94736">
        <ele>2214</ele>
        <time>2022-01-22T09:52:04Z</time>
      </trkpt>
      <trkpt lat="45.16517" lon="5.94738">
        <ele>2214</ele>
        <time>2022-01-22T09:52:06Z</time>
      </trkpt>
      <trkpt lat="45.16519" lon="5.9474">
        <ele>2214</ele>
        <time>2022-01-22T09:52:08Z</time>
      </trkpt>
      <trkpt lat="45.1652" lon="5.94742">
        <ele>2215</ele>
        <time>2022-01-22T09:52:10Z</time>
      </trkpt>
      <trkpt lat="45.16522" lon="5.94744">
        <ele>2215</ele>
        <time>2022-01-22T09:52:13Z</time>
      </trkpt>
      <trkpt lat="45.16523" lon="5.94746">
        <ele>2216</ele>
        <time>2022-01-22T09:52:15Z</time>
      </trkpt>
      <trkpt lat="45.16525" lon="5.94748">
        <ele>2216</ele>
        <time>2022-01-22T09:52:17Z</time>
      </trkpt>
      <trkpt lat="45.16527" lon="5.94749">
        <ele>2217</ele>
        <time>2022-01-22T09:52:19Z</time>
      </trkpt>
      <trkpt lat="45.16529" lon="5.94751">
        <ele>2217</ele>
        <time>2022-01-22T09:52:21Z</time>
      </trkpt>
      <trkpt lat="45.1653" lon="5.94752">
        <ele>2217</ele>
        <time>2022-01-22T09:52:23Z</time>
      </trkpt>
      <trkpt lat="45.16532" lon="5.94754">
        <ele>2217</ele>
        <time>2022-01-22T09:52:25Z</time>
      </trkpt>
      <trkpt lat="45.16534" lon="5.94756">
        <ele>2217</ele>
        <time>2022-01-22T09:52:27Z</time>
      </trkpt>
      <trkpt lat="45.16536" lon="5.94757">
        <ele>2217</ele>
        <time>2022-01-22T09:52:29Z</time>
      </trkpt>
      <trkpt lat="45.16537" lon="5.94759">
        <ele>2217</ele>
        <time>2022-01-22T09:52:31Z</time>
      </trkpt>
      <trkpt lat="45.16539" lon="5.94761">
        <ele>2217</ele>
        <time>2022-01-22T09:52:33Z</time>
      </trkpt>
      <trkpt lat="45.16542" lon="5.94763">
        <ele>2217</ele>
        <time>2022-01-22T09:52:36Z</time>
      </trkpt>
      <trkpt lat="45.16543" lon="5.94765">
        <ele>2217</ele>
        <time>2022-01-22T09:52:38Z</time>
      </trkpt>
      <trkpt lat="45.16545" lon="5.94766">
        <ele>2218</ele>
        <time>2022-01-22T09:52:41Z</time>
      </trkpt>
      <trkpt lat="45.16548" lon="5.94768">
        <ele>2218</ele>
        <time>2022-01-22T09:52:44Z</time>
      </trkpt>
      <trkpt lat="45.1655" lon="5.9477">
        <ele>2218</ele>
        <time>2022-01-22T09:52:47Z</time>
      </trkpt>
      <trkpt lat="45.16552" lon="5.94771">
        <ele>2220</ele>
        <time>2022-01-22T09:52:50Z</time>
      </trkpt>
      <trkpt lat="45.16555" lon="5.94773">
        <ele>2221</ele>
        <time>2022-01-22T09:52:53Z</time>
      </trkpt>
      <trkpt lat="45.16557" lon="5.94774">
        <ele>2222</ele>
        <time>2022-01-22T09:52:56Z</time>
      </trkpt>
      <trkpt lat="45.16559" lon="5.94776">
        <ele>2222</ele>
        <time>2022-01-22T09:52:59Z</time>
      </trkpt>
      <trkpt lat="45.16561" lon="5.94778">
        <ele>2222</ele>
        <time>2022-01-22T09:53:02Z</time>
      </trkpt>
      <trkpt lat="45.16562" lon="5.94781">
        <ele>2222</ele>
        <time>2022-01-22T09:53:05Z</time>
      </trkpt>
      <trkpt lat="45.16564" lon="5.94783">
        <ele>2223</ele>
        <time>2022-01-22T09:53:08Z</time>
      </trkpt>
      <trkpt lat="45.16565" lon="5.94785">
        <ele>2224</ele>
        <time>2022-01-22T09:53:11Z</time>
      </trkpt>
      <trkpt lat="45.16566" lon="5.94787">
        <ele>2225</ele>
        <time>2022-01-22T09:53:14Z</time>
      </trkpt>
      <trkpt lat="45.16569" lon="5.94788">
        <ele>2225</ele>
        <time>2022-01-22T09:53:18Z</time>
      </trkpt>
      <trkpt lat="45.16571" lon="5.94787">
        <ele>2226</ele>
        <time>2022-01-22T09:53:21Z</time>
      </trkpt>
      <trkpt lat="45.16573" lon="5.94787">
        <ele>2227</ele>
        <time>2022-01-22T09:53:24Z</time>
      </trkpt>
      <trkpt lat="45.16574" lon="5.94786">
        <ele>2227</ele>
        <time>2022-01-22T09:53:27Z</time>
      </trkpt>
      <trkpt lat="45.16576" lon="5.94786">
        <ele>2228</ele>
        <time>2022-01-22T09:53:30Z</time>
      </trkpt>
      <trkpt lat="45.16578" lon="5.94785">
        <ele>2229</ele>
        <time>2022-01-22T09:53:33Z</time>
      </trkpt>
      <trkpt lat="45.1658" lon="5.94785">
        <ele>2229</ele>
        <time>2022-01-22T09:53:36Z</time>
      </trkpt>
      <trkpt lat="45.16582" lon="5.94788">
        <ele>2230</ele>
        <time>2022-01-22T09:53:39Z</time>
      </trkpt>
      <trkpt lat="45.16583" lon="5.94791">
        <ele>2231</ele>
        <time>2022-01-22T09:53:42Z</time>
      </trkpt>
      <trkpt lat="45.16583" lon="5.94794">
        <ele>2232</ele>
        <time>2022-01-22T09:53:44Z</time>
      </trkpt>
      <trkpt lat="45.16584" lon="5.94797">
        <ele>2232</ele>
        <time>2022-01-22T09:53:47Z</time>
      </trkpt>
      <trkpt lat="45.16584" lon="5.94801">
        <ele>2233</ele>
        <time>2022-01-22T09:53:50Z</time>
      </trkpt>
      <trkpt lat="45.16583" lon="5.94804">
        <ele>2233</ele>
        <time>2022-01-22T09:53:53Z</time>
      </trkpt>
      <trkpt lat="45.16582" lon="5.94807">
        <ele>2233</ele>
        <time>2022-01-22T09:53:56Z</time>
      </trkpt>
      <trkpt lat="45.16581" lon="5.94809">
        <ele>2235</ele>
        <time>2022-01-22T09:53:59Z</time>
      </trkpt>
      <trkpt lat="45.16581" lon="5.94812">
        <ele>2235</ele>
        <time>2022-01-22T09:54:02Z</time>
      </trkpt>
      <trkpt lat="45.16581" lon="5.94815">
        <ele>2235</ele>
        <time>2022-01-22T09:54:05Z</time>
      </trkpt>
      <trkpt lat="45.1658" lon="5.94818">
        <ele>2236</ele>
        <time>2022-01-22T09:54:08Z</time>
      </trkpt>
      <trkpt lat="45.16579" lon="5.94821">
        <ele>2236</ele>
        <time>2022-01-22T09:54:11Z</time>
      </trkpt>
      <trkpt lat="45.16578" lon="5.94824">
        <ele>2237</ele>
        <time>2022-01-22T09:54:14Z</time>
      </trkpt>
      <trkpt lat="45.16579" lon="5.94826">
        <ele>2237</ele>
        <time>2022-01-22T09:54:22Z</time>
      </trkpt>
      <trkpt lat="45.16581" lon="5.94826">
        <ele>2238</ele>
        <time>2022-01-22T09:54:25Z</time>
      </trkpt>
      <trkpt lat="45.16584" lon="5.94826">
        <ele>2238</ele>
        <time>2022-01-22T09:54:29Z</time>
      </trkpt>
      <trkpt lat="45.16585" lon="5.94826">
        <ele>2239</ele>
        <time>2022-01-22T09:54:32Z</time>
      </trkpt>
      <trkpt lat="45.16587" lon="5.94827">
        <ele>2240</ele>
        <time>2022-01-22T09:54:35Z</time>
      </trkpt>
      <trkpt lat="45.16589" lon="5.94826">
        <ele>2241</ele>
        <time>2022-01-22T09:54:38Z</time>
      </trkpt>
      <trkpt lat="45.16591" lon="5.94825">
        <ele>2241</ele>
        <time>2022-01-22T09:54:41Z</time>
      </trkpt>
      <trkpt lat="45.16593" lon="5.94824">
        <ele>2241</ele>
        <time>2022-01-22T09:55:50Z</time>
      </trkpt>
      <trkpt lat="45.16595" lon="5.94823">
        <ele>2241</ele>
        <time>2022-01-22T09:55:53Z</time>
      </trkpt>
      <trkpt lat="45.16597" lon="5.94822">
        <ele>2241</ele>
        <time>2022-01-22T09:55:57Z</time>
      </trkpt>
      <trkpt lat="45.16599" lon="5.9482">
        <ele>2241</ele>
        <time>2022-01-22T09:56:00Z</time>
      </trkpt>
      <trkpt lat="45.166" lon="5.94819">
        <ele>2242</ele>
        <time>2022-01-22T09:56:02Z</time>
      </trkpt>
      <trkpt lat="45.16602" lon="5.94817">
        <ele>2243</ele>
        <time>2022-01-22T09:56:05Z</time>
      </trkpt>
      <trkpt lat="45.16604" lon="5.94816">
        <ele>2243</ele>
        <time>2022-01-22T09:56:09Z</time>
      </trkpt>
      <trkpt lat="45.16605" lon="5.94814">
        <ele>2243</ele>
        <time>2022-01-22T09:56:12Z</time>
      </trkpt>
      <trkpt lat="45.16607" lon="5.94813">
        <ele>2245</ele>
        <time>2022-01-22T09:56:15Z</time>
      </trkpt>
      <trkpt lat="45.16609" lon="5.94811">
        <ele>2245</ele>
        <time>2022-01-22T09:56:18Z</time>
      </trkpt>
      <trkpt lat="45.1661" lon="5.94808">
        <ele>2245</ele>
        <time>2022-01-22T09:56:21Z</time>
      </trkpt>
      <trkpt lat="45.16611" lon="5.94806">
        <ele>2246</ele>
        <time>2022-01-22T09:56:24Z</time>
      </trkpt>
      <trkpt lat="45.16612" lon="5.94803">
        <ele>2246</ele>
        <time>2022-01-22T09:56:28Z</time>
      </trkpt>
      <trkpt lat="45.16613" lon="5.94801">
        <ele>2247</ele>
        <time>2022-01-22T09:56:32Z</time>
      </trkpt>
      <trkpt lat="45.16614" lon="5.94798">
        <ele>2248</ele>
        <time>2022-01-22T09:56:36Z</time>
      </trkpt>
      <trkpt lat="45.16616" lon="5.94796">
        <ele>2248</ele>
        <time>2022-01-22T09:56:40Z</time>
      </trkpt>
      <trkpt lat="45.16616" lon="5.94794">
        <ele>2249</ele>
        <time>2022-01-22T09:56:43Z</time>
      </trkpt>
      <trkpt lat="45.16617" lon="5.94791">
        <ele>2249</ele>
        <time>2022-01-22T09:56:47Z</time>
      </trkpt>
      <trkpt lat="45.16618" lon="5.94788">
        <ele>2250</ele>
        <time>2022-01-22T09:56:51Z</time>
      </trkpt>
      <trkpt lat="45.16618" lon="5.94786">
        <ele>2252</ele>
        <time>2022-01-22T09:56:55Z</time>
      </trkpt>
      <trkpt lat="45.16619" lon="5.94783">
        <ele>2252</ele>
        <time>2022-01-22T09:56:59Z</time>
      </trkpt>
      <trkpt lat="45.1662" lon="5.9478">
        <ele>2252</ele>
        <time>2022-01-22T09:57:03Z</time>
      </trkpt>
      <trkpt lat="45.16621" lon="5.94778">
        <ele>2252</ele>
        <time>2022-01-22T09:57:07Z</time>
      </trkpt>
      <trkpt lat="45.16622" lon="5.94776">
        <ele>2252</ele>
        <time>2022-01-22T09:57:10Z</time>
      </trkpt>
      <trkpt lat="45.16624" lon="5.94774">
        <ele>2253</ele>
        <time>2022-01-22T09:57:13Z</time>
      </trkpt>
      <trkpt lat="45.16625" lon="5.94772">
        <ele>2254</ele>
        <time>2022-01-22T09:57:16Z</time>
      </trkpt>
      <trkpt lat="45.16626" lon="5.94769">
        <ele>2254</ele>
        <time>2022-01-22T09:57:19Z</time>
      </trkpt>
      <trkpt lat="45.16627" lon="5.94766">
        <ele>2255</ele>
        <time>2022-01-22T09:57:22Z</time>
      </trkpt>
      <trkpt lat="45.16628" lon="5.94763">
        <ele>2256</ele>
        <time>2022-01-22T09:57:25Z</time>
      </trkpt>
      <trkpt lat="45.16629" lon="5.9476">
        <ele>2257</ele>
        <time>2022-01-22T09:57:29Z</time>
      </trkpt>
      <trkpt lat="45.1663" lon="5.94758">
        <ele>2257</ele>
        <time>2022-01-22T09:57:32Z</time>
      </trkpt>
      <trkpt lat="45.1663" lon="5.94755">
        <ele>2257</ele>
        <time>2022-01-22T09:57:35Z</time>
      </trkpt>
      <trkpt lat="45.16632" lon="5.94752">
        <ele>2258</ele>
        <time>2022-01-22T09:57:39Z</time>
      </trkpt>
      <trkpt lat="45.16633" lon="5.94749">
        <ele>2258</ele>
        <time>2022-01-22T09:57:42Z</time>
      </trkpt>
      <trkpt lat="45.16634" lon="5.94746">
        <ele>2258</ele>
        <time>2022-01-22T09:57:46Z</time>
      </trkpt>
      <trkpt lat="45.16634" lon="5.94744">
        <ele>2259</ele>
        <time>2022-01-22T09:57:50Z</time>
      </trkpt>
      <trkpt lat="45.16634" lon="5.94741">
        <ele>2260</ele>
        <time>2022-01-22T09:57:55Z</time>
      </trkpt>
      <trkpt lat="45.16636" lon="5.94744">
        <ele>2260</ele>
        <time>2022-01-22T09:58:01Z</time>
      </trkpt>
      <trkpt lat="45.16638" lon="5.94747">
        <ele>2260</ele>
        <time>2022-01-22T09:58:04Z</time>
      </trkpt>
      <trkpt lat="45.16639" lon="5.9475">
        <ele>2261</ele>
        <time>2022-01-22T09:58:07Z</time>
      </trkpt>
      <trkpt lat="45.1664" lon="5.94758">
        <ele>2262</ele>
        <time>2022-01-22T09:58:15Z</time>
      </trkpt>
      <trkpt lat="45.1664" lon="5.94761">
        <ele>2263</ele>
        <time>2022-01-22T09:58:18Z</time>
      </trkpt>
      <trkpt lat="45.1664" lon="5.94764">
        <ele>2264</ele>
        <time>2022-01-22T09:58:22Z</time>
      </trkpt>
      <trkpt lat="45.1664" lon="5.94762">
        <ele>2264</ele>
        <time>2022-01-22T09:58:34Z</time>
      </trkpt>
      <trkpt lat="45.16642" lon="5.94759">
        <ele>2264</ele>
        <time>2022-01-22T09:58:37Z</time>
      </trkpt>
      <trkpt lat="45.16643" lon="5.94757">
        <ele>2265</ele>
        <time>2022-01-22T09:58:40Z</time>
      </trkpt>
      <trkpt lat="45.16644" lon="5.94754">
        <ele>2265</ele>
        <time>2022-01-22T09:58:43Z</time>
      </trkpt>
      <trkpt lat="45.16646" lon="5.94752">
        <ele>2265</ele>
        <time>2022-01-22T09:58:46Z</time>
      </trkpt>
      <trkpt lat="45.16647" lon="5.9475">
        <ele>2266</ele>
        <time>2022-01-22T09:58:49Z</time>
      </trkpt>
      <trkpt lat="45.16648" lon="5.94747">
        <ele>2267</ele>
        <time>2022-01-22T09:58:52Z</time>
      </trkpt>
      <trkpt lat="45.16649" lon="5.94744">
        <ele>2267</ele>
        <time>2022-01-22T09:58:55Z</time>
      </trkpt>
      <trkpt lat="45.16649" lon="5.94741">
        <ele>2267</ele>
        <time>2022-01-22T09:58:58Z</time>
      </trkpt>
      <trkpt lat="45.1665" lon="5.94738">
        <ele>2268</ele>
        <time>2022-01-22T09:59:02Z</time>
      </trkpt>
      <trkpt lat="45.1665" lon="5.94735">
        <ele>2268</ele>
        <time>2022-01-22T09:59:05Z</time>
      </trkpt>
      <trkpt lat="45.1665" lon="5.94732">
        <ele>2269</ele>
        <time>2022-01-22T09:59:08Z</time>
      </trkpt>
      <trkpt lat="45.16649" lon="5.94729">
        <ele>2270</ele>
        <time>2022-01-22T09:59:11Z</time>
      </trkpt>
      <trkpt lat="45.16649" lon="5.94726">
        <ele>2271</ele>
        <time>2022-01-22T09:59:14Z</time>
      </trkpt>
      <trkpt lat="45.16651" lon="5.94724">
        <ele>2271</ele>
        <time>2022-01-22T09:59:19Z</time>
      </trkpt>
      <trkpt lat="45.16652" lon="5.94725">
        <ele>2272</ele>
        <time>2022-01-22T09:59:22Z</time>
      </trkpt>
      <trkpt lat="45.16654" lon="5.94726">
        <ele>2273</ele>
        <time>2022-01-22T09:59:25Z</time>
      </trkpt>
      <trkpt lat="45.16656" lon="5.94727">
        <ele>2274</ele>
        <time>2022-01-22T09:59:29Z</time>
      </trkpt>
      <trkpt lat="45.16658" lon="5.94728">
        <ele>2274</ele>
        <time>2022-01-22T09:59:33Z</time>
      </trkpt>
      <trkpt lat="45.1666" lon="5.94727">
        <ele>2276</ele>
        <time>2022-01-22T09:59:39Z</time>
      </trkpt>
      <trkpt lat="45.16661" lon="5.94724">
        <ele>2276</ele>
        <time>2022-01-22T09:59:43Z</time>
      </trkpt>
      <trkpt lat="45.16663" lon="5.94721">
        <ele>2276</ele>
        <time>2022-01-22T09:59:47Z</time>
      </trkpt>
      <trkpt lat="45.16664" lon="5.94719">
        <ele>2278</ele>
        <time>2022-01-22T09:59:51Z</time>
      </trkpt>
      <trkpt lat="45.16666" lon="5.94717">
        <ele>2279</ele>
        <time>2022-01-22T09:59:55Z</time>
      </trkpt>
      <trkpt lat="45.16667" lon="5.94715">
        <ele>2279</ele>
        <time>2022-01-22T10:00:13Z</time>
      </trkpt>
      <trkpt lat="45.16666" lon="5.94712">
        <ele>2279</ele>
        <time>2022-01-22T10:00:43Z</time>
      </trkpt>
      <trkpt lat="45.16666" lon="5.94709">
        <ele>2280</ele>
        <time>2022-01-22T10:00:52Z</time>
      </trkpt>
      <trkpt lat="45.16668" lon="5.94708">
        <ele>2281</ele>
        <time>2022-01-22T10:01:03Z</time>
      </trkpt>
      <trkpt lat="45.1667" lon="5.94709">
        <ele>2281</ele>
        <time>2022-01-22T10:01:05Z</time>
      </trkpt>
      <trkpt lat="45.16673" lon="5.9471">
        <ele>2281</ele>
        <time>2022-01-22T10:01:08Z</time>
      </trkpt>
      <trkpt lat="45.16675" lon="5.9471">
        <ele>2282</ele>
        <time>2022-01-22T10:01:11Z</time>
      </trkpt>
      <trkpt lat="45.16677" lon="5.9471">
        <ele>2283</ele>
        <time>2022-01-22T10:01:13Z</time>
      </trkpt>
      <trkpt lat="45.16679" lon="5.9471">
        <ele>2283</ele>
        <time>2022-01-22T10:01:16Z</time>
      </trkpt>
      <trkpt lat="45.16682" lon="5.94711">
        <ele>2283</ele>
        <time>2022-01-22T10:01:19Z</time>
      </trkpt>
      <trkpt lat="45.16684" lon="5.94711">
        <ele>2283</ele>
        <time>2022-01-22T10:01:22Z</time>
      </trkpt>
      <trkpt lat="45.16686" lon="5.94711">
        <ele>2285</ele>
        <time>2022-01-22T10:01:25Z</time>
      </trkpt>
      <trkpt lat="45.16688" lon="5.9471">
        <ele>2285</ele>
        <time>2022-01-22T10:01:28Z</time>
      </trkpt>
      <trkpt lat="45.1669" lon="5.9471">
        <ele>2287</ele>
        <time>2022-01-22T10:01:31Z</time>
      </trkpt>
      <trkpt lat="45.16692" lon="5.94711">
        <ele>2287</ele>
        <time>2022-01-22T10:01:34Z</time>
      </trkpt>
      <trkpt lat="45.16693" lon="5.94715">
        <ele>2287</ele>
        <time>2022-01-22T10:01:37Z</time>
      </trkpt>
      <trkpt lat="45.16693" lon="5.94718">
        <ele>2288</ele>
        <time>2022-01-22T10:01:40Z</time>
      </trkpt>
      <trkpt lat="45.16693" lon="5.94721">
        <ele>2288</ele>
        <time>2022-01-22T10:01:43Z</time>
      </trkpt>
      <trkpt lat="45.16694" lon="5.94724">
        <ele>2289</ele>
        <time>2022-01-22T10:01:46Z</time>
      </trkpt>
      <trkpt lat="45.16694" lon="5.94727">
        <ele>2290</ele>
        <time>2022-01-22T10:01:49Z</time>
      </trkpt>
      <trkpt lat="45.16695" lon="5.9473">
        <ele>2291</ele>
        <time>2022-01-22T10:01:52Z</time>
      </trkpt>
      <trkpt lat="45.16695" lon="5.94732">
        <ele>2291</ele>
        <time>2022-01-22T10:01:55Z</time>
      </trkpt>
      <trkpt lat="45.16696" lon="5.94735">
        <ele>2291</ele>
        <time>2022-01-22T10:01:58Z</time>
      </trkpt>
      <trkpt lat="45.16696" lon="5.94738">
        <ele>2291</ele>
        <time>2022-01-22T10:02:01Z</time>
      </trkpt>
      <trkpt lat="45.16696" lon="5.94741">
        <ele>2292</ele>
        <time>2022-01-22T10:02:05Z</time>
      </trkpt>
      <trkpt lat="45.16696" lon="5.94744">
        <ele>2293</ele>
        <time>2022-01-22T10:02:09Z</time>
      </trkpt>
      <trkpt lat="45.16697" lon="5.94747">
        <ele>2293</ele>
        <time>2022-01-22T10:02:12Z</time>
      </trkpt>
      <trkpt lat="45.16697" lon="5.94749">
        <ele>2294</ele>
        <time>2022-01-22T10:02:15Z</time>
      </trkpt>
      <trkpt lat="45.16697" lon="5.94753">
        <ele>2294</ele>
        <time>2022-01-22T10:02:19Z</time>
      </trkpt>
      <trkpt lat="45.16697" lon="5.94756">
        <ele>2295</ele>
        <time>2022-01-22T10:02:23Z</time>
      </trkpt>
      <trkpt lat="45.16697" lon="5.94758">
        <ele>2295</ele>
        <time>2022-01-22T10:02:26Z</time>
      </trkpt>
      <trkpt lat="45.16697" lon="5.94762">
        <ele>2297</ele>
        <time>2022-01-22T10:02:30Z</time>
      </trkpt>
      <trkpt lat="45.16699" lon="5.94761">
        <ele>2298</ele>
        <time>2022-01-22T10:02:46Z</time>
      </trkpt>
      <trkpt lat="45.16701" lon="5.9476">
        <ele>2299</ele>
        <time>2022-01-22T10:02:49Z</time>
      </trkpt>
      <trkpt lat="45.16703" lon="5.94759">
        <ele>2299</ele>
        <time>2022-01-22T10:02:52Z</time>
      </trkpt>
      <trkpt lat="45.16704" lon="5.94758">
        <ele>2300</ele>
        <time>2022-01-22T10:02:55Z</time>
      </trkpt>
      <trkpt lat="45.16706" lon="5.94756">
        <ele>2300</ele>
        <time>2022-01-22T10:02:58Z</time>
      </trkpt>
      <trkpt lat="45.16708" lon="5.94754">
        <ele>2301</ele>
        <time>2022-01-22T10:03:01Z</time>
      </trkpt>
      <trkpt lat="45.1671" lon="5.94753">
        <ele>2302</ele>
        <time>2022-01-22T10:03:04Z</time>
      </trkpt>
      <trkpt lat="45.16711" lon="5.94751">
        <ele>2303</ele>
        <time>2022-01-22T10:03:07Z</time>
      </trkpt>
      <trkpt lat="45.16712" lon="5.94749">
        <ele>2303</ele>
        <time>2022-01-22T10:03:10Z</time>
      </trkpt>
      <trkpt lat="45.16714" lon="5.94747">
        <ele>2304</ele>
        <time>2022-01-22T10:03:13Z</time>
      </trkpt>
      <trkpt lat="45.16716" lon="5.94745">
        <ele>2304</ele>
        <time>2022-01-22T10:03:16Z</time>
      </trkpt>
      <trkpt lat="45.16717" lon="5.94743">
        <ele>2305</ele>
        <time>2022-01-22T10:03:19Z</time>
      </trkpt>
      <trkpt lat="45.16719" lon="5.94742">
        <ele>2305</ele>
        <time>2022-01-22T10:03:22Z</time>
      </trkpt>
      <trkpt lat="45.16721" lon="5.9474">
        <ele>2306</ele>
        <time>2022-01-22T10:03:25Z</time>
      </trkpt>
      <trkpt lat="45.16722" lon="5.94738">
        <ele>2306</ele>
        <time>2022-01-22T10:03:28Z</time>
      </trkpt>
      <trkpt lat="45.16724" lon="5.94736">
        <ele>2307</ele>
        <time>2022-01-22T10:03:31Z</time>
      </trkpt>
      <trkpt lat="45.16725" lon="5.94734">
        <ele>2307</ele>
        <time>2022-01-22T10:03:34Z</time>
      </trkpt>
      <trkpt lat="45.16727" lon="5.94732">
        <ele>2309</ele>
        <time>2022-01-22T10:03:37Z</time>
      </trkpt>
      <trkpt lat="45.16729" lon="5.94731">
        <ele>2309</ele>
        <time>2022-01-22T10:03:40Z</time>
      </trkpt>
      <trkpt lat="45.1673" lon="5.94729">
        <ele>2310</ele>
        <time>2022-01-22T10:03:43Z</time>
      </trkpt>
      <trkpt lat="45.16732" lon="5.94727">
        <ele>2310</ele>
        <time>2022-01-22T10:03:47Z</time>
      </trkpt>
      <trkpt lat="45.16734" lon="5.94725">
        <ele>2311</ele>
        <time>2022-01-22T10:03:51Z</time>
      </trkpt>
      <trkpt lat="45.16734" lon="5.94728">
        <ele>2312</ele>
        <time>2022-01-22T10:03:59Z</time>
      </trkpt>
      <trkpt lat="45.16735" lon="5.94732">
        <ele>2312</ele>
        <time>2022-01-22T10:04:02Z</time>
      </trkpt>
      <trkpt lat="45.16734" lon="5.94735">
        <ele>2312</ele>
        <time>2022-01-22T10:04:05Z</time>
      </trkpt>
      <trkpt lat="45.16734" lon="5.94738">
        <ele>2313</ele>
        <time>2022-01-22T10:04:08Z</time>
      </trkpt>
      <trkpt lat="45.16734" lon="5.94741">
        <ele>2313</ele>
        <time>2022-01-22T10:04:11Z</time>
      </trkpt>
      <trkpt lat="45.16734" lon="5.94744">
        <ele>2314</ele>
        <time>2022-01-22T10:04:14Z</time>
      </trkpt>
      <trkpt lat="45.16734" lon="5.94747">
        <ele>2315</ele>
        <time>2022-01-22T10:04:17Z</time>
      </trkpt>
      <trkpt lat="45.16734" lon="5.9475">
        <ele>2315</ele>
        <time>2022-01-22T10:04:20Z</time>
      </trkpt>
      <trkpt lat="45.16734" lon="5.94753">
        <ele>2316</ele>
        <time>2022-01-22T10:04:23Z</time>
      </trkpt>
      <trkpt lat="45.16735" lon="5.94756">
        <ele>2317</ele>
        <time>2022-01-22T10:04:26Z</time>
      </trkpt>
      <trkpt lat="45.16735" lon="5.94759">
        <ele>2317</ele>
        <time>2022-01-22T10:04:29Z</time>
      </trkpt>
      <trkpt lat="45.16735" lon="5.94762">
        <ele>2317</ele>
        <time>2022-01-22T10:04:32Z</time>
      </trkpt>
      <trkpt lat="45.16735" lon="5.94765">
        <ele>2319</ele>
        <time>2022-01-22T10:04:39Z</time>
      </trkpt>
      <trkpt lat="45.16735" lon="5.94768">
        <ele>2319</ele>
        <time>2022-01-22T10:04:42Z</time>
      </trkpt>
      <trkpt lat="45.16736" lon="5.94765">
        <ele>2320</ele>
        <time>2022-01-22T10:04:58Z</time>
      </trkpt>
      <trkpt lat="45.16737" lon="5.94763">
        <ele>2321</ele>
        <time>2022-01-22T10:05:01Z</time>
      </trkpt>
      <trkpt lat="45.16738" lon="5.94761">
        <ele>2322</ele>
        <time>2022-01-22T10:05:15Z</time>
      </trkpt>
      <trkpt lat="45.1674" lon="5.94759">
        <ele>2322</ele>
        <time>2022-01-22T10:05:18Z</time>
      </trkpt>
      <trkpt lat="45.16741" lon="5.94756">
        <ele>2322</ele>
        <time>2022-01-22T10:05:21Z</time>
      </trkpt>
      <trkpt lat="45.16743" lon="5.94755">
        <ele>2323</ele>
        <time>2022-01-22T10:05:24Z</time>
      </trkpt>
      <trkpt lat="45.16745" lon="5.94753">
        <ele>2323</ele>
        <time>2022-01-22T10:05:27Z</time>
      </trkpt>
      <trkpt lat="45.16747" lon="5.94751">
        <ele>2324</ele>
        <time>2022-01-22T10:05:30Z</time>
      </trkpt>
      <trkpt lat="45.16749" lon="5.94749">
        <ele>2324</ele>
        <time>2022-01-22T10:05:33Z</time>
      </trkpt>
      <trkpt lat="45.1675" lon="5.94747">
        <ele>2325</ele>
        <time>2022-01-22T10:05:36Z</time>
      </trkpt>
      <trkpt lat="45.16752" lon="5.94745">
        <ele>2326</ele>
        <time>2022-01-22T10:05:39Z</time>
      </trkpt>
      <trkpt lat="45.16754" lon="5.94744">
        <ele>2326</ele>
        <time>2022-01-22T10:05:42Z</time>
      </trkpt>
      <trkpt lat="45.16755" lon="5.94742">
        <ele>2327</ele>
        <time>2022-01-22T10:05:45Z</time>
      </trkpt>
      <trkpt lat="45.16757" lon="5.9474">
        <ele>2327</ele>
        <time>2022-01-22T10:05:48Z</time>
      </trkpt>
      <trkpt lat="45.16758" lon="5.94738">
        <ele>2328</ele>
        <time>2022-01-22T10:05:51Z</time>
      </trkpt>
      <trkpt lat="45.1676" lon="5.94737">
        <ele>2328</ele>
        <time>2022-01-22T10:05:55Z</time>
      </trkpt>
      <trkpt lat="45.16761" lon="5.94734">
        <ele>2329</ele>
        <time>2022-01-22T10:06:14Z</time>
      </trkpt>
      <trkpt lat="45.16762" lon="5.94732">
        <ele>2329</ele>
        <time>2022-01-22T10:06:18Z</time>
      </trkpt>
      <trkpt lat="45.16763" lon="5.94735">
        <ele>2329</ele>
        <time>2022-01-22T10:06:24Z</time>
      </trkpt>
      <trkpt lat="45.16763" lon="5.94738">
        <ele>2330</ele>
        <time>2022-01-22T10:06:27Z</time>
      </trkpt>
      <trkpt lat="45.16762" lon="5.94741">
        <ele>2332</ele>
        <time>2022-01-22T10:06:30Z</time>
      </trkpt>
      <trkpt lat="45.16762" lon="5.94744">
        <ele>2332</ele>
        <time>2022-01-22T10:06:33Z</time>
      </trkpt>
      <trkpt lat="45.16761" lon="5.94746">
        <ele>2332</ele>
        <time>2022-01-22T10:06:36Z</time>
      </trkpt>
      <trkpt lat="45.16761" lon="5.94749">
        <ele>2333</ele>
        <time>2022-01-22T10:06:50Z</time>
      </trkpt>
      <trkpt lat="45.16761" lon="5.94752">
        <ele>2334</ele>
        <time>2022-01-22T10:06:55Z</time>
      </trkpt>
      <trkpt lat="45.16761" lon="5.94755">
        <ele>2335</ele>
        <time>2022-01-22T10:06:59Z</time>
      </trkpt>
      <trkpt lat="45.16761" lon="5.94758">
        <ele>2335</ele>
        <time>2022-01-22T10:07:02Z</time>
      </trkpt>
      <trkpt lat="45.16761" lon="5.94761">
        <ele>2335</ele>
        <time>2022-01-22T10:07:05Z</time>
      </trkpt>
      <trkpt lat="45.1676" lon="5.94764">
        <ele>2336</ele>
        <time>2022-01-22T10:07:08Z</time>
      </trkpt>
      <trkpt lat="45.1676" lon="5.94767">
        <ele>2336</ele>
        <time>2022-01-22T10:07:11Z</time>
      </trkpt>
      <trkpt lat="45.1676" lon="5.9477">
        <ele>2337</ele>
        <time>2022-01-22T10:07:14Z</time>
      </trkpt>
      <trkpt lat="45.16759" lon="5.94773">
        <ele>2337</ele>
        <time>2022-01-22T10:07:17Z</time>
      </trkpt>
      <trkpt lat="45.16759" lon="5.94776">
        <ele>2337</ele>
        <time>2022-01-22T10:07:20Z</time>
      </trkpt>
      <trkpt lat="45.16759" lon="5.94778">
        <ele>2339</ele>
        <time>2022-01-22T10:07:23Z</time>
      </trkpt>
      <trkpt lat="45.16758" lon="5.94781">
        <ele>2339</ele>
        <time>2022-01-22T10:07:26Z</time>
      </trkpt>
      <trkpt lat="45.16758" lon="5.94785">
        <ele>2340</ele>
        <time>2022-01-22T10:07:30Z</time>
      </trkpt>
      <trkpt lat="45.16758" lon="5.94788">
        <ele>2340</ele>
        <time>2022-01-22T10:07:34Z</time>
      </trkpt>
      <trkpt lat="45.16757" lon="5.94791">
        <ele>2341</ele>
        <time>2022-01-22T10:07:38Z</time>
      </trkpt>
      <trkpt lat="45.16757" lon="5.94794">
        <ele>2341</ele>
        <time>2022-01-22T10:07:42Z</time>
      </trkpt>
      <trkpt lat="45.16756" lon="5.94797">
        <ele>2341</ele>
        <time>2022-01-22T10:07:46Z</time>
      </trkpt>
      <trkpt lat="45.16756" lon="5.948">
        <ele>2342</ele>
        <time>2022-01-22T10:07:55Z</time>
      </trkpt>
      <trkpt lat="45.16756" lon="5.94803">
        <ele>2342</ele>
        <time>2022-01-22T10:07:58Z</time>
      </trkpt>
      <trkpt lat="45.16756" lon="5.94805">
        <ele>2343</ele>
        <time>2022-01-22T10:08:01Z</time>
      </trkpt>
      <trkpt lat="45.16756" lon="5.94809">
        <ele>2344</ele>
        <time>2022-01-22T10:08:05Z</time>
      </trkpt>
      <trkpt lat="45.16755" lon="5.94812">
        <ele>2344</ele>
        <time>2022-01-22T10:08:09Z</time>
      </trkpt>
      <trkpt lat="45.16755" lon="5.94815">
        <ele>2344</ele>
        <time>2022-01-22T10:08:12Z</time>
      </trkpt>
      <trkpt lat="45.16754" lon="5.94817">
        <ele>2345</ele>
        <time>2022-01-22T10:08:16Z</time>
      </trkpt>
      <trkpt lat="45.16755" lon="5.94814">
        <ele>2345</ele>
        <time>2022-01-22T10:08:38Z</time>
      </trkpt>
      <trkpt lat="45.16756" lon="5.94812">
        <ele>2345</ele>
        <time>2022-01-22T10:08:41Z</time>
      </trkpt>
      <trkpt lat="45.16758" lon="5.94811">
        <ele>2345</ele>
        <time>2022-01-22T10:08:44Z</time>
      </trkpt>
      <trkpt lat="45.16759" lon="5.94809">
        <ele>2346</ele>
        <time>2022-01-22T10:08:48Z</time>
      </trkpt>
      <trkpt lat="45.16761" lon="5.94806">
        <ele>2346</ele>
        <time>2022-01-22T10:08:51Z</time>
      </trkpt>
      <trkpt lat="45.16762" lon="5.94805">
        <ele>2347</ele>
        <time>2022-01-22T10:08:54Z</time>
      </trkpt>
      <trkpt lat="45.16764" lon="5.94803">
        <ele>2347</ele>
        <time>2022-01-22T10:08:57Z</time>
      </trkpt>
      <trkpt lat="45.16765" lon="5.948">
        <ele>2348</ele>
        <time>2022-01-22T10:09:01Z</time>
      </trkpt>
      <trkpt lat="45.16767" lon="5.94798">
        <ele>2349</ele>
        <time>2022-01-22T10:09:05Z</time>
      </trkpt>
      <trkpt lat="45.16769" lon="5.94797">
        <ele>2349</ele>
        <time>2022-01-22T10:09:09Z</time>
      </trkpt>
      <trkpt lat="45.16771" lon="5.94795">
        <ele>2350</ele>
        <time>2022-01-22T10:09:13Z</time>
      </trkpt>
      <trkpt lat="45.16773" lon="5.94793">
        <ele>2351</ele>
        <time>2022-01-22T10:09:17Z</time>
      </trkpt>
      <trkpt lat="45.16774" lon="5.9479">
        <ele>2351</ele>
        <time>2022-01-22T10:09:21Z</time>
      </trkpt>
      <trkpt lat="45.16776" lon="5.94788">
        <ele>2352</ele>
        <time>2022-01-22T10:09:25Z</time>
      </trkpt>
      <trkpt lat="45.16777" lon="5.94787">
        <ele>2353</ele>
        <time>2022-01-22T10:09:29Z</time>
      </trkpt>
      <trkpt lat="45.16779" lon="5.94785">
        <ele>2353</ele>
        <time>2022-01-22T10:09:32Z</time>
      </trkpt>
      <trkpt lat="45.1678" lon="5.94782">
        <ele>2354</ele>
        <time>2022-01-22T10:09:36Z</time>
      </trkpt>
      <trkpt lat="45.16782" lon="5.9478">
        <ele>2354</ele>
        <time>2022-01-22T10:09:40Z</time>
      </trkpt>
      <trkpt lat="45.16783" lon="5.94777">
        <ele>2355</ele>
        <time>2022-01-22T10:09:44Z</time>
      </trkpt>
      <trkpt lat="45.16784" lon="5.94775">
        <ele>2356</ele>
        <time>2022-01-22T10:09:47Z</time>
      </trkpt>
      <trkpt lat="45.16786" lon="5.94773">
        <ele>2356</ele>
        <time>2022-01-22T10:09:51Z</time>
      </trkpt>
      <trkpt lat="45.16787" lon="5.94771">
        <ele>2356</ele>
        <time>2022-01-22T10:09:55Z</time>
      </trkpt>
      <trkpt lat="45.16789" lon="5.94769">
        <ele>2357</ele>
        <time>2022-01-22T10:09:58Z</time>
      </trkpt>
      <trkpt lat="45.1679" lon="5.94766">
        <ele>2357</ele>
        <time>2022-01-22T10:10:02Z</time>
      </trkpt>
      <trkpt lat="45.16792" lon="5.94764">
        <ele>2359</ele>
        <time>2022-01-22T10:10:06Z</time>
      </trkpt>
      <trkpt lat="45.16793" lon="5.94761">
        <ele>2359</ele>
        <time>2022-01-22T10:10:10Z</time>
      </trkpt>
      <trkpt lat="45.16794" lon="5.94758">
        <ele>2360</ele>
        <time>2022-01-22T10:10:14Z</time>
      </trkpt>
      <trkpt lat="45.16795" lon="5.94756">
        <ele>2360</ele>
        <time>2022-01-22T10:10:18Z</time>
      </trkpt>
      <trkpt lat="45.16796" lon="5.94754">
        <ele>2362</ele>
        <time>2022-01-22T10:10:21Z</time>
      </trkpt>
      <trkpt lat="45.16797" lon="5.94751">
        <ele>2362</ele>
        <time>2022-01-22T10:10:25Z</time>
      </trkpt>
      <trkpt lat="45.16798" lon="5.94749">
        <ele>2363</ele>
        <time>2022-01-22T10:10:29Z</time>
      </trkpt>
      <trkpt lat="45.16799" lon="5.94747">
        <ele>2363</ele>
        <time>2022-01-22T10:10:32Z</time>
      </trkpt>
      <trkpt lat="45.168" lon="5.94744">
        <ele>2363</ele>
        <time>2022-01-22T10:10:36Z</time>
      </trkpt>
      <trkpt lat="45.16802" lon="5.94741">
        <ele>2364</ele>
        <time>2022-01-22T10:10:40Z</time>
      </trkpt>
      <trkpt lat="45.16803" lon="5.94739">
        <ele>2365</ele>
        <time>2022-01-22T10:10:44Z</time>
      </trkpt>
      <trkpt lat="45.16804" lon="5.94736">
        <ele>2364</ele>
        <time>2022-01-22T10:10:53Z</time>
      </trkpt>
      <trkpt lat="45.16805" lon="5.94734">
        <ele>2365</ele>
        <time>2022-01-22T10:10:57Z</time>
      </trkpt>
      <trkpt lat="45.16807" lon="5.94731">
        <ele>2366</ele>
        <time>2022-01-22T10:11:01Z</time>
      </trkpt>
      <trkpt lat="45.16808" lon="5.94729">
        <ele>2366</ele>
        <time>2022-01-22T10:11:04Z</time>
      </trkpt>
      <trkpt lat="45.1681" lon="5.94728">
        <ele>2366</ele>
        <time>2022-01-22T10:11:07Z</time>
      </trkpt>
      <trkpt lat="45.16811" lon="5.94726">
        <ele>2367</ele>
        <time>2022-01-22T10:11:10Z</time>
      </trkpt>
      <trkpt lat="45.16813" lon="5.94724">
        <ele>2368</ele>
        <time>2022-01-22T10:11:14Z</time>
      </trkpt>
      <trkpt lat="45.16815" lon="5.94723">
        <ele>2368</ele>
        <time>2022-01-22T10:11:17Z</time>
      </trkpt>
      <trkpt lat="45.16816" lon="5.94721">
        <ele>2369</ele>
        <time>2022-01-22T10:11:20Z</time>
      </trkpt>
      <trkpt lat="45.16818" lon="5.94719">
        <ele>2371</ele>
        <time>2022-01-22T10:11:24Z</time>
      </trkpt>
      <trkpt lat="45.16819" lon="5.94716">
        <ele>2371</ele>
        <time>2022-01-22T10:11:28Z</time>
      </trkpt>
      <trkpt lat="45.1682" lon="5.94714">
        <ele>2372</ele>
        <time>2022-01-22T10:11:32Z</time>
      </trkpt>
      <trkpt lat="45.16822" lon="5.94712">
        <ele>2373</ele>
        <time>2022-01-22T10:11:36Z</time>
      </trkpt>
      <trkpt lat="45.16823" lon="5.9471">
        <ele>2374</ele>
        <time>2022-01-22T10:11:40Z</time>
      </trkpt>
      <trkpt lat="45.16825" lon="5.94708">
        <ele>2374</ele>
        <time>2022-01-22T10:11:44Z</time>
      </trkpt>
      <trkpt lat="45.16826" lon="5.94705">
        <ele>2375</ele>
        <time>2022-01-22T10:11:56Z</time>
      </trkpt>
      <trkpt lat="45.16827" lon="5.94703">
        <ele>2376</ele>
        <time>2022-01-22T10:12:00Z</time>
      </trkpt>
      <trkpt lat="45.16828" lon="5.947">
        <ele>2377</ele>
        <time>2022-01-22T10:12:04Z</time>
      </trkpt>
      <trkpt lat="45.16828" lon="5.94697">
        <ele>2378</ele>
        <time>2022-01-22T10:12:07Z</time>
      </trkpt>
      <trkpt lat="45.16829" lon="5.94694">
        <ele>2378</ele>
        <time>2022-01-22T10:12:10Z</time>
      </trkpt>
      <trkpt lat="45.1683" lon="5.94691">
        <ele>2379</ele>
        <time>2022-01-22T10:12:14Z</time>
      </trkpt>
      <trkpt lat="45.1683" lon="5.94688">
        <ele>2379</ele>
        <time>2022-01-22T10:12:17Z</time>
      </trkpt>
      <trkpt lat="45.16831" lon="5.94686">
        <ele>2380</ele>
        <time>2022-01-22T10:12:24Z</time>
      </trkpt>
      <trkpt lat="45.16831" lon="5.94682">
        <ele>2380</ele>
        <time>2022-01-22T10:12:32Z</time>
      </trkpt>
      <trkpt lat="45.16832" lon="5.94679">
        <ele>2381</ele>
        <time>2022-01-22T10:12:35Z</time>
      </trkpt>
      <trkpt lat="45.16833" lon="5.94677">
        <ele>2381</ele>
        <time>2022-01-22T10:12:38Z</time>
      </trkpt>
      <trkpt lat="45.16833" lon="5.94674">
        <ele>2381</ele>
        <time>2022-01-22T10:12:41Z</time>
      </trkpt>
      <trkpt lat="45.16834" lon="5.94671">
        <ele>2382</ele>
        <time>2022-01-22T10:12:45Z</time>
      </trkpt>
      <trkpt lat="45.16836" lon="5.94673">
        <ele>2383</ele>
        <time>2022-01-22T10:12:57Z</time>
      </trkpt>
      <trkpt lat="45.16837" lon="5.94676">
        <ele>2384</ele>
        <time>2022-01-22T10:13:00Z</time>
      </trkpt>
      <trkpt lat="45.16838" lon="5.94679">
        <ele>2384</ele>
        <time>2022-01-22T10:13:04Z</time>
      </trkpt>
      <trkpt lat="45.16839" lon="5.94681">
        <ele>2385</ele>
        <time>2022-01-22T10:13:07Z</time>
      </trkpt>
      <trkpt lat="45.1684" lon="5.94683">
        <ele>2385</ele>
        <time>2022-01-22T10:13:10Z</time>
      </trkpt>
      <trkpt lat="45.16841" lon="5.94685">
        <ele>2385</ele>
        <time>2022-01-22T10:13:13Z</time>
      </trkpt>
      <trkpt lat="45.16842" lon="5.94688">
        <ele>2386</ele>
        <time>2022-01-22T10:13:17Z</time>
      </trkpt>
      <trkpt lat="45.16843" lon="5.94691">
        <ele>2386</ele>
        <time>2022-01-22T10:13:20Z</time>
      </trkpt>
      <trkpt lat="45.16844" lon="5.94693">
        <ele>2386</ele>
        <time>2022-01-22T10:13:23Z</time>
      </trkpt>
      <trkpt lat="45.16844" lon="5.94696">
        <ele>2388</ele>
        <time>2022-01-22T10:13:27Z</time>
      </trkpt>
      <trkpt lat="45.16845" lon="5.94699">
        <ele>2388</ele>
        <time>2022-01-22T10:13:31Z</time>
      </trkpt>
      <trkpt lat="45.16846" lon="5.94702">
        <ele>2389</ele>
        <time>2022-01-22T10:13:35Z</time>
      </trkpt>
      <trkpt lat="45.16847" lon="5.94705">
        <ele>2389</ele>
        <time>2022-01-22T10:13:39Z</time>
      </trkpt>
      <trkpt lat="45.16848" lon="5.94708">
        <ele>2390</ele>
        <time>2022-01-22T10:13:43Z</time>
      </trkpt>
      <trkpt lat="45.16849" lon="5.94711">
        <ele>2390</ele>
        <time>2022-01-22T10:13:47Z</time>
      </trkpt>
      <trkpt lat="45.1685" lon="5.94714">
        <ele>2392</ele>
        <time>2022-01-22T10:14:09Z</time>
      </trkpt>
      <trkpt lat="45.1685" lon="5.94716">
        <ele>2393</ele>
        <time>2022-01-22T10:14:12Z</time>
      </trkpt>
      <trkpt lat="45.16851" lon="5.94719">
        <ele>2393</ele>
        <time>2022-01-22T10:14:15Z</time>
      </trkpt>
      <trkpt lat="45.16852" lon="5.94722">
        <ele>2394</ele>
        <time>2022-01-22T10:14:18Z</time>
      </trkpt>
      <trkpt lat="45.16852" lon="5.94725">
        <ele>2394</ele>
        <time>2022-01-22T10:14:21Z</time>
      </trkpt>
      <trkpt lat="45.16854" lon="5.94722">
        <ele>2395</ele>
        <time>2022-01-22T10:14:36Z</time>
      </trkpt>
      <trkpt lat="45.16854" lon="5.94719">
        <ele>2395</ele>
        <time>2022-01-22T10:14:39Z</time>
      </trkpt>
      <trkpt lat="45.16855" lon="5.94716">
        <ele>2396</ele>
        <time>2022-01-22T10:14:43Z</time>
      </trkpt>
      <trkpt lat="45.16856" lon="5.94714">
        <ele>2397</ele>
        <time>2022-01-22T10:14:46Z</time>
      </trkpt>
      <trkpt lat="45.16857" lon="5.94711">
        <ele>2397</ele>
        <time>2022-01-22T10:14:49Z</time>
      </trkpt>
      <trkpt lat="45.16858" lon="5.94708">
        <ele>2397</ele>
        <time>2022-01-22T10:14:53Z</time>
      </trkpt>
      <trkpt lat="45.16858" lon="5.94706">
        <ele>2399</ele>
        <time>2022-01-22T10:15:01Z</time>
      </trkpt>
      <trkpt lat="45.16859" lon="5.94703">
        <ele>2399</ele>
        <time>2022-01-22T10:15:05Z</time>
      </trkpt>
      <trkpt lat="45.1686" lon="5.947">
        <ele>2399</ele>
        <time>2022-01-22T10:15:09Z</time>
      </trkpt>
      <trkpt lat="45.16861" lon="5.94702">
        <ele>2400</ele>
        <time>2022-01-22T10:15:16Z</time>
      </trkpt>
      <trkpt lat="45.16862" lon="5.94705">
        <ele>2401</ele>
        <time>2022-01-22T10:15:19Z</time>
      </trkpt>
      <trkpt lat="45.16863" lon="5.94707">
        <ele>2402</ele>
        <time>2022-01-22T10:15:22Z</time>
      </trkpt>
      <trkpt lat="45.16864" lon="5.94711">
        <ele>2402</ele>
        <time>2022-01-22T10:15:26Z</time>
      </trkpt>
      <trkpt lat="45.16864" lon="5.94714">
        <ele>2402</ele>
        <time>2022-01-22T10:15:29Z</time>
      </trkpt>
      <trkpt lat="45.16865" lon="5.94716">
        <ele>2404</ele>
        <time>2022-01-22T10:15:32Z</time>
      </trkpt>
      <trkpt lat="45.16866" lon="5.94719">
        <ele>2404</ele>
        <time>2022-01-22T10:15:35Z</time>
      </trkpt>
      <trkpt lat="45.16867" lon="5.94722">
        <ele>2405</ele>
        <time>2022-01-22T10:15:39Z</time>
      </trkpt>
      <trkpt lat="45.16868" lon="5.94724">
        <ele>2405</ele>
        <time>2022-01-22T10:15:42Z</time>
      </trkpt>
      <trkpt lat="45.16868" lon="5.94727">
        <ele>2405</ele>
        <time>2022-01-22T10:15:45Z</time>
      </trkpt>
      <trkpt lat="45.16869" lon="5.9473">
        <ele>2406</ele>
        <time>2022-01-22T10:15:49Z</time>
      </trkpt>
      <trkpt lat="45.16869" lon="5.94734">
        <ele>2406</ele>
        <time>2022-01-22T10:15:53Z</time>
      </trkpt>
      <trkpt lat="45.16869" lon="5.94737">
        <ele>2408</ele>
        <time>2022-01-22T10:15:57Z</time>
      </trkpt>
      <trkpt lat="45.1687" lon="5.94734">
        <ele>2407</ele>
        <time>2022-01-22T10:16:15Z</time>
      </trkpt>
      <trkpt lat="45.16871" lon="5.94732">
        <ele>2408</ele>
        <time>2022-01-22T10:16:19Z</time>
      </trkpt>
      <trkpt lat="45.16872" lon="5.9473">
        <ele>2409</ele>
        <time>2022-01-22T10:16:23Z</time>
      </trkpt>
      <trkpt lat="45.16872" lon="5.94732">
        <ele>2410</ele>
        <time>2022-01-22T10:16:31Z</time>
      </trkpt>
      <trkpt lat="45.16872" lon="5.94736">
        <ele>2410</ele>
        <time>2022-01-22T10:16:34Z</time>
      </trkpt>
      <trkpt lat="45.16872" lon="5.94739">
        <ele>2410</ele>
        <time>2022-01-22T10:16:37Z</time>
      </trkpt>
      <trkpt lat="45.16873" lon="5.94741">
        <ele>2411</ele>
        <time>2022-01-22T10:16:40Z</time>
      </trkpt>
      <trkpt lat="45.16873" lon="5.94744">
        <ele>2411</ele>
        <time>2022-01-22T10:16:43Z</time>
      </trkpt>
      <trkpt lat="45.16873" lon="5.94747">
        <ele>2412</ele>
        <time>2022-01-22T10:16:46Z</time>
      </trkpt>
      <trkpt lat="45.16872" lon="5.9475">
        <ele>2413</ele>
        <time>2022-01-22T10:16:50Z</time>
      </trkpt>
      <trkpt lat="45.16872" lon="5.94753">
        <ele>2414</ele>
        <time>2022-01-22T10:16:54Z</time>
      </trkpt>
      <trkpt lat="45.16874" lon="5.94751">
        <ele>2415</ele>
        <time>2022-01-22T10:17:17Z</time>
      </trkpt>
      <trkpt lat="45.16876" lon="5.94749">
        <ele>2415</ele>
        <time>2022-01-22T10:17:21Z</time>
      </trkpt>
      <trkpt lat="45.16877" lon="5.94747">
        <ele>2415</ele>
        <time>2022-01-22T10:17:25Z</time>
      </trkpt>
      <trkpt lat="45.16879" lon="5.94746">
        <ele>2416</ele>
        <time>2022-01-22T10:17:29Z</time>
      </trkpt>
      <trkpt lat="45.16879" lon="5.94749">
        <ele>2417</ele>
        <time>2022-01-22T10:17:37Z</time>
      </trkpt>
      <trkpt lat="45.16879" lon="5.94752">
        <ele>2418</ele>
        <time>2022-01-22T10:17:40Z</time>
      </trkpt>
      <trkpt lat="45.16879" lon="5.94755">
        <ele>2418</ele>
        <time>2022-01-22T10:17:43Z</time>
      </trkpt>
      <trkpt lat="45.16879" lon="5.94757">
        <ele>2419</ele>
        <time>2022-01-22T10:17:46Z</time>
      </trkpt>
      <trkpt lat="45.16879" lon="5.9476">
        <ele>2419</ele>
        <time>2022-01-22T10:17:50Z</time>
      </trkpt>
      <trkpt lat="45.16879" lon="5.94763">
        <ele>2420</ele>
        <time>2022-01-22T10:17:55Z</time>
      </trkpt>
      <trkpt lat="45.16879" lon="5.94766">
        <ele>2420</ele>
        <time>2022-01-22T10:17:59Z</time>
      </trkpt>
      <trkpt lat="45.16881" lon="5.94768">
        <ele>2421</ele>
        <time>2022-01-22T10:18:19Z</time>
      </trkpt>
      <trkpt lat="45.16883" lon="5.94767">
        <ele>2422</ele>
        <time>2022-01-22T10:18:23Z</time>
      </trkpt>
      <trkpt lat="45.16885" lon="5.94767">
        <ele>2422</ele>
        <time>2022-01-22T10:18:26Z</time>
      </trkpt>
      <trkpt lat="45.16886" lon="5.94765">
        <ele>2424</ele>
        <time>2022-01-22T10:18:29Z</time>
      </trkpt>
      <trkpt lat="45.16888" lon="5.94764">
        <ele>2423</ele>
        <time>2022-01-22T10:18:32Z</time>
      </trkpt>
      <trkpt lat="45.1689" lon="5.94763">
        <ele>2425</ele>
        <time>2022-01-22T10:18:36Z</time>
      </trkpt>
      <trkpt lat="45.16892" lon="5.94761">
        <ele>2426</ele>
        <time>2022-01-22T10:18:40Z</time>
      </trkpt>
      <trkpt lat="45.16894" lon="5.94759">
        <ele>2426</ele>
        <time>2022-01-22T10:18:45Z</time>
      </trkpt>
      <trkpt lat="45.16895" lon="5.94757">
        <ele>2427</ele>
        <time>2022-01-22T10:18:49Z</time>
      </trkpt>
      <trkpt lat="45.16896" lon="5.94755">
        <ele>2427</ele>
        <time>2022-01-22T10:18:53Z</time>
      </trkpt>
      <trkpt lat="45.16898" lon="5.94752">
        <ele>2428</ele>
        <time>2022-01-22T10:18:57Z</time>
      </trkpt>
      <trkpt lat="45.16899" lon="5.94749">
        <ele>2429</ele>
        <time>2022-01-22T10:19:01Z</time>
      </trkpt>
      <trkpt lat="45.169" lon="5.94747">
        <ele>2430</ele>
        <time>2022-01-22T10:19:05Z</time>
      </trkpt>
      <trkpt lat="45.16901" lon="5.94749">
        <ele>2431</ele>
        <time>2022-01-22T10:19:33Z</time>
      </trkpt>
      <trkpt lat="45.16902" lon="5.94752">
        <ele>2432</ele>
        <time>2022-01-22T10:19:37Z</time>
      </trkpt>
      <trkpt lat="45.16904" lon="5.94754">
        <ele>2432</ele>
        <time>2022-01-22T10:19:41Z</time>
      </trkpt>
      <trkpt lat="45.16904" lon="5.94757">
        <ele>2432</ele>
        <time>2022-01-22T10:19:44Z</time>
      </trkpt>
      <trkpt lat="45.16906" lon="5.94759">
        <ele>2433</ele>
        <time>2022-01-22T10:19:47Z</time>
      </trkpt>
      <trkpt lat="45.16907" lon="5.94762">
        <ele>2433</ele>
        <time>2022-01-22T10:19:50Z</time>
      </trkpt>
      <trkpt lat="45.16907" lon="5.94765">
        <ele>2434</ele>
        <time>2022-01-22T10:19:54Z</time>
      </trkpt>
      <trkpt lat="45.16908" lon="5.94767">
        <ele>2434</ele>
        <time>2022-01-22T10:19:57Z</time>
      </trkpt>
      <trkpt lat="45.16909" lon="5.9477">
        <ele>2435</ele>
        <time>2022-01-22T10:20:00Z</time>
      </trkpt>
      <trkpt lat="45.1691" lon="5.94773">
        <ele>2436</ele>
        <time>2022-01-22T10:20:03Z</time>
      </trkpt>
      <trkpt lat="45.16911" lon="5.94776">
        <ele>2436</ele>
        <time>2022-01-22T10:20:07Z</time>
      </trkpt>
      <trkpt lat="45.16912" lon="5.94778">
        <ele>2436</ele>
        <time>2022-01-22T10:20:10Z</time>
      </trkpt>
      <trkpt lat="45.16912" lon="5.94781">
        <ele>2436</ele>
        <time>2022-01-22T10:20:13Z</time>
      </trkpt>
      <trkpt lat="45.16913" lon="5.94784">
        <ele>2437</ele>
        <time>2022-01-22T10:20:17Z</time>
      </trkpt>
      <trkpt lat="45.16914" lon="5.94787">
        <ele>2437</ele>
        <time>2022-01-22T10:20:21Z</time>
      </trkpt>
      <trkpt lat="45.16915" lon="5.9479">
        <ele>2438</ele>
        <time>2022-01-22T10:20:25Z</time>
      </trkpt>
      <trkpt lat="45.16916" lon="5.94793">
        <ele>2438</ele>
        <time>2022-01-22T10:20:29Z</time>
      </trkpt>
      <trkpt lat="45.16917" lon="5.94795">
        <ele>2439</ele>
        <time>2022-01-22T10:20:32Z</time>
      </trkpt>
      <trkpt lat="45.16918" lon="5.94798">
        <ele>2441</ele>
        <time>2022-01-22T10:20:36Z</time>
      </trkpt>
      <trkpt lat="45.16919" lon="5.94801">
        <ele>2442</ele>
        <time>2022-01-22T10:20:40Z</time>
      </trkpt>
      <trkpt lat="45.16919" lon="5.94804">
        <ele>2441</ele>
        <time>2022-01-22T10:22:02Z</time>
      </trkpt>
      <trkpt lat="45.16919" lon="5.94807">
        <ele>2441</ele>
        <time>2022-01-22T10:22:05Z</time>
      </trkpt>
      <trkpt lat="45.1692" lon="5.9481">
        <ele>2442</ele>
        <time>2022-01-22T10:22:09Z</time>
      </trkpt>
      <trkpt lat="45.1692" lon="5.94813">
        <ele>2442</ele>
        <time>2022-01-22T10:22:12Z</time>
      </trkpt>
      <trkpt lat="45.16921" lon="5.94816">
        <ele>2443</ele>
        <time>2022-01-22T10:22:17Z</time>
      </trkpt>
      <trkpt lat="45.16921" lon="5.94819">
        <ele>2445</ele>
        <time>2022-01-22T10:22:20Z</time>
      </trkpt>
      <trkpt lat="45.16922" lon="5.94822">
        <ele>2445</ele>
        <time>2022-01-22T10:22:23Z</time>
      </trkpt>
      <trkpt lat="45.16923" lon="5.94824">
        <ele>2446</ele>
        <time>2022-01-22T10:22:26Z</time>
      </trkpt>
      <trkpt lat="45.16924" lon="5.94827">
        <ele>2446</ele>
        <time>2022-01-22T10:22:30Z</time>
      </trkpt>
      <trkpt lat="45.16924" lon="5.9483">
        <ele>2447</ele>
        <time>2022-01-22T10:22:33Z</time>
      </trkpt>
      <trkpt lat="45.16925" lon="5.94832">
        <ele>2447</ele>
        <time>2022-01-22T10:22:36Z</time>
      </trkpt>
      <trkpt lat="45.16926" lon="5.94835">
        <ele>2448</ele>
        <time>2022-01-22T10:22:39Z</time>
      </trkpt>
      <trkpt lat="45.16927" lon="5.94838">
        <ele>2448</ele>
        <time>2022-01-22T10:22:43Z</time>
      </trkpt>
      <trkpt lat="45.16927" lon="5.94834">
        <ele>2448</ele>
        <time>2022-01-22T10:22:53Z</time>
      </trkpt>
      <trkpt lat="45.16928" lon="5.94832">
        <ele>2449</ele>
        <time>2022-01-22T10:22:56Z</time>
      </trkpt>
      <trkpt lat="45.1693" lon="5.9483">
        <ele>2449</ele>
        <time>2022-01-22T10:22:59Z</time>
      </trkpt>
      <trkpt lat="45.16931" lon="5.94827">
        <ele>2449</ele>
        <time>2022-01-22T10:23:02Z</time>
      </trkpt>
      <trkpt lat="45.16932" lon="5.94825">
        <ele>2450</ele>
        <time>2022-01-22T10:23:05Z</time>
      </trkpt>
      <trkpt lat="45.16933" lon="5.94823">
        <ele>2451</ele>
        <time>2022-01-22T10:23:09Z</time>
      </trkpt>
      <trkpt lat="45.16935" lon="5.9482">
        <ele>2451</ele>
        <time>2022-01-22T10:23:13Z</time>
      </trkpt>
      <trkpt lat="45.16936" lon="5.94818">
        <ele>2451</ele>
        <time>2022-01-22T10:23:16Z</time>
      </trkpt>
      <trkpt lat="45.16937" lon="5.94816">
        <ele>2451</ele>
        <time>2022-01-22T10:23:19Z</time>
      </trkpt>
      <trkpt lat="45.16938" lon="5.94814">
        <ele>2452</ele>
        <time>2022-01-22T10:23:22Z</time>
      </trkpt>
      <trkpt lat="45.16939" lon="5.94811">
        <ele>2453</ele>
        <time>2022-01-22T10:23:26Z</time>
      </trkpt>
      <trkpt lat="45.16941" lon="5.94809">
        <ele>2453</ele>
        <time>2022-01-22T10:23:30Z</time>
      </trkpt>
      <trkpt lat="45.16942" lon="5.94806">
        <ele>2453</ele>
        <time>2022-01-22T10:23:34Z</time>
      </trkpt>
      <trkpt lat="45.16944" lon="5.94804">
        <ele>2454</ele>
        <time>2022-01-22T10:23:38Z</time>
      </trkpt>
      <trkpt lat="45.16945" lon="5.94802">
        <ele>2454</ele>
        <time>2022-01-22T10:23:42Z</time>
      </trkpt>
      <trkpt lat="45.16946" lon="5.94799">
        <ele>2455</ele>
        <time>2022-01-22T10:23:45Z</time>
      </trkpt>
      <trkpt lat="45.16947" lon="5.94797">
        <ele>2456</ele>
        <time>2022-01-22T10:23:48Z</time>
      </trkpt>
      <trkpt lat="45.16948" lon="5.94795">
        <ele>2456</ele>
        <time>2022-01-22T10:23:51Z</time>
      </trkpt>
      <trkpt lat="45.1695" lon="5.94793">
        <ele>2456</ele>
        <time>2022-01-22T10:23:55Z</time>
      </trkpt>
      <trkpt lat="45.16951" lon="5.9479">
        <ele>2457</ele>
        <time>2022-01-22T10:23:59Z</time>
      </trkpt>
      <trkpt lat="45.16952" lon="5.94788">
        <ele>2459</ele>
        <time>2022-01-22T10:24:02Z</time>
      </trkpt>
      <trkpt lat="45.16953" lon="5.94785">
        <ele>2459</ele>
        <time>2022-01-22T10:24:06Z</time>
      </trkpt>
      <trkpt lat="45.16954" lon="5.94783">
        <ele>2460</ele>
        <time>2022-01-22T10:24:09Z</time>
      </trkpt>
      <trkpt lat="45.16954" lon="5.9478">
        <ele>2461</ele>
        <time>2022-01-22T10:24:48Z</time>
      </trkpt>
      <trkpt lat="45.16955" lon="5.94777">
        <ele>2461</ele>
        <time>2022-01-22T10:24:51Z</time>
      </trkpt>
      <trkpt lat="45.16956" lon="5.94774">
        <ele>2462</ele>
        <time>2022-01-22T10:24:54Z</time>
      </trkpt>
      <trkpt lat="45.16956" lon="5.94772">
        <ele>2463</ele>
        <time>2022-01-22T10:24:57Z</time>
      </trkpt>
      <trkpt lat="45.16957" lon="5.94769">
        <ele>2463</ele>
        <time>2022-01-22T10:25:00Z</time>
      </trkpt>
      <trkpt lat="45.16957" lon="5.94766">
        <ele>2464</ele>
        <time>2022-01-22T10:25:03Z</time>
      </trkpt>
      <trkpt lat="45.16958" lon="5.94763">
        <ele>2464</ele>
        <time>2022-01-22T10:25:07Z</time>
      </trkpt>
      <trkpt lat="45.16959" lon="5.9476">
        <ele>2465</ele>
        <time>2022-01-22T10:25:11Z</time>
      </trkpt>
      <trkpt lat="45.16959" lon="5.94758">
        <ele>2466</ele>
        <time>2022-01-22T10:25:14Z</time>
      </trkpt>
      <trkpt lat="45.16959" lon="5.94755">
        <ele>2466</ele>
        <time>2022-01-22T10:25:17Z</time>
      </trkpt>
      <trkpt lat="45.1696" lon="5.94752">
        <ele>2467</ele>
        <time>2022-01-22T10:25:21Z</time>
      </trkpt>
      <trkpt lat="45.1696" lon="5.94749">
        <ele>2468</ele>
        <time>2022-01-22T10:25:29Z</time>
      </trkpt>
      <trkpt lat="45.16961" lon="5.94746">
        <ele>2468</ele>
        <time>2022-01-22T10:25:33Z</time>
      </trkpt>
      <trkpt lat="45.16962" lon="5.94744">
        <ele>2468</ele>
        <time>2022-01-22T10:25:36Z</time>
      </trkpt>
      <trkpt lat="45.16962" lon="5.94741">
        <ele>2471</ele>
        <time>2022-01-22T10:25:40Z</time>
      </trkpt>
      <trkpt lat="45.16963" lon="5.94738">
        <ele>2471</ele>
        <time>2022-01-22T10:25:50Z</time>
      </trkpt>
      <trkpt lat="45.16963" lon="5.94735">
        <ele>2471</ele>
        <time>2022-01-22T10:25:54Z</time>
      </trkpt>
      <trkpt lat="45.16963" lon="5.94732">
        <ele>2472</ele>
        <time>2022-01-22T10:25:57Z</time>
      </trkpt>
      <trkpt lat="45.16963" lon="5.9473">
        <ele>2472</ele>
        <time>2022-01-22T10:26:00Z</time>
      </trkpt>
      <trkpt lat="45.16963" lon="5.94727">
        <ele>2473</ele>
        <time>2022-01-22T10:26:03Z</time>
      </trkpt>
      <trkpt lat="45.16963" lon="5.94724">
        <ele>2473</ele>
        <time>2022-01-22T10:26:06Z</time>
      </trkpt>
      <trkpt lat="45.16963" lon="5.94721">
        <ele>2474</ele>
        <time>2022-01-22T10:26:10Z</time>
      </trkpt>
      <trkpt lat="45.16964" lon="5.94718">
        <ele>2474</ele>
        <time>2022-01-22T10:26:14Z</time>
      </trkpt>
      <trkpt lat="45.16965" lon="5.9472">
        <ele>2476</ele>
        <time>2022-01-22T10:26:23Z</time>
      </trkpt>
      <trkpt lat="45.16967" lon="5.94722">
        <ele>2476</ele>
        <time>2022-01-22T10:26:26Z</time>
      </trkpt>
      <trkpt lat="45.16968" lon="5.94724">
        <ele>2476</ele>
        <time>2022-01-22T10:26:29Z</time>
      </trkpt>
      <trkpt lat="45.16969" lon="5.94726">
        <ele>2477</ele>
        <time>2022-01-22T10:26:32Z</time>
      </trkpt>
      <trkpt lat="45.16971" lon="5.94728">
        <ele>2477</ele>
        <time>2022-01-22T10:26:35Z</time>
      </trkpt>
      <trkpt lat="45.16972" lon="5.94731">
        <ele>2478</ele>
        <time>2022-01-22T10:26:39Z</time>
      </trkpt>
      <trkpt lat="45.16974" lon="5.94733">
        <ele>2478</ele>
        <time>2022-01-22T10:26:43Z</time>
      </trkpt>
      <trkpt lat="45.16976" lon="5.94735">
        <ele>2479</ele>
        <time>2022-01-22T10:26:47Z</time>
      </trkpt>
      <trkpt lat="45.16977" lon="5.94737">
        <ele>2479</ele>
        <time>2022-01-22T10:26:50Z</time>
      </trkpt>
      <trkpt lat="45.16979" lon="5.94739">
        <ele>2480</ele>
        <time>2022-01-22T10:26:54Z</time>
      </trkpt>
      <trkpt lat="45.1698" lon="5.94741">
        <ele>2481</ele>
        <time>2022-01-22T10:26:58Z</time>
      </trkpt>
      <trkpt lat="45.16982" lon="5.94744">
        <ele>2482</ele>
        <time>2022-01-22T10:27:02Z</time>
      </trkpt>
      <trkpt lat="45.16983" lon="5.94746">
        <ele>2482</ele>
        <time>2022-01-22T10:27:06Z</time>
      </trkpt>
      <trkpt lat="45.16985" lon="5.94749">
        <ele>2483</ele>
        <time>2022-01-22T10:27:10Z</time>
      </trkpt>
      <trkpt lat="45.16986" lon="5.94751">
        <ele>2484</ele>
        <time>2022-01-22T10:27:14Z</time>
      </trkpt>
      <trkpt lat="45.16988" lon="5.94753">
        <ele>2484</ele>
        <time>2022-01-22T10:27:17Z</time>
      </trkpt>
      <trkpt lat="45.16989" lon="5.94755">
        <ele>2485</ele>
        <time>2022-01-22T10:27:21Z</time>
      </trkpt>
      <trkpt lat="45.1699" lon="5.94757">
        <ele>2486</ele>
        <time>2022-01-22T10:27:24Z</time>
      </trkpt>
      <trkpt lat="45.16992" lon="5.94759">
        <ele>2486</ele>
        <time>2022-01-22T10:27:28Z</time>
      </trkpt>
      <trkpt lat="45.16993" lon="5.94761">
        <ele>2488</ele>
        <time>2022-01-22T10:27:32Z</time>
      </trkpt>
      <trkpt lat="45.16994" lon="5.94764">
        <ele>2487</ele>
        <time>2022-01-22T10:27:36Z</time>
      </trkpt>
      <trkpt lat="45.16995" lon="5.94766">
        <ele>2489</ele>
        <time>2022-01-22T10:27:40Z</time>
      </trkpt>
      <trkpt lat="45.16996" lon="5.94768">
        <ele>2488</ele>
        <time>2022-01-22T10:27:44Z</time>
      </trkpt>
      <trkpt lat="45.16998" lon="5.94771">
        <ele>2490</ele>
        <time>2022-01-22T10:27:48Z</time>
      </trkpt>
      <trkpt lat="45.16999" lon="5.94773">
        <ele>2489</ele>
        <time>2022-01-22T10:27:51Z</time>
      </trkpt>
      <trkpt lat="45.17" lon="5.94775">
        <ele>2491</ele>
        <time>2022-01-22T10:27:55Z</time>
      </trkpt>
      <trkpt lat="45.17001" lon="5.94777">
        <ele>2491</ele>
        <time>2022-01-22T10:27:59Z</time>
      </trkpt>
      <trkpt lat="45.17002" lon="5.9478">
        <ele>2492</ele>
        <time>2022-01-22T10:28:03Z</time>
      </trkpt>
      <trkpt lat="45.17004" lon="5.94782">
        <ele>2493</ele>
        <time>2022-01-22T10:28:07Z</time>
      </trkpt>
      <trkpt lat="45.17005" lon="5.94784">
        <ele>2493</ele>
        <time>2022-01-22T10:28:11Z</time>
      </trkpt>
      <trkpt lat="45.17006" lon="5.94787">
        <ele>2494</ele>
        <time>2022-01-22T10:28:15Z</time>
      </trkpt>
      <trkpt lat="45.17007" lon="5.94785">
        <ele>2495</ele>
        <time>2022-01-22T10:28:55Z</time>
      </trkpt>
      <trkpt lat="45.17008" lon="5.94782">
        <ele>2495</ele>
        <time>2022-01-22T10:28:58Z</time>
      </trkpt>
      <trkpt lat="45.17008" lon="5.9478">
        <ele>2496</ele>
        <time>2022-01-22T10:29:01Z</time>
      </trkpt>
      <trkpt lat="45.17009" lon="5.94777">
        <ele>2496</ele>
        <time>2022-01-22T10:29:04Z</time>
      </trkpt>
      <trkpt lat="45.1701" lon="5.94775">
        <ele>2497</ele>
        <time>2022-01-22T10:29:07Z</time>
      </trkpt>
      <trkpt lat="45.1701" lon="5.94772">
        <ele>2497</ele>
        <time>2022-01-22T10:29:14Z</time>
      </trkpt>
      <trkpt lat="45.17011" lon="5.94769">
        <ele>2498</ele>
        <time>2022-01-22T10:29:17Z</time>
      </trkpt>
      <trkpt lat="45.17011" lon="5.94767">
        <ele>2498</ele>
        <time>2022-01-22T10:29:20Z</time>
      </trkpt>
      <trkpt lat="45.17012" lon="5.94764">
        <ele>2498</ele>
        <time>2022-01-22T10:29:23Z</time>
      </trkpt>
      <trkpt lat="45.17012" lon="5.94761">
        <ele>2499</ele>
        <time>2022-01-22T10:29:35Z</time>
      </trkpt>
      <trkpt lat="45.17014" lon="5.94764">
        <ele>2500</ele>
        <time>2022-01-22T10:29:43Z</time>
      </trkpt>
      <trkpt lat="45.17014" lon="5.94766">
        <ele>2500</ele>
        <time>2022-01-22T10:29:46Z</time>
      </trkpt>
      <trkpt lat="45.17015" lon="5.94769">
        <ele>2501</ele>
        <time>2022-01-22T10:29:49Z</time>
      </trkpt>
      <trkpt lat="45.17016" lon="5.94772">
        <ele>2501</ele>
        <time>2022-01-22T10:29:53Z</time>
      </trkpt>
      <trkpt lat="45.17017" lon="5.94775">
        <ele>2502</ele>
        <time>2022-01-22T10:29:57Z</time>
      </trkpt>
      <trkpt lat="45.17017" lon="5.94778">
        <ele>2503</ele>
        <time>2022-01-22T10:30:01Z</time>
      </trkpt>
      <trkpt lat="45.17018" lon="5.94781">
        <ele>2503</ele>
        <time>2022-01-22T10:30:05Z</time>
      </trkpt>
      <trkpt lat="45.17019" lon="5.94783">
        <ele>2504</ele>
        <time>2022-01-22T10:30:09Z</time>
      </trkpt>
      <trkpt lat="45.1702" lon="5.94786">
        <ele>2504</ele>
        <time>2022-01-22T10:30:12Z</time>
      </trkpt>
      <trkpt lat="45.17021" lon="5.94788">
        <ele>2504</ele>
        <time>2022-01-22T10:30:15Z</time>
      </trkpt>
      <trkpt lat="45.17022" lon="5.94791">
        <ele>2505</ele>
        <time>2022-01-22T10:30:18Z</time>
      </trkpt>
      <trkpt lat="45.17024" lon="5.94794">
        <ele>2506</ele>
        <time>2022-01-22T10:30:22Z</time>
      </trkpt>
      <trkpt lat="45.17024" lon="5.94796">
        <ele>2507</ele>
        <time>2022-01-22T10:30:25Z</time>
      </trkpt>
      <trkpt lat="45.17025" lon="5.94799">
        <ele>2507</ele>
        <time>2022-01-22T10:30:29Z</time>
      </trkpt>
      <trkpt lat="45.17025" lon="5.94802">
        <ele>2507</ele>
        <time>2022-01-22T10:30:33Z</time>
      </trkpt>
      <trkpt lat="45.17026" lon="5.94805">
        <ele>2508</ele>
        <time>2022-01-22T10:30:37Z</time>
      </trkpt>
      <trkpt lat="45.17026" lon="5.94808">
        <ele>2509</ele>
        <time>2022-01-22T10:30:41Z</time>
      </trkpt>
      <trkpt lat="45.17026" lon="5.94811">
        <ele>2509</ele>
        <time>2022-01-22T10:30:44Z</time>
      </trkpt>
      <trkpt lat="45.17027" lon="5.94813">
        <ele>2510</ele>
        <time>2022-01-22T10:30:47Z</time>
      </trkpt>
      <trkpt lat="45.17027" lon="5.94816">
        <ele>2512</ele>
        <time>2022-01-22T10:30:51Z</time>
      </trkpt>
      <trkpt lat="45.17028" lon="5.94813">
        <ele>2511</ele>
        <time>2022-01-22T10:31:11Z</time>
      </trkpt>
      <trkpt lat="45.17029" lon="5.94811">
        <ele>2511</ele>
        <time>2022-01-22T10:31:14Z</time>
      </trkpt>
      <trkpt lat="45.1703" lon="5.94808">
        <ele>2511</ele>
        <time>2022-01-22T10:31:17Z</time>
      </trkpt>
      <trkpt lat="45.17031" lon="5.94806">
        <ele>2511</ele>
        <time>2022-01-22T10:31:20Z</time>
      </trkpt>
      <trkpt lat="45.17032" lon="5.94804">
        <ele>2511</ele>
        <time>2022-01-22T10:31:23Z</time>
      </trkpt>
      <trkpt lat="45.17033" lon="5.94801">
        <ele>2513</ele>
        <time>2022-01-22T10:31:27Z</time>
      </trkpt>
      <trkpt lat="45.17034" lon="5.94797">
        <ele>2514</ele>
        <time>2022-01-22T10:31:35Z</time>
      </trkpt>
      <trkpt lat="45.17034" lon="5.94795">
        <ele>2514</ele>
        <time>2022-01-22T10:31:38Z</time>
      </trkpt>
      <trkpt lat="45.17035" lon="5.94792">
        <ele>2515</ele>
        <time>2022-01-22T10:31:41Z</time>
      </trkpt>
      <trkpt lat="45.17035" lon="5.94789">
        <ele>2516</ele>
        <time>2022-01-22T10:31:52Z</time>
      </trkpt>
      <trkpt lat="45.17036" lon="5.94787">
        <ele>2516</ele>
        <time>2022-01-22T10:31:55Z</time>
      </trkpt>
      <trkpt lat="45.17037" lon="5.94784">
        <ele>2516</ele>
        <time>2022-01-22T10:31:58Z</time>
      </trkpt>
      <trkpt lat="45.17037" lon="5.94781">
        <ele>2517</ele>
        <time>2022-01-22T10:32:02Z</time>
      </trkpt>
      <trkpt lat="45.17039" lon="5.94779">
        <ele>2518</ele>
        <time>2022-01-22T10:32:10Z</time>
      </trkpt>
      <trkpt lat="45.17039" lon="5.94781">
        <ele>2519</ele>
        <time>2022-01-22T10:32:22Z</time>
      </trkpt>
      <trkpt lat="45.1704" lon="5.94784">
        <ele>2519</ele>
        <time>2022-01-22T10:32:26Z</time>
      </trkpt>
      <trkpt lat="45.17041" lon="5.94787">
        <ele>2521</ele>
        <time>2022-01-22T10:32:30Z</time>
      </trkpt>
      <trkpt lat="45.17042" lon="5.9479">
        <ele>2521</ele>
        <time>2022-01-22T10:32:34Z</time>
      </trkpt>
      <trkpt lat="45.17043" lon="5.94792">
        <ele>2521</ele>
        <time>2022-01-22T10:32:38Z</time>
      </trkpt>
      <trkpt lat="45.17044" lon="5.94789">
        <ele>2522</ele>
        <time>2022-01-22T10:32:50Z</time>
      </trkpt>
      <trkpt lat="45.17045" lon="5.94787">
        <ele>2523</ele>
        <time>2022-01-22T10:32:53Z</time>
      </trkpt>
      <trkpt lat="45.17045" lon="5.94785">
        <ele>2523</ele>
        <time>2022-01-22T10:32:56Z</time>
      </trkpt>
      <trkpt lat="45.17047" lon="5.94782">
        <ele>2524</ele>
        <time>2022-01-22T10:33:00Z</time>
      </trkpt>
      <trkpt lat="45.17048" lon="5.94784">
        <ele>2526</ele>
        <time>2022-01-22T10:33:11Z</time>
      </trkpt>
      <trkpt lat="45.17049" lon="5.94787">
        <ele>2526</ele>
        <time>2022-01-22T10:33:14Z</time>
      </trkpt>
      <trkpt lat="45.17049" lon="5.9479">
        <ele>2526</ele>
        <time>2022-01-22T10:33:17Z</time>
      </trkpt>
      <trkpt lat="45.1705" lon="5.94792">
        <ele>2527</ele>
        <time>2022-01-22T10:33:20Z</time>
      </trkpt>
      <trkpt lat="45.17051" lon="5.94795">
        <ele>2528</ele>
        <time>2022-01-22T10:33:24Z</time>
      </trkpt>
      <trkpt lat="45.17051" lon="5.94798">
        <ele>2528</ele>
        <time>2022-01-22T10:33:28Z</time>
      </trkpt>
      <trkpt lat="45.17052" lon="5.94801">
        <ele>2528</ele>
        <time>2022-01-22T10:33:32Z</time>
      </trkpt>
      <trkpt lat="45.17052" lon="5.94804">
        <ele>2529</ele>
        <time>2022-01-22T10:33:36Z</time>
      </trkpt>
      <trkpt lat="45.17053" lon="5.94807">
        <ele>2530</ele>
        <time>2022-01-22T10:33:40Z</time>
      </trkpt>
      <trkpt lat="45.17053" lon="5.9481">
        <ele>2531</ele>
        <time>2022-01-22T10:33:45Z</time>
      </trkpt>
      <trkpt lat="45.17054" lon="5.94813">
        <ele>2531</ele>
        <time>2022-01-22T10:33:49Z</time>
      </trkpt>
      <trkpt lat="45.17054" lon="5.94815">
        <ele>2532</ele>
        <time>2022-01-22T10:33:54Z</time>
      </trkpt>
      <trkpt lat="45.17054" lon="5.94818">
        <ele>2532</ele>
        <time>2022-01-22T10:33:58Z</time>
      </trkpt>
      <trkpt lat="45.17055" lon="5.94821">
        <ele>2533</ele>
        <time>2022-01-22T10:34:02Z</time>
      </trkpt>
      <trkpt lat="45.17055" lon="5.94824">
        <ele>2534</ele>
        <time>2022-01-22T10:34:07Z</time>
      </trkpt>
      <trkpt lat="45.17055" lon="5.94827">
        <ele>2536</ele>
        <time>2022-01-22T10:34:15Z</time>
      </trkpt>
      <trkpt lat="45.17055" lon="5.9483">
        <ele>2537</ele>
        <time>2022-01-22T10:34:19Z</time>
      </trkpt>
      <trkpt lat="45.17055" lon="5.94833">
        <ele>2537</ele>
        <time>2022-01-22T10:34:23Z</time>
      </trkpt>
      <trkpt lat="45.17056" lon="5.94836">
        <ele>2538</ele>
        <time>2022-01-22T10:34:27Z</time>
      </trkpt>
      <trkpt lat="45.17057" lon="5.94835">
        <ele>2538</ele>
        <time>2022-01-22T10:34:44Z</time>
      </trkpt>
      <trkpt lat="45.17059" lon="5.94833">
        <ele>2540</ele>
        <time>2022-01-22T10:34:48Z</time>
      </trkpt>
      <trkpt lat="45.17061" lon="5.94832">
        <ele>2540</ele>
        <time>2022-01-22T10:34:52Z</time>
      </trkpt>
      <trkpt lat="45.17063" lon="5.94829">
        <ele>2540</ele>
        <time>2022-01-22T10:34:57Z</time>
      </trkpt>
      <trkpt lat="45.17065" lon="5.94828">
        <ele>2541</ele>
        <time>2022-01-22T10:35:01Z</time>
      </trkpt>
      <trkpt lat="45.17066" lon="5.94826">
        <ele>2542</ele>
        <time>2022-01-22T10:35:10Z</time>
      </trkpt>
      <trkpt lat="45.17068" lon="5.94824">
        <ele>2542</ele>
        <time>2022-01-22T10:35:14Z</time>
      </trkpt>
      <trkpt lat="45.1707" lon="5.94822">
        <ele>2543</ele>
        <time>2022-01-22T10:35:18Z</time>
      </trkpt>
      <trkpt lat="45.17072" lon="5.9482">
        <ele>2543</ele>
        <time>2022-01-22T10:35:22Z</time>
      </trkpt>
      <trkpt lat="45.17073" lon="5.94818">
        <ele>2543</ele>
        <time>2022-01-22T10:35:25Z</time>
      </trkpt>
      <trkpt lat="45.17074" lon="5.94817">
        <ele>2543</ele>
        <time>2022-01-22T10:35:28Z</time>
      </trkpt>
      <trkpt lat="45.17076" lon="5.94815">
        <ele>2544</ele>
        <time>2022-01-22T10:35:31Z</time>
      </trkpt>
      <trkpt lat="45.17077" lon="5.94813">
        <ele>2545</ele>
        <time>2022-01-22T10:35:34Z</time>
      </trkpt>
      <trkpt lat="45.17078" lon="5.94811">
        <ele>2545</ele>
        <time>2022-01-22T10:35:37Z</time>
      </trkpt>
      <trkpt lat="45.1708" lon="5.94809">
        <ele>2545</ele>
        <time>2022-01-22T10:35:40Z</time>
      </trkpt>
      <trkpt lat="45.17082" lon="5.94808">
        <ele>2546</ele>
        <time>2022-01-22T10:35:44Z</time>
      </trkpt>
      <trkpt lat="45.17084" lon="5.94809">
        <ele>2546</ele>
        <time>2022-01-22T10:36:02Z</time>
      </trkpt>
      <trkpt lat="45.17085" lon="5.94812">
        <ele>2547</ele>
        <time>2022-01-22T10:36:15Z</time>
      </trkpt>
      <trkpt lat="45.17085" lon="5.94814">
        <ele>2546</ele>
        <time>2022-01-22T10:38:28Z</time>
      </trkpt>
      <trkpt lat="45.17087" lon="5.94817">
        <ele>2547</ele>
        <time>2022-01-22T10:40:59Z</time>
      </trkpt>
      <trkpt lat="45.17087" lon="5.9482">
        <ele>2548</ele>
        <time>2022-01-22T10:41:03Z</time>
      </trkpt>
      <trkpt lat="45.17087" lon="5.94823">
        <ele>2549</ele>
        <time>2022-01-22T10:41:07Z</time>
      </trkpt>
      <trkpt lat="45.17087" lon="5.94826">
        <ele>2551</ele>
        <time>2022-01-22T10:41:11Z</time>
      </trkpt>
      <trkpt lat="45.17086" lon="5.94829">
        <ele>2551</ele>
        <time>2022-01-22T10:41:15Z</time>
      </trkpt>
      <trkpt lat="45.17086" lon="5.94831">
        <ele>2552</ele>
        <time>2022-01-22T10:41:21Z</time>
      </trkpt>
      <trkpt lat="45.17088" lon="5.94834">
        <ele>2552</ele>
        <time>2022-01-22T10:41:25Z</time>
      </trkpt>
      <trkpt lat="45.17087" lon="5.94836">
        <ele>2553</ele>
        <time>2022-01-22T10:41:29Z</time>
      </trkpt>
      <trkpt lat="45.17086" lon="5.94839">
        <ele>2553</ele>
        <time>2022-01-22T10:41:34Z</time>
      </trkpt>
      <trkpt lat="45.17086" lon="5.94842">
        <ele>2555</ele>
        <time>2022-01-22T10:41:41Z</time>
      </trkpt>
      <trkpt lat="45.17085" lon="5.94844">
        <ele>2555</ele>
        <time>2022-01-22T10:41:48Z</time>
      </trkpt>
      <trkpt lat="45.17085" lon="5.94847">
        <ele>2557</ele>
        <time>2022-01-22T10:41:56Z</time>
      </trkpt>
      <trkpt lat="45.17085" lon="5.9485">
        <ele>2557</ele>
        <time>2022-01-22T10:42:04Z</time>
      </trkpt>
      <trkpt lat="45.17085" lon="5.94853">
        <ele>2557</ele>
        <time>2022-01-22T10:42:09Z</time>
      </trkpt>
      <trkpt lat="45.17085" lon="5.94855">
        <ele>2561</ele>
        <time>2022-01-22T10:42:33Z</time>
      </trkpt>
      <trkpt lat="45.17084" lon="5.94858">
        <ele>2562</ele>
        <time>2022-01-22T10:42:39Z</time>
      </trkpt>
      <trkpt lat="45.17083" lon="5.94861">
        <ele>2563</ele>
        <time>2022-01-22T10:43:00Z</time>
      </trkpt>
      <trkpt lat="45.17083" lon="5.94863">
        <ele>2564</ele>
        <time>2022-01-22T10:43:05Z</time>
      </trkpt>
      <trkpt lat="45.17083" lon="5.94866">
        <ele>2565</ele>
        <time>2022-01-22T10:43:08Z</time>
      </trkpt>
      <trkpt lat="45.17083" lon="5.94869">
        <ele>2565</ele>
        <time>2022-01-22T10:43:12Z</time>
      </trkpt>
      <trkpt lat="45.17083" lon="5.94871">
        <ele>2566</ele>
        <time>2022-01-22T10:43:18Z</time>
      </trkpt>
      <trkpt lat="45.17083" lon="5.94874">
        <ele>2567</ele>
        <time>2022-01-22T10:43:23Z</time>
      </trkpt>
      <trkpt lat="45.17083" lon="5.94876">
        <ele>2567</ele>
        <time>2022-01-22T10:43:29Z</time>
      </trkpt>
      <trkpt lat="45.17085" lon="5.94877">
        <ele>2569</ele>
        <time>2022-01-22T10:43:37Z</time>
      </trkpt>
      <trkpt lat="45.17087" lon="5.94877">
        <ele>2570</ele>
        <time>2022-01-22T10:43:43Z</time>
      </trkpt>
      <trkpt lat="45.17087" lon="5.94879">
        <ele>2571</ele>
        <time>2022-01-22T10:43:51Z</time>
      </trkpt>
      <trkpt lat="45.17087" lon="5.94882">
        <ele>2573</ele>
        <time>2022-01-22T10:43:56Z</time>
      </trkpt>
      <trkpt lat="45.17088" lon="5.94885">
        <ele>2574</ele>
        <time>2022-01-22T10:44:09Z</time>
      </trkpt>
      <trkpt lat="45.17088" lon="5.94888">
        <ele>2574</ele>
        <time>2022-01-22T10:44:15Z</time>
      </trkpt>
      <trkpt lat="45.17087" lon="5.94891">
        <ele>2576</ele>
        <time>2022-01-22T10:44:20Z</time>
      </trkpt>
      <trkpt lat="45.17087" lon="5.94894">
        <ele>2576</ele>
        <time>2022-01-22T10:44:24Z</time>
      </trkpt>
      <trkpt lat="45.17088" lon="5.94896">
        <ele>2576</ele>
        <time>2022-01-22T10:44:33Z</time>
      </trkpt>
      <trkpt lat="45.1709" lon="5.94895">
        <ele>2578</ele>
        <time>2022-01-22T10:44:38Z</time>
      </trkpt>
      <trkpt lat="45.17092" lon="5.94895">
        <ele>2578</ele>
        <time>2022-01-22T10:44:44Z</time>
      </trkpt>
      <trkpt lat="45.17093" lon="5.94898">
        <ele>2579</ele>
        <time>2022-01-22T10:44:48Z</time>
      </trkpt>
      <trkpt lat="45.17093" lon="5.949">
        <ele>2581</ele>
        <time>2022-01-22T10:44:53Z</time>
      </trkpt>
      <trkpt lat="45.17092" lon="5.94904">
        <ele>2582</ele>
        <time>2022-01-22T10:44:59Z</time>
      </trkpt>
      <trkpt lat="45.17092" lon="5.94906">
        <ele>2582</ele>
        <time>2022-01-22T10:45:05Z</time>
      </trkpt>
      <trkpt lat="45.17091" lon="5.94909">
        <ele>2584</ele>
        <time>2022-01-22T10:45:12Z</time>
      </trkpt>
      <trkpt lat="45.17091" lon="5.94912">
        <ele>2584</ele>
        <time>2022-01-22T10:45:18Z</time>
      </trkpt>
      <trkpt lat="45.1709" lon="5.94914">
        <ele>2584</ele>
        <time>2022-01-22T10:45:23Z</time>
      </trkpt>
      <trkpt lat="45.1709" lon="5.94917">
        <ele>2585</ele>
        <time>2022-01-22T10:45:28Z</time>
      </trkpt>
      <trkpt lat="45.1709" lon="5.9492">
        <ele>2586</ele>
        <time>2022-01-22T10:45:33Z</time>
      </trkpt>
      <trkpt lat="45.1709" lon="5.94923">
        <ele>2587</ele>
        <time>2022-01-22T10:45:37Z</time>
      </trkpt>
      <trkpt lat="45.1709" lon="5.94926">
        <ele>2587</ele>
        <time>2022-01-22T10:45:41Z</time>
      </trkpt>
      <trkpt lat="45.1709" lon="5.94929">
        <ele>2587</ele>
        <time>2022-01-22T10:45:45Z</time>
      </trkpt>
      <trkpt lat="45.17089" lon="5.94932">
        <ele>2588</ele>
        <time>2022-01-22T10:45:49Z</time>
      </trkpt>
      <trkpt lat="45.17089" lon="5.94935">
        <ele>2589</ele>
        <time>2022-01-22T10:45:53Z</time>
      </trkpt>
      <trkpt lat="45.17089" lon="5.94938">
        <ele>2589</ele>
        <time>2022-01-22T10:45:58Z</time>
      </trkpt>
      <trkpt lat="45.17089" lon="5.94941">
        <ele>2590</ele>
        <time>2022-01-22T10:46:02Z</time>
      </trkpt>
      <trkpt lat="45.17089" lon="5.94944">
        <ele>2591</ele>
        <time>2022-01-22T10:46:06Z</time>
      </trkpt>
      <trkpt lat="45.17089" lon="5.94946">
        <ele>2591</ele>
        <time>2022-01-22T10:46:10Z</time>
      </trkpt>
      <trkpt lat="45.1709" lon="5.94949">
        <ele>2591</ele>
        <time>2022-01-22T10:46:15Z</time>
      </trkpt>
      <trkpt lat="45.17092" lon="5.94949">
        <ele>2592</ele>
        <time>2022-01-22T10:46:21Z</time>
      </trkpt>
      <trkpt lat="45.17094" lon="5.94948">
        <ele>2594</ele>
        <time>2022-01-22T10:46:27Z</time>
      </trkpt>
      <trkpt lat="45.17095" lon="5.94949">
        <ele>2596</ele>
        <time>2022-01-22T10:46:32Z</time>
      </trkpt>
      <trkpt lat="45.17096" lon="5.94952">
        <ele>2596</ele>
        <time>2022-01-22T10:46:37Z</time>
      </trkpt>
      <trkpt lat="45.17097" lon="5.94954">
        <ele>2597</ele>
        <time>2022-01-22T10:46:42Z</time>
      </trkpt>
      <trkpt lat="45.17099" lon="5.94955">
        <ele>2598</ele>
        <time>2022-01-22T10:46:47Z</time>
      </trkpt>
      <trkpt lat="45.17101" lon="5.94957">
        <ele>2598</ele>
        <time>2022-01-22T10:46:52Z</time>
      </trkpt>
      <trkpt lat="45.17102" lon="5.94959">
        <ele>2599</ele>
        <time>2022-01-22T10:46:57Z</time>
      </trkpt>
      <trkpt lat="45.17102" lon="5.94962">
        <ele>2600</ele>
        <time>2022-01-22T10:47:05Z</time>
      </trkpt>
      <trkpt lat="45.17104" lon="5.94963">
        <ele>2601</ele>
        <time>2022-01-22T10:47:28Z</time>
      </trkpt>
      <trkpt lat="45.17106" lon="5.94965">
        <ele>2601</ele>
        <time>2022-01-22T10:47:33Z</time>
      </trkpt>
      <trkpt lat="45.17106" lon="5.94967">
        <ele>2603</ele>
        <time>2022-01-22T10:47:39Z</time>
      </trkpt>
      <trkpt lat="45.17107" lon="5.9497">
        <ele>2603</ele>
        <time>2022-01-22T10:47:44Z</time>
      </trkpt>
      <trkpt lat="45.17108" lon="5.94973">
        <ele>2605</ele>
        <time>2022-01-22T10:47:54Z</time>
      </trkpt>
      <trkpt lat="45.17109" lon="5.94976">
        <ele>2606</ele>
        <time>2022-01-22T10:48:02Z</time>
      </trkpt>
      <trkpt lat="45.17109" lon="5.94979">
        <ele>2607</ele>
        <time>2022-01-22T10:48:12Z</time>
      </trkpt>
      <trkpt lat="45.1711" lon="5.94981">
        <ele>2608</ele>
        <time>2022-01-22T10:48:18Z</time>
      </trkpt>
      <trkpt lat="45.17111" lon="5.94983">
        <ele>2609</ele>
        <time>2022-01-22T10:48:25Z</time>
      </trkpt>
      <trkpt lat="45.17112" lon="5.94985">
        <ele>2611</ele>
        <time>2022-01-22T10:48:42Z</time>
      </trkpt>
      <trkpt lat="45.17113" lon="5.94987">
        <ele>2611</ele>
        <time>2022-01-22T10:49:10Z</time>
      </trkpt>
      <trkpt lat="45.17115" lon="5.94989">
        <ele>2611</ele>
        <time>2022-01-22T10:49:14Z</time>
      </trkpt>
      <trkpt lat="45.17116" lon="5.94991">
        <ele>2612</ele>
        <time>2022-01-22T10:49:20Z</time>
      </trkpt>
      <trkpt lat="45.17117" lon="5.94994">
        <ele>2616</ele>
        <time>2022-01-22T10:49:27Z</time>
      </trkpt>
      <trkpt lat="45.17118" lon="5.94996">
        <ele>2616</ele>
        <time>2022-01-22T10:49:33Z</time>
      </trkpt>
      <trkpt lat="45.17119" lon="5.94999">
        <ele>2617</ele>
        <time>2022-01-22T10:49:42Z</time>
      </trkpt>
      <trkpt lat="45.17119" lon="5.95001">
        <ele>2619</ele>
        <time>2022-01-22T10:50:09Z</time>
      </trkpt>
      <trkpt lat="45.1712" lon="5.95003">
        <ele>2619</ele>
        <time>2022-01-22T10:50:15Z</time>
      </trkpt>
      <trkpt lat="45.17121" lon="5.95006">
        <ele>2621</ele>
        <time>2022-01-22T10:50:23Z</time>
      </trkpt>
      <trkpt lat="45.17122" lon="5.95009">
        <ele>2623</ele>
        <time>2022-01-22T10:50:50Z</time>
      </trkpt>
      <trkpt lat="45.17123" lon="5.95011">
        <ele>2624</ele>
        <time>2022-01-22T10:50:59Z</time>
      </trkpt>
      <trkpt lat="45.17123" lon="5.95014">
        <ele>2625</ele>
        <time>2022-01-22T10:51:04Z</time>
      </trkpt>
      <trkpt lat="45.17123" lon="5.95017">
        <ele>2627</ele>
        <time>2022-01-22T10:51:11Z</time>
      </trkpt>
      <trkpt lat="45.17125" lon="5.95019">
        <ele>2627</ele>
        <time>2022-01-22T10:51:22Z</time>
      </trkpt>
      <trkpt lat="45.17126" lon="5.9502">
        <ele>2629</ele>
        <time>2022-01-22T10:51:47Z</time>
      </trkpt>
      <trkpt lat="45.17128" lon="5.95022">
        <ele>2630</ele>
        <time>2022-01-22T10:51:52Z</time>
      </trkpt>
      <trkpt lat="45.1713" lon="5.95024">
        <ele>2631</ele>
        <time>2022-01-22T10:52:01Z</time>
      </trkpt>
      <trkpt lat="45.17131" lon="5.95026">
        <ele>2632</ele>
        <time>2022-01-22T10:52:08Z</time>
      </trkpt>
      <trkpt lat="45.17132" lon="5.95028">
        <ele>2634</ele>
        <time>2022-01-22T10:52:16Z</time>
      </trkpt>
      <trkpt lat="45.17133" lon="5.9503">
        <ele>2635</ele>
        <time>2022-01-22T10:52:42Z</time>
      </trkpt>
      <trkpt lat="45.17135" lon="5.95033">
        <ele>2637</ele>
        <time>2022-01-22T10:52:55Z</time>
      </trkpt>
      <trkpt lat="45.17136" lon="5.95035">
        <ele>2638</ele>
        <time>2022-01-22T10:53:05Z</time>
      </trkpt>
      <trkpt lat="45.17136" lon="5.95037">
        <ele>2640</ele>
        <time>2022-01-22T10:53:31Z</time>
      </trkpt>
      <trkpt lat="45.17136" lon="5.9504">
        <ele>2641</ele>
        <time>2022-01-22T10:53:37Z</time>
      </trkpt>
      <trkpt lat="45.17136" lon="5.95043">
        <ele>2642</ele>
        <time>2022-01-22T10:53:46Z</time>
      </trkpt>
      <trkpt lat="45.17137" lon="5.95045">
        <ele>2643</ele>
        <time>2022-01-22T10:53:58Z</time>
      </trkpt>
      <trkpt lat="45.17137" lon="5.95047">
        <ele>2644</ele>
        <time>2022-01-22T10:54:19Z</time>
      </trkpt>
      <trkpt lat="45.17138" lon="5.9505">
        <ele>2646</ele>
        <time>2022-01-22T10:54:37Z</time>
      </trkpt>
      <trkpt lat="45.17139" lon="5.95052">
        <ele>2647</ele>
        <time>2022-01-22T10:54:52Z</time>
      </trkpt>
      <trkpt lat="45.1714" lon="5.95054">
        <ele>2648</ele>
        <time>2022-01-22T10:55:00Z</time>
      </trkpt>
      <trkpt lat="45.17141" lon="5.95057">
        <ele>2650</ele>
        <time>2022-01-22T10:55:19Z</time>
      </trkpt>
      <trkpt lat="45.17142" lon="5.9506">
        <ele>2651</ele>
        <time>2022-01-22T10:55:27Z</time>
      </trkpt>
      <trkpt lat="45.17143" lon="5.95061">
        <ele>2653</ele>
        <time>2022-01-22T10:55:45Z</time>
      </trkpt>
      <trkpt lat="45.17145" lon="5.95062">
        <ele>2653</ele>
        <time>2022-01-22T10:55:51Z</time>
      </trkpt>
      <trkpt lat="45.17145" lon="5.95064">
        <ele>2655</ele>
        <time>2022-01-22T10:55:58Z</time>
      </trkpt>
      <trkpt lat="45.17146" lon="5.95067">
        <ele>2656</ele>
        <time>2022-01-22T10:56:23Z</time>
      </trkpt>
      <trkpt lat="45.17148" lon="5.95067">
        <ele>2656</ele>
        <time>2022-01-22T10:56:27Z</time>
      </trkpt>
      <trkpt lat="45.1715" lon="5.95068">
        <ele>2657</ele>
        <time>2022-01-22T10:56:33Z</time>
      </trkpt>
      <trkpt lat="45.17152" lon="5.95069">
        <ele>2658</ele>
        <time>2022-01-22T10:56:47Z</time>
      </trkpt>
      <trkpt lat="45.17153" lon="5.95071">
        <ele>2658</ele>
        <time>2022-01-22T10:56:56Z</time>
      </trkpt>
      <trkpt lat="45.17152" lon="5.95073">
        <ele>2660</ele>
        <time>2022-01-22T10:57:00Z</time>
      </trkpt>
      <trkpt lat="45.17152" lon="5.95076">
        <ele>2660</ele>
        <time>2022-01-22T10:57:04Z</time>
      </trkpt>
      <trkpt lat="45.17151" lon="5.95079">
        <ele>2660</ele>
        <time>2022-01-22T10:57:09Z</time>
      </trkpt>
      <trkpt lat="45.1715" lon="5.95081">
        <ele>2662</ele>
        <time>2022-01-22T10:57:14Z</time>
      </trkpt>
      <trkpt lat="45.17149" lon="5.95084">
        <ele>2663</ele>
        <time>2022-01-22T10:57:21Z</time>
      </trkpt>
      <trkpt lat="45.1715" lon="5.95086">
        <ele>2663</ele>
        <time>2022-01-22T10:57:57Z</time>
      </trkpt>
      <trkpt lat="45.17151" lon="5.95089">
        <ele>2664</ele>
        <time>2022-01-22T10:58:43Z</time>
      </trkpt>
      <trkpt lat="45.17153" lon="5.95089">
        <ele>2668</ele>
        <time>2022-01-22T10:59:12Z</time>
      </trkpt>
      <trkpt lat="45.17155" lon="5.95089">
        <ele>2668</ele>
        <time>2022-01-22T10:59:16Z</time>
      </trkpt>
      <trkpt lat="45.17156" lon="5.9509">
        <ele>2669</ele>
        <time>2022-01-22T10:59:21Z</time>
      </trkpt>
      <trkpt lat="45.17158" lon="5.9509">
        <ele>2669</ele>
        <time>2022-01-22T10:59:26Z</time>
      </trkpt>
      <trkpt lat="45.17159" lon="5.95093">
        <ele>2670</ele>
        <time>2022-01-22T10:59:33Z</time>
      </trkpt>
      <trkpt lat="45.17158" lon="5.95096">
        <ele>2673</ele>
        <time>2022-01-22T10:59:46Z</time>
      </trkpt>
      <trkpt lat="45.17159" lon="5.95098">
        <ele>2672</ele>
        <time>2022-01-22T11:00:07Z</time>
      </trkpt>
      <trkpt lat="45.17158" lon="5.95101">
        <ele>2675</ele>
        <time>2022-01-22T11:00:19Z</time>
      </trkpt>
      <trkpt lat="45.17157" lon="5.95104">
        <ele>2676</ele>
        <time>2022-01-22T11:00:33Z</time>
      </trkpt>
      <trkpt lat="45.17157" lon="5.95107">
        <ele>2676</ele>
        <time>2022-01-22T11:00:37Z</time>
      </trkpt>
      <trkpt lat="45.17156" lon="5.95109">
        <ele>2676</ele>
        <time>2022-01-22T11:00:40Z</time>
      </trkpt>
      <trkpt lat="45.17154" lon="5.95111">
        <ele>2676</ele>
        <time>2022-01-22T11:00:45Z</time>
      </trkpt>
      <trkpt lat="45.17153" lon="5.95114">
        <ele>2677</ele>
        <time>2022-01-22T11:00:50Z</time>
      </trkpt>
      <trkpt lat="45.17152" lon="5.95117">
        <ele>2679</ele>
        <time>2022-01-22T11:00:57Z</time>
      </trkpt>
      <trkpt lat="45.17151" lon="5.95119">
        <ele>2678</ele>
        <time>2022-01-22T11:01:09Z</time>
      </trkpt>
      <trkpt lat="45.1715" lon="5.95122">
        <ele>2678</ele>
        <time>2022-01-22T11:01:18Z</time>
      </trkpt>
      <trkpt lat="45.17149" lon="5.95124">
        <ele>2681</ele>
        <time>2022-01-22T11:04:33Z</time>
      </trkpt>
      <trkpt lat="45.17147" lon="5.95126">
        <ele>2679</ele>
        <time>2022-01-22T11:04:41Z</time>
      </trkpt>
      <trkpt lat="45.17146" lon="5.95127">
        <ele>2677</ele>
        <time>2022-01-22T11:04:53Z</time>
      </trkpt>
      <trkpt lat="45.17144" lon="5.95128">
        <ele>2678</ele>
        <time>2022-01-22T11:05:15Z</time>
      </trkpt>
      <trkpt lat="45.17143" lon="5.9513">
        <ele>2678</ele>
        <time>2022-01-22T11:06:05Z</time>
      </trkpt>
      <trkpt lat="45.17141" lon="5.95129">
        <ele>2676</ele>
        <time>2022-01-22T11:06:10Z</time>
      </trkpt>
      <trkpt lat="45.1714" lon="5.95127">
        <ele>2677</ele>
        <time>2022-01-22T11:20:54Z</time>
      </trkpt>
      <trkpt lat="45.17141" lon="5.95129">
        <ele>2678</ele>
        <time>2022-01-22T11:30:00Z</time>
      </trkpt>
      <trkpt lat="45.1714" lon="5.95127">
        <ele>2678</ele>
        <time>2022-01-22T11:33:05Z</time>
      </trkpt>
      <trkpt lat="45.17138" lon="5.95125">
        <ele>2676</ele>
        <time>2022-01-22T11:33:25Z</time>
      </trkpt>
      <trkpt lat="45.17137" lon="5.95123">
        <ele>2674</ele>
        <time>2022-01-22T11:33:40Z</time>
      </trkpt>
      <trkpt lat="45.17136" lon="5.95121">
        <ele>2673</ele>
        <time>2022-01-22T11:33:50Z</time>
      </trkpt>
      <trkpt lat="45.17135" lon="5.95119">
        <ele>2673</ele>
        <time>2022-01-22T11:33:56Z</time>
      </trkpt>
      <trkpt lat="45.17135" lon="5.95115">
        <ele>2671</ele>
        <time>2022-01-22T11:33:59Z</time>
      </trkpt>
      <trkpt lat="45.17135" lon="5.95111">
        <ele>2670</ele>
        <time>2022-01-22T11:34:01Z</time>
      </trkpt>
      <trkpt lat="45.17136" lon="5.95107">
        <ele>2669</ele>
        <time>2022-01-22T11:34:03Z</time>
      </trkpt>
      <trkpt lat="45.17137" lon="5.95104">
        <ele>2668</ele>
        <time>2022-01-22T11:34:05Z</time>
      </trkpt>
      <trkpt lat="45.17137" lon="5.95101">
        <ele>2667</ele>
        <time>2022-01-22T11:34:08Z</time>
      </trkpt>
      <trkpt lat="45.17137" lon="5.95098">
        <ele>2666</ele>
        <time>2022-01-22T11:34:15Z</time>
      </trkpt>
      <trkpt lat="45.17135" lon="5.95097">
        <ele>2664</ele>
        <time>2022-01-22T11:34:18Z</time>
      </trkpt>
      <trkpt lat="45.17133" lon="5.95096">
        <ele>2663</ele>
        <time>2022-01-22T11:34:22Z</time>
      </trkpt>
      <trkpt lat="45.17132" lon="5.95094">
        <ele>2662</ele>
        <time>2022-01-22T11:34:26Z</time>
      </trkpt>
      <trkpt lat="45.1713" lon="5.95092">
        <ele>2661</ele>
        <time>2022-01-22T11:34:29Z</time>
      </trkpt>
      <trkpt lat="45.17129" lon="5.95088">
        <ele>2660</ele>
        <time>2022-01-22T11:34:30Z</time>
      </trkpt>
      <trkpt lat="45.17129" lon="5.95083">
        <ele>2660</ele>
        <time>2022-01-22T11:34:31Z</time>
      </trkpt>
      <trkpt lat="45.17129" lon="5.95079">
        <ele>2658</ele>
        <time>2022-01-22T11:34:32Z</time>
      </trkpt>
      <trkpt lat="45.17128" lon="5.95076">
        <ele>2657</ele>
        <time>2022-01-22T11:34:33Z</time>
      </trkpt>
      <trkpt lat="45.17128" lon="5.95073">
        <ele>2654</ele>
        <time>2022-01-22T11:34:34Z</time>
      </trkpt>
      <trkpt lat="45.17126" lon="5.95068">
        <ele>2651</ele>
        <time>2022-01-22T11:34:36Z</time>
      </trkpt>
      <trkpt lat="45.17125" lon="5.95064">
        <ele>2649</ele>
        <time>2022-01-22T11:34:38Z</time>
      </trkpt>
      <trkpt lat="45.17125" lon="5.95059">
        <ele>2648</ele>
        <time>2022-01-22T11:34:40Z</time>
      </trkpt>
      <trkpt lat="45.17124" lon="5.95057">
        <ele>2647</ele>
        <time>2022-01-22T11:34:41Z</time>
      </trkpt>
      <trkpt lat="45.17122" lon="5.95055">
        <ele>2645</ele>
        <time>2022-01-22T11:34:43Z</time>
      </trkpt>
      <trkpt lat="45.1712" lon="5.95058">
        <ele>2644</ele>
        <time>2022-01-22T11:34:45Z</time>
      </trkpt>
      <trkpt lat="45.17118" lon="5.9506">
        <ele>2641</ele>
        <time>2022-01-22T11:34:47Z</time>
      </trkpt>
      <trkpt lat="45.17116" lon="5.95062">
        <ele>2640</ele>
        <time>2022-01-22T11:34:49Z</time>
      </trkpt>
      <trkpt lat="45.17112" lon="5.95059">
        <ele>2640</ele>
        <time>2022-01-22T11:34:51Z</time>
      </trkpt>
      <trkpt lat="45.17112" lon="5.95054">
        <ele>2638</ele>
        <time>2022-01-22T11:34:52Z</time>
      </trkpt>
      <trkpt lat="45.17111" lon="5.9505">
        <ele>2637</ele>
        <time>2022-01-22T11:34:53Z</time>
      </trkpt>
      <trkpt lat="45.17111" lon="5.95046">
        <ele>2636</ele>
        <time>2022-01-22T11:34:54Z</time>
      </trkpt>
      <trkpt lat="45.1711" lon="5.95041">
        <ele>2635</ele>
        <time>2022-01-22T11:34:55Z</time>
      </trkpt>
      <trkpt lat="45.1711" lon="5.95037">
        <ele>2633</ele>
        <time>2022-01-22T11:34:56Z</time>
      </trkpt>
      <trkpt lat="45.1711" lon="5.95033">
        <ele>2632</ele>
        <time>2022-01-22T11:34:57Z</time>
      </trkpt>
      <trkpt lat="45.1711" lon="5.9503">
        <ele>2631</ele>
        <time>2022-01-22T11:34:58Z</time>
      </trkpt>
      <trkpt lat="45.1711" lon="5.95027">
        <ele>2630</ele>
        <time>2022-01-22T11:34:59Z</time>
      </trkpt>
      <trkpt lat="45.1711" lon="5.95023">
        <ele>2626</ele>
        <time>2022-01-22T11:35:00Z</time>
      </trkpt>
      <trkpt lat="45.17109" lon="5.95021">
        <ele>2626</ele>
        <time>2022-01-22T11:35:01Z</time>
      </trkpt>
      <trkpt lat="45.1711" lon="5.95018">
        <ele>2625</ele>
        <time>2022-01-22T11:35:04Z</time>
      </trkpt>
      <trkpt lat="45.17108" lon="5.95014">
        <ele>2624</ele>
        <time>2022-01-22T11:35:12Z</time>
      </trkpt>
      <trkpt lat="45.17107" lon="5.95012">
        <ele>2623</ele>
        <time>2022-01-22T11:35:13Z</time>
      </trkpt>
      <trkpt lat="45.17107" lon="5.95007">
        <ele>2622</ele>
        <time>2022-01-22T11:35:15Z</time>
      </trkpt>
      <trkpt lat="45.17107" lon="5.95004">
        <ele>2621</ele>
        <time>2022-01-22T11:35:17Z</time>
      </trkpt>
      <trkpt lat="45.17107" lon="5.95001">
        <ele>2620</ele>
        <time>2022-01-22T11:35:19Z</time>
      </trkpt>
      <trkpt lat="45.17107" lon="5.94998">
        <ele>2619</ele>
        <time>2022-01-22T11:35:21Z</time>
      </trkpt>
      <trkpt lat="45.17107" lon="5.94995">
        <ele>2618</ele>
        <time>2022-01-22T11:35:23Z</time>
      </trkpt>
      <trkpt lat="45.17106" lon="5.94992">
        <ele>2616</ele>
        <time>2022-01-22T11:35:26Z</time>
      </trkpt>
      <trkpt lat="45.17105" lon="5.94989">
        <ele>2613</ele>
        <time>2022-01-22T11:35:37Z</time>
      </trkpt>
      <trkpt lat="45.17104" lon="5.94987">
        <ele>2613</ele>
        <time>2022-01-22T11:35:38Z</time>
      </trkpt>
      <trkpt lat="45.17104" lon="5.94984">
        <ele>2612</ele>
        <time>2022-01-22T11:35:39Z</time>
      </trkpt>
      <trkpt lat="45.17104" lon="5.94981">
        <ele>2612</ele>
        <time>2022-01-22T11:35:40Z</time>
      </trkpt>
      <trkpt lat="45.17104" lon="5.94978">
        <ele>2610</ele>
        <time>2022-01-22T11:35:41Z</time>
      </trkpt>
      <trkpt lat="45.17104" lon="5.94975">
        <ele>2609</ele>
        <time>2022-01-22T11:35:42Z</time>
      </trkpt>
      <trkpt lat="45.17103" lon="5.94972">
        <ele>2607</ele>
        <time>2022-01-22T11:35:44Z</time>
      </trkpt>
      <trkpt lat="45.17101" lon="5.94971">
        <ele>2605</ele>
        <time>2022-01-22T11:36:05Z</time>
      </trkpt>
      <trkpt lat="45.171" lon="5.94969">
        <ele>2605</ele>
        <time>2022-01-22T11:36:06Z</time>
      </trkpt>
      <trkpt lat="45.17099" lon="5.94966">
        <ele>2605</ele>
        <time>2022-01-22T11:36:07Z</time>
      </trkpt>
      <trkpt lat="45.17098" lon="5.94963">
        <ele>2604</ele>
        <time>2022-01-22T11:36:08Z</time>
      </trkpt>
      <trkpt lat="45.17097" lon="5.9496">
        <ele>2603</ele>
        <time>2022-01-22T11:36:09Z</time>
      </trkpt>
      <trkpt lat="45.17096" lon="5.94956">
        <ele>2601</ele>
        <time>2022-01-22T11:36:11Z</time>
      </trkpt>
      <trkpt lat="45.17094" lon="5.94954">
        <ele>2600</ele>
        <time>2022-01-22T11:36:13Z</time>
      </trkpt>
      <trkpt lat="45.17093" lon="5.94958">
        <ele>2600</ele>
        <time>2022-01-22T11:36:15Z</time>
      </trkpt>
      <trkpt lat="45.17091" lon="5.94959">
        <ele>2597</ele>
        <time>2022-01-22T11:36:17Z</time>
      </trkpt>
      <trkpt lat="45.1709" lon="5.94957">
        <ele>2597</ele>
        <time>2022-01-22T11:36:18Z</time>
      </trkpt>
      <trkpt lat="45.17089" lon="5.94955">
        <ele>2597</ele>
        <time>2022-01-22T11:36:19Z</time>
      </trkpt>
      <trkpt lat="45.17087" lon="5.9495">
        <ele>2595</ele>
        <time>2022-01-22T11:36:21Z</time>
      </trkpt>
      <trkpt lat="45.17086" lon="5.94946">
        <ele>2594</ele>
        <time>2022-01-22T11:36:23Z</time>
      </trkpt>
      <trkpt lat="45.17086" lon="5.9494">
        <ele>2592</ele>
        <time>2022-01-22T11:36:25Z</time>
      </trkpt>
      <trkpt lat="45.17086" lon="5.94937">
        <ele>2592</ele>
        <time>2022-01-22T11:36:26Z</time>
      </trkpt>
      <trkpt lat="45.17087" lon="5.94933">
        <ele>2591</ele>
        <time>2022-01-22T11:36:28Z</time>
      </trkpt>
      <trkpt lat="45.17088" lon="5.94929">
        <ele>2591</ele>
        <time>2022-01-22T11:36:30Z</time>
      </trkpt>
      <trkpt lat="45.17089" lon="5.94926">
        <ele>2591</ele>
        <time>2022-01-22T11:36:32Z</time>
      </trkpt>
      <trkpt lat="45.17087" lon="5.94925">
        <ele>2590</ele>
        <time>2022-01-22T11:36:38Z</time>
      </trkpt>
      <trkpt lat="45.17085" lon="5.94926">
        <ele>2590</ele>
        <time>2022-01-22T11:36:41Z</time>
      </trkpt>
      <trkpt lat="45.17083" lon="5.94924">
        <ele>2588</ele>
        <time>2022-01-22T11:36:44Z</time>
      </trkpt>
      <trkpt lat="45.17082" lon="5.9492">
        <ele>2586</ele>
        <time>2022-01-22T11:36:45Z</time>
      </trkpt>
      <trkpt lat="45.17082" lon="5.94917">
        <ele>2585</ele>
        <time>2022-01-22T11:36:47Z</time>
      </trkpt>
      <trkpt lat="45.17082" lon="5.94914">
        <ele>2585</ele>
        <time>2022-01-22T11:36:49Z</time>
      </trkpt>
      <trkpt lat="45.17078" lon="5.94913">
        <ele>2584</ele>
        <time>2022-01-22T11:36:51Z</time>
      </trkpt>
      <trkpt lat="45.17078" lon="5.9491">
        <ele>2583</ele>
        <time>2022-01-22T11:36:52Z</time>
      </trkpt>
      <trkpt lat="45.17078" lon="5.94907">
        <ele>2582</ele>
        <time>2022-01-22T11:36:53Z</time>
      </trkpt>
      <trkpt lat="45.17077" lon="5.94903">
        <ele>2580</ele>
        <time>2022-01-22T11:36:55Z</time>
      </trkpt>
      <trkpt lat="45.17075" lon="5.94905">
        <ele>2577</ele>
        <time>2022-01-22T11:37:13Z</time>
      </trkpt>
      <trkpt lat="45.17073" lon="5.94904">
        <ele>2577</ele>
        <time>2022-01-22T11:37:14Z</time>
      </trkpt>
      <trkpt lat="45.17072" lon="5.94901">
        <ele>2577</ele>
        <time>2022-01-22T11:37:15Z</time>
      </trkpt>
      <trkpt lat="45.17072" lon="5.94898">
        <ele>2574</ele>
        <time>2022-01-22T11:37:17Z</time>
      </trkpt>
      <trkpt lat="45.17071" lon="5.94896">
        <ele>2572</ele>
        <time>2022-01-22T11:37:21Z</time>
      </trkpt>
      <trkpt lat="45.17071" lon="5.94892">
        <ele>2571</ele>
        <time>2022-01-22T11:37:26Z</time>
      </trkpt>
      <trkpt lat="45.1707" lon="5.9489">
        <ele>2570</ele>
        <time>2022-01-22T11:37:32Z</time>
      </trkpt>
      <trkpt lat="45.1707" lon="5.94887">
        <ele>2570</ele>
        <time>2022-01-22T11:37:35Z</time>
      </trkpt>
      <trkpt lat="45.17069" lon="5.94884">
        <ele>2567</ele>
        <time>2022-01-22T11:37:42Z</time>
      </trkpt>
      <trkpt lat="45.17069" lon="5.94882">
        <ele>2567</ele>
        <time>2022-01-22T11:37:47Z</time>
      </trkpt>
      <trkpt lat="45.17069" lon="5.94879">
        <ele>2565</ele>
        <time>2022-01-22T11:37:51Z</time>
      </trkpt>
      <trkpt lat="45.17071" lon="5.94877">
        <ele>2564</ele>
        <time>2022-01-22T11:38:02Z</time>
      </trkpt>
      <trkpt lat="45.17071" lon="5.94875">
        <ele>2562</ele>
        <time>2022-01-22T11:38:16Z</time>
      </trkpt>
      <trkpt lat="45.17071" lon="5.94872">
        <ele>2561</ele>
        <time>2022-01-22T11:38:32Z</time>
      </trkpt>
      <trkpt lat="45.1707" lon="5.94869">
        <ele>2560</ele>
        <time>2022-01-22T11:38:36Z</time>
      </trkpt>
      <trkpt lat="45.17069" lon="5.94867">
        <ele>2558</ele>
        <time>2022-01-22T11:38:40Z</time>
      </trkpt>
      <trkpt lat="45.17068" lon="5.94864">
        <ele>2558</ele>
        <time>2022-01-22T11:38:42Z</time>
      </trkpt>
      <trkpt lat="45.17068" lon="5.94859">
        <ele>2557</ele>
        <time>2022-01-22T11:38:44Z</time>
      </trkpt>
      <trkpt lat="45.17069" lon="5.94857">
        <ele>2556</ele>
        <time>2022-01-22T11:38:45Z</time>
      </trkpt>
      <trkpt lat="45.17069" lon="5.94854">
        <ele>2556</ele>
        <time>2022-01-22T11:38:46Z</time>
      </trkpt>
      <trkpt lat="45.1707" lon="5.9485">
        <ele>2555</ele>
        <time>2022-01-22T11:38:47Z</time>
      </trkpt>
      <trkpt lat="45.1707" lon="5.94846">
        <ele>2554</ele>
        <time>2022-01-22T11:38:48Z</time>
      </trkpt>
      <trkpt lat="45.17071" lon="5.94842">
        <ele>2553</ele>
        <time>2022-01-22T11:38:49Z</time>
      </trkpt>
      <trkpt lat="45.17072" lon="5.94838">
        <ele>2552</ele>
        <time>2022-01-22T11:38:50Z</time>
      </trkpt>
      <trkpt lat="45.17073" lon="5.94834">
        <ele>2550</ele>
        <time>2022-01-22T11:38:51Z</time>
      </trkpt>
      <trkpt lat="45.17074" lon="5.94831">
        <ele>2549</ele>
        <time>2022-01-22T11:38:52Z</time>
      </trkpt>
      <trkpt lat="45.17075" lon="5.94827">
        <ele>2548</ele>
        <time>2022-01-22T11:38:53Z</time>
      </trkpt>
      <trkpt lat="45.17076" lon="5.94823">
        <ele>2547</ele>
        <time>2022-01-22T11:38:54Z</time>
      </trkpt>
      <trkpt lat="45.17077" lon="5.9482">
        <ele>2547</ele>
        <time>2022-01-22T11:38:55Z</time>
      </trkpt>
      <trkpt lat="45.17078" lon="5.94816">
        <ele>2547</ele>
        <time>2022-01-22T11:38:56Z</time>
      </trkpt>
      <trkpt lat="45.17079" lon="5.94812">
        <ele>2546</ele>
        <time>2022-01-22T11:38:57Z</time>
      </trkpt>
      <trkpt lat="45.1708" lon="5.9481">
        <ele>2546</ele>
        <time>2022-01-22T11:38:58Z</time>
      </trkpt>
      <trkpt lat="45.17081" lon="5.94807">
        <ele>2545</ele>
        <time>2022-01-22T11:39:00Z</time>
      </trkpt>
      <trkpt lat="45.17079" lon="5.94805">
        <ele>2545</ele>
        <time>2022-01-22T11:52:43Z</time>
      </trkpt>
      <trkpt lat="45.17077" lon="5.94808">
        <ele>2545</ele>
        <time>2022-01-22T11:52:45Z</time>
      </trkpt>
      <trkpt lat="45.17074" lon="5.94811">
        <ele>2543</ele>
        <time>2022-01-22T11:52:47Z</time>
      </trkpt>
      <trkpt lat="45.17072" lon="5.94811">
        <ele>2543</ele>
        <time>2022-01-22T11:52:48Z</time>
      </trkpt>
      <trkpt lat="45.17071" lon="5.94809">
        <ele>2543</ele>
        <time>2022-01-22T11:52:49Z</time>
      </trkpt>
      <trkpt lat="45.1707" lon="5.94806">
        <ele>2542</ele>
        <time>2022-01-22T11:52:50Z</time>
      </trkpt>
      <trkpt lat="45.17067" lon="5.94805">
        <ele>2541</ele>
        <time>2022-01-22T11:52:51Z</time>
      </trkpt>
      <trkpt lat="45.17065" lon="5.94804">
        <ele>2540</ele>
        <time>2022-01-22T11:52:52Z</time>
      </trkpt>
      <trkpt lat="45.17063" lon="5.948">
        <ele>2539</ele>
        <time>2022-01-22T11:52:53Z</time>
      </trkpt>
      <trkpt lat="45.17061" lon="5.94796">
        <ele>2538</ele>
        <time>2022-01-22T11:52:54Z</time>
      </trkpt>
      <trkpt lat="45.17059" lon="5.94797">
        <ele>2536</ele>
        <time>2022-01-22T11:52:55Z</time>
      </trkpt>
      <trkpt lat="45.17058" lon="5.94799">
        <ele>2534</ele>
        <time>2022-01-22T11:52:56Z</time>
      </trkpt>
      <trkpt lat="45.17057" lon="5.94802">
        <ele>2533</ele>
        <time>2022-01-22T11:52:57Z</time>
      </trkpt>
      <trkpt lat="45.17055" lon="5.94805">
        <ele>2530</ele>
        <time>2022-01-22T11:52:59Z</time>
      </trkpt>
      <trkpt lat="45.17054" lon="5.94808">
        <ele>2530</ele>
        <time>2022-01-22T11:53:09Z</time>
      </trkpt>
      <trkpt lat="45.17052" lon="5.94813">
        <ele>2530</ele>
        <time>2022-01-22T11:53:10Z</time>
      </trkpt>
      <trkpt lat="45.17051" lon="5.94816">
        <ele>2530</ele>
        <time>2022-01-22T11:53:11Z</time>
      </trkpt>
      <trkpt lat="45.17049" lon="5.94818">
        <ele>2529</ele>
        <time>2022-01-22T11:53:13Z</time>
      </trkpt>
      <trkpt lat="45.17048" lon="5.94816">
        <ele>2529</ele>
        <time>2022-01-22T11:53:14Z</time>
      </trkpt>
      <trkpt lat="45.17046" lon="5.94812">
        <ele>2526</ele>
        <time>2022-01-22T11:53:15Z</time>
      </trkpt>
      <trkpt lat="45.17045" lon="5.94808">
        <ele>2525</ele>
        <time>2022-01-22T11:53:16Z</time>
      </trkpt>
      <trkpt lat="45.17043" lon="5.94806">
        <ele>2524</ele>
        <time>2022-01-22T11:53:17Z</time>
      </trkpt>
      <trkpt lat="45.1704" lon="5.94808">
        <ele>2523</ele>
        <time>2022-01-22T11:53:18Z</time>
      </trkpt>
      <trkpt lat="45.17037" lon="5.94812">
        <ele>2522</ele>
        <time>2022-01-22T11:53:19Z</time>
      </trkpt>
      <trkpt lat="45.17035" lon="5.94811">
        <ele>2520</ele>
        <time>2022-01-22T11:53:20Z</time>
      </trkpt>
      <trkpt lat="45.17033" lon="5.94806">
        <ele>2518</ele>
        <time>2022-01-22T11:53:21Z</time>
      </trkpt>
      <trkpt lat="45.17031" lon="5.94801">
        <ele>2517</ele>
        <time>2022-01-22T11:53:22Z</time>
      </trkpt>
      <trkpt lat="45.17029" lon="5.94799">
        <ele>2514</ele>
        <time>2022-01-22T11:53:23Z</time>
      </trkpt>
      <trkpt lat="45.17027" lon="5.94802">
        <ele>2511</ele>
        <time>2022-01-22T11:53:24Z</time>
      </trkpt>
      <trkpt lat="45.17023" lon="5.94806">
        <ele>2510</ele>
        <time>2022-01-22T11:53:25Z</time>
      </trkpt>
      <trkpt lat="45.17017" lon="5.94804">
        <ele>2509</ele>
        <time>2022-01-22T11:53:26Z</time>
      </trkpt>
      <trkpt lat="45.17015" lon="5.94797">
        <ele>2507</ele>
        <time>2022-01-22T11:53:27Z</time>
      </trkpt>
      <trkpt lat="45.17012" lon="5.9479">
        <ele>2504</ele>
        <time>2022-01-22T11:53:28Z</time>
      </trkpt>
      <trkpt lat="45.17011" lon="5.94785">
        <ele>2501</ele>
        <time>2022-01-22T11:53:29Z</time>
      </trkpt>
      <trkpt lat="45.17007" lon="5.94787">
        <ele>2498</ele>
        <time>2022-01-22T11:53:31Z</time>
      </trkpt>
      <trkpt lat="45.17001" lon="5.94787">
        <ele>2496</ele>
        <time>2022-01-22T11:53:33Z</time>
      </trkpt>
      <trkpt lat="45.16996" lon="5.94781">
        <ele>2490</ele>
        <time>2022-01-22T11:53:35Z</time>
      </trkpt>
      <trkpt lat="45.16993" lon="5.94783">
        <ele>2488</ele>
        <time>2022-01-22T11:53:36Z</time>
      </trkpt>
      <trkpt lat="45.16982" lon="5.94782">
        <ele>2483</ele>
        <time>2022-01-22T11:53:39Z</time>
      </trkpt>
      <trkpt lat="45.16975" lon="5.94793">
        <ele>2477</ele>
        <time>2022-01-22T11:53:42Z</time>
      </trkpt>
      <trkpt lat="45.16965" lon="5.94788">
        <ele>2472</ele>
        <time>2022-01-22T11:53:45Z</time>
      </trkpt>
      <trkpt lat="45.16954" lon="5.94788">
        <ele>2466</ele>
        <time>2022-01-22T11:53:48Z</time>
      </trkpt>
      <trkpt lat="45.16942" lon="5.9479">
        <ele>2458</ele>
        <time>2022-01-22T11:53:52Z</time>
      </trkpt>
      <trkpt lat="45.16934" lon="5.94783">
        <ele>2452</ele>
        <time>2022-01-22T11:53:54Z</time>
      </trkpt>
      <trkpt lat="45.16935" lon="5.94796">
        <ele>2446</ele>
        <time>2022-01-22T11:53:58Z</time>
      </trkpt>
      <trkpt lat="45.1693" lon="5.94795">
        <ele>2444</ele>
        <time>2022-01-22T11:54:24Z</time>
      </trkpt>
      <trkpt lat="45.16926" lon="5.94789">
        <ele>2444</ele>
        <time>2022-01-22T11:54:25Z</time>
      </trkpt>
      <trkpt lat="45.16925" lon="5.94783">
        <ele>2442</ele>
        <time>2022-01-22T11:54:26Z</time>
      </trkpt>
      <trkpt lat="45.16922" lon="5.94771">
        <ele>2440</ele>
        <time>2022-01-22T11:54:28Z</time>
      </trkpt>
      <trkpt lat="45.1692" lon="5.94765">
        <ele>2439</ele>
        <time>2022-01-22T11:54:29Z</time>
      </trkpt>
      <trkpt lat="45.16919" lon="5.9476">
        <ele>2439</ele>
        <time>2022-01-22T11:54:30Z</time>
      </trkpt>
      <trkpt lat="45.16917" lon="5.94757">
        <ele>2438</ele>
        <time>2022-01-22T11:54:31Z</time>
      </trkpt>
      <trkpt lat="45.16914" lon="5.94758">
        <ele>2437</ele>
        <time>2022-01-22T11:54:32Z</time>
      </trkpt>
      <trkpt lat="45.16912" lon="5.94758">
        <ele>2437</ele>
        <time>2022-01-22T11:54:33Z</time>
      </trkpt>
      <trkpt lat="45.16909" lon="5.94755">
        <ele>2436</ele>
        <time>2022-01-22T11:54:34Z</time>
      </trkpt>
      <trkpt lat="45.16907" lon="5.9475">
        <ele>2435</ele>
        <time>2022-01-22T11:54:35Z</time>
      </trkpt>
      <trkpt lat="45.16905" lon="5.94747">
        <ele>2434</ele>
        <time>2022-01-22T11:54:36Z</time>
      </trkpt>
      <trkpt lat="45.16904" lon="5.94742">
        <ele>2433</ele>
        <time>2022-01-22T11:54:37Z</time>
      </trkpt>
      <trkpt lat="45.16902" lon="5.94738">
        <ele>2432</ele>
        <time>2022-01-22T11:54:38Z</time>
      </trkpt>
      <trkpt lat="45.16901" lon="5.94734">
        <ele>2432</ele>
        <time>2022-01-22T11:54:39Z</time>
      </trkpt>
      <trkpt lat="45.16899" lon="5.94729">
        <ele>2431</ele>
        <time>2022-01-22T11:54:40Z</time>
      </trkpt>
      <trkpt lat="45.16898" lon="5.94725">
        <ele>2429</ele>
        <time>2022-01-22T11:54:41Z</time>
      </trkpt>
      <trkpt lat="45.16897" lon="5.9472">
        <ele>2429</ele>
        <time>2022-01-22T11:54:42Z</time>
      </trkpt>
      <trkpt lat="45.16896" lon="5.94717">
        <ele>2428</ele>
        <time>2022-01-22T11:54:43Z</time>
      </trkpt>
      <trkpt lat="45.16895" lon="5.94714">
        <ele>2428</ele>
        <time>2022-01-22T11:54:44Z</time>
      </trkpt>
      <trkpt lat="45.16894" lon="5.9471">
        <ele>2428</ele>
        <time>2022-01-22T11:54:45Z</time>
      </trkpt>
      <trkpt lat="45.16893" lon="5.94707">
        <ele>2428</ele>
        <time>2022-01-22T11:54:46Z</time>
      </trkpt>
      <trkpt lat="45.16892" lon="5.94704">
        <ele>2427</ele>
        <time>2022-01-22T11:54:47Z</time>
      </trkpt>
      <trkpt lat="45.16891" lon="5.947">
        <ele>2427</ele>
        <time>2022-01-22T11:54:48Z</time>
      </trkpt>
      <trkpt lat="45.1689" lon="5.94696">
        <ele>2427</ele>
        <time>2022-01-22T11:54:49Z</time>
      </trkpt>
      <trkpt lat="45.16889" lon="5.94693">
        <ele>2426</ele>
        <time>2022-01-22T11:54:50Z</time>
      </trkpt>
      <trkpt lat="45.16888" lon="5.94689">
        <ele>2425</ele>
        <time>2022-01-22T11:54:51Z</time>
      </trkpt>
      <trkpt lat="45.16886" lon="5.94685">
        <ele>2424</ele>
        <time>2022-01-22T11:54:52Z</time>
      </trkpt>
      <trkpt lat="45.16883" lon="5.94684">
        <ele>2423</ele>
        <time>2022-01-22T11:54:54Z</time>
      </trkpt>
      <trkpt lat="45.16881" lon="5.94687">
        <ele>2422</ele>
        <time>2022-01-22T11:54:55Z</time>
      </trkpt>
      <trkpt lat="45.16877" lon="5.94685">
        <ele>2420</ele>
        <time>2022-01-22T11:54:57Z</time>
      </trkpt>
      <trkpt lat="45.16876" lon="5.94682">
        <ele>2417</ele>
        <time>2022-01-22T11:54:58Z</time>
      </trkpt>
      <trkpt lat="45.16875" lon="5.94679">
        <ele>2417</ele>
        <time>2022-01-22T11:54:59Z</time>
      </trkpt>
      <trkpt lat="45.16874" lon="5.94676">
        <ele>2414</ele>
        <time>2022-01-22T11:55:00Z</time>
      </trkpt>
      <trkpt lat="45.16872" lon="5.94673">
        <ele>2413</ele>
        <time>2022-01-22T11:55:01Z</time>
      </trkpt>
      <trkpt lat="45.16871" lon="5.94669">
        <ele>2411</ele>
        <time>2022-01-22T11:55:03Z</time>
      </trkpt>
      <trkpt lat="45.1687" lon="5.94666">
        <ele>2410</ele>
        <time>2022-01-22T11:55:05Z</time>
      </trkpt>
      <trkpt lat="45.16867" lon="5.94668">
        <ele>2408</ele>
        <time>2022-01-22T11:55:07Z</time>
      </trkpt>
      <trkpt lat="45.16865" lon="5.94668">
        <ele>2408</ele>
        <time>2022-01-22T11:55:08Z</time>
      </trkpt>
      <trkpt lat="45.16862" lon="5.94663">
        <ele>2405</ele>
        <time>2022-01-22T11:55:09Z</time>
      </trkpt>
      <trkpt lat="45.1686" lon="5.94658">
        <ele>2403</ele>
        <time>2022-01-22T11:55:10Z</time>
      </trkpt>
      <trkpt lat="45.16858" lon="5.94653">
        <ele>2401</ele>
        <time>2022-01-22T11:55:11Z</time>
      </trkpt>
      <trkpt lat="45.16857" lon="5.94651">
        <ele>2399</ele>
        <time>2022-01-22T11:55:12Z</time>
      </trkpt>
      <trkpt lat="45.16856" lon="5.94654">
        <ele>2396</ele>
        <time>2022-01-22T11:55:27Z</time>
      </trkpt>
      <trkpt lat="45.16855" lon="5.94659">
        <ele>2396</ele>
        <time>2022-01-22T11:55:28Z</time>
      </trkpt>
      <trkpt lat="45.16854" lon="5.94664">
        <ele>2396</ele>
        <time>2022-01-22T11:55:29Z</time>
      </trkpt>
      <trkpt lat="45.16854" lon="5.94668">
        <ele>2395</ele>
        <time>2022-01-22T11:55:30Z</time>
      </trkpt>
      <trkpt lat="45.16853" lon="5.94673">
        <ele>2393</ele>
        <time>2022-01-22T11:55:31Z</time>
      </trkpt>
      <trkpt lat="45.16852" lon="5.94675">
        <ele>2392</ele>
        <time>2022-01-22T11:55:32Z</time>
      </trkpt>
      <trkpt lat="45.16849" lon="5.94673">
        <ele>2391</ele>
        <time>2022-01-22T11:55:33Z</time>
      </trkpt>
      <trkpt lat="45.16847" lon="5.94672">
        <ele>2390</ele>
        <time>2022-01-22T11:55:34Z</time>
      </trkpt>
      <trkpt lat="45.16845" lon="5.94677">
        <ele>2387</ele>
        <time>2022-01-22T11:55:36Z</time>
      </trkpt>
      <trkpt lat="45.16844" lon="5.94682">
        <ele>2387</ele>
        <time>2022-01-22T11:55:37Z</time>
      </trkpt>
      <trkpt lat="45.16844" lon="5.94687">
        <ele>2386</ele>
        <time>2022-01-22T11:55:38Z</time>
      </trkpt>
      <trkpt lat="45.16843" lon="5.94691">
        <ele>2385</ele>
        <time>2022-01-22T11:55:39Z</time>
      </trkpt>
      <trkpt lat="45.16842" lon="5.94694">
        <ele>2384</ele>
        <time>2022-01-22T11:55:40Z</time>
      </trkpt>
      <trkpt lat="45.16842" lon="5.94697">
        <ele>2383</ele>
        <time>2022-01-22T11:55:41Z</time>
      </trkpt>
      <trkpt lat="45.16841" lon="5.947">
        <ele>2381</ele>
        <time>2022-01-22T11:55:42Z</time>
      </trkpt>
      <trkpt lat="45.1684" lon="5.94703">
        <ele>2381</ele>
        <time>2022-01-22T11:55:43Z</time>
      </trkpt>
      <trkpt lat="45.16839" lon="5.94706">
        <ele>2381</ele>
        <time>2022-01-22T11:55:44Z</time>
      </trkpt>
      <trkpt lat="45.16838" lon="5.94709">
        <ele>2380</ele>
        <time>2022-01-22T11:55:45Z</time>
      </trkpt>
      <trkpt lat="45.16838" lon="5.94713">
        <ele>2379</ele>
        <time>2022-01-22T11:55:46Z</time>
      </trkpt>
      <trkpt lat="45.16837" lon="5.94716">
        <ele>2379</ele>
        <time>2022-01-22T11:55:47Z</time>
      </trkpt>
      <trkpt lat="45.16837" lon="5.94719">
        <ele>2379</ele>
        <time>2022-01-22T11:55:48Z</time>
      </trkpt>
      <trkpt lat="45.16835" lon="5.9472">
        <ele>2378</ele>
        <time>2022-01-22T11:56:07Z</time>
      </trkpt>
      <trkpt lat="45.16833" lon="5.94719">
        <ele>2378</ele>
        <time>2022-01-22T11:56:29Z</time>
      </trkpt>
      <trkpt lat="45.16832" lon="5.94716">
        <ele>2378</ele>
        <time>2022-01-22T11:56:30Z</time>
      </trkpt>
      <trkpt lat="45.16832" lon="5.94713">
        <ele>2377</ele>
        <time>2022-01-22T11:56:31Z</time>
      </trkpt>
      <trkpt lat="45.16832" lon="5.9471">
        <ele>2377</ele>
        <time>2022-01-22T11:56:32Z</time>
      </trkpt>
      <trkpt lat="45.16832" lon="5.94706">
        <ele>2376</ele>
        <time>2022-01-22T11:56:33Z</time>
      </trkpt>
      <trkpt lat="45.16831" lon="5.94702">
        <ele>2376</ele>
        <time>2022-01-22T11:56:34Z</time>
      </trkpt>
      <trkpt lat="45.16831" lon="5.94688">
        <ele>2376</ele>
        <time>2022-01-22T11:56:37Z</time>
      </trkpt>
      <trkpt lat="45.16831" lon="5.94682">
        <ele>2375</ele>
        <time>2022-01-22T11:56:40Z</time>
      </trkpt>
      <trkpt lat="45.16831" lon="5.94679">
        <ele>2375</ele>
        <time>2022-01-22T11:56:42Z</time>
      </trkpt>
      <trkpt lat="45.16831" lon="5.94677">
        <ele>2377</ele>
        <time>2022-01-22T11:56:45Z</time>
      </trkpt>
      <trkpt lat="45.16831" lon="5.94672">
        <ele>2377</ele>
        <time>2022-01-22T11:56:48Z</time>
      </trkpt>
      <trkpt lat="45.16829" lon="5.94668">
        <ele>2377</ele>
        <time>2022-01-22T11:56:50Z</time>
      </trkpt>
      <trkpt lat="45.16828" lon="5.94664">
        <ele>2377</ele>
        <time>2022-01-22T11:56:52Z</time>
      </trkpt>
      <trkpt lat="45.16829" lon="5.9466">
        <ele>2377</ele>
        <time>2022-01-22T11:56:54Z</time>
      </trkpt>
      <trkpt lat="45.1683" lon="5.94655">
        <ele>2377</ele>
        <time>2022-01-22T11:56:56Z</time>
      </trkpt>
      <trkpt lat="45.1683" lon="5.94653">
        <ele>2377</ele>
        <time>2022-01-22T11:56:57Z</time>
      </trkpt>
      <trkpt lat="45.16831" lon="5.94649">
        <ele>2377</ele>
        <time>2022-01-22T11:56:58Z</time>
      </trkpt>
      <trkpt lat="45.16831" lon="5.94646">
        <ele>2377</ele>
        <time>2022-01-22T11:56:59Z</time>
      </trkpt>
      <trkpt lat="45.16831" lon="5.94642">
        <ele>2376</ele>
        <time>2022-01-22T11:57:00Z</time>
      </trkpt>
      <trkpt lat="45.16831" lon="5.94638">
        <ele>2375</ele>
        <time>2022-01-22T11:57:02Z</time>
      </trkpt>
      <trkpt lat="45.1683" lon="5.94635">
        <ele>2375</ele>
        <time>2022-01-22T11:57:03Z</time>
      </trkpt>
      <trkpt lat="45.16829" lon="5.94632">
        <ele>2375</ele>
        <time>2022-01-22T11:57:04Z</time>
      </trkpt>
      <trkpt lat="45.16827" lon="5.94629">
        <ele>2375</ele>
        <time>2022-01-22T11:57:05Z</time>
      </trkpt>
      <trkpt lat="45.16824" lon="5.94626">
        <ele>2375</ele>
        <time>2022-01-22T11:57:06Z</time>
      </trkpt>
      <trkpt lat="45.16822" lon="5.94624">
        <ele>2374</ele>
        <time>2022-01-22T11:57:07Z</time>
      </trkpt>
      <trkpt lat="45.1682" lon="5.94626">
        <ele>2373</ele>
        <time>2022-01-22T11:57:08Z</time>
      </trkpt>
      <trkpt lat="45.16819" lon="5.94631">
        <ele>2372</ele>
        <time>2022-01-22T11:57:09Z</time>
      </trkpt>
      <trkpt lat="45.16818" lon="5.94632">
        <ele>2371</ele>
        <time>2022-01-22T11:57:10Z</time>
      </trkpt>
      <trkpt lat="45.16815" lon="5.94631">
        <ele>2369</ele>
        <time>2022-01-22T11:57:11Z</time>
      </trkpt>
      <trkpt lat="45.16813" lon="5.94629">
        <ele>2366</ele>
        <time>2022-01-22T11:57:12Z</time>
      </trkpt>
      <trkpt lat="45.16811" lon="5.94628">
        <ele>2365</ele>
        <time>2022-01-22T11:57:13Z</time>
      </trkpt>
      <trkpt lat="45.16809" lon="5.9463">
        <ele>2364</ele>
        <time>2022-01-22T11:57:14Z</time>
      </trkpt>
      <trkpt lat="45.16807" lon="5.94632">
        <ele>2363</ele>
        <time>2022-01-22T11:57:15Z</time>
      </trkpt>
      <trkpt lat="45.16804" lon="5.94631">
        <ele>2362</ele>
        <time>2022-01-22T11:57:16Z</time>
      </trkpt>
      <trkpt lat="45.16802" lon="5.9463">
        <ele>2361</ele>
        <time>2022-01-22T11:57:17Z</time>
      </trkpt>
      <trkpt lat="45.168" lon="5.94631">
        <ele>2359</ele>
        <time>2022-01-22T11:57:18Z</time>
      </trkpt>
      <trkpt lat="45.16798" lon="5.94635">
        <ele>2356</ele>
        <time>2022-01-22T11:57:19Z</time>
      </trkpt>
      <trkpt lat="45.16797" lon="5.94638">
        <ele>2355</ele>
        <time>2022-01-22T11:57:20Z</time>
      </trkpt>
      <trkpt lat="45.16794" lon="5.94636">
        <ele>2354</ele>
        <time>2022-01-22T11:57:21Z</time>
      </trkpt>
      <trkpt lat="45.1679" lon="5.94636">
        <ele>2351</ele>
        <time>2022-01-22T11:57:22Z</time>
      </trkpt>
      <trkpt lat="45.16787" lon="5.94639">
        <ele>2349</ele>
        <time>2022-01-22T11:57:23Z</time>
      </trkpt>
      <trkpt lat="45.16788" lon="5.94645">
        <ele>2347</ele>
        <time>2022-01-22T11:57:24Z</time>
      </trkpt>
      <trkpt lat="45.16788" lon="5.94649">
        <ele>2345</ele>
        <time>2022-01-22T11:57:25Z</time>
      </trkpt>
      <trkpt lat="45.16785" lon="5.94648">
        <ele>2343</ele>
        <time>2022-01-22T11:57:26Z</time>
      </trkpt>
      <trkpt lat="45.16782" lon="5.94645">
        <ele>2341</ele>
        <time>2022-01-22T11:57:27Z</time>
      </trkpt>
      <trkpt lat="45.1678" lon="5.94644">
        <ele>2339</ele>
        <time>2022-01-22T11:57:28Z</time>
      </trkpt>
      <trkpt lat="45.1677" lon="5.94644">
        <ele>2330</ele>
        <time>2022-01-22T11:57:32Z</time>
      </trkpt>
      <trkpt lat="45.16765" lon="5.94655">
        <ele>2321</ele>
        <time>2022-01-22T11:57:35Z</time>
      </trkpt>
      <trkpt lat="45.16753" lon="5.94643">
        <ele>2315</ele>
        <time>2022-01-22T11:57:38Z</time>
      </trkpt>
      <trkpt lat="45.16744" lon="5.94649">
        <ele>2307</ele>
        <time>2022-01-22T11:57:42Z</time>
      </trkpt>
      <trkpt lat="45.16736" lon="5.94639">
        <ele>2303</ele>
        <time>2022-01-22T11:57:44Z</time>
      </trkpt>
      <trkpt lat="45.16729" lon="5.94633">
        <ele>2295</ele>
        <time>2022-01-22T11:57:52Z</time>
      </trkpt>
      <trkpt lat="45.16728" lon="5.94636">
        <ele>2294</ele>
        <time>2022-01-22T11:57:59Z</time>
      </trkpt>
      <trkpt lat="45.1673" lon="5.94637">
        <ele>2294</ele>
        <time>2022-01-22T11:58:22Z</time>
      </trkpt>
      <trkpt lat="45.1673" lon="5.94641">
        <ele>2295</ele>
        <time>2022-01-22T11:59:25Z</time>
      </trkpt>
      <trkpt lat="45.16729" lon="5.94644">
        <ele>2295</ele>
        <time>2022-01-22T11:59:26Z</time>
      </trkpt>
      <trkpt lat="45.16727" lon="5.94648">
        <ele>2294</ele>
        <time>2022-01-22T11:59:27Z</time>
      </trkpt>
      <trkpt lat="45.16725" lon="5.94652">
        <ele>2294</ele>
        <time>2022-01-22T11:59:28Z</time>
      </trkpt>
      <trkpt lat="45.16723" lon="5.94658">
        <ele>2293</ele>
        <time>2022-01-22T11:59:29Z</time>
      </trkpt>
      <trkpt lat="45.16721" lon="5.94664">
        <ele>2292</ele>
        <time>2022-01-22T11:59:30Z</time>
      </trkpt>
      <trkpt lat="45.16719" lon="5.9467">
        <ele>2291</ele>
        <time>2022-01-22T11:59:31Z</time>
      </trkpt>
      <trkpt lat="45.16717" lon="5.94677">
        <ele>2291</ele>
        <time>2022-01-22T11:59:32Z</time>
      </trkpt>
      <trkpt lat="45.16714" lon="5.94683">
        <ele>2291</ele>
        <time>2022-01-22T11:59:33Z</time>
      </trkpt>
      <trkpt lat="45.16712" lon="5.94689">
        <ele>2290</ele>
        <time>2022-01-22T11:59:34Z</time>
      </trkpt>
      <trkpt lat="45.1671" lon="5.94694">
        <ele>2289</ele>
        <time>2022-01-22T11:59:35Z</time>
      </trkpt>
      <trkpt lat="45.16708" lon="5.94699">
        <ele>2288</ele>
        <time>2022-01-22T11:59:36Z</time>
      </trkpt>
      <trkpt lat="45.16706" lon="5.94704">
        <ele>2288</ele>
        <time>2022-01-22T11:59:37Z</time>
      </trkpt>
      <trkpt lat="45.16705" lon="5.94708">
        <ele>2288</ele>
        <time>2022-01-22T11:59:38Z</time>
      </trkpt>
      <trkpt lat="45.16702" lon="5.94713">
        <ele>2288</ele>
        <time>2022-01-22T11:59:39Z</time>
      </trkpt>
      <trkpt lat="45.16697" lon="5.94724">
        <ele>2286</ele>
        <time>2022-01-22T11:59:41Z</time>
      </trkpt>
      <trkpt lat="45.16694" lon="5.94727">
        <ele>2285</ele>
        <time>2022-01-22T11:59:42Z</time>
      </trkpt>
      <trkpt lat="45.16691" lon="5.94727">
        <ele>2285</ele>
        <time>2022-01-22T11:59:44Z</time>
      </trkpt>
      <trkpt lat="45.16689" lon="5.94724">
        <ele>2285</ele>
        <time>2022-01-22T11:59:45Z</time>
      </trkpt>
      <trkpt lat="45.16686" lon="5.94724">
        <ele>2284</ele>
        <time>2022-01-22T11:59:46Z</time>
      </trkpt>
      <trkpt lat="45.16683" lon="5.94727">
        <ele>2282</ele>
        <time>2022-01-22T11:59:47Z</time>
      </trkpt>
      <trkpt lat="45.1668" lon="5.94732">
        <ele>2281</ele>
        <time>2022-01-22T11:59:48Z</time>
      </trkpt>
      <trkpt lat="45.16678" lon="5.94735">
        <ele>2280</ele>
        <time>2022-01-22T11:59:49Z</time>
      </trkpt>
      <trkpt lat="45.16677" lon="5.94737">
        <ele>2280</ele>
        <time>2022-01-22T11:59:50Z</time>
      </trkpt>
      <trkpt lat="45.16674" lon="5.94735">
        <ele>2280</ele>
        <time>2022-01-22T12:00:00Z</time>
      </trkpt>
      <trkpt lat="45.16672" lon="5.94732">
        <ele>2278</ele>
        <time>2022-01-22T12:00:01Z</time>
      </trkpt>
      <trkpt lat="45.1667" lon="5.94731">
        <ele>2277</ele>
        <time>2022-01-22T12:00:02Z</time>
      </trkpt>
      <trkpt lat="45.16667" lon="5.94733">
        <ele>2275</ele>
        <time>2022-01-22T12:00:03Z</time>
      </trkpt>
      <trkpt lat="45.16664" lon="5.94734">
        <ele>2274</ele>
        <time>2022-01-22T12:00:04Z</time>
      </trkpt>
      <trkpt lat="45.16661" lon="5.94733">
        <ele>2273</ele>
        <time>2022-01-22T12:00:05Z</time>
      </trkpt>
      <trkpt lat="45.16658" lon="5.94736">
        <ele>2272</ele>
        <time>2022-01-22T12:00:06Z</time>
      </trkpt>
      <trkpt lat="45.16655" lon="5.9474">
        <ele>2270</ele>
        <time>2022-01-22T12:00:07Z</time>
      </trkpt>
      <trkpt lat="45.16651" lon="5.94744">
        <ele>2267</ele>
        <time>2022-01-22T12:00:09Z</time>
      </trkpt>
      <trkpt lat="45.16649" lon="5.94748">
        <ele>2265</ele>
        <time>2022-01-22T12:00:10Z</time>
      </trkpt>
      <trkpt lat="45.16648" lon="5.94753">
        <ele>2263</ele>
        <time>2022-01-22T12:00:11Z</time>
      </trkpt>
      <trkpt lat="45.16646" lon="5.94756">
        <ele>2262</ele>
        <time>2022-01-22T12:00:12Z</time>
      </trkpt>
      <trkpt lat="45.16644" lon="5.94758">
        <ele>2260</ele>
        <time>2022-01-22T12:00:14Z</time>
      </trkpt>
      <trkpt lat="45.16637" lon="5.94752">
        <ele>2260</ele>
        <time>2022-01-22T12:00:15Z</time>
      </trkpt>
      <trkpt lat="45.16633" lon="5.94759">
        <ele>2257</ele>
        <time>2022-01-22T12:00:17Z</time>
      </trkpt>
      <trkpt lat="45.16633" lon="5.94763">
        <ele>2255</ele>
        <time>2022-01-22T12:00:18Z</time>
      </trkpt>
      <trkpt lat="45.16632" lon="5.94766">
        <ele>2254</ele>
        <time>2022-01-22T12:00:19Z</time>
      </trkpt>
      <trkpt lat="45.16631" lon="5.94769">
        <ele>2252</ele>
        <time>2022-01-22T12:00:20Z</time>
      </trkpt>
      <trkpt lat="45.16631" lon="5.94772">
        <ele>2251</ele>
        <time>2022-01-22T12:00:21Z</time>
      </trkpt>
      <trkpt lat="45.16629" lon="5.94774">
        <ele>2250</ele>
        <time>2022-01-22T12:00:22Z</time>
      </trkpt>
      <trkpt lat="45.16625" lon="5.9477">
        <ele>2248</ele>
        <time>2022-01-22T12:00:24Z</time>
      </trkpt>
      <trkpt lat="45.16616" lon="5.94775">
        <ele>2241</ele>
        <time>2022-01-22T12:00:29Z</time>
      </trkpt>
      <trkpt lat="45.16615" lon="5.94781">
        <ele>2238</ele>
        <time>2022-01-22T12:00:32Z</time>
      </trkpt>
      <trkpt lat="45.16614" lon="5.94777">
        <ele>2237</ele>
        <time>2022-01-22T12:00:35Z</time>
      </trkpt>
      <trkpt lat="45.16609" lon="5.94775">
        <ele>2236</ele>
        <time>2022-01-22T12:00:47Z</time>
      </trkpt>
      <trkpt lat="45.16606" lon="5.94765">
        <ele>2236</ele>
        <time>2022-01-22T12:00:48Z</time>
      </trkpt>
      <trkpt lat="45.16605" lon="5.94759">
        <ele>2235</ele>
        <time>2022-01-22T12:00:49Z</time>
      </trkpt>
      <trkpt lat="45.16603" lon="5.94752">
        <ele>2235</ele>
        <time>2022-01-22T12:00:50Z</time>
      </trkpt>
      <trkpt lat="45.166" lon="5.94747">
        <ele>2234</ele>
        <time>2022-01-22T12:00:51Z</time>
      </trkpt>
      <trkpt lat="45.16598" lon="5.94742">
        <ele>2233</ele>
        <time>2022-01-22T12:00:52Z</time>
      </trkpt>
      <trkpt lat="45.16595" lon="5.94738">
        <ele>2233</ele>
        <time>2022-01-22T12:00:53Z</time>
      </trkpt>
      <trkpt lat="45.16592" lon="5.94733">
        <ele>2233</ele>
        <time>2022-01-22T12:00:54Z</time>
      </trkpt>
      <trkpt lat="45.16589" lon="5.94728">
        <ele>2232</ele>
        <time>2022-01-22T12:00:55Z</time>
      </trkpt>
      <trkpt lat="45.16586" lon="5.94723">
        <ele>2231</ele>
        <time>2022-01-22T12:00:56Z</time>
      </trkpt>
      <trkpt lat="45.16584" lon="5.94719">
        <ele>2230</ele>
        <time>2022-01-22T12:00:57Z</time>
      </trkpt>
      <trkpt lat="45.16582" lon="5.94714">
        <ele>2230</ele>
        <time>2022-01-22T12:00:58Z</time>
      </trkpt>
      <trkpt lat="45.1658" lon="5.9471">
        <ele>2229</ele>
        <time>2022-01-22T12:00:59Z</time>
      </trkpt>
      <trkpt lat="45.16578" lon="5.94706">
        <ele>2229</ele>
        <time>2022-01-22T12:01:00Z</time>
      </trkpt>
      <trkpt lat="45.16576" lon="5.94703">
        <ele>2229</ele>
        <time>2022-01-22T12:01:01Z</time>
      </trkpt>
      <trkpt lat="45.16574" lon="5.94699">
        <ele>2229</ele>
        <time>2022-01-22T12:01:02Z</time>
      </trkpt>
      <trkpt lat="45.16572" lon="5.94695">
        <ele>2229</ele>
        <time>2022-01-22T12:01:03Z</time>
      </trkpt>
      <trkpt lat="45.16571" lon="5.94691">
        <ele>2228</ele>
        <time>2022-01-22T12:01:04Z</time>
      </trkpt>
      <trkpt lat="45.16569" lon="5.94686">
        <ele>2226</ele>
        <time>2022-01-22T12:01:06Z</time>
      </trkpt>
      <trkpt lat="45.16568" lon="5.94683">
        <ele>2224</ele>
        <time>2022-01-22T12:01:09Z</time>
      </trkpt>
      <trkpt lat="45.16567" lon="5.94681">
        <ele>2224</ele>
        <time>2022-01-22T12:01:27Z</time>
      </trkpt>
      <trkpt lat="45.16564" lon="5.94674">
        <ele>2224</ele>
        <time>2022-01-22T12:01:29Z</time>
      </trkpt>
      <trkpt lat="45.16563" lon="5.9467">
        <ele>2223</ele>
        <time>2022-01-22T12:01:30Z</time>
      </trkpt>
      <trkpt lat="45.16562" lon="5.94666">
        <ele>2222</ele>
        <time>2022-01-22T12:01:31Z</time>
      </trkpt>
      <trkpt lat="45.16561" lon="5.94661">
        <ele>2222</ele>
        <time>2022-01-22T12:01:32Z</time>
      </trkpt>
      <trkpt lat="45.1656" lon="5.94657">
        <ele>2221</ele>
        <time>2022-01-22T12:01:34Z</time>
      </trkpt>
      <trkpt lat="45.16558" lon="5.94649">
        <ele>2220</ele>
        <time>2022-01-22T12:01:35Z</time>
      </trkpt>
      <trkpt lat="45.16558" lon="5.94645">
        <ele>2220</ele>
        <time>2022-01-22T12:01:36Z</time>
      </trkpt>
      <trkpt lat="45.16557" lon="5.94642">
        <ele>2219</ele>
        <time>2022-01-22T12:01:37Z</time>
      </trkpt>
      <trkpt lat="45.16557" lon="5.94639">
        <ele>2219</ele>
        <time>2022-01-22T12:01:38Z</time>
      </trkpt>
      <trkpt lat="45.16556" lon="5.94636">
        <ele>2219</ele>
        <time>2022-01-22T12:01:40Z</time>
      </trkpt>
      <trkpt lat="45.16554" lon="5.94635">
        <ele>2219</ele>
        <time>2022-01-22T12:01:53Z</time>
      </trkpt>
      <trkpt lat="45.16552" lon="5.94637">
        <ele>2219</ele>
        <time>2022-01-22T12:01:54Z</time>
      </trkpt>
      <trkpt lat="45.1655" lon="5.9464">
        <ele>2218</ele>
        <time>2022-01-22T12:01:55Z</time>
      </trkpt>
      <trkpt lat="45.16548" lon="5.94639">
        <ele>2217</ele>
        <time>2022-01-22T12:01:56Z</time>
      </trkpt>
      <trkpt lat="45.16546" lon="5.94638">
        <ele>2215</ele>
        <time>2022-01-22T12:01:57Z</time>
      </trkpt>
      <trkpt lat="45.16543" lon="5.94638">
        <ele>2214</ele>
        <time>2022-01-22T12:01:58Z</time>
      </trkpt>
      <trkpt lat="45.1654" lon="5.94641">
        <ele>2212</ele>
        <time>2022-01-22T12:01:59Z</time>
      </trkpt>
      <trkpt lat="45.16538" lon="5.94645">
        <ele>2210</ele>
        <time>2022-01-22T12:02:00Z</time>
      </trkpt>
      <trkpt lat="45.16537" lon="5.94649">
        <ele>2209</ele>
        <time>2022-01-22T12:02:01Z</time>
      </trkpt>
      <trkpt lat="45.16535" lon="5.94651">
        <ele>2208</ele>
        <time>2022-01-22T12:02:02Z</time>
      </trkpt>
      <trkpt lat="45.16533" lon="5.94649">
        <ele>2207</ele>
        <time>2022-01-22T12:02:03Z</time>
      </trkpt>
      <trkpt lat="45.16532" lon="5.94644">
        <ele>2205</ele>
        <time>2022-01-22T12:02:04Z</time>
      </trkpt>
      <trkpt lat="45.16531" lon="5.94639">
        <ele>2204</ele>
        <time>2022-01-22T12:02:05Z</time>
      </trkpt>
      <trkpt lat="45.1653" lon="5.94635">
        <ele>2203</ele>
        <time>2022-01-22T12:02:06Z</time>
      </trkpt>
      <trkpt lat="45.1653" lon="5.94632">
        <ele>2202</ele>
        <time>2022-01-22T12:02:07Z</time>
      </trkpt>
      <trkpt lat="45.16529" lon="5.94628">
        <ele>2200</ele>
        <time>2022-01-22T12:02:08Z</time>
      </trkpt>
      <trkpt lat="45.16528" lon="5.94625">
        <ele>2200</ele>
        <time>2022-01-22T12:02:09Z</time>
      </trkpt>
      <trkpt lat="45.16526" lon="5.94622">
        <ele>2199</ele>
        <time>2022-01-22T12:02:10Z</time>
      </trkpt>
      <trkpt lat="45.16526" lon="5.94618">
        <ele>2198</ele>
        <time>2022-01-22T12:02:11Z</time>
      </trkpt>
      <trkpt lat="45.16525" lon="5.94613">
        <ele>2198</ele>
        <time>2022-01-22T12:02:12Z</time>
      </trkpt>
      <trkpt lat="45.16524" lon="5.94604">
        <ele>2196</ele>
        <time>2022-01-22T12:02:14Z</time>
      </trkpt>
      <trkpt lat="45.16524" lon="5.94598">
        <ele>2196</ele>
        <time>2022-01-22T12:02:15Z</time>
      </trkpt>
      <trkpt lat="45.16523" lon="5.94593">
        <ele>2196</ele>
        <time>2022-01-22T12:02:16Z</time>
      </trkpt>
      <trkpt lat="45.16522" lon="5.94587">
        <ele>2195</ele>
        <time>2022-01-22T12:02:17Z</time>
      </trkpt>
      <trkpt lat="45.16519" lon="5.9458">
        <ele>2193</ele>
        <time>2022-01-22T12:02:19Z</time>
      </trkpt>
      <trkpt lat="45.16516" lon="5.94582">
        <ele>2192</ele>
        <time>2022-01-22T12:02:20Z</time>
      </trkpt>
      <trkpt lat="45.16514" lon="5.94585">
        <ele>2191</ele>
        <time>2022-01-22T12:02:21Z</time>
      </trkpt>
      <trkpt lat="45.16512" lon="5.94586">
        <ele>2189</ele>
        <time>2022-01-22T12:02:22Z</time>
      </trkpt>
      <trkpt lat="45.1651" lon="5.94583">
        <ele>2188</ele>
        <time>2022-01-22T12:02:23Z</time>
      </trkpt>
      <trkpt lat="45.1651" lon="5.94578">
        <ele>2188</ele>
        <time>2022-01-22T12:02:24Z</time>
      </trkpt>
      <trkpt lat="45.16509" lon="5.94574">
        <ele>2187</ele>
        <time>2022-01-22T12:02:25Z</time>
      </trkpt>
      <trkpt lat="45.16507" lon="5.94571">
        <ele>2185</ele>
        <time>2022-01-22T12:02:26Z</time>
      </trkpt>
      <trkpt lat="45.16507" lon="5.94566">
        <ele>2184</ele>
        <time>2022-01-22T12:02:27Z</time>
      </trkpt>
      <trkpt lat="45.16506" lon="5.94561">
        <ele>2182</ele>
        <time>2022-01-22T12:02:28Z</time>
      </trkpt>
      <trkpt lat="45.16504" lon="5.94559">
        <ele>2181</ele>
        <time>2022-01-22T12:02:29Z</time>
      </trkpt>
      <trkpt lat="45.16501" lon="5.9456">
        <ele>2180</ele>
        <time>2022-01-22T12:02:30Z</time>
      </trkpt>
      <trkpt lat="45.16498" lon="5.94559">
        <ele>2178</ele>
        <time>2022-01-22T12:02:31Z</time>
      </trkpt>
      <trkpt lat="45.16495" lon="5.94558">
        <ele>2177</ele>
        <time>2022-01-22T12:02:32Z</time>
      </trkpt>
      <trkpt lat="45.16492" lon="5.94556">
        <ele>2176</ele>
        <time>2022-01-22T12:02:33Z</time>
      </trkpt>
      <trkpt lat="45.16489" lon="5.94553">
        <ele>2174</ele>
        <time>2022-01-22T12:02:34Z</time>
      </trkpt>
      <trkpt lat="45.16485" lon="5.94549">
        <ele>2174</ele>
        <time>2022-01-22T12:02:35Z</time>
      </trkpt>
      <trkpt lat="45.16481" lon="5.94545">
        <ele>2172</ele>
        <time>2022-01-22T12:02:36Z</time>
      </trkpt>
      <trkpt lat="45.16477" lon="5.94542">
        <ele>2170</ele>
        <time>2022-01-22T12:02:37Z</time>
      </trkpt>
      <trkpt lat="45.16473" lon="5.9454">
        <ele>2169</ele>
        <time>2022-01-22T12:02:38Z</time>
      </trkpt>
      <trkpt lat="45.1647" lon="5.94539">
        <ele>2168</ele>
        <time>2022-01-22T12:02:39Z</time>
      </trkpt>
      <trkpt lat="45.16468" lon="5.94539">
        <ele>2167</ele>
        <time>2022-01-22T12:02:40Z</time>
      </trkpt>
      <trkpt lat="45.1647" lon="5.94538">
        <ele>2166</ele>
        <time>2022-01-22T12:02:45Z</time>
      </trkpt>
      <trkpt lat="45.16472" lon="5.94538">
        <ele>2166</ele>
        <time>2022-01-22T12:02:50Z</time>
      </trkpt>
      <trkpt lat="45.16473" lon="5.9454">
        <ele>2166</ele>
        <time>2022-01-22T12:03:53Z</time>
      </trkpt>
      <trkpt lat="45.16472" lon="5.94537">
        <ele>2166</ele>
        <time>2022-01-22T12:03:59Z</time>
      </trkpt>
      <trkpt lat="45.16472" lon="5.94534">
        <ele>2166</ele>
        <time>2022-01-22T12:04:00Z</time>
      </trkpt>
      <trkpt lat="45.16473" lon="5.94532">
        <ele>2166</ele>
        <time>2022-01-22T12:04:01Z</time>
      </trkpt>
      <trkpt lat="45.16476" lon="5.9453">
        <ele>2165</ele>
        <time>2022-01-22T12:04:03Z</time>
      </trkpt>
      <trkpt lat="45.16474" lon="5.9453">
        <ele>2165</ele>
        <time>2022-01-22T12:04:24Z</time>
      </trkpt>
      <trkpt lat="45.16471" lon="5.94529">
        <ele>2164</ele>
        <time>2022-01-22T12:04:26Z</time>
      </trkpt>
      <trkpt lat="45.16469" lon="5.94529">
        <ele>2164</ele>
        <time>2022-01-22T12:04:27Z</time>
      </trkpt>
      <trkpt lat="45.16467" lon="5.94529">
        <ele>2164</ele>
        <time>2022-01-22T12:04:28Z</time>
      </trkpt>
      <trkpt lat="45.16464" lon="5.94529">
        <ele>2164</ele>
        <time>2022-01-22T12:04:29Z</time>
      </trkpt>
      <trkpt lat="45.16461" lon="5.9453">
        <ele>2163</ele>
        <time>2022-01-22T12:04:30Z</time>
      </trkpt>
      <trkpt lat="45.16457" lon="5.94532">
        <ele>2163</ele>
        <time>2022-01-22T12:04:31Z</time>
      </trkpt>
      <trkpt lat="45.16452" lon="5.94533">
        <ele>2163</ele>
        <time>2022-01-22T12:04:32Z</time>
      </trkpt>
      <trkpt lat="45.16448" lon="5.94533">
        <ele>2162</ele>
        <time>2022-01-22T12:04:33Z</time>
      </trkpt>
      <trkpt lat="45.16443" lon="5.94533">
        <ele>2161</ele>
        <time>2022-01-22T12:04:34Z</time>
      </trkpt>
      <trkpt lat="45.16438" lon="5.94533">
        <ele>2160</ele>
        <time>2022-01-22T12:04:35Z</time>
      </trkpt>
      <trkpt lat="45.16431" lon="5.94532">
        <ele>2160</ele>
        <time>2022-01-22T12:04:36Z</time>
      </trkpt>
      <trkpt lat="45.16423" lon="5.9453">
        <ele>2159</ele>
        <time>2022-01-22T12:04:37Z</time>
      </trkpt>
      <trkpt lat="45.16411" lon="5.94522">
        <ele>2157</ele>
        <time>2022-01-22T12:04:39Z</time>
      </trkpt>
      <trkpt lat="45.16407" lon="5.94519">
        <ele>2156</ele>
        <time>2022-01-22T12:04:40Z</time>
      </trkpt>
      <trkpt lat="45.16404" lon="5.94517">
        <ele>2156</ele>
        <time>2022-01-22T12:04:41Z</time>
      </trkpt>
      <trkpt lat="45.16403" lon="5.94513">
        <ele>2155</ele>
        <time>2022-01-22T12:04:42Z</time>
      </trkpt>
      <trkpt lat="45.16402" lon="5.94509">
        <ele>2155</ele>
        <time>2022-01-22T12:04:43Z</time>
      </trkpt>
      <trkpt lat="45.16402" lon="5.94499">
        <ele>2155</ele>
        <time>2022-01-22T12:04:45Z</time>
      </trkpt>
      <trkpt lat="45.16401" lon="5.94494">
        <ele>2154</ele>
        <time>2022-01-22T12:04:46Z</time>
      </trkpt>
      <trkpt lat="45.16399" lon="5.94489">
        <ele>2153</ele>
        <time>2022-01-22T12:04:47Z</time>
      </trkpt>
      <trkpt lat="45.16397" lon="5.94485">
        <ele>2152</ele>
        <time>2022-01-22T12:04:48Z</time>
      </trkpt>
      <trkpt lat="45.16396" lon="5.94481">
        <ele>2151</ele>
        <time>2022-01-22T12:04:49Z</time>
      </trkpt>
      <trkpt lat="45.16395" lon="5.94478">
        <ele>2150</ele>
        <time>2022-01-22T12:04:50Z</time>
      </trkpt>
      <trkpt lat="45.16393" lon="5.94474">
        <ele>2148</ele>
        <time>2022-01-22T12:04:52Z</time>
      </trkpt>
      <trkpt lat="45.16392" lon="5.94471">
        <ele>2148</ele>
        <time>2022-01-22T12:04:53Z</time>
      </trkpt>
      <trkpt lat="45.16392" lon="5.94467">
        <ele>2148</ele>
        <time>2022-01-22T12:04:54Z</time>
      </trkpt>
      <trkpt lat="45.16392" lon="5.94463">
        <ele>2147</ele>
        <time>2022-01-22T12:04:55Z</time>
      </trkpt>
      <trkpt lat="45.16394" lon="5.94462">
        <ele>2146</ele>
        <time>2022-01-22T12:04:57Z</time>
      </trkpt>
      <trkpt lat="45.16393" lon="5.94464">
        <ele>2145</ele>
        <time>2022-01-22T12:05:06Z</time>
      </trkpt>
      <trkpt lat="45.16391" lon="5.94465">
        <ele>2145</ele>
        <time>2022-01-22T12:05:17Z</time>
      </trkpt>
      <trkpt lat="45.16393" lon="5.94466">
        <ele>2145</ele>
        <time>2022-01-22T12:05:56Z</time>
      </trkpt>
      <trkpt lat="45.16393" lon="5.94469">
        <ele>2145</ele>
        <time>2022-01-22T12:06:07Z</time>
      </trkpt>
      <trkpt lat="45.16395" lon="5.94469">
        <ele>2145</ele>
        <time>2022-01-22T12:06:21Z</time>
      </trkpt>
      <trkpt lat="45.16397" lon="5.94469">
        <ele>2144</ele>
        <time>2022-01-22T12:06:45Z</time>
      </trkpt>
      <trkpt lat="45.16395" lon="5.94468">
        <ele>2144</ele>
        <time>2022-01-22T12:06:51Z</time>
      </trkpt>
      <trkpt lat="45.16394" lon="5.94466">
        <ele>2145</ele>
        <time>2022-01-22T12:08:21Z</time>
      </trkpt>
      <trkpt lat="45.16393" lon="5.94464">
        <ele>2145</ele>
        <time>2022-01-22T12:08:40Z</time>
      </trkpt>
      <trkpt lat="45.16393" lon="5.94461">
        <ele>2145</ele>
        <time>2022-01-22T12:09:28Z</time>
      </trkpt>
      <trkpt lat="45.16393" lon="5.94458">
        <ele>2145</ele>
        <time>2022-01-22T12:09:31Z</time>
      </trkpt>
      <trkpt lat="45.16393" lon="5.9445">
        <ele>2145</ele>
        <time>2022-01-22T12:09:34Z</time>
      </trkpt>
      <trkpt lat="45.16395" lon="5.94441">
        <ele>2143</ele>
        <time>2022-01-22T12:09:36Z</time>
      </trkpt>
      <trkpt lat="45.16394" lon="5.94434">
        <ele>2142</ele>
        <time>2022-01-22T12:09:37Z</time>
      </trkpt>
      <trkpt lat="45.16397" lon="5.94423">
        <ele>2140</ele>
        <time>2022-01-22T12:09:39Z</time>
      </trkpt>
      <trkpt lat="45.16398" lon="5.94411">
        <ele>2137</ele>
        <time>2022-01-22T12:09:41Z</time>
      </trkpt>
      <trkpt lat="45.16399" lon="5.94405">
        <ele>2136</ele>
        <time>2022-01-22T12:09:42Z</time>
      </trkpt>
      <trkpt lat="45.16406" lon="5.94405">
        <ele>2133</ele>
        <time>2022-01-22T12:09:44Z</time>
      </trkpt>
      <trkpt lat="45.16409" lon="5.94406">
        <ele>2132</ele>
        <time>2022-01-22T12:09:45Z</time>
      </trkpt>
      <trkpt lat="45.16413" lon="5.94405">
        <ele>2131</ele>
        <time>2022-01-22T12:09:46Z</time>
      </trkpt>
      <trkpt lat="45.16414" lon="5.94401">
        <ele>2129</ele>
        <time>2022-01-22T12:09:47Z</time>
      </trkpt>
      <trkpt lat="45.16417" lon="5.94398">
        <ele>2128</ele>
        <time>2022-01-22T12:09:48Z</time>
      </trkpt>
      <trkpt lat="45.1642" lon="5.94399">
        <ele>2127</ele>
        <time>2022-01-22T12:09:49Z</time>
      </trkpt>
      <trkpt lat="45.16423" lon="5.94403">
        <ele>2125</ele>
        <time>2022-01-22T12:09:50Z</time>
      </trkpt>
      <trkpt lat="45.16425" lon="5.94407">
        <ele>2124</ele>
        <time>2022-01-22T12:09:51Z</time>
      </trkpt>
      <trkpt lat="45.16428" lon="5.94412">
        <ele>2123</ele>
        <time>2022-01-22T12:09:52Z</time>
      </trkpt>
      <trkpt lat="45.1643" lon="5.94418">
        <ele>2122</ele>
        <time>2022-01-22T12:09:53Z</time>
      </trkpt>
      <trkpt lat="45.16432" lon="5.94423">
        <ele>2119</ele>
        <time>2022-01-22T12:09:54Z</time>
      </trkpt>
      <trkpt lat="45.16435" lon="5.94425">
        <ele>2118</ele>
        <time>2022-01-22T12:09:55Z</time>
      </trkpt>
      <trkpt lat="45.16437" lon="5.94422">
        <ele>2117</ele>
        <time>2022-01-22T12:09:56Z</time>
      </trkpt>
      <trkpt lat="45.16437" lon="5.94418">
        <ele>2116</ele>
        <time>2022-01-22T12:09:57Z</time>
      </trkpt>
      <trkpt lat="45.16437" lon="5.94412">
        <ele>2114</ele>
        <time>2022-01-22T12:09:58Z</time>
      </trkpt>
      <trkpt lat="45.16439" lon="5.94409">
        <ele>2113</ele>
        <time>2022-01-22T12:09:59Z</time>
      </trkpt>
      <trkpt lat="45.16442" lon="5.94409">
        <ele>2111</ele>
        <time>2022-01-22T12:10:00Z</time>
      </trkpt>
      <trkpt lat="45.16446" lon="5.94408">
        <ele>2111</ele>
        <time>2022-01-22T12:10:01Z</time>
      </trkpt>
      <trkpt lat="45.16448" lon="5.94405">
        <ele>2109</ele>
        <time>2022-01-22T12:10:02Z</time>
      </trkpt>
      <trkpt lat="45.16451" lon="5.94397">
        <ele>2107</ele>
        <time>2022-01-22T12:10:04Z</time>
      </trkpt>
      <trkpt lat="45.16453" lon="5.94395">
        <ele>2106</ele>
        <time>2022-01-22T12:10:05Z</time>
      </trkpt>
      <trkpt lat="45.16454" lon="5.94393">
        <ele>2103</ele>
        <time>2022-01-22T12:10:28Z</time>
      </trkpt>
      <trkpt lat="45.16455" lon="5.94388">
        <ele>2103</ele>
        <time>2022-01-22T12:10:30Z</time>
      </trkpt>
      <trkpt lat="45.16455" lon="5.94383">
        <ele>2102</ele>
        <time>2022-01-22T12:10:31Z</time>
      </trkpt>
      <trkpt lat="45.16456" lon="5.94377">
        <ele>2102</ele>
        <time>2022-01-22T12:10:32Z</time>
      </trkpt>
      <trkpt lat="45.16459" lon="5.94372">
        <ele>2100</ele>
        <time>2022-01-22T12:10:33Z</time>
      </trkpt>
      <trkpt lat="45.1646" lon="5.94366">
        <ele>2099</ele>
        <time>2022-01-22T12:10:34Z</time>
      </trkpt>
      <trkpt lat="45.16462" lon="5.94359">
        <ele>2097</ele>
        <time>2022-01-22T12:10:35Z</time>
      </trkpt>
      <trkpt lat="45.16464" lon="5.94352">
        <ele>2096</ele>
        <time>2022-01-22T12:10:36Z</time>
      </trkpt>
      <trkpt lat="45.16465" lon="5.94344">
        <ele>2095</ele>
        <time>2022-01-22T12:10:37Z</time>
      </trkpt>
      <trkpt lat="45.16466" lon="5.94337">
        <ele>2093</ele>
        <time>2022-01-22T12:10:38Z</time>
      </trkpt>
      <trkpt lat="45.16469" lon="5.94331">
        <ele>2091</ele>
        <time>2022-01-22T12:10:39Z</time>
      </trkpt>
      <trkpt lat="45.16473" lon="5.94325">
        <ele>2090</ele>
        <time>2022-01-22T12:10:40Z</time>
      </trkpt>
      <trkpt lat="45.16476" lon="5.9432">
        <ele>2088</ele>
        <time>2022-01-22T12:10:41Z</time>
      </trkpt>
      <trkpt lat="45.16478" lon="5.94314">
        <ele>2087</ele>
        <time>2022-01-22T12:10:42Z</time>
      </trkpt>
      <trkpt lat="45.1648" lon="5.94306">
        <ele>2086</ele>
        <time>2022-01-22T12:10:43Z</time>
      </trkpt>
      <trkpt lat="45.16482" lon="5.94302">
        <ele>2084</ele>
        <time>2022-01-22T12:10:44Z</time>
      </trkpt>
      <trkpt lat="45.16483" lon="5.94296">
        <ele>2082</ele>
        <time>2022-01-22T12:10:45Z</time>
      </trkpt>
      <trkpt lat="45.16484" lon="5.9429">
        <ele>2081</ele>
        <time>2022-01-22T12:10:46Z</time>
      </trkpt>
      <trkpt lat="45.16484" lon="5.94284">
        <ele>2080</ele>
        <time>2022-01-22T12:10:47Z</time>
      </trkpt>
      <trkpt lat="45.16484" lon="5.94278">
        <ele>2079</ele>
        <time>2022-01-22T12:10:48Z</time>
      </trkpt>
      <trkpt lat="45.16484" lon="5.94272">
        <ele>2079</ele>
        <time>2022-01-22T12:10:49Z</time>
      </trkpt>
      <trkpt lat="45.16483" lon="5.94266">
        <ele>2078</ele>
        <time>2022-01-22T12:10:50Z</time>
      </trkpt>
      <trkpt lat="45.16483" lon="5.94261">
        <ele>2077</ele>
        <time>2022-01-22T12:10:51Z</time>
      </trkpt>
      <trkpt lat="45.16482" lon="5.94256">
        <ele>2077</ele>
        <time>2022-01-22T12:10:52Z</time>
      </trkpt>
      <trkpt lat="45.16482" lon="5.9425">
        <ele>2077</ele>
        <time>2022-01-22T12:10:53Z</time>
      </trkpt>
      <trkpt lat="45.16482" lon="5.94244">
        <ele>2076</ele>
        <time>2022-01-22T12:10:54Z</time>
      </trkpt>
      <trkpt lat="45.16482" lon="5.94237">
        <ele>2076</ele>
        <time>2022-01-22T12:10:55Z</time>
      </trkpt>
      <trkpt lat="45.16482" lon="5.94229">
        <ele>2076</ele>
        <time>2022-01-22T12:10:56Z</time>
      </trkpt>
      <trkpt lat="45.16482" lon="5.94221">
        <ele>2075</ele>
        <time>2022-01-22T12:10:57Z</time>
      </trkpt>
      <trkpt lat="45.16483" lon="5.94213">
        <ele>2075</ele>
        <time>2022-01-22T12:10:58Z</time>
      </trkpt>
      <trkpt lat="45.16483" lon="5.94197">
        <ele>2072</ele>
        <time>2022-01-22T12:11:00Z</time>
      </trkpt>
      <trkpt lat="45.16484" lon="5.94189">
        <ele>2072</ele>
        <time>2022-01-22T12:11:01Z</time>
      </trkpt>
      <trkpt lat="45.16485" lon="5.94182">
        <ele>2072</ele>
        <time>2022-01-22T12:11:02Z</time>
      </trkpt>
      <trkpt lat="45.16486" lon="5.94168">
        <ele>2071</ele>
        <time>2022-01-22T12:11:04Z</time>
      </trkpt>
      <trkpt lat="45.16487" lon="5.94161">
        <ele>2071</ele>
        <time>2022-01-22T12:11:05Z</time>
      </trkpt>
      <trkpt lat="45.16489" lon="5.94155">
        <ele>2071</ele>
        <time>2022-01-22T12:11:06Z</time>
      </trkpt>
      <trkpt lat="45.1649" lon="5.94149">
        <ele>2070</ele>
        <time>2022-01-22T12:11:07Z</time>
      </trkpt>
      <trkpt lat="45.16491" lon="5.94143">
        <ele>2069</ele>
        <time>2022-01-22T12:11:08Z</time>
      </trkpt>
      <trkpt lat="45.16492" lon="5.94138">
        <ele>2069</ele>
        <time>2022-01-22T12:11:09Z</time>
      </trkpt>
      <trkpt lat="45.16492" lon="5.94134">
        <ele>2069</ele>
        <time>2022-01-22T12:11:10Z</time>
      </trkpt>
      <trkpt lat="45.16493" lon="5.94129">
        <ele>2069</ele>
        <time>2022-01-22T12:11:11Z</time>
      </trkpt>
      <trkpt lat="45.16493" lon="5.94125">
        <ele>2067</ele>
        <time>2022-01-22T12:11:12Z</time>
      </trkpt>
      <trkpt lat="45.16495" lon="5.94121">
        <ele>2067</ele>
        <time>2022-01-22T12:11:13Z</time>
      </trkpt>
      <trkpt lat="45.16497" lon="5.94119">
        <ele>2067</ele>
        <time>2022-01-22T12:11:14Z</time>
      </trkpt>
      <trkpt lat="45.16499" lon="5.94116">
        <ele>2067</ele>
        <time>2022-01-22T12:11:15Z</time>
      </trkpt>
      <trkpt lat="45.16501" lon="5.94113">
        <ele>2067</ele>
        <time>2022-01-22T12:11:16Z</time>
      </trkpt>
      <trkpt lat="45.16502" lon="5.9411">
        <ele>2067</ele>
        <time>2022-01-22T12:11:17Z</time>
      </trkpt>
      <trkpt lat="45.16507" lon="5.94098">
        <ele>2066</ele>
        <time>2022-01-22T12:11:21Z</time>
      </trkpt>
      <trkpt lat="45.16509" lon="5.94093">
        <ele>2066</ele>
        <time>2022-01-22T12:11:23Z</time>
      </trkpt>
      <trkpt lat="45.16509" lon="5.94091">
        <ele>2066</ele>
        <time>2022-01-22T12:11:24Z</time>
      </trkpt>
      <trkpt lat="45.1651" lon="5.94088">
        <ele>2066</ele>
        <time>2022-01-22T12:11:25Z</time>
      </trkpt>
      <trkpt lat="45.1651" lon="5.94085">
        <ele>2066</ele>
        <time>2022-01-22T12:11:26Z</time>
      </trkpt>
      <trkpt lat="45.16511" lon="5.94082">
        <ele>2066</ele>
        <time>2022-01-22T12:11:27Z</time>
      </trkpt>
      <trkpt lat="45.16512" lon="5.94076">
        <ele>2065</ele>
        <time>2022-01-22T12:11:29Z</time>
      </trkpt>
      <trkpt lat="45.16512" lon="5.9407">
        <ele>2065</ele>
        <time>2022-01-22T12:11:31Z</time>
      </trkpt>
      <trkpt lat="45.16513" lon="5.94067">
        <ele>2065</ele>
        <time>2022-01-22T12:11:32Z</time>
      </trkpt>
      <trkpt lat="45.16513" lon="5.94063">
        <ele>2065</ele>
        <time>2022-01-22T12:11:34Z</time>
      </trkpt>
      <trkpt lat="45.16513" lon="5.94059">
        <ele>2065</ele>
        <time>2022-01-22T12:11:35Z</time>
      </trkpt>
      <trkpt lat="45.16513" lon="5.94056">
        <ele>2065</ele>
        <time>2022-01-22T12:11:36Z</time>
      </trkpt>
      <trkpt lat="45.16513" lon="5.94053">
        <ele>2065</ele>
        <time>2022-01-22T12:11:37Z</time>
      </trkpt>
      <trkpt lat="45.16512" lon="5.94047">
        <ele>2065</ele>
        <time>2022-01-22T12:11:39Z</time>
      </trkpt>
      <trkpt lat="45.16513" lon="5.94043">
        <ele>2064</ele>
        <time>2022-01-22T12:11:41Z</time>
      </trkpt>
      <trkpt lat="45.16513" lon="5.94039">
        <ele>2064</ele>
        <time>2022-01-22T12:11:44Z</time>
      </trkpt>
      <trkpt lat="45.16514" lon="5.94036">
        <ele>2064</ele>
        <time>2022-01-22T12:11:48Z</time>
      </trkpt>
      <trkpt lat="45.16515" lon="5.94033">
        <ele>2064</ele>
        <time>2022-01-22T12:11:52Z</time>
      </trkpt>
      <trkpt lat="45.16516" lon="5.9403">
        <ele>2065</ele>
        <time>2022-01-22T12:11:56Z</time>
      </trkpt>
      <trkpt lat="45.16517" lon="5.94032">
        <ele>2065</ele>
        <time>2022-01-22T12:12:12Z</time>
      </trkpt>
      <trkpt lat="45.16515" lon="5.94031">
        <ele>2065</ele>
        <time>2022-01-22T12:12:42Z</time>
      </trkpt>
      <trkpt lat="45.16514" lon="5.94029">
        <ele>2064</ele>
        <time>2022-01-22T12:13:29Z</time>
      </trkpt>
      <trkpt lat="45.16516" lon="5.9403">
        <ele>2064</ele>
        <time>2022-01-22T12:14:22Z</time>
      </trkpt>
      <trkpt lat="45.16517" lon="5.94031">
        <ele>2064</ele>
        <time>2022-01-22T12:16:41Z</time>
      </trkpt>
      <trkpt lat="45.16518" lon="5.94028">
        <ele>2065</ele>
        <time>2022-01-22T12:16:51Z</time>
      </trkpt>
      <trkpt lat="45.16517" lon="5.94026">
        <ele>2065</ele>
        <time>2022-01-22T12:16:54Z</time>
      </trkpt>
      <trkpt lat="45.16515" lon="5.94023">
        <ele>2066</ele>
        <time>2022-01-22T12:16:57Z</time>
      </trkpt>
      <trkpt lat="45.16513" lon="5.94022">
        <ele>2066</ele>
        <time>2022-01-22T12:16:59Z</time>
      </trkpt>
      <trkpt lat="45.16512" lon="5.9402">
        <ele>2066</ele>
        <time>2022-01-22T12:17:01Z</time>
      </trkpt>
      <trkpt lat="45.1651" lon="5.94019">
        <ele>2067</ele>
        <time>2022-01-22T12:17:04Z</time>
      </trkpt>
      <trkpt lat="45.16508" lon="5.94017">
        <ele>2068</ele>
        <time>2022-01-22T12:17:06Z</time>
      </trkpt>
      <trkpt lat="45.16506" lon="5.94015">
        <ele>2070</ele>
        <time>2022-01-22T12:17:09Z</time>
      </trkpt>
      <trkpt lat="45.16504" lon="5.94014">
        <ele>2070</ele>
        <time>2022-01-22T12:17:12Z</time>
      </trkpt>
      <trkpt lat="45.16502" lon="5.94012">
        <ele>2071</ele>
        <time>2022-01-22T12:17:15Z</time>
      </trkpt>
      <trkpt lat="45.165" lon="5.9401">
        <ele>2072</ele>
        <time>2022-01-22T12:17:19Z</time>
      </trkpt>
      <trkpt lat="45.16499" lon="5.94008">
        <ele>2072</ele>
        <time>2022-01-22T12:17:21Z</time>
      </trkpt>
      <trkpt lat="45.16497" lon="5.94005">
        <ele>2072</ele>
        <time>2022-01-22T12:17:24Z</time>
      </trkpt>
      <trkpt lat="45.16497" lon="5.94002">
        <ele>2074</ele>
        <time>2022-01-22T12:17:27Z</time>
      </trkpt>
      <trkpt lat="45.16496" lon="5.94">
        <ele>2075</ele>
        <time>2022-01-22T12:17:31Z</time>
      </trkpt>
      <trkpt lat="45.16495" lon="5.93998">
        <ele>2075</ele>
        <time>2022-01-22T12:17:34Z</time>
      </trkpt>
      <trkpt lat="45.16494" lon="5.93995">
        <ele>2076</ele>
        <time>2022-01-22T12:17:36Z</time>
      </trkpt>
      <trkpt lat="45.16494" lon="5.93992">
        <ele>2076</ele>
        <time>2022-01-22T12:17:39Z</time>
      </trkpt>
      <trkpt lat="45.16493" lon="5.9399">
        <ele>2077</ele>
        <time>2022-01-22T12:17:42Z</time>
      </trkpt>
      <trkpt lat="45.16492" lon="5.93987">
        <ele>2079</ele>
        <time>2022-01-22T12:17:45Z</time>
      </trkpt>
      <trkpt lat="45.16492" lon="5.93985">
        <ele>2079</ele>
        <time>2022-01-22T12:17:49Z</time>
      </trkpt>
      <trkpt lat="45.16491" lon="5.93982">
        <ele>2079</ele>
        <time>2022-01-22T12:17:51Z</time>
      </trkpt>
      <trkpt lat="45.16491" lon="5.93979">
        <ele>2080</ele>
        <time>2022-01-22T12:17:55Z</time>
      </trkpt>
      <trkpt lat="45.1649" lon="5.93976">
        <ele>2081</ele>
        <time>2022-01-22T12:17:58Z</time>
      </trkpt>
      <trkpt lat="45.1649" lon="5.93974">
        <ele>2083</ele>
        <time>2022-01-22T12:18:01Z</time>
      </trkpt>
      <trkpt lat="45.16489" lon="5.93971">
        <ele>2083</ele>
        <time>2022-01-22T12:18:04Z</time>
      </trkpt>
      <trkpt lat="45.16488" lon="5.93968">
        <ele>2084</ele>
        <time>2022-01-22T12:18:08Z</time>
      </trkpt>
      <trkpt lat="45.16488" lon="5.93965">
        <ele>2085</ele>
        <time>2022-01-22T12:18:12Z</time>
      </trkpt>
      <trkpt lat="45.16487" lon="5.93962">
        <ele>2086</ele>
        <time>2022-01-22T12:18:16Z</time>
      </trkpt>
      <trkpt lat="45.16486" lon="5.9396">
        <ele>2086</ele>
        <time>2022-01-22T12:18:19Z</time>
      </trkpt>
      <trkpt lat="45.16486" lon="5.93957">
        <ele>2086</ele>
        <time>2022-01-22T12:18:22Z</time>
      </trkpt>
      <trkpt lat="45.16485" lon="5.93954">
        <ele>2087</ele>
        <time>2022-01-22T12:18:26Z</time>
      </trkpt>
      <trkpt lat="45.16485" lon="5.93952">
        <ele>2088</ele>
        <time>2022-01-22T12:18:29Z</time>
      </trkpt>
      <trkpt lat="45.16484" lon="5.93949">
        <ele>2089</ele>
        <time>2022-01-22T12:18:32Z</time>
      </trkpt>
      <trkpt lat="45.16484" lon="5.93947">
        <ele>2089</ele>
        <time>2022-01-22T12:18:35Z</time>
      </trkpt>
      <trkpt lat="45.16483" lon="5.93944">
        <ele>2090</ele>
        <time>2022-01-22T12:18:39Z</time>
      </trkpt>
      <trkpt lat="45.16483" lon="5.93941">
        <ele>2091</ele>
        <time>2022-01-22T12:18:42Z</time>
      </trkpt>
      <trkpt lat="45.16483" lon="5.93938">
        <ele>2092</ele>
        <time>2022-01-22T12:18:46Z</time>
      </trkpt>
      <trkpt lat="45.16482" lon="5.93935">
        <ele>2092</ele>
        <time>2022-01-22T12:18:50Z</time>
      </trkpt>
      <trkpt lat="45.1648" lon="5.93936">
        <ele>2093</ele>
        <time>2022-01-22T12:18:58Z</time>
      </trkpt>
      <trkpt lat="45.16478" lon="5.93937">
        <ele>2094</ele>
        <time>2022-01-22T12:19:01Z</time>
      </trkpt>
      <trkpt lat="45.16477" lon="5.93939">
        <ele>2094</ele>
        <time>2022-01-22T12:19:04Z</time>
      </trkpt>
      <trkpt lat="45.16475" lon="5.9394">
        <ele>2094</ele>
        <time>2022-01-22T12:19:07Z</time>
      </trkpt>
      <trkpt lat="45.16473" lon="5.93942">
        <ele>2095</ele>
        <time>2022-01-22T12:19:10Z</time>
      </trkpt>
      <trkpt lat="45.16471" lon="5.93944">
        <ele>2095</ele>
        <time>2022-01-22T12:19:14Z</time>
      </trkpt>
      <trkpt lat="45.16469" lon="5.93945">
        <ele>2096</ele>
        <time>2022-01-22T12:19:17Z</time>
      </trkpt>
      <trkpt lat="45.16468" lon="5.93947">
        <ele>2097</ele>
        <time>2022-01-22T12:19:21Z</time>
      </trkpt>
      <trkpt lat="45.16467" lon="5.93944">
        <ele>2100</ele>
        <time>2022-01-22T12:19:27Z</time>
      </trkpt>
      <trkpt lat="45.16468" lon="5.93941">
        <ele>2100</ele>
        <time>2022-01-22T12:19:30Z</time>
      </trkpt>
      <trkpt lat="45.16468" lon="5.93938">
        <ele>2101</ele>
        <time>2022-01-22T12:19:34Z</time>
      </trkpt>
      <trkpt lat="45.16468" lon="5.93935">
        <ele>2101</ele>
        <time>2022-01-22T12:19:36Z</time>
      </trkpt>
      <trkpt lat="45.16468" lon="5.93932">
        <ele>2102</ele>
        <time>2022-01-22T12:19:39Z</time>
      </trkpt>
      <trkpt lat="45.16469" lon="5.93929">
        <ele>2102</ele>
        <time>2022-01-22T12:19:42Z</time>
      </trkpt>
      <trkpt lat="45.16469" lon="5.93927">
        <ele>2103</ele>
        <time>2022-01-22T12:19:45Z</time>
      </trkpt>
      <trkpt lat="45.16469" lon="5.93923">
        <ele>2103</ele>
        <time>2022-01-22T12:19:49Z</time>
      </trkpt>
      <trkpt lat="45.16469" lon="5.93921">
        <ele>2103</ele>
        <time>2022-01-22T12:19:51Z</time>
      </trkpt>
      <trkpt lat="45.16469" lon="5.93918">
        <ele>2103</ele>
        <time>2022-01-22T12:19:54Z</time>
      </trkpt>
      <trkpt lat="45.16469" lon="5.93915">
        <ele>2104</ele>
        <time>2022-01-22T12:19:57Z</time>
      </trkpt>
      <trkpt lat="45.1647" lon="5.93912">
        <ele>2104</ele>
        <time>2022-01-22T12:20:00Z</time>
      </trkpt>
      <trkpt lat="45.1647" lon="5.93909">
        <ele>2106</ele>
        <time>2022-01-22T12:20:04Z</time>
      </trkpt>
      <trkpt lat="45.16471" lon="5.93907">
        <ele>2106</ele>
        <time>2022-01-22T12:20:06Z</time>
      </trkpt>
      <trkpt lat="45.16469" lon="5.93906">
        <ele>2107</ele>
        <time>2022-01-22T12:20:17Z</time>
      </trkpt>
      <trkpt lat="45.16467" lon="5.93907">
        <ele>2107</ele>
        <time>2022-01-22T12:20:20Z</time>
      </trkpt>
      <trkpt lat="45.16465" lon="5.93908">
        <ele>2108</ele>
        <time>2022-01-22T12:20:24Z</time>
      </trkpt>
      <trkpt lat="45.16463" lon="5.93909">
        <ele>2108</ele>
        <time>2022-01-22T12:20:26Z</time>
      </trkpt>
      <trkpt lat="45.16461" lon="5.9391">
        <ele>2109</ele>
        <time>2022-01-22T12:20:29Z</time>
      </trkpt>
      <trkpt lat="45.16459" lon="5.93911">
        <ele>2110</ele>
        <time>2022-01-22T12:20:32Z</time>
      </trkpt>
      <trkpt lat="45.16457" lon="5.93913">
        <ele>2110</ele>
        <time>2022-01-22T12:20:36Z</time>
      </trkpt>
      <trkpt lat="45.16456" lon="5.93911">
        <ele>2113</ele>
        <time>2022-01-22T12:20:45Z</time>
      </trkpt>
      <trkpt lat="45.16456" lon="5.93908">
        <ele>2113</ele>
        <time>2022-01-22T12:20:49Z</time>
      </trkpt>
      <trkpt lat="45.16456" lon="5.93905">
        <ele>2113</ele>
        <time>2022-01-22T12:20:51Z</time>
      </trkpt>
      <trkpt lat="45.16456" lon="5.93902">
        <ele>2114</ele>
        <time>2022-01-22T12:20:54Z</time>
      </trkpt>
      <trkpt lat="45.16455" lon="5.93898">
        <ele>2115</ele>
        <time>2022-01-22T12:20:58Z</time>
      </trkpt>
      <trkpt lat="45.16455" lon="5.93895">
        <ele>2115</ele>
        <time>2022-01-22T12:21:01Z</time>
      </trkpt>
      <trkpt lat="45.16455" lon="5.93892">
        <ele>2117</ele>
        <time>2022-01-22T12:21:04Z</time>
      </trkpt>
      <trkpt lat="45.16455" lon="5.93889">
        <ele>2117</ele>
        <time>2022-01-22T12:21:07Z</time>
      </trkpt>
      <trkpt lat="45.16455" lon="5.93886">
        <ele>2118</ele>
        <time>2022-01-22T12:21:10Z</time>
      </trkpt>
      <trkpt lat="45.16454" lon="5.93884">
        <ele>2118</ele>
        <time>2022-01-22T12:21:13Z</time>
      </trkpt>
      <trkpt lat="45.16454" lon="5.9388">
        <ele>2119</ele>
        <time>2022-01-22T12:21:17Z</time>
      </trkpt>
      <trkpt lat="45.16454" lon="5.93877">
        <ele>2120</ele>
        <time>2022-01-22T12:21:20Z</time>
      </trkpt>
      <trkpt lat="45.16454" lon="5.93874">
        <ele>2120</ele>
        <time>2022-01-22T12:21:23Z</time>
      </trkpt>
      <trkpt lat="45.16454" lon="5.93871">
        <ele>2121</ele>
        <time>2022-01-22T12:21:26Z</time>
      </trkpt>
      <trkpt lat="45.16454" lon="5.93868">
        <ele>2121</ele>
        <time>2022-01-22T12:21:29Z</time>
      </trkpt>
      <trkpt lat="45.16454" lon="5.93864">
        <ele>2122</ele>
        <time>2022-01-22T12:21:32Z</time>
      </trkpt>
      <trkpt lat="45.16454" lon="5.9386">
        <ele>2122</ele>
        <time>2022-01-22T12:21:35Z</time>
      </trkpt>
      <trkpt lat="45.16454" lon="5.93857">
        <ele>2123</ele>
        <time>2022-01-22T12:21:38Z</time>
      </trkpt>
      <trkpt lat="45.16454" lon="5.93854">
        <ele>2123</ele>
        <time>2022-01-22T12:21:41Z</time>
      </trkpt>
      <trkpt lat="45.16455" lon="5.93851">
        <ele>2125</ele>
        <time>2022-01-22T12:21:44Z</time>
      </trkpt>
      <trkpt lat="45.16455" lon="5.93847">
        <ele>2125</ele>
        <time>2022-01-22T12:21:47Z</time>
      </trkpt>
      <trkpt lat="45.16455" lon="5.93844">
        <ele>2125</ele>
        <time>2022-01-22T12:21:50Z</time>
      </trkpt>
      <trkpt lat="45.16456" lon="5.93841">
        <ele>2126</ele>
        <time>2022-01-22T12:21:53Z</time>
      </trkpt>
      <trkpt lat="45.16456" lon="5.93838">
        <ele>2126</ele>
        <time>2022-01-22T12:21:56Z</time>
      </trkpt>
      <trkpt lat="45.16457" lon="5.93835">
        <ele>2128</ele>
        <time>2022-01-22T12:21:59Z</time>
      </trkpt>
      <trkpt lat="45.16457" lon="5.93832">
        <ele>2128</ele>
        <time>2022-01-22T12:22:02Z</time>
      </trkpt>
      <trkpt lat="45.16458" lon="5.93829">
        <ele>2128</ele>
        <time>2022-01-22T12:22:05Z</time>
      </trkpt>
      <trkpt lat="45.16458" lon="5.93826">
        <ele>2129</ele>
        <time>2022-01-22T12:22:09Z</time>
      </trkpt>
      <trkpt lat="45.16459" lon="5.93824">
        <ele>2129</ele>
        <time>2022-01-22T12:22:11Z</time>
      </trkpt>
      <trkpt lat="45.1646" lon="5.93821">
        <ele>2129</ele>
        <time>2022-01-22T12:22:14Z</time>
      </trkpt>
      <trkpt lat="45.16461" lon="5.93818">
        <ele>2129</ele>
        <time>2022-01-22T12:22:17Z</time>
      </trkpt>
      <trkpt lat="45.16462" lon="5.93816">
        <ele>2130</ele>
        <time>2022-01-22T12:22:20Z</time>
      </trkpt>
      <trkpt lat="45.16463" lon="5.93812">
        <ele>2131</ele>
        <time>2022-01-22T12:22:23Z</time>
      </trkpt>
      <trkpt lat="45.16463" lon="5.93809">
        <ele>2132</ele>
        <time>2022-01-22T12:22:26Z</time>
      </trkpt>
      <trkpt lat="45.16464" lon="5.93806">
        <ele>2132</ele>
        <time>2022-01-22T12:22:29Z</time>
      </trkpt>
      <trkpt lat="45.16465" lon="5.93804">
        <ele>2133</ele>
        <time>2022-01-22T12:22:32Z</time>
      </trkpt>
      <trkpt lat="45.16466" lon="5.93801">
        <ele>2133</ele>
        <time>2022-01-22T12:22:36Z</time>
      </trkpt>
      <trkpt lat="45.16467" lon="5.93798">
        <ele>2133</ele>
        <time>2022-01-22T12:22:39Z</time>
      </trkpt>
      <trkpt lat="45.16467" lon="5.93795">
        <ele>2133</ele>
        <time>2022-01-22T12:22:42Z</time>
      </trkpt>
      <trkpt lat="45.16468" lon="5.93793">
        <ele>2134</ele>
        <time>2022-01-22T12:22:45Z</time>
      </trkpt>
      <trkpt lat="45.16469" lon="5.9379">
        <ele>2135</ele>
        <time>2022-01-22T12:22:48Z</time>
      </trkpt>
      <trkpt lat="45.16469" lon="5.93787">
        <ele>2135</ele>
        <time>2022-01-22T12:22:51Z</time>
      </trkpt>
      <trkpt lat="45.1647" lon="5.93784">
        <ele>2136</ele>
        <time>2022-01-22T12:22:54Z</time>
      </trkpt>
      <trkpt lat="45.1647" lon="5.9378">
        <ele>2136</ele>
        <time>2022-01-22T12:22:57Z</time>
      </trkpt>
      <trkpt lat="45.1647" lon="5.93777">
        <ele>2137</ele>
        <time>2022-01-22T12:23:00Z</time>
      </trkpt>
      <trkpt lat="45.16471" lon="5.93774">
        <ele>2137</ele>
        <time>2022-01-22T12:23:03Z</time>
      </trkpt>
      <trkpt lat="45.16472" lon="5.93771">
        <ele>2138</ele>
        <time>2022-01-22T12:23:07Z</time>
      </trkpt>
      <trkpt lat="45.16473" lon="5.93769">
        <ele>2138</ele>
        <time>2022-01-22T12:23:10Z</time>
      </trkpt>
      <trkpt lat="45.16473" lon="5.93766">
        <ele>2139</ele>
        <time>2022-01-22T12:23:13Z</time>
      </trkpt>
      <trkpt lat="45.16474" lon="5.93763">
        <ele>2140</ele>
        <time>2022-01-22T12:23:16Z</time>
      </trkpt>
      <trkpt lat="45.16475" lon="5.9376">
        <ele>2141</ele>
        <time>2022-01-22T12:23:20Z</time>
      </trkpt>
      <trkpt lat="45.16475" lon="5.93757">
        <ele>2141</ele>
        <time>2022-01-22T12:23:23Z</time>
      </trkpt>
      <trkpt lat="45.16476" lon="5.93754">
        <ele>2142</ele>
        <time>2022-01-22T12:23:26Z</time>
      </trkpt>
      <trkpt lat="45.16476" lon="5.93752">
        <ele>2142</ele>
        <time>2022-01-22T12:23:29Z</time>
      </trkpt>
      <trkpt lat="45.16475" lon="5.93749">
        <ele>2142</ele>
        <time>2022-01-22T12:23:54Z</time>
      </trkpt>
      <trkpt lat="45.16474" lon="5.93746">
        <ele>2143</ele>
        <time>2022-01-22T12:25:13Z</time>
      </trkpt>
      <trkpt lat="45.16474" lon="5.93743">
        <ele>2144</ele>
        <time>2022-01-22T12:25:16Z</time>
      </trkpt>
      <trkpt lat="45.16474" lon="5.93739">
        <ele>2144</ele>
        <time>2022-01-22T12:25:19Z</time>
      </trkpt>
      <trkpt lat="45.16474" lon="5.93736">
        <ele>2145</ele>
        <time>2022-01-22T12:25:22Z</time>
      </trkpt>
      <trkpt lat="45.16474" lon="5.93733">
        <ele>2146</ele>
        <time>2022-01-22T12:25:25Z</time>
      </trkpt>
      <trkpt lat="45.16475" lon="5.9373">
        <ele>2146</ele>
        <time>2022-01-22T12:25:27Z</time>
      </trkpt>
      <trkpt lat="45.16475" lon="5.93727">
        <ele>2147</ele>
        <time>2022-01-22T12:25:30Z</time>
      </trkpt>
      <trkpt lat="45.16476" lon="5.93724">
        <ele>2147</ele>
        <time>2022-01-22T12:25:32Z</time>
      </trkpt>
      <trkpt lat="45.16477" lon="5.93721">
        <ele>2147</ele>
        <time>2022-01-22T12:25:35Z</time>
      </trkpt>
      <trkpt lat="45.16478" lon="5.93718">
        <ele>2148</ele>
        <time>2022-01-22T12:25:38Z</time>
      </trkpt>
      <trkpt lat="45.16478" lon="5.93715">
        <ele>2148</ele>
        <time>2022-01-22T12:25:42Z</time>
      </trkpt>
      <trkpt lat="45.16478" lon="5.93712">
        <ele>2148</ele>
        <time>2022-01-22T12:25:45Z</time>
      </trkpt>
      <trkpt lat="45.16478" lon="5.93709">
        <ele>2149</ele>
        <time>2022-01-22T12:25:48Z</time>
      </trkpt>
      <trkpt lat="45.16479" lon="5.93706">
        <ele>2149</ele>
        <time>2022-01-22T12:25:51Z</time>
      </trkpt>
      <trkpt lat="45.16479" lon="5.93703">
        <ele>2151</ele>
        <time>2022-01-22T12:25:54Z</time>
      </trkpt>
      <trkpt lat="45.16479" lon="5.93699">
        <ele>2152</ele>
        <time>2022-01-22T12:25:57Z</time>
      </trkpt>
      <trkpt lat="45.16479" lon="5.93696">
        <ele>2152</ele>
        <time>2022-01-22T12:26:00Z</time>
      </trkpt>
      <trkpt lat="45.1648" lon="5.93693">
        <ele>2153</ele>
        <time>2022-01-22T12:26:04Z</time>
      </trkpt>
      <trkpt lat="45.1648" lon="5.9369">
        <ele>2153</ele>
        <time>2022-01-22T12:26:07Z</time>
      </trkpt>
      <trkpt lat="45.16481" lon="5.93687">
        <ele>2154</ele>
        <time>2022-01-22T12:26:11Z</time>
      </trkpt>
      <trkpt lat="45.16481" lon="5.93684">
        <ele>2155</ele>
        <time>2022-01-22T12:26:15Z</time>
      </trkpt>
      <trkpt lat="45.16481" lon="5.93681">
        <ele>2156</ele>
        <time>2022-01-22T12:26:19Z</time>
      </trkpt>
      <trkpt lat="45.16481" lon="5.93678">
        <ele>2157</ele>
        <time>2022-01-22T12:26:24Z</time>
      </trkpt>
      <trkpt lat="45.16482" lon="5.93675">
        <ele>2157</ele>
        <time>2022-01-22T12:26:26Z</time>
      </trkpt>
      <trkpt lat="45.16482" lon="5.93672">
        <ele>2158</ele>
        <time>2022-01-22T12:26:30Z</time>
      </trkpt>
      <trkpt lat="45.16483" lon="5.93669">
        <ele>2159</ele>
        <time>2022-01-22T12:26:34Z</time>
      </trkpt>
      <trkpt lat="45.16483" lon="5.93666">
        <ele>2159</ele>
        <time>2022-01-22T12:26:39Z</time>
      </trkpt>
      <trkpt lat="45.16484" lon="5.93663">
        <ele>2160</ele>
        <time>2022-01-22T12:26:42Z</time>
      </trkpt>
      <trkpt lat="45.16484" lon="5.9366">
        <ele>2160</ele>
        <time>2022-01-22T12:26:45Z</time>
      </trkpt>
      <trkpt lat="45.16485" lon="5.93657">
        <ele>2162</ele>
        <time>2022-01-22T12:26:49Z</time>
      </trkpt>
      <trkpt lat="45.16486" lon="5.93654">
        <ele>2162</ele>
        <time>2022-01-22T12:26:52Z</time>
      </trkpt>
      <trkpt lat="45.16486" lon="5.93652">
        <ele>2162</ele>
        <time>2022-01-22T12:26:55Z</time>
      </trkpt>
      <trkpt lat="45.16486" lon="5.93648">
        <ele>2163</ele>
        <time>2022-01-22T12:26:59Z</time>
      </trkpt>
      <trkpt lat="45.16487" lon="5.93645">
        <ele>2164</ele>
        <time>2022-01-22T12:27:04Z</time>
      </trkpt>
      <trkpt lat="45.16487" lon="5.93643">
        <ele>2164</ele>
        <time>2022-01-22T12:27:06Z</time>
      </trkpt>
      <trkpt lat="45.16488" lon="5.9364">
        <ele>2165</ele>
        <time>2022-01-22T12:27:09Z</time>
      </trkpt>
      <trkpt lat="45.16489" lon="5.93637">
        <ele>2167</ele>
        <time>2022-01-22T12:27:14Z</time>
      </trkpt>
      <trkpt lat="45.16489" lon="5.93634">
        <ele>2167</ele>
        <time>2022-01-22T12:27:17Z</time>
      </trkpt>
      <trkpt lat="45.16489" lon="5.93631">
        <ele>2167</ele>
        <time>2022-01-22T12:27:21Z</time>
      </trkpt>
      <trkpt lat="45.16489" lon="5.93628">
        <ele>2167</ele>
        <time>2022-01-22T12:27:24Z</time>
      </trkpt>
      <trkpt lat="45.16489" lon="5.93626">
        <ele>2168</ele>
        <time>2022-01-22T12:27:27Z</time>
      </trkpt>
      <trkpt lat="45.1649" lon="5.93623">
        <ele>2170</ele>
        <time>2022-01-22T12:27:30Z</time>
      </trkpt>
      <trkpt lat="45.16491" lon="5.9362">
        <ele>2170</ele>
        <time>2022-01-22T12:27:33Z</time>
      </trkpt>
      <trkpt lat="45.16491" lon="5.93617">
        <ele>2170</ele>
        <time>2022-01-22T12:27:37Z</time>
      </trkpt>
      <trkpt lat="45.16492" lon="5.93613">
        <ele>2170</ele>
        <time>2022-01-22T12:27:41Z</time>
      </trkpt>
      <trkpt lat="45.16492" lon="5.9361">
        <ele>2171</ele>
        <time>2022-01-22T12:27:45Z</time>
      </trkpt>
      <trkpt lat="45.16493" lon="5.93608">
        <ele>2172</ele>
        <time>2022-01-22T12:27:48Z</time>
      </trkpt>
      <trkpt lat="45.16493" lon="5.93605">
        <ele>2172</ele>
        <time>2022-01-22T12:27:51Z</time>
      </trkpt>
      <trkpt lat="45.16494" lon="5.93602">
        <ele>2172</ele>
        <time>2022-01-22T12:27:54Z</time>
      </trkpt>
      <trkpt lat="45.16496" lon="5.93599">
        <ele>2174</ele>
        <time>2022-01-22T12:27:57Z</time>
      </trkpt>
      <trkpt lat="45.16496" lon="5.93596">
        <ele>2174</ele>
        <time>2022-01-22T12:28:01Z</time>
      </trkpt>
      <trkpt lat="45.16497" lon="5.93593">
        <ele>2175</ele>
        <time>2022-01-22T12:28:05Z</time>
      </trkpt>
      <trkpt lat="45.16498" lon="5.9359">
        <ele>2177</ele>
        <time>2022-01-22T12:28:10Z</time>
      </trkpt>
      <trkpt lat="45.165" lon="5.93588">
        <ele>2178</ele>
        <time>2022-01-22T12:28:13Z</time>
      </trkpt>
      <trkpt lat="45.16501" lon="5.93586">
        <ele>2178</ele>
        <time>2022-01-22T12:28:17Z</time>
      </trkpt>
      <trkpt lat="45.16502" lon="5.93584">
        <ele>2179</ele>
        <time>2022-01-22T12:28:20Z</time>
      </trkpt>
      <trkpt lat="45.16504" lon="5.93582">
        <ele>2180</ele>
        <time>2022-01-22T12:28:24Z</time>
      </trkpt>
      <trkpt lat="45.16505" lon="5.9358">
        <ele>2180</ele>
        <time>2022-01-22T12:28:27Z</time>
      </trkpt>
      <trkpt lat="45.16506" lon="5.93578">
        <ele>2181</ele>
        <time>2022-01-22T12:28:31Z</time>
      </trkpt>
      <trkpt lat="45.16508" lon="5.93576">
        <ele>2182</ele>
        <time>2022-01-22T12:28:35Z</time>
      </trkpt>
      <trkpt lat="45.1651" lon="5.93573">
        <ele>2183</ele>
        <time>2022-01-22T12:28:39Z</time>
      </trkpt>
      <trkpt lat="45.16512" lon="5.93572">
        <ele>2183</ele>
        <time>2022-01-22T12:28:42Z</time>
      </trkpt>
      <trkpt lat="45.16513" lon="5.9357">
        <ele>2183</ele>
        <time>2022-01-22T12:28:46Z</time>
      </trkpt>
      <trkpt lat="45.16515" lon="5.93568">
        <ele>2184</ele>
        <time>2022-01-22T12:28:49Z</time>
      </trkpt>
      <trkpt lat="45.16517" lon="5.93566">
        <ele>2185</ele>
        <time>2022-01-22T12:28:52Z</time>
      </trkpt>
      <trkpt lat="45.16518" lon="5.93563">
        <ele>2185</ele>
        <time>2022-01-22T12:28:56Z</time>
      </trkpt>
      <trkpt lat="45.16517" lon="5.93561">
        <ele>2187</ele>
        <time>2022-01-22T12:28:59Z</time>
      </trkpt>
      <trkpt lat="45.16517" lon="5.93557">
        <ele>2188</ele>
        <time>2022-01-22T12:29:02Z</time>
      </trkpt>
      <trkpt lat="45.16517" lon="5.93554">
        <ele>2188</ele>
        <time>2022-01-22T12:29:05Z</time>
      </trkpt>
      <trkpt lat="45.16517" lon="5.93551">
        <ele>2188</ele>
        <time>2022-01-22T12:29:09Z</time>
      </trkpt>
      <trkpt lat="45.16517" lon="5.93548">
        <ele>2189</ele>
        <time>2022-01-22T12:29:11Z</time>
      </trkpt>
      <trkpt lat="45.16516" lon="5.93545">
        <ele>2189</ele>
        <time>2022-01-22T12:29:14Z</time>
      </trkpt>
      <trkpt lat="45.16515" lon="5.93543">
        <ele>2190</ele>
        <time>2022-01-22T12:29:17Z</time>
      </trkpt>
      <trkpt lat="45.16514" lon="5.9354">
        <ele>2190</ele>
        <time>2022-01-22T12:29:20Z</time>
      </trkpt>
      <trkpt lat="45.16513" lon="5.93538">
        <ele>2191</ele>
        <time>2022-01-22T12:29:24Z</time>
      </trkpt>
      <trkpt lat="45.16512" lon="5.93537">
        <ele>2192</ele>
        <time>2022-01-22T12:29:26Z</time>
      </trkpt>
      <trkpt lat="45.1651" lon="5.93534">
        <ele>2192</ele>
        <time>2022-01-22T12:29:29Z</time>
      </trkpt>
      <trkpt lat="45.16509" lon="5.93532">
        <ele>2192</ele>
        <time>2022-01-22T12:29:33Z</time>
      </trkpt>
      <trkpt lat="45.16508" lon="5.9353">
        <ele>2193</ele>
        <time>2022-01-22T12:29:35Z</time>
      </trkpt>
      <trkpt lat="45.16506" lon="5.93527">
        <ele>2194</ele>
        <time>2022-01-22T12:29:39Z</time>
      </trkpt>
      <trkpt lat="45.16506" lon="5.93524">
        <ele>2194</ele>
        <time>2022-01-22T12:29:41Z</time>
      </trkpt>
      <trkpt lat="45.16506" lon="5.93521">
        <ele>2194</ele>
        <time>2022-01-22T12:29:44Z</time>
      </trkpt>
      <trkpt lat="45.16508" lon="5.93518">
        <ele>2195</ele>
        <time>2022-01-22T12:29:48Z</time>
      </trkpt>
      <trkpt lat="45.16509" lon="5.93517">
        <ele>2195</ele>
        <time>2022-01-22T12:29:52Z</time>
      </trkpt>
      <trkpt lat="45.16511" lon="5.93516">
        <ele>2195</ele>
        <time>2022-01-22T12:29:54Z</time>
      </trkpt>
      <trkpt lat="45.16513" lon="5.93516">
        <ele>2196</ele>
        <time>2022-01-22T12:29:57Z</time>
      </trkpt>
      <trkpt lat="45.16515" lon="5.93515">
        <ele>2197</ele>
        <time>2022-01-22T12:30:00Z</time>
      </trkpt>
      <trkpt lat="45.16517" lon="5.93515">
        <ele>2197</ele>
        <time>2022-01-22T12:30:03Z</time>
      </trkpt>
      <trkpt lat="45.16519" lon="5.93514">
        <ele>2197</ele>
        <time>2022-01-22T12:30:06Z</time>
      </trkpt>
      <trkpt lat="45.16521" lon="5.93514">
        <ele>2199</ele>
        <time>2022-01-22T12:30:09Z</time>
      </trkpt>
      <trkpt lat="45.16523" lon="5.93514">
        <ele>2199</ele>
        <time>2022-01-22T12:30:12Z</time>
      </trkpt>
      <trkpt lat="45.16525" lon="5.93515">
        <ele>2199</ele>
        <time>2022-01-22T12:30:16Z</time>
      </trkpt>
      <trkpt lat="45.16524" lon="5.93513">
        <ele>2200</ele>
        <time>2022-01-22T12:30:28Z</time>
      </trkpt>
      <trkpt lat="45.16522" lon="5.93511">
        <ele>2200</ele>
        <time>2022-01-22T12:30:31Z</time>
      </trkpt>
      <trkpt lat="45.16521" lon="5.93509">
        <ele>2200</ele>
        <time>2022-01-22T12:30:34Z</time>
      </trkpt>
      <trkpt lat="45.1652" lon="5.93506">
        <ele>2201</ele>
        <time>2022-01-22T12:30:37Z</time>
      </trkpt>
      <trkpt lat="45.16519" lon="5.93504">
        <ele>2202</ele>
        <time>2022-01-22T12:30:42Z</time>
      </trkpt>
      <trkpt lat="45.16518" lon="5.93501">
        <ele>2202</ele>
        <time>2022-01-22T12:30:45Z</time>
      </trkpt>
      <trkpt lat="45.16517" lon="5.93498">
        <ele>2203</ele>
        <time>2022-01-22T12:30:48Z</time>
      </trkpt>
      <trkpt lat="45.16517" lon="5.93496">
        <ele>2204</ele>
        <time>2022-01-22T12:30:52Z</time>
      </trkpt>
      <trkpt lat="45.16518" lon="5.93497">
        <ele>2205</ele>
        <time>2022-01-22T12:31:00Z</time>
      </trkpt>
      <trkpt lat="45.1652" lon="5.93498">
        <ele>2205</ele>
        <time>2022-01-22T12:31:03Z</time>
      </trkpt>
      <trkpt lat="45.16522" lon="5.93499">
        <ele>2205</ele>
        <time>2022-01-22T12:31:06Z</time>
      </trkpt>
      <trkpt lat="45.16524" lon="5.935">
        <ele>2207</ele>
        <time>2022-01-22T12:31:09Z</time>
      </trkpt>
      <trkpt lat="45.16523" lon="5.93498">
        <ele>2208</ele>
        <time>2022-01-22T12:31:22Z</time>
      </trkpt>
      <trkpt lat="45.16522" lon="5.93495">
        <ele>2208</ele>
        <time>2022-01-22T12:31:25Z</time>
      </trkpt>
      <trkpt lat="45.16521" lon="5.93492">
        <ele>2209</ele>
        <time>2022-01-22T12:31:29Z</time>
      </trkpt>
      <trkpt lat="45.16519" lon="5.9349">
        <ele>2209</ele>
        <time>2022-01-22T12:31:31Z</time>
      </trkpt>
      <trkpt lat="45.16518" lon="5.93488">
        <ele>2209</ele>
        <time>2022-01-22T12:31:35Z</time>
      </trkpt>
      <trkpt lat="45.16516" lon="5.93487">
        <ele>2209</ele>
        <time>2022-01-22T12:31:39Z</time>
      </trkpt>
      <trkpt lat="45.16514" lon="5.93485">
        <ele>2210</ele>
        <time>2022-01-22T12:31:43Z</time>
      </trkpt>
      <trkpt lat="45.16513" lon="5.93484">
        <ele>2210</ele>
        <time>2022-01-22T12:31:46Z</time>
      </trkpt>
      <trkpt lat="45.16511" lon="5.93481">
        <ele>2211</ele>
        <time>2022-01-22T12:31:49Z</time>
      </trkpt>
      <trkpt lat="45.16509" lon="5.93479">
        <ele>2211</ele>
        <time>2022-01-22T12:31:52Z</time>
      </trkpt>
      <trkpt lat="45.16508" lon="5.93477">
        <ele>2212</ele>
        <time>2022-01-22T12:31:55Z</time>
      </trkpt>
      <trkpt lat="45.16506" lon="5.93474">
        <ele>2212</ele>
        <time>2022-01-22T12:31:58Z</time>
      </trkpt>
      <trkpt lat="45.16504" lon="5.93473">
        <ele>2213</ele>
        <time>2022-01-22T12:32:01Z</time>
      </trkpt>
      <trkpt lat="45.16502" lon="5.93472">
        <ele>2213</ele>
        <time>2022-01-22T12:32:04Z</time>
      </trkpt>
      <trkpt lat="45.16501" lon="5.9347">
        <ele>2213</ele>
        <time>2022-01-22T12:32:08Z</time>
      </trkpt>
      <trkpt lat="45.16499" lon="5.93469">
        <ele>2215</ele>
        <time>2022-01-22T12:32:11Z</time>
      </trkpt>
      <trkpt lat="45.16497" lon="5.93468">
        <ele>2215</ele>
        <time>2022-01-22T12:32:14Z</time>
      </trkpt>
      <trkpt lat="45.16495" lon="5.93466">
        <ele>2215</ele>
        <time>2022-01-22T12:32:18Z</time>
      </trkpt>
      <trkpt lat="45.16493" lon="5.93464">
        <ele>2217</ele>
        <time>2022-01-22T12:32:22Z</time>
      </trkpt>
      <trkpt lat="45.16492" lon="5.93461">
        <ele>2217</ele>
        <time>2022-01-22T12:32:25Z</time>
      </trkpt>
      <trkpt lat="45.1649" lon="5.93459">
        <ele>2218</ele>
        <time>2022-01-22T12:32:28Z</time>
      </trkpt>
      <trkpt lat="45.16489" lon="5.93457">
        <ele>2219</ele>
        <time>2022-01-22T12:32:31Z</time>
      </trkpt>
      <trkpt lat="45.16487" lon="5.93455">
        <ele>2219</ele>
        <time>2022-01-22T12:32:34Z</time>
      </trkpt>
      <trkpt lat="45.16486" lon="5.93452">
        <ele>2219</ele>
        <time>2022-01-22T12:32:37Z</time>
      </trkpt>
      <trkpt lat="45.16485" lon="5.9345">
        <ele>2220</ele>
        <time>2022-01-22T12:32:40Z</time>
      </trkpt>
      <trkpt lat="45.16483" lon="5.93448">
        <ele>2220</ele>
        <time>2022-01-22T12:32:43Z</time>
      </trkpt>
      <trkpt lat="45.16482" lon="5.93446">
        <ele>2221</ele>
        <time>2022-01-22T12:32:46Z</time>
      </trkpt>
      <trkpt lat="45.1648" lon="5.93444">
        <ele>2221</ele>
        <time>2022-01-22T12:32:49Z</time>
      </trkpt>
      <trkpt lat="45.16479" lon="5.93441">
        <ele>2223</ele>
        <time>2022-01-22T12:32:52Z</time>
      </trkpt>
      <trkpt lat="45.16478" lon="5.93439">
        <ele>2223</ele>
        <time>2022-01-22T12:32:56Z</time>
      </trkpt>
      <trkpt lat="45.16477" lon="5.93437">
        <ele>2223</ele>
        <time>2022-01-22T12:32:59Z</time>
      </trkpt>
      <trkpt lat="45.16476" lon="5.93434">
        <ele>2225</ele>
        <time>2022-01-22T12:33:02Z</time>
      </trkpt>
      <trkpt lat="45.16474" lon="5.93432">
        <ele>2225</ele>
        <time>2022-01-22T12:33:05Z</time>
      </trkpt>
      <trkpt lat="45.16473" lon="5.9343">
        <ele>2225</ele>
        <time>2022-01-22T12:33:09Z</time>
      </trkpt>
      <trkpt lat="45.16472" lon="5.93427">
        <ele>2226</ele>
        <time>2022-01-22T12:33:12Z</time>
      </trkpt>
      <trkpt lat="45.16471" lon="5.93424">
        <ele>2227</ele>
        <time>2022-01-22T12:33:15Z</time>
      </trkpt>
      <trkpt lat="45.1647" lon="5.93422">
        <ele>2228</ele>
        <time>2022-01-22T12:33:19Z</time>
      </trkpt>
      <trkpt lat="45.16469" lon="5.93419">
        <ele>2228</ele>
        <time>2022-01-22T12:33:22Z</time>
      </trkpt>
      <trkpt lat="45.16468" lon="5.93416">
        <ele>2228</ele>
        <time>2022-01-22T12:33:25Z</time>
      </trkpt>
      <trkpt lat="45.16467" lon="5.93413">
        <ele>2230</ele>
        <time>2022-01-22T12:33:29Z</time>
      </trkpt>
      <trkpt lat="45.16467" lon="5.9341">
        <ele>2230</ele>
        <time>2022-01-22T12:33:31Z</time>
      </trkpt>
      <trkpt lat="45.16467" lon="5.93407">
        <ele>2230</ele>
        <time>2022-01-22T12:33:34Z</time>
      </trkpt>
      <trkpt lat="45.16465" lon="5.93405">
        <ele>2231</ele>
        <time>2022-01-22T12:33:38Z</time>
      </trkpt>
      <trkpt lat="45.16464" lon="5.93403">
        <ele>2231</ele>
        <time>2022-01-22T12:33:40Z</time>
      </trkpt>
      <trkpt lat="45.16462" lon="5.934">
        <ele>2232</ele>
        <time>2022-01-22T12:33:44Z</time>
      </trkpt>
      <trkpt lat="45.16461" lon="5.93398">
        <ele>2232</ele>
        <time>2022-01-22T12:33:46Z</time>
      </trkpt>
      <trkpt lat="45.16459" lon="5.93396">
        <ele>2232</ele>
        <time>2022-01-22T12:33:49Z</time>
      </trkpt>
      <trkpt lat="45.16457" lon="5.93394">
        <ele>2233</ele>
        <time>2022-01-22T12:33:53Z</time>
      </trkpt>
      <trkpt lat="45.16455" lon="5.93392">
        <ele>2233</ele>
        <time>2022-01-22T12:33:55Z</time>
      </trkpt>
      <trkpt lat="45.16453" lon="5.9339">
        <ele>2233</ele>
        <time>2022-01-22T12:33:58Z</time>
      </trkpt>
      <trkpt lat="45.16451" lon="5.93388">
        <ele>2234</ele>
        <time>2022-01-22T12:34:01Z</time>
      </trkpt>
      <trkpt lat="45.16449" lon="5.93387">
        <ele>2235</ele>
        <time>2022-01-22T12:34:04Z</time>
      </trkpt>
      <trkpt lat="45.16448" lon="5.93384">
        <ele>2235</ele>
        <time>2022-01-22T12:34:08Z</time>
      </trkpt>
      <trkpt lat="45.16447" lon="5.93382">
        <ele>2236</ele>
        <time>2022-01-22T12:34:10Z</time>
      </trkpt>
      <trkpt lat="45.16445" lon="5.9338">
        <ele>2236</ele>
        <time>2022-01-22T12:34:13Z</time>
      </trkpt>
      <trkpt lat="45.16444" lon="5.93378">
        <ele>2238</ele>
        <time>2022-01-22T12:34:16Z</time>
      </trkpt>
      <trkpt lat="45.16442" lon="5.93376">
        <ele>2238</ele>
        <time>2022-01-22T12:34:19Z</time>
      </trkpt>
      <trkpt lat="45.16441" lon="5.93373">
        <ele>2239</ele>
        <time>2022-01-22T12:34:22Z</time>
      </trkpt>
      <trkpt lat="45.1644" lon="5.93371">
        <ele>2240</ele>
        <time>2022-01-22T12:34:26Z</time>
      </trkpt>
      <trkpt lat="45.16438" lon="5.93369">
        <ele>2240</ele>
        <time>2022-01-22T12:34:28Z</time>
      </trkpt>
      <trkpt lat="45.16437" lon="5.93366">
        <ele>2239</ele>
        <time>2022-01-22T12:34:31Z</time>
      </trkpt>
      <trkpt lat="45.16436" lon="5.93364">
        <ele>2239</ele>
        <time>2022-01-22T12:34:34Z</time>
      </trkpt>
      <trkpt lat="45.16434" lon="5.93362">
        <ele>2240</ele>
        <time>2022-01-22T12:34:37Z</time>
      </trkpt>
      <trkpt lat="45.16433" lon="5.9336">
        <ele>2241</ele>
        <time>2022-01-22T12:34:40Z</time>
      </trkpt>
      <trkpt lat="45.16431" lon="5.93358">
        <ele>2241</ele>
        <time>2022-01-22T12:34:44Z</time>
      </trkpt>
      <trkpt lat="45.16429" lon="5.93356">
        <ele>2241</ele>
        <time>2022-01-22T12:34:47Z</time>
      </trkpt>
      <trkpt lat="45.16428" lon="5.93354">
        <ele>2241</ele>
        <time>2022-01-22T12:34:49Z</time>
      </trkpt>
      <trkpt lat="45.16427" lon="5.93352">
        <ele>2241</ele>
        <time>2022-01-22T12:34:52Z</time>
      </trkpt>
      <trkpt lat="45.16426" lon="5.9335">
        <ele>2242</ele>
        <time>2022-01-22T12:34:56Z</time>
      </trkpt>
      <trkpt lat="45.16425" lon="5.93348">
        <ele>2242</ele>
        <time>2022-01-22T12:34:59Z</time>
      </trkpt>
      <trkpt lat="45.16423" lon="5.93346">
        <ele>2242</ele>
        <time>2022-01-22T12:35:01Z</time>
      </trkpt>
      <trkpt lat="45.16422" lon="5.93343">
        <ele>2243</ele>
        <time>2022-01-22T12:35:04Z</time>
      </trkpt>
      <trkpt lat="45.16421" lon="5.93341">
        <ele>2243</ele>
        <time>2022-01-22T12:35:07Z</time>
      </trkpt>
      <trkpt lat="45.1642" lon="5.93339">
        <ele>2243</ele>
        <time>2022-01-22T12:35:10Z</time>
      </trkpt>
      <trkpt lat="45.16418" lon="5.93336">
        <ele>2244</ele>
        <time>2022-01-22T12:35:14Z</time>
      </trkpt>
      <trkpt lat="45.16418" lon="5.93333">
        <ele>2245</ele>
        <time>2022-01-22T12:35:16Z</time>
      </trkpt>
      <trkpt lat="45.16416" lon="5.93331">
        <ele>2245</ele>
        <time>2022-01-22T12:35:19Z</time>
      </trkpt>
      <trkpt lat="45.16412" lon="5.93326">
        <ele>2247</ele>
        <time>2022-01-22T12:35:27Z</time>
      </trkpt>
      <trkpt lat="45.16411" lon="5.93324">
        <ele>2248</ele>
        <time>2022-01-22T12:35:30Z</time>
      </trkpt>
      <trkpt lat="45.16409" lon="5.93322">
        <ele>2248</ele>
        <time>2022-01-22T12:35:33Z</time>
      </trkpt>
      <trkpt lat="45.16407" lon="5.93319">
        <ele>2249</ele>
        <time>2022-01-22T12:35:36Z</time>
      </trkpt>
      <trkpt lat="45.16406" lon="5.93317">
        <ele>2249</ele>
        <time>2022-01-22T12:35:38Z</time>
      </trkpt>
      <trkpt lat="45.16405" lon="5.93314">
        <ele>2250</ele>
        <time>2022-01-22T12:35:41Z</time>
      </trkpt>
      <trkpt lat="45.16404" lon="5.93312">
        <ele>2250</ele>
        <time>2022-01-22T12:35:44Z</time>
      </trkpt>
      <trkpt lat="45.16403" lon="5.93309">
        <ele>2251</ele>
        <time>2022-01-22T12:35:47Z</time>
      </trkpt>
      <trkpt lat="45.16402" lon="5.93306">
        <ele>2251</ele>
        <time>2022-01-22T12:35:50Z</time>
      </trkpt>
      <trkpt lat="45.164" lon="5.93303">
        <ele>2251</ele>
        <time>2022-01-22T12:35:53Z</time>
      </trkpt>
      <trkpt lat="45.16399" lon="5.93301">
        <ele>2251</ele>
        <time>2022-01-22T12:35:56Z</time>
      </trkpt>
      <trkpt lat="45.16397" lon="5.93298">
        <ele>2252</ele>
        <time>2022-01-22T12:35:59Z</time>
      </trkpt>
      <trkpt lat="45.16395" lon="5.93297">
        <ele>2252</ele>
        <time>2022-01-22T12:36:02Z</time>
      </trkpt>
      <trkpt lat="45.16394" lon="5.93295">
        <ele>2252</ele>
        <time>2022-01-22T12:36:04Z</time>
      </trkpt>
      <trkpt lat="45.16393" lon="5.93293">
        <ele>2252</ele>
        <time>2022-01-22T12:36:06Z</time>
      </trkpt>
      <trkpt lat="45.16392" lon="5.93289">
        <ele>2252</ele>
        <time>2022-01-22T12:36:09Z</time>
      </trkpt>
      <trkpt lat="45.16393" lon="5.93286">
        <ele>2253</ele>
        <time>2022-01-22T12:36:12Z</time>
      </trkpt>
      <trkpt lat="45.16394" lon="5.93283">
        <ele>2253</ele>
        <time>2022-01-22T12:36:15Z</time>
      </trkpt>
      <trkpt lat="45.16395" lon="5.9328">
        <ele>2254</ele>
        <time>2022-01-22T12:36:18Z</time>
      </trkpt>
      <trkpt lat="45.16396" lon="5.93278">
        <ele>2254</ele>
        <time>2022-01-22T12:36:21Z</time>
      </trkpt>
      <trkpt lat="45.16397" lon="5.93275">
        <ele>2254</ele>
        <time>2022-01-22T12:36:24Z</time>
      </trkpt>
      <trkpt lat="45.16398" lon="5.93273">
        <ele>2256</ele>
        <time>2022-01-22T12:36:27Z</time>
      </trkpt>
      <trkpt lat="45.164" lon="5.93271">
        <ele>2256</ele>
        <time>2022-01-22T12:36:31Z</time>
      </trkpt>
      <trkpt lat="45.16401" lon="5.93269">
        <ele>2257</ele>
        <time>2022-01-22T12:36:34Z</time>
      </trkpt>
      <trkpt lat="45.16402" lon="5.93266">
        <ele>2258</ele>
        <time>2022-01-22T12:36:39Z</time>
      </trkpt>
      <trkpt lat="45.16402" lon="5.93263">
        <ele>2258</ele>
        <time>2022-01-22T12:36:44Z</time>
      </trkpt>
      <trkpt lat="45.164" lon="5.93261">
        <ele>2259</ele>
        <time>2022-01-22T12:36:47Z</time>
      </trkpt>
      <trkpt lat="45.16399" lon="5.93259">
        <ele>2260</ele>
        <time>2022-01-22T12:36:51Z</time>
      </trkpt>
      <trkpt lat="45.16397" lon="5.93259">
        <ele>2260</ele>
        <time>2022-01-22T12:36:55Z</time>
      </trkpt>
      <trkpt lat="45.16394" lon="5.93259">
        <ele>2261</ele>
        <time>2022-01-22T12:37:04Z</time>
      </trkpt>
      <trkpt lat="45.16392" lon="5.93258">
        <ele>2262</ele>
        <time>2022-01-22T12:37:09Z</time>
      </trkpt>
      <trkpt lat="45.1639" lon="5.93258">
        <ele>2262</ele>
        <time>2022-01-22T12:37:12Z</time>
      </trkpt>
      <trkpt lat="45.16388" lon="5.93259">
        <ele>2263</ele>
        <time>2022-01-22T12:37:16Z</time>
      </trkpt>
      <trkpt lat="45.16386" lon="5.93258">
        <ele>2263</ele>
        <time>2022-01-22T12:37:20Z</time>
      </trkpt>
      <trkpt lat="45.16384" lon="5.93259">
        <ele>2265</ele>
        <time>2022-01-22T12:37:23Z</time>
      </trkpt>
      <trkpt lat="45.16382" lon="5.9326">
        <ele>2265</ele>
        <time>2022-01-22T12:37:28Z</time>
      </trkpt>
      <trkpt lat="45.16383" lon="5.93257">
        <ele>2267</ele>
        <time>2022-01-22T12:37:34Z</time>
      </trkpt>
      <trkpt lat="45.16385" lon="5.93255">
        <ele>2268</ele>
        <time>2022-01-22T12:37:39Z</time>
      </trkpt>
      <trkpt lat="45.16386" lon="5.93252">
        <ele>2268</ele>
        <time>2022-01-22T12:37:41Z</time>
      </trkpt>
      <trkpt lat="45.16387" lon="5.9325">
        <ele>2268</ele>
        <time>2022-01-22T12:37:44Z</time>
      </trkpt>
      <trkpt lat="45.16388" lon="5.93248">
        <ele>2268</ele>
        <time>2022-01-22T12:37:47Z</time>
      </trkpt>
      <trkpt lat="45.16391" lon="5.93241">
        <ele>2268</ele>
        <time>2022-01-22T12:37:52Z</time>
      </trkpt>
      <trkpt lat="45.16393" lon="5.93239">
        <ele>2269</ele>
        <time>2022-01-22T12:37:56Z</time>
      </trkpt>
      <trkpt lat="45.16395" lon="5.93237">
        <ele>2269</ele>
        <time>2022-01-22T12:37:59Z</time>
      </trkpt>
      <trkpt lat="45.16396" lon="5.93235">
        <ele>2269</ele>
        <time>2022-01-22T12:38:02Z</time>
      </trkpt>
      <trkpt lat="45.16398" lon="5.93235">
        <ele>2270</ele>
        <time>2022-01-22T12:38:05Z</time>
      </trkpt>
      <trkpt lat="45.164" lon="5.93233">
        <ele>2270</ele>
        <time>2022-01-22T12:38:09Z</time>
      </trkpt>
      <trkpt lat="45.16402" lon="5.93233">
        <ele>2271</ele>
        <time>2022-01-22T12:38:12Z</time>
      </trkpt>
      <trkpt lat="45.16403" lon="5.93232">
        <ele>2272</ele>
        <time>2022-01-22T12:38:16Z</time>
      </trkpt>
      <trkpt lat="45.16405" lon="5.9323">
        <ele>2272</ele>
        <time>2022-01-22T12:38:19Z</time>
      </trkpt>
      <trkpt lat="45.16407" lon="5.93229">
        <ele>2272</ele>
        <time>2022-01-22T12:38:22Z</time>
      </trkpt>
      <trkpt lat="45.16409" lon="5.93228">
        <ele>2273</ele>
        <time>2022-01-22T12:38:26Z</time>
      </trkpt>
      <trkpt lat="45.1641" lon="5.93226">
        <ele>2275</ele>
        <time>2022-01-22T12:38:30Z</time>
      </trkpt>
      <trkpt lat="45.16412" lon="5.93225">
        <ele>2275</ele>
        <time>2022-01-22T12:38:35Z</time>
      </trkpt>
      <trkpt lat="45.16414" lon="5.93224">
        <ele>2276</ele>
        <time>2022-01-22T12:38:39Z</time>
      </trkpt>
      <trkpt lat="45.16416" lon="5.93222">
        <ele>2277</ele>
        <time>2022-01-22T12:38:44Z</time>
      </trkpt>
      <trkpt lat="45.16418" lon="5.93221">
        <ele>2277</ele>
        <time>2022-01-22T12:38:47Z</time>
      </trkpt>
      <trkpt lat="45.16415" lon="5.93222">
        <ele>2278</ele>
        <time>2022-01-22T12:38:59Z</time>
      </trkpt>
      <trkpt lat="45.16413" lon="5.93221">
        <ele>2278</ele>
        <time>2022-01-22T12:39:04Z</time>
      </trkpt>
      <trkpt lat="45.16411" lon="5.93221">
        <ele>2278</ele>
        <time>2022-01-22T12:39:06Z</time>
      </trkpt>
      <trkpt lat="45.16409" lon="5.93219">
        <ele>2279</ele>
        <time>2022-01-22T12:39:09Z</time>
      </trkpt>
      <trkpt lat="45.16407" lon="5.93218">
        <ele>2279</ele>
        <time>2022-01-22T12:39:14Z</time>
      </trkpt>
      <trkpt lat="45.16405" lon="5.93218">
        <ele>2281</ele>
        <time>2022-01-22T12:39:17Z</time>
      </trkpt>
      <trkpt lat="45.16404" lon="5.93216">
        <ele>2282</ele>
        <time>2022-01-22T12:39:25Z</time>
      </trkpt>
      <trkpt lat="45.16406" lon="5.93215">
        <ele>2282</ele>
        <time>2022-01-22T12:39:34Z</time>
      </trkpt>
      <trkpt lat="45.16408" lon="5.93214">
        <ele>2282</ele>
        <time>2022-01-22T12:39:38Z</time>
      </trkpt>
      <trkpt lat="45.1641" lon="5.93212">
        <ele>2282</ele>
        <time>2022-01-22T12:39:42Z</time>
      </trkpt>
      <trkpt lat="45.16411" lon="5.9321">
        <ele>2285</ele>
        <time>2022-01-22T12:39:46Z</time>
      </trkpt>
      <trkpt lat="45.16413" lon="5.93208">
        <ele>2286</ele>
        <time>2022-01-22T12:39:50Z</time>
      </trkpt>
      <trkpt lat="45.16415" lon="5.93206">
        <ele>2286</ele>
        <time>2022-01-22T12:39:53Z</time>
      </trkpt>
      <trkpt lat="45.16416" lon="5.93204">
        <ele>2287</ele>
        <time>2022-01-22T12:39:57Z</time>
      </trkpt>
      <trkpt lat="45.16418" lon="5.93202">
        <ele>2286</ele>
        <time>2022-01-22T12:40:01Z</time>
      </trkpt>
      <trkpt lat="45.16419" lon="5.93199">
        <ele>2287</ele>
        <time>2022-01-22T12:40:05Z</time>
      </trkpt>
      <trkpt lat="45.16421" lon="5.93197">
        <ele>2288</ele>
        <time>2022-01-22T12:40:09Z</time>
      </trkpt>
      <trkpt lat="45.16422" lon="5.93195">
        <ele>2289</ele>
        <time>2022-01-22T12:40:12Z</time>
      </trkpt>
      <trkpt lat="45.16424" lon="5.93193">
        <ele>2289</ele>
        <time>2022-01-22T12:40:16Z</time>
      </trkpt>
      <trkpt lat="45.16425" lon="5.93191">
        <ele>2290</ele>
        <time>2022-01-22T12:40:20Z</time>
      </trkpt>
      <trkpt lat="45.16426" lon="5.93188">
        <ele>2291</ele>
        <time>2022-01-22T12:40:24Z</time>
      </trkpt>
      <trkpt lat="45.16426" lon="5.93185">
        <ele>2291</ele>
        <time>2022-01-22T12:40:28Z</time>
      </trkpt>
      <trkpt lat="45.16427" lon="5.93183">
        <ele>2292</ele>
        <time>2022-01-22T12:40:32Z</time>
      </trkpt>
      <trkpt lat="45.16428" lon="5.9318">
        <ele>2293</ele>
        <time>2022-01-22T12:40:50Z</time>
      </trkpt>
      <trkpt lat="45.16427" lon="5.93178">
        <ele>2293</ele>
        <time>2022-01-22T12:40:55Z</time>
      </trkpt>
      <trkpt lat="45.16429" lon="5.93177">
        <ele>2295</ele>
        <time>2022-01-22T12:41:20Z</time>
      </trkpt>
      <trkpt lat="45.16431" lon="5.93177">
        <ele>2295</ele>
        <time>2022-01-22T12:41:24Z</time>
      </trkpt>
      <trkpt lat="45.16433" lon="5.93175">
        <ele>2295</ele>
        <time>2022-01-22T12:41:25Z</time>
      </trkpt>
      <trkpt lat="45.16434" lon="5.93173">
        <ele>2296</ele>
        <time>2022-01-22T12:41:29Z</time>
      </trkpt>
      <trkpt lat="45.16436" lon="5.93172">
        <ele>2297</ele>
        <time>2022-01-22T12:41:36Z</time>
      </trkpt>
      <trkpt lat="45.16438" lon="5.93172">
        <ele>2297</ele>
        <time>2022-01-22T12:41:40Z</time>
      </trkpt>
      <trkpt lat="45.1644" lon="5.93171">
        <ele>2299</ele>
        <time>2022-01-22T12:41:44Z</time>
      </trkpt>
      <trkpt lat="45.16442" lon="5.9317">
        <ele>2300</ele>
        <time>2022-01-22T12:41:49Z</time>
      </trkpt>
      <trkpt lat="45.1644" lon="5.93169">
        <ele>2300</ele>
        <time>2022-01-22T12:42:04Z</time>
      </trkpt>
      <trkpt lat="45.16438" lon="5.93168">
        <ele>2300</ele>
        <time>2022-01-22T12:42:08Z</time>
      </trkpt>
      <trkpt lat="45.16436" lon="5.93168">
        <ele>2300</ele>
        <time>2022-01-22T12:42:13Z</time>
      </trkpt>
      <trkpt lat="45.16435" lon="5.93165">
        <ele>2302</ele>
        <time>2022-01-22T12:42:17Z</time>
      </trkpt>
      <trkpt lat="45.16436" lon="5.93164">
        <ele>2302</ele>
        <time>2022-01-22T12:42:43Z</time>
      </trkpt>
      <trkpt lat="45.16439" lon="5.93163">
        <ele>2302</ele>
        <time>2022-01-22T12:42:47Z</time>
      </trkpt>
      <trkpt lat="45.16437" lon="5.93162">
        <ele>2303</ele>
        <time>2022-01-22T12:43:01Z</time>
      </trkpt>
      <trkpt lat="45.16435" lon="5.93161">
        <ele>2303</ele>
        <time>2022-01-22T12:43:05Z</time>
      </trkpt>
      <trkpt lat="45.16436" lon="5.93158">
        <ele>2304</ele>
        <time>2022-01-22T12:43:17Z</time>
      </trkpt>
      <trkpt lat="45.16438" lon="5.93158">
        <ele>2304</ele>
        <time>2022-01-22T12:43:20Z</time>
      </trkpt>
      <trkpt lat="45.1644" lon="5.93157">
        <ele>2305</ele>
        <time>2022-01-22T12:43:24Z</time>
      </trkpt>
      <trkpt lat="45.16441" lon="5.93155">
        <ele>2307</ele>
        <time>2022-01-22T12:43:38Z</time>
      </trkpt>
      <trkpt lat="45.16443" lon="5.93153">
        <ele>2308</ele>
        <time>2022-01-22T12:43:44Z</time>
      </trkpt>
      <trkpt lat="45.16444" lon="5.93151">
        <ele>2309</ele>
        <time>2022-01-22T12:44:00Z</time>
      </trkpt>
      <trkpt lat="45.16446" lon="5.93149">
        <ele>2310</ele>
        <time>2022-01-22T12:44:04Z</time>
      </trkpt>
      <trkpt lat="45.16447" lon="5.93146">
        <ele>2310</ele>
        <time>2022-01-22T12:44:07Z</time>
      </trkpt>
      <trkpt lat="45.16448" lon="5.93144">
        <ele>2310</ele>
        <time>2022-01-22T12:44:09Z</time>
      </trkpt>
      <trkpt lat="45.1645" lon="5.93142">
        <ele>2310</ele>
        <time>2022-01-22T12:44:14Z</time>
      </trkpt>
      <trkpt lat="45.16452" lon="5.93141">
        <ele>2311</ele>
        <time>2022-01-22T12:44:16Z</time>
      </trkpt>
      <trkpt lat="45.16453" lon="5.93138">
        <ele>2312</ele>
        <time>2022-01-22T12:44:19Z</time>
      </trkpt>
      <trkpt lat="45.16455" lon="5.93136">
        <ele>2312</ele>
        <time>2022-01-22T12:44:22Z</time>
      </trkpt>
      <trkpt lat="45.16456" lon="5.93134">
        <ele>2313</ele>
        <time>2022-01-22T12:44:26Z</time>
      </trkpt>
      <trkpt lat="45.16454" lon="5.93132">
        <ele>2314</ele>
        <time>2022-01-22T12:44:50Z</time>
      </trkpt>
      <trkpt lat="45.16452" lon="5.93132">
        <ele>2315</ele>
        <time>2022-01-22T12:44:54Z</time>
      </trkpt>
      <trkpt lat="45.16453" lon="5.93129">
        <ele>2316</ele>
        <time>2022-01-22T12:45:08Z</time>
      </trkpt>
      <trkpt lat="45.16454" lon="5.93127">
        <ele>2317</ele>
        <time>2022-01-22T12:45:13Z</time>
      </trkpt>
      <trkpt lat="45.16455" lon="5.93125">
        <ele>2318</ele>
        <time>2022-01-22T12:45:16Z</time>
      </trkpt>
      <trkpt lat="45.16457" lon="5.93123">
        <ele>2318</ele>
        <time>2022-01-22T12:45:20Z</time>
      </trkpt>
      <trkpt lat="45.16458" lon="5.9312">
        <ele>2318</ele>
        <time>2022-01-22T12:45:23Z</time>
      </trkpt>
      <trkpt lat="45.1646" lon="5.93118">
        <ele>2320</ele>
        <time>2022-01-22T12:45:26Z</time>
      </trkpt>
      <trkpt lat="45.16462" lon="5.93117">
        <ele>2320</ele>
        <time>2022-01-22T12:45:29Z</time>
      </trkpt>
      <trkpt lat="45.16463" lon="5.93116">
        <ele>2320</ele>
        <time>2022-01-22T12:45:32Z</time>
      </trkpt>
      <trkpt lat="45.16465" lon="5.93114">
        <ele>2321</ele>
        <time>2022-01-22T12:45:35Z</time>
      </trkpt>
      <trkpt lat="45.16467" lon="5.93113">
        <ele>2321</ele>
        <time>2022-01-22T12:45:39Z</time>
      </trkpt>
      <trkpt lat="45.16469" lon="5.93112">
        <ele>2322</ele>
        <time>2022-01-22T12:45:42Z</time>
      </trkpt>
      <trkpt lat="45.16467" lon="5.93111">
        <ele>2323</ele>
        <time>2022-01-22T12:47:12Z</time>
      </trkpt>
      <trkpt lat="45.16465" lon="5.93109">
        <ele>2324</ele>
        <time>2022-01-22T12:47:15Z</time>
      </trkpt>
      <trkpt lat="45.16463" lon="5.93108">
        <ele>2324</ele>
        <time>2022-01-22T12:47:18Z</time>
      </trkpt>
      <trkpt lat="45.16461" lon="5.93107">
        <ele>2324</ele>
        <time>2022-01-22T12:47:21Z</time>
      </trkpt>
      <trkpt lat="45.16459" lon="5.93106">
        <ele>2324</ele>
        <time>2022-01-22T12:47:24Z</time>
      </trkpt>
      <trkpt lat="45.16457" lon="5.93104">
        <ele>2325</ele>
        <time>2022-01-22T12:47:27Z</time>
      </trkpt>
      <trkpt lat="45.16455" lon="5.93103">
        <ele>2325</ele>
        <time>2022-01-22T12:47:30Z</time>
      </trkpt>
      <trkpt lat="45.16453" lon="5.93102">
        <ele>2325</ele>
        <time>2022-01-22T12:47:33Z</time>
      </trkpt>
      <trkpt lat="45.16451" lon="5.93101">
        <ele>2326</ele>
        <time>2022-01-22T12:47:36Z</time>
      </trkpt>
      <trkpt lat="45.16449" lon="5.93101">
        <ele>2326</ele>
        <time>2022-01-22T12:47:39Z</time>
      </trkpt>
      <trkpt lat="45.16447" lon="5.931">
        <ele>2326</ele>
        <time>2022-01-22T12:47:42Z</time>
      </trkpt>
      <trkpt lat="45.16445" lon="5.93099">
        <ele>2327</ele>
        <time>2022-01-22T12:47:45Z</time>
      </trkpt>
      <trkpt lat="45.16443" lon="5.93099">
        <ele>2327</ele>
        <time>2022-01-22T12:47:47Z</time>
      </trkpt>
      <trkpt lat="45.16443" lon="5.93095">
        <ele>2327</ele>
        <time>2022-01-22T12:47:51Z</time>
      </trkpt>
      <trkpt lat="45.16445" lon="5.93093">
        <ele>2328</ele>
        <time>2022-01-22T12:47:55Z</time>
      </trkpt>
      <trkpt lat="45.16446" lon="5.93092">
        <ele>2329</ele>
        <time>2022-01-22T12:47:57Z</time>
      </trkpt>
      <trkpt lat="45.16448" lon="5.93091">
        <ele>2330</ele>
        <time>2022-01-22T12:48:00Z</time>
      </trkpt>
      <trkpt lat="45.16451" lon="5.93089">
        <ele>2331</ele>
        <time>2022-01-22T12:48:04Z</time>
      </trkpt>
      <trkpt lat="45.16452" lon="5.93088">
        <ele>2331</ele>
        <time>2022-01-22T12:48:06Z</time>
      </trkpt>
      <trkpt lat="45.16454" lon="5.93087">
        <ele>2332</ele>
        <time>2022-01-22T12:48:10Z</time>
      </trkpt>
      <trkpt lat="45.16456" lon="5.93086">
        <ele>2332</ele>
        <time>2022-01-22T12:48:14Z</time>
      </trkpt>
      <trkpt lat="45.16455" lon="5.93084">
        <ele>2332</ele>
        <time>2022-01-22T12:48:25Z</time>
      </trkpt>
      <trkpt lat="45.16453" lon="5.93083">
        <ele>2333</ele>
        <time>2022-01-22T12:48:28Z</time>
      </trkpt>
      <trkpt lat="45.16451" lon="5.93081">
        <ele>2333</ele>
        <time>2022-01-22T12:48:31Z</time>
      </trkpt>
      <trkpt lat="45.16449" lon="5.93079">
        <ele>2333</ele>
        <time>2022-01-22T12:48:34Z</time>
      </trkpt>
      <trkpt lat="45.16448" lon="5.93077">
        <ele>2333</ele>
        <time>2022-01-22T12:48:38Z</time>
      </trkpt>
      <trkpt lat="45.16446" lon="5.93076">
        <ele>2333</ele>
        <time>2022-01-22T12:48:40Z</time>
      </trkpt>
      <trkpt lat="45.16444" lon="5.93074">
        <ele>2334</ele>
        <time>2022-01-22T12:48:43Z</time>
      </trkpt>
      <trkpt lat="45.16442" lon="5.93072">
        <ele>2335</ele>
        <time>2022-01-22T12:48:46Z</time>
      </trkpt>
      <trkpt lat="45.16441" lon="5.9307">
        <ele>2335</ele>
        <time>2022-01-22T12:48:49Z</time>
      </trkpt>
      <trkpt lat="45.16439" lon="5.93068">
        <ele>2335</ele>
        <time>2022-01-22T12:48:52Z</time>
      </trkpt>
      <trkpt lat="45.16438" lon="5.93066">
        <ele>2336</ele>
        <time>2022-01-22T12:48:55Z</time>
      </trkpt>
      <trkpt lat="45.16436" lon="5.93064">
        <ele>2337</ele>
        <time>2022-01-22T12:48:58Z</time>
      </trkpt>
      <trkpt lat="45.16435" lon="5.93062">
        <ele>2338</ele>
        <time>2022-01-22T12:49:01Z</time>
      </trkpt>
      <trkpt lat="45.16433" lon="5.93061">
        <ele>2338</ele>
        <time>2022-01-22T12:49:04Z</time>
      </trkpt>
      <trkpt lat="45.16432" lon="5.93058">
        <ele>2338</ele>
        <time>2022-01-22T12:49:09Z</time>
      </trkpt>
      <trkpt lat="45.16431" lon="5.93056">
        <ele>2339</ele>
        <time>2022-01-22T12:49:11Z</time>
      </trkpt>
      <trkpt lat="45.16431" lon="5.93053">
        <ele>2340</ele>
        <time>2022-01-22T12:49:14Z</time>
      </trkpt>
      <trkpt lat="45.16433" lon="5.93051">
        <ele>2341</ele>
        <time>2022-01-22T12:49:17Z</time>
      </trkpt>
      <trkpt lat="45.16434" lon="5.9305">
        <ele>2342</ele>
        <time>2022-01-22T12:49:20Z</time>
      </trkpt>
      <trkpt lat="45.16436" lon="5.93048">
        <ele>2342</ele>
        <time>2022-01-22T12:49:24Z</time>
      </trkpt>
      <trkpt lat="45.16438" lon="5.93046">
        <ele>2344</ele>
        <time>2022-01-22T12:49:30Z</time>
      </trkpt>
      <trkpt lat="45.1644" lon="5.93045">
        <ele>2344</ele>
        <time>2022-01-22T12:49:32Z</time>
      </trkpt>
      <trkpt lat="45.16442" lon="5.93044">
        <ele>2345</ele>
        <time>2022-01-22T12:49:36Z</time>
      </trkpt>
      <trkpt lat="45.16444" lon="5.93043">
        <ele>2346</ele>
        <time>2022-01-22T12:49:40Z</time>
      </trkpt>
      <trkpt lat="45.16446" lon="5.93042">
        <ele>2346</ele>
        <time>2022-01-22T12:49:44Z</time>
      </trkpt>
      <trkpt lat="45.16447" lon="5.9304">
        <ele>2348</ele>
        <time>2022-01-22T12:49:49Z</time>
      </trkpt>
      <trkpt lat="45.16449" lon="5.93039">
        <ele>2348</ele>
        <time>2022-01-22T12:49:52Z</time>
      </trkpt>
      <trkpt lat="45.16451" lon="5.93037">
        <ele>2348</ele>
        <time>2022-01-22T12:49:56Z</time>
      </trkpt>
      <trkpt lat="45.16453" lon="5.93036">
        <ele>2349</ele>
        <time>2022-01-22T12:50:00Z</time>
      </trkpt>
      <trkpt lat="45.16455" lon="5.93034">
        <ele>2349</ele>
        <time>2022-01-22T12:50:04Z</time>
      </trkpt>
      <trkpt lat="45.16457" lon="5.93033">
        <ele>2351</ele>
        <time>2022-01-22T12:50:09Z</time>
      </trkpt>
      <trkpt lat="45.16455" lon="5.93032">
        <ele>2351</ele>
        <time>2022-01-22T12:50:19Z</time>
      </trkpt>
      <trkpt lat="45.16453" lon="5.9303">
        <ele>2352</ele>
        <time>2022-01-22T12:50:22Z</time>
      </trkpt>
      <trkpt lat="45.16452" lon="5.93029">
        <ele>2352</ele>
        <time>2022-01-22T12:50:26Z</time>
      </trkpt>
      <trkpt lat="45.1645" lon="5.93027">
        <ele>2354</ele>
        <time>2022-01-22T12:50:29Z</time>
      </trkpt>
      <trkpt lat="45.16448" lon="5.93026">
        <ele>2353</ele>
        <time>2022-01-22T12:50:32Z</time>
      </trkpt>
      <trkpt lat="45.16446" lon="5.93025">
        <ele>2354</ele>
        <time>2022-01-22T12:50:35Z</time>
      </trkpt>
      <trkpt lat="45.16444" lon="5.93024">
        <ele>2354</ele>
        <time>2022-01-22T12:50:39Z</time>
      </trkpt>
      <trkpt lat="45.16443" lon="5.93023">
        <ele>2355</ele>
        <time>2022-01-22T12:50:41Z</time>
      </trkpt>
      <trkpt lat="45.16441" lon="5.93021">
        <ele>2356</ele>
        <time>2022-01-22T12:50:45Z</time>
      </trkpt>
      <trkpt lat="45.16443" lon="5.93019">
        <ele>2358</ele>
        <time>2022-01-22T12:50:54Z</time>
      </trkpt>
      <trkpt lat="45.16444" lon="5.93018">
        <ele>2359</ele>
        <time>2022-01-22T12:50:57Z</time>
      </trkpt>
      <trkpt lat="45.16446" lon="5.93017">
        <ele>2359</ele>
        <time>2022-01-22T12:51:00Z</time>
      </trkpt>
      <trkpt lat="45.16448" lon="5.93016">
        <ele>2359</ele>
        <time>2022-01-22T12:51:04Z</time>
      </trkpt>
      <trkpt lat="45.1645" lon="5.93016">
        <ele>2360</ele>
        <time>2022-01-22T12:51:07Z</time>
      </trkpt>
      <trkpt lat="45.16449" lon="5.93014">
        <ele>2360</ele>
        <time>2022-01-22T12:51:20Z</time>
      </trkpt>
      <trkpt lat="45.16447" lon="5.93012">
        <ele>2360</ele>
        <time>2022-01-22T12:51:23Z</time>
      </trkpt>
      <trkpt lat="45.16445" lon="5.93011">
        <ele>2360</ele>
        <time>2022-01-22T12:51:26Z</time>
      </trkpt>
      <trkpt lat="45.16444" lon="5.93009">
        <ele>2360</ele>
        <time>2022-01-22T12:51:29Z</time>
      </trkpt>
      <trkpt lat="45.16442" lon="5.93008">
        <ele>2361</ele>
        <time>2022-01-22T12:51:32Z</time>
      </trkpt>
      <trkpt lat="45.1644" lon="5.93007">
        <ele>2361</ele>
        <time>2022-01-22T12:51:35Z</time>
      </trkpt>
      <trkpt lat="45.16439" lon="5.93005">
        <ele>2361</ele>
        <time>2022-01-22T12:51:38Z</time>
      </trkpt>
      <trkpt lat="45.16437" lon="5.93004">
        <ele>2362</ele>
        <time>2022-01-22T12:51:42Z</time>
      </trkpt>
      <trkpt lat="45.16435" lon="5.93002">
        <ele>2362</ele>
        <time>2022-01-22T12:51:46Z</time>
      </trkpt>
      <trkpt lat="45.16433" lon="5.93001">
        <ele>2364</ele>
        <time>2022-01-22T12:51:49Z</time>
      </trkpt>
      <trkpt lat="45.1643" lon="5.93">
        <ele>2364</ele>
        <time>2022-01-22T12:51:53Z</time>
      </trkpt>
      <trkpt lat="45.16428" lon="5.93">
        <ele>2365</ele>
        <time>2022-01-22T12:51:56Z</time>
      </trkpt>
      <trkpt lat="45.16426" lon="5.92999">
        <ele>2365</ele>
        <time>2022-01-22T12:52:00Z</time>
      </trkpt>
      <trkpt lat="45.16424" lon="5.93">
        <ele>2366</ele>
        <time>2022-01-22T12:52:15Z</time>
      </trkpt>
      <trkpt lat="45.16422" lon="5.93">
        <ele>2367</ele>
        <time>2022-01-22T12:52:22Z</time>
      </trkpt>
      <trkpt lat="45.1642" lon="5.93">
        <ele>2369</ele>
        <time>2022-01-22T12:52:25Z</time>
      </trkpt>
      <trkpt lat="45.16417" lon="5.93">
        <ele>2367</ele>
        <time>2022-01-22T12:52:28Z</time>
      </trkpt>
      <trkpt lat="45.16415" lon="5.92999">
        <ele>2369</ele>
        <time>2022-01-22T12:52:43Z</time>
      </trkpt>
      <trkpt lat="45.16414" lon="5.92997">
        <ele>2367</ele>
        <time>2022-01-22T12:52:46Z</time>
      </trkpt>
      <trkpt lat="45.16412" lon="5.92994">
        <ele>2367</ele>
        <time>2022-01-22T12:52:50Z</time>
      </trkpt>
      <trkpt lat="45.16414" lon="5.92997">
        <ele>2370</ele>
        <time>2022-01-22T12:53:05Z</time>
      </trkpt>
      <trkpt lat="45.16416" lon="5.92999">
        <ele>2370</ele>
        <time>2022-01-22T12:53:09Z</time>
      </trkpt>
      <trkpt lat="45.16418" lon="5.93">
        <ele>2370</ele>
        <time>2022-01-22T12:53:11Z</time>
      </trkpt>
      <trkpt lat="45.1642" lon="5.93001">
        <ele>2370</ele>
        <time>2022-01-22T12:53:14Z</time>
      </trkpt>
      <trkpt lat="45.16422" lon="5.93001">
        <ele>2370</ele>
        <time>2022-01-22T12:53:19Z</time>
      </trkpt>
      <trkpt lat="45.16424" lon="5.93001">
        <ele>2371</ele>
        <time>2022-01-22T12:53:21Z</time>
      </trkpt>
      <trkpt lat="45.16425" lon="5.92999">
        <ele>2371</ele>
        <time>2022-01-22T12:53:24Z</time>
      </trkpt>
      <trkpt lat="45.16427" lon="5.92998">
        <ele>2371</ele>
        <time>2022-01-22T12:53:28Z</time>
      </trkpt>
      <trkpt lat="45.16429" lon="5.92996">
        <ele>2371</ele>
        <time>2022-01-22T12:53:30Z</time>
      </trkpt>
      <trkpt lat="45.16431" lon="5.92994">
        <ele>2371</ele>
        <time>2022-01-22T12:53:36Z</time>
      </trkpt>
      <trkpt lat="45.16433" lon="5.92992">
        <ele>2371</ele>
        <time>2022-01-22T12:53:39Z</time>
      </trkpt>
      <trkpt lat="45.16434" lon="5.92989">
        <ele>2371</ele>
        <time>2022-01-22T12:53:43Z</time>
      </trkpt>
      <trkpt lat="45.16434" lon="5.92987">
        <ele>2372</ele>
        <time>2022-01-22T12:53:45Z</time>
      </trkpt>
      <trkpt lat="45.16434" lon="5.92983">
        <ele>2372</ele>
        <time>2022-01-22T12:53:49Z</time>
      </trkpt>
      <trkpt lat="45.16434" lon="5.92981">
        <ele>2373</ele>
        <time>2022-01-22T12:53:52Z</time>
      </trkpt>
      <trkpt lat="45.16434" lon="5.92978">
        <ele>2374</ele>
        <time>2022-01-22T12:53:56Z</time>
      </trkpt>
      <trkpt lat="45.16436" lon="5.92975">
        <ele>2374</ele>
        <time>2022-01-22T12:53:59Z</time>
      </trkpt>
      <trkpt lat="45.16437" lon="5.92973">
        <ele>2375</ele>
        <time>2022-01-22T12:54:04Z</time>
      </trkpt>
      <trkpt lat="45.16437" lon="5.9297">
        <ele>2376</ele>
        <time>2022-01-22T12:54:06Z</time>
      </trkpt>
      <trkpt lat="45.16439" lon="5.92968">
        <ele>2378</ele>
        <time>2022-01-22T12:54:10Z</time>
      </trkpt>
      <trkpt lat="45.16439" lon="5.92965">
        <ele>2378</ele>
        <time>2022-01-22T12:54:15Z</time>
      </trkpt>
      <trkpt lat="45.16439" lon="5.92962">
        <ele>2379</ele>
        <time>2022-01-22T12:54:17Z</time>
      </trkpt>
      <trkpt lat="45.1644" lon="5.92959">
        <ele>2379</ele>
        <time>2022-01-22T12:54:34Z</time>
      </trkpt>
      <trkpt lat="45.1644" lon="5.92956">
        <ele>2379</ele>
        <time>2022-01-22T12:54:38Z</time>
      </trkpt>
      <trkpt lat="45.1644" lon="5.92953">
        <ele>2381</ele>
        <time>2022-01-22T12:54:41Z</time>
      </trkpt>
      <trkpt lat="45.1644" lon="5.92949">
        <ele>2381</ele>
        <time>2022-01-22T12:54:44Z</time>
      </trkpt>
      <trkpt lat="45.1644" lon="5.92946">
        <ele>2381</ele>
        <time>2022-01-22T12:54:47Z</time>
      </trkpt>
      <trkpt lat="45.1644" lon="5.92943">
        <ele>2383</ele>
        <time>2022-01-22T12:54:50Z</time>
      </trkpt>
      <trkpt lat="45.1644" lon="5.9294">
        <ele>2383</ele>
        <time>2022-01-22T12:54:53Z</time>
      </trkpt>
      <trkpt lat="45.1644" lon="5.92937">
        <ele>2383</ele>
        <time>2022-01-22T12:54:56Z</time>
      </trkpt>
      <trkpt lat="45.1644" lon="5.92934">
        <ele>2383</ele>
        <time>2022-01-22T12:54:59Z</time>
      </trkpt>
      <trkpt lat="45.1644" lon="5.92932">
        <ele>2384</ele>
        <time>2022-01-22T12:55:02Z</time>
      </trkpt>
      <trkpt lat="45.1644" lon="5.92929">
        <ele>2385</ele>
        <time>2022-01-22T12:55:06Z</time>
      </trkpt>
      <trkpt lat="45.1644" lon="5.92926">
        <ele>2385</ele>
        <time>2022-01-22T12:55:11Z</time>
      </trkpt>
      <trkpt lat="45.16443" lon="5.92927">
        <ele>2387</ele>
        <time>2022-01-22T12:55:24Z</time>
      </trkpt>
      <trkpt lat="45.16444" lon="5.9293">
        <ele>2387</ele>
        <time>2022-01-22T12:55:27Z</time>
      </trkpt>
      <trkpt lat="45.16445" lon="5.92932">
        <ele>2387</ele>
        <time>2022-01-22T12:55:30Z</time>
      </trkpt>
      <trkpt lat="45.16447" lon="5.92934">
        <ele>2388</ele>
        <time>2022-01-22T12:55:33Z</time>
      </trkpt>
      <trkpt lat="45.16448" lon="5.92936">
        <ele>2388</ele>
        <time>2022-01-22T12:55:36Z</time>
      </trkpt>
      <trkpt lat="45.1645" lon="5.92938">
        <ele>2389</ele>
        <time>2022-01-22T12:55:40Z</time>
      </trkpt>
      <trkpt lat="45.16452" lon="5.9294">
        <ele>2390</ele>
        <time>2022-01-22T12:55:43Z</time>
      </trkpt>
      <trkpt lat="45.16453" lon="5.92942">
        <ele>2390</ele>
        <time>2022-01-22T12:55:47Z</time>
      </trkpt>
      <trkpt lat="45.16454" lon="5.92939">
        <ele>2391</ele>
        <time>2022-01-22T12:56:12Z</time>
      </trkpt>
      <trkpt lat="45.16454" lon="5.92936">
        <ele>2391</ele>
        <time>2022-01-22T12:56:16Z</time>
      </trkpt>
      <trkpt lat="45.16456" lon="5.92934">
        <ele>2394</ele>
        <time>2022-01-22T12:56:20Z</time>
      </trkpt>
      <trkpt lat="45.16458" lon="5.92935">
        <ele>2395</ele>
        <time>2022-01-22T12:56:23Z</time>
      </trkpt>
      <trkpt lat="45.1646" lon="5.92936">
        <ele>2395</ele>
        <time>2022-01-22T12:56:27Z</time>
      </trkpt>
      <trkpt lat="45.16461" lon="5.92934">
        <ele>2396</ele>
        <time>2022-01-22T12:56:33Z</time>
      </trkpt>
      <trkpt lat="45.16462" lon="5.92931">
        <ele>2396</ele>
        <time>2022-01-22T12:56:36Z</time>
      </trkpt>
      <trkpt lat="45.16462" lon="5.92928">
        <ele>2397</ele>
        <time>2022-01-22T12:56:39Z</time>
      </trkpt>
      <trkpt lat="45.16462" lon="5.92925">
        <ele>2397</ele>
        <time>2022-01-22T12:56:42Z</time>
      </trkpt>
      <trkpt lat="45.16462" lon="5.92922">
        <ele>2399</ele>
        <time>2022-01-22T12:56:45Z</time>
      </trkpt>
      <trkpt lat="45.16461" lon="5.92919">
        <ele>2399</ele>
        <time>2022-01-22T12:56:49Z</time>
      </trkpt>
      <trkpt lat="45.16461" lon="5.92916">
        <ele>2400</ele>
        <time>2022-01-22T12:56:52Z</time>
      </trkpt>
      <trkpt lat="45.1646" lon="5.92913">
        <ele>2400</ele>
        <time>2022-01-22T12:56:56Z</time>
      </trkpt>
      <trkpt lat="45.16459" lon="5.92911">
        <ele>2401</ele>
        <time>2022-01-22T12:57:07Z</time>
      </trkpt>
      <trkpt lat="45.16458" lon="5.92908">
        <ele>2401</ele>
        <time>2022-01-22T12:57:10Z</time>
      </trkpt>
      <trkpt lat="45.16459" lon="5.92911">
        <ele>2403</ele>
        <time>2022-01-22T12:58:10Z</time>
      </trkpt>
      <trkpt lat="45.16459" lon="5.92914">
        <ele>2400</ele>
        <time>2022-01-22T13:06:14Z</time>
      </trkpt>
      <trkpt lat="45.1646" lon="5.92916">
        <ele>2400</ele>
        <time>2022-01-22T13:06:15Z</time>
      </trkpt>
      <trkpt lat="45.16461" lon="5.9292">
        <ele>2399</ele>
        <time>2022-01-22T13:06:16Z</time>
      </trkpt>
      <trkpt lat="45.16461" lon="5.92924">
        <ele>2400</ele>
        <time>2022-01-22T13:06:17Z</time>
      </trkpt>
      <trkpt lat="45.16461" lon="5.92927">
        <ele>2400</ele>
        <time>2022-01-22T13:06:18Z</time>
      </trkpt>
      <trkpt lat="45.16462" lon="5.92931">
        <ele>2399</ele>
        <time>2022-01-22T13:06:19Z</time>
      </trkpt>
      <trkpt lat="45.16462" lon="5.92934">
        <ele>2398</ele>
        <time>2022-01-22T13:06:20Z</time>
      </trkpt>
      <trkpt lat="45.16461" lon="5.92937">
        <ele>2398</ele>
        <time>2022-01-22T13:06:21Z</time>
      </trkpt>
      <trkpt lat="45.16459" lon="5.92939">
        <ele>2397</ele>
        <time>2022-01-22T13:06:22Z</time>
      </trkpt>
      <trkpt lat="45.16457" lon="5.9294">
        <ele>2395</ele>
        <time>2022-01-22T13:06:24Z</time>
      </trkpt>
      <trkpt lat="45.16456" lon="5.92942">
        <ele>2395</ele>
        <time>2022-01-22T13:06:25Z</time>
      </trkpt>
      <trkpt lat="45.16457" lon="5.92946">
        <ele>2395</ele>
        <time>2022-01-22T13:06:26Z</time>
      </trkpt>
      <trkpt lat="45.16457" lon="5.92948">
        <ele>2394</ele>
        <time>2022-01-22T13:06:27Z</time>
      </trkpt>
      <trkpt lat="45.16457" lon="5.92953">
        <ele>2394</ele>
        <time>2022-01-22T13:06:29Z</time>
      </trkpt>
      <trkpt lat="45.16458" lon="5.92956">
        <ele>2393</ele>
        <time>2022-01-22T13:06:30Z</time>
      </trkpt>
      <trkpt lat="45.16458" lon="5.92959">
        <ele>2393</ele>
        <time>2022-01-22T13:06:31Z</time>
      </trkpt>
      <trkpt lat="45.16459" lon="5.92961">
        <ele>2393</ele>
        <time>2022-01-22T13:06:32Z</time>
      </trkpt>
      <trkpt lat="45.16458" lon="5.92965">
        <ele>2392</ele>
        <time>2022-01-22T13:06:34Z</time>
      </trkpt>
      <trkpt lat="45.16454" lon="5.92963">
        <ele>2389</ele>
        <time>2022-01-22T13:06:36Z</time>
      </trkpt>
      <trkpt lat="45.16452" lon="5.92963">
        <ele>2389</ele>
        <time>2022-01-22T13:06:37Z</time>
      </trkpt>
      <trkpt lat="45.16451" lon="5.92967">
        <ele>2387</ele>
        <time>2022-01-22T13:06:39Z</time>
      </trkpt>
      <trkpt lat="45.16447" lon="5.9297">
        <ele>2386</ele>
        <time>2022-01-22T13:06:41Z</time>
      </trkpt>
      <trkpt lat="45.16445" lon="5.92969">
        <ele>2385</ele>
        <time>2022-01-22T13:06:42Z</time>
      </trkpt>
      <trkpt lat="45.16441" lon="5.9297">
        <ele>2382</ele>
        <time>2022-01-22T13:06:44Z</time>
      </trkpt>
      <trkpt lat="45.16441" lon="5.92973">
        <ele>2383</ele>
        <time>2022-01-22T13:06:46Z</time>
      </trkpt>
      <trkpt lat="45.16441" lon="5.92978">
        <ele>2381</ele>
        <time>2022-01-22T13:06:47Z</time>
      </trkpt>
      <trkpt lat="45.1644" lon="5.9298">
        <ele>2379</ele>
        <time>2022-01-22T13:06:50Z</time>
      </trkpt>
      <trkpt lat="45.16441" lon="5.92983">
        <ele>2379</ele>
        <time>2022-01-22T13:06:52Z</time>
      </trkpt>
      <trkpt lat="45.1644" lon="5.92986">
        <ele>2378</ele>
        <time>2022-01-22T13:06:54Z</time>
      </trkpt>
      <trkpt lat="45.16438" lon="5.92987">
        <ele>2377</ele>
        <time>2022-01-22T13:06:55Z</time>
      </trkpt>
      <trkpt lat="45.16436" lon="5.92987">
        <ele>2376</ele>
        <time>2022-01-22T13:06:56Z</time>
      </trkpt>
      <trkpt lat="45.16434" lon="5.9299">
        <ele>2374</ele>
        <time>2022-01-22T13:06:58Z</time>
      </trkpt>
      <trkpt lat="45.16436" lon="5.92993">
        <ele>2373</ele>
        <time>2022-01-22T13:07:00Z</time>
      </trkpt>
      <trkpt lat="45.16436" lon="5.92997">
        <ele>2372</ele>
        <time>2022-01-22T13:07:02Z</time>
      </trkpt>
      <trkpt lat="45.16434" lon="5.92999">
        <ele>2371</ele>
        <time>2022-01-22T13:07:03Z</time>
      </trkpt>
      <trkpt lat="45.16432" lon="5.93">
        <ele>2370</ele>
        <time>2022-01-22T13:07:04Z</time>
      </trkpt>
      <trkpt lat="45.16429" lon="5.93002">
        <ele>2370</ele>
        <time>2022-01-22T13:07:05Z</time>
      </trkpt>
      <trkpt lat="45.16427" lon="5.93005">
        <ele>2370</ele>
        <time>2022-01-22T13:07:06Z</time>
      </trkpt>
      <trkpt lat="45.16425" lon="5.93007">
        <ele>2369</ele>
        <time>2022-01-22T13:07:08Z</time>
      </trkpt>
      <trkpt lat="45.16424" lon="5.93011">
        <ele>2367</ele>
        <time>2022-01-22T13:07:10Z</time>
      </trkpt>
      <trkpt lat="45.16427" lon="5.93014">
        <ele>2367</ele>
        <time>2022-01-22T13:07:12Z</time>
      </trkpt>
      <trkpt lat="45.16429" lon="5.93014">
        <ele>2367</ele>
        <time>2022-01-22T13:07:13Z</time>
      </trkpt>
      <trkpt lat="45.16431" lon="5.93015">
        <ele>2366</ele>
        <time>2022-01-22T13:07:14Z</time>
      </trkpt>
      <trkpt lat="45.16433" lon="5.93017">
        <ele>2365</ele>
        <time>2022-01-22T13:07:15Z</time>
      </trkpt>
      <trkpt lat="45.16434" lon="5.93018">
        <ele>2365</ele>
        <time>2022-01-22T13:07:16Z</time>
      </trkpt>
      <trkpt lat="45.16436" lon="5.9302">
        <ele>2364</ele>
        <time>2022-01-22T13:07:17Z</time>
      </trkpt>
      <trkpt lat="45.16438" lon="5.93022">
        <ele>2364</ele>
        <time>2022-01-22T13:07:18Z</time>
      </trkpt>
      <trkpt lat="45.1644" lon="5.93023">
        <ele>2364</ele>
        <time>2022-01-22T13:07:19Z</time>
      </trkpt>
      <trkpt lat="45.16442" lon="5.93025">
        <ele>2363</ele>
        <time>2022-01-22T13:07:20Z</time>
      </trkpt>
      <trkpt lat="45.16445" lon="5.93027">
        <ele>2363</ele>
        <time>2022-01-22T13:07:21Z</time>
      </trkpt>
      <trkpt lat="45.16447" lon="5.93029">
        <ele>2362</ele>
        <time>2022-01-22T13:07:22Z</time>
      </trkpt>
      <trkpt lat="45.16448" lon="5.93031">
        <ele>2361</ele>
        <time>2022-01-22T13:07:24Z</time>
      </trkpt>
      <trkpt lat="45.16451" lon="5.93034">
        <ele>2361</ele>
        <time>2022-01-22T13:07:26Z</time>
      </trkpt>
      <trkpt lat="45.16453" lon="5.93036">
        <ele>2360</ele>
        <time>2022-01-22T13:07:27Z</time>
      </trkpt>
      <trkpt lat="45.16454" lon="5.93039">
        <ele>2357</ele>
        <time>2022-01-22T13:08:09Z</time>
      </trkpt>
      <trkpt lat="45.16457" lon="5.93043">
        <ele>2356</ele>
        <time>2022-01-22T13:08:11Z</time>
      </trkpt>
      <trkpt lat="45.16459" lon="5.93046">
        <ele>2356</ele>
        <time>2022-01-22T13:08:12Z</time>
      </trkpt>
      <trkpt lat="45.16459" lon="5.93051">
        <ele>2355</ele>
        <time>2022-01-22T13:08:14Z</time>
      </trkpt>
      <trkpt lat="45.16456" lon="5.93053">
        <ele>2354</ele>
        <time>2022-01-22T13:08:15Z</time>
      </trkpt>
      <trkpt lat="45.16454" lon="5.93056">
        <ele>2353</ele>
        <time>2022-01-22T13:08:16Z</time>
      </trkpt>
      <trkpt lat="45.16453" lon="5.93059">
        <ele>2349</ele>
        <time>2022-01-22T13:08:19Z</time>
      </trkpt>
      <trkpt lat="45.16452" lon="5.93056">
        <ele>2348</ele>
        <time>2022-01-22T13:09:02Z</time>
      </trkpt>
      <trkpt lat="45.1645" lon="5.93059">
        <ele>2348</ele>
        <time>2022-01-22T13:09:14Z</time>
      </trkpt>
      <trkpt lat="45.16448" lon="5.93062">
        <ele>2347</ele>
        <time>2022-01-22T13:09:15Z</time>
      </trkpt>
      <trkpt lat="45.16446" lon="5.93066">
        <ele>2345</ele>
        <time>2022-01-22T13:09:16Z</time>
      </trkpt>
      <trkpt lat="45.16446" lon="5.93071">
        <ele>2344</ele>
        <time>2022-01-22T13:09:17Z</time>
      </trkpt>
      <trkpt lat="45.16445" lon="5.93074">
        <ele>2344</ele>
        <time>2022-01-22T13:09:18Z</time>
      </trkpt>
      <trkpt lat="45.16435" lon="5.9308">
        <ele>2340</ele>
        <time>2022-01-22T13:09:21Z</time>
      </trkpt>
      <trkpt lat="45.16433" lon="5.93084">
        <ele>2339</ele>
        <time>2022-01-22T13:09:22Z</time>
      </trkpt>
      <trkpt lat="45.16435" lon="5.93087">
        <ele>2337</ele>
        <time>2022-01-22T13:09:24Z</time>
      </trkpt>
      <trkpt lat="45.1644" lon="5.9309">
        <ele>2336</ele>
        <time>2022-01-22T13:09:25Z</time>
      </trkpt>
      <trkpt lat="45.16446" lon="5.93093">
        <ele>2335</ele>
        <time>2022-01-22T13:09:27Z</time>
      </trkpt>
      <trkpt lat="45.16448" lon="5.93099">
        <ele>2335</ele>
        <time>2022-01-22T13:09:29Z</time>
      </trkpt>
      <trkpt lat="45.16445" lon="5.93101">
        <ele>2335</ele>
        <time>2022-01-22T13:09:30Z</time>
      </trkpt>
      <trkpt lat="45.16441" lon="5.93104">
        <ele>2334</ele>
        <time>2022-01-22T13:09:31Z</time>
      </trkpt>
      <trkpt lat="45.16438" lon="5.93106">
        <ele>2333</ele>
        <time>2022-01-22T13:09:32Z</time>
      </trkpt>
      <trkpt lat="45.16435" lon="5.93109">
        <ele>2332</ele>
        <time>2022-01-22T13:09:33Z</time>
      </trkpt>
      <trkpt lat="45.16436" lon="5.93112">
        <ele>2332</ele>
        <time>2022-01-22T13:09:34Z</time>
      </trkpt>
      <trkpt lat="45.16434" lon="5.93127">
        <ele>2328</ele>
        <time>2022-01-22T13:09:39Z</time>
      </trkpt>
      <trkpt lat="45.16439" lon="5.93125">
        <ele>2325</ele>
        <time>2022-01-22T13:09:42Z</time>
      </trkpt>
      <trkpt lat="45.16442" lon="5.93123">
        <ele>2325</ele>
        <time>2022-01-22T13:09:44Z</time>
      </trkpt>
      <trkpt lat="45.16444" lon="5.93124">
        <ele>2325</ele>
        <time>2022-01-22T13:09:45Z</time>
      </trkpt>
      <trkpt lat="45.16448" lon="5.93124">
        <ele>2325</ele>
        <time>2022-01-22T13:09:46Z</time>
      </trkpt>
      <trkpt lat="45.16451" lon="5.93124">
        <ele>2324</ele>
        <time>2022-01-22T13:09:47Z</time>
      </trkpt>
      <trkpt lat="45.16455" lon="5.93125">
        <ele>2324</ele>
        <time>2022-01-22T13:09:48Z</time>
      </trkpt>
      <trkpt lat="45.16457" lon="5.93126">
        <ele>2324</ele>
        <time>2022-01-22T13:09:49Z</time>
      </trkpt>
      <trkpt lat="45.16459" lon="5.93126">
        <ele>2323</ele>
        <time>2022-01-22T13:09:51Z</time>
      </trkpt>
      <trkpt lat="45.16458" lon="5.93131">
        <ele>2323</ele>
        <time>2022-01-22T13:09:59Z</time>
      </trkpt>
      <trkpt lat="45.16455" lon="5.93134">
        <ele>2322</ele>
        <time>2022-01-22T13:10:00Z</time>
      </trkpt>
      <trkpt lat="45.16453" lon="5.93136">
        <ele>2322</ele>
        <time>2022-01-22T13:10:01Z</time>
      </trkpt>
      <trkpt lat="45.1645" lon="5.9314">
        <ele>2319</ele>
        <time>2022-01-22T13:10:04Z</time>
      </trkpt>
      <trkpt lat="45.16449" lon="5.93143">
        <ele>2319</ele>
        <time>2022-01-22T13:10:05Z</time>
      </trkpt>
      <trkpt lat="45.16448" lon="5.93146">
        <ele>2319</ele>
        <time>2022-01-22T13:10:07Z</time>
      </trkpt>
      <trkpt lat="45.16444" lon="5.93152">
        <ele>2318</ele>
        <time>2022-01-22T13:10:09Z</time>
      </trkpt>
      <trkpt lat="45.16443" lon="5.93154">
        <ele>2316</ele>
        <time>2022-01-22T13:10:11Z</time>
      </trkpt>
      <trkpt lat="45.1644" lon="5.93158">
        <ele>2314</ele>
        <time>2022-01-22T13:10:14Z</time>
      </trkpt>
      <trkpt lat="45.16439" lon="5.93163">
        <ele>2312</ele>
        <time>2022-01-22T13:10:17Z</time>
      </trkpt>
      <trkpt lat="45.16438" lon="5.93165">
        <ele>2311</ele>
        <time>2022-01-22T13:10:19Z</time>
      </trkpt>
      <trkpt lat="45.16438" lon="5.93168">
        <ele>2309</ele>
        <time>2022-01-22T13:10:26Z</time>
      </trkpt>
      <trkpt lat="45.16437" lon="5.9317">
        <ele>2308</ele>
        <time>2022-01-22T13:10:32Z</time>
      </trkpt>
      <trkpt lat="45.16435" lon="5.93172">
        <ele>2307</ele>
        <time>2022-01-22T13:10:34Z</time>
      </trkpt>
      <trkpt lat="45.16431" lon="5.93174">
        <ele>2306</ele>
        <time>2022-01-22T13:10:36Z</time>
      </trkpt>
      <trkpt lat="45.1643" lon="5.93177">
        <ele>2305</ele>
        <time>2022-01-22T13:10:38Z</time>
      </trkpt>
      <trkpt lat="45.1643" lon="5.9318">
        <ele>2304</ele>
        <time>2022-01-22T13:10:42Z</time>
      </trkpt>
      <trkpt lat="45.16432" lon="5.93182">
        <ele>2302</ele>
        <time>2022-01-22T13:10:45Z</time>
      </trkpt>
      <trkpt lat="45.16434" lon="5.93182">
        <ele>2302</ele>
        <time>2022-01-22T13:10:49Z</time>
      </trkpt>
      <trkpt lat="45.16433" lon="5.93187">
        <ele>2298</ele>
        <time>2022-01-22T13:11:04Z</time>
      </trkpt>
      <trkpt lat="45.16431" lon="5.9319">
        <ele>2298</ele>
        <time>2022-01-22T13:11:05Z</time>
      </trkpt>
      <trkpt lat="45.16426" lon="5.93195">
        <ele>2295</ele>
        <time>2022-01-22T13:11:08Z</time>
      </trkpt>
      <trkpt lat="45.16424" lon="5.93198">
        <ele>2295</ele>
        <time>2022-01-22T13:11:09Z</time>
      </trkpt>
      <trkpt lat="45.16422" lon="5.93202">
        <ele>2294</ele>
        <time>2022-01-22T13:11:10Z</time>
      </trkpt>
      <trkpt lat="45.1642" lon="5.93206">
        <ele>2294</ele>
        <time>2022-01-22T13:11:11Z</time>
      </trkpt>
      <trkpt lat="45.16418" lon="5.93209">
        <ele>2293</ele>
        <time>2022-01-22T13:11:12Z</time>
      </trkpt>
      <trkpt lat="45.16416" lon="5.93212">
        <ele>2292</ele>
        <time>2022-01-22T13:11:13Z</time>
      </trkpt>
      <trkpt lat="45.16414" lon="5.93215">
        <ele>2291</ele>
        <time>2022-01-22T13:11:14Z</time>
      </trkpt>
      <trkpt lat="45.16412" lon="5.93219">
        <ele>2290</ele>
        <time>2022-01-22T13:11:15Z</time>
      </trkpt>
      <trkpt lat="45.16409" lon="5.93222">
        <ele>2290</ele>
        <time>2022-01-22T13:11:16Z</time>
      </trkpt>
      <trkpt lat="45.16407" lon="5.93226">
        <ele>2289</ele>
        <time>2022-01-22T13:11:17Z</time>
      </trkpt>
      <trkpt lat="45.16404" lon="5.93229">
        <ele>2288</ele>
        <time>2022-01-22T13:11:18Z</time>
      </trkpt>
      <trkpt lat="45.16402" lon="5.93231">
        <ele>2287</ele>
        <time>2022-01-22T13:11:19Z</time>
      </trkpt>
      <trkpt lat="45.16401" lon="5.93235">
        <ele>2286</ele>
        <time>2022-01-22T13:11:20Z</time>
      </trkpt>
      <trkpt lat="45.16402" lon="5.93237">
        <ele>2285</ele>
        <time>2022-01-22T13:11:21Z</time>
      </trkpt>
      <trkpt lat="45.16405" lon="5.93237">
        <ele>2282</ele>
        <time>2022-01-22T13:11:23Z</time>
      </trkpt>
      <trkpt lat="45.16409" lon="5.93237">
        <ele>2282</ele>
        <time>2022-01-22T13:11:25Z</time>
      </trkpt>
      <trkpt lat="45.16418" lon="5.93236">
        <ele>2280</ele>
        <time>2022-01-22T13:11:31Z</time>
      </trkpt>
      <trkpt lat="45.16418" lon="5.93233">
        <ele>2278</ele>
        <time>2022-01-22T13:11:53Z</time>
      </trkpt>
      <trkpt lat="45.16419" lon="5.9323">
        <ele>2278</ele>
        <time>2022-01-22T13:12:34Z</time>
      </trkpt>
      <trkpt lat="45.16416" lon="5.93236">
        <ele>2277</ele>
        <time>2022-01-22T13:12:43Z</time>
      </trkpt>
      <trkpt lat="45.16413" lon="5.93239">
        <ele>2277</ele>
        <time>2022-01-22T13:12:44Z</time>
      </trkpt>
      <trkpt lat="45.1641" lon="5.93242">
        <ele>2277</ele>
        <time>2022-01-22T13:12:45Z</time>
      </trkpt>
      <trkpt lat="45.16407" lon="5.93245">
        <ele>2276</ele>
        <time>2022-01-22T13:12:46Z</time>
      </trkpt>
      <trkpt lat="45.16404" lon="5.93247">
        <ele>2275</ele>
        <time>2022-01-22T13:12:47Z</time>
      </trkpt>
      <trkpt lat="45.16401" lon="5.93249">
        <ele>2275</ele>
        <time>2022-01-22T13:12:48Z</time>
      </trkpt>
      <trkpt lat="45.16398" lon="5.93251">
        <ele>2273</ele>
        <time>2022-01-22T13:12:49Z</time>
      </trkpt>
      <trkpt lat="45.16395" lon="5.93252">
        <ele>2272</ele>
        <time>2022-01-22T13:12:50Z</time>
      </trkpt>
      <trkpt lat="45.16389" lon="5.93257">
        <ele>2272</ele>
        <time>2022-01-22T13:12:52Z</time>
      </trkpt>
      <trkpt lat="45.16385" lon="5.9326">
        <ele>2272</ele>
        <time>2022-01-22T13:12:53Z</time>
      </trkpt>
      <trkpt lat="45.16383" lon="5.93262">
        <ele>2271</ele>
        <time>2022-01-22T13:12:54Z</time>
      </trkpt>
      <trkpt lat="45.16381" lon="5.93265">
        <ele>2270</ele>
        <time>2022-01-22T13:12:55Z</time>
      </trkpt>
      <trkpt lat="45.1638" lon="5.93269">
        <ele>2269</ele>
        <time>2022-01-22T13:12:56Z</time>
      </trkpt>
      <trkpt lat="45.16379" lon="5.93271">
        <ele>2268</ele>
        <time>2022-01-22T13:12:57Z</time>
      </trkpt>
      <trkpt lat="45.16381" lon="5.93275">
        <ele>2267</ele>
        <time>2022-01-22T13:12:59Z</time>
      </trkpt>
      <trkpt lat="45.16384" lon="5.93274">
        <ele>2266</ele>
        <time>2022-01-22T13:13:00Z</time>
      </trkpt>
      <trkpt lat="45.16387" lon="5.93274">
        <ele>2266</ele>
        <time>2022-01-22T13:13:01Z</time>
      </trkpt>
      <trkpt lat="45.16389" lon="5.93276">
        <ele>2266</ele>
        <time>2022-01-22T13:13:02Z</time>
      </trkpt>
      <trkpt lat="45.16389" lon="5.93279">
        <ele>2264</ele>
        <time>2022-01-22T13:13:03Z</time>
      </trkpt>
      <trkpt lat="45.16388" lon="5.93282">
        <ele>2263</ele>
        <time>2022-01-22T13:13:04Z</time>
      </trkpt>
      <trkpt lat="45.16387" lon="5.93285">
        <ele>2262</ele>
        <time>2022-01-22T13:13:05Z</time>
      </trkpt>
      <trkpt lat="45.16386" lon="5.93287">
        <ele>2261</ele>
        <time>2022-01-22T13:13:06Z</time>
      </trkpt>
      <trkpt lat="45.16383" lon="5.93293">
        <ele>2260</ele>
        <time>2022-01-22T13:13:08Z</time>
      </trkpt>
      <trkpt lat="45.16383" lon="5.93296">
        <ele>2260</ele>
        <time>2022-01-22T13:13:09Z</time>
      </trkpt>
      <trkpt lat="45.16379" lon="5.93307">
        <ele>2259</ele>
        <time>2022-01-22T13:13:11Z</time>
      </trkpt>
      <trkpt lat="45.16379" lon="5.93318">
        <ele>2256</ele>
        <time>2022-01-22T13:13:14Z</time>
      </trkpt>
      <trkpt lat="45.16389" lon="5.93317">
        <ele>2256</ele>
        <time>2022-01-22T13:13:16Z</time>
      </trkpt>
      <trkpt lat="45.16399" lon="5.93317">
        <ele>2255</ele>
        <time>2022-01-22T13:13:19Z</time>
      </trkpt>
      <trkpt lat="45.16405" lon="5.93321">
        <ele>2254</ele>
        <time>2022-01-22T13:13:20Z</time>
      </trkpt>
      <trkpt lat="45.16407" lon="5.93322">
        <ele>2252</ele>
        <time>2022-01-22T13:13:22Z</time>
      </trkpt>
      <trkpt lat="45.1641" lon="5.93325">
        <ele>2251</ele>
        <time>2022-01-22T13:13:27Z</time>
      </trkpt>
      <trkpt lat="45.1641" lon="5.93321">
        <ele>2250</ele>
        <time>2022-01-22T13:13:28Z</time>
      </trkpt>
      <trkpt lat="45.16413" lon="5.93316">
        <ele>2250</ele>
        <time>2022-01-22T13:13:30Z</time>
      </trkpt>
      <trkpt lat="45.16416" lon="5.93317">
        <ele>2249</ele>
        <time>2022-01-22T13:13:32Z</time>
      </trkpt>
      <trkpt lat="45.16418" lon="5.93317">
        <ele>2247</ele>
        <time>2022-01-22T13:13:34Z</time>
      </trkpt>
      <trkpt lat="45.16433" lon="5.93324">
        <ele>2244</ele>
        <time>2022-01-22T13:13:39Z</time>
      </trkpt>
      <trkpt lat="45.16436" lon="5.93324">
        <ele>2244</ele>
        <time>2022-01-22T13:13:40Z</time>
      </trkpt>
      <trkpt lat="45.16438" lon="5.93326">
        <ele>2243</ele>
        <time>2022-01-22T13:13:41Z</time>
      </trkpt>
      <trkpt lat="45.16441" lon="5.93328">
        <ele>2242</ele>
        <time>2022-01-22T13:13:42Z</time>
      </trkpt>
      <trkpt lat="45.16449" lon="5.9333">
        <ele>2241</ele>
        <time>2022-01-22T13:13:44Z</time>
      </trkpt>
      <trkpt lat="45.16454" lon="5.93331">
        <ele>2241</ele>
        <time>2022-01-22T13:13:45Z</time>
      </trkpt>
      <trkpt lat="45.1646" lon="5.93332">
        <ele>2240</ele>
        <time>2022-01-22T13:13:46Z</time>
      </trkpt>
      <trkpt lat="45.16466" lon="5.93331">
        <ele>2239</ele>
        <time>2022-01-22T13:13:47Z</time>
      </trkpt>
      <trkpt lat="45.16469" lon="5.93331">
        <ele>2238</ele>
        <time>2022-01-22T13:13:48Z</time>
      </trkpt>
      <trkpt lat="45.16471" lon="5.93331">
        <ele>2238</ele>
        <time>2022-01-22T13:13:50Z</time>
      </trkpt>
      <trkpt lat="45.16469" lon="5.93333">
        <ele>2238</ele>
        <time>2022-01-22T13:14:14Z</time>
      </trkpt>
      <trkpt lat="45.16467" lon="5.93332">
        <ele>2238</ele>
        <time>2022-01-22T13:14:16Z</time>
      </trkpt>
      <trkpt lat="45.16463" lon="5.93336">
        <ele>2238</ele>
        <time>2022-01-22T13:14:19Z</time>
      </trkpt>
      <trkpt lat="45.16464" lon="5.93341">
        <ele>2237</ele>
        <time>2022-01-22T13:14:20Z</time>
      </trkpt>
      <trkpt lat="45.16464" lon="5.93347">
        <ele>2237</ele>
        <time>2022-01-22T13:14:21Z</time>
      </trkpt>
      <trkpt lat="45.16462" lon="5.93353">
        <ele>2236</ele>
        <time>2022-01-22T13:14:22Z</time>
      </trkpt>
      <trkpt lat="45.16461" lon="5.93368">
        <ele>2235</ele>
        <time>2022-01-22T13:14:24Z</time>
      </trkpt>
      <trkpt lat="45.16461" lon="5.93375">
        <ele>2234</ele>
        <time>2022-01-22T13:14:25Z</time>
      </trkpt>
      <trkpt lat="45.16462" lon="5.93381">
        <ele>2233</ele>
        <time>2022-01-22T13:14:26Z</time>
      </trkpt>
      <trkpt lat="45.16464" lon="5.93387">
        <ele>2232</ele>
        <time>2022-01-22T13:14:27Z</time>
      </trkpt>
      <trkpt lat="45.16466" lon="5.93392">
        <ele>2231</ele>
        <time>2022-01-22T13:14:28Z</time>
      </trkpt>
      <trkpt lat="45.16469" lon="5.93397">
        <ele>2230</ele>
        <time>2022-01-22T13:14:29Z</time>
      </trkpt>
      <trkpt lat="45.16471" lon="5.93402">
        <ele>2231</ele>
        <time>2022-01-22T13:14:30Z</time>
      </trkpt>
      <trkpt lat="45.16473" lon="5.93406">
        <ele>2231</ele>
        <time>2022-01-22T13:14:31Z</time>
      </trkpt>
      <trkpt lat="45.16474" lon="5.93413">
        <ele>2229</ele>
        <time>2022-01-22T13:14:33Z</time>
      </trkpt>
      <trkpt lat="45.16474" lon="5.93417">
        <ele>2229</ele>
        <time>2022-01-22T13:14:34Z</time>
      </trkpt>
      <trkpt lat="45.16474" lon="5.93419">
        <ele>2229</ele>
        <time>2022-01-22T13:14:35Z</time>
      </trkpt>
      <trkpt lat="45.16474" lon="5.93423">
        <ele>2229</ele>
        <time>2022-01-22T13:14:36Z</time>
      </trkpt>
      <trkpt lat="45.16475" lon="5.93427">
        <ele>2229</ele>
        <time>2022-01-22T13:14:37Z</time>
      </trkpt>
      <trkpt lat="45.16474" lon="5.93435">
        <ele>2229</ele>
        <time>2022-01-22T13:14:39Z</time>
      </trkpt>
      <trkpt lat="45.16481" lon="5.93444">
        <ele>2226</ele>
        <time>2022-01-22T13:14:44Z</time>
      </trkpt>
      <trkpt lat="45.1649" lon="5.93449">
        <ele>2223</ele>
        <time>2022-01-22T13:14:47Z</time>
      </trkpt>
      <trkpt lat="45.16495" lon="5.93464">
        <ele>2220</ele>
        <time>2022-01-22T13:14:51Z</time>
      </trkpt>
      <trkpt lat="45.16493" lon="5.9348">
        <ele>2217</ele>
        <time>2022-01-22T13:14:54Z</time>
      </trkpt>
      <trkpt lat="45.1649" lon="5.93497">
        <ele>2214</ele>
        <time>2022-01-22T13:14:57Z</time>
      </trkpt>
      <trkpt lat="45.16489" lon="5.93511">
        <ele>2212</ele>
        <time>2022-01-22T13:15:00Z</time>
      </trkpt>
      <trkpt lat="45.1649" lon="5.93524">
        <ele>2210</ele>
        <time>2022-01-22T13:15:04Z</time>
      </trkpt>
      <trkpt lat="45.16491" lon="5.9354">
        <ele>2208</ele>
        <time>2022-01-22T13:15:21Z</time>
      </trkpt>
      <trkpt lat="45.16495" lon="5.93555">
        <ele>2200</ele>
        <time>2022-01-22T13:15:31Z</time>
      </trkpt>
      <trkpt lat="45.16504" lon="5.93544">
        <ele>2195</ele>
        <time>2022-01-22T13:15:35Z</time>
      </trkpt>
      <trkpt lat="45.16511" lon="5.93554">
        <ele>2192</ele>
        <time>2022-01-22T13:15:40Z</time>
      </trkpt>
      <trkpt lat="45.16509" lon="5.93566">
        <ele>2191</ele>
        <time>2022-01-22T13:15:44Z</time>
      </trkpt>
      <trkpt lat="45.16516" lon="5.93575">
        <ele>2186</ele>
        <time>2022-01-22T13:15:50Z</time>
      </trkpt>
      <trkpt lat="45.16512" lon="5.93589">
        <ele>2182</ele>
        <time>2022-01-22T13:15:54Z</time>
      </trkpt>
      <trkpt lat="45.16514" lon="5.93604">
        <ele>2179</ele>
        <time>2022-01-22T13:16:16Z</time>
      </trkpt>
      <trkpt lat="45.16513" lon="5.9362">
        <ele>2176</ele>
        <time>2022-01-22T13:16:21Z</time>
      </trkpt>
      <trkpt lat="45.16512" lon="5.93637">
        <ele>2174</ele>
        <time>2022-01-22T13:16:24Z</time>
      </trkpt>
      <trkpt lat="45.16515" lon="5.93649">
        <ele>2166</ele>
        <time>2022-01-22T13:16:34Z</time>
      </trkpt>
      <trkpt lat="45.16512" lon="5.93665">
        <ele>2163</ele>
        <time>2022-01-22T13:16:37Z</time>
      </trkpt>
      <trkpt lat="45.1651" lon="5.93683">
        <ele>2161</ele>
        <time>2022-01-22T13:16:40Z</time>
      </trkpt>
      <trkpt lat="45.16508" lon="5.93701">
        <ele>2158</ele>
        <time>2022-01-22T13:16:43Z</time>
      </trkpt>
      <trkpt lat="45.16506" lon="5.93716">
        <ele>2155</ele>
        <time>2022-01-22T13:16:47Z</time>
      </trkpt>
      <trkpt lat="45.16504" lon="5.9373">
        <ele>2152</ele>
        <time>2022-01-22T13:16:52Z</time>
      </trkpt>
      <trkpt lat="45.16506" lon="5.93746">
        <ele>2147</ele>
        <time>2022-01-22T13:17:01Z</time>
      </trkpt>
      <trkpt lat="45.16507" lon="5.9376">
        <ele>2145</ele>
        <time>2022-01-22T13:17:04Z</time>
      </trkpt>
      <trkpt lat="45.16508" lon="5.93774">
        <ele>2140</ele>
        <time>2022-01-22T13:17:09Z</time>
      </trkpt>
      <trkpt lat="45.16505" lon="5.93787">
        <ele>2138</ele>
        <time>2022-01-22T13:17:11Z</time>
      </trkpt>
      <trkpt lat="45.16502" lon="5.93799">
        <ele>2135</ele>
        <time>2022-01-22T13:17:14Z</time>
      </trkpt>
      <trkpt lat="45.16498" lon="5.93812">
        <ele>2135</ele>
        <time>2022-01-22T13:17:17Z</time>
      </trkpt>
      <trkpt lat="45.16494" lon="5.93826">
        <ele>2132</ele>
        <time>2022-01-22T13:17:20Z</time>
      </trkpt>
      <trkpt lat="45.16491" lon="5.93841">
        <ele>2129</ele>
        <time>2022-01-22T13:17:23Z</time>
      </trkpt>
      <trkpt lat="45.1649" lon="5.93855">
        <ele>2128</ele>
        <time>2022-01-22T13:17:26Z</time>
      </trkpt>
      <trkpt lat="45.16482" lon="5.93866">
        <ele>2125</ele>
        <time>2022-01-22T13:17:29Z</time>
      </trkpt>
      <trkpt lat="45.16483" lon="5.93876">
        <ele>2121</ele>
        <time>2022-01-22T13:17:47Z</time>
      </trkpt>
      <trkpt lat="45.16483" lon="5.93883">
        <ele>2119</ele>
        <time>2022-01-22T13:17:49Z</time>
      </trkpt>
      <trkpt lat="45.16484" lon="5.93887">
        <ele>2117</ele>
        <time>2022-01-22T13:17:50Z</time>
      </trkpt>
      <trkpt lat="45.1649" lon="5.93891">
        <ele>2114</ele>
        <time>2022-01-22T13:17:54Z</time>
      </trkpt>
      <trkpt lat="45.16491" lon="5.93895">
        <ele>2113</ele>
        <time>2022-01-22T13:17:55Z</time>
      </trkpt>
      <trkpt lat="45.165" lon="5.93897">
        <ele>2107</ele>
        <time>2022-01-22T13:18:05Z</time>
      </trkpt>
      <trkpt lat="45.16509" lon="5.93899">
        <ele>2104</ele>
        <time>2022-01-22T13:18:10Z</time>
      </trkpt>
      <trkpt lat="45.16519" lon="5.93897">
        <ele>2100</ele>
        <time>2022-01-22T13:18:16Z</time>
      </trkpt>
      <trkpt lat="45.16528" lon="5.93902">
        <ele>2097</ele>
        <time>2022-01-22T13:18:23Z</time>
      </trkpt>
      <trkpt lat="45.16537" lon="5.93911">
        <ele>2091</ele>
        <time>2022-01-22T13:18:33Z</time>
      </trkpt>
      <trkpt lat="45.1655" lon="5.93915">
        <ele>2088</ele>
        <time>2022-01-22T13:18:36Z</time>
      </trkpt>
      <trkpt lat="45.16557" lon="5.93925">
        <ele>2085</ele>
        <time>2022-01-22T13:18:41Z</time>
      </trkpt>
      <trkpt lat="45.16563" lon="5.93928">
        <ele>2083</ele>
        <time>2022-01-22T13:18:43Z</time>
      </trkpt>
      <trkpt lat="45.16565" lon="5.93931">
        <ele>2083</ele>
        <time>2022-01-22T13:18:44Z</time>
      </trkpt>
      <trkpt lat="45.16567" lon="5.93944">
        <ele>2079</ele>
        <time>2022-01-22T13:19:00Z</time>
      </trkpt>
      <trkpt lat="45.16575" lon="5.93953">
        <ele>2078</ele>
        <time>2022-01-22T13:19:04Z</time>
      </trkpt>
      <trkpt lat="45.16581" lon="5.93965">
        <ele>2073</ele>
        <time>2022-01-22T13:19:11Z</time>
      </trkpt>
      <trkpt lat="45.16588" lon="5.93977">
        <ele>2072</ele>
        <time>2022-01-22T13:19:15Z</time>
      </trkpt>
      <trkpt lat="45.16591" lon="5.9399">
        <ele>2071</ele>
        <time>2022-01-22T13:19:19Z</time>
      </trkpt>
      <trkpt lat="45.16597" lon="5.94004">
        <ele>2070</ele>
        <time>2022-01-22T13:19:24Z</time>
      </trkpt>
      <trkpt lat="45.16598" lon="5.94007">
        <ele>2070</ele>
        <time>2022-01-22T13:19:25Z</time>
      </trkpt>
      <trkpt lat="45.16599" lon="5.9401">
        <ele>2070</ele>
        <time>2022-01-22T13:19:26Z</time>
      </trkpt>
      <trkpt lat="45.166" lon="5.94013">
        <ele>2070</ele>
        <time>2022-01-22T13:19:27Z</time>
      </trkpt>
      <trkpt lat="45.166" lon="5.94019">
        <ele>2070</ele>
        <time>2022-01-22T13:19:29Z</time>
      </trkpt>
      <trkpt lat="45.16601" lon="5.94022">
        <ele>2070</ele>
        <time>2022-01-22T13:19:30Z</time>
      </trkpt>
      <trkpt lat="45.16601" lon="5.94025">
        <ele>2069</ele>
        <time>2022-01-22T13:19:31Z</time>
      </trkpt>
      <trkpt lat="45.16599" lon="5.94031">
        <ele>2069</ele>
        <time>2022-01-22T13:19:34Z</time>
      </trkpt>
      <trkpt lat="45.16599" lon="5.94034">
        <ele>2069</ele>
        <time>2022-01-22T13:19:39Z</time>
      </trkpt>
      <trkpt lat="45.16598" lon="5.94039">
        <ele>2069</ele>
        <time>2022-01-22T13:19:40Z</time>
      </trkpt>
      <trkpt lat="45.16598" lon="5.94043">
        <ele>2069</ele>
        <time>2022-01-22T13:19:42Z</time>
      </trkpt>
      <trkpt lat="45.16597" lon="5.94046">
        <ele>2069</ele>
        <time>2022-01-22T13:19:44Z</time>
      </trkpt>
      <trkpt lat="45.16597" lon="5.94049">
        <ele>2069</ele>
        <time>2022-01-22T13:19:47Z</time>
      </trkpt>
      <trkpt lat="45.16597" lon="5.94052">
        <ele>2070</ele>
        <time>2022-01-22T13:19:50Z</time>
      </trkpt>
      <trkpt lat="45.16598" lon="5.94055">
        <ele>2069</ele>
        <time>2022-01-22T13:19:52Z</time>
      </trkpt>
      <trkpt lat="45.16598" lon="5.94057">
        <ele>2069</ele>
        <time>2022-01-22T13:19:53Z</time>
      </trkpt>
      <trkpt lat="45.16599" lon="5.94061">
        <ele>2069</ele>
        <time>2022-01-22T13:19:54Z</time>
      </trkpt>
      <trkpt lat="45.166" lon="5.94064">
        <ele>2069</ele>
        <time>2022-01-22T13:19:55Z</time>
      </trkpt>
      <trkpt lat="45.16601" lon="5.94069">
        <ele>2068</ele>
        <time>2022-01-22T13:19:57Z</time>
      </trkpt>
      <trkpt lat="45.16601" lon="5.94072">
        <ele>2069</ele>
        <time>2022-01-22T13:20:00Z</time>
      </trkpt>
      <trkpt lat="45.16602" lon="5.94075">
        <ele>2068</ele>
        <time>2022-01-22T13:20:02Z</time>
      </trkpt>
      <trkpt lat="45.16602" lon="5.94078">
        <ele>2068</ele>
        <time>2022-01-22T13:20:05Z</time>
      </trkpt>
      <trkpt lat="45.16601" lon="5.94081">
        <ele>2068</ele>
        <time>2022-01-22T13:20:07Z</time>
      </trkpt>
      <trkpt lat="45.166" lon="5.94086">
        <ele>2068</ele>
        <time>2022-01-22T13:20:09Z</time>
      </trkpt>
      <trkpt lat="45.16599" lon="5.94089">
        <ele>2067</ele>
        <time>2022-01-22T13:20:10Z</time>
      </trkpt>
      <trkpt lat="45.16598" lon="5.94092">
        <ele>2065</ele>
        <time>2022-01-22T13:20:11Z</time>
      </trkpt>
      <trkpt lat="45.16598" lon="5.94095">
        <ele>2064</ele>
        <time>2022-01-22T13:20:12Z</time>
      </trkpt>
      <trkpt lat="45.166" lon="5.94096">
        <ele>2064</ele>
        <time>2022-01-22T13:20:13Z</time>
      </trkpt>
      <trkpt lat="45.16602" lon="5.94098">
        <ele>2064</ele>
        <time>2022-01-22T13:20:14Z</time>
      </trkpt>
      <trkpt lat="45.16604" lon="5.94099">
        <ele>2064</ele>
        <time>2022-01-22T13:20:15Z</time>
      </trkpt>
      <trkpt lat="45.16606" lon="5.94101">
        <ele>2063</ele>
        <time>2022-01-22T13:20:16Z</time>
      </trkpt>
      <trkpt lat="45.16608" lon="5.94104">
        <ele>2064</ele>
        <time>2022-01-22T13:20:17Z</time>
      </trkpt>
      <trkpt lat="45.16609" lon="5.94106">
        <ele>2064</ele>
        <time>2022-01-22T13:20:18Z</time>
      </trkpt>
      <trkpt lat="45.1661" lon="5.94111">
        <ele>2063</ele>
        <time>2022-01-22T13:20:20Z</time>
      </trkpt>
      <trkpt lat="45.16611" lon="5.94113">
        <ele>2063</ele>
        <time>2022-01-22T13:20:21Z</time>
      </trkpt>
      <trkpt lat="45.16612" lon="5.94117">
        <ele>2062</ele>
        <time>2022-01-22T13:20:22Z</time>
      </trkpt>
      <trkpt lat="45.16614" lon="5.94123">
        <ele>2062</ele>
        <time>2022-01-22T13:20:24Z</time>
      </trkpt>
      <trkpt lat="45.16616" lon="5.94126">
        <ele>2061</ele>
        <time>2022-01-22T13:20:25Z</time>
      </trkpt>
      <trkpt lat="45.16618" lon="5.94129">
        <ele>2061</ele>
        <time>2022-01-22T13:20:26Z</time>
      </trkpt>
      <trkpt lat="45.1662" lon="5.94132">
        <ele>2060</ele>
        <time>2022-01-22T13:20:27Z</time>
      </trkpt>
      <trkpt lat="45.16625" lon="5.94133">
        <ele>2059</ele>
        <time>2022-01-22T13:20:29Z</time>
      </trkpt>
      <trkpt lat="45.16628" lon="5.94134">
        <ele>2058</ele>
        <time>2022-01-22T13:20:30Z</time>
      </trkpt>
      <trkpt lat="45.16632" lon="5.94135">
        <ele>2058</ele>
        <time>2022-01-22T13:20:31Z</time>
      </trkpt>
      <trkpt lat="45.16637" lon="5.94135">
        <ele>2057</ele>
        <time>2022-01-22T13:20:32Z</time>
      </trkpt>
      <trkpt lat="45.16648" lon="5.94131">
        <ele>2055</ele>
        <time>2022-01-22T13:20:34Z</time>
      </trkpt>
      <trkpt lat="45.16653" lon="5.94128">
        <ele>2054</ele>
        <time>2022-01-22T13:20:35Z</time>
      </trkpt>
      <trkpt lat="45.16659" lon="5.94125">
        <ele>2053</ele>
        <time>2022-01-22T13:20:36Z</time>
      </trkpt>
      <trkpt lat="45.16664" lon="5.94122">
        <ele>2053</ele>
        <time>2022-01-22T13:20:37Z</time>
      </trkpt>
      <trkpt lat="45.16669" lon="5.94118">
        <ele>2052</ele>
        <time>2022-01-22T13:20:38Z</time>
      </trkpt>
      <trkpt lat="45.16674" lon="5.94114">
        <ele>2051</ele>
        <time>2022-01-22T13:20:39Z</time>
      </trkpt>
      <trkpt lat="45.16678" lon="5.94109">
        <ele>2050</ele>
        <time>2022-01-22T13:20:40Z</time>
      </trkpt>
      <trkpt lat="45.16683" lon="5.94104">
        <ele>2049</ele>
        <time>2022-01-22T13:20:41Z</time>
      </trkpt>
      <trkpt lat="45.16687" lon="5.94098">
        <ele>2048</ele>
        <time>2022-01-22T13:20:42Z</time>
      </trkpt>
      <trkpt lat="45.16693" lon="5.94088">
        <ele>2048</ele>
        <time>2022-01-22T13:20:44Z</time>
      </trkpt>
      <trkpt lat="45.16697" lon="5.94083">
        <ele>2048</ele>
        <time>2022-01-22T13:20:45Z</time>
      </trkpt>
      <trkpt lat="45.167" lon="5.94079">
        <ele>2048</ele>
        <time>2022-01-22T13:20:46Z</time>
      </trkpt>
      <trkpt lat="45.16703" lon="5.94075">
        <ele>2048</ele>
        <time>2022-01-22T13:20:47Z</time>
      </trkpt>
      <trkpt lat="45.16706" lon="5.94071">
        <ele>2047</ele>
        <time>2022-01-22T13:20:48Z</time>
      </trkpt>
      <trkpt lat="45.16708" lon="5.94066">
        <ele>2047</ele>
        <time>2022-01-22T13:20:49Z</time>
      </trkpt>
      <trkpt lat="45.16711" lon="5.9406">
        <ele>2046</ele>
        <time>2022-01-22T13:20:50Z</time>
      </trkpt>
      <trkpt lat="45.16713" lon="5.94054">
        <ele>2046</ele>
        <time>2022-01-22T13:20:51Z</time>
      </trkpt>
      <trkpt lat="45.16717" lon="5.94048">
        <ele>2046</ele>
        <time>2022-01-22T13:20:52Z</time>
      </trkpt>
      <trkpt lat="45.16721" lon="5.94041">
        <ele>2044</ele>
        <time>2022-01-22T13:20:53Z</time>
      </trkpt>
      <trkpt lat="45.16725" lon="5.94031">
        <ele>2043</ele>
        <time>2022-01-22T13:20:54Z</time>
      </trkpt>
      <trkpt lat="45.16729" lon="5.94022">
        <ele>2041</ele>
        <time>2022-01-22T13:20:55Z</time>
      </trkpt>
      <trkpt lat="45.16734" lon="5.94012">
        <ele>2039</ele>
        <time>2022-01-22T13:20:56Z</time>
      </trkpt>
      <trkpt lat="45.16738" lon="5.94003">
        <ele>2039</ele>
        <time>2022-01-22T13:20:57Z</time>
      </trkpt>
      <trkpt lat="45.16745" lon="5.93987">
        <ele>2037</ele>
        <time>2022-01-22T13:20:59Z</time>
      </trkpt>
      <trkpt lat="45.1675" lon="5.93972">
        <ele>2036</ele>
        <time>2022-01-22T13:21:01Z</time>
      </trkpt>
      <trkpt lat="45.16752" lon="5.93964">
        <ele>2035</ele>
        <time>2022-01-22T13:21:02Z</time>
      </trkpt>
      <trkpt lat="45.16754" lon="5.93957">
        <ele>2035</ele>
        <time>2022-01-22T13:21:03Z</time>
      </trkpt>
      <trkpt lat="45.16755" lon="5.9395">
        <ele>2034</ele>
        <time>2022-01-22T13:21:04Z</time>
      </trkpt>
      <trkpt lat="45.16756" lon="5.93944">
        <ele>2034</ele>
        <time>2022-01-22T13:21:05Z</time>
      </trkpt>
      <trkpt lat="45.16756" lon="5.93939">
        <ele>2034</ele>
        <time>2022-01-22T13:21:06Z</time>
      </trkpt>
      <trkpt lat="45.16756" lon="5.93934">
        <ele>2034</ele>
        <time>2022-01-22T13:21:07Z</time>
      </trkpt>
      <trkpt lat="45.16757" lon="5.9393">
        <ele>2034</ele>
        <time>2022-01-22T13:21:08Z</time>
      </trkpt>
      <trkpt lat="45.16758" lon="5.93927">
        <ele>2034</ele>
        <time>2022-01-22T13:21:09Z</time>
      </trkpt>
      <trkpt lat="45.16759" lon="5.93923">
        <ele>2034</ele>
        <time>2022-01-22T13:21:11Z</time>
      </trkpt>
      <trkpt lat="45.16761" lon="5.93921">
        <ele>2034</ele>
        <time>2022-01-22T13:21:14Z</time>
      </trkpt>
      <trkpt lat="45.16763" lon="5.93921">
        <ele>2033</ele>
        <time>2022-01-22T13:21:16Z</time>
      </trkpt>
      <trkpt lat="45.16765" lon="5.93921">
        <ele>2033</ele>
        <time>2022-01-22T13:21:18Z</time>
      </trkpt>
      <trkpt lat="45.16764" lon="5.93923">
        <ele>2034</ele>
        <time>2022-01-22T13:21:45Z</time>
      </trkpt>
      <trkpt lat="45.16766" lon="5.93921">
        <ele>2033</ele>
        <time>2022-01-22T13:22:00Z</time>
      </trkpt>
      <trkpt lat="45.16767" lon="5.9392">
        <ele>2033</ele>
        <time>2022-01-22T13:22:02Z</time>
      </trkpt>
      <trkpt lat="45.1677" lon="5.93915">
        <ele>2033</ele>
        <time>2022-01-22T13:22:05Z</time>
      </trkpt>
      <trkpt lat="45.16775" lon="5.93907">
        <ele>2033</ele>
        <time>2022-01-22T13:22:07Z</time>
      </trkpt>
      <trkpt lat="45.16779" lon="5.93906">
        <ele>2032</ele>
        <time>2022-01-22T13:22:09Z</time>
      </trkpt>
      <trkpt lat="45.16782" lon="5.93905">
        <ele>2031</ele>
        <time>2022-01-22T13:22:10Z</time>
      </trkpt>
      <trkpt lat="45.16785" lon="5.93904">
        <ele>2030</ele>
        <time>2022-01-22T13:22:11Z</time>
      </trkpt>
      <trkpt lat="45.16788" lon="5.93903">
        <ele>2029</ele>
        <time>2022-01-22T13:22:12Z</time>
      </trkpt>
      <trkpt lat="45.16792" lon="5.93901">
        <ele>2028</ele>
        <time>2022-01-22T13:22:13Z</time>
      </trkpt>
      <trkpt lat="45.16798" lon="5.93898">
        <ele>2028</ele>
        <time>2022-01-22T13:22:14Z</time>
      </trkpt>
      <trkpt lat="45.16805" lon="5.93897">
        <ele>2026</ele>
        <time>2022-01-22T13:22:15Z</time>
      </trkpt>
      <trkpt lat="45.16817" lon="5.93902">
        <ele>2023</ele>
        <time>2022-01-22T13:22:16Z</time>
      </trkpt>
      <trkpt lat="45.16823" lon="5.93904">
        <ele>2022</ele>
        <time>2022-01-22T13:22:17Z</time>
      </trkpt>
      <trkpt lat="45.16836" lon="5.93905">
        <ele>2019</ele>
        <time>2022-01-22T13:22:19Z</time>
      </trkpt>
      <trkpt lat="45.16842" lon="5.93904">
        <ele>2018</ele>
        <time>2022-01-22T13:22:20Z</time>
      </trkpt>
      <trkpt lat="45.16847" lon="5.93901">
        <ele>2018</ele>
        <time>2022-01-22T13:22:21Z</time>
      </trkpt>
      <trkpt lat="45.16853" lon="5.93898">
        <ele>2018</ele>
        <time>2022-01-22T13:22:22Z</time>
      </trkpt>
      <trkpt lat="45.16858" lon="5.93895">
        <ele>2017</ele>
        <time>2022-01-22T13:22:24Z</time>
      </trkpt>
      <trkpt lat="45.16863" lon="5.93892">
        <ele>2016</ele>
        <time>2022-01-22T13:22:25Z</time>
      </trkpt>
      <trkpt lat="45.16868" lon="5.93887">
        <ele>2015</ele>
        <time>2022-01-22T13:22:26Z</time>
      </trkpt>
      <trkpt lat="45.16873" lon="5.93883">
        <ele>2015</ele>
        <time>2022-01-22T13:22:27Z</time>
      </trkpt>
      <trkpt lat="45.16877" lon="5.93878">
        <ele>2013</ele>
        <time>2022-01-22T13:22:28Z</time>
      </trkpt>
      <trkpt lat="45.16881" lon="5.93873">
        <ele>2013</ele>
        <time>2022-01-22T13:22:29Z</time>
      </trkpt>
      <trkpt lat="45.16884" lon="5.93867">
        <ele>2012</ele>
        <time>2022-01-22T13:22:30Z</time>
      </trkpt>
      <trkpt lat="45.16888" lon="5.93862">
        <ele>2012</ele>
        <time>2022-01-22T13:22:31Z</time>
      </trkpt>
      <trkpt lat="45.16892" lon="5.93857">
        <ele>2012</ele>
        <time>2022-01-22T13:22:32Z</time>
      </trkpt>
      <trkpt lat="45.16899" lon="5.93846">
        <ele>2011</ele>
        <time>2022-01-22T13:22:33Z</time>
      </trkpt>
      <trkpt lat="45.16908" lon="5.93834">
        <ele>2010</ele>
        <time>2022-01-22T13:22:35Z</time>
      </trkpt>
      <trkpt lat="45.16912" lon="5.93828">
        <ele>2009</ele>
        <time>2022-01-22T13:22:36Z</time>
      </trkpt>
      <trkpt lat="45.16915" lon="5.93823">
        <ele>2009</ele>
        <time>2022-01-22T13:22:37Z</time>
      </trkpt>
      <trkpt lat="45.1692" lon="5.93815">
        <ele>2008</ele>
        <time>2022-01-22T13:22:39Z</time>
      </trkpt>
      <trkpt lat="45.16922" lon="5.93812">
        <ele>2007</ele>
        <time>2022-01-22T13:22:40Z</time>
      </trkpt>
      <trkpt lat="45.16924" lon="5.93809">
        <ele>2007</ele>
        <time>2022-01-22T13:22:41Z</time>
      </trkpt>
      <trkpt lat="45.16926" lon="5.93807">
        <ele>2007</ele>
        <time>2022-01-22T13:22:42Z</time>
      </trkpt>
      <trkpt lat="45.1693" lon="5.93801">
        <ele>2005</ele>
        <time>2022-01-22T13:22:44Z</time>
      </trkpt>
      <trkpt lat="45.16932" lon="5.93799">
        <ele>2005</ele>
        <time>2022-01-22T13:22:46Z</time>
      </trkpt>
      <trkpt lat="45.16934" lon="5.93796">
        <ele>2005</ele>
        <time>2022-01-22T13:22:47Z</time>
      </trkpt>
      <trkpt lat="45.16936" lon="5.93793">
        <ele>2004</ele>
        <time>2022-01-22T13:22:48Z</time>
      </trkpt>
      <trkpt lat="45.16939" lon="5.9379">
        <ele>2003</ele>
        <time>2022-01-22T13:22:49Z</time>
      </trkpt>
      <trkpt lat="45.16941" lon="5.93787">
        <ele>2003</ele>
        <time>2022-01-22T13:22:50Z</time>
      </trkpt>
      <trkpt lat="45.16944" lon="5.93785">
        <ele>2003</ele>
        <time>2022-01-22T13:22:51Z</time>
      </trkpt>
      <trkpt lat="45.16946" lon="5.93783">
        <ele>2002</ele>
        <time>2022-01-22T13:22:52Z</time>
      </trkpt>
      <trkpt lat="45.16948" lon="5.93781">
        <ele>2002</ele>
        <time>2022-01-22T13:22:53Z</time>
      </trkpt>
      <trkpt lat="45.16949" lon="5.93779">
        <ele>2002</ele>
        <time>2022-01-22T13:22:54Z</time>
      </trkpt>
      <trkpt lat="45.16951" lon="5.93778">
        <ele>2001</ele>
        <time>2022-01-22T13:22:55Z</time>
      </trkpt>
      <trkpt lat="45.16953" lon="5.93776">
        <ele>2001</ele>
        <time>2022-01-22T13:22:58Z</time>
      </trkpt>
      <trkpt lat="45.16955" lon="5.93775">
        <ele>2001</ele>
        <time>2022-01-22T13:23:02Z</time>
      </trkpt>
      <trkpt lat="45.16956" lon="5.93774">
        <ele>2001</ele>
        <time>2022-01-22T13:23:04Z</time>
      </trkpt>
      <trkpt lat="45.16959" lon="5.93772">
        <ele>2001</ele>
        <time>2022-01-22T13:23:06Z</time>
      </trkpt>
      <trkpt lat="45.16961" lon="5.9377">
        <ele>2000</ele>
        <time>2022-01-22T13:23:07Z</time>
      </trkpt>
      <trkpt lat="45.16963" lon="5.93768">
        <ele>2000</ele>
        <time>2022-01-22T13:23:08Z</time>
      </trkpt>
      <trkpt lat="45.16965" lon="5.93766">
        <ele>1999</ele>
        <time>2022-01-22T13:23:09Z</time>
      </trkpt>
      <trkpt lat="45.16968" lon="5.93764">
        <ele>1999</ele>
        <time>2022-01-22T13:23:10Z</time>
      </trkpt>
      <trkpt lat="45.16974" lon="5.9376">
        <ele>1998</ele>
        <time>2022-01-22T13:23:11Z</time>
      </trkpt>
      <trkpt lat="45.16977" lon="5.93757">
        <ele>1998</ele>
        <time>2022-01-22T13:23:12Z</time>
      </trkpt>
      <trkpt lat="45.16983" lon="5.93753">
        <ele>1998</ele>
        <time>2022-01-22T13:23:14Z</time>
      </trkpt>
      <trkpt lat="45.16986" lon="5.93752">
        <ele>1997</ele>
        <time>2022-01-22T13:23:15Z</time>
      </trkpt>
      <trkpt lat="45.16989" lon="5.9375">
        <ele>1997</ele>
        <time>2022-01-22T13:23:16Z</time>
      </trkpt>
      <trkpt lat="45.16992" lon="5.93749">
        <ele>1997</ele>
        <time>2022-01-22T13:23:17Z</time>
      </trkpt>
      <trkpt lat="45.16996" lon="5.93747">
        <ele>1997</ele>
        <time>2022-01-22T13:23:18Z</time>
      </trkpt>
      <trkpt lat="45.17" lon="5.93745">
        <ele>1997</ele>
        <time>2022-01-22T13:23:19Z</time>
      </trkpt>
      <trkpt lat="45.17007" lon="5.93742">
        <ele>1997</ele>
        <time>2022-01-22T13:23:21Z</time>
      </trkpt>
      <trkpt lat="45.1701" lon="5.93741">
        <ele>1995</ele>
        <time>2022-01-22T13:23:23Z</time>
      </trkpt>
      <trkpt lat="45.17017" lon="5.93738">
        <ele>1994</ele>
        <time>2022-01-22T13:23:24Z</time>
      </trkpt>
      <trkpt lat="45.1702" lon="5.93737">
        <ele>1994</ele>
        <time>2022-01-22T13:23:25Z</time>
      </trkpt>
      <trkpt lat="45.17023" lon="5.93736">
        <ele>1993</ele>
        <time>2022-01-22T13:23:27Z</time>
      </trkpt>
      <trkpt lat="45.17025" lon="5.93735">
        <ele>1992</ele>
        <time>2022-01-22T13:23:28Z</time>
      </trkpt>
      <trkpt lat="45.17027" lon="5.93733">
        <ele>1991</ele>
        <time>2022-01-22T13:23:29Z</time>
      </trkpt>
      <trkpt lat="45.17029" lon="5.93732">
        <ele>1991</ele>
        <time>2022-01-22T13:23:30Z</time>
      </trkpt>
      <trkpt lat="45.1703" lon="5.93729">
        <ele>1990</ele>
        <time>2022-01-22T13:23:31Z</time>
      </trkpt>
      <trkpt lat="45.17031" lon="5.93727">
        <ele>1989</ele>
        <time>2022-01-22T13:23:32Z</time>
      </trkpt>
      <trkpt lat="45.17033" lon="5.93724">
        <ele>1986</ele>
        <time>2022-01-22T13:23:34Z</time>
      </trkpt>
      <trkpt lat="45.17035" lon="5.93722">
        <ele>1985</ele>
        <time>2022-01-22T13:23:35Z</time>
      </trkpt>
      <trkpt lat="45.17038" lon="5.9372">
        <ele>1985</ele>
        <time>2022-01-22T13:23:36Z</time>
      </trkpt>
      <trkpt lat="45.17041" lon="5.93718">
        <ele>1984</ele>
        <time>2022-01-22T13:23:37Z</time>
      </trkpt>
      <trkpt lat="45.17051" lon="5.93716">
        <ele>1980</ele>
        <time>2022-01-22T13:23:39Z</time>
      </trkpt>
      <trkpt lat="45.17058" lon="5.93712">
        <ele>1979</ele>
        <time>2022-01-22T13:23:40Z</time>
      </trkpt>
      <trkpt lat="45.1707" lon="5.93701">
        <ele>1975</ele>
        <time>2022-01-22T13:23:42Z</time>
      </trkpt>
      <trkpt lat="45.17081" lon="5.93691">
        <ele>1974</ele>
        <time>2022-01-22T13:23:44Z</time>
      </trkpt>
      <trkpt lat="45.17089" lon="5.93687">
        <ele>1975</ele>
        <time>2022-01-22T13:23:52Z</time>
      </trkpt>
      <trkpt lat="45.17091" lon="5.93685">
        <ele>1975</ele>
        <time>2022-01-22T13:23:54Z</time>
      </trkpt>
      <trkpt lat="45.17093" lon="5.93683">
        <ele>1975</ele>
        <time>2022-01-22T13:23:56Z</time>
      </trkpt>
      <trkpt lat="45.17095" lon="5.93681">
        <ele>1975</ele>
        <time>2022-01-22T13:23:57Z</time>
      </trkpt>
      <trkpt lat="45.17097" lon="5.93679">
        <ele>1975</ele>
        <time>2022-01-22T13:23:59Z</time>
      </trkpt>
      <trkpt lat="45.17099" lon="5.93678">
        <ele>1975</ele>
        <time>2022-01-22T13:24:01Z</time>
      </trkpt>
      <trkpt lat="45.17102" lon="5.93676">
        <ele>1975</ele>
        <time>2022-01-22T13:24:04Z</time>
      </trkpt>
      <trkpt lat="45.17104" lon="5.93673">
        <ele>1975</ele>
        <time>2022-01-22T13:24:05Z</time>
      </trkpt>
      <trkpt lat="45.17106" lon="5.9367">
        <ele>1975</ele>
        <time>2022-01-22T13:24:07Z</time>
      </trkpt>
      <trkpt lat="45.17107" lon="5.93668">
        <ele>1975</ele>
        <time>2022-01-22T13:24:09Z</time>
      </trkpt>
      <trkpt lat="45.17109" lon="5.93665">
        <ele>1975</ele>
        <time>2022-01-22T13:24:14Z</time>
      </trkpt>
      <trkpt lat="45.17109" lon="5.93662">
        <ele>1976</ele>
        <time>2022-01-22T13:24:19Z</time>
      </trkpt>
      <trkpt lat="45.1711" lon="5.93659">
        <ele>1977</ele>
        <time>2022-01-22T13:24:24Z</time>
      </trkpt>
      <trkpt lat="45.17111" lon="5.93656">
        <ele>1976</ele>
        <time>2022-01-22T13:24:27Z</time>
      </trkpt>
      <trkpt lat="45.17113" lon="5.93652">
        <ele>1976</ele>
        <time>2022-01-22T13:24:29Z</time>
      </trkpt>
      <trkpt lat="45.17115" lon="5.9365">
        <ele>1976</ele>
        <time>2022-01-22T13:24:31Z</time>
      </trkpt>
      <trkpt lat="45.17116" lon="5.93648">
        <ele>1977</ele>
        <time>2022-01-22T13:24:33Z</time>
      </trkpt>
      <trkpt lat="45.17117" lon="5.93646">
        <ele>1977</ele>
        <time>2022-01-22T13:24:34Z</time>
      </trkpt>
      <trkpt lat="45.17119" lon="5.93644">
        <ele>1977</ele>
        <time>2022-01-22T13:24:37Z</time>
      </trkpt>
      <trkpt lat="45.1712" lon="5.93642">
        <ele>1977</ele>
        <time>2022-01-22T13:24:39Z</time>
      </trkpt>
      <trkpt lat="45.17121" lon="5.9364">
        <ele>1976</ele>
        <time>2022-01-22T13:24:41Z</time>
      </trkpt>
      <trkpt lat="45.17123" lon="5.93638">
        <ele>1976</ele>
        <time>2022-01-22T13:24:44Z</time>
      </trkpt>
      <trkpt lat="45.17125" lon="5.93636">
        <ele>1976</ele>
        <time>2022-01-22T13:24:47Z</time>
      </trkpt>
      <trkpt lat="45.17128" lon="5.93634">
        <ele>1977</ele>
        <time>2022-01-22T13:24:49Z</time>
      </trkpt>
      <trkpt lat="45.17129" lon="5.93633">
        <ele>1977</ele>
        <time>2022-01-22T13:24:50Z</time>
      </trkpt>
      <trkpt lat="45.17131" lon="5.93631">
        <ele>1977</ele>
        <time>2022-01-22T13:24:51Z</time>
      </trkpt>
      <trkpt lat="45.17133" lon="5.93629">
        <ele>1977</ele>
        <time>2022-01-22T13:24:52Z</time>
      </trkpt>
      <trkpt lat="45.17136" lon="5.93626">
        <ele>1976</ele>
        <time>2022-01-22T13:24:53Z</time>
      </trkpt>
      <trkpt lat="45.17138" lon="5.93624">
        <ele>1975</ele>
        <time>2022-01-22T13:24:55Z</time>
      </trkpt>
      <trkpt lat="45.1714" lon="5.93622">
        <ele>1976</ele>
        <time>2022-01-22T13:24:57Z</time>
      </trkpt>
      <trkpt lat="45.17141" lon="5.9362">
        <ele>1977</ele>
        <time>2022-01-22T13:24:59Z</time>
      </trkpt>
      <trkpt lat="45.17143" lon="5.93619">
        <ele>1976</ele>
        <time>2022-01-22T13:25:01Z</time>
      </trkpt>
      <trkpt lat="45.17145" lon="5.93618">
        <ele>1976</ele>
        <time>2022-01-22T13:25:04Z</time>
      </trkpt>
      <trkpt lat="45.17148" lon="5.93618">
        <ele>1976</ele>
        <time>2022-01-22T13:25:06Z</time>
      </trkpt>
      <trkpt lat="45.1715" lon="5.93619">
        <ele>1976</ele>
        <time>2022-01-22T13:25:09Z</time>
      </trkpt>
      <trkpt lat="45.17153" lon="5.9362">
        <ele>1977</ele>
        <time>2022-01-22T13:25:11Z</time>
      </trkpt>
      <trkpt lat="45.17155" lon="5.93621">
        <ele>1977</ele>
        <time>2022-01-22T13:25:14Z</time>
      </trkpt>
      <trkpt lat="45.17156" lon="5.93622">
        <ele>1977</ele>
        <time>2022-01-22T13:25:17Z</time>
      </trkpt>
      <trkpt lat="45.17159" lon="5.93625">
        <ele>1976</ele>
        <time>2022-01-22T13:25:20Z</time>
      </trkpt>
      <trkpt lat="45.17162" lon="5.93627">
        <ele>1976</ele>
        <time>2022-01-22T13:25:21Z</time>
      </trkpt>
      <trkpt lat="45.17165" lon="5.93631">
        <ele>1976</ele>
        <time>2022-01-22T13:25:22Z</time>
      </trkpt>
      <trkpt lat="45.17172" lon="5.93635">
        <ele>1975</ele>
        <time>2022-01-22T13:25:24Z</time>
      </trkpt>
      <trkpt lat="45.17177" lon="5.93636">
        <ele>1974</ele>
        <time>2022-01-22T13:25:25Z</time>
      </trkpt>
      <trkpt lat="45.17181" lon="5.93637">
        <ele>1973</ele>
        <time>2022-01-22T13:25:26Z</time>
      </trkpt>
      <trkpt lat="45.17184" lon="5.93638">
        <ele>1973</ele>
        <time>2022-01-22T13:25:27Z</time>
      </trkpt>
      <trkpt lat="45.17186" lon="5.9364">
        <ele>1973</ele>
        <time>2022-01-22T13:25:29Z</time>
      </trkpt>
      <trkpt lat="45.17189" lon="5.93641">
        <ele>1973</ele>
        <time>2022-01-22T13:25:30Z</time>
      </trkpt>
      <trkpt lat="45.17196" lon="5.93644">
        <ele>1973</ele>
        <time>2022-01-22T13:25:31Z</time>
      </trkpt>
      <trkpt lat="45.17199" lon="5.93645">
        <ele>1972</ele>
        <time>2022-01-22T13:25:33Z</time>
      </trkpt>
      <trkpt lat="45.17202" lon="5.93645">
        <ele>1972</ele>
        <time>2022-01-22T13:25:34Z</time>
      </trkpt>
      <trkpt lat="45.17205" lon="5.93644">
        <ele>1972</ele>
        <time>2022-01-22T13:25:35Z</time>
      </trkpt>
      <trkpt lat="45.17207" lon="5.93644">
        <ele>1972</ele>
        <time>2022-01-22T13:25:36Z</time>
      </trkpt>
      <trkpt lat="45.1721" lon="5.93643">
        <ele>1972</ele>
        <time>2022-01-22T13:25:37Z</time>
      </trkpt>
      <trkpt lat="45.17213" lon="5.93643">
        <ele>1972</ele>
        <time>2022-01-22T13:25:38Z</time>
      </trkpt>
      <trkpt lat="45.17216" lon="5.93643">
        <ele>1971</ele>
        <time>2022-01-22T13:25:39Z</time>
      </trkpt>
      <trkpt lat="45.17219" lon="5.93642">
        <ele>1971</ele>
        <time>2022-01-22T13:25:40Z</time>
      </trkpt>
      <trkpt lat="45.17222" lon="5.93641">
        <ele>1970</ele>
        <time>2022-01-22T13:25:41Z</time>
      </trkpt>
      <trkpt lat="45.17225" lon="5.9364">
        <ele>1969</ele>
        <time>2022-01-22T13:25:42Z</time>
      </trkpt>
      <trkpt lat="45.17227" lon="5.93639">
        <ele>1969</ele>
        <time>2022-01-22T13:25:43Z</time>
      </trkpt>
      <trkpt lat="45.17231" lon="5.93637">
        <ele>1969</ele>
        <time>2022-01-22T13:25:44Z</time>
      </trkpt>
      <trkpt lat="45.17237" lon="5.93634">
        <ele>1969</ele>
        <time>2022-01-22T13:25:45Z</time>
      </trkpt>
      <trkpt lat="45.1724" lon="5.93633">
        <ele>1969</ele>
        <time>2022-01-22T13:25:46Z</time>
      </trkpt>
      <trkpt lat="45.17243" lon="5.93632">
        <ele>1969</ele>
        <time>2022-01-22T13:25:47Z</time>
      </trkpt>
      <trkpt lat="45.1725" lon="5.9363">
        <ele>1969</ele>
        <time>2022-01-22T13:25:49Z</time>
      </trkpt>
      <trkpt lat="45.17253" lon="5.93629">
        <ele>1968</ele>
        <time>2022-01-22T13:25:50Z</time>
      </trkpt>
      <trkpt lat="45.17256" lon="5.93628">
        <ele>1968</ele>
        <time>2022-01-22T13:25:51Z</time>
      </trkpt>
      <trkpt lat="45.17259" lon="5.93628">
        <ele>1968</ele>
        <time>2022-01-22T13:25:52Z</time>
      </trkpt>
      <trkpt lat="45.17267" lon="5.93627">
        <ele>1969</ele>
        <time>2022-01-22T13:25:54Z</time>
      </trkpt>
      <trkpt lat="45.1727" lon="5.93626">
        <ele>1968</ele>
        <time>2022-01-22T13:25:55Z</time>
      </trkpt>
      <trkpt lat="45.17273" lon="5.93626">
        <ele>1969</ele>
        <time>2022-01-22T13:25:56Z</time>
      </trkpt>
      <trkpt lat="45.17275" lon="5.93625">
        <ele>1969</ele>
        <time>2022-01-22T13:25:57Z</time>
      </trkpt>
      <trkpt lat="45.17277" lon="5.93624">
        <ele>1968</ele>
        <time>2022-01-22T13:25:59Z</time>
      </trkpt>
      <trkpt lat="45.17279" lon="5.93623">
        <ele>1969</ele>
        <time>2022-01-22T13:26:00Z</time>
      </trkpt>
      <trkpt lat="45.17281" lon="5.93621">
        <ele>1968</ele>
        <time>2022-01-22T13:26:02Z</time>
      </trkpt>
      <trkpt lat="45.17284" lon="5.9362">
        <ele>1967</ele>
        <time>2022-01-22T13:26:05Z</time>
      </trkpt>
      <trkpt lat="45.17286" lon="5.93619">
        <ele>1967</ele>
        <time>2022-01-22T13:26:06Z</time>
      </trkpt>
      <trkpt lat="45.17288" lon="5.93618">
        <ele>1967</ele>
        <time>2022-01-22T13:26:07Z</time>
      </trkpt>
      <trkpt lat="45.17291" lon="5.93617">
        <ele>1967</ele>
        <time>2022-01-22T13:26:08Z</time>
      </trkpt>
      <trkpt lat="45.17299" lon="5.93615">
        <ele>1967</ele>
        <time>2022-01-22T13:26:09Z</time>
      </trkpt>
      <trkpt lat="45.17303" lon="5.93616">
        <ele>1967</ele>
        <time>2022-01-22T13:26:11Z</time>
      </trkpt>
      <trkpt lat="45.17306" lon="5.93616">
        <ele>1967</ele>
        <time>2022-01-22T13:26:12Z</time>
      </trkpt>
      <trkpt lat="45.17309" lon="5.93615">
        <ele>1966</ele>
        <time>2022-01-22T13:26:13Z</time>
      </trkpt>
      <trkpt lat="45.17312" lon="5.93615">
        <ele>1965</ele>
        <time>2022-01-22T13:26:14Z</time>
      </trkpt>
      <trkpt lat="45.17314" lon="5.93614">
        <ele>1964</ele>
        <time>2022-01-22T13:26:15Z</time>
      </trkpt>
      <trkpt lat="45.17318" lon="5.93614">
        <ele>1964</ele>
        <time>2022-01-22T13:26:16Z</time>
      </trkpt>
      <trkpt lat="45.1732" lon="5.93614">
        <ele>1963</ele>
        <time>2022-01-22T13:26:17Z</time>
      </trkpt>
      <trkpt lat="45.17323" lon="5.93614">
        <ele>1961</ele>
        <time>2022-01-22T13:26:18Z</time>
      </trkpt>
      <trkpt lat="45.17327" lon="5.93615">
        <ele>1960</ele>
        <time>2022-01-22T13:26:19Z</time>
      </trkpt>
      <trkpt lat="45.17334" lon="5.93619">
        <ele>1960</ele>
        <time>2022-01-22T13:26:20Z</time>
      </trkpt>
      <trkpt lat="45.17338" lon="5.93621">
        <ele>1959</ele>
        <time>2022-01-22T13:26:21Z</time>
      </trkpt>
      <trkpt lat="45.17341" lon="5.93621">
        <ele>1959</ele>
        <time>2022-01-22T13:26:22Z</time>
      </trkpt>
      <trkpt lat="45.17346" lon="5.93616">
        <ele>1958</ele>
        <time>2022-01-22T13:26:24Z</time>
      </trkpt>
      <trkpt lat="45.17352" lon="5.93612">
        <ele>1955</ele>
        <time>2022-01-22T13:26:26Z</time>
      </trkpt>
      <trkpt lat="45.17354" lon="5.93609">
        <ele>1953</ele>
        <time>2022-01-22T13:26:27Z</time>
      </trkpt>
      <trkpt lat="45.17353" lon="5.93607">
        <ele>1951</ele>
        <time>2022-01-22T13:26:28Z</time>
      </trkpt>
      <trkpt lat="45.17351" lon="5.93605">
        <ele>1949</ele>
        <time>2022-01-22T13:26:30Z</time>
      </trkpt>
      <trkpt lat="45.17354" lon="5.93602">
        <ele>1945</ele>
        <time>2022-01-22T13:26:41Z</time>
      </trkpt>
      <trkpt lat="45.17358" lon="5.936">
        <ele>1943</ele>
        <time>2022-01-22T13:26:42Z</time>
      </trkpt>
      <trkpt lat="45.17365" lon="5.93597">
        <ele>1941</ele>
        <time>2022-01-22T13:26:44Z</time>
      </trkpt>
      <trkpt lat="45.17367" lon="5.93596">
        <ele>1940</ele>
        <time>2022-01-22T13:26:45Z</time>
      </trkpt>
      <trkpt lat="45.1737" lon="5.93595">
        <ele>1939</ele>
        <time>2022-01-22T13:26:46Z</time>
      </trkpt>
      <trkpt lat="45.17371" lon="5.93595">
        <ele>1937</ele>
        <time>2022-01-22T13:26:52Z</time>
      </trkpt>
      <trkpt lat="45.17372" lon="5.93598">
        <ele>1937</ele>
        <time>2022-01-22T13:27:02Z</time>
      </trkpt>
      <trkpt lat="45.17372" lon="5.936">
        <ele>1937</ele>
        <time>2022-01-22T13:27:09Z</time>
      </trkpt>
      <trkpt lat="45.17371" lon="5.93602">
        <ele>1937</ele>
        <time>2022-01-22T13:27:35Z</time>
      </trkpt>
      <trkpt lat="45.17374" lon="5.936">
        <ele>1938</ele>
        <time>2022-01-22T13:27:54Z</time>
      </trkpt>
      <trkpt lat="45.17376" lon="5.93598">
        <ele>1937</ele>
        <time>2022-01-22T13:27:55Z</time>
      </trkpt>
      <trkpt lat="45.17379" lon="5.93595">
        <ele>1937</ele>
        <time>2022-01-22T13:27:56Z</time>
      </trkpt>
      <trkpt lat="45.17383" lon="5.93591">
        <ele>1935</ele>
        <time>2022-01-22T13:27:57Z</time>
      </trkpt>
      <trkpt lat="45.1739" lon="5.93585">
        <ele>1933</ele>
        <time>2022-01-22T13:27:59Z</time>
      </trkpt>
      <trkpt lat="45.17394" lon="5.93583">
        <ele>1931</ele>
        <time>2022-01-22T13:28:00Z</time>
      </trkpt>
      <trkpt lat="45.17397" lon="5.93581">
        <ele>1931</ele>
        <time>2022-01-22T13:28:01Z</time>
      </trkpt>
      <trkpt lat="45.17404" lon="5.93577">
        <ele>1929</ele>
        <time>2022-01-22T13:28:03Z</time>
      </trkpt>
      <trkpt lat="45.17406" lon="5.93574">
        <ele>1928</ele>
        <time>2022-01-22T13:28:04Z</time>
      </trkpt>
      <trkpt lat="45.17404" lon="5.93571">
        <ele>1928</ele>
        <time>2022-01-22T13:28:06Z</time>
      </trkpt>
      <trkpt lat="45.17402" lon="5.93566">
        <ele>1927</ele>
        <time>2022-01-22T13:28:07Z</time>
      </trkpt>
      <trkpt lat="45.17404" lon="5.93561">
        <ele>1926</ele>
        <time>2022-01-22T13:28:08Z</time>
      </trkpt>
      <trkpt lat="45.17405" lon="5.93556">
        <ele>1924</ele>
        <time>2022-01-22T13:28:09Z</time>
      </trkpt>
      <trkpt lat="45.17405" lon="5.93551">
        <ele>1923</ele>
        <time>2022-01-22T13:28:10Z</time>
      </trkpt>
      <trkpt lat="45.17404" lon="5.93546">
        <ele>1922</ele>
        <time>2022-01-22T13:28:11Z</time>
      </trkpt>
      <trkpt lat="45.17405" lon="5.93543">
        <ele>1921</ele>
        <time>2022-01-22T13:28:12Z</time>
      </trkpt>
      <trkpt lat="45.17405" lon="5.93539">
        <ele>1921</ele>
        <time>2022-01-22T13:28:13Z</time>
      </trkpt>
      <trkpt lat="45.17406" lon="5.93532">
        <ele>1920</ele>
        <time>2022-01-22T13:28:14Z</time>
      </trkpt>
      <trkpt lat="45.17407" lon="5.93524">
        <ele>1919</ele>
        <time>2022-01-22T13:28:15Z</time>
      </trkpt>
      <trkpt lat="45.17407" lon="5.93516">
        <ele>1918</ele>
        <time>2022-01-22T13:28:16Z</time>
      </trkpt>
      <trkpt lat="45.17408" lon="5.9351">
        <ele>1917</ele>
        <time>2022-01-22T13:28:17Z</time>
      </trkpt>
      <trkpt lat="45.17412" lon="5.93503">
        <ele>1917</ele>
        <time>2022-01-22T13:28:18Z</time>
      </trkpt>
      <trkpt lat="45.17412" lon="5.93498">
        <ele>1917</ele>
        <time>2022-01-22T13:28:19Z</time>
      </trkpt>
      <trkpt lat="45.17412" lon="5.93493">
        <ele>1917</ele>
        <time>2022-01-22T13:28:20Z</time>
      </trkpt>
      <trkpt lat="45.17411" lon="5.93486">
        <ele>1916</ele>
        <time>2022-01-22T13:28:21Z</time>
      </trkpt>
      <trkpt lat="45.17408" lon="5.9348">
        <ele>1915</ele>
        <time>2022-01-22T13:28:22Z</time>
      </trkpt>
      <trkpt lat="45.17403" lon="5.93469">
        <ele>1915</ele>
        <time>2022-01-22T13:28:24Z</time>
      </trkpt>
      <trkpt lat="45.17401" lon="5.93465">
        <ele>1914</ele>
        <time>2022-01-22T13:28:25Z</time>
      </trkpt>
      <trkpt lat="45.174" lon="5.93463">
        <ele>1912</ele>
        <time>2022-01-22T13:28:27Z</time>
      </trkpt>
      <trkpt lat="45.174" lon="5.93459">
        <ele>1912</ele>
        <time>2022-01-22T13:28:32Z</time>
      </trkpt>
      <trkpt lat="45.174" lon="5.93451">
        <ele>1912</ele>
        <time>2022-01-22T13:28:34Z</time>
      </trkpt>
      <trkpt lat="45.17401" lon="5.93446">
        <ele>1912</ele>
        <time>2022-01-22T13:28:35Z</time>
      </trkpt>
      <trkpt lat="45.17401" lon="5.9344">
        <ele>1909</ele>
        <time>2022-01-22T13:28:37Z</time>
      </trkpt>
      <trkpt lat="45.17401" lon="5.93435">
        <ele>1908</ele>
        <time>2022-01-22T13:28:38Z</time>
      </trkpt>
      <trkpt lat="45.17401" lon="5.93431">
        <ele>1907</ele>
        <time>2022-01-22T13:28:39Z</time>
      </trkpt>
      <trkpt lat="45.17401" lon="5.93428">
        <ele>1906</ele>
        <time>2022-01-22T13:28:40Z</time>
      </trkpt>
      <trkpt lat="45.17402" lon="5.93417">
        <ele>1905</ele>
        <time>2022-01-22T13:28:41Z</time>
      </trkpt>
      <trkpt lat="45.17403" lon="5.93411">
        <ele>1904</ele>
        <time>2022-01-22T13:28:43Z</time>
      </trkpt>
      <trkpt lat="45.17403" lon="5.93406">
        <ele>1903</ele>
        <time>2022-01-22T13:28:44Z</time>
      </trkpt>
      <trkpt lat="45.17404" lon="5.93401">
        <ele>1903</ele>
        <time>2022-01-22T13:28:45Z</time>
      </trkpt>
      <trkpt lat="45.17405" lon="5.93394">
        <ele>1902</ele>
        <time>2022-01-22T13:28:46Z</time>
      </trkpt>
      <trkpt lat="45.17406" lon="5.93386">
        <ele>1901</ele>
        <time>2022-01-22T13:28:47Z</time>
      </trkpt>
      <trkpt lat="45.17407" lon="5.93378">
        <ele>1901</ele>
        <time>2022-01-22T13:28:48Z</time>
      </trkpt>
      <trkpt lat="45.17409" lon="5.93364">
        <ele>1900</ele>
        <time>2022-01-22T13:28:49Z</time>
      </trkpt>
      <trkpt lat="45.17411" lon="5.93357">
        <ele>1899</ele>
        <time>2022-01-22T13:28:50Z</time>
      </trkpt>
      <trkpt lat="45.17413" lon="5.93353">
        <ele>1899</ele>
        <time>2022-01-22T13:28:51Z</time>
      </trkpt>
      <trkpt lat="45.17415" lon="5.93349">
        <ele>1898</ele>
        <time>2022-01-22T13:28:52Z</time>
      </trkpt>
      <trkpt lat="45.17416" lon="5.93346">
        <ele>1897</ele>
        <time>2022-01-22T13:28:54Z</time>
      </trkpt>
      <trkpt lat="45.17418" lon="5.93344">
        <ele>1897</ele>
        <time>2022-01-22T13:28:55Z</time>
      </trkpt>
      <trkpt lat="45.1742" lon="5.9334">
        <ele>1897</ele>
        <time>2022-01-22T13:28:57Z</time>
      </trkpt>
      <trkpt lat="45.17422" lon="5.93337">
        <ele>1897</ele>
        <time>2022-01-22T13:28:59Z</time>
      </trkpt>
      <trkpt lat="45.17423" lon="5.93329">
        <ele>1897</ele>
        <time>2022-01-22T13:29:00Z</time>
      </trkpt>
      <trkpt lat="45.17422" lon="5.93325">
        <ele>1897</ele>
        <time>2022-01-22T13:29:01Z</time>
      </trkpt>
      <trkpt lat="45.1742" lon="5.9332">
        <ele>1897</ele>
        <time>2022-01-22T13:29:02Z</time>
      </trkpt>
      <trkpt lat="45.17419" lon="5.93316">
        <ele>1895</ele>
        <time>2022-01-22T13:29:04Z</time>
      </trkpt>
      <trkpt lat="45.17417" lon="5.93311">
        <ele>1894</ele>
        <time>2022-01-22T13:29:05Z</time>
      </trkpt>
      <trkpt lat="45.17417" lon="5.93308">
        <ele>1892</ele>
        <time>2022-01-22T13:29:07Z</time>
      </trkpt>
      <trkpt lat="45.17416" lon="5.93304">
        <ele>1892</ele>
        <time>2022-01-22T13:29:08Z</time>
      </trkpt>
      <trkpt lat="45.17415" lon="5.93302">
        <ele>1891</ele>
        <time>2022-01-22T13:29:09Z</time>
      </trkpt>
      <trkpt lat="45.17413" lon="5.93299">
        <ele>1891</ele>
        <time>2022-01-22T13:29:11Z</time>
      </trkpt>
      <trkpt lat="45.17416" lon="5.93293">
        <ele>1892</ele>
        <time>2022-01-22T13:29:19Z</time>
      </trkpt>
      <trkpt lat="45.1742" lon="5.93292">
        <ele>1890</ele>
        <time>2022-01-22T13:29:21Z</time>
      </trkpt>
      <trkpt lat="45.17425" lon="5.9329">
        <ele>1889</ele>
        <time>2022-01-22T13:29:22Z</time>
      </trkpt>
      <trkpt lat="45.1743" lon="5.93288">
        <ele>1888</ele>
        <time>2022-01-22T13:29:23Z</time>
      </trkpt>
      <trkpt lat="45.17435" lon="5.93285">
        <ele>1887</ele>
        <time>2022-01-22T13:29:24Z</time>
      </trkpt>
      <trkpt lat="45.1744" lon="5.93284">
        <ele>1886</ele>
        <time>2022-01-22T13:29:25Z</time>
      </trkpt>
      <trkpt lat="45.17444" lon="5.93282">
        <ele>1885</ele>
        <time>2022-01-22T13:29:26Z</time>
      </trkpt>
      <trkpt lat="45.17447" lon="5.9328">
        <ele>1885</ele>
        <time>2022-01-22T13:29:27Z</time>
      </trkpt>
      <trkpt lat="45.17447" lon="5.9327">
        <ele>1883</ele>
        <time>2022-01-22T13:29:28Z</time>
      </trkpt>
      <trkpt lat="45.17448" lon="5.93264">
        <ele>1882</ele>
        <time>2022-01-22T13:29:29Z</time>
      </trkpt>
      <trkpt lat="45.17448" lon="5.93258">
        <ele>1881</ele>
        <time>2022-01-22T13:29:30Z</time>
      </trkpt>
      <trkpt lat="45.17446" lon="5.93251">
        <ele>1880</ele>
        <time>2022-01-22T13:29:31Z</time>
      </trkpt>
      <trkpt lat="45.17445" lon="5.93244">
        <ele>1879</ele>
        <time>2022-01-22T13:29:32Z</time>
      </trkpt>
      <trkpt lat="45.17447" lon="5.9323">
        <ele>1877</ele>
        <time>2022-01-22T13:29:34Z</time>
      </trkpt>
      <trkpt lat="45.17449" lon="5.93224">
        <ele>1876</ele>
        <time>2022-01-22T13:29:35Z</time>
      </trkpt>
      <trkpt lat="45.1745" lon="5.93217">
        <ele>1876</ele>
        <time>2022-01-22T13:29:36Z</time>
      </trkpt>
      <trkpt lat="45.17451" lon="5.93212">
        <ele>1875</ele>
        <time>2022-01-22T13:29:37Z</time>
      </trkpt>
      <trkpt lat="45.17451" lon="5.93208">
        <ele>1874</ele>
        <time>2022-01-22T13:29:39Z</time>
      </trkpt>
      <trkpt lat="45.17451" lon="5.93205">
        <ele>1874</ele>
        <time>2022-01-22T13:29:40Z</time>
      </trkpt>
      <trkpt lat="45.17449" lon="5.93206">
        <ele>1874</ele>
        <time>2022-01-22T13:29:46Z</time>
      </trkpt>
      <trkpt lat="45.17447" lon="5.93208">
        <ele>1874</ele>
        <time>2022-01-22T13:29:49Z</time>
      </trkpt>
      <trkpt lat="45.17446" lon="5.93209">
        <ele>1874</ele>
        <time>2022-01-22T13:29:52Z</time>
      </trkpt>
      <trkpt lat="45.17444" lon="5.93207">
        <ele>1874</ele>
        <time>2022-01-22T13:29:57Z</time>
      </trkpt>
      <trkpt lat="45.17444" lon="5.93204">
        <ele>1874</ele>
        <time>2022-01-22T13:30:00Z</time>
      </trkpt>
      <trkpt lat="45.17442" lon="5.93201">
        <ele>1874</ele>
        <time>2022-01-22T13:30:02Z</time>
      </trkpt>
      <trkpt lat="45.17436" lon="5.93195">
        <ele>1874</ele>
        <time>2022-01-22T13:30:05Z</time>
      </trkpt>
      <trkpt lat="45.17434" lon="5.93192">
        <ele>1872</ele>
        <time>2022-01-22T13:30:06Z</time>
      </trkpt>
      <trkpt lat="45.17432" lon="5.93188">
        <ele>1871</ele>
        <time>2022-01-22T13:30:07Z</time>
      </trkpt>
      <trkpt lat="45.1743" lon="5.93184">
        <ele>1870</ele>
        <time>2022-01-22T13:30:09Z</time>
      </trkpt>
      <trkpt lat="45.17429" lon="5.93182">
        <ele>1870</ele>
        <time>2022-01-22T13:30:10Z</time>
      </trkpt>
      <trkpt lat="45.17426" lon="5.93179">
        <ele>1869</ele>
        <time>2022-01-22T13:30:12Z</time>
      </trkpt>
      <trkpt lat="45.17422" lon="5.93176">
        <ele>1868</ele>
        <time>2022-01-22T13:30:14Z</time>
      </trkpt>
      <trkpt lat="45.17418" lon="5.9317">
        <ele>1868</ele>
        <time>2022-01-22T13:30:16Z</time>
      </trkpt>
      <trkpt lat="45.17417" lon="5.93165">
        <ele>1868</ele>
        <time>2022-01-22T13:30:17Z</time>
      </trkpt>
      <trkpt lat="45.17416" lon="5.9316">
        <ele>1868</ele>
        <time>2022-01-22T13:30:19Z</time>
      </trkpt>
      <trkpt lat="45.17415" lon="5.93156">
        <ele>1867</ele>
        <time>2022-01-22T13:30:20Z</time>
      </trkpt>
      <trkpt lat="45.17415" lon="5.93151">
        <ele>1867</ele>
        <time>2022-01-22T13:30:23Z</time>
      </trkpt>
      <trkpt lat="45.17416" lon="5.93149">
        <ele>1866</ele>
        <time>2022-01-22T13:30:26Z</time>
      </trkpt>
      <trkpt lat="45.17417" lon="5.93145">
        <ele>1866</ele>
        <time>2022-01-22T13:30:30Z</time>
      </trkpt>
      <trkpt lat="45.17421" lon="5.93146">
        <ele>1865</ele>
        <time>2022-01-22T13:30:32Z</time>
      </trkpt>
      <trkpt lat="45.17423" lon="5.93149">
        <ele>1864</ele>
        <time>2022-01-22T13:30:33Z</time>
      </trkpt>
      <trkpt lat="45.17424" lon="5.93149">
        <ele>1863</ele>
        <time>2022-01-22T13:30:35Z</time>
      </trkpt>
      <trkpt lat="45.17427" lon="5.93145">
        <ele>1862</ele>
        <time>2022-01-22T13:30:37Z</time>
      </trkpt>
      <trkpt lat="45.17426" lon="5.93142">
        <ele>1862</ele>
        <time>2022-01-22T13:30:39Z</time>
      </trkpt>
      <trkpt lat="45.17425" lon="5.93137">
        <ele>1861</ele>
        <time>2022-01-22T13:30:40Z</time>
      </trkpt>
      <trkpt lat="45.17428" lon="5.93135">
        <ele>1860</ele>
        <time>2022-01-22T13:30:44Z</time>
      </trkpt>
      <trkpt lat="45.1743" lon="5.9313">
        <ele>1856</ele>
        <time>2022-01-22T13:30:46Z</time>
      </trkpt>
      <trkpt lat="45.17432" lon="5.93124">
        <ele>1855</ele>
        <time>2022-01-22T13:30:47Z</time>
      </trkpt>
      <trkpt lat="45.17433" lon="5.93118">
        <ele>1855</ele>
        <time>2022-01-22T13:30:48Z</time>
      </trkpt>
      <trkpt lat="45.17434" lon="5.93107">
        <ele>1854</ele>
        <time>2022-01-22T13:30:49Z</time>
      </trkpt>
      <trkpt lat="45.17434" lon="5.93103">
        <ele>1853</ele>
        <time>2022-01-22T13:30:50Z</time>
      </trkpt>
      <trkpt lat="45.17434" lon="5.93098">
        <ele>1853</ele>
        <time>2022-01-22T13:30:51Z</time>
      </trkpt>
      <trkpt lat="45.17435" lon="5.93094">
        <ele>1852</ele>
        <time>2022-01-22T13:30:52Z</time>
      </trkpt>
      <trkpt lat="45.17435" lon="5.93091">
        <ele>1850</ele>
        <time>2022-01-22T13:30:54Z</time>
      </trkpt>
      <trkpt lat="45.17436" lon="5.93087">
        <ele>1849</ele>
        <time>2022-01-22T13:30:55Z</time>
      </trkpt>
      <trkpt lat="45.17438" lon="5.93084">
        <ele>1849</ele>
        <time>2022-01-22T13:30:56Z</time>
      </trkpt>
      <trkpt lat="45.1744" lon="5.93081">
        <ele>1846</ele>
        <time>2022-01-22T13:30:59Z</time>
      </trkpt>
      <trkpt lat="45.1744" lon="5.93068">
        <ele>1844</ele>
        <time>2022-01-22T13:31:00Z</time>
      </trkpt>
      <trkpt lat="45.17446" lon="5.93054">
        <ele>1840</ele>
        <time>2022-01-22T13:31:04Z</time>
      </trkpt>
      <trkpt lat="45.17448" lon="5.93039">
        <ele>1839</ele>
        <time>2022-01-22T13:31:05Z</time>
      </trkpt>
      <trkpt lat="45.17445" lon="5.93028">
        <ele>1835</ele>
        <time>2022-01-22T13:31:08Z</time>
      </trkpt>
      <trkpt lat="45.17442" lon="5.93018">
        <ele>1834</ele>
        <time>2022-01-22T13:31:10Z</time>
      </trkpt>
      <trkpt lat="45.1744" lon="5.93014">
        <ele>1834</ele>
        <time>2022-01-22T13:31:11Z</time>
      </trkpt>
      <trkpt lat="45.17437" lon="5.93009">
        <ele>1833</ele>
        <time>2022-01-22T13:31:12Z</time>
      </trkpt>
      <trkpt lat="45.17433" lon="5.93001">
        <ele>1833</ele>
        <time>2022-01-22T13:31:13Z</time>
      </trkpt>
      <trkpt lat="45.17432" lon="5.92997">
        <ele>1832</ele>
        <time>2022-01-22T13:31:15Z</time>
      </trkpt>
      <trkpt lat="45.17431" lon="5.92992">
        <ele>1832</ele>
        <time>2022-01-22T13:31:16Z</time>
      </trkpt>
      <trkpt lat="45.17431" lon="5.92988">
        <ele>1832</ele>
        <time>2022-01-22T13:31:17Z</time>
      </trkpt>
      <trkpt lat="45.17431" lon="5.92982">
        <ele>1831</ele>
        <time>2022-01-22T13:31:18Z</time>
      </trkpt>
      <trkpt lat="45.1743" lon="5.92979">
        <ele>1831</ele>
        <time>2022-01-22T13:31:19Z</time>
      </trkpt>
      <trkpt lat="45.17426" lon="5.92964">
        <ele>1827</ele>
        <time>2022-01-22T13:31:24Z</time>
      </trkpt>
      <trkpt lat="45.17418" lon="5.92957">
        <ele>1823</ele>
        <time>2022-01-22T13:31:27Z</time>
      </trkpt>
      <trkpt lat="45.17408" lon="5.92958">
        <ele>1820</ele>
        <time>2022-01-22T13:31:31Z</time>
      </trkpt>
      <trkpt lat="45.17403" lon="5.92949">
        <ele>1820</ele>
        <time>2022-01-22T13:31:34Z</time>
      </trkpt>
      <trkpt lat="45.17403" lon="5.92946">
        <ele>1820</ele>
        <time>2022-01-22T13:31:35Z</time>
      </trkpt>
      <trkpt lat="45.17403" lon="5.92948">
        <ele>1817</ele>
        <time>2022-01-22T13:31:49Z</time>
      </trkpt>
      <trkpt lat="45.17401" lon="5.92951">
        <ele>1817</ele>
        <time>2022-01-22T13:31:53Z</time>
      </trkpt>
      <trkpt lat="45.17399" lon="5.92951">
        <ele>1818</ele>
        <time>2022-01-22T13:31:57Z</time>
      </trkpt>
      <trkpt lat="45.17396" lon="5.92944">
        <ele>1816</ele>
        <time>2022-01-22T13:32:00Z</time>
      </trkpt>
      <trkpt lat="45.1739" lon="5.92932">
        <ele>1813</ele>
        <time>2022-01-22T13:32:03Z</time>
      </trkpt>
      <trkpt lat="45.17386" lon="5.9292">
        <ele>1811</ele>
        <time>2022-01-22T13:32:05Z</time>
      </trkpt>
      <trkpt lat="45.17379" lon="5.92909">
        <ele>1809</ele>
        <time>2022-01-22T13:32:07Z</time>
      </trkpt>
      <trkpt lat="45.17372" lon="5.929">
        <ele>1808</ele>
        <time>2022-01-22T13:32:09Z</time>
      </trkpt>
      <trkpt lat="45.17363" lon="5.92895">
        <ele>1807</ele>
        <time>2022-01-22T13:32:15Z</time>
      </trkpt>
      <trkpt lat="45.17356" lon="5.92883">
        <ele>1806</ele>
        <time>2022-01-22T13:32:17Z</time>
      </trkpt>
      <trkpt lat="45.17355" lon="5.92881">
        <ele>1804</ele>
        <time>2022-01-22T13:32:19Z</time>
      </trkpt>
      <trkpt lat="45.17353" lon="5.92879">
        <ele>1804</ele>
        <time>2022-01-22T13:32:21Z</time>
      </trkpt>
      <trkpt lat="45.17352" lon="5.92881">
        <ele>1803</ele>
        <time>2022-01-22T13:32:22Z</time>
      </trkpt>
      <trkpt lat="45.17354" lon="5.9288">
        <ele>1802</ele>
        <time>2022-01-22T13:32:26Z</time>
      </trkpt>
      <trkpt lat="45.17357" lon="5.92879">
        <ele>1801</ele>
        <time>2022-01-22T13:32:29Z</time>
      </trkpt>
      <trkpt lat="45.17358" lon="5.92874">
        <ele>1800</ele>
        <time>2022-01-22T13:32:30Z</time>
      </trkpt>
      <trkpt lat="45.17358" lon="5.92871">
        <ele>1800</ele>
        <time>2022-01-22T13:32:32Z</time>
      </trkpt>
      <trkpt lat="45.1736" lon="5.92865">
        <ele>1798</ele>
        <time>2022-01-22T13:32:34Z</time>
      </trkpt>
      <trkpt lat="45.17362" lon="5.92864">
        <ele>1797</ele>
        <time>2022-01-22T13:32:36Z</time>
      </trkpt>
      <trkpt lat="45.17364" lon="5.92858">
        <ele>1795</ele>
        <time>2022-01-22T13:32:44Z</time>
      </trkpt>
      <trkpt lat="45.17364" lon="5.92854">
        <ele>1795</ele>
        <time>2022-01-22T13:32:45Z</time>
      </trkpt>
      <trkpt lat="45.17365" lon="5.92849">
        <ele>1793</ele>
        <time>2022-01-22T13:32:47Z</time>
      </trkpt>
      <trkpt lat="45.17369" lon="5.9284">
        <ele>1792</ele>
        <time>2022-01-22T13:32:48Z</time>
      </trkpt>
      <trkpt lat="45.17359" lon="5.92833">
        <ele>1788</ele>
        <time>2022-01-22T13:32:53Z</time>
      </trkpt>
      <trkpt lat="45.1735" lon="5.92824">
        <ele>1787</ele>
        <time>2022-01-22T13:32:57Z</time>
      </trkpt>
      <trkpt lat="45.17349" lon="5.92811">
        <ele>1786</ele>
        <time>2022-01-22T13:33:00Z</time>
      </trkpt>
      <trkpt lat="45.17346" lon="5.92801">
        <ele>1784</ele>
        <time>2022-01-22T13:33:02Z</time>
      </trkpt>
      <trkpt lat="45.17338" lon="5.92788">
        <ele>1779</ele>
        <time>2022-01-22T13:33:05Z</time>
      </trkpt>
      <trkpt lat="45.17333" lon="5.92776">
        <ele>1777</ele>
        <time>2022-01-22T13:33:07Z</time>
      </trkpt>
      <trkpt lat="45.1733" lon="5.92762">
        <ele>1776</ele>
        <time>2022-01-22T13:33:09Z</time>
      </trkpt>
      <trkpt lat="45.17329" lon="5.92755">
        <ele>1775</ele>
        <time>2022-01-22T13:33:10Z</time>
      </trkpt>
      <trkpt lat="45.17327" lon="5.92749">
        <ele>1775</ele>
        <time>2022-01-22T13:33:11Z</time>
      </trkpt>
      <trkpt lat="45.17328" lon="5.92733">
        <ele>1773</ele>
        <time>2022-01-22T13:33:13Z</time>
      </trkpt>
      <trkpt lat="45.17328" lon="5.92727">
        <ele>1773</ele>
        <time>2022-01-22T13:33:14Z</time>
      </trkpt>
      <trkpt lat="45.17327" lon="5.92721">
        <ele>1772</ele>
        <time>2022-01-22T13:33:15Z</time>
      </trkpt>
      <trkpt lat="45.17327" lon="5.92716">
        <ele>1771</ele>
        <time>2022-01-22T13:33:16Z</time>
      </trkpt>
      <trkpt lat="45.17327" lon="5.92712">
        <ele>1770</ele>
        <time>2022-01-22T13:33:17Z</time>
      </trkpt>
      <trkpt lat="45.17329" lon="5.92704">
        <ele>1768</ele>
        <time>2022-01-22T13:33:19Z</time>
      </trkpt>
      <trkpt lat="45.17327" lon="5.92702">
        <ele>1767</ele>
        <time>2022-01-22T13:33:25Z</time>
      </trkpt>
      <trkpt lat="45.17326" lon="5.927">
        <ele>1767</ele>
        <time>2022-01-22T13:33:27Z</time>
      </trkpt>
      <trkpt lat="45.17319" lon="5.92697">
        <ele>1765</ele>
        <time>2022-01-22T13:33:31Z</time>
      </trkpt>
      <trkpt lat="45.17317" lon="5.92691">
        <ele>1763</ele>
        <time>2022-01-22T13:33:34Z</time>
      </trkpt>
      <trkpt lat="45.17318" lon="5.92688">
        <ele>1763</ele>
        <time>2022-01-22T13:33:35Z</time>
      </trkpt>
      <trkpt lat="45.17319" lon="5.92686">
        <ele>1761</ele>
        <time>2022-01-22T13:33:36Z</time>
      </trkpt>
      <trkpt lat="45.17321" lon="5.92683">
        <ele>1760</ele>
        <time>2022-01-22T13:33:37Z</time>
      </trkpt>
      <trkpt lat="45.17321" lon="5.9268">
        <ele>1756</ele>
        <time>2022-01-22T13:33:39Z</time>
      </trkpt>
      <trkpt lat="45.17321" lon="5.92676">
        <ele>1754</ele>
        <time>2022-01-22T13:33:40Z</time>
      </trkpt>
      <trkpt lat="45.17322" lon="5.92672">
        <ele>1753</ele>
        <time>2022-01-22T13:33:41Z</time>
      </trkpt>
      <trkpt lat="45.17323" lon="5.92669">
        <ele>1752</ele>
        <time>2022-01-22T13:33:42Z</time>
      </trkpt>
      <trkpt lat="45.17324" lon="5.92665">
        <ele>1752</ele>
        <time>2022-01-22T13:33:43Z</time>
      </trkpt>
      <trkpt lat="45.17322" lon="5.92663">
        <ele>1751</ele>
        <time>2022-01-22T13:33:44Z</time>
      </trkpt>
      <trkpt lat="45.17317" lon="5.92662">
        <ele>1749</ele>
        <time>2022-01-22T13:33:45Z</time>
      </trkpt>
      <trkpt lat="45.17314" lon="5.92661">
        <ele>1747</ele>
        <time>2022-01-22T13:33:47Z</time>
      </trkpt>
      <trkpt lat="45.17304" lon="5.92653">
        <ele>1745</ele>
        <time>2022-01-22T13:33:50Z</time>
      </trkpt>
      <trkpt lat="45.17303" lon="5.92637">
        <ele>1742</ele>
        <time>2022-01-22T13:33:54Z</time>
      </trkpt>
      <trkpt lat="45.17311" lon="5.92627">
        <ele>1740</ele>
        <time>2022-01-22T13:33:57Z</time>
      </trkpt>
      <trkpt lat="45.17316" lon="5.92614">
        <ele>1737</ele>
        <time>2022-01-22T13:33:59Z</time>
      </trkpt>
      <trkpt lat="45.17314" lon="5.92599">
        <ele>1735</ele>
        <time>2022-01-22T13:34:02Z</time>
      </trkpt>
      <trkpt lat="45.17312" lon="5.92585">
        <ele>1734</ele>
        <time>2022-01-22T13:34:05Z</time>
      </trkpt>
      <trkpt lat="45.17317" lon="5.92567">
        <ele>1732</ele>
        <time>2022-01-22T13:34:09Z</time>
      </trkpt>
      <trkpt lat="45.17321" lon="5.92561">
        <ele>1732</ele>
        <time>2022-01-22T13:34:10Z</time>
      </trkpt>
      <trkpt lat="45.17326" lon="5.92554">
        <ele>1731</ele>
        <time>2022-01-22T13:34:11Z</time>
      </trkpt>
      <trkpt lat="45.17334" lon="5.92541">
        <ele>1730</ele>
        <time>2022-01-22T13:34:12Z</time>
      </trkpt>
      <trkpt lat="45.17338" lon="5.92534">
        <ele>1729</ele>
        <time>2022-01-22T13:34:14Z</time>
      </trkpt>
      <trkpt lat="45.17344" lon="5.9252">
        <ele>1728</ele>
        <time>2022-01-22T13:34:16Z</time>
      </trkpt>
      <trkpt lat="45.17347" lon="5.92515">
        <ele>1727</ele>
        <time>2022-01-22T13:34:17Z</time>
      </trkpt>
      <trkpt lat="45.17351" lon="5.92506">
        <ele>1727</ele>
        <time>2022-01-22T13:34:18Z</time>
      </trkpt>
      <trkpt lat="45.17354" lon="5.92501">
        <ele>1726</ele>
        <time>2022-01-22T13:34:19Z</time>
      </trkpt>
      <trkpt lat="45.17356" lon="5.92496">
        <ele>1726</ele>
        <time>2022-01-22T13:34:20Z</time>
      </trkpt>
      <trkpt lat="45.17359" lon="5.92491">
        <ele>1726</ele>
        <time>2022-01-22T13:34:21Z</time>
      </trkpt>
      <trkpt lat="45.17361" lon="5.92487">
        <ele>1726</ele>
        <time>2022-01-22T13:34:22Z</time>
      </trkpt>
      <trkpt lat="45.17363" lon="5.92482">
        <ele>1725</ele>
        <time>2022-01-22T13:34:23Z</time>
      </trkpt>
      <trkpt lat="45.17365" lon="5.92477">
        <ele>1725</ele>
        <time>2022-01-22T13:34:24Z</time>
      </trkpt>
      <trkpt lat="45.17368" lon="5.92472">
        <ele>1725</ele>
        <time>2022-01-22T13:34:25Z</time>
      </trkpt>
      <trkpt lat="45.1737" lon="5.92466">
        <ele>1724</ele>
        <time>2022-01-22T13:34:26Z</time>
      </trkpt>
      <trkpt lat="45.17372" lon="5.9246">
        <ele>1723</ele>
        <time>2022-01-22T13:34:28Z</time>
      </trkpt>
      <trkpt lat="45.17375" lon="5.92454">
        <ele>1722</ele>
        <time>2022-01-22T13:34:29Z</time>
      </trkpt>
      <trkpt lat="45.17377" lon="5.92448">
        <ele>1722</ele>
        <time>2022-01-22T13:34:30Z</time>
      </trkpt>
      <trkpt lat="45.17379" lon="5.92442">
        <ele>1722</ele>
        <time>2022-01-22T13:34:31Z</time>
      </trkpt>
      <trkpt lat="45.17381" lon="5.92438">
        <ele>1722</ele>
        <time>2022-01-22T13:34:32Z</time>
      </trkpt>
      <trkpt lat="45.17383" lon="5.92433">
        <ele>1721</ele>
        <time>2022-01-22T13:34:33Z</time>
      </trkpt>
      <trkpt lat="45.17385" lon="5.92429">
        <ele>1721</ele>
        <time>2022-01-22T13:34:34Z</time>
      </trkpt>
      <trkpt lat="45.17388" lon="5.92424">
        <ele>1721</ele>
        <time>2022-01-22T13:34:35Z</time>
      </trkpt>
      <trkpt lat="45.17391" lon="5.92419">
        <ele>1720</ele>
        <time>2022-01-22T13:34:36Z</time>
      </trkpt>
      <trkpt lat="45.17395" lon="5.92413">
        <ele>1720</ele>
        <time>2022-01-22T13:34:37Z</time>
      </trkpt>
      <trkpt lat="45.17406" lon="5.92402">
        <ele>1717</ele>
        <time>2022-01-22T13:34:39Z</time>
      </trkpt>
      <trkpt lat="45.17417" lon="5.92394">
        <ele>1715</ele>
        <time>2022-01-22T13:34:40Z</time>
      </trkpt>
      <trkpt lat="45.1742" lon="5.92392">
        <ele>1714</ele>
        <time>2022-01-22T13:34:41Z</time>
      </trkpt>
      <trkpt lat="45.17431" lon="5.92391">
        <ele>1714</ele>
        <time>2022-01-22T13:34:44Z</time>
      </trkpt>
      <trkpt lat="45.17435" lon="5.9239">
        <ele>1713</ele>
        <time>2022-01-22T13:34:45Z</time>
      </trkpt>
      <trkpt lat="45.17439" lon="5.92389">
        <ele>1712</ele>
        <time>2022-01-22T13:34:46Z</time>
      </trkpt>
      <trkpt lat="45.17443" lon="5.92389">
        <ele>1711</ele>
        <time>2022-01-22T13:34:47Z</time>
      </trkpt>
      <trkpt lat="45.17445" lon="5.92389">
        <ele>1710</ele>
        <time>2022-01-22T13:34:49Z</time>
      </trkpt>
      <trkpt lat="45.1745" lon="5.92388">
        <ele>1708</ele>
        <time>2022-01-22T13:34:52Z</time>
      </trkpt>
      <trkpt lat="45.17453" lon="5.92388">
        <ele>1708</ele>
        <time>2022-01-22T13:34:53Z</time>
      </trkpt>
      <trkpt lat="45.17459" lon="5.92385">
        <ele>1707</ele>
        <time>2022-01-22T13:34:54Z</time>
      </trkpt>
      <trkpt lat="45.17471" lon="5.92388">
        <ele>1703</ele>
        <time>2022-01-22T13:35:04Z</time>
      </trkpt>
      <trkpt lat="45.17479" lon="5.92393">
        <ele>1700</ele>
        <time>2022-01-22T13:35:06Z</time>
      </trkpt>
      <trkpt lat="45.17489" lon="5.92395">
        <ele>1695</ele>
        <time>2022-01-22T13:35:09Z</time>
      </trkpt>
      <trkpt lat="45.175" lon="5.92394">
        <ele>1693</ele>
        <time>2022-01-22T13:35:11Z</time>
      </trkpt>
      <trkpt lat="45.17508" lon="5.92403">
        <ele>1688</ele>
        <time>2022-01-22T13:35:14Z</time>
      </trkpt>
      <trkpt lat="45.17519" lon="5.9241">
        <ele>1686</ele>
        <time>2022-01-22T13:35:16Z</time>
      </trkpt>
      <trkpt lat="45.17519" lon="5.92413">
        <ele>1685</ele>
        <time>2022-01-22T13:35:18Z</time>
      </trkpt>
      <trkpt lat="45.17521" lon="5.92416">
        <ele>1685</ele>
        <time>2022-01-22T13:35:24Z</time>
      </trkpt>
      <trkpt lat="45.17527" lon="5.92401">
        <ele>1682</ele>
        <time>2022-01-22T13:35:31Z</time>
      </trkpt>
      <trkpt lat="45.17528" lon="5.92387">
        <ele>1681</ele>
        <time>2022-01-22T13:35:33Z</time>
      </trkpt>
      <trkpt lat="45.17538" lon="5.92383">
        <ele>1679</ele>
        <time>2022-01-22T13:35:36Z</time>
      </trkpt>
      <trkpt lat="45.17548" lon="5.92376">
        <ele>1679</ele>
        <time>2022-01-22T13:35:39Z</time>
      </trkpt>
      <trkpt lat="45.17557" lon="5.9237">
        <ele>1678</ele>
        <time>2022-01-22T13:35:42Z</time>
      </trkpt>
      <trkpt lat="45.17567" lon="5.92365">
        <ele>1676</ele>
        <time>2022-01-22T13:35:46Z</time>
      </trkpt>
      <trkpt lat="45.17567" lon="5.92352">
        <ele>1675</ele>
        <time>2022-01-22T13:35:50Z</time>
      </trkpt>
      <trkpt lat="45.17561" lon="5.92339">
        <ele>1674</ele>
        <time>2022-01-22T13:35:54Z</time>
      </trkpt>
      <trkpt lat="45.17553" lon="5.92331">
        <ele>1675</ele>
        <time>2022-01-22T13:36:00Z</time>
      </trkpt>
      <trkpt lat="45.17551" lon="5.92328">
        <ele>1675</ele>
        <time>2022-01-22T13:36:02Z</time>
      </trkpt>
      <trkpt lat="45.17549" lon="5.92326">
        <ele>1675</ele>
        <time>2022-01-22T13:36:03Z</time>
      </trkpt>
      <trkpt lat="45.17547" lon="5.92325">
        <ele>1675</ele>
        <time>2022-01-22T13:36:04Z</time>
      </trkpt>
      <trkpt lat="45.17546" lon="5.92323">
        <ele>1675</ele>
        <time>2022-01-22T13:36:05Z</time>
      </trkpt>
      <trkpt lat="45.17542" lon="5.9232">
        <ele>1675</ele>
        <time>2022-01-22T13:36:07Z</time>
      </trkpt>
      <trkpt lat="45.1754" lon="5.92317">
        <ele>1675</ele>
        <time>2022-01-22T13:36:09Z</time>
      </trkpt>
      <trkpt lat="45.17533" lon="5.92305">
        <ele>1675</ele>
        <time>2022-01-22T13:36:14Z</time>
      </trkpt>
      <trkpt lat="45.17532" lon="5.92299">
        <ele>1675</ele>
        <time>2022-01-22T13:36:17Z</time>
      </trkpt>
      <trkpt lat="45.17533" lon="5.92296">
        <ele>1675</ele>
        <time>2022-01-22T13:36:18Z</time>
      </trkpt>
      <trkpt lat="45.17534" lon="5.92293">
        <ele>1675</ele>
        <time>2022-01-22T13:36:19Z</time>
      </trkpt>
      <trkpt lat="45.17537" lon="5.92287">
        <ele>1675</ele>
        <time>2022-01-22T13:36:22Z</time>
      </trkpt>
      <trkpt lat="45.17538" lon="5.92284">
        <ele>1675</ele>
        <time>2022-01-22T13:36:24Z</time>
      </trkpt>
      <trkpt lat="45.17539" lon="5.9228">
        <ele>1675</ele>
        <time>2022-01-22T13:36:26Z</time>
      </trkpt>
      <trkpt lat="45.1754" lon="5.92277">
        <ele>1675</ele>
        <time>2022-01-22T13:36:27Z</time>
      </trkpt>
      <trkpt lat="45.17543" lon="5.9227">
        <ele>1675</ele>
        <time>2022-01-22T13:36:29Z</time>
      </trkpt>
      <trkpt lat="45.17547" lon="5.92259">
        <ele>1674</ele>
        <time>2022-01-22T13:36:32Z</time>
      </trkpt>
      <trkpt lat="45.17548" lon="5.92256">
        <ele>1674</ele>
        <time>2022-01-22T13:36:33Z</time>
      </trkpt>
      <trkpt lat="45.17548" lon="5.92254">
        <ele>1674</ele>
        <time>2022-01-22T13:36:34Z</time>
      </trkpt>
      <trkpt lat="45.17549" lon="5.92251">
        <ele>1674</ele>
        <time>2022-01-22T13:36:35Z</time>
      </trkpt>
      <trkpt lat="45.17551" lon="5.92245">
        <ele>1674</ele>
        <time>2022-01-22T13:36:36Z</time>
      </trkpt>
      <trkpt lat="45.17553" lon="5.92241">
        <ele>1673</ele>
        <time>2022-01-22T13:36:38Z</time>
      </trkpt>
      <trkpt lat="45.17554" lon="5.92237">
        <ele>1673</ele>
        <time>2022-01-22T13:36:39Z</time>
      </trkpt>
      <trkpt lat="45.17557" lon="5.92229">
        <ele>1672</ele>
        <time>2022-01-22T13:36:40Z</time>
      </trkpt>
      <trkpt lat="45.17558" lon="5.92225">
        <ele>1672</ele>
        <time>2022-01-22T13:36:41Z</time>
      </trkpt>
      <trkpt lat="45.1756" lon="5.92221">
        <ele>1672</ele>
        <time>2022-01-22T13:36:42Z</time>
      </trkpt>
      <trkpt lat="45.17563" lon="5.92214">
        <ele>1672</ele>
        <time>2022-01-22T13:36:44Z</time>
      </trkpt>
      <trkpt lat="45.17564" lon="5.9221">
        <ele>1671</ele>
        <time>2022-01-22T13:36:46Z</time>
      </trkpt>
      <trkpt lat="45.17571" lon="5.92199">
        <ele>1671</ele>
        <time>2022-01-22T13:36:49Z</time>
      </trkpt>
      <trkpt lat="45.17583" lon="5.92184">
        <ele>1671</ele>
        <time>2022-01-22T13:36:54Z</time>
      </trkpt>
      <trkpt lat="45.17585" lon="5.9218">
        <ele>1670</ele>
        <time>2022-01-22T13:36:55Z</time>
      </trkpt>
      <trkpt lat="45.17587" lon="5.92175">
        <ele>1670</ele>
        <time>2022-01-22T13:36:56Z</time>
      </trkpt>
      <trkpt lat="45.17589" lon="5.92171">
        <ele>1670</ele>
        <time>2022-01-22T13:36:57Z</time>
      </trkpt>
      <trkpt lat="45.17593" lon="5.92164">
        <ele>1670</ele>
        <time>2022-01-22T13:36:59Z</time>
      </trkpt>
      <trkpt lat="45.17596" lon="5.92163">
        <ele>1668</ele>
        <time>2022-01-22T13:37:00Z</time>
      </trkpt>
      <trkpt lat="45.17594" lon="5.9216">
        <ele>1668</ele>
        <time>2022-01-22T13:37:10Z</time>
      </trkpt>
      <trkpt lat="45.17598" lon="5.92155">
        <ele>1667</ele>
        <time>2022-01-22T13:37:20Z</time>
      </trkpt>
      <trkpt lat="45.17604" lon="5.92144">
        <ele>1668</ele>
        <time>2022-01-22T13:37:37Z</time>
      </trkpt>
      <trkpt lat="45.17611" lon="5.92135">
        <ele>1667</ele>
        <time>2022-01-22T13:37:41Z</time>
      </trkpt>
      <trkpt lat="45.17618" lon="5.92124">
        <ele>1666</ele>
        <time>2022-01-22T13:37:46Z</time>
      </trkpt>
      <trkpt lat="45.17625" lon="5.92112">
        <ele>1666</ele>
        <time>2022-01-22T13:37:52Z</time>
      </trkpt>
      <trkpt lat="45.17628" lon="5.92099">
        <ele>1667</ele>
        <time>2022-01-22T13:37:56Z</time>
      </trkpt>
      <trkpt lat="45.17635" lon="5.92086">
        <ele>1665</ele>
        <time>2022-01-22T13:38:01Z</time>
      </trkpt>
      <trkpt lat="45.17642" lon="5.92076">
        <ele>1665</ele>
        <time>2022-01-22T13:38:05Z</time>
      </trkpt>
      <trkpt lat="45.17651" lon="5.9207">
        <ele>1665</ele>
        <time>2022-01-22T13:38:09Z</time>
      </trkpt>
      <trkpt lat="45.17659" lon="5.92065">
        <ele>1664</ele>
        <time>2022-01-22T13:38:11Z</time>
      </trkpt>
      <trkpt lat="45.17667" lon="5.92059">
        <ele>1664</ele>
        <time>2022-01-22T13:38:14Z</time>
      </trkpt>
      <trkpt lat="45.17672" lon="5.92056">
        <ele>1664</ele>
        <time>2022-01-22T13:38:16Z</time>
      </trkpt>
      <trkpt lat="45.1768" lon="5.92049">
        <ele>1664</ele>
        <time>2022-01-22T13:38:22Z</time>
      </trkpt>
      <trkpt lat="45.17681" lon="5.92045">
        <ele>1663</ele>
        <time>2022-01-22T13:38:24Z</time>
      </trkpt>
      <trkpt lat="45.17682" lon="5.92028">
        <ele>1662</ele>
        <time>2022-01-22T13:38:26Z</time>
      </trkpt>
      <trkpt lat="45.17682" lon="5.92014">
        <ele>1662</ele>
        <time>2022-01-22T13:38:30Z</time>
      </trkpt>
      <trkpt lat="45.17685" lon="5.92002">
        <ele>1661</ele>
        <time>2022-01-22T13:38:35Z</time>
      </trkpt>
      <trkpt lat="45.17692" lon="5.91989">
        <ele>1660</ele>
        <time>2022-01-22T13:38:38Z</time>
      </trkpt>
      <trkpt lat="45.17701" lon="5.91981">
        <ele>1660</ele>
        <time>2022-01-22T13:38:41Z</time>
      </trkpt>
      <trkpt lat="45.1771" lon="5.91974">
        <ele>1659</ele>
        <time>2022-01-22T13:38:44Z</time>
      </trkpt>
      <trkpt lat="45.1771" lon="5.91969">
        <ele>1657</ele>
        <time>2022-01-22T13:38:50Z</time>
      </trkpt>
      <trkpt lat="45.17712" lon="5.91967">
        <ele>1657</ele>
        <time>2022-01-22T13:38:54Z</time>
      </trkpt>
      <trkpt lat="45.17713" lon="5.91965">
        <ele>1657</ele>
        <time>2022-01-22T13:38:57Z</time>
      </trkpt>
      <trkpt lat="45.17714" lon="5.91963">
        <ele>1657</ele>
        <time>2022-01-22T13:38:59Z</time>
      </trkpt>
      <trkpt lat="45.17714" lon="5.9196">
        <ele>1656</ele>
        <time>2022-01-22T13:39:04Z</time>
      </trkpt>
      <trkpt lat="45.17713" lon="5.91958">
        <ele>1657</ele>
        <time>2022-01-22T13:39:07Z</time>
      </trkpt>
      <trkpt lat="45.17712" lon="5.91955">
        <ele>1656</ele>
        <time>2022-01-22T13:39:10Z</time>
      </trkpt>
      <trkpt lat="45.17714" lon="5.91954">
        <ele>1655</ele>
        <time>2022-01-22T13:39:14Z</time>
      </trkpt>
      <trkpt lat="45.17715" lon="5.91951">
        <ele>1656</ele>
        <time>2022-01-22T13:39:16Z</time>
      </trkpt>
      <trkpt lat="45.17716" lon="5.91949">
        <ele>1654</ele>
        <time>2022-01-22T13:39:19Z</time>
      </trkpt>
      <trkpt lat="45.17715" lon="5.91946">
        <ele>1654</ele>
        <time>2022-01-22T13:39:20Z</time>
      </trkpt>
      <trkpt lat="45.17715" lon="5.91942">
        <ele>1654</ele>
        <time>2022-01-22T13:39:22Z</time>
      </trkpt>
      <trkpt lat="45.17716" lon="5.91938">
        <ele>1654</ele>
        <time>2022-01-22T13:39:24Z</time>
      </trkpt>
      <trkpt lat="45.17717" lon="5.91935">
        <ele>1654</ele>
        <time>2022-01-22T13:39:25Z</time>
      </trkpt>
      <trkpt lat="45.17717" lon="5.9193">
        <ele>1654</ele>
        <time>2022-01-22T13:39:27Z</time>
      </trkpt>
      <trkpt lat="45.17717" lon="5.91926">
        <ele>1653</ele>
        <time>2022-01-22T13:39:30Z</time>
      </trkpt>
      <trkpt lat="45.17716" lon="5.91922">
        <ele>1652</ele>
        <time>2022-01-22T13:39:32Z</time>
      </trkpt>
      <trkpt lat="45.17716" lon="5.91918">
        <ele>1651</ele>
        <time>2022-01-22T13:39:37Z</time>
      </trkpt>
      <trkpt lat="45.17715" lon="5.91914">
        <ele>1650</ele>
        <time>2022-01-22T13:39:39Z</time>
      </trkpt>
      <trkpt lat="45.17714" lon="5.91912">
        <ele>1650</ele>
        <time>2022-01-22T13:39:43Z</time>
      </trkpt>
      <trkpt lat="45.17717" lon="5.91911">
        <ele>1649</ele>
        <time>2022-01-22T13:39:53Z</time>
      </trkpt>
      <trkpt lat="45.17719" lon="5.91911">
        <ele>1649</ele>
        <time>2022-01-22T13:39:55Z</time>
      </trkpt>
      <trkpt lat="45.17722" lon="5.91912">
        <ele>1649</ele>
        <time>2022-01-22T13:40:00Z</time>
      </trkpt>
      <trkpt lat="45.17724" lon="5.91909">
        <ele>1649</ele>
        <time>2022-01-22T13:40:02Z</time>
      </trkpt>
      <trkpt lat="45.17725" lon="5.91907">
        <ele>1647</ele>
        <time>2022-01-22T13:40:04Z</time>
      </trkpt>
      <trkpt lat="45.17725" lon="5.91904">
        <ele>1646</ele>
        <time>2022-01-22T13:40:07Z</time>
      </trkpt>
      <trkpt lat="45.17726" lon="5.91902">
        <ele>1645</ele>
        <time>2022-01-22T13:40:19Z</time>
      </trkpt>
      <trkpt lat="45.17728" lon="5.919">
        <ele>1644</ele>
        <time>2022-01-22T13:40:21Z</time>
      </trkpt>
      <trkpt lat="45.1773" lon="5.91898">
        <ele>1643</ele>
        <time>2022-01-22T13:40:24Z</time>
      </trkpt>
      <trkpt lat="45.17728" lon="5.91893">
        <ele>1643</ele>
        <time>2022-01-22T13:40:27Z</time>
      </trkpt>
      <trkpt lat="45.17727" lon="5.9189">
        <ele>1642</ele>
        <time>2022-01-22T13:40:28Z</time>
      </trkpt>
      <trkpt lat="45.1773" lon="5.91888">
        <ele>1641</ele>
        <time>2022-01-22T13:40:30Z</time>
      </trkpt>
      <trkpt lat="45.17732" lon="5.91887">
        <ele>1641</ele>
        <time>2022-01-22T13:40:31Z</time>
      </trkpt>
      <trkpt lat="45.17736" lon="5.91885">
        <ele>1641</ele>
        <time>2022-01-22T13:40:33Z</time>
      </trkpt>
      <trkpt lat="45.17739" lon="5.91882">
        <ele>1639</ele>
        <time>2022-01-22T13:40:35Z</time>
      </trkpt>
      <trkpt lat="45.1774" lon="5.9188">
        <ele>1638</ele>
        <time>2022-01-22T13:40:36Z</time>
      </trkpt>
      <trkpt lat="45.17739" lon="5.91878">
        <ele>1637</ele>
        <time>2022-01-22T13:40:45Z</time>
      </trkpt>
      <trkpt lat="45.17737" lon="5.91875">
        <ele>1637</ele>
        <time>2022-01-22T13:40:48Z</time>
      </trkpt>
      <trkpt lat="45.17736" lon="5.91873">
        <ele>1637</ele>
        <time>2022-01-22T13:40:50Z</time>
      </trkpt>
      <trkpt lat="45.17734" lon="5.9187">
        <ele>1637</ele>
        <time>2022-01-22T13:40:52Z</time>
      </trkpt>
      <trkpt lat="45.17733" lon="5.9187">
        <ele>1637</ele>
        <time>2022-01-22T13:40:56Z</time>
      </trkpt>
      <trkpt lat="45.1773" lon="5.91869">
        <ele>1636</ele>
        <time>2022-01-22T13:40:57Z</time>
      </trkpt>
      <trkpt lat="45.17728" lon="5.91868">
        <ele>1635</ele>
        <time>2022-01-22T13:40:59Z</time>
      </trkpt>
      <trkpt lat="45.17726" lon="5.91866">
        <ele>1635</ele>
        <time>2022-01-22T13:41:04Z</time>
      </trkpt>
      <trkpt lat="45.17724" lon="5.91864">
        <ele>1635</ele>
        <time>2022-01-22T13:41:06Z</time>
      </trkpt>
      <trkpt lat="45.17722" lon="5.91863">
        <ele>1634</ele>
        <time>2022-01-22T13:41:07Z</time>
      </trkpt>
      <trkpt lat="45.1772" lon="5.91861">
        <ele>1633</ele>
        <time>2022-01-22T13:41:09Z</time>
      </trkpt>
      <trkpt lat="45.17717" lon="5.91862">
        <ele>1633</ele>
        <time>2022-01-22T13:41:15Z</time>
      </trkpt>
      <trkpt lat="45.17719" lon="5.9186">
        <ele>1633</ele>
        <time>2022-01-22T13:41:20Z</time>
      </trkpt>
      <trkpt lat="45.17721" lon="5.91859">
        <ele>1632</ele>
        <time>2022-01-22T13:41:21Z</time>
      </trkpt>
      <trkpt lat="45.17722" lon="5.91859">
        <ele>1631</ele>
        <time>2022-01-22T13:41:25Z</time>
      </trkpt>
      <trkpt lat="45.17724" lon="5.91858">
        <ele>1631</ele>
        <time>2022-01-22T13:41:28Z</time>
      </trkpt>
      <trkpt lat="45.17726" lon="5.91857">
        <ele>1631</ele>
        <time>2022-01-22T13:41:32Z</time>
      </trkpt>
      <trkpt lat="45.17729" lon="5.91855">
        <ele>1631</ele>
        <time>2022-01-22T13:41:34Z</time>
      </trkpt>
      <trkpt lat="45.17731" lon="5.91854">
        <ele>1631</ele>
        <time>2022-01-22T13:41:36Z</time>
      </trkpt>
      <trkpt lat="45.17734" lon="5.91853">
        <ele>1630</ele>
        <time>2022-01-22T13:41:38Z</time>
      </trkpt>
      <trkpt lat="45.17737" lon="5.91851">
        <ele>1630</ele>
        <time>2022-01-22T13:41:40Z</time>
      </trkpt>
      <trkpt lat="45.1774" lon="5.91849">
        <ele>1629</ele>
        <time>2022-01-22T13:41:42Z</time>
      </trkpt>
      <trkpt lat="45.17742" lon="5.91849">
        <ele>1629</ele>
        <time>2022-01-22T13:41:44Z</time>
      </trkpt>
      <trkpt lat="45.17744" lon="5.91848">
        <ele>1628</ele>
        <time>2022-01-22T13:41:48Z</time>
      </trkpt>
      <trkpt lat="45.17749" lon="5.91847">
        <ele>1628</ele>
        <time>2022-01-22T13:41:50Z</time>
      </trkpt>
      <trkpt lat="45.17753" lon="5.91845">
        <ele>1627</ele>
        <time>2022-01-22T13:41:52Z</time>
      </trkpt>
      <trkpt lat="45.17755" lon="5.91845">
        <ele>1627</ele>
        <time>2022-01-22T13:41:54Z</time>
      </trkpt>
      <trkpt lat="45.17758" lon="5.91845">
        <ele>1626</ele>
        <time>2022-01-22T13:41:56Z</time>
      </trkpt>
      <trkpt lat="45.1776" lon="5.91845">
        <ele>1626</ele>
        <time>2022-01-22T13:41:57Z</time>
      </trkpt>
      <trkpt lat="45.17762" lon="5.91844">
        <ele>1626</ele>
        <time>2022-01-22T13:42:01Z</time>
      </trkpt>
      <trkpt lat="45.17764" lon="5.91844">
        <ele>1624</ele>
        <time>2022-01-22T13:42:05Z</time>
      </trkpt>
      <trkpt lat="45.17766" lon="5.91845">
        <ele>1625</ele>
        <time>2022-01-22T13:42:09Z</time>
      </trkpt>
      <trkpt lat="45.17769" lon="5.91845">
        <ele>1624</ele>
        <time>2022-01-22T13:42:14Z</time>
      </trkpt>
      <trkpt lat="45.17771" lon="5.91846">
        <ele>1624</ele>
        <time>2022-01-22T13:42:15Z</time>
      </trkpt>
      <trkpt lat="45.17773" lon="5.91844">
        <ele>1623</ele>
        <time>2022-01-22T13:42:18Z</time>
      </trkpt>
      <trkpt lat="45.17772" lon="5.91842">
        <ele>1623</ele>
        <time>2022-01-22T13:42:29Z</time>
      </trkpt>
      <trkpt lat="45.1777" lon="5.9184">
        <ele>1622</ele>
        <time>2022-01-22T13:42:33Z</time>
      </trkpt>
      <trkpt lat="45.17768" lon="5.91841">
        <ele>1622</ele>
        <time>2022-01-22T13:42:35Z</time>
      </trkpt>
      <trkpt lat="45.17766" lon="5.9184">
        <ele>1622</ele>
        <time>2022-01-22T13:42:39Z</time>
      </trkpt>
      <trkpt lat="45.17764" lon="5.91839">
        <ele>1622</ele>
        <time>2022-01-22T13:42:42Z</time>
      </trkpt>
      <trkpt lat="45.17762" lon="5.9184">
        <ele>1621</ele>
        <time>2022-01-22T13:43:19Z</time>
      </trkpt>
      <trkpt lat="45.17761" lon="5.91838">
        <ele>1620</ele>
        <time>2022-01-22T13:43:23Z</time>
      </trkpt>
      <trkpt lat="45.1776" lon="5.91835">
        <ele>1620</ele>
        <time>2022-01-22T13:43:28Z</time>
      </trkpt>
      <trkpt lat="45.17759" lon="5.91832">
        <ele>1620</ele>
        <time>2022-01-22T13:43:32Z</time>
      </trkpt>
      <trkpt lat="45.17758" lon="5.9183">
        <ele>1619</ele>
        <time>2022-01-22T13:43:34Z</time>
      </trkpt>
      <trkpt lat="45.17759" lon="5.91827">
        <ele>1619</ele>
        <time>2022-01-22T13:43:36Z</time>
      </trkpt>
      <trkpt lat="45.17761" lon="5.91826">
        <ele>1617</ele>
        <time>2022-01-22T13:43:40Z</time>
      </trkpt>
      <trkpt lat="45.17763" lon="5.91824">
        <ele>1616</ele>
        <time>2022-01-22T13:43:42Z</time>
      </trkpt>
      <trkpt lat="45.17765" lon="5.91824">
        <ele>1616</ele>
        <time>2022-01-22T13:43:45Z</time>
      </trkpt>
      <trkpt lat="45.17767" lon="5.91823">
        <ele>1616</ele>
        <time>2022-01-22T13:43:48Z</time>
      </trkpt>
      <trkpt lat="45.17769" lon="5.91823">
        <ele>1616</ele>
        <time>2022-01-22T13:43:50Z</time>
      </trkpt>
      <trkpt lat="45.1777" lon="5.91823">
        <ele>1616</ele>
        <time>2022-01-22T13:43:54Z</time>
      </trkpt>
      <trkpt lat="45.17772" lon="5.91823">
        <ele>1616</ele>
        <time>2022-01-22T13:43:56Z</time>
      </trkpt>
      <trkpt lat="45.17774" lon="5.91822">
        <ele>1615</ele>
        <time>2022-01-22T13:43:59Z</time>
      </trkpt>
      <trkpt lat="45.17776" lon="5.91822">
        <ele>1615</ele>
        <time>2022-01-22T13:44:02Z</time>
      </trkpt>
      <trkpt lat="45.17778" lon="5.91823">
        <ele>1615</ele>
        <time>2022-01-22T13:44:04Z</time>
      </trkpt>
      <trkpt lat="45.1778" lon="5.91822">
        <ele>1615</ele>
        <time>2022-01-22T13:44:06Z</time>
      </trkpt>
      <trkpt lat="45.17783" lon="5.91823">
        <ele>1614</ele>
        <time>2022-01-22T13:44:09Z</time>
      </trkpt>
      <trkpt lat="45.17785" lon="5.91823">
        <ele>1614</ele>
        <time>2022-01-22T13:44:11Z</time>
      </trkpt>
      <trkpt lat="45.17787" lon="5.91825">
        <ele>1614</ele>
        <time>2022-01-22T13:44:14Z</time>
      </trkpt>
      <trkpt lat="45.17789" lon="5.91826">
        <ele>1613</ele>
        <time>2022-01-22T13:44:17Z</time>
      </trkpt>
      <trkpt lat="45.17791" lon="5.91824">
        <ele>1612</ele>
        <time>2022-01-22T13:44:20Z</time>
      </trkpt>
      <trkpt lat="45.1779" lon="5.91822">
        <ele>1610</ele>
        <time>2022-01-22T13:44:32Z</time>
      </trkpt>
      <trkpt lat="45.17788" lon="5.9182">
        <ele>1610</ele>
        <time>2022-01-22T13:44:34Z</time>
      </trkpt>
      <trkpt lat="45.17787" lon="5.91818">
        <ele>1609</ele>
        <time>2022-01-22T13:44:36Z</time>
      </trkpt>
      <trkpt lat="45.17785" lon="5.91816">
        <ele>1608</ele>
        <time>2022-01-22T13:44:39Z</time>
      </trkpt>
      <trkpt lat="45.17783" lon="5.91814">
        <ele>1607</ele>
        <time>2022-01-22T13:44:41Z</time>
      </trkpt>
      <trkpt lat="45.17782" lon="5.91812">
        <ele>1607</ele>
        <time>2022-01-22T13:44:44Z</time>
      </trkpt>
      <trkpt lat="45.1778" lon="5.9181">
        <ele>1606</ele>
        <time>2022-01-22T13:44:46Z</time>
      </trkpt>
      <trkpt lat="45.17778" lon="5.91808">
        <ele>1606</ele>
        <time>2022-01-22T13:44:49Z</time>
      </trkpt>
      <trkpt lat="45.17777" lon="5.91806">
        <ele>1606</ele>
        <time>2022-01-22T13:44:54Z</time>
      </trkpt>
      <trkpt lat="45.17775" lon="5.91804">
        <ele>1606</ele>
        <time>2022-01-22T13:44:58Z</time>
      </trkpt>
      <trkpt lat="45.17774" lon="5.91802">
        <ele>1605</ele>
        <time>2022-01-22T13:45:01Z</time>
      </trkpt>
      <trkpt lat="45.17771" lon="5.91801">
        <ele>1604</ele>
        <time>2022-01-22T13:45:04Z</time>
      </trkpt>
      <trkpt lat="45.1777" lon="5.91798">
        <ele>1604</ele>
        <time>2022-01-22T13:45:06Z</time>
      </trkpt>
      <trkpt lat="45.1777" lon="5.91796">
        <ele>1604</ele>
        <time>2022-01-22T13:45:09Z</time>
      </trkpt>
      <trkpt lat="45.17773" lon="5.91794">
        <ele>1602</ele>
        <time>2022-01-22T13:45:14Z</time>
      </trkpt>
      <trkpt lat="45.17775" lon="5.91794">
        <ele>1601</ele>
        <time>2022-01-22T13:45:17Z</time>
      </trkpt>
      <trkpt lat="45.17777" lon="5.91794">
        <ele>1601</ele>
        <time>2022-01-22T13:45:19Z</time>
      </trkpt>
      <trkpt lat="45.17779" lon="5.91793">
        <ele>1601</ele>
        <time>2022-01-22T13:45:21Z</time>
      </trkpt>
      <trkpt lat="45.17782" lon="5.91793">
        <ele>1600</ele>
        <time>2022-01-22T13:45:24Z</time>
      </trkpt>
      <trkpt lat="45.17784" lon="5.91793">
        <ele>1600</ele>
        <time>2022-01-22T13:45:26Z</time>
      </trkpt>
      <trkpt lat="45.17786" lon="5.91793">
        <ele>1600</ele>
        <time>2022-01-22T13:45:28Z</time>
      </trkpt>
      <trkpt lat="45.17788" lon="5.91792">
        <ele>1598</ele>
        <time>2022-01-22T13:45:33Z</time>
      </trkpt>
      <trkpt lat="45.1779" lon="5.91792">
        <ele>1598</ele>
        <time>2022-01-22T13:45:36Z</time>
      </trkpt>
      <trkpt lat="45.17792" lon="5.91792">
        <ele>1598</ele>
        <time>2022-01-22T13:45:39Z</time>
      </trkpt>
      <trkpt lat="45.17795" lon="5.91793">
        <ele>1597</ele>
        <time>2022-01-22T13:45:42Z</time>
      </trkpt>
      <trkpt lat="45.17797" lon="5.91794">
        <ele>1596</ele>
        <time>2022-01-22T13:45:45Z</time>
      </trkpt>
      <trkpt lat="45.17799" lon="5.91793">
        <ele>1596</ele>
        <time>2022-01-22T13:45:47Z</time>
      </trkpt>
      <trkpt lat="45.17801" lon="5.91792">
        <ele>1596</ele>
        <time>2022-01-22T13:45:50Z</time>
      </trkpt>
      <trkpt lat="45.17803" lon="5.91793">
        <ele>1594</ele>
        <time>2022-01-22T13:45:52Z</time>
      </trkpt>
      <trkpt lat="45.17806" lon="5.91793">
        <ele>1594</ele>
        <time>2022-01-22T13:45:54Z</time>
      </trkpt>
      <trkpt lat="45.17808" lon="5.91793">
        <ele>1594</ele>
        <time>2022-01-22T13:45:55Z</time>
      </trkpt>
      <trkpt lat="45.17811" lon="5.91792">
        <ele>1593</ele>
        <time>2022-01-22T13:45:57Z</time>
      </trkpt>
      <trkpt lat="45.17812" lon="5.9179">
        <ele>1591</ele>
        <time>2022-01-22T13:46:11Z</time>
      </trkpt>
      <trkpt lat="45.17814" lon="5.91791">
        <ele>1592</ele>
        <time>2022-01-22T13:46:13Z</time>
      </trkpt>
      <trkpt lat="45.17816" lon="5.91791">
        <ele>1591</ele>
        <time>2022-01-22T13:46:14Z</time>
      </trkpt>
      <trkpt lat="45.17817" lon="5.91788">
        <ele>1591</ele>
        <time>2022-01-22T13:46:17Z</time>
      </trkpt>
      <trkpt lat="45.17819" lon="5.91787">
        <ele>1590</ele>
        <time>2022-01-22T13:46:21Z</time>
      </trkpt>
      <trkpt lat="45.17821" lon="5.91786">
        <ele>1588</ele>
        <time>2022-01-22T13:46:23Z</time>
      </trkpt>
      <trkpt lat="45.17824" lon="5.91786">
        <ele>1588</ele>
        <time>2022-01-22T13:46:25Z</time>
      </trkpt>
      <trkpt lat="45.17827" lon="5.91785">
        <ele>1586</ele>
        <time>2022-01-22T13:46:26Z</time>
      </trkpt>
      <trkpt lat="45.17829" lon="5.91786">
        <ele>1586</ele>
        <time>2022-01-22T13:46:29Z</time>
      </trkpt>
      <trkpt lat="45.17831" lon="5.91785">
        <ele>1585</ele>
        <time>2022-01-22T13:46:31Z</time>
      </trkpt>
      <trkpt lat="45.17833" lon="5.91784">
        <ele>1585</ele>
        <time>2022-01-22T13:46:34Z</time>
      </trkpt>
      <trkpt lat="45.17835" lon="5.91782">
        <ele>1584</ele>
        <time>2022-01-22T13:46:37Z</time>
      </trkpt>
      <trkpt lat="45.17837" lon="5.9178">
        <ele>1582</ele>
        <time>2022-01-22T13:46:41Z</time>
      </trkpt>
      <trkpt lat="45.17839" lon="5.91779">
        <ele>1580</ele>
        <time>2022-01-22T13:46:44Z</time>
      </trkpt>
      <trkpt lat="45.17841" lon="5.91779">
        <ele>1580</ele>
        <time>2022-01-22T13:46:47Z</time>
      </trkpt>
      <trkpt lat="45.17843" lon="5.91778">
        <ele>1578</ele>
        <time>2022-01-22T13:46:52Z</time>
      </trkpt>
      <trkpt lat="45.17845" lon="5.91778">
        <ele>1577</ele>
        <time>2022-01-22T13:46:57Z</time>
      </trkpt>
      <trkpt lat="45.17847" lon="5.91775">
        <ele>1575</ele>
        <time>2022-01-22T13:47:00Z</time>
      </trkpt>
      <trkpt lat="45.17849" lon="5.91772">
        <ele>1575</ele>
        <time>2022-01-22T13:47:03Z</time>
      </trkpt>
      <trkpt lat="45.17849" lon="5.91769">
        <ele>1573</ele>
        <time>2022-01-22T13:47:06Z</time>
      </trkpt>
      <trkpt lat="45.17851" lon="5.91768">
        <ele>1573</ele>
        <time>2022-01-22T13:47:09Z</time>
      </trkpt>
      <trkpt lat="45.17851" lon="5.91765">
        <ele>1573</ele>
        <time>2022-01-22T13:47:12Z</time>
      </trkpt>
      <trkpt lat="45.17851" lon="5.91761">
        <ele>1573</ele>
        <time>2022-01-22T13:47:14Z</time>
      </trkpt>
      <trkpt lat="45.1785" lon="5.91758">
        <ele>1571</ele>
        <time>2022-01-22T13:47:17Z</time>
      </trkpt>
      <trkpt lat="45.1785" lon="5.91755">
        <ele>1570</ele>
        <time>2022-01-22T13:47:19Z</time>
      </trkpt>
      <trkpt lat="45.1785" lon="5.91752">
        <ele>1569</ele>
        <time>2022-01-22T13:47:22Z</time>
      </trkpt>
      <trkpt lat="45.17849" lon="5.91748">
        <ele>1568</ele>
        <time>2022-01-22T13:47:25Z</time>
      </trkpt>
      <trkpt lat="45.17849" lon="5.91746">
        <ele>1567</ele>
        <time>2022-01-22T13:47:27Z</time>
      </trkpt>
      <trkpt lat="45.17848" lon="5.91744">
        <ele>1567</ele>
        <time>2022-01-22T13:47:29Z</time>
      </trkpt>
      <trkpt lat="45.17848" lon="5.9174">
        <ele>1566</ele>
        <time>2022-01-22T13:47:32Z</time>
      </trkpt>
      <trkpt lat="45.17849" lon="5.91736">
        <ele>1565</ele>
        <time>2022-01-22T13:47:35Z</time>
      </trkpt>
      <trkpt lat="45.17851" lon="5.91734">
        <ele>1563</ele>
        <time>2022-01-22T13:47:39Z</time>
      </trkpt>
      <trkpt lat="45.17851" lon="5.91731">
        <ele>1562</ele>
        <time>2022-01-22T13:47:40Z</time>
      </trkpt>
      <trkpt lat="45.17852" lon="5.91728">
        <ele>1561</ele>
        <time>2022-01-22T13:47:45Z</time>
      </trkpt>
      <trkpt lat="45.17853" lon="5.91725">
        <ele>1560</ele>
        <time>2022-01-22T13:47:48Z</time>
      </trkpt>
      <trkpt lat="45.17855" lon="5.91723">
        <ele>1559</ele>
        <time>2022-01-22T13:47:50Z</time>
      </trkpt>
      <trkpt lat="45.17856" lon="5.91721">
        <ele>1559</ele>
        <time>2022-01-22T13:47:52Z</time>
      </trkpt>
      <trkpt lat="45.17857" lon="5.91719">
        <ele>1558</ele>
        <time>2022-01-22T13:47:54Z</time>
      </trkpt>
      <trkpt lat="45.17859" lon="5.91716">
        <ele>1557</ele>
        <time>2022-01-22T13:47:56Z</time>
      </trkpt>
      <trkpt lat="45.1786" lon="5.91715">
        <ele>1556</ele>
        <time>2022-01-22T13:47:58Z</time>
      </trkpt>
      <trkpt lat="45.1786" lon="5.91711">
        <ele>1554</ele>
        <time>2022-01-22T13:48:00Z</time>
      </trkpt>
      <trkpt lat="45.17859" lon="5.91709">
        <ele>1554</ele>
        <time>2022-01-22T13:48:02Z</time>
      </trkpt>
      <trkpt lat="45.17861" lon="5.91708">
        <ele>1554</ele>
        <time>2022-01-22T13:48:05Z</time>
      </trkpt>
      <trkpt lat="45.17863" lon="5.91706">
        <ele>1553</ele>
        <time>2022-01-22T13:48:09Z</time>
      </trkpt>
      <trkpt lat="45.17865" lon="5.91703">
        <ele>1552</ele>
        <time>2022-01-22T13:48:12Z</time>
      </trkpt>
      <trkpt lat="45.17867" lon="5.91702">
        <ele>1551</ele>
        <time>2022-01-22T13:48:15Z</time>
      </trkpt>
      <trkpt lat="45.17869" lon="5.917">
        <ele>1550</ele>
        <time>2022-01-22T13:48:16Z</time>
      </trkpt>
      <trkpt lat="45.17871" lon="5.91698">
        <ele>1548</ele>
        <time>2022-01-22T13:48:19Z</time>
      </trkpt>
      <trkpt lat="45.17873" lon="5.91697">
        <ele>1548</ele>
        <time>2022-01-22T13:48:21Z</time>
      </trkpt>
      <trkpt lat="45.17874" lon="5.91695">
        <ele>1546</ele>
        <time>2022-01-22T13:48:24Z</time>
      </trkpt>
      <trkpt lat="45.17876" lon="5.91693">
        <ele>1546</ele>
        <time>2022-01-22T13:48:26Z</time>
      </trkpt>
      <trkpt lat="45.17879" lon="5.91694">
        <ele>1546</ele>
        <time>2022-01-22T13:48:29Z</time>
      </trkpt>
      <trkpt lat="45.17881" lon="5.91694">
        <ele>1546</ele>
        <time>2022-01-22T13:48:30Z</time>
      </trkpt>
      <trkpt lat="45.17882" lon="5.91691">
        <ele>1544</ele>
        <time>2022-01-22T13:48:34Z</time>
      </trkpt>
      <trkpt lat="45.17884" lon="5.91689">
        <ele>1544</ele>
        <time>2022-01-22T13:48:35Z</time>
      </trkpt>
      <trkpt lat="45.17886" lon="5.91688">
        <ele>1542</ele>
        <time>2022-01-22T13:48:37Z</time>
      </trkpt>
      <trkpt lat="45.17888" lon="5.91686">
        <ele>1541</ele>
        <time>2022-01-22T13:48:40Z</time>
      </trkpt>
      <trkpt lat="45.1789" lon="5.91686">
        <ele>1540</ele>
        <time>2022-01-22T13:48:44Z</time>
      </trkpt>
      <trkpt lat="45.17892" lon="5.91686">
        <ele>1540</ele>
        <time>2022-01-22T13:48:46Z</time>
      </trkpt>
      <trkpt lat="45.17894" lon="5.91686">
        <ele>1538</ele>
        <time>2022-01-22T13:48:49Z</time>
      </trkpt>
      <trkpt lat="45.17896" lon="5.91685">
        <ele>1537</ele>
        <time>2022-01-22T13:48:50Z</time>
      </trkpt>
      <trkpt lat="45.17898" lon="5.91684">
        <ele>1537</ele>
        <time>2022-01-22T13:48:53Z</time>
      </trkpt>
      <trkpt lat="45.179" lon="5.91684">
        <ele>1536</ele>
        <time>2022-01-22T13:48:54Z</time>
      </trkpt>
      <trkpt lat="45.17902" lon="5.91683">
        <ele>1535</ele>
        <time>2022-01-22T13:48:55Z</time>
      </trkpt>
      <trkpt lat="45.17904" lon="5.91681">
        <ele>1534</ele>
        <time>2022-01-22T13:48:57Z</time>
      </trkpt>
      <trkpt lat="45.17906" lon="5.91679">
        <ele>1533</ele>
        <time>2022-01-22T13:49:00Z</time>
      </trkpt>
      <trkpt lat="45.17908" lon="5.91678">
        <ele>1533</ele>
        <time>2022-01-22T13:49:02Z</time>
      </trkpt>
      <trkpt lat="45.1791" lon="5.91676">
        <ele>1531</ele>
        <time>2022-01-22T13:49:04Z</time>
      </trkpt>
      <trkpt lat="45.17911" lon="5.91673">
        <ele>1531</ele>
        <time>2022-01-22T13:49:06Z</time>
      </trkpt>
      <trkpt lat="45.17911" lon="5.9167">
        <ele>1529</ele>
        <time>2022-01-22T13:49:10Z</time>
      </trkpt>
      <trkpt lat="45.17911" lon="5.91667">
        <ele>1528</ele>
        <time>2022-01-22T13:49:12Z</time>
      </trkpt>
      <trkpt lat="45.1791" lon="5.91664">
        <ele>1527</ele>
        <time>2022-01-22T13:49:14Z</time>
      </trkpt>
      <trkpt lat="45.1791" lon="5.91662">
        <ele>1527</ele>
        <time>2022-01-22T13:49:16Z</time>
      </trkpt>
      <trkpt lat="45.17909" lon="5.91659">
        <ele>1526</ele>
        <time>2022-01-22T13:49:19Z</time>
      </trkpt>
      <trkpt lat="45.17907" lon="5.91656">
        <ele>1526</ele>
        <time>2022-01-22T13:49:22Z</time>
      </trkpt>
      <trkpt lat="45.17905" lon="5.91655">
        <ele>1525</ele>
        <time>2022-01-22T13:49:24Z</time>
      </trkpt>
      <trkpt lat="45.17903" lon="5.91654">
        <ele>1525</ele>
        <time>2022-01-22T13:49:26Z</time>
      </trkpt>
      <trkpt lat="45.17901" lon="5.91652">
        <ele>1524</ele>
        <time>2022-01-22T13:49:29Z</time>
      </trkpt>
      <trkpt lat="45.17899" lon="5.91651">
        <ele>1524</ele>
        <time>2022-01-22T13:49:31Z</time>
      </trkpt>
      <trkpt lat="45.17898" lon="5.91648">
        <ele>1523</ele>
        <time>2022-01-22T13:49:34Z</time>
      </trkpt>
      <trkpt lat="45.17897" lon="5.91645">
        <ele>1523</ele>
        <time>2022-01-22T13:49:37Z</time>
      </trkpt>
      <trkpt lat="45.17894" lon="5.91644">
        <ele>1523</ele>
        <time>2022-01-22T13:49:40Z</time>
      </trkpt>
      <trkpt lat="45.17893" lon="5.91642">
        <ele>1522</ele>
        <time>2022-01-22T13:49:44Z</time>
      </trkpt>
      <trkpt lat="45.1789" lon="5.9164">
        <ele>1522</ele>
        <time>2022-01-22T13:49:46Z</time>
      </trkpt>
      <trkpt lat="45.17888" lon="5.91639">
        <ele>1521</ele>
        <time>2022-01-22T13:49:48Z</time>
      </trkpt>
      <trkpt lat="45.17886" lon="5.91637">
        <ele>1521</ele>
        <time>2022-01-22T13:49:50Z</time>
      </trkpt>
      <trkpt lat="45.17884" lon="5.91634">
        <ele>1521</ele>
        <time>2022-01-22T13:49:52Z</time>
      </trkpt>
      <trkpt lat="45.17882" lon="5.91633">
        <ele>1520</ele>
        <time>2022-01-22T13:49:54Z</time>
      </trkpt>
      <trkpt lat="45.17879" lon="5.91632">
        <ele>1519</ele>
        <time>2022-01-22T13:49:55Z</time>
      </trkpt>
      <trkpt lat="45.17876" lon="5.91631">
        <ele>1519</ele>
        <time>2022-01-22T13:49:57Z</time>
      </trkpt>
      <trkpt lat="45.17873" lon="5.9163">
        <ele>1518</ele>
        <time>2022-01-22T13:49:59Z</time>
      </trkpt>
      <trkpt lat="45.17871" lon="5.9163">
        <ele>1518</ele>
        <time>2022-01-22T13:50:01Z</time>
      </trkpt>
      <trkpt lat="45.17869" lon="5.9163">
        <ele>1518</ele>
        <time>2022-01-22T13:50:04Z</time>
      </trkpt>
      <trkpt lat="45.17868" lon="5.91627">
        <ele>1518</ele>
        <time>2022-01-22T13:50:06Z</time>
      </trkpt>
      <trkpt lat="45.17868" lon="5.91624">
        <ele>1517</ele>
        <time>2022-01-22T13:50:16Z</time>
      </trkpt>
      <trkpt lat="45.17871" lon="5.91621">
        <ele>1518</ele>
        <time>2022-01-22T13:50:54Z</time>
      </trkpt>
      <trkpt lat="45.17872" lon="5.91619">
        <ele>1519</ele>
        <time>2022-01-22T13:50:55Z</time>
      </trkpt>
      <trkpt lat="45.17875" lon="5.91617">
        <ele>1519</ele>
        <time>2022-01-22T13:50:57Z</time>
      </trkpt>
      <trkpt lat="45.17877" lon="5.91616">
        <ele>1519</ele>
        <time>2022-01-22T13:50:58Z</time>
      </trkpt>
      <trkpt lat="45.17879" lon="5.91614">
        <ele>1519</ele>
        <time>2022-01-22T13:50:59Z</time>
      </trkpt>
      <trkpt lat="45.17882" lon="5.91612">
        <ele>1518</ele>
        <time>2022-01-22T13:51:00Z</time>
      </trkpt>
      <trkpt lat="45.17885" lon="5.91611">
        <ele>1518</ele>
        <time>2022-01-22T13:51:01Z</time>
      </trkpt>
      <trkpt lat="45.17887" lon="5.9161">
        <ele>1517</ele>
        <time>2022-01-22T13:51:02Z</time>
      </trkpt>
      <trkpt lat="45.1789" lon="5.91607">
        <ele>1516</ele>
        <time>2022-01-22T13:51:03Z</time>
      </trkpt>
      <trkpt lat="45.17898" lon="5.91603">
        <ele>1516</ele>
        <time>2022-01-22T13:51:04Z</time>
      </trkpt>
      <trkpt lat="45.17901" lon="5.91602">
        <ele>1514</ele>
        <time>2022-01-22T13:51:05Z</time>
      </trkpt>
      <trkpt lat="45.17905" lon="5.91599">
        <ele>1513</ele>
        <time>2022-01-22T13:51:06Z</time>
      </trkpt>
      <trkpt lat="45.17909" lon="5.91597">
        <ele>1513</ele>
        <time>2022-01-22T13:51:07Z</time>
      </trkpt>
      <trkpt lat="45.17913" lon="5.91595">
        <ele>1511</ele>
        <time>2022-01-22T13:51:09Z</time>
      </trkpt>
      <trkpt lat="45.1792" lon="5.91594">
        <ele>1510</ele>
        <time>2022-01-22T13:51:10Z</time>
      </trkpt>
      <trkpt lat="45.17923" lon="5.91593">
        <ele>1510</ele>
        <time>2022-01-22T13:51:11Z</time>
      </trkpt>
      <trkpt lat="45.17927" lon="5.91591">
        <ele>1509</ele>
        <time>2022-01-22T13:51:13Z</time>
      </trkpt>
      <trkpt lat="45.17931" lon="5.91591">
        <ele>1508</ele>
        <time>2022-01-22T13:51:14Z</time>
      </trkpt>
      <trkpt lat="45.17938" lon="5.91589">
        <ele>1508</ele>
        <time>2022-01-22T13:51:15Z</time>
      </trkpt>
      <trkpt lat="45.17942" lon="5.91587">
        <ele>1507</ele>
        <time>2022-01-22T13:51:16Z</time>
      </trkpt>
      <trkpt lat="45.17945" lon="5.91586">
        <ele>1504</ele>
        <time>2022-01-22T13:51:18Z</time>
      </trkpt>
      <trkpt lat="45.17949" lon="5.91584">
        <ele>1503</ele>
        <time>2022-01-22T13:51:19Z</time>
      </trkpt>
      <trkpt lat="45.17953" lon="5.91583">
        <ele>1502</ele>
        <time>2022-01-22T13:51:20Z</time>
      </trkpt>
      <trkpt lat="45.17957" lon="5.91584">
        <ele>1501</ele>
        <time>2022-01-22T13:51:21Z</time>
      </trkpt>
      <trkpt lat="45.17959" lon="5.91585">
        <ele>1500</ele>
        <time>2022-01-22T13:51:22Z</time>
      </trkpt>
      <trkpt lat="45.17961" lon="5.91585">
        <ele>1499</ele>
        <time>2022-01-22T13:51:23Z</time>
      </trkpt>
      <trkpt lat="45.17963" lon="5.91585">
        <ele>1499</ele>
        <time>2022-01-22T13:51:24Z</time>
      </trkpt>
      <trkpt lat="45.17968" lon="5.91584">
        <ele>1498</ele>
        <time>2022-01-22T13:51:26Z</time>
      </trkpt>
      <trkpt lat="45.17971" lon="5.91583">
        <ele>1497</ele>
        <time>2022-01-22T13:51:27Z</time>
      </trkpt>
      <trkpt lat="45.17975" lon="5.91584">
        <ele>1496</ele>
        <time>2022-01-22T13:51:28Z</time>
      </trkpt>
      <trkpt lat="45.17982" lon="5.91583">
        <ele>1496</ele>
        <time>2022-01-22T13:51:29Z</time>
      </trkpt>
      <trkpt lat="45.17987" lon="5.91582">
        <ele>1495</ele>
        <time>2022-01-22T13:51:31Z</time>
      </trkpt>
      <trkpt lat="45.17996" lon="5.9158">
        <ele>1494</ele>
        <time>2022-01-22T13:51:32Z</time>
      </trkpt>
      <trkpt lat="45.18006" lon="5.91578">
        <ele>1491</ele>
        <time>2022-01-22T13:51:34Z</time>
      </trkpt>
      <trkpt lat="45.18018" lon="5.91578">
        <ele>1489</ele>
        <time>2022-01-22T13:51:36Z</time>
      </trkpt>
      <trkpt lat="45.18023" lon="5.91579">
        <ele>1487</ele>
        <time>2022-01-22T13:51:38Z</time>
      </trkpt>
      <trkpt lat="45.18034" lon="5.91579">
        <ele>1486</ele>
        <time>2022-01-22T13:51:39Z</time>
      </trkpt>
      <trkpt lat="45.18039" lon="5.91579">
        <ele>1485</ele>
        <time>2022-01-22T13:51:40Z</time>
      </trkpt>
      <trkpt lat="45.18044" lon="5.91579">
        <ele>1483</ele>
        <time>2022-01-22T13:51:42Z</time>
      </trkpt>
      <trkpt lat="45.18047" lon="5.91579">
        <ele>1483</ele>
        <time>2022-01-22T13:51:43Z</time>
      </trkpt>
      <trkpt lat="45.1805" lon="5.91579">
        <ele>1482</ele>
        <time>2022-01-22T13:51:44Z</time>
      </trkpt>
      <trkpt lat="45.18053" lon="5.9158">
        <ele>1482</ele>
        <time>2022-01-22T13:51:45Z</time>
      </trkpt>
      <trkpt lat="45.18056" lon="5.91579">
        <ele>1482</ele>
        <time>2022-01-22T13:51:46Z</time>
      </trkpt>
      <trkpt lat="45.18059" lon="5.91579">
        <ele>1482</ele>
        <time>2022-01-22T13:51:47Z</time>
      </trkpt>
      <trkpt lat="45.18064" lon="5.91579">
        <ele>1482</ele>
        <time>2022-01-22T13:51:48Z</time>
      </trkpt>
      <trkpt lat="45.18067" lon="5.91579">
        <ele>1482</ele>
        <time>2022-01-22T13:51:50Z</time>
      </trkpt>
      <trkpt lat="45.1807" lon="5.91578">
        <ele>1481</ele>
        <time>2022-01-22T13:51:51Z</time>
      </trkpt>
      <trkpt lat="45.18073" lon="5.91576">
        <ele>1481</ele>
        <time>2022-01-22T13:51:52Z</time>
      </trkpt>
      <trkpt lat="45.18077" lon="5.91575">
        <ele>1481</ele>
        <time>2022-01-22T13:51:53Z</time>
      </trkpt>
      <trkpt lat="45.18081" lon="5.91574">
        <ele>1481</ele>
        <time>2022-01-22T13:51:54Z</time>
      </trkpt>
      <trkpt lat="45.18084" lon="5.91574">
        <ele>1480</ele>
        <time>2022-01-22T13:51:55Z</time>
      </trkpt>
      <trkpt lat="45.18087" lon="5.91574">
        <ele>1480</ele>
        <time>2022-01-22T13:51:56Z</time>
      </trkpt>
      <trkpt lat="45.18092" lon="5.91572">
        <ele>1480</ele>
        <time>2022-01-22T13:51:57Z</time>
      </trkpt>
      <trkpt lat="45.18095" lon="5.91572">
        <ele>1479</ele>
        <time>2022-01-22T13:51:59Z</time>
      </trkpt>
      <trkpt lat="45.18102" lon="5.91569">
        <ele>1478</ele>
        <time>2022-01-22T13:52:00Z</time>
      </trkpt>
      <trkpt lat="45.18105" lon="5.91567">
        <ele>1478</ele>
        <time>2022-01-22T13:52:01Z</time>
      </trkpt>
      <trkpt lat="45.18108" lon="5.91566">
        <ele>1479</ele>
        <time>2022-01-22T13:52:03Z</time>
      </trkpt>
      <trkpt lat="45.18115" lon="5.91562">
        <ele>1479</ele>
        <time>2022-01-22T13:52:04Z</time>
      </trkpt>
      <trkpt lat="45.18121" lon="5.91556">
        <ele>1478</ele>
        <time>2022-01-22T13:52:06Z</time>
      </trkpt>
      <trkpt lat="45.18124" lon="5.91551">
        <ele>1477</ele>
        <time>2022-01-22T13:52:07Z</time>
      </trkpt>
      <trkpt lat="45.18129" lon="5.91537">
        <ele>1476</ele>
        <time>2022-01-22T13:52:09Z</time>
      </trkpt>
      <trkpt lat="45.18131" lon="5.91531">
        <ele>1474</ele>
        <time>2022-01-22T13:52:11Z</time>
      </trkpt>
      <trkpt lat="45.18131" lon="5.91524">
        <ele>1473</ele>
        <time>2022-01-22T13:52:12Z</time>
      </trkpt>
      <trkpt lat="45.1813" lon="5.91518">
        <ele>1473</ele>
        <time>2022-01-22T13:52:13Z</time>
      </trkpt>
      <trkpt lat="45.18128" lon="5.91511">
        <ele>1472</ele>
        <time>2022-01-22T13:52:14Z</time>
      </trkpt>
      <trkpt lat="45.18125" lon="5.91504">
        <ele>1472</ele>
        <time>2022-01-22T13:52:15Z</time>
      </trkpt>
      <trkpt lat="45.18123" lon="5.91497">
        <ele>1471</ele>
        <time>2022-01-22T13:52:16Z</time>
      </trkpt>
      <trkpt lat="45.18121" lon="5.91491">
        <ele>1471</ele>
        <time>2022-01-22T13:52:17Z</time>
      </trkpt>
      <trkpt lat="45.1812" lon="5.91485">
        <ele>1471</ele>
        <time>2022-01-22T13:52:18Z</time>
      </trkpt>
      <trkpt lat="45.1812" lon="5.91479">
        <ele>1471</ele>
        <time>2022-01-22T13:52:19Z</time>
      </trkpt>
      <trkpt lat="45.18125" lon="5.9147">
        <ele>1470</ele>
        <time>2022-01-22T13:52:20Z</time>
      </trkpt>
      <trkpt lat="45.18129" lon="5.91467">
        <ele>1469</ele>
        <time>2022-01-22T13:52:21Z</time>
      </trkpt>
      <trkpt lat="45.18133" lon="5.91466">
        <ele>1468</ele>
        <time>2022-01-22T13:52:23Z</time>
      </trkpt>
      <trkpt lat="45.18136" lon="5.91464">
        <ele>1467</ele>
        <time>2022-01-22T13:52:24Z</time>
      </trkpt>
      <trkpt lat="45.18139" lon="5.91462">
        <ele>1466</ele>
        <time>2022-01-22T13:52:25Z</time>
      </trkpt>
      <trkpt lat="45.18145" lon="5.9146">
        <ele>1466</ele>
        <time>2022-01-22T13:52:26Z</time>
      </trkpt>
      <trkpt lat="45.18147" lon="5.91458">
        <ele>1466</ele>
        <time>2022-01-22T13:52:27Z</time>
      </trkpt>
      <trkpt lat="45.18153" lon="5.91455">
        <ele>1465</ele>
        <time>2022-01-22T13:52:29Z</time>
      </trkpt>
      <trkpt lat="45.18165" lon="5.91452">
        <ele>1464</ele>
        <time>2022-01-22T13:52:31Z</time>
      </trkpt>
      <trkpt lat="45.1817" lon="5.91452">
        <ele>1461</ele>
        <time>2022-01-22T13:52:32Z</time>
      </trkpt>
      <trkpt lat="45.18175" lon="5.91451">
        <ele>1458</ele>
        <time>2022-01-22T13:52:34Z</time>
      </trkpt>
      <trkpt lat="45.18179" lon="5.9145">
        <ele>1458</ele>
        <time>2022-01-22T13:52:35Z</time>
      </trkpt>
      <trkpt lat="45.18185" lon="5.91448">
        <ele>1457</ele>
        <time>2022-01-22T13:52:36Z</time>
      </trkpt>
      <trkpt lat="45.18187" lon="5.91447">
        <ele>1456</ele>
        <time>2022-01-22T13:52:37Z</time>
      </trkpt>
      <trkpt lat="45.18192" lon="5.91443">
        <ele>1455</ele>
        <time>2022-01-22T13:52:39Z</time>
      </trkpt>
      <trkpt lat="45.18194" lon="5.91442">
        <ele>1454</ele>
        <time>2022-01-22T13:52:40Z</time>
      </trkpt>
      <trkpt lat="45.18196" lon="5.9144">
        <ele>1453</ele>
        <time>2022-01-22T13:52:41Z</time>
      </trkpt>
      <trkpt lat="45.18199" lon="5.9144">
        <ele>1453</ele>
        <time>2022-01-22T13:52:42Z</time>
      </trkpt>
      <trkpt lat="45.18204" lon="5.91437">
        <ele>1452</ele>
        <time>2022-01-22T13:52:44Z</time>
      </trkpt>
      <trkpt lat="45.18206" lon="5.91435">
        <ele>1452</ele>
        <time>2022-01-22T13:52:45Z</time>
      </trkpt>
      <trkpt lat="45.18209" lon="5.91434">
        <ele>1452</ele>
        <time>2022-01-22T13:52:46Z</time>
      </trkpt>
      <trkpt lat="45.18211" lon="5.91433">
        <ele>1451</ele>
        <time>2022-01-22T13:52:48Z</time>
      </trkpt>
      <trkpt lat="45.18213" lon="5.91431">
        <ele>1450</ele>
        <time>2022-01-22T13:52:49Z</time>
      </trkpt>
      <trkpt lat="45.18218" lon="5.91428">
        <ele>1450</ele>
        <time>2022-01-22T13:52:50Z</time>
      </trkpt>
      <trkpt lat="45.1822" lon="5.91427">
        <ele>1450</ele>
        <time>2022-01-22T13:52:52Z</time>
      </trkpt>
      <trkpt lat="45.18223" lon="5.91426">
        <ele>1449</ele>
        <time>2022-01-22T13:52:53Z</time>
      </trkpt>
      <trkpt lat="45.18225" lon="5.91424">
        <ele>1448</ele>
        <time>2022-01-22T13:52:54Z</time>
      </trkpt>
      <trkpt lat="45.18227" lon="5.91422">
        <ele>1447</ele>
        <time>2022-01-22T13:52:55Z</time>
      </trkpt>
      <trkpt lat="45.18229" lon="5.9142">
        <ele>1447</ele>
        <time>2022-01-22T13:52:56Z</time>
      </trkpt>
      <trkpt lat="45.18231" lon="5.91418">
        <ele>1446</ele>
        <time>2022-01-22T13:52:57Z</time>
      </trkpt>
      <trkpt lat="45.18233" lon="5.91416">
        <ele>1446</ele>
        <time>2022-01-22T13:52:58Z</time>
      </trkpt>
      <trkpt lat="45.18236" lon="5.91414">
        <ele>1445</ele>
        <time>2022-01-22T13:52:59Z</time>
      </trkpt>
      <trkpt lat="45.18239" lon="5.91413">
        <ele>1443</ele>
        <time>2022-01-22T13:53:00Z</time>
      </trkpt>
      <trkpt lat="45.18242" lon="5.91412">
        <ele>1443</ele>
        <time>2022-01-22T13:53:01Z</time>
      </trkpt>
      <trkpt lat="45.18244" lon="5.91411">
        <ele>1443</ele>
        <time>2022-01-22T13:53:02Z</time>
      </trkpt>
      <trkpt lat="45.18247" lon="5.91409">
        <ele>1442</ele>
        <time>2022-01-22T13:53:03Z</time>
      </trkpt>
      <trkpt lat="45.18252" lon="5.91409">
        <ele>1441</ele>
        <time>2022-01-22T13:53:04Z</time>
      </trkpt>
      <trkpt lat="45.18256" lon="5.91409">
        <ele>1440</ele>
        <time>2022-01-22T13:53:06Z</time>
      </trkpt>
      <trkpt lat="45.18259" lon="5.91408">
        <ele>1439</ele>
        <time>2022-01-22T13:53:07Z</time>
      </trkpt>
      <trkpt lat="45.18261" lon="5.91406">
        <ele>1438</ele>
        <time>2022-01-22T13:53:08Z</time>
      </trkpt>
      <trkpt lat="45.18267" lon="5.91403">
        <ele>1437</ele>
        <time>2022-01-22T13:53:09Z</time>
      </trkpt>
      <trkpt lat="45.1827" lon="5.91402">
        <ele>1437</ele>
        <time>2022-01-22T13:53:10Z</time>
      </trkpt>
      <trkpt lat="45.18273" lon="5.91401">
        <ele>1436</ele>
        <time>2022-01-22T13:53:11Z</time>
      </trkpt>
      <trkpt lat="45.18276" lon="5.914">
        <ele>1435</ele>
        <time>2022-01-22T13:53:12Z</time>
      </trkpt>
      <trkpt lat="45.18279" lon="5.91399">
        <ele>1434</ele>
        <time>2022-01-22T13:53:14Z</time>
      </trkpt>
      <trkpt lat="45.18282" lon="5.91398">
        <ele>1434</ele>
        <time>2022-01-22T13:53:15Z</time>
      </trkpt>
      <trkpt lat="45.1829" lon="5.914">
        <ele>1433</ele>
        <time>2022-01-22T13:53:16Z</time>
      </trkpt>
      <trkpt lat="45.18294" lon="5.914">
        <ele>1432</ele>
        <time>2022-01-22T13:53:17Z</time>
      </trkpt>
      <trkpt lat="45.18298" lon="5.914">
        <ele>1430</ele>
        <time>2022-01-22T13:53:19Z</time>
      </trkpt>
      <trkpt lat="45.18306" lon="5.91401">
        <ele>1430</ele>
        <time>2022-01-22T13:53:20Z</time>
      </trkpt>
      <trkpt lat="45.18309" lon="5.91401">
        <ele>1429</ele>
        <time>2022-01-22T13:53:21Z</time>
      </trkpt>
      <trkpt lat="45.18312" lon="5.914">
        <ele>1428</ele>
        <time>2022-01-22T13:53:22Z</time>
      </trkpt>
      <trkpt lat="45.18316" lon="5.91395">
        <ele>1427</ele>
        <time>2022-01-22T13:53:24Z</time>
      </trkpt>
      <trkpt lat="45.18321" lon="5.91393">
        <ele>1427</ele>
        <time>2022-01-22T13:53:26Z</time>
      </trkpt>
      <trkpt lat="45.18324" lon="5.91392">
        <ele>1426</ele>
        <time>2022-01-22T13:53:27Z</time>
      </trkpt>
      <trkpt lat="45.1833" lon="5.9139">
        <ele>1424</ele>
        <time>2022-01-22T13:53:29Z</time>
      </trkpt>
      <trkpt lat="45.18335" lon="5.91389">
        <ele>1422</ele>
        <time>2022-01-22T13:53:31Z</time>
      </trkpt>
      <trkpt lat="45.18337" lon="5.91389">
        <ele>1421</ele>
        <time>2022-01-22T13:53:32Z</time>
      </trkpt>
      <trkpt lat="45.18342" lon="5.91388">
        <ele>1420</ele>
        <time>2022-01-22T13:53:34Z</time>
      </trkpt>
      <trkpt lat="45.18347" lon="5.91388">
        <ele>1418</ele>
        <time>2022-01-22T13:53:36Z</time>
      </trkpt>
      <trkpt lat="45.1835" lon="5.91387">
        <ele>1417</ele>
        <time>2022-01-22T13:53:37Z</time>
      </trkpt>
      <trkpt lat="45.18352" lon="5.91386">
        <ele>1417</ele>
        <time>2022-01-22T13:53:39Z</time>
      </trkpt>
      <trkpt lat="45.18358" lon="5.91385">
        <ele>1416</ele>
        <time>2022-01-22T13:53:40Z</time>
      </trkpt>
      <trkpt lat="45.1836" lon="5.91384">
        <ele>1416</ele>
        <time>2022-01-22T13:53:42Z</time>
      </trkpt>
      <trkpt lat="45.18363" lon="5.91382">
        <ele>1414</ele>
        <time>2022-01-22T13:53:43Z</time>
      </trkpt>
      <trkpt lat="45.18365" lon="5.9138">
        <ele>1414</ele>
        <time>2022-01-22T13:53:44Z</time>
      </trkpt>
      <trkpt lat="45.1837" lon="5.91377">
        <ele>1414</ele>
        <time>2022-01-22T13:53:45Z</time>
      </trkpt>
      <trkpt lat="45.18372" lon="5.91377">
        <ele>1412</ele>
        <time>2022-01-22T13:53:47Z</time>
      </trkpt>
      <trkpt lat="45.18376" lon="5.91376">
        <ele>1411</ele>
        <time>2022-01-22T13:53:48Z</time>
      </trkpt>
      <trkpt lat="45.18378" lon="5.91375">
        <ele>1410</ele>
        <time>2022-01-22T13:53:49Z</time>
      </trkpt>
      <trkpt lat="45.1838" lon="5.91372">
        <ele>1409</ele>
        <time>2022-01-22T13:53:50Z</time>
      </trkpt>
      <trkpt lat="45.18382" lon="5.91371">
        <ele>1408</ele>
        <time>2022-01-22T13:53:51Z</time>
      </trkpt>
      <trkpt lat="45.18383" lon="5.91373">
        <ele>1407</ele>
        <time>2022-01-22T13:53:55Z</time>
      </trkpt>
      <trkpt lat="45.18385" lon="5.91371">
        <ele>1406</ele>
        <time>2022-01-22T13:53:59Z</time>
      </trkpt>
      <trkpt lat="45.18388" lon="5.9137">
        <ele>1406</ele>
        <time>2022-01-22T13:54:00Z</time>
      </trkpt>
      <trkpt lat="45.18391" lon="5.91369">
        <ele>1406</ele>
        <time>2022-01-22T13:54:01Z</time>
      </trkpt>
      <trkpt lat="45.18394" lon="5.91368">
        <ele>1405</ele>
        <time>2022-01-22T13:54:02Z</time>
      </trkpt>
      <trkpt lat="45.18396" lon="5.91368">
        <ele>1404</ele>
        <time>2022-01-22T13:54:04Z</time>
      </trkpt>
      <trkpt lat="45.18399" lon="5.91367">
        <ele>1403</ele>
        <time>2022-01-22T13:54:05Z</time>
      </trkpt>
      <trkpt lat="45.18401" lon="5.91368">
        <ele>1403</ele>
        <time>2022-01-22T13:54:06Z</time>
      </trkpt>
      <trkpt lat="45.18406" lon="5.9137">
        <ele>1403</ele>
        <time>2022-01-22T13:54:07Z</time>
      </trkpt>
      <trkpt lat="45.18408" lon="5.9137">
        <ele>1401</ele>
        <time>2022-01-22T13:54:09Z</time>
      </trkpt>
      <trkpt lat="45.1841" lon="5.9137">
        <ele>1401</ele>
        <time>2022-01-22T13:54:10Z</time>
      </trkpt>
      <trkpt lat="45.18413" lon="5.91369">
        <ele>1400</ele>
        <time>2022-01-22T13:54:11Z</time>
      </trkpt>
      <trkpt lat="45.18415" lon="5.91368">
        <ele>1400</ele>
        <time>2022-01-22T13:54:12Z</time>
      </trkpt>
      <trkpt lat="45.18418" lon="5.91368">
        <ele>1399</ele>
        <time>2022-01-22T13:54:13Z</time>
      </trkpt>
      <trkpt lat="45.1842" lon="5.91368">
        <ele>1399</ele>
        <time>2022-01-22T13:54:15Z</time>
      </trkpt>
      <trkpt lat="45.18424" lon="5.91365">
        <ele>1397</ele>
        <time>2022-01-22T13:54:22Z</time>
      </trkpt>
      <trkpt lat="45.18428" lon="5.91364">
        <ele>1395</ele>
        <time>2022-01-22T13:54:25Z</time>
      </trkpt>
      <trkpt lat="45.1843" lon="5.91363">
        <ele>1395</ele>
        <time>2022-01-22T13:54:26Z</time>
      </trkpt>
      <trkpt lat="45.18433" lon="5.91363">
        <ele>1395</ele>
        <time>2022-01-22T13:54:27Z</time>
      </trkpt>
      <trkpt lat="45.18436" lon="5.91363">
        <ele>1393</ele>
        <time>2022-01-22T13:54:29Z</time>
      </trkpt>
      <trkpt lat="45.18438" lon="5.91364">
        <ele>1393</ele>
        <time>2022-01-22T13:54:30Z</time>
      </trkpt>
      <trkpt lat="45.1844" lon="5.91363">
        <ele>1392</ele>
        <time>2022-01-22T13:54:31Z</time>
      </trkpt>
      <trkpt lat="45.18442" lon="5.91363">
        <ele>1392</ele>
        <time>2022-01-22T13:54:32Z</time>
      </trkpt>
      <trkpt lat="45.18445" lon="5.91362">
        <ele>1391</ele>
        <time>2022-01-22T13:54:33Z</time>
      </trkpt>
      <trkpt lat="45.18448" lon="5.91362">
        <ele>1391</ele>
        <time>2022-01-22T13:54:34Z</time>
      </trkpt>
      <trkpt lat="45.18451" lon="5.91362">
        <ele>1390</ele>
        <time>2022-01-22T13:54:35Z</time>
      </trkpt>
      <trkpt lat="45.18453" lon="5.91362">
        <ele>1389</ele>
        <time>2022-01-22T13:54:36Z</time>
      </trkpt>
      <trkpt lat="45.18455" lon="5.91361">
        <ele>1389</ele>
        <time>2022-01-22T13:54:37Z</time>
      </trkpt>
      <trkpt lat="45.18458" lon="5.91361">
        <ele>1388</ele>
        <time>2022-01-22T13:54:38Z</time>
      </trkpt>
      <trkpt lat="45.18465" lon="5.9136">
        <ele>1387</ele>
        <time>2022-01-22T13:54:39Z</time>
      </trkpt>
      <trkpt lat="45.18468" lon="5.9136">
        <ele>1386</ele>
        <time>2022-01-22T13:54:41Z</time>
      </trkpt>
      <trkpt lat="45.18471" lon="5.91361">
        <ele>1385</ele>
        <time>2022-01-22T13:54:42Z</time>
      </trkpt>
      <trkpt lat="45.18473" lon="5.91363">
        <ele>1385</ele>
        <time>2022-01-22T13:54:43Z</time>
      </trkpt>
      <trkpt lat="45.18476" lon="5.91365">
        <ele>1384</ele>
        <time>2022-01-22T13:54:44Z</time>
      </trkpt>
      <trkpt lat="45.18478" lon="5.91365">
        <ele>1384</ele>
        <time>2022-01-22T13:54:45Z</time>
      </trkpt>
      <trkpt lat="45.1848" lon="5.91366">
        <ele>1383</ele>
        <time>2022-01-22T13:54:46Z</time>
      </trkpt>
      <trkpt lat="45.18482" lon="5.91367">
        <ele>1383</ele>
        <time>2022-01-22T13:54:47Z</time>
      </trkpt>
      <trkpt lat="45.18484" lon="5.91368">
        <ele>1383</ele>
        <time>2022-01-22T13:54:48Z</time>
      </trkpt>
      <trkpt lat="45.18486" lon="5.9137">
        <ele>1383</ele>
        <time>2022-01-22T13:54:49Z</time>
      </trkpt>
      <trkpt lat="45.18488" lon="5.91371">
        <ele>1383</ele>
        <time>2022-01-22T13:54:50Z</time>
      </trkpt>
      <trkpt lat="45.18491" lon="5.91374">
        <ele>1383</ele>
        <time>2022-01-22T13:54:52Z</time>
      </trkpt>
      <trkpt lat="45.18493" lon="5.91377">
        <ele>1382</ele>
        <time>2022-01-22T13:54:54Z</time>
      </trkpt>
      <trkpt lat="45.18496" lon="5.91378">
        <ele>1380</ele>
        <time>2022-01-22T13:54:56Z</time>
      </trkpt>
      <trkpt lat="45.18498" lon="5.91378">
        <ele>1379</ele>
        <time>2022-01-22T13:54:58Z</time>
      </trkpt>
      <trkpt lat="45.18501" lon="5.91379">
        <ele>1378</ele>
        <time>2022-01-22T13:55:01Z</time>
      </trkpt>
      <trkpt lat="45.18503" lon="5.91378">
        <ele>1378</ele>
        <time>2022-01-22T13:55:03Z</time>
      </trkpt>
      <trkpt lat="45.18505" lon="5.91376">
        <ele>1378</ele>
        <time>2022-01-22T13:55:05Z</time>
      </trkpt>
      <trkpt lat="45.18506" lon="5.91373">
        <ele>1377</ele>
        <time>2022-01-22T13:55:07Z</time>
      </trkpt>
      <trkpt lat="45.18507" lon="5.91376">
        <ele>1375</ele>
        <time>2022-01-22T13:55:24Z</time>
      </trkpt>
      <trkpt lat="45.18509" lon="5.91377">
        <ele>1375</ele>
        <time>2022-01-22T13:55:46Z</time>
      </trkpt>
      <trkpt lat="45.18512" lon="5.91375">
        <ele>1374</ele>
        <time>2022-01-22T13:55:49Z</time>
      </trkpt>
      <trkpt lat="45.18514" lon="5.91374">
        <ele>1374</ele>
        <time>2022-01-22T13:55:51Z</time>
      </trkpt>
      <trkpt lat="45.18515" lon="5.91373">
        <ele>1373</ele>
        <time>2022-01-22T13:55:54Z</time>
      </trkpt>
      <trkpt lat="45.18517" lon="5.91372">
        <ele>1373</ele>
        <time>2022-01-22T13:55:59Z</time>
      </trkpt>
      <trkpt lat="45.18519" lon="5.9137">
        <ele>1371</ele>
        <time>2022-01-22T13:56:04Z</time>
      </trkpt>
      <trkpt lat="45.18521" lon="5.91367">
        <ele>1370</ele>
        <time>2022-01-22T13:56:06Z</time>
      </trkpt>
      <trkpt lat="45.18524" lon="5.91364">
        <ele>1369</ele>
        <time>2022-01-22T13:56:10Z</time>
      </trkpt>
      <trkpt lat="45.18528" lon="5.91361">
        <ele>1369</ele>
        <time>2022-01-22T13:56:11Z</time>
      </trkpt>
      <trkpt lat="45.18532" lon="5.91359">
        <ele>1367</ele>
        <time>2022-01-22T13:56:14Z</time>
      </trkpt>
      <trkpt lat="45.18534" lon="5.91358">
        <ele>1367</ele>
        <time>2022-01-22T13:56:15Z</time>
      </trkpt>
      <trkpt lat="45.18536" lon="5.91356">
        <ele>1367</ele>
        <time>2022-01-22T13:56:17Z</time>
      </trkpt>
      <trkpt lat="45.18539" lon="5.91355">
        <ele>1367</ele>
        <time>2022-01-22T13:56:19Z</time>
      </trkpt>
      <trkpt lat="45.18541" lon="5.91354">
        <ele>1364</ele>
        <time>2022-01-22T13:56:24Z</time>
      </trkpt>
      <trkpt lat="45.1855" lon="5.91351">
        <ele>1363</ele>
        <time>2022-01-22T13:56:35Z</time>
      </trkpt>
      <trkpt lat="45.18552" lon="5.91349">
        <ele>1362</ele>
        <time>2022-01-22T13:56:38Z</time>
      </trkpt>
      <trkpt lat="45.18555" lon="5.91347">
        <ele>1360</ele>
        <time>2022-01-22T13:56:41Z</time>
      </trkpt>
      <trkpt lat="45.18556" lon="5.91346">
        <ele>1360</ele>
        <time>2022-01-22T13:56:42Z</time>
      </trkpt>
      <trkpt lat="45.18557" lon="5.91342">
        <ele>1359</ele>
        <time>2022-01-22T13:56:47Z</time>
      </trkpt>
      <trkpt lat="45.18561" lon="5.91337">
        <ele>1358</ele>
        <time>2022-01-22T13:56:52Z</time>
      </trkpt>
      <trkpt lat="45.18563" lon="5.91334">
        <ele>1356</ele>
        <time>2022-01-22T13:56:57Z</time>
      </trkpt>
      <trkpt lat="45.18566" lon="5.91328">
        <ele>1355</ele>
        <time>2022-01-22T13:57:01Z</time>
      </trkpt>
      <trkpt lat="45.18568" lon="5.91326">
        <ele>1355</ele>
        <time>2022-01-22T13:57:03Z</time>
      </trkpt>
      <trkpt lat="45.18569" lon="5.91324">
        <ele>1354</ele>
        <time>2022-01-22T13:57:04Z</time>
      </trkpt>
      <trkpt lat="45.18571" lon="5.91323">
        <ele>1355</ele>
        <time>2022-01-22T13:57:05Z</time>
      </trkpt>
      <trkpt lat="45.18573" lon="5.91319">
        <ele>1354</ele>
        <time>2022-01-22T13:57:08Z</time>
      </trkpt>
      <trkpt lat="45.18575" lon="5.91317">
        <ele>1354</ele>
        <time>2022-01-22T13:57:10Z</time>
      </trkpt>
      <trkpt lat="45.18576" lon="5.91315">
        <ele>1353</ele>
        <time>2022-01-22T13:57:11Z</time>
      </trkpt>
      <trkpt lat="45.18578" lon="5.91312">
        <ele>1353</ele>
        <time>2022-01-22T13:57:13Z</time>
      </trkpt>
      <trkpt lat="45.1858" lon="5.9131">
        <ele>1353</ele>
        <time>2022-01-22T13:57:15Z</time>
      </trkpt>
      <trkpt lat="45.18584" lon="5.91308">
        <ele>1351</ele>
        <time>2022-01-22T13:57:18Z</time>
      </trkpt>
      <trkpt lat="45.18586" lon="5.91307">
        <ele>1351</ele>
        <time>2022-01-22T13:57:19Z</time>
      </trkpt>
      <trkpt lat="45.18589" lon="5.91306">
        <ele>1351</ele>
        <time>2022-01-22T13:57:21Z</time>
      </trkpt>
      <trkpt lat="45.18591" lon="5.91305">
        <ele>1350</ele>
        <time>2022-01-22T13:57:23Z</time>
      </trkpt>
      <trkpt lat="45.18593" lon="5.91304">
        <ele>1350</ele>
        <time>2022-01-22T13:57:25Z</time>
      </trkpt>
      <trkpt lat="45.18596" lon="5.91302">
        <ele>1350</ele>
        <time>2022-01-22T13:57:27Z</time>
      </trkpt>
      <trkpt lat="45.18598" lon="5.91302">
        <ele>1350</ele>
        <time>2022-01-22T13:57:28Z</time>
      </trkpt>
      <trkpt lat="45.18603" lon="5.91301">
        <ele>1350</ele>
        <time>2022-01-22T13:57:30Z</time>
      </trkpt>
      <trkpt lat="45.18605" lon="5.91301">
        <ele>1350</ele>
        <time>2022-01-22T13:57:32Z</time>
      </trkpt>
      <trkpt lat="45.18607" lon="5.91302">
        <ele>1349</ele>
        <time>2022-01-22T13:57:36Z</time>
      </trkpt>
      <trkpt lat="45.1861" lon="5.91301">
        <ele>1349</ele>
        <time>2022-01-22T13:57:38Z</time>
      </trkpt>
      <trkpt lat="45.18613" lon="5.91302">
        <ele>1348</ele>
        <time>2022-01-22T13:57:40Z</time>
      </trkpt>
      <trkpt lat="45.18615" lon="5.91303">
        <ele>1348</ele>
        <time>2022-01-22T13:57:42Z</time>
      </trkpt>
      <trkpt lat="45.18617" lon="5.91304">
        <ele>1348</ele>
        <time>2022-01-22T13:57:43Z</time>
      </trkpt>
      <trkpt lat="45.18619" lon="5.91303">
        <ele>1348</ele>
        <time>2022-01-22T13:57:44Z</time>
      </trkpt>
      <trkpt lat="45.18621" lon="5.91303">
        <ele>1347</ele>
        <time>2022-01-22T13:57:45Z</time>
      </trkpt>
      <trkpt lat="45.18623" lon="5.91303">
        <ele>1347</ele>
        <time>2022-01-22T13:57:47Z</time>
      </trkpt>
      <trkpt lat="45.18626" lon="5.91302">
        <ele>1347</ele>
        <time>2022-01-22T13:57:49Z</time>
      </trkpt>
      <trkpt lat="45.18628" lon="5.91301">
        <ele>1346</ele>
        <time>2022-01-22T13:57:52Z</time>
      </trkpt>
      <trkpt lat="45.18631" lon="5.913">
        <ele>1347</ele>
        <time>2022-01-22T13:57:54Z</time>
      </trkpt>
      <trkpt lat="45.18634" lon="5.91299">
        <ele>1347</ele>
        <time>2022-01-22T13:57:56Z</time>
      </trkpt>
      <trkpt lat="45.18636" lon="5.91299">
        <ele>1346</ele>
        <time>2022-01-22T13:57:58Z</time>
      </trkpt>
      <trkpt lat="45.18638" lon="5.91297">
        <ele>1345</ele>
        <time>2022-01-22T13:58:01Z</time>
      </trkpt>
      <trkpt lat="45.1864" lon="5.91297">
        <ele>1343</ele>
        <time>2022-01-22T13:58:03Z</time>
      </trkpt>
      <trkpt lat="45.18642" lon="5.91297">
        <ele>1343</ele>
        <time>2022-01-22T13:58:05Z</time>
      </trkpt>
      <trkpt lat="45.18644" lon="5.91298">
        <ele>1343</ele>
        <time>2022-01-22T13:58:08Z</time>
      </trkpt>
      <trkpt lat="45.18646" lon="5.91299">
        <ele>1343</ele>
        <time>2022-01-22T13:58:10Z</time>
      </trkpt>
      <trkpt lat="45.18649" lon="5.913">
        <ele>1342</ele>
        <time>2022-01-22T13:58:12Z</time>
      </trkpt>
      <trkpt lat="45.18652" lon="5.913">
        <ele>1342</ele>
        <time>2022-01-22T13:58:14Z</time>
      </trkpt>
      <trkpt lat="45.18656" lon="5.91301">
        <ele>1342</ele>
        <time>2022-01-22T13:58:16Z</time>
      </trkpt>
      <trkpt lat="45.18657" lon="5.913">
        <ele>1342</ele>
        <time>2022-01-22T13:58:18Z</time>
      </trkpt>
      <trkpt lat="45.18659" lon="5.913">
        <ele>1342</ele>
        <time>2022-01-22T13:58:20Z</time>
      </trkpt>
      <trkpt lat="45.18662" lon="5.913">
        <ele>1341</ele>
        <time>2022-01-22T13:58:22Z</time>
      </trkpt>
      <trkpt lat="45.18664" lon="5.91301">
        <ele>1340</ele>
        <time>2022-01-22T13:58:25Z</time>
      </trkpt>
      <trkpt lat="45.18666" lon="5.91301">
        <ele>1340</ele>
        <time>2022-01-22T13:58:27Z</time>
      </trkpt>
      <trkpt lat="45.18668" lon="5.913">
        <ele>1339</ele>
        <time>2022-01-22T13:58:29Z</time>
      </trkpt>
      <trkpt lat="45.18671" lon="5.91299">
        <ele>1339</ele>
        <time>2022-01-22T13:58:31Z</time>
      </trkpt>
      <trkpt lat="45.18673" lon="5.91298">
        <ele>1339</ele>
        <time>2022-01-22T13:58:33Z</time>
      </trkpt>
      <trkpt lat="45.18675" lon="5.91298">
        <ele>1338</ele>
        <time>2022-01-22T13:58:35Z</time>
      </trkpt>
      <trkpt lat="45.18678" lon="5.91297">
        <ele>1337</ele>
        <time>2022-01-22T13:58:37Z</time>
      </trkpt>
      <trkpt lat="45.18679" lon="5.91299">
        <ele>1337</ele>
        <time>2022-01-22T13:58:39Z</time>
      </trkpt>
      <trkpt lat="45.1868" lon="5.91302">
        <ele>1337</ele>
        <time>2022-01-22T13:58:42Z</time>
      </trkpt>
      <trkpt lat="45.18681" lon="5.91304">
        <ele>1338</ele>
        <time>2022-01-22T13:58:45Z</time>
      </trkpt>
      <trkpt lat="45.18682" lon="5.91307">
        <ele>1337</ele>
        <time>2022-01-22T13:58:52Z</time>
      </trkpt>
      <trkpt lat="45.18684" lon="5.91304">
        <ele>1338</ele>
        <time>2022-01-22T13:59:18Z</time>
      </trkpt>
      <trkpt lat="45.18685" lon="5.91302">
        <ele>1338</ele>
        <time>2022-01-22T13:59:19Z</time>
      </trkpt>
      <trkpt lat="45.18687" lon="5.91299">
        <ele>1337</ele>
        <time>2022-01-22T13:59:20Z</time>
      </trkpt>
      <trkpt lat="45.18688" lon="5.91297">
        <ele>1337</ele>
        <time>2022-01-22T13:59:21Z</time>
      </trkpt>
      <trkpt lat="45.1869" lon="5.91294">
        <ele>1337</ele>
        <time>2022-01-22T13:59:22Z</time>
      </trkpt>
      <trkpt lat="45.18692" lon="5.9129">
        <ele>1336</ele>
        <time>2022-01-22T13:59:23Z</time>
      </trkpt>
      <trkpt lat="45.18697" lon="5.91282">
        <ele>1336</ele>
        <time>2022-01-22T13:59:24Z</time>
      </trkpt>
      <trkpt lat="45.18699" lon="5.91279">
        <ele>1336</ele>
        <time>2022-01-22T13:59:26Z</time>
      </trkpt>
      <trkpt lat="45.18702" lon="5.91275">
        <ele>1335</ele>
        <time>2022-01-22T13:59:27Z</time>
      </trkpt>
      <trkpt lat="45.18704" lon="5.91271">
        <ele>1335</ele>
        <time>2022-01-22T13:59:28Z</time>
      </trkpt>
      <trkpt lat="45.18707" lon="5.91267">
        <ele>1335</ele>
        <time>2022-01-22T13:59:29Z</time>
      </trkpt>
      <trkpt lat="45.18709" lon="5.91264">
        <ele>1335</ele>
        <time>2022-01-22T13:59:30Z</time>
      </trkpt>
      <trkpt lat="45.18711" lon="5.9126">
        <ele>1335</ele>
        <time>2022-01-22T13:59:31Z</time>
      </trkpt>
      <trkpt lat="45.18714" lon="5.91257">
        <ele>1335</ele>
        <time>2022-01-22T13:59:32Z</time>
      </trkpt>
      <trkpt lat="45.18716" lon="5.91254">
        <ele>1335</ele>
        <time>2022-01-22T13:59:33Z</time>
      </trkpt>
      <trkpt lat="45.18718" lon="5.91251">
        <ele>1335</ele>
        <time>2022-01-22T13:59:34Z</time>
      </trkpt>
      <trkpt lat="45.1872" lon="5.91248">
        <ele>1334</ele>
        <time>2022-01-22T13:59:35Z</time>
      </trkpt>
      <trkpt lat="45.18722" lon="5.91245">
        <ele>1334</ele>
        <time>2022-01-22T13:59:36Z</time>
      </trkpt>
      <trkpt lat="45.18723" lon="5.91242">
        <ele>1334</ele>
        <time>2022-01-22T13:59:37Z</time>
      </trkpt>
      <trkpt lat="45.18725" lon="5.9124">
        <ele>1334</ele>
        <time>2022-01-22T13:59:38Z</time>
      </trkpt>
      <trkpt lat="45.18726" lon="5.91237">
        <ele>1334</ele>
        <time>2022-01-22T13:59:39Z</time>
      </trkpt>
      <trkpt lat="45.18728" lon="5.91235">
        <ele>1334</ele>
        <time>2022-01-22T13:59:40Z</time>
      </trkpt>
      <trkpt lat="45.18729" lon="5.91233">
        <ele>1334</ele>
        <time>2022-01-22T13:59:41Z</time>
      </trkpt>
      <trkpt lat="45.18733" lon="5.91227">
        <ele>1333</ele>
        <time>2022-01-22T13:59:43Z</time>
      </trkpt>
      <trkpt lat="45.18735" lon="5.91224">
        <ele>1332</ele>
        <time>2022-01-22T13:59:45Z</time>
      </trkpt>
      <trkpt lat="45.18737" lon="5.91222">
        <ele>1332</ele>
        <time>2022-01-22T13:59:46Z</time>
      </trkpt>
      <trkpt lat="45.18739" lon="5.9122">
        <ele>1332</ele>
        <time>2022-01-22T13:59:47Z</time>
      </trkpt>
      <trkpt lat="45.1874" lon="5.91219">
        <ele>1332</ele>
        <time>2022-01-22T13:59:48Z</time>
      </trkpt>
      <trkpt lat="45.18742" lon="5.91214">
        <ele>1331</ele>
        <time>2022-01-22T13:59:50Z</time>
      </trkpt>
      <trkpt lat="45.18743" lon="5.91211">
        <ele>1330</ele>
        <time>2022-01-22T13:59:51Z</time>
      </trkpt>
      <trkpt lat="45.18744" lon="5.91209">
        <ele>1330</ele>
        <time>2022-01-22T13:59:52Z</time>
      </trkpt>
      <trkpt lat="45.18745" lon="5.91205">
        <ele>1329</ele>
        <time>2022-01-22T13:59:54Z</time>
      </trkpt>
      <trkpt lat="45.18746" lon="5.91202">
        <ele>1329</ele>
        <time>2022-01-22T13:59:55Z</time>
      </trkpt>
      <trkpt lat="45.18747" lon="5.91199">
        <ele>1329</ele>
        <time>2022-01-22T13:59:56Z</time>
      </trkpt>
      <trkpt lat="45.18749" lon="5.91195">
        <ele>1329</ele>
        <time>2022-01-22T13:59:57Z</time>
      </trkpt>
      <trkpt lat="45.18751" lon="5.91192">
        <ele>1328</ele>
        <time>2022-01-22T13:59:58Z</time>
      </trkpt>
      <trkpt lat="45.18753" lon="5.9119">
        <ele>1327</ele>
        <time>2022-01-22T13:59:59Z</time>
      </trkpt>
      <trkpt lat="45.18755" lon="5.91188">
        <ele>1327</ele>
        <time>2022-01-22T14:00:00Z</time>
      </trkpt>
      <trkpt lat="45.18756" lon="5.91186">
        <ele>1325</ele>
        <time>2022-01-22T14:00:01Z</time>
      </trkpt>
      <trkpt lat="45.1876" lon="5.91183">
        <ele>1324</ele>
        <time>2022-01-22T14:00:02Z</time>
      </trkpt>
      <trkpt lat="45.18762" lon="5.91182">
        <ele>1324</ele>
        <time>2022-01-22T14:00:04Z</time>
      </trkpt>
      <trkpt lat="45.18764" lon="5.91182">
        <ele>1324</ele>
        <time>2022-01-22T14:00:05Z</time>
      </trkpt>
      <trkpt lat="45.18767" lon="5.9118">
        <ele>1324</ele>
        <time>2022-01-22T14:00:07Z</time>
      </trkpt>
      <trkpt lat="45.1877" lon="5.91176">
        <ele>1324</ele>
        <time>2022-01-22T14:00:09Z</time>
      </trkpt>
      <trkpt lat="45.18771" lon="5.91173">
        <ele>1324</ele>
        <time>2022-01-22T14:00:10Z</time>
      </trkpt>
      <trkpt lat="45.18772" lon="5.91171">
        <ele>1323</ele>
        <time>2022-01-22T14:00:11Z</time>
      </trkpt>
      <trkpt lat="45.18775" lon="5.91169">
        <ele>1321</ele>
        <time>2022-01-22T14:00:13Z</time>
      </trkpt>
      <trkpt lat="45.18777" lon="5.91168">
        <ele>1320</ele>
        <time>2022-01-22T14:00:15Z</time>
      </trkpt>
      <trkpt lat="45.18779" lon="5.91166">
        <ele>1320</ele>
        <time>2022-01-22T14:00:17Z</time>
      </trkpt>
      <trkpt lat="45.18781" lon="5.91165">
        <ele>1318</ele>
        <time>2022-01-22T14:00:21Z</time>
      </trkpt>
      <trkpt lat="45.18782" lon="5.91164">
        <ele>1318</ele>
        <time>2022-01-22T14:00:47Z</time>
      </trkpt>
      <trkpt lat="45.18784" lon="5.91164">
        <ele>1318</ele>
        <time>2022-01-22T14:01:06Z</time>
      </trkpt>
      <trkpt lat="45.18786" lon="5.91164">
        <ele>1319</ele>
        <time>2022-01-22T14:01:11Z</time>
      </trkpt>
      <trkpt lat="45.18787" lon="5.91162">
        <ele>1317</ele>
        <time>2022-01-22T14:01:14Z</time>
      </trkpt>
      <trkpt lat="45.18788" lon="5.9116">
        <ele>1317</ele>
        <time>2022-01-22T14:01:16Z</time>
      </trkpt>
      <trkpt lat="45.18789" lon="5.91157">
        <ele>1316</ele>
        <time>2022-01-22T14:01:18Z</time>
      </trkpt>
      <trkpt lat="45.18791" lon="5.91156">
        <ele>1316</ele>
        <time>2022-01-22T14:01:20Z</time>
      </trkpt>
      <trkpt lat="45.18793" lon="5.91154">
        <ele>1315</ele>
        <time>2022-01-22T14:01:22Z</time>
      </trkpt>
      <trkpt lat="45.18793" lon="5.91151">
        <ele>1315</ele>
        <time>2022-01-22T14:01:24Z</time>
      </trkpt>
      <trkpt lat="45.18793" lon="5.91148">
        <ele>1315</ele>
        <time>2022-01-22T14:01:26Z</time>
      </trkpt>
      <trkpt lat="45.18793" lon="5.91145">
        <ele>1313</ele>
        <time>2022-01-22T14:01:28Z</time>
      </trkpt>
      <trkpt lat="45.18792" lon="5.91142">
        <ele>1313</ele>
        <time>2022-01-22T14:01:30Z</time>
      </trkpt>
      <trkpt lat="45.18792" lon="5.91139">
        <ele>1313</ele>
        <time>2022-01-22T14:01:32Z</time>
      </trkpt>
      <trkpt lat="45.1879" lon="5.91136">
        <ele>1312</ele>
        <time>2022-01-22T14:01:34Z</time>
      </trkpt>
      <trkpt lat="45.1879" lon="5.91134">
        <ele>1311</ele>
        <time>2022-01-22T14:01:36Z</time>
      </trkpt>
      <trkpt lat="45.18789" lon="5.91131">
        <ele>1311</ele>
        <time>2022-01-22T14:01:37Z</time>
      </trkpt>
      <trkpt lat="45.18786" lon="5.91128">
        <ele>1310</ele>
        <time>2022-01-22T14:01:40Z</time>
      </trkpt>
      <trkpt lat="45.18785" lon="5.91125">
        <ele>1309</ele>
        <time>2022-01-22T14:01:42Z</time>
      </trkpt>
      <trkpt lat="45.18783" lon="5.91123">
        <ele>1308</ele>
        <time>2022-01-22T14:01:44Z</time>
      </trkpt>
      <trkpt lat="45.18781" lon="5.91122">
        <ele>1308</ele>
        <time>2022-01-22T14:01:46Z</time>
      </trkpt>
      <trkpt lat="45.18779" lon="5.91122">
        <ele>1308</ele>
        <time>2022-01-22T14:01:52Z</time>
      </trkpt>
      <trkpt lat="45.18778" lon="5.91119">
        <ele>1307</ele>
        <time>2022-01-22T14:02:07Z</time>
      </trkpt>
      <trkpt lat="45.18776" lon="5.91116">
        <ele>1307</ele>
        <time>2022-01-22T14:02:10Z</time>
      </trkpt>
      <trkpt lat="45.18774" lon="5.91116">
        <ele>1307</ele>
        <time>2022-01-22T14:02:13Z</time>
      </trkpt>
      <trkpt lat="45.18771" lon="5.91115">
        <ele>1306</ele>
        <time>2022-01-22T14:02:15Z</time>
      </trkpt>
      <trkpt lat="45.18769" lon="5.91115">
        <ele>1306</ele>
        <time>2022-01-22T14:02:18Z</time>
      </trkpt>
      <trkpt lat="45.18767" lon="5.91116">
        <ele>1304</ele>
        <time>2022-01-22T14:02:20Z</time>
      </trkpt>
      <trkpt lat="45.18766" lon="5.91117">
        <ele>1304</ele>
        <time>2022-01-22T14:02:22Z</time>
      </trkpt>
      <trkpt lat="45.18764" lon="5.91117">
        <ele>1304</ele>
        <time>2022-01-22T14:02:25Z</time>
      </trkpt>
      <trkpt lat="45.18762" lon="5.91116">
        <ele>1302</ele>
        <time>2022-01-22T14:02:29Z</time>
      </trkpt>
      <trkpt lat="45.1876" lon="5.91116">
        <ele>1301</ele>
        <time>2022-01-22T14:02:31Z</time>
      </trkpt>
      <trkpt lat="45.18758" lon="5.91115">
        <ele>1301</ele>
        <time>2022-01-22T14:02:33Z</time>
      </trkpt>
      <trkpt lat="45.18756" lon="5.91114">
        <ele>1301</ele>
        <time>2022-01-22T14:02:34Z</time>
      </trkpt>
      <trkpt lat="45.18753" lon="5.91114">
        <ele>1300</ele>
        <time>2022-01-22T14:02:37Z</time>
      </trkpt>
      <trkpt lat="45.18751" lon="5.91114">
        <ele>1300</ele>
        <time>2022-01-22T14:02:40Z</time>
      </trkpt>
      <trkpt lat="45.18749" lon="5.91114">
        <ele>1299</ele>
        <time>2022-01-22T14:02:44Z</time>
      </trkpt>
      <trkpt lat="45.18747" lon="5.91112">
        <ele>1299</ele>
        <time>2022-01-22T14:02:47Z</time>
      </trkpt>
      <trkpt lat="45.18745" lon="5.91112">
        <ele>1298</ele>
        <time>2022-01-22T14:02:53Z</time>
      </trkpt>
      <trkpt lat="45.18742" lon="5.91113">
        <ele>1297</ele>
        <time>2022-01-22T14:02:56Z</time>
      </trkpt>
      <trkpt lat="45.18739" lon="5.91111">
        <ele>1297</ele>
        <time>2022-01-22T14:02:59Z</time>
      </trkpt>
      <trkpt lat="45.18729" lon="5.91108">
        <ele>1294</ele>
        <time>2022-01-22T14:03:09Z</time>
      </trkpt>
      <trkpt lat="45.18724" lon="5.91105">
        <ele>1293</ele>
        <time>2022-01-22T14:03:12Z</time>
      </trkpt>
      <trkpt lat="45.18722" lon="5.91104">
        <ele>1292</ele>
        <time>2022-01-22T14:03:15Z</time>
      </trkpt>
      <trkpt lat="45.1872" lon="5.91103">
        <ele>1292</ele>
        <time>2022-01-22T14:03:18Z</time>
      </trkpt>
      <trkpt lat="45.18718" lon="5.91102">
        <ele>1292</ele>
        <time>2022-01-22T14:03:20Z</time>
      </trkpt>
      <trkpt lat="45.18716" lon="5.91101">
        <ele>1291</ele>
        <time>2022-01-22T14:03:23Z</time>
      </trkpt>
      <trkpt lat="45.18714" lon="5.911">
        <ele>1291</ele>
        <time>2022-01-22T14:03:25Z</time>
      </trkpt>
      <trkpt lat="45.18711" lon="5.911">
        <ele>1290</ele>
        <time>2022-01-22T14:03:28Z</time>
      </trkpt>
      <trkpt lat="45.18708" lon="5.91101">
        <ele>1290</ele>
        <time>2022-01-22T14:03:31Z</time>
      </trkpt>
      <trkpt lat="45.18706" lon="5.91098">
        <ele>1290</ele>
        <time>2022-01-22T14:03:34Z</time>
      </trkpt>
      <trkpt lat="45.18705" lon="5.91095">
        <ele>1289</ele>
        <time>2022-01-22T14:03:36Z</time>
      </trkpt>
      <trkpt lat="45.18703" lon="5.91092">
        <ele>1287</ele>
        <time>2022-01-22T14:03:38Z</time>
      </trkpt>
      <trkpt lat="45.18701" lon="5.9109">
        <ele>1286</ele>
        <time>2022-01-22T14:03:39Z</time>
      </trkpt>
      <trkpt lat="45.18692" lon="5.91083">
        <ele>1284</ele>
        <time>2022-01-22T14:03:49Z</time>
      </trkpt>
      <trkpt lat="45.18685" lon="5.91072">
        <ele>1282</ele>
        <time>2022-01-22T14:03:59Z</time>
      </trkpt>
      <trkpt lat="45.18678" lon="5.91062">
        <ele>1281</ele>
        <time>2022-01-22T14:04:05Z</time>
      </trkpt>
      <trkpt lat="45.18674" lon="5.9105">
        <ele>1278</ele>
        <time>2022-01-22T14:04:16Z</time>
      </trkpt>
      <trkpt lat="45.18669" lon="5.91038">
        <ele>1276</ele>
        <time>2022-01-22T14:04:22Z</time>
      </trkpt>
      <trkpt lat="45.18663" lon="5.91028">
        <ele>1275</ele>
        <time>2022-01-22T14:04:27Z</time>
      </trkpt>
      <trkpt lat="45.18654" lon="5.91019">
        <ele>1272</ele>
        <time>2022-01-22T14:04:34Z</time>
      </trkpt>
      <trkpt lat="45.18647" lon="5.9101">
        <ele>1269</ele>
        <time>2022-01-22T14:04:44Z</time>
      </trkpt>
      <trkpt lat="45.18641" lon="5.91">
        <ele>1268</ele>
        <time>2022-01-22T14:04:54Z</time>
      </trkpt>
      <trkpt lat="45.18635" lon="5.90989">
        <ele>1264</ele>
        <time>2022-01-22T14:05:04Z</time>
      </trkpt>
      <trkpt lat="45.18633" lon="5.90985">
        <ele>1263</ele>
        <time>2022-01-22T14:05:08Z</time>
      </trkpt>
      <trkpt lat="45.1863" lon="5.90982">
        <ele>1262</ele>
        <time>2022-01-22T14:05:13Z</time>
      </trkpt>
      <trkpt lat="45.18625" lon="5.9097">
        <ele>1259</ele>
        <time>2022-01-22T14:05:21Z</time>
      </trkpt>
      <trkpt lat="45.18623" lon="5.90969">
        <ele>1259</ele>
        <time>2022-01-22T14:05:23Z</time>
      </trkpt>
      <trkpt lat="45.18622" lon="5.90966">
        <ele>1259</ele>
        <time>2022-01-22T14:05:25Z</time>
      </trkpt>
      <trkpt lat="45.18619" lon="5.90963">
        <ele>1258</ele>
        <time>2022-01-22T14:05:28Z</time>
      </trkpt>
      <trkpt lat="45.18618" lon="5.9096">
        <ele>1257</ele>
        <time>2022-01-22T14:05:31Z</time>
      </trkpt>
      <trkpt lat="45.18617" lon="5.90957">
        <ele>1257</ele>
        <time>2022-01-22T14:05:33Z</time>
      </trkpt>
      <trkpt lat="45.18615" lon="5.90955">
        <ele>1255</ele>
        <time>2022-01-22T14:05:36Z</time>
      </trkpt>
      <trkpt lat="45.18607" lon="5.90947">
        <ele>1253</ele>
        <time>2022-01-22T14:05:46Z</time>
      </trkpt>
      <trkpt lat="45.18602" lon="5.90939">
        <ele>1251</ele>
        <time>2022-01-22T14:05:53Z</time>
      </trkpt>
      <trkpt lat="45.18601" lon="5.90936">
        <ele>1251</ele>
        <time>2022-01-22T14:05:56Z</time>
      </trkpt>
      <trkpt lat="45.18599" lon="5.90934">
        <ele>1250</ele>
        <time>2022-01-22T14:05:58Z</time>
      </trkpt>
      <trkpt lat="45.18592" lon="5.90924">
        <ele>1247</ele>
        <time>2022-01-22T14:06:06Z</time>
      </trkpt>
      <trkpt lat="45.18584" lon="5.90916">
        <ele>1247</ele>
        <time>2022-01-22T14:06:09Z</time>
      </trkpt>
      <trkpt lat="45.18579" lon="5.90905">
        <ele>1245</ele>
        <time>2022-01-22T14:06:16Z</time>
      </trkpt>
      <trkpt lat="45.18572" lon="5.90897">
        <ele>1244</ele>
        <time>2022-01-22T14:06:24Z</time>
      </trkpt>
      <trkpt lat="45.18567" lon="5.90886">
        <ele>1242</ele>
        <time>2022-01-22T14:06:40Z</time>
      </trkpt>
      <trkpt lat="45.18557" lon="5.9088">
        <ele>1239</ele>
        <time>2022-01-22T14:06:49Z</time>
      </trkpt>
      <trkpt lat="45.18549" lon="5.90872">
        <ele>1237</ele>
        <time>2022-01-22T14:06:59Z</time>
      </trkpt>
      <trkpt lat="45.18547" lon="5.90869">
        <ele>1237</ele>
        <time>2022-01-22T14:07:00Z</time>
      </trkpt>
      <trkpt lat="45.18546" lon="5.90866">
        <ele>1236</ele>
        <time>2022-01-22T14:07:03Z</time>
      </trkpt>
      <trkpt lat="45.1854" lon="5.90856">
        <ele>1233</ele>
        <time>2022-01-22T14:07:17Z</time>
      </trkpt>
      <trkpt lat="45.1853" lon="5.90852">
        <ele>1233</ele>
        <time>2022-01-22T14:07:32Z</time>
      </trkpt>
      <trkpt lat="45.18524" lon="5.90841">
        <ele>1232</ele>
        <time>2022-01-22T14:07:38Z</time>
      </trkpt>
      <trkpt lat="45.18518" lon="5.90831">
        <ele>1230</ele>
        <time>2022-01-22T14:07:46Z</time>
      </trkpt>
      <trkpt lat="45.18515" lon="5.90825">
        <ele>1229</ele>
        <time>2022-01-22T14:07:51Z</time>
      </trkpt>
      <trkpt lat="45.18511" lon="5.90824">
        <ele>1228</ele>
        <time>2022-01-22T14:07:59Z</time>
      </trkpt>
      <trkpt lat="45.18509" lon="5.90819">
        <ele>1228</ele>
        <time>2022-01-22T14:08:03Z</time>
      </trkpt>
      <trkpt lat="45.18507" lon="5.90818">
        <ele>1226</ele>
        <time>2022-01-22T14:08:06Z</time>
      </trkpt>
      <trkpt lat="45.18505" lon="5.90815">
        <ele>1226</ele>
        <time>2022-01-22T14:08:09Z</time>
      </trkpt>
      <trkpt lat="45.18505" lon="5.90813">
        <ele>1226</ele>
        <time>2022-01-22T14:08:10Z</time>
      </trkpt>
      <trkpt lat="45.18503" lon="5.9081">
        <ele>1226</ele>
        <time>2022-01-22T14:08:12Z</time>
      </trkpt>
      <trkpt lat="45.18502" lon="5.90809">
        <ele>1226</ele>
        <time>2022-01-22T14:08:14Z</time>
      </trkpt>
      <trkpt lat="45.18499" lon="5.90807">
        <ele>1226</ele>
        <time>2022-01-22T14:08:16Z</time>
      </trkpt>
      <trkpt lat="45.18497" lon="5.90805">
        <ele>1225</ele>
        <time>2022-01-22T14:08:19Z</time>
      </trkpt>
      <trkpt lat="45.18493" lon="5.90803">
        <ele>1224</ele>
        <time>2022-01-22T14:08:24Z</time>
      </trkpt>
      <trkpt lat="45.18491" lon="5.90801">
        <ele>1223</ele>
        <time>2022-01-22T14:08:26Z</time>
      </trkpt>
      <trkpt lat="45.18484" lon="5.90793">
        <ele>1222</ele>
        <time>2022-01-22T14:08:34Z</time>
      </trkpt>
      <trkpt lat="45.18477" lon="5.90785">
        <ele>1219</ele>
        <time>2022-01-22T14:08:42Z</time>
      </trkpt>
      <trkpt lat="45.18467" lon="5.90779">
        <ele>1216</ele>
        <time>2022-01-22T14:08:50Z</time>
      </trkpt>
      <trkpt lat="45.18461" lon="5.90769">
        <ele>1214</ele>
        <time>2022-01-22T14:08:57Z</time>
      </trkpt>
      <trkpt lat="45.18453" lon="5.90763">
        <ele>1211</ele>
        <time>2022-01-22T14:09:09Z</time>
      </trkpt>
      <trkpt lat="45.18445" lon="5.90755">
        <ele>1208</ele>
        <time>2022-01-22T14:09:19Z</time>
      </trkpt>
      <trkpt lat="45.18435" lon="5.90742">
        <ele>1206</ele>
        <time>2022-01-22T14:09:26Z</time>
      </trkpt>
      <trkpt lat="45.18429" lon="5.90729">
        <ele>1206</ele>
        <time>2022-01-22T14:09:32Z</time>
      </trkpt>
      <trkpt lat="45.18425" lon="5.90716">
        <ele>1204</ele>
        <time>2022-01-22T14:09:39Z</time>
      </trkpt>
      <trkpt lat="45.18425" lon="5.90713">
        <ele>1203</ele>
        <time>2022-01-22T14:09:40Z</time>
      </trkpt>
      <trkpt lat="45.18424" lon="5.9071">
        <ele>1203</ele>
        <time>2022-01-22T14:09:41Z</time>
      </trkpt>
      <trkpt lat="45.18425" lon="5.90697">
        <ele>1202</ele>
        <time>2022-01-22T14:09:46Z</time>
      </trkpt>
      <trkpt lat="45.18426" lon="5.90683">
        <ele>1201</ele>
        <time>2022-01-22T14:09:51Z</time>
      </trkpt>
      <trkpt lat="45.18428" lon="5.90678">
        <ele>1200</ele>
        <time>2022-01-22T14:09:55Z</time>
      </trkpt>
      <trkpt lat="45.1843" lon="5.90676">
        <ele>1200</ele>
        <time>2022-01-22T14:09:57Z</time>
      </trkpt>
      <trkpt lat="45.1843" lon="5.90671">
        <ele>1200</ele>
        <time>2022-01-22T14:10:00Z</time>
      </trkpt>
      <trkpt lat="45.18432" lon="5.90668">
        <ele>1200</ele>
        <time>2022-01-22T14:10:02Z</time>
      </trkpt>
      <trkpt lat="45.18435" lon="5.90662">
        <ele>1200</ele>
        <time>2022-01-22T14:10:06Z</time>
      </trkpt>
      <trkpt lat="45.18438" lon="5.90656">
        <ele>1199</ele>
        <time>2022-01-22T14:10:12Z</time>
      </trkpt>
      <trkpt lat="45.1844" lon="5.90653">
        <ele>1199</ele>
        <time>2022-01-22T14:10:14Z</time>
      </trkpt>
      <trkpt lat="45.18441" lon="5.9065">
        <ele>1199</ele>
        <time>2022-01-22T14:10:16Z</time>
      </trkpt>
      <trkpt lat="45.18442" lon="5.90646">
        <ele>1199</ele>
        <time>2022-01-22T14:10:19Z</time>
      </trkpt>
      <trkpt lat="45.18444" lon="5.90644">
        <ele>1199</ele>
        <time>2022-01-22T14:10:21Z</time>
      </trkpt>
      <trkpt lat="45.18446" lon="5.90641">
        <ele>1200</ele>
        <time>2022-01-22T14:10:23Z</time>
      </trkpt>
      <trkpt lat="45.18448" lon="5.90639">
        <ele>1199</ele>
        <time>2022-01-22T14:10:25Z</time>
      </trkpt>
      <trkpt lat="45.18449" lon="5.90637">
        <ele>1198</ele>
        <time>2022-01-22T14:10:27Z</time>
      </trkpt>
      <trkpt lat="45.18455" lon="5.90626">
        <ele>1198</ele>
        <time>2022-01-22T14:10:36Z</time>
      </trkpt>
      <trkpt lat="45.18457" lon="5.90621">
        <ele>1198</ele>
        <time>2022-01-22T14:10:42Z</time>
      </trkpt>
      <trkpt lat="45.18465" lon="5.90612">
        <ele>1197</ele>
        <time>2022-01-22T14:10:51Z</time>
      </trkpt>
      <trkpt lat="45.18473" lon="5.90608">
        <ele>1196</ele>
        <time>2022-01-22T14:10:56Z</time>
      </trkpt>
      <trkpt lat="45.18475" lon="5.90609">
        <ele>1196</ele>
        <time>2022-01-22T14:10:59Z</time>
      </trkpt>
      <trkpt lat="45.18478" lon="5.90608">
        <ele>1195</ele>
        <time>2022-01-22T14:11:03Z</time>
      </trkpt>
      <trkpt lat="45.18479" lon="5.90607">
        <ele>1195</ele>
        <time>2022-01-22T14:11:05Z</time>
      </trkpt>
      <trkpt lat="45.18484" lon="5.90609">
        <ele>1194</ele>
        <time>2022-01-22T14:11:15Z</time>
      </trkpt>
      <trkpt lat="45.18485" lon="5.90605">
        <ele>1192</ele>
        <time>2022-01-22T14:11:23Z</time>
      </trkpt>
      <trkpt lat="45.18487" lon="5.90603">
        <ele>1192</ele>
        <time>2022-01-22T14:11:26Z</time>
      </trkpt>
      <trkpt lat="45.18489" lon="5.90601">
        <ele>1192</ele>
        <time>2022-01-22T14:11:28Z</time>
      </trkpt>
      <trkpt lat="45.18492" lon="5.90598">
        <ele>1192</ele>
        <time>2022-01-22T14:11:36Z</time>
      </trkpt>
      <trkpt lat="45.185" lon="5.90589">
        <ele>1191</ele>
        <time>2022-01-22T14:11:49Z</time>
      </trkpt>
      <trkpt lat="45.18509" lon="5.90591">
        <ele>1189</ele>
        <time>2022-01-22T14:12:11Z</time>
      </trkpt>
      <trkpt lat="45.18518" lon="5.90582">
        <ele>1187</ele>
        <time>2022-01-22T14:12:28Z</time>
      </trkpt>
      <trkpt lat="45.18526" lon="5.90575">
        <ele>1184</ele>
        <time>2022-01-22T14:12:41Z</time>
      </trkpt>
      <trkpt lat="45.1853" lon="5.90571">
        <ele>1183</ele>
        <time>2022-01-22T14:12:47Z</time>
      </trkpt>
      <trkpt lat="45.18531" lon="5.90568">
        <ele>1182</ele>
        <time>2022-01-22T14:12:49Z</time>
      </trkpt>
      <trkpt lat="45.18533" lon="5.90567">
        <ele>1181</ele>
        <time>2022-01-22T14:12:51Z</time>
      </trkpt>
      <trkpt lat="45.18535" lon="5.90566">
        <ele>1181</ele>
        <time>2022-01-22T14:12:53Z</time>
      </trkpt>
      <trkpt lat="45.18537" lon="5.90564">
        <ele>1180</ele>
        <time>2022-01-22T14:12:57Z</time>
      </trkpt>
      <trkpt lat="45.18539" lon="5.90563">
        <ele>1180</ele>
        <time>2022-01-22T14:13:00Z</time>
      </trkpt>
      <trkpt lat="45.18541" lon="5.90561">
        <ele>1180</ele>
        <time>2022-01-22T14:13:03Z</time>
      </trkpt>
      <trkpt lat="45.18545" lon="5.90554">
        <ele>1177</ele>
        <time>2022-01-22T14:13:09Z</time>
      </trkpt>
      <trkpt lat="45.18548" lon="5.90551">
        <ele>1177</ele>
        <time>2022-01-22T14:13:12Z</time>
      </trkpt>
      <trkpt lat="45.18555" lon="5.90543">
        <ele>1176</ele>
        <time>2022-01-22T14:13:18Z</time>
      </trkpt>
      <trkpt lat="45.18557" lon="5.90539">
        <ele>1176</ele>
        <time>2022-01-22T14:13:20Z</time>
      </trkpt>
      <trkpt lat="45.1856" lon="5.90536">
        <ele>1176</ele>
        <time>2022-01-22T14:13:22Z</time>
      </trkpt>
      <trkpt lat="45.18563" lon="5.90535">
        <ele>1176</ele>
        <time>2022-01-22T14:13:24Z</time>
      </trkpt>
      <trkpt lat="45.18565" lon="5.90533">
        <ele>1175</ele>
        <time>2022-01-22T14:13:26Z</time>
      </trkpt>
      <trkpt lat="45.18568" lon="5.90531">
        <ele>1175</ele>
        <time>2022-01-22T14:13:28Z</time>
      </trkpt>
      <trkpt lat="45.18571" lon="5.90527">
        <ele>1174</ele>
        <time>2022-01-22T14:13:32Z</time>
      </trkpt>
      <trkpt lat="45.18578" lon="5.90535">
        <ele>1172</ele>
        <time>2022-01-22T14:13:54Z</time>
      </trkpt>
      <trkpt lat="45.18583" lon="5.90524">
        <ele>1173</ele>
        <time>2022-01-22T14:14:19Z</time>
      </trkpt>
      <trkpt lat="45.18588" lon="5.90513">
        <ele>1174</ele>
        <time>2022-01-22T14:14:24Z</time>
      </trkpt>
      <trkpt lat="45.18594" lon="5.90498">
        <ele>1173</ele>
        <time>2022-01-22T14:14:27Z</time>
      </trkpt>
      <trkpt lat="45.18595" lon="5.90491">
        <ele>1171</ele>
        <time>2022-01-22T14:14:28Z</time>
      </trkpt>
      <trkpt lat="45.18595" lon="5.90483">
        <ele>1170</ele>
        <time>2022-01-22T14:14:29Z</time>
      </trkpt>
      <trkpt lat="45.18596" lon="5.90475">
        <ele>1169</ele>
        <time>2022-01-22T14:14:30Z</time>
      </trkpt>
      <trkpt lat="45.18595" lon="5.90469">
        <ele>1168</ele>
        <time>2022-01-22T14:14:31Z</time>
      </trkpt>
      <trkpt lat="45.18595" lon="5.90462">
        <ele>1168</ele>
        <time>2022-01-22T14:14:32Z</time>
      </trkpt>
      <trkpt lat="45.18596" lon="5.90454">
        <ele>1168</ele>
        <time>2022-01-22T14:14:33Z</time>
      </trkpt>
      <trkpt lat="45.18598" lon="5.90448">
        <ele>1167</ele>
        <time>2022-01-22T14:14:34Z</time>
      </trkpt>
      <trkpt lat="45.18601" lon="5.90441">
        <ele>1167</ele>
        <time>2022-01-22T14:14:35Z</time>
      </trkpt>
      <trkpt lat="45.18611" lon="5.90434">
        <ele>1166</ele>
        <time>2022-01-22T14:14:36Z</time>
      </trkpt>
      <trkpt lat="45.18617" lon="5.90433">
        <ele>1165</ele>
        <time>2022-01-22T14:14:38Z</time>
      </trkpt>
      <trkpt lat="45.18622" lon="5.9043">
        <ele>1164</ele>
        <time>2022-01-22T14:14:39Z</time>
      </trkpt>
      <trkpt lat="45.18629" lon="5.90428">
        <ele>1163</ele>
        <time>2022-01-22T14:14:40Z</time>
      </trkpt>
      <trkpt lat="45.18634" lon="5.90425">
        <ele>1162</ele>
        <time>2022-01-22T14:14:41Z</time>
      </trkpt>
      <trkpt lat="45.1864" lon="5.90422">
        <ele>1161</ele>
        <time>2022-01-22T14:14:42Z</time>
      </trkpt>
      <trkpt lat="45.18646" lon="5.90419">
        <ele>1160</ele>
        <time>2022-01-22T14:14:43Z</time>
      </trkpt>
      <trkpt lat="45.18651" lon="5.90416">
        <ele>1160</ele>
        <time>2022-01-22T14:14:44Z</time>
      </trkpt>
      <trkpt lat="45.18656" lon="5.90411">
        <ele>1160</ele>
        <time>2022-01-22T14:14:45Z</time>
      </trkpt>
      <trkpt lat="45.18659" lon="5.90406">
        <ele>1159</ele>
        <time>2022-01-22T14:14:46Z</time>
      </trkpt>
      <trkpt lat="45.18661" lon="5.90391">
        <ele>1158</ele>
        <time>2022-01-22T14:14:48Z</time>
      </trkpt>
      <trkpt lat="45.18662" lon="5.90384">
        <ele>1156</ele>
        <time>2022-01-22T14:14:49Z</time>
      </trkpt>
      <trkpt lat="45.18666" lon="5.90369">
        <ele>1155</ele>
        <time>2022-01-22T14:14:51Z</time>
      </trkpt>
      <trkpt lat="45.1867" lon="5.90365">
        <ele>1154</ele>
        <time>2022-01-22T14:14:52Z</time>
      </trkpt>
      <trkpt lat="45.18681" lon="5.90362">
        <ele>1152</ele>
        <time>2022-01-22T14:14:54Z</time>
      </trkpt>
      <trkpt lat="45.18692" lon="5.90351">
        <ele>1151</ele>
        <time>2022-01-22T14:14:55Z</time>
      </trkpt>
      <trkpt lat="45.18696" lon="5.90336">
        <ele>1149</ele>
        <time>2022-01-22T14:14:58Z</time>
      </trkpt>
      <trkpt lat="45.18693" lon="5.90322">
        <ele>1148</ele>
        <time>2022-01-22T14:14:59Z</time>
      </trkpt>
      <trkpt lat="45.18685" lon="5.90311">
        <ele>1142</ele>
        <time>2022-01-22T14:15:02Z</time>
      </trkpt>
      <trkpt lat="45.18676" lon="5.90299">
        <ele>1141</ele>
        <time>2022-01-22T14:15:04Z</time>
      </trkpt>
      <trkpt lat="45.18667" lon="5.90286">
        <ele>1140</ele>
        <time>2022-01-22T14:15:06Z</time>
      </trkpt>
      <trkpt lat="45.18659" lon="5.90272">
        <ele>1138</ele>
        <time>2022-01-22T14:15:08Z</time>
      </trkpt>
      <trkpt lat="45.18651" lon="5.90256">
        <ele>1135</ele>
        <time>2022-01-22T14:15:10Z</time>
      </trkpt>
      <trkpt lat="45.18649" lon="5.90237">
        <ele>1133</ele>
        <time>2022-01-22T14:15:12Z</time>
      </trkpt>
      <trkpt lat="45.18648" lon="5.90217">
        <ele>1133</ele>
        <time>2022-01-22T14:15:14Z</time>
      </trkpt>
      <trkpt lat="45.18645" lon="5.90201">
        <ele>1130</ele>
        <time>2022-01-22T14:15:16Z</time>
      </trkpt>
      <trkpt lat="45.18639" lon="5.90184">
        <ele>1128</ele>
        <time>2022-01-22T14:15:18Z</time>
      </trkpt>
      <trkpt lat="45.18635" lon="5.90168">
        <ele>1126</ele>
        <time>2022-01-22T14:15:20Z</time>
      </trkpt>
      <trkpt lat="45.1863" lon="5.9015">
        <ele>1125</ele>
        <time>2022-01-22T14:15:22Z</time>
      </trkpt>
      <trkpt lat="45.1863" lon="5.90133">
        <ele>1123</ele>
        <time>2022-01-22T14:15:24Z</time>
      </trkpt>
      <trkpt lat="45.18631" lon="5.90124">
        <ele>1123</ele>
        <time>2022-01-22T14:15:25Z</time>
      </trkpt>
      <trkpt lat="45.18632" lon="5.90116">
        <ele>1122</ele>
        <time>2022-01-22T14:15:26Z</time>
      </trkpt>
      <trkpt lat="45.18634" lon="5.90098">
        <ele>1121</ele>
        <time>2022-01-22T14:15:28Z</time>
      </trkpt>
      <trkpt lat="45.18637" lon="5.90088">
        <ele>1120</ele>
        <time>2022-01-22T14:15:29Z</time>
      </trkpt>
      <trkpt lat="45.18645" lon="5.90074">
        <ele>1118</ele>
        <time>2022-01-22T14:15:31Z</time>
      </trkpt>
      <trkpt lat="45.18658" lon="5.90066">
        <ele>1117</ele>
        <time>2022-01-22T14:15:33Z</time>
      </trkpt>
      <trkpt lat="45.18671" lon="5.90064">
        <ele>1117</ele>
        <time>2022-01-22T14:15:35Z</time>
      </trkpt>
      <trkpt lat="45.18681" lon="5.90055">
        <ele>1115</ele>
        <time>2022-01-22T14:15:37Z</time>
      </trkpt>
      <trkpt lat="45.18683" lon="5.90047">
        <ele>1114</ele>
        <time>2022-01-22T14:15:38Z</time>
      </trkpt>
      <trkpt lat="45.18685" lon="5.90039">
        <ele>1113</ele>
        <time>2022-01-22T14:15:39Z</time>
      </trkpt>
      <trkpt lat="45.18685" lon="5.90031">
        <ele>1112</ele>
        <time>2022-01-22T14:15:40Z</time>
      </trkpt>
      <trkpt lat="45.18685" lon="5.90023">
        <ele>1112</ele>
        <time>2022-01-22T14:15:41Z</time>
      </trkpt>
      <trkpt lat="45.18687" lon="5.90014">
        <ele>1111</ele>
        <time>2022-01-22T14:15:42Z</time>
      </trkpt>
      <trkpt lat="45.18689" lon="5.90006">
        <ele>1110</ele>
        <time>2022-01-22T14:15:43Z</time>
      </trkpt>
      <trkpt lat="45.18693" lon="5.89995">
        <ele>1110</ele>
        <time>2022-01-22T14:15:45Z</time>
      </trkpt>
      <trkpt lat="45.18695" lon="5.89989">
        <ele>1109</ele>
        <time>2022-01-22T14:15:46Z</time>
      </trkpt>
      <trkpt lat="45.18695" lon="5.89982">
        <ele>1109</ele>
        <time>2022-01-22T14:15:47Z</time>
      </trkpt>
      <trkpt lat="45.18696" lon="5.89975">
        <ele>1108</ele>
        <time>2022-01-22T14:15:48Z</time>
      </trkpt>
      <trkpt lat="45.18696" lon="5.89969">
        <ele>1107</ele>
        <time>2022-01-22T14:15:49Z</time>
      </trkpt>
      <trkpt lat="45.18695" lon="5.89963">
        <ele>1106</ele>
        <time>2022-01-22T14:15:50Z</time>
      </trkpt>
      <trkpt lat="45.18694" lon="5.89959">
        <ele>1106</ele>
        <time>2022-01-22T14:15:51Z</time>
      </trkpt>
      <trkpt lat="45.18693" lon="5.89957">
        <ele>1105</ele>
        <time>2022-01-22T14:15:52Z</time>
      </trkpt>
      <trkpt lat="45.18691" lon="5.89954">
        <ele>1105</ele>
        <time>2022-01-22T14:15:54Z</time>
      </trkpt>
      <trkpt lat="45.18689" lon="5.89953">
        <ele>1104</ele>
        <time>2022-01-22T14:15:57Z</time>
      </trkpt>
      <trkpt lat="45.18689" lon="5.8995">
        <ele>1104</ele>
        <time>2022-01-22T14:16:00Z</time>
      </trkpt>
      <trkpt lat="45.1869" lon="5.8995">
        <ele>1103</ele>
        <time>2022-01-22T14:16:06Z</time>
      </trkpt>
      <trkpt lat="45.18688" lon="5.89952">
        <ele>1104</ele>
        <time>2022-01-22T14:16:09Z</time>
      </trkpt>
      <trkpt lat="45.18687" lon="5.89954">
        <ele>1103</ele>
        <time>2022-01-22T14:16:24Z</time>
      </trkpt>
      <trkpt lat="45.18687" lon="5.89951">
        <ele>1103</ele>
        <time>2022-01-22T14:16:28Z</time>
      </trkpt>
      <trkpt lat="45.18685" lon="5.89949">
        <ele>1103</ele>
        <time>2022-01-22T14:16:30Z</time>
      </trkpt>
      <trkpt lat="45.18684" lon="5.89947">
        <ele>1103</ele>
        <time>2022-01-22T14:16:32Z</time>
      </trkpt>
      <trkpt lat="45.18682" lon="5.89944">
        <ele>1103</ele>
        <time>2022-01-22T14:16:34Z</time>
      </trkpt>
      <trkpt lat="45.1868" lon="5.89941">
        <ele>1103</ele>
        <time>2022-01-22T14:16:36Z</time>
      </trkpt>
      <trkpt lat="45.18678" lon="5.89938">
        <ele>1103</ele>
        <time>2022-01-22T14:16:38Z</time>
      </trkpt>
      <trkpt lat="45.18677" lon="5.89936">
        <ele>1103</ele>
        <time>2022-01-22T14:16:40Z</time>
      </trkpt>
      <trkpt lat="45.18675" lon="5.89933">
        <ele>1103</ele>
        <time>2022-01-22T14:16:42Z</time>
      </trkpt>
      <trkpt lat="45.18673" lon="5.89933">
        <ele>1103</ele>
        <time>2022-01-22T14:16:45Z</time>
      </trkpt>
      <trkpt lat="45.18671" lon="5.89932">
        <ele>1103</ele>
        <time>2022-01-22T14:16:49Z</time>
      </trkpt>
      <trkpt lat="45.18672" lon="5.89929">
        <ele>1104</ele>
        <time>2022-01-22T14:16:56Z</time>
      </trkpt>
      <trkpt lat="45.18673" lon="5.89928">
        <ele>1104</ele>
        <time>2022-01-22T14:17:10Z</time>
      </trkpt>
      <trkpt lat="45.18675" lon="5.8993">
        <ele>1104</ele>
        <time>2022-01-22T14:17:13Z</time>
      </trkpt>
      <trkpt lat="45.18673" lon="5.89932">
        <ele>1104</ele>
        <time>2022-01-22T14:17:44Z</time>
      </trkpt>
      <trkpt lat="45.18671" lon="5.89934">
        <ele>1104</ele>
        <time>2022-01-22T14:17:56Z</time>
      </trkpt>
      <trkpt lat="45.1867" lon="5.89936">
        <ele>1105</ele>
        <time>2022-01-22T14:18:09Z</time>
      </trkpt>
      <trkpt lat="45.18672" lon="5.89937">
        <ele>1104</ele>
        <time>2022-01-22T14:18:50Z</time>
      </trkpt>
      <trkpt lat="45.18672" lon="5.89934">
        <ele>1104</ele>
        <time>2022-01-22T14:18:52Z</time>
      </trkpt>
      <trkpt lat="45.1867" lon="5.89933">
        <ele>1103</ele>
        <time>2022-01-22T14:19:10Z</time>
      </trkpt>
      <trkpt lat="45.1867" lon="5.89935">
        <ele>1106</ele>
        <time>2022-01-22T14:19:31Z</time>
      </trkpt>
      <trkpt lat="45.18671" lon="5.89937">
        <ele>1106</ele>
        <time>2022-01-22T14:19:41Z</time>
      </trkpt>
    </trkseg>
  </trk>
</gpx>